﻿<?xml version="1.0" encoding="utf-8"?><gpx creator="Garmin Desktop App" version="1.1" xsi:schemaLocation="http://www.topografix.com/GPX/1/1 http://www.topografix.com/GPX/1/1/gpx.xsd http://www.garmin.com/xmlschemas/WaypointExtension/v1 http://www8.garmin.com/xmlschemas/WaypointExtensionv1.xsd http://www.garmin.com/xmlschemas/TrackPointExtension/v1 http://www.garmin.com/xmlschemas/TrackPointExtensionv1.xsd http://www.garmin.com/xmlschemas/GpxExtensions/v3 http://www8.garmin.com/xmlschemas/GpxExtensionsv3.xsd http://www.garmin.com/xmlschemas/ActivityExtension/v1 http://www8.garmin.com/xmlschemas/ActivityExtensionv1.xsd http://www.garmin.com/xmlschemas/AdventuresExtensions/v1 http://www8.garmin.com/xmlschemas/AdventuresExtensionv1.xsd http://www.garmin.com/xmlschemas/PressureExtension/v1 http://www.garmin.com/xmlschemas/PressureExtensionv1.xsd http://www.garmin.com/xmlschemas/TripExtensions/v1 http://www.garmin.com/xmlschemas/TripExtensionsv1.xsd http://www.garmin.com/xmlschemas/TripMetaDataExtensions/v1 http://www.garmin.com/xmlschemas/TripMetaDataExtensionsv1.xsd http://www.garmin.com/xmlschemas/ViaPointTransportationModeExtensions/v1 http://www.garmin.com/xmlschemas/ViaPointTransportationModeExtensionsv1.xsd http://www.garmin.com/xmlschemas/CreationTimeExtension/v1 http://www.garmin.com/xmlschemas/CreationTimeExtensionsv1.xsd http://www.garmin.com/xmlschemas/AccelerationExtension/v1 http://www.garmin.com/xmlschemas/AccelerationExtensionv1.xsd http://www.garmin.com/xmlschemas/PowerExtension/v1 http://www.garmin.com/xmlschemas/PowerExtensionv1.xsd http://www.garmin.com/xmlschemas/VideoExtension/v1 http://www.garmin.com/xmlschemas/VideoExtensionv1.xsd" xmlns="http://www.topografix.com/GPX/1/1" xmlns:xsi="http://www.w3.org/2001/XMLSchema-instance" xmlns:wptx1="http://www.garmin.com/xmlschemas/WaypointExtension/v1" xmlns:gpxtrx="http://www.garmin.com/xmlschemas/GpxExtensions/v3" xmlns:gpxtpx="http://www.garmin.com/xmlschemas/TrackPointExtension/v1" xmlns:gpxx="http://www.garmin.com/xmlschemas/GpxExtensions/v3" xmlns:trp="http://www.garmin.com/xmlschemas/TripExtensions/v1" xmlns:adv="http://www.garmin.com/xmlschemas/AdventuresExtensions/v1" xmlns:prs="http://www.garmin.com/xmlschemas/PressureExtension/v1" xmlns:tmd="http://www.garmin.com/xmlschemas/TripMetaDataExtensions/v1" xmlns:vptm="http://www.garmin.com/xmlschemas/ViaPointTransportationModeExtensions/v1" xmlns:ctx="http://www.garmin.com/xmlschemas/CreationTimeExtension/v1" xmlns:gpxacc="http://www.garmin.com/xmlschemas/AccelerationExtension/v1" xmlns:gpxpx="http://www.garmin.com/xmlschemas/PowerExtension/v1" xmlns:vidx1="http://www.garmin.com/xmlschemas/VideoExtension/v1">

  <metadata>
    <link href="http://www.garmin.com">
      <text>Garmin International</text>
    </link>
    <time>2025-05-12T18:30:51Z</time>
    <bounds maxlat="37.474865969270468" maxlon="-2.40105701610446" minlat="36.901016989722848" minlon="-3.655616026371718" />
  </metadata>

  <trk>
    <name>250512_G_Track</name>
    <extensions>
      <gpxx:TrackExtension>
        <gpxx:DisplayColor>DarkGray</gpxx:DisplayColor>
      </gpxx:TrackExtension>
    </extensions>
    <trkseg>
      <trkpt lat="37.183360978960991" lon="-3.596843965351582">
        <ele>747.08000000000004</ele>
        <time>2025-05-12T06:16:10Z</time>
      </trkpt>
      <trkpt lat="37.183559965342283" lon="-3.596660988405347">
        <ele>774.96000000000004</ele>
        <time>2025-05-12T06:16:46Z</time>
      </trkpt>
      <trkpt lat="37.183602964505553" lon="-3.596644978970289">
        <ele>789.38</ele>
        <time>2025-05-12T06:17:38Z</time>
      </trkpt>
      <trkpt lat="37.183602964505553" lon="-3.596644978970289">
        <ele>789.38</ele>
        <time>2025-05-12T06:18:15Z</time>
      </trkpt>
      <trkpt lat="37.183601958677173" lon="-3.596643973141909">
        <ele>789.38</ele>
        <time>2025-05-12T06:19:13Z</time>
      </trkpt>
      <trkpt lat="37.183599025011063" lon="-3.596643973141909">
        <ele>788.89999999999998</ele>
        <time>2025-05-12T06:19:55Z</time>
      </trkpt>
      <trkpt lat="37.183599025011063" lon="-3.596643973141909">
        <ele>788.89999999999998</ele>
        <time>2025-05-12T06:20:16Z</time>
      </trkpt>
      <trkpt lat="37.183587038889527" lon="-3.596609020605683">
        <ele>785.04999999999995</ele>
        <time>2025-05-12T06:20:22Z</time>
      </trkpt>
      <trkpt lat="37.183683011680841" lon="-3.596617989242077">
        <ele>783.13</ele>
        <time>2025-05-12T06:20:27Z</time>
      </trkpt>
      <trkpt lat="37.18370396643877" lon="-3.596593011170626">
        <ele>782.64999999999998</ele>
        <time>2025-05-12T06:20:28Z</time>
      </trkpt>
      <trkpt lat="37.183729028329253" lon="-3.596563003957272">
        <ele>782.16999999999996</ele>
        <time>2025-05-12T06:20:29Z</time>
      </trkpt>
      <trkpt lat="37.183697009459138" lon="-3.596305008977652">
        <ele>780.25</ele>
        <time>2025-05-12T06:20:36Z</time>
      </trkpt>
      <trkpt lat="37.183684017509222" lon="-3.596262009814382">
        <ele>780.25</ele>
        <time>2025-05-12T06:20:37Z</time>
      </trkpt>
      <trkpt lat="37.183670019730926" lon="-3.596218004822731">
        <ele>779.76999999999998</ele>
        <time>2025-05-12T06:20:38Z</time>
      </trkpt>
      <trkpt lat="37.183598019182682" lon="-3.595988005399704">
        <ele>774.96000000000004</ele>
        <time>2025-05-12T06:20:48Z</time>
      </trkpt>
      <trkpt lat="37.183561976999044" lon="-3.59587199985981">
        <ele>774</ele>
        <time>2025-05-12T06:21:01Z</time>
      </trkpt>
      <trkpt lat="37.18353096395731" lon="-3.595845010131598">
        <ele>773.51999999999998</ele>
        <time>2025-05-12T06:21:02Z</time>
      </trkpt>
      <trkpt lat="37.18350799754262" lon="-3.595858002081513">
        <ele>773.03999999999996</ele>
        <time>2025-05-12T06:21:03Z</time>
      </trkpt>
      <trkpt lat="37.183473967015743" lon="-3.595877029001713">
        <ele>772.55999999999995</ele>
        <time>2025-05-12T06:21:04Z</time>
      </trkpt>
      <trkpt lat="37.183433985337615" lon="-3.595899995416403">
        <ele>772.55999999999995</ele>
        <time>2025-05-12T06:21:05Z</time>
      </trkpt>
      <trkpt lat="37.183382017537951" lon="-3.595930002629757">
        <ele>772.08000000000004</ele>
        <time>2025-05-12T06:21:06Z</time>
      </trkpt>
      <trkpt lat="37.18327104113996" lon="-3.596023041754961">
        <ele>771.60000000000002</ele>
        <time>2025-05-12T06:21:07Z</time>
      </trkpt>
      <trkpt lat="37.183231981471181" lon="-3.596092024818063">
        <ele>771.11000000000001</ele>
        <time>2025-05-12T06:21:08Z</time>
      </trkpt>
      <trkpt lat="37.183197028934956" lon="-3.596154972910881">
        <ele>770.63</ele>
        <time>2025-05-12T06:21:09Z</time>
      </trkpt>
      <trkpt lat="37.183193005621433" lon="-3.596277013421059">
        <ele>769.66999999999996</ele>
        <time>2025-05-12T06:21:10Z</time>
      </trkpt>
      <trkpt lat="37.183200968429446" lon="-3.596367035061121">
        <ele>769.19000000000005</ele>
        <time>2025-05-12T06:21:11Z</time>
      </trkpt>
      <trkpt lat="37.183221001178026" lon="-3.596469964832068">
        <ele>768.71000000000004</ele>
        <time>2025-05-12T06:21:12Z</time>
      </trkpt>
      <trkpt lat="37.183258971199393" lon="-3.596561998128891">
        <ele>768.23000000000002</ele>
        <time>2025-05-12T06:21:13Z</time>
      </trkpt>
      <trkpt lat="37.183334995061159" lon="-3.596743969246745">
        <ele>767.26999999999998</ele>
        <time>2025-05-12T06:21:15Z</time>
      </trkpt>
      <trkpt lat="37.183373970910907" lon="-3.596836002543569">
        <ele>766.30999999999995</ele>
        <time>2025-05-12T06:21:16Z</time>
      </trkpt>
      <trkpt lat="37.183420993387699" lon="-3.596949996426702">
        <ele>765.83000000000004</ele>
        <time>2025-05-12T06:21:17Z</time>
      </trkpt>
      <trkpt lat="37.183480001986027" lon="-3.597009005025029">
        <ele>765.35000000000002</ele>
        <time>2025-05-12T06:21:18Z</time>
      </trkpt>
      <trkpt lat="37.183544961735606" lon="-3.597073964774609">
        <ele>764.87</ele>
        <time>2025-05-12T06:21:19Z</time>
      </trkpt>
      <trkpt lat="37.183605981990695" lon="-3.597134985029697">
        <ele>764.38999999999999</ele>
        <time>2025-05-12T06:21:20Z</time>
      </trkpt>
      <trkpt lat="37.183667002245784" lon="-3.597194999456406">
        <ele>763.89999999999998</ele>
        <time>2025-05-12T06:21:21Z</time>
      </trkpt>
      <trkpt lat="37.184514999389648" lon="-3.597829006612301">
        <ele>756.69000000000005</ele>
        <time>2025-05-12T06:21:33Z</time>
      </trkpt>
      <trkpt lat="37.184645002707839" lon="-3.597994968295097">
        <ele>755.73000000000002</ele>
        <time>2025-05-12T06:21:35Z</time>
      </trkpt>
      <trkpt lat="37.184698982164264" lon="-3.59806302934885">
        <ele>755.25</ele>
        <time>2025-05-12T06:21:36Z</time>
      </trkpt>
      <trkpt lat="37.184744998812675" lon="-3.598121032118797">
        <ele>754.76999999999998</ele>
        <time>2025-05-12T06:21:37Z</time>
      </trkpt>
      <trkpt lat="37.184789003804326" lon="-3.598227985203266">
        <ele>754.28999999999996</ele>
        <time>2025-05-12T06:21:39Z</time>
      </trkpt>
      <trkpt lat="37.18484197743237" lon="-3.598365029320121">
        <ele>753.33000000000004</ele>
        <time>2025-05-12T06:21:41Z</time>
      </trkpt>
      <trkpt lat="37.18488103710115" lon="-3.598442981019616">
        <ele>752.85000000000002</ele>
        <time>2025-05-12T06:21:42Z</time>
      </trkpt>
      <trkpt lat="37.184919007122517" lon="-3.598499977961183">
        <ele>751.88999999999999</ele>
        <time>2025-05-12T06:21:43Z</time>
      </trkpt>
      <trkpt lat="37.184996036812663" lon="-3.598537025973201">
        <ele>751.40999999999997</ele>
        <time>2025-05-12T06:21:44Z</time>
      </trkpt>
      <trkpt lat="37.185044987127185" lon="-3.598537025973201">
        <ele>750.92999999999995</ele>
        <time>2025-05-12T06:21:45Z</time>
      </trkpt>
      <trkpt lat="37.185093015432358" lon="-3.598537025973201">
        <ele>750.45000000000005</ele>
        <time>2025-05-12T06:21:46Z</time>
      </trkpt>
      <trkpt lat="37.185138026252389" lon="-3.598537025973201">
        <ele>749.49000000000001</ele>
        <time>2025-05-12T06:21:47Z</time>
      </trkpt>
      <trkpt lat="37.185181025415659" lon="-3.59847298823297">
        <ele>749</ele>
        <time>2025-05-12T06:21:48Z</time>
      </trkpt>
      <trkpt lat="37.185207009315491" lon="-3.598433006554842">
        <ele>748.51999999999998</ele>
        <time>2025-05-12T06:21:49Z</time>
      </trkpt>
      <trkpt lat="37.185224024578929" lon="-3.598409034311771">
        <ele>748.03999999999996</ele>
        <time>2025-05-12T06:21:50Z</time>
      </trkpt>
      <trkpt lat="37.185224024578929" lon="-3.598317001014948">
        <ele>747.08000000000004</ele>
        <time>2025-05-12T06:21:51Z</time>
      </trkpt>
      <trkpt lat="37.185224024578929" lon="-3.59823795966804">
        <ele>746.60000000000002</ele>
        <time>2025-05-12T06:21:52Z</time>
      </trkpt>
      <trkpt lat="37.185190999880433" lon="-3.59814802184701">
        <ele>746.12</ele>
        <time>2025-05-12T06:21:53Z</time>
      </trkpt>
      <trkpt lat="37.18514297157526" lon="-3.598046014085412">
        <ele>745.63999999999999</ele>
        <time>2025-05-12T06:21:54Z</time>
      </trkpt>
      <trkpt lat="37.185091003775597" lon="-3.59793696552515">
        <ele>745.15999999999997</ele>
        <time>2025-05-12T06:21:55Z</time>
      </trkpt>
      <trkpt lat="37.185037024319172" lon="-3.597824983298779">
        <ele>745.15999999999997</ele>
        <time>2025-05-12T06:21:56Z</time>
      </trkpt>
      <trkpt lat="37.184994025155902" lon="-3.597695985808969">
        <ele>744.20000000000005</ele>
        <time>2025-05-12T06:21:57Z</time>
      </trkpt>
      <trkpt lat="37.184963012114167" lon="-3.59754896722734">
        <ele>743.72000000000003</ele>
        <time>2025-05-12T06:21:58Z</time>
      </trkpt>
      <trkpt lat="37.184936022385955" lon="-3.597403038293123">
        <ele>743.24000000000001</ele>
        <time>2025-05-12T06:21:59Z</time>
      </trkpt>
      <trkpt lat="37.184915989637375" lon="-3.597262976691127">
        <ele>742.75999999999999</ele>
        <time>2025-05-12T06:22:00Z</time>
      </trkpt>
      <trkpt lat="37.184901991859078" lon="-3.596914038062096">
        <ele>740.35000000000002</ele>
        <time>2025-05-12T06:22:03Z</time>
      </trkpt>
      <trkpt lat="37.184945996850729" lon="-3.596702981740236">
        <ele>738.90999999999997</ele>
        <time>2025-05-12T06:22:06Z</time>
      </trkpt>
      <trkpt lat="37.185072982683778" lon="-3.596306014806032">
        <ele>735.07000000000005</ele>
        <time>2025-05-12T06:22:13Z</time>
      </trkpt>
      <trkpt lat="37.185084968805313" lon="-3.596296962350607">
        <ele>734.58000000000004</ele>
        <time>2025-05-12T06:22:14Z</time>
      </trkpt>
      <trkpt lat="37.185126962140203" lon="-3.596263015642762">
        <ele>734.10000000000002</ele>
        <time>2025-05-12T06:22:15Z</time>
      </trkpt>
      <trkpt lat="37.185188988223672" lon="-3.596220016479492">
        <ele>733.62</ele>
        <time>2025-05-12T06:22:16Z</time>
      </trkpt>
      <trkpt lat="37.185293007642031" lon="-3.596247006207705">
        <ele>733.13999999999999</ele>
        <time>2025-05-12T06:22:17Z</time>
      </trkpt>
      <trkpt lat="37.185350004583597" lon="-3.59630299732089">
        <ele>733.13999999999999</ele>
        <time>2025-05-12T06:22:18Z</time>
      </trkpt>
      <trkpt lat="37.185330977663398" lon="-3.596498966217041">
        <ele>732.17999999999995</ele>
        <time>2025-05-12T06:22:19Z</time>
      </trkpt>
      <trkpt lat="37.18533500097692" lon="-3.596567027270794">
        <ele>732.17999999999995</ele>
        <time>2025-05-12T06:22:20Z</time>
      </trkpt>
      <trkpt lat="37.185341035947204" lon="-3.596658976748586">
        <ele>732.17999999999995</ele>
        <time>2025-05-12T06:22:21Z</time>
      </trkpt>
      <trkpt lat="37.185345981270075" lon="-3.596748998388648">
        <ele>732.17999999999995</ele>
        <time>2025-05-12T06:22:22Z</time>
      </trkpt>
      <trkpt lat="37.185352016240358" lon="-3.596842037513852">
        <ele>732.65999999999997</ele>
        <time>2025-05-12T06:22:23Z</time>
      </trkpt>
      <trkpt lat="37.185344975441694" lon="-3.596917977556586">
        <ele>732.65999999999997</ele>
        <time>2025-05-12T06:22:24Z</time>
      </trkpt>
      <trkpt lat="37.18533500097692" lon="-3.597015962004662">
        <ele>732.65999999999997</ele>
        <time>2025-05-12T06:22:25Z</time>
      </trkpt>
      <trkpt lat="37.185337012633681" lon="-3.597113024443388">
        <ele>732.17999999999995</ele>
        <time>2025-05-12T06:22:26Z</time>
      </trkpt>
      <trkpt lat="37.185347992926836" lon="-3.597211008891463">
        <ele>731.70000000000005</ele>
        <time>2025-05-12T06:22:27Z</time>
      </trkpt>
      <trkpt lat="37.185380011796951" lon="-3.597305975854397">
        <ele>731.70000000000005</ele>
        <time>2025-05-12T06:22:28Z</time>
      </trkpt>
      <trkpt lat="37.185422005131841" lon="-3.597389962524176">
        <ele>731.22000000000003</ele>
        <time>2025-05-12T06:22:29Z</time>
      </trkpt>
      <trkpt lat="37.185479002073407" lon="-3.597469003871083">
        <ele>730.74000000000001</ele>
        <time>2025-05-12T06:22:30Z</time>
      </trkpt>
      <trkpt lat="37.185535999014974" lon="-3.597533041611314">
        <ele>730.25999999999999</ele>
        <time>2025-05-12T06:22:31Z</time>
      </trkpt>
      <trkpt lat="37.185704978182912" lon="-3.597726998850703">
        <ele>729.29999999999995</ele>
        <time>2025-05-12T06:22:34Z</time>
      </trkpt>
      <trkpt lat="37.185773039236665" lon="-3.597796987742186">
        <ele>729.29999999999995</ele>
        <time>2025-05-12T06:22:35Z</time>
      </trkpt>
      <trkpt lat="37.186002032831311" lon="-3.598008966073394">
        <ele>728.82000000000005</ele>
        <time>2025-05-12T06:22:38Z</time>
      </trkpt>
      <trkpt lat="37.186060035601258" lon="-3.598093036562204">
        <ele>728.82000000000005</ele>
        <time>2025-05-12T06:22:39Z</time>
      </trkpt>
      <trkpt lat="37.186120972037315" lon="-3.598195966333151">
        <ele>728.34000000000003</ele>
        <time>2025-05-12T06:22:40Z</time>
      </trkpt>
      <trkpt lat="37.186145028099418" lon="-3.598271990194917">
        <ele>728.34000000000003</ele>
        <time>2025-05-12T06:22:41Z</time>
      </trkpt>
      <trkpt lat="37.186141004785895" lon="-3.598392019048333">
        <ele>728.34000000000003</ele>
        <time>2025-05-12T06:22:42Z</time>
      </trkpt>
      <trkpt lat="37.186137987300754" lon="-3.59851498156786">
        <ele>727.86000000000001</ele>
        <time>2025-05-12T06:22:43Z</time>
      </trkpt>
      <trkpt lat="37.186133963987231" lon="-3.598636016249657">
        <ele>727.37</ele>
        <time>2025-05-12T06:22:44Z</time>
      </trkpt>
      <trkpt lat="37.186130024492741" lon="-3.598758978769183">
        <ele>726.88999999999999</ele>
        <time>2025-05-12T06:22:45Z</time>
      </trkpt>
      <trkpt lat="37.186126001179218" lon="-3.5988790076226">
        <ele>726.40999999999997</ele>
        <time>2025-05-12T06:22:46Z</time>
      </trkpt>
      <trkpt lat="37.186147039756179" lon="-3.599000964313746">
        <ele>725.92999999999995</ele>
        <time>2025-05-12T06:22:47Z</time>
      </trkpt>
      <trkpt lat="37.186182998120785" lon="-3.599099032580853">
        <ele>724.97000000000003</ele>
        <time>2025-05-12T06:22:48Z</time>
      </trkpt>
      <trkpt lat="37.186242006719112" lon="-3.599186036735773">
        <ele>724.97000000000003</ele>
        <time>2025-05-12T06:22:49Z</time>
      </trkpt>
      <trkpt lat="37.186313001438975" lon="-3.599221995100379">
        <ele>724.00999999999999</ele>
        <time>2025-05-12T06:22:50Z</time>
      </trkpt>
      <trkpt lat="37.186401011422276" lon="-3.599242027848959">
        <ele>723.52999999999997</ele>
        <time>2025-05-12T06:22:51Z</time>
      </trkpt>
      <trkpt lat="37.186482986435294" lon="-3.599233981221914">
        <ele>723.04999999999995</ele>
        <time>2025-05-12T06:22:52Z</time>
      </trkpt>
      <trkpt lat="37.186575019732118" lon="-3.59922400675714">
        <ele>722.57000000000005</ele>
        <time>2025-05-12T06:22:53Z</time>
      </trkpt>
      <trkpt lat="37.186651965603232" lon="-3.599187964573503">
        <ele>722.09000000000003</ele>
        <time>2025-05-12T06:22:54Z</time>
      </trkpt>
      <trkpt lat="37.186732012778521" lon="-3.599151000380516">
        <ele>721.61000000000001</ele>
        <time>2025-05-12T06:22:55Z</time>
      </trkpt>
      <trkpt lat="37.187049016356468" lon="-3.599025020375848">
        <ele>720.64999999999998</ele>
        <time>2025-05-12T06:22:59Z</time>
      </trkpt>
      <trkpt lat="37.187125962227583" lon="-3.599005993455648">
        <ele>720.15999999999997</ele>
        <time>2025-05-12T06:23:00Z</time>
      </trkpt>
      <trkpt lat="37.187196034938097" lon="-3.59898897819221">
        <ele>719.67999999999995</ele>
        <time>2025-05-12T06:23:01Z</time>
      </trkpt>
      <trkpt lat="37.187258983030915" lon="-3.59900800511241">
        <ele>719.67999999999995</ele>
        <time>2025-05-12T06:23:02Z</time>
      </trkpt>
      <trkpt lat="37.18731296248734" lon="-3.599027032032609">
        <ele>719.20000000000005</ele>
        <time>2025-05-12T06:23:03Z</time>
      </trkpt>
      <trkpt lat="37.1873530279845" lon="-3.599040023982525">
        <ele>718.72000000000003</ele>
        <time>2025-05-12T06:23:04Z</time>
      </trkpt>
      <trkpt lat="37.187440032139421" lon="-3.599087968468666">
        <ele>718.24000000000001</ele>
        <time>2025-05-12T06:23:12Z</time>
      </trkpt>
      <trkpt lat="37.18752502463758" lon="-3.599151000380516">
        <ele>718.24000000000001</ele>
        <time>2025-05-12T06:23:53Z</time>
      </trkpt>
      <trkpt lat="37.187773967161775" lon="-3.599348980933428">
        <ele>717.27999999999997</ele>
        <time>2025-05-12T06:24:00Z</time>
      </trkpt>
      <trkpt lat="37.187896007671952" lon="-3.599472027271986">
        <ele>716.79999999999995</ele>
        <time>2025-05-12T06:24:07Z</time>
      </trkpt>
      <trkpt lat="37.187905982136726" lon="-3.59948200173676">
        <ele>716.79999999999995</ele>
        <time>2025-05-12T06:24:08Z</time>
      </trkpt>
      <trkpt lat="37.187927020713687" lon="-3.599529024213553">
        <ele>716.79999999999995</ele>
        <time>2025-05-12T06:24:09Z</time>
      </trkpt>
      <trkpt lat="37.187948981299996" lon="-3.599577974528074">
        <ele>717.27999999999997</ele>
        <time>2025-05-12T06:24:10Z</time>
      </trkpt>
      <trkpt lat="37.187969014048576" lon="-3.599624997004867">
        <ele>716.79999999999995</ele>
        <time>2025-05-12T06:24:11Z</time>
      </trkpt>
      <trkpt lat="37.187990974634886" lon="-3.59967403113842">
        <ele>716.79999999999995</ele>
        <time>2025-05-12T06:24:12Z</time>
      </trkpt>
      <trkpt lat="37.188003966584802" lon="-3.599723987281323">
        <ele>716.79999999999995</ele>
        <time>2025-05-12T06:24:13Z</time>
      </trkpt>
      <trkpt lat="37.188031040132046" lon="-3.59980302862823">
        <ele>716.32000000000005</ele>
        <time>2025-05-12T06:24:14Z</time>
      </trkpt>
      <trkpt lat="37.188104968518019" lon="-3.599981982260943">
        <ele>715.36000000000001</ele>
        <time>2025-05-12T06:24:17Z</time>
      </trkpt>
      <trkpt lat="37.188131958246231" lon="-3.600041996687651">
        <ele>715.36000000000001</ele>
        <time>2025-05-12T06:24:18Z</time>
      </trkpt>
      <trkpt lat="37.188160959631205" lon="-3.600098993629217">
        <ele>714.88</ele>
        <time>2025-05-12T06:24:19Z</time>
      </trkpt>
      <trkpt lat="37.188186021521688" lon="-3.600149033591151">
        <ele>714.39999999999998</ele>
        <time>2025-05-12T06:24:20Z</time>
      </trkpt>
      <trkpt lat="37.188247963786125" lon="-3.600204018875957">
        <ele>714.39999999999998</ele>
        <time>2025-05-12T06:24:21Z</time>
      </trkpt>
      <trkpt lat="37.188292974606156" lon="-3.600220028311014">
        <ele>714.39999999999998</ele>
        <time>2025-05-12T06:24:22Z</time>
      </trkpt>
      <trkpt lat="37.188339997082949" lon="-3.600236037746072">
        <ele>713.91999999999996</ele>
        <time>2025-05-12T06:24:23Z</time>
      </trkpt>
      <trkpt lat="37.188389031216502" lon="-3.600253975018859">
        <ele>713.44000000000005</ele>
        <time>2025-05-12T06:24:24Z</time>
      </trkpt>
      <trkpt lat="37.18887803144753" lon="-3.600421026349068">
        <ele>710.07000000000005</ele>
        <time>2025-05-12T06:24:34Z</time>
      </trkpt>
      <trkpt lat="37.189113982021809" lon="-3.600504007190466">
        <ele>709.59000000000003</ele>
        <time>2025-05-12T06:24:41Z</time>
      </trkpt>
      <trkpt lat="37.189113982021809" lon="-3.600504007190466">
        <ele>709.11000000000001</ele>
        <time>2025-05-12T06:24:54Z</time>
      </trkpt>
      <trkpt lat="37.189113982021809" lon="-3.600504007190466">
        <ele>709.11000000000001</ele>
        <time>2025-05-12T06:25:07Z</time>
      </trkpt>
      <trkpt lat="37.189142983406782" lon="-3.60051398165524">
        <ele>710.07000000000005</ele>
        <time>2025-05-12T06:25:08Z</time>
      </trkpt>
      <trkpt lat="37.189169973134995" lon="-3.600524039939046">
        <ele>711.50999999999999</ele>
        <time>2025-05-12T06:25:09Z</time>
      </trkpt>
      <trkpt lat="37.189206015318632" lon="-3.600536026060581">
        <ele>712.47000000000003</ele>
        <time>2025-05-12T06:25:10Z</time>
      </trkpt>
      <trkpt lat="37.189248008653522" lon="-3.600551029667258">
        <ele>712.47000000000003</ele>
        <time>2025-05-12T06:25:11Z</time>
      </trkpt>
      <trkpt lat="37.189296958968043" lon="-3.600554969161749">
        <ele>712.95000000000005</ele>
        <time>2025-05-12T06:25:12Z</time>
      </trkpt>
      <trkpt lat="37.189345993101597" lon="-3.600554969161749">
        <ele>712.95000000000005</ele>
        <time>2025-05-12T06:25:13Z</time>
      </trkpt>
      <trkpt lat="37.189451018348336" lon="-3.600546000525355">
        <ele>713.91999999999996</ele>
        <time>2025-05-12T06:25:15Z</time>
      </trkpt>
      <trkpt lat="37.189510026946664" lon="-3.600522028282285">
        <ele>713.91999999999996</ele>
        <time>2025-05-12T06:25:16Z</time>
      </trkpt>
      <trkpt lat="37.189573980867863" lon="-3.600498978048563">
        <ele>713.91999999999996</ele>
        <time>2025-05-12T06:25:17Z</time>
      </trkpt>
      <trkpt lat="37.189698033034801" lon="-3.600457990542054">
        <ele>714.39999999999998</ele>
        <time>2025-05-12T06:25:19Z</time>
      </trkpt>
      <trkpt lat="37.189772967249155" lon="-3.600425971671939">
        <ele>714.39999999999998</ele>
        <time>2025-05-12T06:25:20Z</time>
      </trkpt>
      <trkpt lat="37.189830970019102" lon="-3.600435024127364">
        <ele>714.39999999999998</ele>
        <time>2025-05-12T06:25:21Z</time>
      </trkpt>
      <trkpt lat="37.189894001930952" lon="-3.600446004420519">
        <ele>714.39999999999998</ele>
        <time>2025-05-12T06:25:22Z</time>
      </trkpt>
      <trkpt lat="37.189947981387377" lon="-3.600463019683957">
        <ele>714.39999999999998</ele>
        <time>2025-05-12T06:25:23Z</time>
      </trkpt>
      <trkpt lat="37.190073039382696" lon="-3.600501995533705">
        <ele>715.36000000000001</ele>
        <time>2025-05-12T06:25:28Z</time>
      </trkpt>
      <trkpt lat="37.190089970827103" lon="-3.600507024675608">
        <ele>715.36000000000001</ele>
        <time>2025-05-12T06:25:29Z</time>
      </trkpt>
      <trkpt lat="37.190113021060824" lon="-3.60051398165524">
        <ele>715.36000000000001</ele>
        <time>2025-05-12T06:25:30Z</time>
      </trkpt>
      <trkpt lat="37.190113021060824" lon="-3.60051398165524">
        <ele>715.36000000000001</ele>
        <time>2025-05-12T06:25:31Z</time>
      </trkpt>
      <trkpt lat="37.190223997458816" lon="-3.600548012182117">
        <ele>715.84000000000003</ele>
        <time>2025-05-12T06:25:44Z</time>
      </trkpt>
      <trkpt lat="37.190245036035776" lon="-3.600554969161749">
        <ele>715.84000000000003</ele>
        <time>2025-05-12T06:25:45Z</time>
      </trkpt>
      <trkpt lat="37.19029700383544" lon="-3.600631998851895">
        <ele>715.84000000000003</ele>
        <time>2025-05-12T06:25:46Z</time>
      </trkpt>
      <trkpt lat="37.190329022705555" lon="-3.600682038813829">
        <ele>715.84000000000003</ele>
        <time>2025-05-12T06:25:47Z</time>
      </trkpt>
      <trkpt lat="37.190348971635103" lon="-3.600740041583777">
        <ele>716.32000000000005</ele>
        <time>2025-05-12T06:25:48Z</time>
      </trkpt>
      <trkpt lat="37.190371016040444" lon="-3.600805001333356">
        <ele>716.32000000000005</ele>
        <time>2025-05-12T06:25:49Z</time>
      </trkpt>
      <trkpt lat="37.190394988283515" lon="-3.600875996053219">
        <ele>716.32000000000005</ele>
        <time>2025-05-12T06:25:50Z</time>
      </trkpt>
      <trkpt lat="37.190391970798373" lon="-3.600930981338024">
        <ele>716.32000000000005</ele>
        <time>2025-05-12T06:25:51Z</time>
      </trkpt>
      <trkpt lat="37.190388031303883" lon="-3.60100700519979">
        <ele>716.32000000000005</ele>
        <time>2025-05-12T06:25:52Z</time>
      </trkpt>
      <trkpt lat="37.19038300216198" lon="-3.601085040718317">
        <ele>716.32000000000005</ele>
        <time>2025-05-12T06:25:53Z</time>
      </trkpt>
      <trkpt lat="37.1903629694134" lon="-3.601422999054194">
        <ele>715.36000000000001</ele>
        <time>2025-05-12T06:26:00Z</time>
      </trkpt>
      <trkpt lat="37.190332040190697" lon="-3.602052982896566">
        <ele>714.39999999999998</ele>
        <time>2025-05-12T06:26:07Z</time>
      </trkpt>
      <trkpt lat="37.19029800966382" lon="-3.602249035611749">
        <ele>713.44000000000005</ele>
        <time>2025-05-12T06:26:09Z</time>
      </trkpt>
      <trkpt lat="37.19027797691524" lon="-3.602352971211076">
        <ele>712.95000000000005</ele>
        <time>2025-05-12T06:26:10Z</time>
      </trkpt>
      <trkpt lat="37.190163983032107" lon="-3.602894023060799">
        <ele>710.07000000000005</ele>
        <time>2025-05-12T06:26:17Z</time>
      </trkpt>
      <trkpt lat="37.1900400146842" lon="-3.6034120246768">
        <ele>706.71000000000004</ele>
        <time>2025-05-12T06:26:26Z</time>
      </trkpt>
      <trkpt lat="37.1900400146842" lon="-3.6034120246768">
        <ele>705.25999999999999</ele>
        <time>2025-05-12T06:26:39Z</time>
      </trkpt>
      <trkpt lat="37.1900400146842" lon="-3.6034120246768">
        <ele>704.29999999999995</ele>
        <time>2025-05-12T06:27:02Z</time>
      </trkpt>
      <trkpt lat="37.190001038834453" lon="-3.603579998016357">
        <ele>702.38</ele>
        <time>2025-05-12T06:27:11Z</time>
      </trkpt>
      <trkpt lat="37.18997698277235" lon="-3.603682005777955">
        <ele>701.41999999999996</ele>
        <time>2025-05-12T06:27:12Z</time>
      </trkpt>
      <trkpt lat="37.189944041892886" lon="-3.603794993832707">
        <ele>700.94000000000005</ele>
        <time>2025-05-12T06:27:13Z</time>
      </trkpt>
      <trkpt lat="37.189900958910584" lon="-3.603922985494137">
        <ele>700.46000000000004</ele>
        <time>2025-05-12T06:27:14Z</time>
      </trkpt>
      <trkpt lat="37.189872041344643" lon="-3.604012001305819">
        <ele>699.5</ele>
        <time>2025-05-12T06:27:15Z</time>
      </trkpt>
      <trkpt lat="37.189835999161005" lon="-3.604118032380939">
        <ele>699.01999999999998</ele>
        <time>2025-05-12T06:27:16Z</time>
      </trkpt>
      <trkpt lat="37.189767016097903" lon="-3.604324981570244">
        <ele>698.04999999999995</ele>
        <time>2025-05-12T06:27:18Z</time>
      </trkpt>
      <trkpt lat="37.189451018348336" lon="-3.605188988149166">
        <ele>693.73000000000002</ele>
        <time>2025-05-12T06:27:27Z</time>
      </trkpt>
      <trkpt lat="37.189413970336318" lon="-3.605294013395906">
        <ele>690.84000000000003</ele>
        <time>2025-05-12T06:27:34Z</time>
      </trkpt>
      <trkpt lat="37.189397038891912" lon="-3.605342041701078">
        <ele>690.36000000000001</ele>
        <time>2025-05-12T06:27:36Z</time>
      </trkpt>
      <trkpt lat="37.189388992264867" lon="-3.605365008115768">
        <ele>689.39999999999998</ele>
        <time>2025-05-12T06:27:37Z</time>
      </trkpt>
      <trkpt lat="37.189376000314951" lon="-3.605401972308755">
        <ele>688.44000000000005</ele>
        <time>2025-05-12T06:27:38Z</time>
      </trkpt>
      <trkpt lat="37.18935496173799" lon="-3.605586960911751">
        <ele>687.96000000000004</ele>
        <time>2025-05-12T06:27:39Z</time>
      </trkpt>
      <trkpt lat="37.189388992264867" lon="-3.605620991438627">
        <ele>687</ele>
        <time>2025-05-12T06:27:40Z</time>
      </trkpt>
      <trkpt lat="37.189430985599756" lon="-3.605662984773517">
        <ele>686.51999999999998</ele>
        <time>2025-05-12T06:27:41Z</time>
      </trkpt>
      <trkpt lat="37.189471973106265" lon="-3.605704978108406">
        <ele>686.03999999999996</ele>
        <time>2025-05-12T06:27:42Z</time>
      </trkpt>
      <trkpt lat="37.189513966441154" lon="-3.605745965614915">
        <ele>685.55999999999995</ele>
        <time>2025-05-12T06:27:43Z</time>
      </trkpt>
      <trkpt lat="37.189630977809429" lon="-3.60586398281157">
        <ele>684.12</ele>
        <time>2025-05-12T06:27:46Z</time>
      </trkpt>
      <trkpt lat="37.189665008336306" lon="-3.605918968096376">
        <ele>683.63</ele>
        <time>2025-05-12T06:27:47Z</time>
      </trkpt>
      <trkpt lat="37.189685041084886" lon="-3.605965990573168">
        <ele>683.63</ele>
        <time>2025-05-12T06:27:48Z</time>
      </trkpt>
      <trkpt lat="37.189713036641479" lon="-3.606029022485018">
        <ele>683.63</ele>
        <time>2025-05-12T06:27:49Z</time>
      </trkpt>
      <trkpt lat="37.189727034419775" lon="-3.606092976406217">
        <ele>683.63</ele>
        <time>2025-05-12T06:27:50Z</time>
      </trkpt>
      <trkpt lat="37.18971898779273" lon="-3.606167994439602">
        <ele>683.63</ele>
        <time>2025-05-12T06:27:51Z</time>
      </trkpt>
      <trkpt lat="37.189708007499576" lon="-3.606262039393187">
        <ele>683.63</ele>
        <time>2025-05-12T06:27:52Z</time>
      </trkpt>
      <trkpt lat="37.189659979194403" lon="-3.606310989707708">
        <ele>683.14999999999998</ele>
        <time>2025-05-12T06:27:53Z</time>
      </trkpt>
      <trkpt lat="37.189601976424456" lon="-3.606367986649275">
        <ele>682.66999999999996</ele>
        <time>2025-05-12T06:27:54Z</time>
      </trkpt>
      <trkpt lat="37.188908038660884" lon="-3.606778029352427">
        <ele>680.75</ele>
        <time>2025-05-12T06:28:02Z</time>
      </trkpt>
      <trkpt lat="37.188831008970737" lon="-3.606823040172458">
        <ele>680.75</ele>
        <time>2025-05-12T06:28:03Z</time>
      </trkpt>
      <trkpt lat="37.188758002594113" lon="-3.606867967173457">
        <ele>680.75</ele>
        <time>2025-05-12T06:28:04Z</time>
      </trkpt>
      <trkpt lat="37.188462037593126" lon="-3.607047004625201">
        <ele>678.83000000000004</ele>
        <time>2025-05-12T06:28:11Z</time>
      </trkpt>
      <trkpt lat="37.188462037593126" lon="-3.607047004625201">
        <ele>678.83000000000004</ele>
        <time>2025-05-12T06:28:31Z</time>
      </trkpt>
      <trkpt lat="37.188220974057913" lon="-3.607211038470268">
        <ele>675.46000000000004</ele>
        <time>2025-05-12T06:28:42Z</time>
      </trkpt>
      <trkpt lat="37.187729040160775" lon="-3.607526030391455">
        <ele>673.53999999999996</ele>
        <time>2025-05-12T06:28:49Z</time>
      </trkpt>
      <trkpt lat="37.187663996592164" lon="-3.607569029554725">
        <ele>673.05999999999995</ele>
        <time>2025-05-12T06:28:50Z</time>
      </trkpt>
      <trkpt lat="37.187186982482672" lon="-3.607869017869234">
        <ele>671.13999999999999</ele>
        <time>2025-05-12T06:28:57Z</time>
      </trkpt>
      <trkpt lat="37.18668800778687" lon="-3.608123995363712">
        <ele>668.73000000000002</ele>
        <time>2025-05-12T06:29:07Z</time>
      </trkpt>
      <trkpt lat="37.18668800778687" lon="-3.608123995363712">
        <ele>668.25</ele>
        <time>2025-05-12T06:29:25Z</time>
      </trkpt>
      <trkpt lat="37.186565967276692" lon="-3.608176968991756">
        <ele>669.70000000000005</ele>
        <time>2025-05-12T06:30:03Z</time>
      </trkpt>
      <trkpt lat="37.186350971460342" lon="-3.608270008116961">
        <ele>677.87</ele>
        <time>2025-05-12T06:30:12Z</time>
      </trkpt>
      <trkpt lat="37.186042014509439" lon="-3.608365980908275">
        <ele>685.08000000000004</ele>
        <time>2025-05-12T06:30:20Z</time>
      </trkpt>
      <trkpt lat="37.185997003689408" lon="-3.608376039192081">
        <ele>685.55999999999995</ele>
        <time>2025-05-12T06:30:21Z</time>
      </trkpt>
      <trkpt lat="37.185949981212616" lon="-3.608379978686571">
        <ele>686.51999999999998</ele>
        <time>2025-05-12T06:30:22Z</time>
      </trkpt>
      <trkpt lat="37.185931960120797" lon="-3.608345026150346">
        <ele>687.48000000000002</ele>
        <time>2025-05-12T06:30:23Z</time>
      </trkpt>
      <trkpt lat="37.18591402284801" lon="-3.608307978138328">
        <ele>687.96000000000004</ele>
        <time>2025-05-12T06:30:24Z</time>
      </trkpt>
      <trkpt lat="37.185897007584572" lon="-3.608275037258863">
        <ele>688.91999999999996</ele>
        <time>2025-05-12T06:30:25Z</time>
      </trkpt>
      <trkpt lat="37.185883009806275" lon="-3.60824603587389">
        <ele>689.39999999999998</ele>
        <time>2025-05-12T06:30:26Z</time>
      </trkpt>
      <trkpt lat="37.18587102368474" lon="-3.608222985640168">
        <ele>689.88</ele>
        <time>2025-05-12T06:30:27Z</time>
      </trkpt>
      <trkpt lat="37.185839004814625" lon="-3.608159031718969">
        <ele>690.84000000000003</ele>
        <time>2025-05-12T06:30:29Z</time>
      </trkpt>
      <trkpt lat="37.185814026743174" lon="-3.608107985928655">
        <ele>690.84000000000003</ele>
        <time>2025-05-12T06:30:30Z</time>
      </trkpt>
      <trkpt lat="37.185748983174562" lon="-3.607977982610464">
        <ele>691.33000000000004</ele>
        <time>2025-05-12T06:30:32Z</time>
      </trkpt>
      <trkpt lat="37.185712018981576" lon="-3.607902964577079">
        <ele>691.80999999999995</ele>
        <time>2025-05-12T06:30:33Z</time>
      </trkpt>
      <trkpt lat="37.185676982626319" lon="-3.607833981513977">
        <ele>692.28999999999996</ele>
        <time>2025-05-12T06:30:34Z</time>
      </trkpt>
      <trkpt lat="37.185644963756204" lon="-3.607770027592778">
        <ele>692.76999999999998</ele>
        <time>2025-05-12T06:30:35Z</time>
      </trkpt>
      <trkpt lat="37.18561302870512" lon="-3.607705989852548">
        <ele>693.25</ele>
        <time>2025-05-12T06:30:36Z</time>
      </trkpt>
      <trkpt lat="37.185488976538181" lon="-3.607450006529689">
        <ele>694.21000000000004</ele>
        <time>2025-05-12T06:30:40Z</time>
      </trkpt>
      <trkpt lat="37.18544396571815" lon="-3.607328971847892">
        <ele>696.13</ele>
        <time>2025-05-12T06:30:48Z</time>
      </trkpt>
      <trkpt lat="37.18537699431181" lon="-3.607203997671604">
        <ele>696.61000000000001</ele>
        <time>2025-05-12T06:30:51Z</time>
      </trkpt>
      <trkpt lat="37.185365008190274" lon="-3.607182037085295">
        <ele>696.61000000000001</ele>
        <time>2025-05-12T06:30:52Z</time>
      </trkpt>
      <trkpt lat="37.185181025415659" lon="-3.606798984110355">
        <ele>695.16999999999996</ele>
        <time>2025-05-12T06:31:02Z</time>
      </trkpt>
      <trkpt lat="37.184805013239384" lon="-3.606042014434934">
        <ele>691.33000000000004</ele>
        <time>2025-05-12T06:31:08Z</time>
      </trkpt>
      <trkpt lat="37.184387007728219" lon="-3.605189993977547">
        <ele>685.55999999999995</ele>
        <time>2025-05-12T06:31:16Z</time>
      </trkpt>
      <trkpt lat="37.18400496058166" lon="-3.604406034573913">
        <ele>678.35000000000002</ele>
        <time>2025-05-12T06:31:27Z</time>
      </trkpt>
      <trkpt lat="37.183538004755974" lon="-3.60345896333456">
        <ele>673.53999999999996</ele>
        <time>2025-05-12T06:31:38Z</time>
      </trkpt>
      <trkpt lat="37.183496011421084" lon="-3.603362990543246">
        <ele>674.01999999999998</ele>
        <time>2025-05-12T06:31:39Z</time>
      </trkpt>
      <trkpt lat="37.183449994772673" lon="-3.603265006095171">
        <ele>674.01999999999998</ele>
        <time>2025-05-12T06:31:40Z</time>
      </trkpt>
      <trkpt lat="37.183087980374694" lon="-3.602591017261148">
        <ele>675.94000000000005</ele>
        <time>2025-05-12T06:31:50Z</time>
      </trkpt>
      <trkpt lat="37.18290600925684" lon="-3.602163959294558">
        <ele>677.87</ele>
        <time>2025-05-12T06:32:02Z</time>
      </trkpt>
      <trkpt lat="37.182937022298574" lon="-3.60210201703012">
        <ele>677.87</ele>
        <time>2025-05-12T06:32:03Z</time>
      </trkpt>
      <trkpt lat="37.182951020076871" lon="-3.602077038958669">
        <ele>677.87</ele>
        <time>2025-05-12T06:32:04Z</time>
      </trkpt>
      <trkpt lat="37.18299200758338" lon="-3.602057006210089">
        <ele>677.87</ele>
        <time>2025-05-12T06:32:05Z</time>
      </trkpt>
      <trkpt lat="37.18305797316134" lon="-3.602086007595062">
        <ele>677.87</ele>
        <time>2025-05-12T06:32:06Z</time>
      </trkpt>
      <trkpt lat="37.183107007294893" lon="-3.602146022021771">
        <ele>678.35000000000002</ele>
        <time>2025-05-12T06:32:07Z</time>
      </trkpt>
      <trkpt lat="37.183156041428447" lon="-3.602220034226775">
        <ele>678.35000000000002</ele>
        <time>2025-05-12T06:32:08Z</time>
      </trkpt>
      <trkpt lat="37.183200968429446" lon="-3.602292034775019">
        <ele>678.83000000000004</ele>
        <time>2025-05-12T06:32:09Z</time>
      </trkpt>
      <trkpt lat="37.183243967592716" lon="-3.602366968989372">
        <ele>678.83000000000004</ele>
        <time>2025-05-12T06:32:10Z</time>
      </trkpt>
      <trkpt lat="37.18348796479404" lon="-3.6028559692204">
        <ele>680.75</ele>
        <time>2025-05-12T06:32:17Z</time>
      </trkpt>
      <trkpt lat="37.183533981442451" lon="-3.602943979203701">
        <ele>681.23000000000002</ele>
        <time>2025-05-12T06:32:20Z</time>
      </trkpt>
      <trkpt lat="37.183533981442451" lon="-3.602943979203701">
        <ele>681.23000000000002</ele>
        <time>2025-05-12T06:32:34Z</time>
      </trkpt>
      <trkpt lat="37.183566000312567" lon="-3.603002987802029">
        <ele>681.71000000000004</ele>
        <time>2025-05-12T06:32:39Z</time>
      </trkpt>
      <trkpt lat="37.183807985857129" lon="-3.603459969162941">
        <ele>683.14999999999998</ele>
        <time>2025-05-12T06:32:49Z</time>
      </trkpt>
      <trkpt lat="37.18385199084878" lon="-3.603539010509849">
        <ele>683.14999999999998</ele>
        <time>2025-05-12T06:32:50Z</time>
      </trkpt>
      <trkpt lat="37.184235965833068" lon="-3.604245018213987">
        <ele>682.66999999999996</ele>
        <time>2025-05-12T06:32:56Z</time>
      </trkpt>
      <trkpt lat="37.184235965833068" lon="-3.604245018213987">
        <ele>682.66999999999996</ele>
        <time>2025-05-12T06:32:57Z</time>
      </trkpt>
      <trkpt lat="37.184253986924887" lon="-3.604274019598961">
        <ele>682.66999999999996</ele>
        <time>2025-05-12T06:32:58Z</time>
      </trkpt>
      <trkpt lat="37.184267984703183" lon="-3.60429598018527">
        <ele>682.19000000000005</ele>
        <time>2025-05-12T06:32:59Z</time>
      </trkpt>
      <trkpt lat="37.184287011623383" lon="-3.604326993227005">
        <ele>682.19000000000005</ele>
        <time>2025-05-12T06:33:00Z</time>
      </trkpt>
      <trkpt lat="37.184311989694834" lon="-3.604368986561894">
        <ele>682.19000000000005</ele>
        <time>2025-05-12T06:33:01Z</time>
      </trkpt>
      <trkpt lat="37.184337973594666" lon="-3.604409974068403">
        <ele>682.19000000000005</ele>
        <time>2025-05-12T06:33:02Z</time>
      </trkpt>
      <trkpt lat="37.184357000514865" lon="-3.604440987110138">
        <ele>682.19000000000005</ele>
        <time>2025-05-12T06:33:03Z</time>
      </trkpt>
      <trkpt lat="37.18441198579967" lon="-3.604535032063723">
        <ele>681.71000000000004</ele>
        <time>2025-05-12T06:33:11Z</time>
      </trkpt>
      <trkpt lat="37.18471297994256" lon="-3.60521899536252">
        <ele>680.26999999999998</ele>
        <time>2025-05-12T06:33:18Z</time>
      </trkpt>
      <trkpt lat="37.184758996590972" lon="-3.605311028659344">
        <ele>680.26999999999998</ele>
        <time>2025-05-12T06:33:19Z</time>
      </trkpt>
      <trkpt lat="37.184812976047397" lon="-3.605399038642645">
        <ele>680.26999999999998</ele>
        <time>2025-05-12T06:33:20Z</time>
      </trkpt>
      <trkpt lat="37.184867039322853" lon="-3.605481013655663">
        <ele>679.78999999999996</ele>
        <time>2025-05-12T06:33:21Z</time>
      </trkpt>
      <trkpt lat="37.185250008478761" lon="-3.606272013857961">
        <ele>676.41999999999996</ele>
        <time>2025-05-12T06:33:29Z</time>
      </trkpt>
      <trkpt lat="37.185294013470411" lon="-3.606375027447939">
        <ele>675.94000000000005</ele>
        <time>2025-05-12T06:33:30Z</time>
      </trkpt>
      <trkpt lat="37.185336006805301" lon="-3.606478963047266">
        <ele>675.46000000000004</ele>
        <time>2025-05-12T06:33:31Z</time>
      </trkpt>
      <trkpt lat="37.185423010960221" lon="-3.606682978570461">
        <ele>674.98000000000002</ele>
        <time>2025-05-12T06:33:33Z</time>
      </trkpt>
      <trkpt lat="37.185514038428664" lon="-3.606877019628882">
        <ele>674.01999999999998</ele>
        <time>2025-05-12T06:33:35Z</time>
      </trkpt>
      <trkpt lat="37.185629038140178" lon="-3.607114981859922">
        <ele>673.05999999999995</ele>
        <time>2025-05-12T06:33:38Z</time>
      </trkpt>
      <trkpt lat="37.185969008132815" lon="-3.607817972078919">
        <ele>670.17999999999995</ele>
        <time>2025-05-12T06:33:48Z</time>
      </trkpt>
      <trkpt lat="37.186036985367537" lon="-3.607954010367394">
        <ele>670.65999999999997</ele>
        <time>2025-05-12T06:33:50Z</time>
      </trkpt>
      <trkpt lat="37.186093982309103" lon="-3.608066998422146">
        <ele>671.13999999999999</ele>
        <time>2025-05-12T06:33:52Z</time>
      </trkpt>
      <trkpt lat="37.186261033639312" lon="-3.608385007828474">
        <ele>671.62</ele>
        <time>2025-05-12T06:34:00Z</time>
      </trkpt>
      <trkpt lat="37.186391958966851" lon="-3.608686001971364">
        <ele>670.17999999999995</ele>
        <time>2025-05-12T06:34:10Z</time>
      </trkpt>
      <trkpt lat="37.186633022502065" lon="-3.609167961403728">
        <ele>667.76999999999998</ele>
        <time>2025-05-12T06:34:20Z</time>
      </trkpt>
      <trkpt lat="37.186786998063326" lon="-3.609511032700539">
        <ele>666.33000000000004</ele>
        <time>2025-05-12T06:34:26Z</time>
      </trkpt>
      <trkpt lat="37.186890011653304" lon="-3.609757963567972">
        <ele>665.37</ele>
        <time>2025-05-12T06:34:35Z</time>
      </trkpt>
      <trkpt lat="37.186919013038278" lon="-3.609824012964964">
        <ele>665.37</ele>
        <time>2025-05-12T06:34:54Z</time>
      </trkpt>
      <trkpt lat="37.186922030523419" lon="-3.609835999086499">
        <ele>666.33000000000004</ele>
        <time>2025-05-12T06:34:55Z</time>
      </trkpt>
      <trkpt lat="37.187147000804543" lon="-3.610519962385297">
        <ele>671.13999999999999</ele>
        <time>2025-05-12T06:35:05Z</time>
      </trkpt>
      <trkpt lat="37.187412036582828" lon="-3.611176013946533">
        <ele>673.05999999999995</ele>
        <time>2025-05-12T06:35:15Z</time>
      </trkpt>
      <trkpt lat="37.187453024089336" lon="-3.611241979524493">
        <ele>673.53999999999996</ele>
        <time>2025-05-12T06:35:22Z</time>
      </trkpt>
      <trkpt lat="37.187583027407527" lon="-3.611453035846353">
        <ele>674.01999999999998</ele>
        <time>2025-05-12T06:35:45Z</time>
      </trkpt>
      <trkpt lat="37.187599036842585" lon="-3.611479019746184">
        <ele>673.05999999999995</ele>
        <time>2025-05-12T06:35:54Z</time>
      </trkpt>
      <trkpt lat="37.187734991312027" lon="-3.611692003905773">
        <ele>669.70000000000005</ele>
        <time>2025-05-12T06:36:13Z</time>
      </trkpt>
      <trkpt lat="37.187989968806505" lon="-3.612091988325119">
        <ele>671.62</ele>
        <time>2025-05-12T06:36:20Z</time>
      </trkpt>
      <trkpt lat="37.188140004873276" lon="-3.612326011061668">
        <ele>674.01999999999998</ele>
        <time>2025-05-12T06:36:27Z</time>
      </trkpt>
      <trkpt lat="37.188140004873276" lon="-3.612326011061668">
        <ele>674.01999999999998</ele>
        <time>2025-05-12T06:36:53Z</time>
      </trkpt>
      <trkpt lat="37.188179986551404" lon="-3.612388959154487">
        <ele>675.94000000000005</ele>
        <time>2025-05-12T06:37:24Z</time>
      </trkpt>
      <trkpt lat="37.18830001540482" lon="-3.612578976899386">
        <ele>677.38999999999999</ele>
        <time>2025-05-12T06:37:27Z</time>
      </trkpt>
      <trkpt lat="37.188356006518006" lon="-3.612677967175841">
        <ele>677.38999999999999</ele>
        <time>2025-05-12T06:37:28Z</time>
      </trkpt>
      <trkpt lat="37.188421972095966" lon="-3.612745022401214">
        <ele>677.38999999999999</ele>
        <time>2025-05-12T06:37:29Z</time>
      </trkpt>
      <trkpt lat="37.189049022272229" lon="-3.613637024536729">
        <ele>676.90999999999997</ele>
        <time>2025-05-12T06:37:40Z</time>
      </trkpt>
      <trkpt lat="37.189128985628486" lon="-3.613751018419862">
        <ele>676.90999999999997</ele>
        <time>2025-05-12T06:37:48Z</time>
      </trkpt>
      <trkpt lat="37.189135020598769" lon="-3.613761998713017">
        <ele>676.90999999999997</ele>
        <time>2025-05-12T06:38:25Z</time>
      </trkpt>
      <trkpt lat="37.189147006720304" lon="-3.613783959299326">
        <ele>676.90999999999997</ele>
        <time>2025-05-12T06:38:26Z</time>
      </trkpt>
      <trkpt lat="37.189253959804773" lon="-3.613973977044225">
        <ele>676.90999999999997</ele>
        <time>2025-05-12T06:38:35Z</time>
      </trkpt>
      <trkpt lat="37.189300982281566" lon="-3.614057963714004">
        <ele>674.5</ele>
        <time>2025-05-12T06:38:55Z</time>
      </trkpt>
      <trkpt lat="37.189432997256517" lon="-3.614293998107314">
        <ele>672.10000000000002</ele>
        <time>2025-05-12T06:39:06Z</time>
      </trkpt>
      <trkpt lat="37.189537016674876" lon="-3.614480998367071">
        <ele>670.17999999999995</ele>
        <time>2025-05-12T06:39:13Z</time>
      </trkpt>
      <trkpt lat="37.189751006662846" lon="-3.614502036944032">
        <ele>669.70000000000005</ele>
        <time>2025-05-12T06:39:17Z</time>
      </trkpt>
      <trkpt lat="37.189787970855832" lon="-3.614519974216819">
        <ele>669.22000000000003</ele>
        <time>2025-05-12T06:39:18Z</time>
      </trkpt>
      <trkpt lat="37.189769027754664" lon="-3.614592980593443">
        <ele>669.22000000000003</ele>
        <time>2025-05-12T06:39:19Z</time>
      </trkpt>
      <trkpt lat="37.189772967249155" lon="-3.614608990028501">
        <ele>668.73000000000002</ele>
        <time>2025-05-12T06:39:20Z</time>
      </trkpt>
      <trkpt lat="37.189772967249155" lon="-3.614608990028501">
        <ele>668.73000000000002</ele>
        <time>2025-05-12T06:39:21Z</time>
      </trkpt>
      <trkpt lat="37.189753018319607" lon="-3.614746034145355">
        <ele>668.73000000000002</ele>
        <time>2025-05-12T06:39:22Z</time>
      </trkpt>
      <trkpt lat="37.189819989725947" lon="-3.614911995828152">
        <ele>668.25</ele>
        <time>2025-05-12T06:39:24Z</time>
      </trkpt>
      <trkpt lat="37.190090976655483" lon="-3.615524964407086">
        <ele>665.37</ele>
        <time>2025-05-12T06:39:31Z</time>
      </trkpt>
      <trkpt lat="37.190691037103534" lon="-3.61692801117897">
        <ele>662.97000000000003</ele>
        <time>2025-05-12T06:39:43Z</time>
      </trkpt>
      <trkpt lat="37.191153969615698" lon="-3.61793702468276">
        <ele>662.49000000000001</ele>
        <time>2025-05-12T06:39:51Z</time>
      </trkpt>
      <trkpt lat="37.191207027062774" lon="-3.618055963888764">
        <ele>662.49000000000001</ele>
        <time>2025-05-12T06:39:52Z</time>
      </trkpt>
      <trkpt lat="37.191509027034044" lon="-3.618842018768191">
        <ele>662.49000000000001</ele>
        <time>2025-05-12T06:39:59Z</time>
      </trkpt>
      <trkpt lat="37.191540962085128" lon="-3.618930028751493">
        <ele>662.49000000000001</ele>
        <time>2025-05-12T06:40:00Z</time>
      </trkpt>
      <trkpt lat="37.191567029803991" lon="-3.61901099793613">
        <ele>662.49000000000001</ele>
        <time>2025-05-12T06:40:01Z</time>
      </trkpt>
      <trkpt lat="37.19158697873354" lon="-3.619084004312754">
        <ele>662.97000000000003</ele>
        <time>2025-05-12T06:40:02Z</time>
      </trkpt>
      <trkpt lat="37.191609023138881" lon="-3.619146030396223">
        <ele>663.45000000000005</ele>
        <time>2025-05-12T06:40:03Z</time>
      </trkpt>
      <trkpt lat="37.19162997789681" lon="-3.619199004024267">
        <ele>663.45000000000005</ele>
        <time>2025-05-12T06:40:04Z</time>
      </trkpt>
      <trkpt lat="37.191644981503487" lon="-3.619235968217254">
        <ele>663.92999999999995</ele>
        <time>2025-05-12T06:40:05Z</time>
      </trkpt>
      <trkpt lat="37.191655961796641" lon="-3.619263041764498">
        <ele>663.92999999999995</ele>
        <time>2025-05-12T06:40:06Z</time>
      </trkpt>
      <trkpt lat="37.191666020080447" lon="-3.619288019835949">
        <ele>663.92999999999995</ele>
        <time>2025-05-12T06:40:07Z</time>
      </trkpt>
      <trkpt lat="37.191680017858744" lon="-3.619323978200555">
        <ele>664.40999999999997</ele>
        <time>2025-05-12T06:40:08Z</time>
      </trkpt>
      <trkpt lat="37.191698960959911" lon="-3.619373012334108">
        <ele>664.40999999999997</ele>
        <time>2025-05-12T06:40:09Z</time>
      </trkpt>
      <trkpt lat="37.191723017022014" lon="-3.619433026760817">
        <ele>664.40999999999997</ele>
        <time>2025-05-12T06:40:10Z</time>
      </trkpt>
      <trkpt lat="37.191770039498806" lon="-3.619451969861984">
        <ele>664.40999999999997</ele>
        <time>2025-05-12T06:40:11Z</time>
      </trkpt>
      <trkpt lat="37.191858971491456" lon="-3.619491029530764">
        <ele>664.88999999999999</ele>
        <time>2025-05-12T06:40:12Z</time>
      </trkpt>
      <trkpt lat="37.191893002018332" lon="-3.619559006765485">
        <ele>664.88999999999999</ele>
        <time>2025-05-12T06:40:13Z</time>
      </trkpt>
      <trkpt lat="37.191917980089784" lon="-3.619671994820237">
        <ele>664.88999999999999</ele>
        <time>2025-05-12T06:40:14Z</time>
      </trkpt>
      <trkpt lat="37.191917980089784" lon="-3.619754975661635">
        <ele>664.88999999999999</ele>
        <time>2025-05-12T06:40:15Z</time>
      </trkpt>
      <trkpt lat="37.191889984533191" lon="-3.619851032271981">
        <ele>665.37</ele>
        <time>2025-05-12T06:40:16Z</time>
      </trkpt>
      <trkpt lat="37.191816978156567" lon="-3.619912974536419">
        <ele>665.37</ele>
        <time>2025-05-12T06:40:17Z</time>
      </trkpt>
      <trkpt lat="37.191759981215" lon="-3.619937030598521">
        <ele>665.85000000000002</ele>
        <time>2025-05-12T06:40:18Z</time>
      </trkpt>
      <trkpt lat="37.191725028678775" lon="-3.619952034205198">
        <ele>665.85000000000002</ele>
        <time>2025-05-12T06:40:19Z</time>
      </trkpt>
      <trkpt lat="37.191725028678775" lon="-3.619952034205198">
        <ele>665.85000000000002</ele>
        <time>2025-05-12T06:40:20Z</time>
      </trkpt>
      <trkpt lat="37.191632995381951" lon="-3.619882967323065">
        <ele>666.33000000000004</ele>
        <time>2025-05-12T06:40:21Z</time>
      </trkpt>
      <trkpt lat="37.191614974290133" lon="-3.619869975373149">
        <ele>667.28999999999996</ele>
        <time>2025-05-12T06:40:30Z</time>
      </trkpt>
      <trkpt lat="37.191387992352247" lon="-3.619988998398185">
        <ele>667.28999999999996</ele>
        <time>2025-05-12T06:40:38Z</time>
      </trkpt>
      <trkpt lat="37.1913490165025" lon="-3.620027974247932">
        <ele>667.28999999999996</ele>
        <time>2025-05-12T06:40:39Z</time>
      </trkpt>
      <trkpt lat="37.191308028995991" lon="-3.620068961754441">
        <ele>667.28999999999996</ele>
        <time>2025-05-12T06:40:40Z</time>
      </trkpt>
      <trkpt lat="37.191030001267791" lon="-3.620307007804513">
        <ele>665.85000000000002</ele>
        <time>2025-05-12T06:40:45Z</time>
      </trkpt>
      <trkpt lat="37.190969986841083" lon="-3.620357969775796">
        <ele>665.85000000000002</ele>
        <time>2025-05-12T06:40:46Z</time>
      </trkpt>
      <trkpt lat="37.190783992409706" lon="-3.62051404081285">
        <ele>665.85000000000002</ele>
        <time>2025-05-12T06:40:49Z</time>
      </trkpt>
      <trkpt lat="37.190316030755639" lon="-3.620874965563417">
        <ele>665.85000000000002</ele>
        <time>2025-05-12T06:40:56Z</time>
      </trkpt>
      <trkpt lat="37.190251993015409" lon="-3.620927017182112">
        <ele>666.33000000000004</ele>
        <time>2025-05-12T06:40:57Z</time>
      </trkpt>
      <trkpt lat="37.190196001902223" lon="-3.620964987203479">
        <ele>666.33000000000004</ele>
        <time>2025-05-12T06:40:58Z</time>
      </trkpt>
      <trkpt lat="37.190141016617417" lon="-3.621007986366749">
        <ele>666.80999999999995</ele>
        <time>2025-05-12T06:40:59Z</time>
      </trkpt>
      <trkpt lat="37.19008200801909" lon="-3.621054003015161">
        <ele>667.28999999999996</ele>
        <time>2025-05-12T06:41:00Z</time>
      </trkpt>
      <trkpt lat="37.19001897610724" lon="-3.621102031320334">
        <ele>667.28999999999996</ele>
        <time>2025-05-12T06:41:01Z</time>
      </trkpt>
      <trkpt lat="37.189955022186041" lon="-3.621150981634855">
        <ele>667.76999999999998</ele>
        <time>2025-05-12T06:41:02Z</time>
      </trkpt>
      <trkpt lat="37.189469039440155" lon="-3.62152598798275">
        <ele>670.65999999999997</ele>
        <time>2025-05-12T06:41:10Z</time>
      </trkpt>
      <trkpt lat="37.189302993938327" lon="-3.621658002957702">
        <ele>671.13999999999999</ele>
        <time>2025-05-12T06:41:13Z</time>
      </trkpt>
      <trkpt lat="37.189252031967044" lon="-3.621698990464211">
        <ele>671.13999999999999</ele>
        <time>2025-05-12T06:41:14Z</time>
      </trkpt>
      <trkpt lat="37.189038963988423" lon="-3.621866041794419">
        <ele>670.65999999999997</ele>
        <time>2025-05-12T06:41:18Z</time>
      </trkpt>
      <trkpt lat="37.188976015895605" lon="-3.621925972402096">
        <ele>670.65999999999997</ele>
        <time>2025-05-12T06:41:19Z</time>
      </trkpt>
      <trkpt lat="37.188218962401152" lon="-3.622279018163681">
        <ele>670.17999999999995</ele>
        <time>2025-05-12T06:41:29Z</time>
      </trkpt>
      <trkpt lat="37.188135981559753" lon="-3.622300978749991">
        <ele>670.17999999999995</ele>
        <time>2025-05-12T06:41:30Z</time>
      </trkpt>
      <trkpt lat="37.188055012375116" lon="-3.622322017326951">
        <ele>670.17999999999995</ele>
        <time>2025-05-12T06:41:31Z</time>
      </trkpt>
      <trkpt lat="37.187901036813855" lon="-3.622355964034796">
        <ele>671.13999999999999</ele>
        <time>2025-05-12T06:41:33Z</time>
      </trkpt>
      <trkpt lat="37.187841022387147" lon="-3.622355964034796">
        <ele>671.62</ele>
        <time>2025-05-12T06:41:34Z</time>
      </trkpt>
      <trkpt lat="37.187101989984512" lon="-3.622348001226783">
        <ele>669.22000000000003</ele>
        <time>2025-05-12T06:41:45Z</time>
      </trkpt>
      <trkpt lat="37.186578959226608" lon="-3.622377002611756">
        <ele>665.37</ele>
        <time>2025-05-12T06:41:53Z</time>
      </trkpt>
      <trkpt lat="37.186508970335126" lon="-3.622383959591389">
        <ele>664.88999999999999</ele>
        <time>2025-05-12T06:41:54Z</time>
      </trkpt>
      <trkpt lat="37.186448033899069" lon="-3.622394017875195">
        <ele>664.40999999999997</ele>
        <time>2025-05-12T06:41:55Z</time>
      </trkpt>
      <trkpt lat="37.186037991195917" lon="-3.622484961524606">
        <ele>662.00999999999999</ele>
        <time>2025-05-12T06:42:02Z</time>
      </trkpt>
      <trkpt lat="37.185951992869377" lon="-3.622518992051482">
        <ele>662.00999999999999</ele>
        <time>2025-05-12T06:42:03Z</time>
      </trkpt>
      <trkpt lat="37.185164010152221" lon="-3.6230309586972">
        <ele>660.08000000000004</ele>
        <time>2025-05-12T06:42:12Z</time>
      </trkpt>
      <trkpt lat="37.184440987184644" lon="-3.623516019433737">
        <ele>661.03999999999996</ele>
        <time>2025-05-12T06:42:21Z</time>
      </trkpt>
      <trkpt lat="37.184254992753267" lon="-3.623633030802012">
        <ele>661.51999999999998</ele>
        <time>2025-05-12T06:42:25Z</time>
      </trkpt>
      <trkpt lat="37.184214005246758" lon="-3.623662032186985">
        <ele>661.51999999999998</ele>
        <time>2025-05-12T06:42:26Z</time>
      </trkpt>
      <trkpt lat="37.184175029397011" lon="-3.623690027743578">
        <ele>661.03999999999996</ele>
        <time>2025-05-12T06:42:27Z</time>
      </trkpt>
      <trkpt lat="37.184135969728231" lon="-3.623735960572958">
        <ele>661.03999999999996</ele>
        <time>2025-05-12T06:42:28Z</time>
      </trkpt>
      <trkpt lat="37.184105040505528" lon="-3.623797986656427">
        <ele>661.03999999999996</ele>
        <time>2025-05-12T06:42:29Z</time>
      </trkpt>
      <trkpt lat="37.184064975008368" lon="-3.623879039660096">
        <ele>661.51999999999998</ele>
        <time>2025-05-12T06:42:30Z</time>
      </trkpt>
      <trkpt lat="37.183987023308873" lon="-3.623925978317857">
        <ele>661.51999999999998</ele>
        <time>2025-05-12T06:42:32Z</time>
      </trkpt>
      <trkpt lat="37.183970008045435" lon="-3.623991021886468">
        <ele>661.51999999999998</ele>
        <time>2025-05-12T06:42:33Z</time>
      </trkpt>
      <trkpt lat="37.18398098833859" lon="-3.624036032706499">
        <ele>661.51999999999998</ele>
        <time>2025-05-12T06:42:34Z</time>
      </trkpt>
      <trkpt lat="37.184000015258789" lon="-3.624114990234375">
        <ele>661.51999999999998</ele>
        <time>2025-05-12T06:42:35Z</time>
      </trkpt>
      <trkpt lat="37.184004038572311" lon="-3.624136028811336">
        <ele>661.03999999999996</ele>
        <time>2025-05-12T06:42:36Z</time>
      </trkpt>
      <trkpt lat="37.184007978066802" lon="-3.62425597384572">
        <ele>659.60000000000002</ele>
        <time>2025-05-12T06:42:39Z</time>
      </trkpt>
      <trkpt lat="37.183992974460125" lon="-3.624269971624017">
        <ele>659.12</ele>
        <time>2025-05-12T06:42:40Z</time>
      </trkpt>
      <trkpt lat="37.183935977518559" lon="-3.624321017414331">
        <ele>658.15999999999997</ele>
        <time>2025-05-12T06:42:42Z</time>
      </trkpt>
      <trkpt lat="37.183889960870147" lon="-3.62436200492084">
        <ele>657.67999999999995</ele>
        <time>2025-05-12T06:42:43Z</time>
      </trkpt>
      <trkpt lat="37.183842016384006" lon="-3.62440500408411">
        <ele>657.67999999999995</ele>
        <time>2025-05-12T06:42:44Z</time>
      </trkpt>
      <trkpt lat="37.183806980028749" lon="-3.624437022954226">
        <ele>657.67999999999995</ele>
        <time>2025-05-12T06:42:45Z</time>
      </trkpt>
      <trkpt lat="37.183749983087182" lon="-3.624451020732522">
        <ele>657.20000000000005</ele>
        <time>2025-05-12T06:42:46Z</time>
      </trkpt>
      <trkpt lat="37.183720981702209" lon="-3.624457977712154">
        <ele>657.20000000000005</ele>
        <time>2025-05-12T06:42:47Z</time>
      </trkpt>
      <trkpt lat="37.183720981702209" lon="-3.624457977712154">
        <ele>656.72000000000003</ele>
        <time>2025-05-12T06:42:48Z</time>
      </trkpt>
      <trkpt lat="37.18361402861774" lon="-3.624372985213995">
        <ele>654.79999999999995</ele>
        <time>2025-05-12T06:42:58Z</time>
      </trkpt>
      <trkpt lat="37.18361402861774" lon="-3.624372985213995">
        <ele>653.83000000000004</ele>
        <time>2025-05-12T06:43:14Z</time>
      </trkpt>
      <trkpt lat="37.183734979480505" lon="-3.624216997995973">
        <ele>643.25999999999999</ele>
        <time>2025-05-12T06:46:23Z</time>
      </trkpt>
      <trkpt lat="37.183620985597372" lon="-3.624331997707486">
        <ele>643.74000000000001</ele>
        <time>2025-05-12T06:46:47Z</time>
      </trkpt>
      <trkpt lat="37.1835280302912" lon="-3.624309031292796">
        <ele>649.02999999999997</ele>
        <time>2025-05-12T06:47:38Z</time>
      </trkpt>
      <trkpt lat="37.18359500169754" lon="-3.624283969402313">
        <ele>649.50999999999999</ele>
        <time>2025-05-12T06:47:52Z</time>
      </trkpt>
      <trkpt lat="37.183626014739275" lon="-3.624223032966256">
        <ele>652.38999999999999</ele>
        <time>2025-05-12T06:47:54Z</time>
      </trkpt>
      <trkpt lat="37.183621991425753" lon="-3.624023040756583">
        <ele>649.02999999999997</ele>
        <time>2025-05-12T06:48:04Z</time>
      </trkpt>
      <trkpt lat="37.183611011132598" lon="-3.623971994966269">
        <ele>645.65999999999997</ele>
        <time>2025-05-12T06:48:07Z</time>
      </trkpt>
      <trkpt lat="37.183535993099213" lon="-3.623912986367941">
        <ele>644.70000000000005</ele>
        <time>2025-05-12T06:48:08Z</time>
      </trkpt>
      <trkpt lat="37.183503974229097" lon="-3.62393201328814">
        <ele>643.74000000000001</ele>
        <time>2025-05-12T06:48:09Z</time>
      </trkpt>
      <trkpt lat="37.183459969237447" lon="-3.623960008844733">
        <ele>643.25999999999999</ele>
        <time>2025-05-12T06:48:10Z</time>
      </trkpt>
      <trkpt lat="37.183415964245796" lon="-3.623990016058087">
        <ele>642.29999999999995</ele>
        <time>2025-05-12T06:48:11Z</time>
      </trkpt>
      <trkpt lat="37.183155035600066" lon="-3.624157989397645">
        <ele>638.92999999999995</ele>
        <time>2025-05-12T06:48:16Z</time>
      </trkpt>
      <trkpt lat="37.183104995638132" lon="-3.624197971075773">
        <ele>638.45000000000005</ele>
        <time>2025-05-12T06:48:17Z</time>
      </trkpt>
      <trkpt lat="37.183029977604747" lon="-3.624285981059074">
        <ele>636.52999999999997</ele>
        <time>2025-05-12T06:48:19Z</time>
      </trkpt>
      <trkpt lat="37.183017991483212" lon="-3.624343983829022">
        <ele>636.04999999999995</ele>
        <time>2025-05-12T06:48:20Z</time>
      </trkpt>
      <trkpt lat="37.182888993993402" lon="-3.624453032389283">
        <ele>633.16999999999996</ele>
        <time>2025-05-12T06:48:24Z</time>
      </trkpt>
      <trkpt lat="37.182884970679879" lon="-3.624457977712154">
        <ele>632.67999999999995</ele>
        <time>2025-05-12T06:48:25Z</time>
      </trkpt>
      <trkpt lat="37.182775000110269" lon="-3.624645983800292">
        <ele>631.24000000000001</ele>
        <time>2025-05-12T06:48:27Z</time>
      </trkpt>
      <trkpt lat="37.182694030925632" lon="-3.624699963256717">
        <ele>630.27999999999997</ele>
        <time>2025-05-12T06:48:28Z</time>
      </trkpt>
      <trkpt lat="37.182577019557357" lon="-3.624707004055381">
        <ele>630.27999999999997</ele>
        <time>2025-05-12T06:48:29Z</time>
      </trkpt>
      <trkpt lat="37.182495966553688" lon="-3.624699963256717">
        <ele>629.79999999999995</ele>
        <time>2025-05-12T06:48:30Z</time>
      </trkpt>
      <trkpt lat="37.182409968227148" lon="-3.624635003507137">
        <ele>628.84000000000003</ele>
        <time>2025-05-12T06:48:31Z</time>
      </trkpt>
      <trkpt lat="37.182380966842175" lon="-3.624560991302133">
        <ele>627.88</ele>
        <time>2025-05-12T06:48:32Z</time>
      </trkpt>
      <trkpt lat="37.18234802596271" lon="-3.624480022117496">
        <ele>626.91999999999996</ele>
        <time>2025-05-12T06:48:33Z</time>
      </trkpt>
      <trkpt lat="37.182321036234498" lon="-3.624401986598969">
        <ele>625.96000000000004</ele>
        <time>2025-05-12T06:48:34Z</time>
      </trkpt>
      <trkpt lat="37.182290023192763" lon="-3.624310959130526">
        <ele>625.47000000000003</ele>
        <time>2025-05-12T06:48:35Z</time>
      </trkpt>
      <trkpt lat="37.182253981009126" lon="-3.62420903518796">
        <ele>624.50999999999999</ele>
        <time>2025-05-12T06:48:36Z</time>
      </trkpt>
      <trkpt lat="37.182216010987759" lon="-3.624096969142556">
        <ele>623.54999999999995</ele>
        <time>2025-05-12T06:48:37Z</time>
      </trkpt>
      <trkpt lat="37.18217502348125" lon="-3.623980041593313">
        <ele>622.59000000000003</ele>
        <time>2025-05-12T06:48:38Z</time>
      </trkpt>
      <trkpt lat="37.18192096799612" lon="-3.623401019722223">
        <ele>620.66999999999996</ele>
        <time>2025-05-12T06:48:43Z</time>
      </trkpt>
      <trkpt lat="37.181863971054554" lon="-3.623274033889175">
        <ele>621.14999999999998</ele>
        <time>2025-05-12T06:48:44Z</time>
      </trkpt>
      <trkpt lat="37.18118897639215" lon="-3.621721034869552">
        <ele>627.88</ele>
        <time>2025-05-12T06:48:56Z</time>
      </trkpt>
      <trkpt lat="37.180582964792848" lon="-3.620232995599508">
        <ele>629.79999999999995</ele>
        <time>2025-05-12T06:49:04Z</time>
      </trkpt>
      <trkpt lat="37.179589960724115" lon="-3.618342960253358">
        <ele>632.67999999999995</ele>
        <time>2025-05-12T06:49:14Z</time>
      </trkpt>
      <trkpt lat="37.178205018863082" lon="-3.616248993203044">
        <ele>640.86000000000001</ele>
        <time>2025-05-12T06:49:25Z</time>
      </trkpt>
      <trkpt lat="37.176244994625449" lon="-3.614079002290964">
        <ele>649.99000000000001</ele>
        <time>2025-05-12T06:49:38Z</time>
      </trkpt>
      <trkpt lat="37.1744429692626" lon="-3.612610995769501">
        <ele>653.35000000000002</ele>
        <time>2025-05-12T06:49:48Z</time>
      </trkpt>
      <trkpt lat="37.172640021890402" lon="-3.611537022516131">
        <ele>655.27999999999997</ele>
        <time>2025-05-12T06:49:58Z</time>
      </trkpt>
      <trkpt lat="37.170386966317892" lon="-3.61061098985374">
        <ele>658.63999999999999</ele>
        <time>2025-05-12T06:50:09Z</time>
      </trkpt>
      <trkpt lat="37.168656019493937" lon="-3.610248975455761">
        <ele>660.08000000000004</ele>
        <time>2025-05-12T06:50:17Z</time>
      </trkpt>
      <trkpt lat="37.166013037785888" lon="-3.610082007944584">
        <ele>662.49000000000001</ele>
        <time>2025-05-12T06:50:29Z</time>
      </trkpt>
      <trkpt lat="37.16339997947216" lon="-3.610464977100492">
        <ele>662.00999999999999</ele>
        <time>2025-05-12T06:50:41Z</time>
      </trkpt>
      <trkpt lat="37.160860011354089" lon="-3.611381035298109">
        <ele>661.51999999999998</ele>
        <time>2025-05-12T06:50:53Z</time>
      </trkpt>
      <trkpt lat="37.158348960801959" lon="-3.612403040751815">
        <ele>660.55999999999995</ele>
        <time>2025-05-12T06:51:05Z</time>
      </trkpt>
      <trkpt lat="37.155375983566046" lon="-3.61329697072506">
        <ele>663.45000000000005</ele>
        <time>2025-05-12T06:51:19Z</time>
      </trkpt>
      <trkpt lat="37.153409002348781" lon="-3.613114999607205">
        <ele>668.25</ele>
        <time>2025-05-12T06:51:28Z</time>
      </trkpt>
      <trkpt lat="37.1513029653579" lon="-3.612273959442973">
        <ele>674.01999999999998</ele>
        <time>2025-05-12T06:51:38Z</time>
      </trkpt>
      <trkpt lat="37.148369969800115" lon="-3.610913995653391">
        <ele>677.87</ele>
        <time>2025-05-12T06:51:52Z</time>
      </trkpt>
      <trkpt lat="37.145377965644002" lon="-3.609573980793357">
        <ele>679.30999999999995</ele>
        <time>2025-05-12T06:52:07Z</time>
      </trkpt>
      <trkpt lat="37.143012005835772" lon="-3.608894962817431">
        <ele>678.83000000000004</ele>
        <time>2025-05-12T06:52:17Z</time>
      </trkpt>
      <trkpt lat="37.140799015760422" lon="-3.608533032238483">
        <ele>679.78999999999996</ele>
        <time>2025-05-12T06:52:26Z</time>
      </trkpt>
      <trkpt lat="37.138047991320491" lon="-3.608445022255182">
        <ele>683.63</ele>
        <time>2025-05-12T06:52:37Z</time>
      </trkpt>
      <trkpt lat="37.134853983297944" lon="-3.608879959210753">
        <ele>688.91999999999996</ele>
        <time>2025-05-12T06:52:50Z</time>
      </trkpt>
      <trkpt lat="37.131737004965544" lon="-3.609825018793345">
        <ele>690.36000000000001</ele>
        <time>2025-05-12T06:53:03Z</time>
      </trkpt>
      <trkpt lat="37.128973994404078" lon="-3.611155981197953">
        <ele>693.25</ele>
        <time>2025-05-12T06:53:15Z</time>
      </trkpt>
      <trkpt lat="37.126403013244271" lon="-3.612914001569152">
        <ele>696.13</ele>
        <time>2025-05-12T06:53:27Z</time>
      </trkpt>
      <trkpt lat="37.12405800819397" lon="-3.615025989711285">
        <ele>701.41999999999996</ele>
        <time>2025-05-12T06:53:40Z</time>
      </trkpt>
      <trkpt lat="37.121959012001753" lon="-3.61746403388679">
        <ele>705.75</ele>
        <time>2025-05-12T06:53:51Z</time>
      </trkpt>
      <trkpt lat="37.119788015261292" lon="-3.620238024741411">
        <ele>713.44000000000005</ele>
        <time>2025-05-12T06:54:04Z</time>
      </trkpt>
      <trkpt lat="37.117610983550549" lon="-3.623048979789019">
        <ele>723.52999999999997</ele>
        <time>2025-05-12T06:54:17Z</time>
      </trkpt>
      <trkpt lat="37.115582982078195" lon="-3.62567100673914">
        <ele>732.65999999999997</ele>
        <time>2025-05-12T06:54:29Z</time>
      </trkpt>
      <trkpt lat="37.112891972064972" lon="-3.629114041104913">
        <ele>736.50999999999999</ele>
        <time>2025-05-12T06:54:45Z</time>
      </trkpt>
      <trkpt lat="37.110604969784617" lon="-3.631938993930817">
        <ele>741.30999999999995</ele>
        <time>2025-05-12T06:54:58Z</time>
      </trkpt>
      <trkpt lat="37.108215037733316" lon="-3.634647019207478">
        <ele>741.30999999999995</ele>
        <time>2025-05-12T06:55:11Z</time>
      </trkpt>
      <trkpt lat="37.106142025440931" lon="-3.636828996241093">
        <ele>744.20000000000005</ele>
        <time>2025-05-12T06:55:22Z</time>
      </trkpt>
      <trkpt lat="37.104028025642037" lon="-3.639006027951837">
        <ele>749.49000000000001</ele>
        <time>2025-05-12T06:55:33Z</time>
      </trkpt>
      <trkpt lat="37.101337015628815" lon="-3.641746994107962">
        <ele>747.55999999999995</ele>
        <time>2025-05-12T06:55:47Z</time>
      </trkpt>
      <trkpt lat="37.098465040326118" lon="-3.644647970795631">
        <ele>744.20000000000005</ele>
        <time>2025-05-12T06:56:02Z</time>
      </trkpt>
      <trkpt lat="37.096152976155281" lon="-3.646423006430268">
        <ele>749.49000000000001</ele>
        <time>2025-05-12T06:56:13Z</time>
      </trkpt>
      <trkpt lat="37.093642009422183" lon="-3.647696971893311">
        <ele>756.21000000000004</ele>
        <time>2025-05-12T06:56:24Z</time>
      </trkpt>
      <trkpt lat="37.090964997187257" lon="-3.648393005132675">
        <ele>762.46000000000004</ele>
        <time>2025-05-12T06:56:35Z</time>
      </trkpt>
      <trkpt lat="37.088245991617441" lon="-3.648509010672569">
        <ele>766.30999999999995</ele>
        <time>2025-05-12T06:56:46Z</time>
      </trkpt>
      <trkpt lat="37.084563989192247" lon="-3.648159988224506">
        <ele>773.03999999999996</ele>
        <time>2025-05-12T06:57:01Z</time>
      </trkpt>
      <trkpt lat="37.081115003675222" lon="-3.647983968257904">
        <ele>786.5</ele>
        <time>2025-05-12T06:57:15Z</time>
      </trkpt>
      <trkpt lat="37.077665012329817" lon="-3.648297032341361">
        <ele>799.47000000000003</ele>
        <time>2025-05-12T06:57:29Z</time>
      </trkpt>
      <trkpt lat="37.074022991582751" lon="-3.649084009230137">
        <ele>814.37</ele>
        <time>2025-05-12T06:57:44Z</time>
      </trkpt>
      <trkpt lat="37.071405993774533" lon="-3.650023033842444">
        <ele>825.42999999999995</ele>
        <time>2025-05-12T06:57:55Z</time>
      </trkpt>
      <trkpt lat="37.068561008200049" lon="-3.651244025677443">
        <ele>835.51999999999998</ele>
        <time>2025-05-12T06:58:07Z</time>
      </trkpt>
      <trkpt lat="37.066231006756425" lon="-3.652369966730475">
        <ele>842.25</ele>
        <time>2025-05-12T06:58:17Z</time>
      </trkpt>
      <trkpt lat="37.063465984538198" lon="-3.653719034045935">
        <ele>844.65999999999997</ele>
        <time>2025-05-12T06:58:29Z</time>
      </trkpt>
      <trkpt lat="37.060165023431182" lon="-3.655010014772415">
        <ele>838.40999999999997</ele>
        <time>2025-05-12T06:58:43Z</time>
      </trkpt>
      <trkpt lat="37.057460015639663" lon="-3.655549976974726">
        <ele>837.45000000000005</ele>
        <time>2025-05-12T06:58:54Z</time>
      </trkpt>
      <trkpt lat="37.054731035605073" lon="-3.655616026371718">
        <ele>835.51999999999998</ele>
        <time>2025-05-12T06:59:05Z</time>
      </trkpt>
      <trkpt lat="37.05204295925796" lon="-3.655130965635181">
        <ele>833.60000000000002</ele>
        <time>2025-05-12T06:59:16Z</time>
      </trkpt>
      <trkpt lat="37.049452029168606" lon="-3.654151037335396">
        <ele>832.63999999999999</ele>
        <time>2025-05-12T06:59:27Z</time>
      </trkpt>
      <trkpt lat="37.047223029658198" lon="-3.652847986668348">
        <ele>835.03999999999996</ele>
        <time>2025-05-12T06:59:37Z</time>
      </trkpt>
      <trkpt lat="37.044036984443665" lon="-3.650421006605029">
        <ele>837.45000000000005</ele>
        <time>2025-05-12T06:59:52Z</time>
      </trkpt>
      <trkpt lat="37.040815986692905" lon="-3.648110032081604">
        <ele>835.51999999999998</ele>
        <time>2025-05-12T07:00:07Z</time>
      </trkpt>
      <trkpt lat="37.038744986057281" lon="-3.647041004151106">
        <ele>838.40999999999997</ele>
        <time>2025-05-12T07:00:16Z</time>
      </trkpt>
      <trkpt lat="37.036299984902143" lon="-3.646236006170511">
        <ele>835.51999999999998</ele>
        <time>2025-05-12T07:00:25Z</time>
      </trkpt>
      <trkpt lat="37.033125003799796" lon="-3.645749017596245">
        <ele>825.90999999999997</ele>
        <time>2025-05-12T07:00:36Z</time>
      </trkpt>
      <trkpt lat="37.028966993093491" lon="-3.645617002621293">
        <ele>811.97000000000003</ele>
        <time>2025-05-12T07:00:50Z</time>
      </trkpt>
      <trkpt lat="37.025415999814868" lon="-3.645235039293766">
        <ele>804.27999999999997</ele>
        <time>2025-05-12T07:01:02Z</time>
      </trkpt>
      <trkpt lat="37.023161016404629" lon="-3.644319986924529">
        <ele>801.88</ele>
        <time>2025-05-12T07:01:10Z</time>
      </trkpt>
      <trkpt lat="37.020832020789385" lon="-3.642675038427115">
        <ele>803.79999999999995</ele>
        <time>2025-05-12T07:01:19Z</time>
      </trkpt>
      <trkpt lat="37.018526997417212" lon="-3.640934033319354">
        <ele>805.24000000000001</ele>
        <time>2025-05-12T07:01:28Z</time>
      </trkpt>
      <trkpt lat="37.016510982066393" lon="-3.640263983979821">
        <ele>806.67999999999995</ele>
        <time>2025-05-12T07:01:35Z</time>
      </trkpt>
      <trkpt lat="37.014427995309234" lon="-3.64026096649468">
        <ele>807.15999999999997</ele>
        <time>2025-05-12T07:01:42Z</time>
      </trkpt>
      <trkpt lat="37.012050971388817" lon="-3.640508987009525">
        <ele>807.15999999999997</ele>
        <time>2025-05-12T07:01:50Z</time>
      </trkpt>
      <trkpt lat="37.009688029065728" lon="-3.640205981209874">
        <ele>811.49000000000001</ele>
        <time>2025-05-12T07:01:58Z</time>
      </trkpt>
      <trkpt lat="37.007721969857812" lon="-3.639349015429616">
        <ele>820.13999999999999</ele>
        <time>2025-05-12T07:02:05Z</time>
      </trkpt>
      <trkpt lat="37.005936037749052" lon="-3.637975975871086">
        <ele>828.30999999999995</ele>
        <time>2025-05-12T07:02:12Z</time>
      </trkpt>
      <trkpt lat="37.004212969914079" lon="-3.635927019640803">
        <ele>835.51999999999998</ele>
        <time>2025-05-12T07:02:20Z</time>
      </trkpt>
      <trkpt lat="37.002107016742229" lon="-3.632871983572841">
        <ele>838.40999999999997</ele>
        <time>2025-05-12T07:02:31Z</time>
      </trkpt>
      <trkpt lat="37.000721991062164" lon="-3.631497016176581">
        <ele>838.88999999999999</ele>
        <time>2025-05-12T07:02:37Z</time>
      </trkpt>
      <trkpt lat="36.998302973806858" lon="-3.630091035738587">
        <ele>830.72000000000003</ele>
        <time>2025-05-12T07:02:46Z</time>
      </trkpt>
      <trkpt lat="36.995734004303813" lon="-3.629214959219098">
        <ele>818.22000000000003</ele>
        <time>2025-05-12T07:02:55Z</time>
      </trkpt>
      <trkpt lat="36.994142029434443" lon="-3.628227990120649">
        <ele>808.61000000000001</ele>
        <time>2025-05-12T07:03:01Z</time>
      </trkpt>
      <trkpt lat="36.992803020402789" lon="-3.626760989427567">
        <ele>798.50999999999999</ele>
        <time>2025-05-12T07:03:07Z</time>
      </trkpt>
      <trkpt lat="36.991679007187486" lon="-3.62459703348577">
        <ele>785.52999999999997</ele>
        <time>2025-05-12T07:03:14Z</time>
      </trkpt>
      <trkpt lat="36.991190006956458" lon="-3.622495019808412">
        <ele>774.48000000000002</ele>
        <time>2025-05-12T07:03:20Z</time>
      </trkpt>
      <trkpt lat="36.991106020286679" lon="-3.619912974536419">
        <ele>761.5</ele>
        <time>2025-05-12T07:03:27Z</time>
      </trkpt>
      <trkpt lat="36.990963025018573" lon="-3.616604972630739">
        <ele>746.60000000000002</ele>
        <time>2025-05-12T07:03:36Z</time>
      </trkpt>
      <trkpt lat="36.990405963733792" lon="-3.614132981747389">
        <ele>739.38999999999999</ele>
        <time>2025-05-12T07:03:43Z</time>
      </trkpt>
      <trkpt lat="36.989205004647374" lon="-3.610753985121846">
        <ele>740.35000000000002</ele>
        <time>2025-05-12T07:03:53Z</time>
      </trkpt>
      <trkpt lat="36.988362958654761" lon="-3.607613034546375">
        <ele>740.35000000000002</ele>
        <time>2025-05-12T07:04:02Z</time>
      </trkpt>
      <trkpt lat="36.987880999222398" lon="-3.603977970778942">
        <ele>738.42999999999995</ele>
        <time>2025-05-12T07:04:12Z</time>
      </trkpt>
      <trkpt lat="36.987738003954291" lon="-3.599522989243269">
        <ele>733.62</ele>
        <time>2025-05-12T07:04:24Z</time>
      </trkpt>
      <trkpt lat="36.98747799731791" lon="-3.594739018008113">
        <ele>727.37</ele>
        <time>2025-05-12T07:04:37Z</time>
      </trkpt>
      <trkpt lat="36.986926971003413" lon="-3.591893026605249">
        <ele>725.92999999999995</ele>
        <time>2025-05-12T07:04:45Z</time>
      </trkpt>
      <trkpt lat="36.985905971378088" lon="-3.588846037164331">
        <ele>724.49000000000001</ele>
        <time>2025-05-12T07:04:54Z</time>
      </trkpt>
      <trkpt lat="36.984368981793523" lon="-3.584454003721476">
        <ele>733.62</ele>
        <time>2025-05-12T07:05:07Z</time>
      </trkpt>
      <trkpt lat="36.982767032459378" lon="-3.580093989148736">
        <ele>744.20000000000005</ele>
        <time>2025-05-12T07:05:20Z</time>
      </trkpt>
      <trkpt lat="36.981850974261761" lon="-3.577396022155881">
        <ele>751.88999999999999</ele>
        <time>2025-05-12T07:05:28Z</time>
      </trkpt>
      <trkpt lat="36.980615984648466" lon="-3.57283802703023">
        <ele>761.01999999999998</ele>
        <time>2025-05-12T07:05:41Z</time>
      </trkpt>
      <trkpt lat="36.979518039152026" lon="-3.56828598305583">
        <ele>770.14999999999998</ele>
        <time>2025-05-12T07:05:54Z</time>
      </trkpt>
      <trkpt lat="36.978430990129709" lon="-3.565344018861651">
        <ele>781.21000000000004</ele>
        <time>2025-05-12T07:06:03Z</time>
      </trkpt>
      <trkpt lat="36.977043030783534" lon="-3.563059028238058">
        <ele>793.22000000000003</ele>
        <time>2025-05-12T07:06:11Z</time>
      </trkpt>
      <trkpt lat="36.975305965170264" lon="-3.56117301620543">
        <ele>806.67999999999995</ele>
        <time>2025-05-12T07:06:19Z</time>
      </trkpt>
      <trkpt lat="36.973310988396406" lon="-3.559743985533714">
        <ele>819.65999999999997</ele>
        <time>2025-05-12T07:06:27Z</time>
      </trkpt>
      <trkpt lat="36.970603968948126" lon="-3.558429032564163">
        <ele>828.78999999999996</ele>
        <time>2025-05-12T07:06:37Z</time>
      </trkpt>
      <trkpt lat="36.968191992491484" lon="-3.557408032938838">
        <ele>833.60000000000002</ele>
        <time>2025-05-12T07:06:46Z</time>
      </trkpt>
      <trkpt lat="36.965987971052527" lon="-3.556129960343242">
        <ele>833.12</ele>
        <time>2025-05-12T07:06:54Z</time>
      </trkpt>
      <trkpt lat="36.965752020478249" lon="-3.555907001718879">
        <ele>832.15999999999997</ele>
        <time>2025-05-12T07:06:55Z</time>
      </trkpt>
      <trkpt lat="36.964287031441927" lon="-3.554121991619468">
        <ele>828.30999999999995</ele>
        <time>2025-05-12T07:07:02Z</time>
      </trkpt>
      <trkpt lat="36.963210040703416" lon="-3.551905984058976">
        <ele>822.54999999999995</ele>
        <time>2025-05-12T07:07:09Z</time>
      </trkpt>
      <trkpt lat="36.961918976157904" lon="-3.549014981836081">
        <ele>810.52999999999997</ele>
        <time>2025-05-12T07:07:18Z</time>
      </trkpt>
      <trkpt lat="36.960673006251454" lon="-3.547510011121631">
        <ele>800.91999999999996</ele>
        <time>2025-05-12T07:07:24Z</time>
      </trkpt>
      <trkpt lat="36.959099974483252" lon="-3.546598982065916">
        <ele>790.34000000000003</ele>
        <time>2025-05-12T07:07:30Z</time>
      </trkpt>
      <trkpt lat="36.957360981032252" lon="-3.546453975141048">
        <ele>779.28999999999996</ele>
        <time>2025-05-12T07:07:36Z</time>
      </trkpt>
      <trkpt lat="36.955043971538544" lon="-3.546546008437872">
        <ele>764.87</ele>
        <time>2025-05-12T07:07:44Z</time>
      </trkpt>
      <trkpt lat="36.95335803553462" lon="-3.545959023758769">
        <ele>757.17999999999995</ele>
        <time>2025-05-12T07:07:50Z</time>
      </trkpt>
      <trkpt lat="36.951195001602173" lon="-3.544855965301395">
        <ele>748.03999999999996</ele>
        <time>2025-05-12T07:07:58Z</time>
      </trkpt>
      <trkpt lat="36.949448967352509" lon="-3.544582966715097">
        <ele>740.83000000000004</ele>
        <time>2025-05-12T07:08:04Z</time>
      </trkpt>
      <trkpt lat="36.947399005293846" lon="-3.54488898999989">
        <ele>728.82000000000005</ele>
        <time>2025-05-12T07:08:11Z</time>
      </trkpt>
      <trkpt lat="36.945483991876245" lon="-3.545817034319043">
        <ele>715.36000000000001</ele>
        <time>2025-05-12T07:08:18Z</time>
      </trkpt>
      <trkpt lat="36.942880991846323" lon="-3.547511016950011">
        <ele>696.61000000000001</ele>
        <time>2025-05-12T07:08:28Z</time>
      </trkpt>
      <trkpt lat="36.940200962126255" lon="-3.548939963802695">
        <ele>677.38999999999999</ele>
        <time>2025-05-12T07:08:38Z</time>
      </trkpt>
      <trkpt lat="36.938548972830176" lon="-3.549008024856448">
        <ele>666.80999999999995</ele>
        <time>2025-05-12T07:08:44Z</time>
      </trkpt>
      <trkpt lat="36.937130000442266" lon="-3.548448029905558">
        <ele>657.67999999999995</ele>
        <time>2025-05-12T07:08:50Z</time>
      </trkpt>
      <trkpt lat="36.93574002943933" lon="-3.547196025028825">
        <ele>647.10000000000002</ele>
        <time>2025-05-12T07:08:57Z</time>
      </trkpt>
      <trkpt lat="36.934871999546885" lon="-3.5457260068506">
        <ele>638.45000000000005</ele>
        <time>2025-05-12T07:09:03Z</time>
      </trkpt>
      <trkpt lat="36.934388028457761" lon="-3.544006962329149">
        <ele>628.36000000000001</ele>
        <time>2025-05-12T07:09:09Z</time>
      </trkpt>
      <trkpt lat="36.933843959122896" lon="-3.540693009272218">
        <ele>609.61000000000001</ele>
        <time>2025-05-12T07:09:20Z</time>
      </trkpt>
      <trkpt lat="36.933229984715581" lon="-3.53870096616447">
        <ele>598.55999999999995</ele>
        <time>2025-05-12T07:09:27Z</time>
      </trkpt>
      <trkpt lat="36.932233963161707" lon="-3.536999020725489">
        <ele>587.5</ele>
        <time>2025-05-12T07:09:34Z</time>
      </trkpt>
      <trkpt lat="36.930731004104018" lon="-3.535525985062122">
        <ele>574.52999999999997</ele>
        <time>2025-05-12T07:09:42Z</time>
      </trkpt>
      <trkpt lat="36.928997961804271" lon="-3.534707995131612">
        <ele>563.47000000000003</ele>
        <time>2025-05-12T07:09:50Z</time>
      </trkpt>
      <trkpt lat="36.927177999168634" lon="-3.534313039854169">
        <ele>557.22000000000003</ele>
        <time>2025-05-12T07:09:58Z</time>
      </trkpt>
      <trkpt lat="36.92590101622045" lon="-3.533888999372721">
        <ele>554.34000000000003</ele>
        <time>2025-05-12T07:10:05Z</time>
      </trkpt>
      <trkpt lat="36.92572801373899" lon="-3.533833008259535">
        <ele>553.86000000000001</ele>
        <time>2025-05-12T07:10:06Z</time>
      </trkpt>
      <trkpt lat="36.925565991550684" lon="-3.533812975510955">
        <ele>553.38</ele>
        <time>2025-05-12T07:10:07Z</time>
      </trkpt>
      <trkpt lat="36.925400029867887" lon="-3.5338019952178">
        <ele>552.89999999999998</ele>
        <time>2025-05-12T07:10:08Z</time>
      </trkpt>
      <trkpt lat="36.925237001851201" lon="-3.533814987167716">
        <ele>552.40999999999997</ele>
        <time>2025-05-12T07:10:09Z</time>
      </trkpt>
      <trkpt lat="36.925077997148037" lon="-3.533832002431154">
        <ele>551.45000000000005</ele>
        <time>2025-05-12T07:10:10Z</time>
      </trkpt>
      <trkpt lat="36.924617998301983" lon="-3.533885981887579">
        <ele>550.49000000000001</ele>
        <time>2025-05-12T07:10:13Z</time>
      </trkpt>
      <trkpt lat="36.924243997782469" lon="-3.533935016021133">
        <ele>549.52999999999997</ele>
        <time>2025-05-12T07:10:17Z</time>
      </trkpt>
      <trkpt lat="36.92418297752738" lon="-3.533969968557358">
        <ele>549.52999999999997</ele>
        <time>2025-05-12T07:10:18Z</time>
      </trkpt>
      <trkpt lat="36.924050040543079" lon="-3.534051021561027">
        <ele>549.52999999999997</ele>
        <time>2025-05-12T07:10:20Z</time>
      </trkpt>
      <trkpt lat="36.923955995589495" lon="-3.534044986590743">
        <ele>550.00999999999999</ele>
        <time>2025-05-12T07:10:21Z</time>
      </trkpt>
      <trkpt lat="36.923869997262955" lon="-3.534020008519292">
        <ele>550.00999999999999</ele>
        <time>2025-05-12T07:10:22Z</time>
      </trkpt>
      <trkpt lat="36.923805037513375" lon="-3.533967034891248">
        <ele>550.00999999999999</ele>
        <time>2025-05-12T07:10:23Z</time>
      </trkpt>
      <trkpt lat="36.923774024471641" lon="-3.533858992159367">
        <ele>550.00999999999999</ele>
        <time>2025-05-12T07:10:24Z</time>
      </trkpt>
      <trkpt lat="36.923764972016215" lon="-3.533764025196433">
        <ele>550.49000000000001</ele>
        <time>2025-05-12T07:10:25Z</time>
      </trkpt>
      <trkpt lat="36.923777963966131" lon="-3.533668974414468">
        <ele>550.49000000000001</ele>
        <time>2025-05-12T07:10:26Z</time>
      </trkpt>
      <trkpt lat="36.923831021413207" lon="-3.533590016886592">
        <ele>550.49000000000001</ele>
        <time>2025-05-12T07:10:27Z</time>
      </trkpt>
      <trkpt lat="36.923891035839915" lon="-3.533482979983091">
        <ele>550.49000000000001</ele>
        <time>2025-05-12T07:10:28Z</time>
      </trkpt>
      <trkpt lat="36.923935962840915" lon="-3.533360017463565">
        <ele>550.49000000000001</ele>
        <time>2025-05-12T07:10:29Z</time>
      </trkpt>
      <trkpt lat="36.923983991146088" lon="-3.533231019973755">
        <ele>550.49000000000001</ele>
        <time>2025-05-12T07:10:30Z</time>
      </trkpt>
      <trkpt lat="36.924023972824216" lon="-3.533090958371759">
        <ele>550.49000000000001</ele>
        <time>2025-05-12T07:10:31Z</time>
      </trkpt>
      <trkpt lat="36.924041993916035" lon="-3.532944023609161">
        <ele>550.49000000000001</ele>
        <time>2025-05-12T07:10:32Z</time>
      </trkpt>
      <trkpt lat="36.924059009179473" lon="-3.532794993370771">
        <ele>550.97000000000003</ele>
        <time>2025-05-12T07:10:33Z</time>
      </trkpt>
      <trkpt lat="36.924047023057938" lon="-3.532072976231575">
        <ele>553.38</ele>
        <time>2025-05-12T07:10:39Z</time>
      </trkpt>
      <trkpt lat="36.923951972275972" lon="-3.531685983762145">
        <ele>554.34000000000003</ele>
        <time>2025-05-12T07:10:41Z</time>
      </trkpt>
      <trkpt lat="36.923933029174805" lon="-3.53161096572876">
        <ele>554.82000000000005</ele>
        <time>2025-05-12T07:10:42Z</time>
      </trkpt>
      <trkpt lat="36.923965970054269" lon="-3.531369986012578">
        <ele>555.29999999999995</ele>
        <time>2025-05-12T07:10:43Z</time>
      </trkpt>
      <trkpt lat="36.923908973112702" lon="-3.531243000179529">
        <ele>555.77999999999997</ele>
        <time>2025-05-12T07:10:44Z</time>
      </trkpt>
      <trkpt lat="36.923835966736078" lon="-3.531102016568184">
        <ele>555.77999999999997</ele>
        <time>2025-05-12T07:10:45Z</time>
      </trkpt>
      <trkpt lat="36.923756003379822" lon="-3.530952986329794">
        <ele>556.25999999999999</ele>
        <time>2025-05-12T07:10:46Z</time>
      </trkpt>
      <trkpt lat="36.923070028424263" lon="-3.529520016163588">
        <ele>556.25999999999999</ele>
        <time>2025-05-12T07:10:54Z</time>
      </trkpt>
      <trkpt lat="36.92256803624332" lon="-3.527928963303566">
        <ele>554.82000000000005</ele>
        <time>2025-05-12T07:11:02Z</time>
      </trkpt>
      <trkpt lat="36.922013992443681" lon="-3.525566020980477">
        <ele>556.74000000000001</ele>
        <time>2025-05-12T07:11:13Z</time>
      </trkpt>
      <trkpt lat="36.921769995242357" lon="-3.524727998301387">
        <ele>558.17999999999995</ele>
        <time>2025-05-12T07:11:17Z</time>
      </trkpt>
      <trkpt lat="36.921685002744198" lon="-3.524549966678023">
        <ele>558.17999999999995</ele>
        <time>2025-05-12T07:11:18Z</time>
      </trkpt>
      <trkpt lat="36.921594981104136" lon="-3.524358021095395">
        <ele>558.17999999999995</ele>
        <time>2025-05-12T07:11:19Z</time>
      </trkpt>
      <trkpt lat="36.921475036069751" lon="-3.524208990857005">
        <ele>558.17999999999995</ele>
        <time>2025-05-12T07:11:20Z</time>
      </trkpt>
      <trkpt lat="36.92132500000298" lon="-3.524070018902421">
        <ele>558.17999999999995</ele>
        <time>2025-05-12T07:11:21Z</time>
      </trkpt>
      <trkpt lat="36.920885033905506" lon="-3.523734994232655">
        <ele>559.13999999999999</ele>
        <time>2025-05-12T07:11:24Z</time>
      </trkpt>
      <trkpt lat="36.920768022537231" lon="-3.523602979257703">
        <ele>559.62</ele>
        <time>2025-05-12T07:11:25Z</time>
      </trkpt>
      <trkpt lat="36.920667020604014" lon="-3.523460989817977">
        <ele>560.11000000000001</ele>
        <time>2025-05-12T07:11:26Z</time>
      </trkpt>
      <trkpt lat="36.920542968437076" lon="-3.523284969851375">
        <ele>560.11000000000001</ele>
        <time>2025-05-12T07:11:27Z</time>
      </trkpt>
      <trkpt lat="36.920489994809031" lon="-3.523153038695455">
        <ele>560.11000000000001</ele>
        <time>2025-05-12T07:11:28Z</time>
      </trkpt>
      <trkpt lat="36.920430986210704" lon="-3.522978024557233">
        <ele>560.59000000000003</ele>
        <time>2025-05-12T07:11:29Z</time>
      </trkpt>
      <trkpt lat="36.920406008139253" lon="-3.522796975448728">
        <ele>560.59000000000003</ele>
        <time>2025-05-12T07:11:30Z</time>
      </trkpt>
      <trkpt lat="36.920394022017717" lon="-3.522619027644396">
        <ele>560.59000000000003</ele>
        <time>2025-05-12T07:11:31Z</time>
      </trkpt>
      <trkpt lat="36.920381030067801" lon="-3.522438984364271">
        <ele>560.59000000000003</ele>
        <time>2025-05-12T07:11:32Z</time>
      </trkpt>
      <trkpt lat="36.920370971783996" lon="-3.522298000752926">
        <ele>561.07000000000005</ele>
        <time>2025-05-12T07:11:33Z</time>
      </trkpt>
      <trkpt lat="36.920313974842429" lon="-3.522115023806691">
        <ele>561.54999999999995</ele>
        <time>2025-05-12T07:11:34Z</time>
      </trkpt>
      <trkpt lat="36.920266030356288" lon="-3.521961970254779">
        <ele>562.02999999999997</ele>
        <time>2025-05-12T07:11:35Z</time>
      </trkpt>
      <trkpt lat="36.920184977352619" lon="-3.521858034655452">
        <ele>562.50999999999999</ele>
        <time>2025-05-12T07:11:36Z</time>
      </trkpt>
      <trkpt lat="36.920082969591022" lon="-3.521732976660132">
        <ele>563.47000000000003</ele>
        <time>2025-05-12T07:11:37Z</time>
      </trkpt>
      <trkpt lat="36.919977022334933" lon="-3.521602973341942">
        <ele>563.47000000000003</ele>
        <time>2025-05-12T07:11:38Z</time>
      </trkpt>
      <trkpt lat="36.919850958511233" lon="-3.521482022479177">
        <ele>563.95000000000005</ele>
        <time>2025-05-12T07:11:39Z</time>
      </trkpt>
      <trkpt lat="36.91902500577271" lon="-3.520496981218457">
        <ele>565.87</ele>
        <time>2025-05-12T07:11:46Z</time>
      </trkpt>
      <trkpt lat="36.918978989124298" lon="-3.520341999828816">
        <ele>565.87</ele>
        <time>2025-05-12T07:11:47Z</time>
      </trkpt>
      <trkpt lat="36.918950993567705" lon="-3.52017997764051">
        <ele>566.35000000000002</ele>
        <time>2025-05-12T07:11:48Z</time>
      </trkpt>
      <trkpt lat="36.918921992182732" lon="-3.520013010129333">
        <ele>566.35000000000002</ele>
        <time>2025-05-12T07:11:49Z</time>
      </trkpt>
      <trkpt lat="36.918929032981396" lon="-3.519840007647872">
        <ele>566.35000000000002</ele>
        <time>2025-05-12T07:11:50Z</time>
      </trkpt>
      <trkpt lat="36.918955016881227" lon="-3.519662981852889">
        <ele>566.35000000000002</ele>
        <time>2025-05-12T07:11:51Z</time>
      </trkpt>
      <trkpt lat="36.918979994952679" lon="-3.519486961886287">
        <ele>565.87</ele>
        <time>2025-05-12T07:11:52Z</time>
      </trkpt>
      <trkpt lat="36.919008996337652" lon="-3.519314965233207">
        <ele>565.38999999999999</ele>
        <time>2025-05-12T07:11:53Z</time>
      </trkpt>
      <trkpt lat="36.9190479721874" lon="-3.519150009378791">
        <ele>565.38999999999999</ele>
        <time>2025-05-12T07:11:54Z</time>
      </trkpt>
      <trkpt lat="36.919085020199418" lon="-3.51899603381753">
        <ele>565.38999999999999</ele>
        <time>2025-05-12T07:11:55Z</time>
      </trkpt>
      <trkpt lat="36.919117961078882" lon="-3.518858989700675">
        <ele>565.38999999999999</ele>
        <time>2025-05-12T07:11:56Z</time>
      </trkpt>
      <trkpt lat="36.919102035462856" lon="-3.518767040222883">
        <ele>565.38999999999999</ele>
        <time>2025-05-12T07:11:57Z</time>
      </trkpt>
      <trkpt lat="36.919062975794077" lon="-3.518678024411202">
        <ele>564.90999999999997</ele>
        <time>2025-05-12T07:11:58Z</time>
      </trkpt>
      <trkpt lat="36.918988041579723" lon="-3.518628990277648">
        <ele>565.38999999999999</ele>
        <time>2025-05-12T07:11:59Z</time>
      </trkpt>
      <trkpt lat="36.918890979140997" lon="-3.518628990277648">
        <ele>565.87</ele>
        <time>2025-05-12T07:12:00Z</time>
      </trkpt>
      <trkpt lat="36.91883398219943" lon="-3.518681963905692">
        <ele>565.87</ele>
        <time>2025-05-12T07:12:01Z</time>
      </trkpt>
      <trkpt lat="36.91879098303616" lon="-3.518721023574472">
        <ele>566.35000000000002</ele>
        <time>2025-05-12T07:12:02Z</time>
      </trkpt>
      <trkpt lat="36.918756030499935" lon="-3.518752958625555">
        <ele>566.35000000000002</ele>
        <time>2025-05-12T07:12:03Z</time>
      </trkpt>
      <trkpt lat="36.918717976659536" lon="-3.518787994980812">
        <ele>568.27999999999997</ele>
        <time>2025-05-12T07:12:10Z</time>
      </trkpt>
      <trkpt lat="36.918717976659536" lon="-3.518787994980812">
        <ele>568.27999999999997</ele>
        <time>2025-05-12T07:12:50Z</time>
      </trkpt>
      <trkpt lat="36.918717976659536" lon="-3.518787994980812">
        <ele>568.75999999999999</ele>
        <time>2025-05-12T07:13:32Z</time>
      </trkpt>
      <trkpt lat="36.918710013851523" lon="-3.518796041607857">
        <ele>570.20000000000005</ele>
        <time>2025-05-12T07:14:07Z</time>
      </trkpt>
      <trkpt lat="36.91866097971797" lon="-3.518840968608856">
        <ele>573.08000000000004</ele>
        <time>2025-05-12T07:14:09Z</time>
      </trkpt>
      <trkpt lat="36.918615968897939" lon="-3.518882039934397">
        <ele>574.03999999999996</ele>
        <time>2025-05-12T07:14:10Z</time>
      </trkpt>
      <trkpt lat="36.918557966127992" lon="-3.518936019390822">
        <ele>575.00999999999999</ele>
        <time>2025-05-12T07:14:11Z</time>
      </trkpt>
      <trkpt lat="36.91825202666223" lon="-3.519179010763764">
        <ele>575.49000000000001</ele>
        <time>2025-05-12T07:14:15Z</time>
      </trkpt>
      <trkpt lat="36.918157981708646" lon="-3.519228966906667">
        <ele>575.97000000000003</ele>
        <time>2025-05-12T07:14:16Z</time>
      </trkpt>
      <trkpt lat="36.918064020574093" lon="-3.519201977178454">
        <ele>575.97000000000003</ele>
        <time>2025-05-12T07:14:17Z</time>
      </trkpt>
      <trkpt lat="36.917968969792128" lon="-3.519121007993817">
        <ele>576.45000000000005</ele>
        <time>2025-05-12T07:14:18Z</time>
      </trkpt>
      <trkpt lat="36.917896969243884" lon="-3.519008019939065">
        <ele>575.97000000000003</ele>
        <time>2025-05-12T07:14:19Z</time>
      </trkpt>
      <trkpt lat="36.917817005887628" lon="-3.518878016620874">
        <ele>575.97000000000003</ele>
        <time>2025-05-12T07:14:20Z</time>
      </trkpt>
      <trkpt lat="36.917732013389468" lon="-3.518747007474303">
        <ele>575.97000000000003</ele>
        <time>2025-05-12T07:14:21Z</time>
      </trkpt>
      <trkpt lat="36.917556999251246" lon="-3.518291031941772">
        <ele>575.97000000000003</ele>
        <time>2025-05-12T07:14:24Z</time>
      </trkpt>
      <trkpt lat="36.917549036443233" lon="-3.518133033066988">
        <ele>575.97000000000003</ele>
        <time>2025-05-12T07:14:25Z</time>
      </trkpt>
      <trkpt lat="36.917538978159428" lon="-3.517965981736779">
        <ele>575.97000000000003</ele>
        <time>2025-05-12T07:14:26Z</time>
      </trkpt>
      <trkpt lat="36.917566973716021" lon="-3.517811000347138">
        <ele>575.49000000000001</ele>
        <time>2025-05-12T07:14:27Z</time>
      </trkpt>
      <trkpt lat="36.917607961222529" lon="-3.517685020342469">
        <ele>575.49000000000001</ele>
        <time>2025-05-12T07:14:28Z</time>
      </trkpt>
      <trkpt lat="36.917673004791141" lon="-3.517575971782208">
        <ele>575.97000000000003</ele>
        <time>2025-05-12T07:14:29Z</time>
      </trkpt>
      <trkpt lat="36.917755985632539" lon="-3.517478993162513">
        <ele>575.97000000000003</ele>
        <time>2025-05-12T07:14:30Z</time>
      </trkpt>
      <trkpt lat="36.917872997000813" lon="-3.51738897152245">
        <ele>575.97000000000003</ele>
        <time>2025-05-12T07:14:31Z</time>
      </trkpt>
      <trkpt lat="36.917997971177101" lon="-3.517294004559517">
        <ele>575.49000000000001</ele>
        <time>2025-05-12T07:14:32Z</time>
      </trkpt>
      <trkpt lat="36.918124035000801" lon="-3.517189985141158">
        <ele>575.00999999999999</ele>
        <time>2025-05-12T07:14:33Z</time>
      </trkpt>
      <trkpt lat="36.918243980035186" lon="-3.517081020399928">
        <ele>575.00999999999999</ele>
        <time>2025-05-12T07:14:34Z</time>
      </trkpt>
      <trkpt lat="36.918344981968403" lon="-3.516940036788583">
        <ele>574.52999999999997</ele>
        <time>2025-05-12T07:14:35Z</time>
      </trkpt>
      <trkpt lat="36.918407008051872" lon="-3.516792012378573">
        <ele>574.03999999999996</ele>
        <time>2025-05-12T07:14:36Z</time>
      </trkpt>
      <trkpt lat="36.918426034972072" lon="-3.516624961048365">
        <ele>574.03999999999996</ele>
        <time>2025-05-12T07:14:37Z</time>
      </trkpt>
      <trkpt lat="36.918436009436846" lon="-3.516445001587272">
        <ele>574.03999999999996</ele>
        <time>2025-05-12T07:14:38Z</time>
      </trkpt>
      <trkpt lat="36.918409019708633" lon="-3.516258001327515">
        <ele>574.52999999999997</ele>
        <time>2025-05-12T07:14:39Z</time>
      </trkpt>
      <trkpt lat="36.918357973918319" lon="-3.516063960269094">
        <ele>574.52999999999997</ele>
        <time>2025-05-12T07:14:40Z</time>
      </trkpt>
      <trkpt lat="36.918284967541695" lon="-3.515879977494478">
        <ele>575.49000000000001</ele>
        <time>2025-05-12T07:14:41Z</time>
      </trkpt>
      <trkpt lat="36.918188994750381" lon="-3.515700018033385">
        <ele>576.45000000000005</ele>
        <time>2025-05-12T07:14:42Z</time>
      </trkpt>
      <trkpt lat="36.918093021959066" lon="-3.515519974753261">
        <ele>577.40999999999997</ele>
        <time>2025-05-12T07:14:43Z</time>
      </trkpt>
      <trkpt lat="36.917920019477606" lon="-3.515196014195681">
        <ele>580.28999999999996</ele>
        <time>2025-05-12T07:14:45Z</time>
      </trkpt>
      <trkpt lat="36.917838966473937" lon="-3.51504597812891">
        <ele>581.73000000000002</ele>
        <time>2025-05-12T07:14:46Z</time>
      </trkpt>
      <trkpt lat="36.917752968147397" lon="-3.514987975358963">
        <ele>582.70000000000005</ele>
        <time>2025-05-12T07:14:47Z</time>
      </trkpt>
      <trkpt lat="36.917656995356083" lon="-3.514971965923905">
        <ele>584.13999999999999</ele>
        <time>2025-05-12T07:14:48Z</time>
      </trkpt>
      <trkpt lat="36.917560016736388" lon="-3.514993004500866">
        <ele>585.10000000000002</ele>
        <time>2025-05-12T07:14:49Z</time>
      </trkpt>
      <trkpt lat="36.917487010359764" lon="-3.515056036412716">
        <ele>586.05999999999995</ele>
        <time>2025-05-12T07:14:50Z</time>
      </trkpt>
      <trkpt lat="36.917432025074959" lon="-3.515153015032411">
        <ele>587.5</ele>
        <time>2025-05-12T07:14:51Z</time>
      </trkpt>
      <trkpt lat="36.917409980669618" lon="-3.515278995037079">
        <ele>588.46000000000004</ele>
        <time>2025-05-12T07:14:52Z</time>
      </trkpt>
      <trkpt lat="36.917383996769786" lon="-3.51543003693223">
        <ele>589.42999999999995</ele>
        <time>2025-05-12T07:14:53Z</time>
      </trkpt>
      <trkpt lat="36.917356001213193" lon="-3.515590969473124">
        <ele>590.38999999999999</ele>
        <time>2025-05-12T07:14:54Z</time>
      </trkpt>
      <trkpt lat="36.917323982343078" lon="-3.515775036066771">
        <ele>591.35000000000002</ele>
        <time>2025-05-12T07:14:55Z</time>
      </trkpt>
      <trkpt lat="36.917253993451595" lon="-3.51586002856493">
        <ele>592.30999999999995</ele>
        <time>2025-05-12T07:14:56Z</time>
      </trkpt>
      <trkpt lat="36.917151985689998" lon="-3.515919959172607">
        <ele>593.26999999999998</ele>
        <time>2025-05-12T07:14:57Z</time>
      </trkpt>
      <trkpt lat="36.917047966271639" lon="-3.515905039384961">
        <ele>594.23000000000002</ele>
        <time>2025-05-12T07:14:58Z</time>
      </trkpt>
      <trkpt lat="36.916970014572144" lon="-3.515828009694815">
        <ele>595.19000000000005</ele>
        <time>2025-05-12T07:14:59Z</time>
      </trkpt>
      <trkpt lat="36.916916035115719" lon="-3.515718961134553">
        <ele>596.14999999999998</ele>
        <time>2025-05-12T07:15:00Z</time>
      </trkpt>
      <trkpt lat="36.916875969618559" lon="-3.515576971694827">
        <ele>597.60000000000002</ele>
        <time>2025-05-12T07:15:01Z</time>
      </trkpt>
      <trkpt lat="36.916833976283669" lon="-3.515425007790327">
        <ele>598.55999999999995</ele>
        <time>2025-05-12T07:15:02Z</time>
      </trkpt>
      <trkpt lat="36.916792988777161" lon="-3.515282012522221">
        <ele>599.51999999999998</ele>
        <time>2025-05-12T07:15:03Z</time>
      </trkpt>
      <trkpt lat="36.916759964078665" lon="-3.515162989497185">
        <ele>600.48000000000002</ele>
        <time>2025-05-12T07:15:04Z</time>
      </trkpt>
      <trkpt lat="36.916695004329085" lon="-3.515094006434083">
        <ele>601.44000000000005</ele>
        <time>2025-05-12T07:15:05Z</time>
      </trkpt>
      <trkpt lat="36.916615962982178" lon="-3.515067016705871">
        <ele>602.39999999999998</ele>
        <time>2025-05-12T07:15:06Z</time>
      </trkpt>
      <trkpt lat="36.916518984362483" lon="-3.515103980898857">
        <ele>602.88</ele>
        <time>2025-05-12T07:15:07Z</time>
      </trkpt>
      <trkpt lat="36.916422005742788" lon="-3.515181010589004">
        <ele>603.36000000000001</ele>
        <time>2025-05-12T07:15:08Z</time>
      </trkpt>
      <trkpt lat="36.916359979659319" lon="-3.515313025563955">
        <ele>603.85000000000002</ele>
        <time>2025-05-12T07:15:09Z</time>
      </trkpt>
      <trkpt lat="36.916290996596217" lon="-3.515468006953597">
        <ele>604.33000000000004</ele>
        <time>2025-05-12T07:15:10Z</time>
      </trkpt>
      <trkpt lat="36.91612302325666" lon="-3.516148030757904">
        <ele>606.73000000000002</ele>
        <time>2025-05-12T07:15:14Z</time>
      </trkpt>
      <trkpt lat="36.916051022708416" lon="-3.516249032691121">
        <ele>607.21000000000004</ele>
        <time>2025-05-12T07:15:15Z</time>
      </trkpt>
      <trkpt lat="36.915959995239973" lon="-3.516299994662404">
        <ele>608.16999999999996</ele>
        <time>2025-05-12T07:15:16Z</time>
      </trkpt>
      <trkpt lat="36.915863016620278" lon="-3.516278034076095">
        <ele>608.64999999999998</ele>
        <time>2025-05-12T07:15:17Z</time>
      </trkpt>
      <trkpt lat="36.915800990536809" lon="-3.51624702103436">
        <ele>609.61000000000001</ele>
        <time>2025-05-12T07:15:18Z</time>
      </trkpt>
      <trkpt lat="36.915713986381888" lon="-3.51609799079597">
        <ele>610.09000000000003</ele>
        <time>2025-05-12T07:15:19Z</time>
      </trkpt>
      <trkpt lat="36.91565103828907" lon="-3.515990031883121">
        <ele>611.05999999999995</ele>
        <time>2025-05-12T07:15:20Z</time>
      </trkpt>
      <trkpt lat="36.91565103828907" lon="-3.515879977494478">
        <ele>612.01999999999998</ele>
        <time>2025-05-12T07:15:21Z</time>
      </trkpt>
      <trkpt lat="36.915686996653676" lon="-3.515756009146571">
        <ele>612.98000000000002</ele>
        <time>2025-05-12T07:15:22Z</time>
      </trkpt>
      <trkpt lat="36.91573997028172" lon="-3.51560203358531">
        <ele>613.46000000000004</ele>
        <time>2025-05-12T07:15:23Z</time>
      </trkpt>
      <trkpt lat="36.915793027728796" lon="-3.515447974205017">
        <ele>613.94000000000005</ele>
        <time>2025-05-12T07:15:24Z</time>
      </trkpt>
      <trkpt lat="36.915840972214937" lon="-3.515307996422052">
        <ele>614.41999999999996</ele>
        <time>2025-05-12T07:15:25Z</time>
      </trkpt>
      <trkpt lat="36.915886988863349" lon="-3.51517396979034">
        <ele>614.89999999999998</ele>
        <time>2025-05-12T07:15:26Z</time>
      </trkpt>
      <trkpt lat="36.915878020226955" lon="-3.515025023370981">
        <ele>615.38</ele>
        <time>2025-05-12T07:15:27Z</time>
      </trkpt>
      <trkpt lat="36.915838038548827" lon="-3.51470097899437">
        <ele>617.29999999999995</ele>
        <time>2025-05-12T07:15:29Z</time>
      </trkpt>
      <trkpt lat="36.915800990536809" lon="-3.514552032575011">
        <ele>618.75</ele>
        <time>2025-05-12T07:15:30Z</time>
      </trkpt>
      <trkpt lat="36.915711974725127" lon="-3.514427980408073">
        <ele>620.19000000000005</ele>
        <time>2025-05-12T07:15:31Z</time>
      </trkpt>
      <trkpt lat="36.915611978620291" lon="-3.514354974031448">
        <ele>621.14999999999998</ele>
        <time>2025-05-12T07:15:32Z</time>
      </trkpt>
      <trkpt lat="36.915490021929145" lon="-3.514324966818094">
        <ele>622.11000000000001</ele>
        <time>2025-05-12T07:15:33Z</time>
      </trkpt>
      <trkpt lat="36.915349960327148" lon="-3.514348017051816">
        <ele>623.54999999999995</ele>
        <time>2025-05-12T07:15:34Z</time>
      </trkpt>
      <trkpt lat="36.91520000807941" lon="-3.514372995123267">
        <ele>624.02999999999997</ele>
        <time>2025-05-12T07:15:35Z</time>
      </trkpt>
      <trkpt lat="36.915037985891104" lon="-3.514405013993383">
        <ele>624.99000000000001</ele>
        <time>2025-05-12T07:15:36Z</time>
      </trkpt>
      <trkpt lat="36.914864983409643" lon="-3.514441978186369">
        <ele>625.47000000000003</ele>
        <time>2025-05-12T07:15:37Z</time>
      </trkpt>
      <trkpt lat="36.914377994835377" lon="-3.514543985947967">
        <ele>628.36000000000001</ele>
        <time>2025-05-12T07:15:40Z</time>
      </trkpt>
      <trkpt lat="36.914231982082129" lon="-3.51457298733294">
        <ele>629.79999999999995</ele>
        <time>2025-05-12T07:15:41Z</time>
      </trkpt>
      <trkpt lat="36.914088986814022" lon="-3.514527976512909">
        <ele>630.75999999999999</ele>
        <time>2025-05-12T07:15:42Z</time>
      </trkpt>
      <trkpt lat="36.91382403485477" lon="-3.514398979023099">
        <ele>632.67999999999995</ele>
        <time>2025-05-12T07:15:44Z</time>
      </trkpt>
      <trkpt lat="36.913721021264791" lon="-3.514295965433121">
        <ele>634.13</ele>
        <time>2025-05-12T07:15:45Z</time>
      </trkpt>
      <trkpt lat="36.91363200545311" lon="-3.514165040105581">
        <ele>635.57000000000005</ele>
        <time>2025-05-12T07:15:46Z</time>
      </trkpt>
      <trkpt lat="36.913462020456791" lon="-3.513887012377381">
        <ele>637.97000000000003</ele>
        <time>2025-05-12T07:15:48Z</time>
      </trkpt>
      <trkpt lat="36.913447016850114" lon="-3.513721972703934">
        <ele>639.40999999999997</ele>
        <time>2025-05-12T07:15:49Z</time>
      </trkpt>
      <trkpt lat="36.91344098187983" lon="-3.513650977984071">
        <ele>640.86000000000001</ele>
        <time>2025-05-12T07:15:50Z</time>
      </trkpt>
      <trkpt lat="36.913510970771313" lon="-3.513570008799434">
        <ele>642.29999999999995</ele>
        <time>2025-05-12T07:15:51Z</time>
      </trkpt>
      <trkpt lat="36.913575008511543" lon="-3.51349800825119">
        <ele>643.25999999999999</ele>
        <time>2025-05-12T07:15:52Z</time>
      </trkpt>
      <trkpt lat="36.913651032373309" lon="-3.513438999652863">
        <ele>644.70000000000005</ele>
        <time>2025-05-12T07:15:53Z</time>
      </trkpt>
      <trkpt lat="36.913757985457778" lon="-3.513365993276238">
        <ele>645.65999999999997</ele>
        <time>2025-05-12T07:15:54Z</time>
      </trkpt>
      <trkpt lat="36.913876002654433" lon="-3.513286029919982">
        <ele>646.62</ele>
        <time>2025-05-12T07:15:55Z</time>
      </trkpt>
      <trkpt lat="36.914112959057093" lon="-3.513125013560057">
        <ele>648.07000000000005</ele>
        <time>2025-05-12T07:15:57Z</time>
      </trkpt>
      <trkpt lat="36.91419099457562" lon="-3.513002973049879">
        <ele>649.02999999999997</ele>
        <time>2025-05-12T07:15:58Z</time>
      </trkpt>
      <trkpt lat="36.914227036759257" lon="-3.512877998873591">
        <ele>649.99000000000001</ele>
        <time>2025-05-12T07:15:59Z</time>
      </trkpt>
      <trkpt lat="36.914200969040394" lon="-3.512768028303981">
        <ele>650.47000000000003</ele>
        <time>2025-05-12T07:16:00Z</time>
      </trkpt>
      <trkpt lat="36.91414900124073" lon="-3.512664008885622">
        <ele>651.42999999999995</ele>
        <time>2025-05-12T07:16:01Z</time>
      </trkpt>
      <trkpt lat="36.914053028449416" lon="-3.512600976973772">
        <ele>651.90999999999997</ele>
        <time>2025-05-12T07:16:02Z</time>
      </trkpt>
      <trkpt lat="36.913939034566283" lon="-3.512527970597148">
        <ele>652.38999999999999</ele>
        <time>2025-05-12T07:16:03Z</time>
      </trkpt>
      <trkpt lat="36.913720015436411" lon="-3.512384975329042">
        <ele>653.83000000000004</ele>
        <time>2025-05-12T07:16:05Z</time>
      </trkpt>
      <trkpt lat="36.913670981302857" lon="-3.512286990880966">
        <ele>654.30999999999995</ele>
        <time>2025-05-12T07:16:06Z</time>
      </trkpt>
      <trkpt lat="36.913664024323225" lon="-3.512206021696329">
        <ele>654.79999999999995</ele>
        <time>2025-05-12T07:16:07Z</time>
      </trkpt>
      <trkpt lat="36.913680033758283" lon="-3.51212396286428">
        <ele>655.27999999999997</ele>
        <time>2025-05-12T07:16:08Z</time>
      </trkpt>
      <trkpt lat="36.913758991286159" lon="-3.512054979801178">
        <ele>655.27999999999997</ele>
        <time>2025-05-12T07:16:09Z</time>
      </trkpt>
      <trkpt lat="36.913853958249092" lon="-3.511969987303019">
        <ele>655.27999999999997</ele>
        <time>2025-05-12T07:16:10Z</time>
      </trkpt>
      <trkpt lat="36.914446977898479" lon="-3.511442011222243">
        <ele>656.24000000000001</ele>
        <time>2025-05-12T07:16:15Z</time>
      </trkpt>
      <trkpt lat="36.914589973166585" lon="-3.511434970423579">
        <ele>656.24000000000001</ele>
        <time>2025-05-12T07:16:16Z</time>
      </trkpt>
      <trkpt lat="36.914737997576594" lon="-3.511428013443947">
        <ele>656.24000000000001</ele>
        <time>2025-05-12T07:16:17Z</time>
      </trkpt>
      <trkpt lat="36.915848013013601" lon="-3.511563967913389">
        <ele>655.75999999999999</ele>
        <time>2025-05-12T07:16:24Z</time>
      </trkpt>
      <trkpt lat="36.916015986353159" lon="-3.511591041460633">
        <ele>655.27999999999997</ele>
        <time>2025-05-12T07:16:25Z</time>
      </trkpt>
      <trkpt lat="36.916154036298394" lon="-3.5115219745785">
        <ele>654.79999999999995</ele>
        <time>2025-05-12T07:16:26Z</time>
      </trkpt>
      <trkpt lat="36.916754012927413" lon="-3.51122198626399">
        <ele>653.35000000000002</ele>
        <time>2025-05-12T07:16:30Z</time>
      </trkpt>
      <trkpt lat="36.916861971840262" lon="-3.511099023744464">
        <ele>652.87</ele>
        <time>2025-05-12T07:16:31Z</time>
      </trkpt>
      <trkpt lat="36.916934978216887" lon="-3.510958962142468">
        <ele>652.38999999999999</ele>
        <time>2025-05-12T07:16:32Z</time>
      </trkpt>
      <trkpt lat="36.916923997923732" lon="-3.510832982137799">
        <ele>651.90999999999997</ele>
        <time>2025-05-12T07:16:33Z</time>
      </trkpt>
      <trkpt lat="36.916894996538758" lon="-3.510699961334467">
        <ele>651.90999999999997</ele>
        <time>2025-05-12T07:16:34Z</time>
      </trkpt>
      <trkpt lat="36.916841017082334" lon="-3.510565012693405">
        <ele>651.42999999999995</ele>
        <time>2025-05-12T07:16:35Z</time>
      </trkpt>
      <trkpt lat="36.916772034019232" lon="-3.510421011596918">
        <ele>651.42999999999995</ele>
        <time>2025-05-12T07:16:36Z</time>
      </trkpt>
      <trkpt lat="36.916548991575837" lon="-3.509925976395607">
        <ele>653.35000000000002</ele>
        <time>2025-05-12T07:16:39Z</time>
      </trkpt>
      <trkpt lat="36.916504986584187" lon="-3.509751968085766">
        <ele>654.30999999999995</ele>
        <time>2025-05-12T07:16:40Z</time>
      </trkpt>
      <trkpt lat="36.916501969099045" lon="-3.50956697948277">
        <ele>654.79999999999995</ele>
        <time>2025-05-12T07:16:41Z</time>
      </trkpt>
      <trkpt lat="36.916526025161147" lon="-3.509364975616336">
        <ele>655.75999999999999</ele>
        <time>2025-05-12T07:16:42Z</time>
      </trkpt>
      <trkpt lat="36.916552009060979" lon="-3.509152997285128">
        <ele>656.24000000000001</ele>
        <time>2025-05-12T07:16:43Z</time>
      </trkpt>
      <trkpt lat="36.916830958798528" lon="-3.506655022501946">
        <ele>666.80999999999995</ele>
        <time>2025-05-12T07:16:54Z</time>
      </trkpt>
      <trkpt lat="36.916829030960798" lon="-3.506426028907299">
        <ele>667.28999999999996</ele>
        <time>2025-05-12T07:16:55Z</time>
      </trkpt>
      <trkpt lat="36.916790977120399" lon="-3.506202986463904">
        <ele>667.28999999999996</ele>
        <time>2025-05-12T07:16:56Z</time>
      </trkpt>
      <trkpt lat="36.916710007935762" lon="-3.506001988425851">
        <ele>667.76999999999998</ele>
        <time>2025-05-12T07:16:57Z</time>
      </trkpt>
      <trkpt lat="36.916616968810558" lon="-3.505787998437882">
        <ele>668.25</ele>
        <time>2025-05-12T07:16:58Z</time>
      </trkpt>
      <trkpt lat="36.916523007676005" lon="-3.505568979308009">
        <ele>668.25</ele>
        <time>2025-05-12T07:16:59Z</time>
      </trkpt>
      <trkpt lat="36.915898974984884" lon="-3.503737030550838">
        <ele>670.17999999999995</ele>
        <time>2025-05-12T07:17:07Z</time>
      </trkpt>
      <trkpt lat="36.915483986958861" lon="-3.502284027636051">
        <ele>673.05999999999995</ele>
        <time>2025-05-12T07:17:14Z</time>
      </trkpt>
      <trkpt lat="36.915323976427317" lon="-3.501696037128568">
        <ele>674.98000000000002</ele>
        <time>2025-05-12T07:17:18Z</time>
      </trkpt>
      <trkpt lat="36.915258010849357" lon="-3.501621019095182">
        <ele>675.46000000000004</ele>
        <time>2025-05-12T07:17:19Z</time>
      </trkpt>
      <trkpt lat="36.915170000866055" lon="-3.501595035195351">
        <ele>675.46000000000004</ele>
        <time>2025-05-12T07:17:20Z</time>
      </trkpt>
      <trkpt lat="36.91507201641798" lon="-3.501567039638758">
        <ele>674.98000000000002</ele>
        <time>2025-05-12T07:17:21Z</time>
      </trkpt>
      <trkpt lat="36.914967996999621" lon="-3.501538038253784">
        <ele>674.5</ele>
        <time>2025-05-12T07:17:22Z</time>
      </trkpt>
      <trkpt lat="36.914624003693461" lon="-3.501405017450452">
        <ele>673.53999999999996</ele>
        <time>2025-05-12T07:17:25Z</time>
      </trkpt>
      <trkpt lat="36.91449198871851" lon="-3.501312984153628">
        <ele>674.01999999999998</ele>
        <time>2025-05-12T07:17:26Z</time>
      </trkpt>
      <trkpt lat="36.914421999827027" lon="-3.501221034675837">
        <ele>673.53999999999996</ele>
        <time>2025-05-12T07:17:27Z</time>
      </trkpt>
      <trkpt lat="36.914329966530204" lon="-3.50110100582242">
        <ele>673.05999999999995</ele>
        <time>2025-05-12T07:17:28Z</time>
      </trkpt>
      <trkpt lat="36.914239022880793" lon="-3.500980976969004">
        <ele>673.05999999999995</ele>
        <time>2025-05-12T07:17:29Z</time>
      </trkpt>
      <trkpt lat="36.914176996797323" lon="-3.500829013064504">
        <ele>673.53999999999996</ele>
        <time>2025-05-12T07:17:30Z</time>
      </trkpt>
      <trkpt lat="36.91412896849215" lon="-3.500669002532959">
        <ele>673.05999999999995</ele>
        <time>2025-05-12T07:17:31Z</time>
      </trkpt>
      <trkpt lat="36.914084041491151" lon="-3.500518966466188">
        <ele>673.05999999999995</ele>
        <time>2025-05-12T07:17:32Z</time>
      </trkpt>
      <trkpt lat="36.914001982659101" lon="-3.500378988683224">
        <ele>673.05999999999995</ele>
        <time>2025-05-12T07:17:33Z</time>
      </trkpt>
      <trkpt lat="36.913925036787987" lon="-3.500248985365033">
        <ele>673.05999999999995</ele>
        <time>2025-05-12T07:17:34Z</time>
      </trkpt>
      <trkpt lat="36.913851024582982" lon="-3.500124011188746">
        <ele>673.05999999999995</ele>
        <time>2025-05-12T07:17:35Z</time>
      </trkpt>
      <trkpt lat="36.913810959085822" lon="-3.500000964850187">
        <ele>672.58000000000004</ele>
        <time>2025-05-12T07:17:36Z</time>
      </trkpt>
      <trkpt lat="36.91382403485477" lon="-3.499880013987422">
        <ele>672.10000000000002</ele>
        <time>2025-05-12T07:17:37Z</time>
      </trkpt>
      <trkpt lat="36.91386996768415" lon="-3.49981002509594">
        <ele>671.62</ele>
        <time>2025-05-12T07:17:38Z</time>
      </trkpt>
      <trkpt lat="36.91395596601069" lon="-3.49972503259778">
        <ele>671.13999999999999</ele>
        <time>2025-05-12T07:17:39Z</time>
      </trkpt>
      <trkpt lat="36.914052022621036" lon="-3.499706005677581">
        <ele>670.65999999999997</ele>
        <time>2025-05-12T07:17:40Z</time>
      </trkpt>
      <trkpt lat="36.914186971262097" lon="-3.499680021777749">
        <ele>670.65999999999997</ele>
        <time>2025-05-12T07:17:41Z</time>
      </trkpt>
      <trkpt lat="36.914996998384595" lon="-3.499521017074585">
        <ele>670.17999999999995</ele>
        <time>2025-05-12T07:17:46Z</time>
      </trkpt>
      <trkpt lat="36.915160026401281" lon="-3.4994459990412">
        <ele>670.17999999999995</ele>
        <time>2025-05-12T07:17:47Z</time>
      </trkpt>
      <trkpt lat="36.915320958942175" lon="-3.499348014593124">
        <ele>670.17999999999995</ele>
        <time>2025-05-12T07:17:48Z</time>
      </trkpt>
      <trkpt lat="36.915465965867043" lon="-3.499214993789792">
        <ele>670.17999999999995</ele>
        <time>2025-05-12T07:17:49Z</time>
      </trkpt>
      <trkpt lat="36.91560703329742" lon="-3.499073004350066">
        <ele>670.17999999999995</ele>
        <time>2025-05-12T07:17:50Z</time>
      </trkpt>
      <trkpt lat="36.915732007473707" lon="-3.498921040445566">
        <ele>670.17999999999995</ele>
        <time>2025-05-12T07:17:51Z</time>
      </trkpt>
      <trkpt lat="36.916088992729783" lon="-3.498370014131069">
        <ele>669.70000000000005</ele>
        <time>2025-05-12T07:17:55Z</time>
      </trkpt>
      <trkpt lat="36.916117994114757" lon="-3.498245039954782">
        <ele>669.22000000000003</ele>
        <time>2025-05-12T07:17:56Z</time>
      </trkpt>
      <trkpt lat="36.916094021871686" lon="-3.498121993616223">
        <ele>669.22000000000003</ele>
        <time>2025-05-12T07:17:57Z</time>
      </trkpt>
      <trkpt lat="36.916026966646314" lon="-3.498031971976161">
        <ele>669.22000000000003</ele>
        <time>2025-05-12T07:17:58Z</time>
      </trkpt>
      <trkpt lat="36.915930993855" lon="-3.497957037761807">
        <ele>669.22000000000003</ele>
        <time>2025-05-12T07:17:59Z</time>
      </trkpt>
      <trkpt lat="36.915824040770531" lon="-3.49792200140655">
        <ele>668.73000000000002</ele>
        <time>2025-05-12T07:18:00Z</time>
      </trkpt>
      <trkpt lat="36.915694959461689" lon="-3.49792200140655">
        <ele>668.73000000000002</ele>
        <time>2025-05-12T07:18:01Z</time>
      </trkpt>
      <trkpt lat="36.915557999163866" lon="-3.49792200140655">
        <ele>668.73000000000002</ele>
        <time>2025-05-12T07:18:02Z</time>
      </trkpt>
      <trkpt lat="36.915178969502449" lon="-3.49792200140655">
        <ele>669.22000000000003</ele>
        <time>2025-05-12T07:18:05Z</time>
      </trkpt>
      <trkpt lat="36.915068998932838" lon="-3.497853018343449">
        <ele>669.70000000000005</ele>
        <time>2025-05-12T07:18:06Z</time>
      </trkpt>
      <trkpt lat="36.914979983121157" lon="-3.497796021401882">
        <ele>669.70000000000005</ele>
        <time>2025-05-12T07:18:07Z</time>
      </trkpt>
      <trkpt lat="36.914932960644364" lon="-3.497682027518749">
        <ele>669.70000000000005</ele>
        <time>2025-05-12T07:18:08Z</time>
      </trkpt>
      <trkpt lat="36.914928015321493" lon="-3.497551018372178">
        <ele>669.22000000000003</ele>
        <time>2025-05-12T07:18:09Z</time>
      </trkpt>
      <trkpt lat="36.914956010878086" lon="-3.497422020882368">
        <ele>669.22000000000003</ele>
        <time>2025-05-12T07:18:10Z</time>
      </trkpt>
      <trkpt lat="36.915022982284427" lon="-3.497320013120771">
        <ele>669.22000000000003</ele>
        <time>2025-05-12T07:18:11Z</time>
      </trkpt>
      <trkpt lat="36.915105041116476" lon="-3.497227979823947">
        <ele>668.73000000000002</ele>
        <time>2025-05-12T07:18:12Z</time>
      </trkpt>
      <trkpt lat="36.915207970887423" lon="-3.497156985104084">
        <ele>668.25</ele>
        <time>2025-05-12T07:18:13Z</time>
      </trkpt>
      <trkpt lat="36.915331017225981" lon="-3.497094959020615">
        <ele>668.73000000000002</ele>
        <time>2025-05-12T07:18:14Z</time>
      </trkpt>
      <trkpt lat="36.915470995008945" lon="-3.497070986777544">
        <ele>668.73000000000002</ele>
        <time>2025-05-12T07:18:15Z</time>
      </trkpt>
      <trkpt lat="36.915626982226968" lon="-3.497051037847996">
        <ele>668.73000000000002</ele>
        <time>2025-05-12T07:18:16Z</time>
      </trkpt>
      <trkpt lat="36.916261995211244" lon="-3.496940983459353">
        <ele>669.70000000000005</ele>
        <time>2025-05-12T07:18:20Z</time>
      </trkpt>
      <trkpt lat="36.916394010186195" lon="-3.496837969869375">
        <ele>669.70000000000005</ele>
        <time>2025-05-12T07:18:21Z</time>
      </trkpt>
      <trkpt lat="36.916514039039612" lon="-3.496722970157862">
        <ele>670.17999999999995</ele>
        <time>2025-05-12T07:18:22Z</time>
      </trkpt>
      <trkpt lat="36.916733980178833" lon="-3.496513003483415">
        <ele>671.13999999999999</ele>
        <time>2025-05-12T07:18:24Z</time>
      </trkpt>
      <trkpt lat="36.916843028739095" lon="-3.496415019035339">
        <ele>671.62</ele>
        <time>2025-05-12T07:18:25Z</time>
      </trkpt>
      <trkpt lat="36.916975965723395" lon="-3.496355004608631">
        <ele>672.10000000000002</ele>
        <time>2025-05-12T07:18:26Z</time>
      </trkpt>
      <trkpt lat="36.917389025911689" lon="-3.496166998520494">
        <ele>673.53999999999996</ele>
        <time>2025-05-12T07:18:29Z</time>
      </trkpt>
      <trkpt lat="36.917656995356083" lon="-3.496086029335856">
        <ele>675.46000000000004</ele>
        <time>2025-05-12T07:18:31Z</time>
      </trkpt>
      <trkpt lat="36.917780041694641" lon="-3.496091980487108">
        <ele>675.94000000000005</ele>
        <time>2025-05-12T07:18:32Z</time>
      </trkpt>
      <trkpt lat="36.9179099611938" lon="-3.496131962165237">
        <ele>676.41999999999996</ele>
        <time>2025-05-12T07:18:33Z</time>
      </trkpt>
      <trkpt lat="36.9184660166502" lon="-3.496294990181923">
        <ele>679.78999999999996</ele>
        <time>2025-05-12T07:18:38Z</time>
      </trkpt>
      <trkpt lat="36.918555032461882" lon="-3.496318962424994">
        <ele>680.75</ele>
        <time>2025-05-12T07:18:39Z</time>
      </trkpt>
      <trkpt lat="36.918644970282912" lon="-3.496315022930503">
        <ele>681.71000000000004</ele>
        <time>2025-05-12T07:18:40Z</time>
      </trkpt>
      <trkpt lat="36.9187250174582" lon="-3.496264982968569">
        <ele>682.66999999999996</ele>
        <time>2025-05-12T07:18:41Z</time>
      </trkpt>
      <trkpt lat="36.918794000521302" lon="-3.496195999905467">
        <ele>683.63</ele>
        <time>2025-05-12T07:18:42Z</time>
      </trkpt>
      <trkpt lat="36.918858960270882" lon="-3.496107989922166">
        <ele>684.12</ele>
        <time>2025-05-12T07:18:43Z</time>
      </trkpt>
      <trkpt lat="36.918893996626139" lon="-3.496002964675427">
        <ele>685.08000000000004</ele>
        <time>2025-05-12T07:18:44Z</time>
      </trkpt>
      <trkpt lat="36.918930038809776" lon="-3.495895005762577">
        <ele>685.08000000000004</ele>
        <time>2025-05-12T07:18:45Z</time>
      </trkpt>
      <trkpt lat="36.918955016881227" lon="-3.495783023536205">
        <ele>685.55999999999995</ele>
        <time>2025-05-12T07:18:46Z</time>
      </trkpt>
      <trkpt lat="36.918977983295918" lon="-3.495673974975944">
        <ele>685.55999999999995</ele>
        <time>2025-05-12T07:18:47Z</time>
      </trkpt>
      <trkpt lat="36.919188033789396" lon="-3.49465599283576">
        <ele>686.51999999999998</ele>
        <time>2025-05-12T07:18:56Z</time>
      </trkpt>
      <trkpt lat="36.919395988807082" lon="-3.493699030950666">
        <ele>686.03999999999996</ele>
        <time>2025-05-12T07:19:05Z</time>
      </trkpt>
      <trkpt lat="36.919419039040804" lon="-3.493596017360687">
        <ele>685.55999999999995</ele>
        <time>2025-05-12T07:19:06Z</time>
      </trkpt>
      <trkpt lat="36.919464971870184" lon="-3.493395019322634">
        <ele>684.60000000000002</ele>
        <time>2025-05-12T07:19:08Z</time>
      </trkpt>
      <trkpt lat="36.919504031538963" lon="-3.493312038481236">
        <ele>684.12</ele>
        <time>2025-05-12T07:19:09Z</time>
      </trkpt>
      <trkpt lat="36.919548958539963" lon="-3.493230985477567">
        <ele>684.12</ele>
        <time>2025-05-12T07:19:10Z</time>
      </trkpt>
      <trkpt lat="36.919592963531613" lon="-3.493168959394097">
        <ele>683.63</ele>
        <time>2025-05-12T07:19:11Z</time>
      </trkpt>
      <trkpt lat="36.919658007100224" lon="-3.493120009079576">
        <ele>683.63</ele>
        <time>2025-05-12T07:19:12Z</time>
      </trkpt>
      <trkpt lat="36.919720033183694" lon="-3.493110034614801">
        <ele>683.63</ele>
        <time>2025-05-12T07:19:13Z</time>
      </trkpt>
      <trkpt lat="36.919796979054809" lon="-3.493100982159376">
        <ele>683.14999999999998</ele>
        <time>2025-05-12T07:19:14Z</time>
      </trkpt>
      <trkpt lat="36.919857999309897" lon="-3.493095031008124">
        <ele>682.66999999999996</ele>
        <time>2025-05-12T07:19:15Z</time>
      </trkpt>
      <trkpt lat="36.919942991808057" lon="-3.493125038221479">
        <ele>681.71000000000004</ele>
        <time>2025-05-12T07:19:16Z</time>
      </trkpt>
      <trkpt lat="36.920026978477836" lon="-3.493141969665885">
        <ele>681.71000000000004</ele>
        <time>2025-05-12T07:19:17Z</time>
      </trkpt>
      <trkpt lat="36.920115994289517" lon="-3.493163008242846">
        <ele>681.23000000000002</ele>
        <time>2025-05-12T07:19:18Z</time>
      </trkpt>
      <trkpt lat="36.920296959578991" lon="-3.493201984092593">
        <ele>679.78999999999996</ele>
        <time>2025-05-12T07:19:20Z</time>
      </trkpt>
      <trkpt lat="36.920565012842417" lon="-3.493196032941341">
        <ele>677.87</ele>
        <time>2025-05-12T07:19:23Z</time>
      </trkpt>
      <trkpt lat="36.920651011168957" lon="-3.493185974657536">
        <ele>677.38999999999999</ele>
        <time>2025-05-12T07:19:24Z</time>
      </trkpt>
      <trkpt lat="36.920727035030723" lon="-3.493174994364381">
        <ele>676.41999999999996</ele>
        <time>2025-05-12T07:19:25Z</time>
      </trkpt>
      <trkpt lat="36.920857038348913" lon="-3.493153033778071">
        <ele>674.5</ele>
        <time>2025-05-12T07:19:27Z</time>
      </trkpt>
      <trkpt lat="36.92095996811986" lon="-3.49312998354435">
        <ele>672.58000000000004</ele>
        <time>2025-05-12T07:19:29Z</time>
      </trkpt>
      <trkpt lat="36.921005984768271" lon="-3.493093019351363">
        <ele>671.13999999999999</ele>
        <time>2025-05-12T07:19:30Z</time>
      </trkpt>
      <trkpt lat="36.921056024730206" lon="-3.493053037673235">
        <ele>670.17999999999995</ele>
        <time>2025-05-12T07:19:31Z</time>
      </trkpt>
      <trkpt lat="36.921081002801657" lon="-3.492983970791102">
        <ele>669.22000000000003</ele>
        <time>2025-05-12T07:19:32Z</time>
      </trkpt>
      <trkpt lat="36.921101035550237" lon="-3.492911970242858">
        <ele>668.25</ele>
        <time>2025-05-12T07:19:33Z</time>
      </trkpt>
      <trkpt lat="36.921101035550237" lon="-3.492832006886601">
        <ele>667.28999999999996</ele>
        <time>2025-05-12T07:19:34Z</time>
      </trkpt>
      <trkpt lat="36.921101035550237" lon="-3.492768974974752">
        <ele>666.33000000000004</ele>
        <time>2025-05-12T07:19:35Z</time>
      </trkpt>
      <trkpt lat="36.921101035550237" lon="-3.492686999961734">
        <ele>665.37</ele>
        <time>2025-05-12T07:19:36Z</time>
      </trkpt>
      <trkpt lat="36.921083014458418" lon="-3.492632014676929">
        <ele>664.40999999999997</ele>
        <time>2025-05-12T07:19:37Z</time>
      </trkpt>
      <trkpt lat="36.921054013073444" lon="-3.492556996643543">
        <ele>662.97000000000003</ele>
        <time>2025-05-12T07:19:38Z</time>
      </trkpt>
      <trkpt lat="36.920944964513183" lon="-3.492411989718676">
        <ele>661.03999999999996</ele>
        <time>2025-05-12T07:19:40Z</time>
      </trkpt>
      <trkpt lat="36.920661991462111" lon="-3.492085011675954">
        <ele>654.79999999999995</ele>
        <time>2025-05-12T07:19:46Z</time>
      </trkpt>
      <trkpt lat="36.92059401422739" lon="-3.492002030834556">
        <ele>652.87</ele>
        <time>2025-05-12T07:19:48Z</time>
      </trkpt>
      <trkpt lat="36.920560989528894" lon="-3.491960959509015">
        <ele>651.90999999999997</ele>
        <time>2025-05-12T07:19:49Z</time>
      </trkpt>
      <trkpt lat="36.92053098231554" lon="-3.491923995316029">
        <ele>650.95000000000005</ele>
        <time>2025-05-12T07:19:50Z</time>
      </trkpt>
      <trkpt lat="36.920502986758947" lon="-3.491888958960772">
        <ele>649.99000000000001</ele>
        <time>2025-05-12T07:19:51Z</time>
      </trkpt>
      <trkpt lat="36.920475997030735" lon="-3.491857023909688">
        <ele>649.02999999999997</ele>
        <time>2025-05-12T07:19:52Z</time>
      </trkpt>
      <trkpt lat="36.920350017026067" lon="-3.491700030863285">
        <ele>644.70000000000005</ele>
        <time>2025-05-12T07:19:58Z</time>
      </trkpt>
      <trkpt lat="36.920298971235752" lon="-3.491602968424559">
        <ele>642.77999999999997</ele>
        <time>2025-05-12T07:20:00Z</time>
      </trkpt>
      <trkpt lat="36.920266030356288" lon="-3.49154002033174">
        <ele>642.29999999999995</ele>
        <time>2025-05-12T07:20:01Z</time>
      </trkpt>
      <trkpt lat="36.920168967917562" lon="-3.491359977051616">
        <ele>640.86000000000001</ele>
        <time>2025-05-12T07:20:04Z</time>
      </trkpt>
      <trkpt lat="36.920044999569654" lon="-3.491111034527421">
        <ele>639.40999999999997</ele>
        <time>2025-05-12T07:20:08Z</time>
      </trkpt>
      <trkpt lat="36.919938968494534" lon="-3.490893021225929">
        <ele>637.97000000000003</ele>
        <time>2025-05-12T07:20:11Z</time>
      </trkpt>
      <trkpt lat="36.919911978766322" lon="-3.490833006799221">
        <ele>637.49000000000001</ele>
        <time>2025-05-12T07:20:12Z</time>
      </trkpt>
      <trkpt lat="36.919804019853473" lon="-3.490594038739801">
        <ele>634.61000000000001</ele>
        <time>2025-05-12T07:20:16Z</time>
      </trkpt>
      <trkpt lat="36.919708969071507" lon="-3.490446014329791">
        <ele>636.52999999999997</ele>
        <time>2025-05-12T07:20:19Z</time>
      </trkpt>
      <trkpt lat="36.91962799988687" lon="-3.490348029881716">
        <ele>637.97000000000003</ele>
        <time>2025-05-12T07:20:21Z</time>
      </trkpt>
      <trkpt lat="36.919582989066839" lon="-3.490293966606259">
        <ele>638.45000000000005</ele>
        <time>2025-05-12T07:20:22Z</time>
      </trkpt>
      <trkpt lat="36.919536972418427" lon="-3.490239987149835">
        <ele>638.92999999999995</ele>
        <time>2025-05-12T07:20:23Z</time>
      </trkpt>
      <trkpt lat="36.919490033760667" lon="-3.490181984379888">
        <ele>639.40999999999997</ele>
        <time>2025-05-12T07:20:24Z</time>
      </trkpt>
      <trkpt lat="36.919442005455494" lon="-3.490125993266702">
        <ele>639.40999999999997</ele>
        <time>2025-05-12T07:20:25Z</time>
      </trkpt>
      <trkpt lat="36.919394982978702" lon="-3.490068996325135">
        <ele>639.40999999999997</ele>
        <time>2025-05-12T07:20:26Z</time>
      </trkpt>
      <trkpt lat="36.91934997215867" lon="-3.490015016868711">
        <ele>639.40999999999997</ele>
        <time>2025-05-12T07:20:27Z</time>
      </trkpt>
      <trkpt lat="36.9193069729954" lon="-3.489966988563538">
        <ele>639.40999999999997</ele>
        <time>2025-05-12T07:20:28Z</time>
      </trkpt>
      <trkpt lat="36.919271014630795" lon="-3.48992801271379">
        <ele>639.88999999999999</ele>
        <time>2025-05-12T07:20:29Z</time>
      </trkpt>
      <trkpt lat="36.919237989932299" lon="-3.489891970530152">
        <ele>639.40999999999997</ele>
        <time>2025-05-12T07:20:30Z</time>
      </trkpt>
      <trkpt lat="36.919206976890564" lon="-3.489858023822308">
        <ele>639.40999999999997</ele>
        <time>2025-05-12T07:20:31Z</time>
      </trkpt>
      <trkpt lat="36.91917696967721" lon="-3.489824999123812">
        <ele>639.88999999999999</ele>
        <time>2025-05-12T07:20:32Z</time>
      </trkpt>
      <trkpt lat="36.919147968292236" lon="-3.489792980253696">
        <ele>639.88999999999999</ele>
        <time>2025-05-12T07:20:33Z</time>
      </trkpt>
      <trkpt lat="36.919118966907263" lon="-3.489761967211962">
        <ele>639.88999999999999</ele>
        <time>2025-05-12T07:20:34Z</time>
      </trkpt>
      <trkpt lat="36.919088959693909" lon="-3.489717040210962">
        <ele>639.88999999999999</ele>
        <time>2025-05-12T07:20:35Z</time>
      </trkpt>
      <trkpt lat="36.919061969965696" lon="-3.48967001773417">
        <ele>639.40999999999997</ele>
        <time>2025-05-12T07:20:36Z</time>
      </trkpt>
      <trkpt lat="36.919036991894245" lon="-3.489625006914139">
        <ele>638.92999999999995</ele>
        <time>2025-05-12T07:20:37Z</time>
      </trkpt>
      <trkpt lat="36.919008996337652" lon="-3.489575972780585">
        <ele>638.92999999999995</ele>
        <time>2025-05-12T07:20:38Z</time>
      </trkpt>
      <trkpt lat="36.91898301243782" lon="-3.489529034122825">
        <ele>638.45000000000005</ele>
        <time>2025-05-12T07:20:39Z</time>
      </trkpt>
      <trkpt lat="36.91896297968924" lon="-3.489493997767568">
        <ele>637.97000000000003</ele>
        <time>2025-05-12T07:20:40Z</time>
      </trkpt>
      <trkpt lat="36.918930038809776" lon="-3.489433983340859">
        <ele>637.49000000000001</ele>
        <time>2025-05-12T07:20:42Z</time>
      </trkpt>
      <trkpt lat="36.91891604103148" lon="-3.489411016926169">
        <ele>637.00999999999999</ele>
        <time>2025-05-12T07:20:43Z</time>
      </trkpt>
      <trkpt lat="36.918891984969378" lon="-3.489367011934519">
        <ele>637.00999999999999</ele>
        <time>2025-05-12T07:20:44Z</time>
      </trkpt>
      <trkpt lat="36.918797018006444" lon="-3.489198032766581">
        <ele>636.52999999999997</ele>
        <time>2025-05-12T07:20:47Z</time>
      </trkpt>
      <trkpt lat="36.918763993307948" lon="-3.489140029996634">
        <ele>636.52999999999997</ele>
        <time>2025-05-12T07:20:48Z</time>
      </trkpt>
      <trkpt lat="36.918702973052859" lon="-3.489012038335204">
        <ele>635.57000000000005</ele>
        <time>2025-05-12T07:20:50Z</time>
      </trkpt>
      <trkpt lat="36.918683024123311" lon="-3.488952023908496">
        <ele>635.57000000000005</ele>
        <time>2025-05-12T07:20:51Z</time>
      </trkpt>
      <trkpt lat="36.918601971119642" lon="-3.488668967038393">
        <ele>633.64999999999998</ele>
        <time>2025-05-12T07:20:55Z</time>
      </trkpt>
      <trkpt lat="36.918590990826488" lon="-3.488590009510517">
        <ele>633.16999999999996</ele>
        <time>2025-05-12T07:20:56Z</time>
      </trkpt>
      <trkpt lat="36.918579004704952" lon="-3.48850904032588">
        <ele>633.16999999999996</ele>
        <time>2025-05-12T07:20:57Z</time>
      </trkpt>
      <trkpt lat="36.918504992499948" lon="-3.488216008991003">
        <ele>630.27999999999997</ele>
        <time>2025-05-12T07:21:04Z</time>
      </trkpt>
      <trkpt lat="36.918465010821819" lon="-3.488180972635746">
        <ele>629.79999999999995</ele>
        <time>2025-05-12T07:21:05Z</time>
      </trkpt>
      <trkpt lat="36.918433997780085" lon="-3.488180972635746">
        <ele>629.79999999999995</ele>
        <time>2025-05-12T07:21:06Z</time>
      </trkpt>
      <trkpt lat="36.918397033587098" lon="-3.488180972635746">
        <ele>629.32000000000005</ele>
        <time>2025-05-12T07:21:07Z</time>
      </trkpt>
      <trkpt lat="36.918326960876584" lon="-3.488212991505861">
        <ele>629.79999999999995</ele>
        <time>2025-05-12T07:21:08Z</time>
      </trkpt>
      <trkpt lat="36.918302988633513" lon="-3.488262025639415">
        <ele>629.32000000000005</ele>
        <time>2025-05-12T07:21:09Z</time>
      </trkpt>
      <trkpt lat="36.918270969763398" lon="-3.488340983167291">
        <ele>628.84000000000003</ele>
        <time>2025-05-12T07:21:10Z</time>
      </trkpt>
      <trkpt lat="36.918206010013819" lon="-3.488518008962274">
        <ele>629.32000000000005</ele>
        <time>2025-05-12T07:21:12Z</time>
      </trkpt>
      <trkpt lat="36.918162005022168" lon="-3.488590009510517">
        <ele>629.32000000000005</ele>
        <time>2025-05-12T07:21:13Z</time>
      </trkpt>
      <trkpt lat="36.918109031394124" lon="-3.488672990351915">
        <ele>629.79999999999995</ele>
        <time>2025-05-12T07:21:14Z</time>
      </trkpt>
      <trkpt lat="36.91805899143219" lon="-3.488750020042062">
        <ele>630.27999999999997</ele>
        <time>2025-05-12T07:21:15Z</time>
      </trkpt>
      <trkpt lat="36.918008029460907" lon="-3.488825038075447">
        <ele>630.75999999999999</ele>
        <time>2025-05-12T07:21:16Z</time>
      </trkpt>
      <trkpt lat="36.917930999770761" lon="-3.488848004490137">
        <ele>631.24000000000001</ele>
        <time>2025-05-12T07:21:17Z</time>
      </trkpt>
      <trkpt lat="36.917853970080614" lon="-3.488870970904827">
        <ele>631.72000000000003</ele>
        <time>2025-05-12T07:21:18Z</time>
      </trkpt>
      <trkpt lat="36.917764032259583" lon="-3.488877005875111">
        <ele>631.72000000000003</ele>
        <time>2025-05-12T07:21:19Z</time>
      </trkpt>
      <trkpt lat="36.917689014226198" lon="-3.488848004490137">
        <ele>631.72000000000003</ele>
        <time>2025-05-12T07:21:20Z</time>
      </trkpt>
      <trkpt lat="36.917611984536052" lon="-3.488820008933544">
        <ele>631.24000000000001</ele>
        <time>2025-05-12T07:21:21Z</time>
      </trkpt>
      <trkpt lat="36.917238989844918" lon="-3.488535024225712">
        <ele>628.84000000000003</ele>
        <time>2025-05-12T07:21:26Z</time>
      </trkpt>
      <trkpt lat="36.917169000953436" lon="-3.488474003970623">
        <ele>628.36000000000001</ele>
        <time>2025-05-12T07:21:27Z</time>
      </trkpt>
      <trkpt lat="36.917109992355108" lon="-3.488378031179309">
        <ele>628.36000000000001</ele>
        <time>2025-05-12T07:21:28Z</time>
      </trkpt>
      <trkpt lat="36.917060036212206" lon="-3.488281974568963">
        <ele>627.39999999999998</ele>
        <time>2025-05-12T07:21:29Z</time>
      </trkpt>
      <trkpt lat="36.917007984593511" lon="-3.488183990120888">
        <ele>626.91999999999996</ele>
        <time>2025-05-12T07:21:30Z</time>
      </trkpt>
      <trkpt lat="36.916952999308705" lon="-3.488078964874148">
        <ele>626.44000000000005</ele>
        <time>2025-05-12T07:21:31Z</time>
      </trkpt>
      <trkpt lat="36.916902959346771" lon="-3.487953990697861">
        <ele>625.96000000000004</ele>
        <time>2025-05-12T07:21:32Z</time>
      </trkpt>
      <trkpt lat="36.916835987940431" lon="-3.487687027081847">
        <ele>624.50999999999999</ele>
        <time>2025-05-12T07:21:34Z</time>
      </trkpt>
      <trkpt lat="36.916445977985859" lon="-3.486148025840521">
        <ele>617.29999999999995</ele>
        <time>2025-05-12T07:21:45Z</time>
      </trkpt>
      <trkpt lat="36.916416976600885" lon="-3.485915008932352">
        <ele>617.29999999999995</ele>
        <time>2025-05-12T07:21:47Z</time>
      </trkpt>
      <trkpt lat="36.916450001299381" lon="-3.485010014846921">
        <ele>620.19000000000005</ele>
        <time>2025-05-12T07:21:56Z</time>
      </trkpt>
      <trkpt lat="36.916423011571169" lon="-3.484746990725398">
        <ele>621.63</ele>
        <time>2025-05-12T07:21:59Z</time>
      </trkpt>
      <trkpt lat="36.916530970484018" lon="-3.484618999063969">
        <ele>622.11000000000001</ele>
        <time>2025-05-12T07:22:00Z</time>
      </trkpt>
      <trkpt lat="36.916719982400537" lon="-3.483533039689064">
        <ele>627.39999999999998</ele>
        <time>2025-05-12T07:22:11Z</time>
      </trkpt>
      <trkpt lat="36.916746972128749" lon="-3.483295999467373">
        <ele>628.36000000000001</ele>
        <time>2025-05-12T07:22:13Z</time>
      </trkpt>
      <trkpt lat="36.916767004877329" lon="-3.482022034004331">
        <ele>628.36000000000001</ele>
        <time>2025-05-12T07:22:24Z</time>
      </trkpt>
      <trkpt lat="36.916772034019232" lon="-3.481916002929211">
        <ele>628.36000000000001</ele>
        <time>2025-05-12T07:22:25Z</time>
      </trkpt>
      <trkpt lat="36.916906982660294" lon="-3.481275960803032">
        <ele>629.32000000000005</ele>
        <time>2025-05-12T07:22:31Z</time>
      </trkpt>
      <trkpt lat="36.916929027065635" lon="-3.481168001890183">
        <ele>629.32000000000005</ele>
        <time>2025-05-12T07:22:32Z</time>
      </trkpt>
      <trkpt lat="36.916948975995183" lon="-3.481066999956965">
        <ele>629.79999999999995</ele>
        <time>2025-05-12T07:22:33Z</time>
      </trkpt>
      <trkpt lat="36.917003039270639" lon="-3.480799030512571">
        <ele>631.24000000000001</ele>
        <time>2025-05-12T07:22:36Z</time>
      </trkpt>
      <trkpt lat="36.917022988200188" lon="-3.480722000822425">
        <ele>631.24000000000001</ele>
        <time>2025-05-12T07:22:37Z</time>
      </trkpt>
      <trkpt lat="36.917121978476644" lon="-3.480341965332627">
        <ele>633.16999999999996</ele>
        <time>2025-05-12T07:22:41Z</time>
      </trkpt>
      <trkpt lat="36.917142011225224" lon="-3.48024096339941">
        <ele>633.64999999999998</ele>
        <time>2025-05-12T07:22:42Z</time>
      </trkpt>
      <trkpt lat="36.917161038145423" lon="-3.480144990608096">
        <ele>634.61000000000001</ele>
        <time>2025-05-12T07:22:43Z</time>
      </trkpt>
      <trkpt lat="36.917521040886641" lon="-3.479177970439196">
        <ele>637.49000000000001</ele>
        <time>2025-05-12T07:22:54Z</time>
      </trkpt>
      <trkpt lat="36.917670993134379" lon="-3.47892701625824">
        <ele>637.00999999999999</ele>
        <time>2025-05-12T07:22:57Z</time>
      </trkpt>
      <trkpt lat="36.918269963935018" lon="-3.477943986654282">
        <ele>641.82000000000005</ele>
        <time>2025-05-12T07:23:09Z</time>
      </trkpt>
      <trkpt lat="36.918324027210474" lon="-3.477868968620896">
        <ele>642.29999999999995</ele>
        <time>2025-05-12T07:23:10Z</time>
      </trkpt>
      <trkpt lat="36.918384963646531" lon="-3.477807026356459">
        <ele>642.29999999999995</ele>
        <time>2025-05-12T07:23:11Z</time>
      </trkpt>
      <trkpt lat="36.91844598390162" lon="-3.47774600610137">
        <ele>642.77999999999997</ele>
        <time>2025-05-12T07:23:12Z</time>
      </trkpt>
      <trkpt lat="36.918669026345015" lon="-3.477536961436272">
        <ele>644.70000000000005</ele>
        <time>2025-05-12T07:23:16Z</time>
      </trkpt>
      <trkpt lat="36.918711019679904" lon="-3.477474013343453">
        <ele>645.17999999999995</ele>
        <time>2025-05-12T07:23:17Z</time>
      </trkpt>
      <trkpt lat="36.918741026893258" lon="-3.477388015016913">
        <ele>646.13999999999999</ele>
        <time>2025-05-12T07:23:18Z</time>
      </trkpt>
      <trkpt lat="36.918743960559368" lon="-3.47729598172009">
        <ele>646.62</ele>
        <time>2025-05-12T07:23:19Z</time>
      </trkpt>
      <trkpt lat="36.918751001358032" lon="-3.477199003100395">
        <ele>646.62</ele>
        <time>2025-05-12T07:23:20Z</time>
      </trkpt>
      <trkpt lat="36.918757958337665" lon="-3.477106969803572">
        <ele>647.10000000000002</ele>
        <time>2025-05-12T07:23:21Z</time>
      </trkpt>
      <trkpt lat="36.918761981651187" lon="-3.477044021710753">
        <ele>648.07000000000005</ele>
        <time>2025-05-12T07:23:22Z</time>
      </trkpt>
      <trkpt lat="36.918783020228148" lon="-3.476933967322111">
        <ele>648.07000000000005</ele>
        <time>2025-05-12T07:23:23Z</time>
      </trkpt>
      <trkpt lat="36.918799029663205" lon="-3.476848974823952">
        <ele>648.54999999999995</ele>
        <time>2025-05-12T07:23:24Z</time>
      </trkpt>
      <trkpt lat="36.918960968032479" lon="-3.476279005408287">
        <ele>652.38999999999999</ele>
        <time>2025-05-12T07:23:31Z</time>
      </trkpt>
      <trkpt lat="36.918998016044497" lon="-3.476185966283083">
        <ele>652.87</ele>
        <time>2025-05-12T07:23:32Z</time>
      </trkpt>
      <trkpt lat="36.919045960530639" lon="-3.476109020411968">
        <ele>653.35000000000002</ele>
        <time>2025-05-12T07:23:33Z</time>
      </trkpt>
      <trkpt lat="36.919100023806095" lon="-3.476023022085428">
        <ele>653.35000000000002</ele>
        <time>2025-05-12T07:23:34Z</time>
      </trkpt>
      <trkpt lat="36.919152997434139" lon="-3.475939035415649">
        <ele>653.35000000000002</ele>
        <time>2025-05-12T07:23:35Z</time>
      </trkpt>
      <trkpt lat="36.919203037396073" lon="-3.475857982411981">
        <ele>653.35000000000002</ele>
        <time>2025-05-12T07:23:36Z</time>
      </trkpt>
      <trkpt lat="36.919356007128954" lon="-3.475610967725515">
        <ele>653.35000000000002</ele>
        <time>2025-05-12T07:23:39Z</time>
      </trkpt>
      <trkpt lat="36.919398000463843" lon="-3.475539973005652">
        <ele>653.35000000000002</ele>
        <time>2025-05-12T07:23:40Z</time>
      </trkpt>
      <trkpt lat="36.919442005455494" lon="-3.475462021306157">
        <ele>653.35000000000002</ele>
        <time>2025-05-12T07:23:41Z</time>
      </trkpt>
      <trkpt lat="36.919490033760667" lon="-3.475378034636378">
        <ele>653.35000000000002</ele>
        <time>2025-05-12T07:23:42Z</time>
      </trkpt>
      <trkpt lat="36.91954099573195" lon="-3.475290024653077">
        <ele>653.83000000000004</ele>
        <time>2025-05-12T07:23:43Z</time>
      </trkpt>
      <trkpt lat="36.919588018208742" lon="-3.475207965821028">
        <ele>653.83000000000004</ele>
        <time>2025-05-12T07:23:44Z</time>
      </trkpt>
      <trkpt lat="36.919634034857154" lon="-3.475126996636391">
        <ele>653.83000000000004</ele>
        <time>2025-05-12T07:23:45Z</time>
      </trkpt>
      <trkpt lat="36.919680973514915" lon="-3.475046027451754">
        <ele>653.83000000000004</ele>
        <time>2025-05-12T07:23:46Z</time>
      </trkpt>
      <trkpt lat="36.919898986816406" lon="-3.47461000084877">
        <ele>652.38999999999999</ele>
        <time>2025-05-12T07:23:51Z</time>
      </trkpt>
      <trkpt lat="36.919933017343283" lon="-3.474514028057456">
        <ele>651.42999999999995</ele>
        <time>2025-05-12T07:23:52Z</time>
      </trkpt>
      <trkpt lat="36.920027984306216" lon="-3.474232982844114">
        <ele>649.99000000000001</ele>
        <time>2025-05-12T07:23:55Z</time>
      </trkpt>
      <trkpt lat="36.920062014833093" lon="-3.474134998396039">
        <ele>650.47000000000003</ele>
        <time>2025-05-12T07:23:56Z</time>
      </trkpt>
      <trkpt lat="36.920096967369318" lon="-3.474032990634441">
        <ele>649.99000000000001</ele>
        <time>2025-05-12T07:23:57Z</time>
      </trkpt>
      <trkpt lat="36.920130997896194" lon="-3.473932994529605">
        <ele>649.50999999999999</ele>
        <time>2025-05-12T07:23:58Z</time>
      </trkpt>
      <trkpt lat="36.920165028423071" lon="-3.473832998424768">
        <ele>649.02999999999997</ele>
        <time>2025-05-12T07:23:59Z</time>
      </trkpt>
      <trkpt lat="36.920267036184669" lon="-3.473537033423781">
        <ele>647.10000000000002</ele>
        <time>2025-05-12T07:24:02Z</time>
      </trkpt>
      <trkpt lat="36.920423023402691" lon="-3.473182981833816">
        <ele>644.22000000000003</ele>
        <time>2025-05-12T07:24:06Z</time>
      </trkpt>
      <trkpt lat="36.920460993424058" lon="-3.47310402430594">
        <ele>643.74000000000001</ele>
        <time>2025-05-12T07:24:07Z</time>
      </trkpt>
      <trkpt lat="36.920624021440744" lon="-3.47276397049427">
        <ele>644.22000000000003</ele>
        <time>2025-05-12T07:24:11Z</time>
      </trkpt>
      <trkpt lat="36.921119978651404" lon="-3.472029967233539">
        <ele>641.82000000000005</ele>
        <time>2025-05-12T07:24:20Z</time>
      </trkpt>
      <trkpt lat="36.921167001128197" lon="-3.471950003877282">
        <ele>641.34000000000003</ele>
        <time>2025-05-12T07:24:21Z</time>
      </trkpt>
      <trkpt lat="36.921316031366587" lon="-3.471571980044246">
        <ele>639.88999999999999</ele>
        <time>2025-05-12T07:24:25Z</time>
      </trkpt>
      <trkpt lat="36.921316031366587" lon="-3.47145102918148">
        <ele>638.92999999999995</ele>
        <time>2025-05-12T07:24:26Z</time>
      </trkpt>
      <trkpt lat="36.921316031366587" lon="-3.471340974792838">
        <ele>638.45000000000005</ele>
        <time>2025-05-12T07:24:27Z</time>
      </trkpt>
      <trkpt lat="36.921316031366587" lon="-3.471233015879989">
        <ele>637.97000000000003</ele>
        <time>2025-05-12T07:24:28Z</time>
      </trkpt>
      <trkpt lat="36.921292981132865" lon="-3.471140982583165">
        <ele>637.49000000000001</ele>
        <time>2025-05-12T07:24:29Z</time>
      </trkpt>
      <trkpt lat="36.921263979747891" lon="-3.471051966771483">
        <ele>637.00999999999999</ele>
        <time>2025-05-12T07:24:30Z</time>
      </trkpt>
      <trkpt lat="36.921220980584621" lon="-3.47097996622324">
        <ele>636.52999999999997</ele>
        <time>2025-05-12T07:24:31Z</time>
      </trkpt>
      <trkpt lat="36.921168006956577" lon="-3.470919029787183">
        <ele>636.04999999999995</ele>
        <time>2025-05-12T07:24:32Z</time>
      </trkpt>
      <trkpt lat="36.92111000418663" lon="-3.470852980390191">
        <ele>636.04999999999995</ele>
        <time>2025-05-12T07:24:33Z</time>
      </trkpt>
      <trkpt lat="36.92104303278029" lon="-3.470804030075669">
        <ele>636.04999999999995</ele>
        <time>2025-05-12T07:24:34Z</time>
      </trkpt>
      <trkpt lat="36.920971032232046" lon="-3.470756001770496">
        <ele>635.57000000000005</ele>
        <time>2025-05-12T07:24:35Z</time>
      </trkpt>
      <trkpt lat="36.920889979228377" lon="-3.470716020092368">
        <ele>635.57000000000005</ele>
        <time>2025-05-12T07:24:36Z</time>
      </trkpt>
      <trkpt lat="36.92080800421536" lon="-3.470675032585859">
        <ele>635.09000000000003</ele>
        <time>2025-05-12T07:24:37Z</time>
      </trkpt>
      <trkpt lat="36.920726029202342" lon="-3.470633961260319">
        <ele>635.09000000000003</ele>
        <time>2025-05-12T07:24:38Z</time>
      </trkpt>
      <trkpt lat="36.920552020892501" lon="-3.470550980418921">
        <ele>634.61000000000001</ele>
        <time>2025-05-12T07:24:40Z</time>
      </trkpt>
      <trkpt lat="36.9204640109092" lon="-3.470516027882695">
        <ele>634.61000000000001</ele>
        <time>2025-05-12T07:24:41Z</time>
      </trkpt>
      <trkpt lat="36.920093027874827" lon="-3.470371020957828">
        <ele>634.13</ele>
        <time>2025-05-12T07:24:45Z</time>
      </trkpt>
      <trkpt lat="36.919989008456469" lon="-3.470371020957828">
        <ele>634.13</ele>
        <time>2025-05-12T07:24:46Z</time>
      </trkpt>
      <trkpt lat="36.919882977381349" lon="-3.470371020957828">
        <ele>634.61000000000001</ele>
        <time>2025-05-12T07:24:47Z</time>
      </trkpt>
      <trkpt lat="36.919016037136316" lon="-3.47042097710073">
        <ele>637.97000000000003</ele>
        <time>2025-05-12T07:24:55Z</time>
      </trkpt>
      <trkpt lat="36.91891897469759" lon="-3.470413014292717">
        <ele>637.97000000000003</ele>
        <time>2025-05-12T07:24:56Z</time>
      </trkpt>
      <trkpt lat="36.918827025219798" lon="-3.470405973494053">
        <ele>638.45000000000005</ele>
        <time>2025-05-12T07:24:57Z</time>
      </trkpt>
      <trkpt lat="36.918737003579736" lon="-3.470400022342801">
        <ele>638.45000000000005</ele>
        <time>2025-05-12T07:24:58Z</time>
      </trkpt>
      <trkpt lat="36.918632984161377" lon="-3.470391975715756">
        <ele>638.92999999999995</ele>
        <time>2025-05-12T07:24:59Z</time>
      </trkpt>
      <trkpt lat="36.91855201497674" lon="-3.470427012071014">
        <ele>639.40999999999997</ele>
        <time>2025-05-12T07:25:00Z</time>
      </trkpt>
      <trkpt lat="36.918459981679916" lon="-3.470464982092381">
        <ele>639.40999999999997</ele>
        <time>2025-05-12T07:25:01Z</time>
      </trkpt>
      <trkpt lat="36.918358979746699" lon="-3.470507981255651">
        <ele>640.38</ele>
        <time>2025-05-12T07:25:02Z</time>
      </trkpt>
      <trkpt lat="36.918225958943367" lon="-3.470563972368836">
        <ele>640.86000000000001</ele>
        <time>2025-05-12T07:25:03Z</time>
      </trkpt>
      <trkpt lat="36.917596980929375" lon="-3.470618035644293">
        <ele>641.34000000000003</ele>
        <time>2025-05-12T07:25:08Z</time>
      </trkpt>
      <trkpt lat="36.917509976774454" lon="-3.47069900482893">
        <ele>641.34000000000003</ele>
        <time>2025-05-12T07:25:09Z</time>
      </trkpt>
      <trkpt lat="36.917444011196494" lon="-3.470815010368824">
        <ele>641.34000000000003</ele>
        <time>2025-05-12T07:25:10Z</time>
      </trkpt>
      <trkpt lat="36.91737100481987" lon="-3.47110703587532">
        <ele>642.29999999999995</ele>
        <time>2025-05-12T07:25:12Z</time>
      </trkpt>
      <trkpt lat="36.917321970686316" lon="-3.471246007829905">
        <ele>642.29999999999995</ele>
        <time>2025-05-12T07:25:13Z</time>
      </trkpt>
      <trkpt lat="36.917234966531396" lon="-3.471381962299347">
        <ele>642.77999999999997</ele>
        <time>2025-05-12T07:25:14Z</time>
      </trkpt>
      <trkpt lat="36.917099012061954" lon="-3.471464021131396">
        <ele>642.77999999999997</ele>
        <time>2025-05-12T07:25:15Z</time>
      </trkpt>
      <trkpt lat="36.916960962116718" lon="-3.471548007801175">
        <ele>642.77999999999997</ele>
        <time>2025-05-12T07:25:16Z</time>
      </trkpt>
      <trkpt lat="36.91666298545897" lon="-3.471728973090649">
        <ele>642.77999999999997</ele>
        <time>2025-05-12T07:25:18Z</time>
      </trkpt>
      <trkpt lat="36.916528036817908" lon="-3.471866017207503">
        <ele>642.29999999999995</ele>
        <time>2025-05-12T07:25:19Z</time>
      </trkpt>
      <trkpt lat="36.916409013792872" lon="-3.472015969455242">
        <ele>641.82000000000005</ele>
        <time>2025-05-12T07:25:20Z</time>
      </trkpt>
      <trkpt lat="36.916310023516417" lon="-3.472175979986787">
        <ele>641.82000000000005</ele>
        <time>2025-05-12T07:25:21Z</time>
      </trkpt>
      <trkpt lat="36.916213966906071" lon="-3.472331967204809">
        <ele>641.82000000000005</ele>
        <time>2025-05-12T07:25:22Z</time>
      </trkpt>
      <trkpt lat="36.916108019649982" lon="-3.472458031028509">
        <ele>641.34000000000003</ele>
        <time>2025-05-12T07:25:23Z</time>
      </trkpt>
      <trkpt lat="36.91597499884665" lon="-3.472571019083262">
        <ele>641.34000000000003</ele>
        <time>2025-05-12T07:25:24Z</time>
      </trkpt>
      <trkpt lat="36.915841978043318" lon="-3.472685012966394">
        <ele>640.86000000000001</ele>
        <time>2025-05-12T07:25:25Z</time>
      </trkpt>
      <trkpt lat="36.915596975013614" lon="-3.472914006561041">
        <ele>639.40999999999997</ele>
        <time>2025-05-12T07:25:27Z</time>
      </trkpt>
      <trkpt lat="36.915488010272384" lon="-3.473053984344006">
        <ele>638.92999999999995</ele>
        <time>2025-05-12T07:25:28Z</time>
      </trkpt>
      <trkpt lat="36.915405029430985" lon="-3.473215000703931">
        <ele>638.45000000000005</ele>
        <time>2025-05-12T07:25:29Z</time>
      </trkpt>
      <trkpt lat="36.915322970598936" lon="-3.473376017063856">
        <ele>638.45000000000005</ele>
        <time>2025-05-12T07:25:30Z</time>
      </trkpt>
      <trkpt lat="36.915236972272396" lon="-3.473541978746653">
        <ele>637.97000000000003</ele>
        <time>2025-05-12T07:25:31Z</time>
      </trkpt>
      <trkpt lat="36.915140999481082" lon="-3.473712969571352">
        <ele>637.49000000000001</ele>
        <time>2025-05-12T07:25:32Z</time>
      </trkpt>
      <trkpt lat="36.915006972849369" lon="-3.473841967061162">
        <ele>637.49000000000001</ele>
        <time>2025-05-12T07:25:33Z</time>
      </trkpt>
      <trkpt lat="36.91389000043273" lon="-3.474706979468465">
        <ele>639.88999999999999</ele>
        <time>2025-05-12T07:25:40Z</time>
      </trkpt>
      <trkpt lat="36.912959022447467" lon="-3.475306034088135">
        <ele>641.82000000000005</ele>
        <time>2025-05-12T07:25:46Z</time>
      </trkpt>
      <trkpt lat="36.912853997200727" lon="-3.475421033799648">
        <ele>641.82000000000005</ele>
        <time>2025-05-12T07:25:47Z</time>
      </trkpt>
      <trkpt lat="36.912762969732285" lon="-3.475538967177272">
        <ele>641.82000000000005</ele>
        <time>2025-05-12T07:25:48Z</time>
      </trkpt>
      <trkpt lat="36.912704966962337" lon="-3.47570400685072">
        <ele>642.29999999999995</ele>
        <time>2025-05-12T07:25:49Z</time>
      </trkpt>
      <trkpt lat="36.912695998325944" lon="-3.475859994068742">
        <ele>642.29999999999995</ele>
        <time>2025-05-12T07:25:50Z</time>
      </trkpt>
      <trkpt lat="36.91268996335566" lon="-3.475970970466733">
        <ele>642.77999999999997</ele>
        <time>2025-05-12T07:25:51Z</time>
      </trkpt>
      <trkpt lat="36.912663979455829" lon="-3.476116983219981">
        <ele>642.29999999999995</ele>
        <time>2025-05-12T07:25:52Z</time>
      </trkpt>
      <trkpt lat="36.9126430246979" lon="-3.476237012073398">
        <ele>642.29999999999995</ele>
        <time>2025-05-12T07:25:53Z</time>
      </trkpt>
      <trkpt lat="36.912625003606081" lon="-3.476336002349854">
        <ele>642.29999999999995</ele>
        <time>2025-05-12T07:25:54Z</time>
      </trkpt>
      <trkpt lat="36.912564989179373" lon="-3.476366009563208">
        <ele>642.29999999999995</ele>
        <time>2025-05-12T07:25:55Z</time>
      </trkpt>
      <trkpt lat="36.912478990852833" lon="-3.476409008726478">
        <ele>641.82000000000005</ele>
        <time>2025-05-12T07:25:56Z</time>
      </trkpt>
      <trkpt lat="36.912384023889899" lon="-3.476457037031651">
        <ele>641.82000000000005</ele>
        <time>2025-05-12T07:25:57Z</time>
      </trkpt>
      <trkpt lat="36.912298025563359" lon="-3.476451002061367">
        <ele>641.34000000000003</ele>
        <time>2025-05-12T07:25:58Z</time>
      </trkpt>
      <trkpt lat="36.912201968953013" lon="-3.476411020383239">
        <ele>641.82000000000005</ele>
        <time>2025-05-12T07:25:59Z</time>
      </trkpt>
      <trkpt lat="36.912094010040164" lon="-3.476351005956531">
        <ele>641.82000000000005</ele>
        <time>2025-05-12T07:26:00Z</time>
      </trkpt>
      <trkpt lat="36.91197800450027" lon="-3.4762869682163">
        <ele>641.34000000000003</ele>
        <time>2025-05-12T07:26:01Z</time>
      </trkpt>
      <trkpt lat="36.911611966788769" lon="-3.476043976843357">
        <ele>639.88999999999999</ele>
        <time>2025-05-12T07:26:04Z</time>
      </trkpt>
      <trkpt lat="36.911507025361061" lon="-3.475965019315481">
        <ele>639.40999999999997</ele>
        <time>2025-05-12T07:26:05Z</time>
      </trkpt>
      <trkpt lat="36.91146201454103" lon="-3.475843984633684">
        <ele>638.45000000000005</ele>
        <time>2025-05-12T07:26:06Z</time>
      </trkpt>
      <trkpt lat="36.911453967913985" lon="-3.4757050126791">
        <ele>637.49000000000001</ele>
        <time>2025-05-12T07:26:07Z</time>
      </trkpt>
      <trkpt lat="36.911468971520662" lon="-3.475542990490794">
        <ele>637.00999999999999</ele>
        <time>2025-05-12T07:26:08Z</time>
      </trkpt>
      <trkpt lat="36.911485986784101" lon="-3.475365964695811">
        <ele>636.04999999999995</ele>
        <time>2025-05-12T07:26:09Z</time>
      </trkpt>
      <trkpt lat="36.911489004269242" lon="-3.47478199750185">
        <ele>634.13</ele>
        <time>2025-05-12T07:26:12Z</time>
      </trkpt>
      <trkpt lat="36.911426978185773" lon="-3.474646965041757">
        <ele>633.64999999999998</ele>
        <time>2025-05-12T07:26:13Z</time>
      </trkpt>
      <trkpt lat="36.911360006779432" lon="-3.474514028057456">
        <ele>632.67999999999995</ele>
        <time>2025-05-12T07:26:14Z</time>
      </trkpt>
      <trkpt lat="36.911294963210821" lon="-3.474383018910885">
        <ele>632.20000000000005</ele>
        <time>2025-05-12T07:26:15Z</time>
      </trkpt>
      <trkpt lat="36.911267973482609" lon="-3.474228037521243">
        <ele>631.24000000000001</ele>
        <time>2025-05-12T07:26:16Z</time>
      </trkpt>
      <trkpt lat="36.911238972097635" lon="-3.474064003676176">
        <ele>630.27999999999997</ele>
        <time>2025-05-12T07:26:17Z</time>
      </trkpt>
      <trkpt lat="36.911210976541042" lon="-3.473898964002729">
        <ele>629.79999999999995</ele>
        <time>2025-05-12T07:26:18Z</time>
      </trkpt>
      <trkpt lat="36.911154985427856" lon="-3.473758986219764">
        <ele>628.84000000000003</ele>
        <time>2025-05-12T07:26:19Z</time>
      </trkpt>
      <trkpt lat="36.911095976829529" lon="-3.473615990951657">
        <ele>628.36000000000001</ele>
        <time>2025-05-12T07:26:20Z</time>
      </trkpt>
      <trkpt lat="36.911030011251569" lon="-3.473456986248493">
        <ele>627.88</ele>
        <time>2025-05-12T07:26:21Z</time>
      </trkpt>
      <trkpt lat="36.910963039845228" lon="-3.473295969888568">
        <ele>626.91999999999996</ele>
        <time>2025-05-12T07:26:22Z</time>
      </trkpt>
      <trkpt lat="36.910870000720024" lon="-3.473176024854183">
        <ele>626.44000000000005</ele>
        <time>2025-05-12T07:26:23Z</time>
      </trkpt>
      <trkpt lat="36.910778973251581" lon="-3.473074017092586">
        <ele>625.47000000000003</ele>
        <time>2025-05-12T07:26:24Z</time>
      </trkpt>
      <trkpt lat="36.910662967711687" lon="-3.473020037636161">
        <ele>624.99000000000001</ele>
        <time>2025-05-12T07:26:25Z</time>
      </trkpt>
      <trkpt lat="36.910544028505683" lon="-3.472964968532324">
        <ele>624.02999999999997</ele>
        <time>2025-05-12T07:26:26Z</time>
      </trkpt>
      <trkpt lat="36.910429028794169" lon="-3.472888022661209">
        <ele>623.07000000000005</ele>
        <time>2025-05-12T07:26:27Z</time>
      </trkpt>
      <trkpt lat="36.910335989668965" lon="-3.472772017121315">
        <ele>622.11000000000001</ele>
        <time>2025-05-12T07:26:28Z</time>
      </trkpt>
      <trkpt lat="36.910270024091005" lon="-3.472628016024828">
        <ele>621.14999999999998</ele>
        <time>2025-05-12T07:26:29Z</time>
      </trkpt>
      <trkpt lat="36.910239011049271" lon="-3.472473034635186">
        <ele>620.19000000000005</ele>
        <time>2025-05-12T07:26:30Z</time>
      </trkpt>
      <trkpt lat="36.91023800522089" lon="-3.472309000790119">
        <ele>619.23000000000002</ele>
        <time>2025-05-12T07:26:31Z</time>
      </trkpt>
      <trkpt lat="36.910271029919386" lon="-3.472141027450562">
        <ele>618.25999999999999</ele>
        <time>2025-05-12T07:26:32Z</time>
      </trkpt>
      <trkpt lat="36.910307994112372" lon="-3.471958972513676">
        <ele>617.77999999999997</ele>
        <time>2025-05-12T07:26:33Z</time>
      </trkpt>
      <trkpt lat="36.910373037680984" lon="-3.471828969195485">
        <ele>616.82000000000005</ele>
        <time>2025-05-12T07:26:34Z</time>
      </trkpt>
      <trkpt lat="36.910449983552098" lon="-3.471674993634224">
        <ele>615.86000000000001</ele>
        <time>2025-05-12T07:26:35Z</time>
      </trkpt>
      <trkpt lat="36.910600019618869" lon="-3.471373999491334">
        <ele>614.41999999999996</ele>
        <time>2025-05-12T07:26:37Z</time>
      </trkpt>
      <trkpt lat="36.910665985196829" lon="-3.471241984516382">
        <ele>613.94000000000005</ele>
        <time>2025-05-12T07:26:38Z</time>
      </trkpt>
      <trkpt lat="36.910673025995493" lon="-3.471090020611882">
        <ele>613.46000000000004</ele>
        <time>2025-05-12T07:26:39Z</time>
      </trkpt>
      <trkpt lat="36.910623991861939" lon="-3.470965968444943">
        <ele>612.98000000000002</ele>
        <time>2025-05-12T07:26:40Z</time>
      </trkpt>
      <trkpt lat="36.910545034334064" lon="-3.470890028402209">
        <ele>612.5</ele>
        <time>2025-05-12T07:26:41Z</time>
      </trkpt>
      <trkpt lat="36.910440009087324" lon="-3.470824984833598">
        <ele>612.01999999999998</ele>
        <time>2025-05-12T07:26:42Z</time>
      </trkpt>
      <trkpt lat="36.910329032689333" lon="-3.470757007598877">
        <ele>612.01999999999998</ele>
        <time>2025-05-12T07:26:43Z</time>
      </trkpt>
      <trkpt lat="36.910213027149439" lon="-3.470795983448625">
        <ele>612.01999999999998</ele>
        <time>2025-05-12T07:26:44Z</time>
      </trkpt>
      <trkpt lat="36.910081012174487" lon="-3.470853986218572">
        <ele>612.01999999999998</ele>
        <time>2025-05-12T07:26:45Z</time>
      </trkpt>
      <trkpt lat="36.909945979714394" lon="-3.47093403339386">
        <ele>612.01999999999998</ele>
        <time>2025-05-12T07:26:46Z</time>
      </trkpt>
      <trkpt lat="36.909691002219915" lon="-3.471084991469979">
        <ele>612.5</ele>
        <time>2025-05-12T07:26:48Z</time>
      </trkpt>
      <trkpt lat="36.909581031650305" lon="-3.471099995076656">
        <ele>612.5</ele>
        <time>2025-05-12T07:26:49Z</time>
      </trkpt>
      <trkpt lat="36.909492015838623" lon="-3.471082979813218">
        <ele>612.5</ele>
        <time>2025-05-12T07:26:50Z</time>
      </trkpt>
      <trkpt lat="36.909418003633618" lon="-3.471023971214891">
        <ele>612.5</ele>
        <time>2025-05-12T07:26:51Z</time>
      </trkpt>
      <trkpt lat="36.909407023340464" lon="-3.470902014523745">
        <ele>612.5</ele>
        <time>2025-05-12T07:26:52Z</time>
      </trkpt>
      <trkpt lat="36.909407023340464" lon="-3.470761030912399">
        <ele>612.5</ele>
        <time>2025-05-12T07:26:53Z</time>
      </trkpt>
      <trkpt lat="36.909425966441631" lon="-3.470604959875345">
        <ele>612.01999999999998</ele>
        <time>2025-05-12T07:26:54Z</time>
      </trkpt>
      <trkpt lat="36.909553036093712" lon="-3.469879003241658">
        <ele>610.09000000000003</ele>
        <time>2025-05-12T07:26:58Z</time>
      </trkpt>
      <trkpt lat="36.909514982253313" lon="-3.469702983275056">
        <ele>610.09000000000003</ele>
        <time>2025-05-12T07:26:59Z</time>
      </trkpt>
      <trkpt lat="36.909453039988875" lon="-3.469541966915131">
        <ele>609.61000000000001</ele>
        <time>2025-05-12T07:27:00Z</time>
      </trkpt>
      <trkpt lat="36.909367041662335" lon="-3.469384973868728">
        <ele>609.61000000000001</ele>
        <time>2025-05-12T07:27:01Z</time>
      </trkpt>
      <trkpt lat="36.90924902446568" lon="-3.469252036884427">
        <ele>609.13</ele>
        <time>2025-05-12T07:27:02Z</time>
      </trkpt>
      <trkpt lat="36.909122038632631" lon="-3.469139970839024">
        <ele>608.64999999999998</ele>
        <time>2025-05-12T07:27:03Z</time>
      </trkpt>
      <trkpt lat="36.908995974808931" lon="-3.469040980562568">
        <ele>609.13</ele>
        <time>2025-05-12T07:27:04Z</time>
      </trkpt>
      <trkpt lat="36.908891033381224" lon="-3.468931009992957">
        <ele>609.61000000000001</ele>
        <time>2025-05-12T07:27:05Z</time>
      </trkpt>
      <trkpt lat="36.908826995640993" lon="-3.468804024159908">
        <ele>609.61000000000001</ele>
        <time>2025-05-12T07:27:06Z</time>
      </trkpt>
      <trkpt lat="36.908783996477723" lon="-3.468623980879784">
        <ele>609.13</ele>
        <time>2025-05-12T07:27:07Z</time>
      </trkpt>
      <trkpt lat="36.908576041460037" lon="-3.467430984601378">
        <ele>606.73000000000002</ele>
        <time>2025-05-12T07:27:13Z</time>
      </trkpt>
      <trkpt lat="36.908491970971227" lon="-3.467291006818414">
        <ele>606.73000000000002</ele>
        <time>2025-05-12T07:27:14Z</time>
      </trkpt>
      <trkpt lat="36.908406978473067" lon="-3.467185981571674">
        <ele>606.73000000000002</ele>
        <time>2025-05-12T07:27:15Z</time>
      </trkpt>
      <trkpt lat="36.908312011510134" lon="-3.467180030420423">
        <ele>606.73000000000002</ele>
        <time>2025-05-12T07:27:16Z</time>
      </trkpt>
      <trkpt lat="36.908214027062058" lon="-3.467187993228436">
        <ele>606.73000000000002</ele>
        <time>2025-05-12T07:27:17Z</time>
      </trkpt>
      <trkpt lat="36.908102966845036" lon="-3.467201991006732">
        <ele>607.21000000000004</ele>
        <time>2025-05-12T07:27:18Z</time>
      </trkpt>
      <trkpt lat="36.907593011856079" lon="-3.467383962124586">
        <ele>608.64999999999998</ele>
        <time>2025-05-12T07:27:22Z</time>
      </trkpt>
      <trkpt lat="36.907472983002663" lon="-3.467363007366657">
        <ele>609.61000000000001</ele>
        <time>2025-05-12T07:27:23Z</time>
      </trkpt>
      <trkpt lat="36.907368041574955" lon="-3.46728103235364">
        <ele>610.09000000000003</ele>
        <time>2025-05-12T07:27:24Z</time>
      </trkpt>
      <trkpt lat="36.907280031591654" lon="-3.467148011550307">
        <ele>610.57000000000005</ele>
        <time>2025-05-12T07:27:25Z</time>
      </trkpt>
      <trkpt lat="36.907181963324547" lon="-3.467001998797059">
        <ele>610.57000000000005</ele>
        <time>2025-05-12T07:27:26Z</time>
      </trkpt>
      <trkpt lat="36.906677037477493" lon="-3.466241005808115">
        <ele>613.94000000000005</ele>
        <time>2025-05-12T07:27:31Z</time>
      </trkpt>
      <trkpt lat="36.906618028879166" lon="-3.466106979176402">
        <ele>614.89999999999998</ele>
        <time>2025-05-12T07:27:32Z</time>
      </trkpt>
      <trkpt lat="36.906605958938599" lon="-3.46597203053534">
        <ele>614.89999999999998</ele>
        <time>2025-05-12T07:27:33Z</time>
      </trkpt>
      <trkpt lat="36.906635966151953" lon="-3.465858036652207">
        <ele>615.38</ele>
        <time>2025-05-12T07:27:34Z</time>
      </trkpt>
      <trkpt lat="36.906705033034086" lon="-3.465755023062229">
        <ele>615.86000000000001</ele>
        <time>2025-05-12T07:27:35Z</time>
      </trkpt>
      <trkpt lat="36.906783990561962" lon="-3.465637005865574">
        <ele>616.34000000000003</ele>
        <time>2025-05-12T07:27:36Z</time>
      </trkpt>
      <trkpt lat="36.906854985281825" lon="-3.46549803391099">
        <ele>616.82000000000005</ele>
        <time>2025-05-12T07:27:37Z</time>
      </trkpt>
      <trkpt lat="36.906905025243759" lon="-3.465359983965755">
        <ele>617.29999999999995</ele>
        <time>2025-05-12T07:27:38Z</time>
      </trkpt>
      <trkpt lat="36.906938971951604" lon="-3.46526401117444">
        <ele>617.29999999999995</ele>
        <time>2025-05-12T07:27:39Z</time>
      </trkpt>
      <trkpt lat="36.906911982223392" lon="-3.46511498093605">
        <ele>618.25999999999999</ele>
        <time>2025-05-12T07:27:40Z</time>
      </trkpt>
      <trkpt lat="36.906889015808702" lon="-3.464989000931382">
        <ele>618.75</ele>
        <time>2025-05-12T07:27:41Z</time>
      </trkpt>
      <trkpt lat="36.90686596557498" lon="-3.464864026755095">
        <ele>619.71000000000004</ele>
        <time>2025-05-12T07:27:42Z</time>
      </trkpt>
      <trkpt lat="36.906856996938586" lon="-3.464728994295001">
        <ele>620.66999999999996</ele>
        <time>2025-05-12T07:27:43Z</time>
      </trkpt>
      <trkpt lat="36.90686697140336" lon="-3.46457602456212">
        <ele>621.14999999999998</ele>
        <time>2025-05-12T07:27:44Z</time>
      </trkpt>
      <trkpt lat="36.906879963353276" lon="-3.464406039565802">
        <ele>622.11000000000001</ele>
        <time>2025-05-12T07:27:45Z</time>
      </trkpt>
      <trkpt lat="36.90690703690052" lon="-3.464206969365478">
        <ele>622.59000000000003</ele>
        <time>2025-05-12T07:27:46Z</time>
      </trkpt>
      <trkpt lat="36.907103005796671" lon="-3.462823033332825">
        <ele>625.96000000000004</ele>
        <time>2025-05-12T07:27:52Z</time>
      </trkpt>
      <trkpt lat="36.907069981098175" lon="-3.462664028629661">
        <ele>626.91999999999996</ele>
        <time>2025-05-12T07:27:53Z</time>
      </trkpt>
      <trkpt lat="36.907020024955273" lon="-3.462524972856045">
        <ele>627.88</ele>
        <time>2025-05-12T07:27:54Z</time>
      </trkpt>
      <trkpt lat="36.906968979164958" lon="-3.46238499507308">
        <ele>628.84000000000003</ele>
        <time>2025-05-12T07:27:55Z</time>
      </trkpt>
      <trkpt lat="36.906948024407029" lon="-3.462240993976593">
        <ele>629.32000000000005</ele>
        <time>2025-05-12T07:27:56Z</time>
      </trkpt>
      <trkpt lat="36.906960010528564" lon="-3.462152983993292">
        <ele>629.79999999999995</ele>
        <time>2025-05-12T07:27:57Z</time>
      </trkpt>
      <trkpt lat="36.907022036612034" lon="-3.462091041728854">
        <ele>630.27999999999997</ele>
        <time>2025-05-12T07:27:58Z</time>
      </trkpt>
      <trkpt lat="36.907089008018374" lon="-3.462023986503482">
        <ele>630.75999999999999</ele>
        <time>2025-05-12T07:27:59Z</time>
      </trkpt>
      <trkpt lat="36.907198978587985" lon="-3.462015017867088">
        <ele>631.24000000000001</ele>
        <time>2025-05-12T07:28:00Z</time>
      </trkpt>
      <trkpt lat="36.907330993562937" lon="-3.462004037573934">
        <ele>631.24000000000001</ele>
        <time>2025-05-12T07:28:01Z</time>
      </trkpt>
      <trkpt lat="36.907600974664092" lon="-3.461980987340212">
        <ele>632.20000000000005</ele>
        <time>2025-05-12T07:28:03Z</time>
      </trkpt>
      <trkpt lat="36.907711029052734" lon="-3.461914015933871">
        <ele>631.72000000000003</ele>
        <time>2025-05-12T07:28:04Z</time>
      </trkpt>
      <trkpt lat="36.907790992408991" lon="-3.461822988465428">
        <ele>632.20000000000005</ele>
        <time>2025-05-12T07:28:05Z</time>
      </trkpt>
      <trkpt lat="36.9078319799155" lon="-3.461691979318857">
        <ele>632.67999999999995</ele>
        <time>2025-05-12T07:28:06Z</time>
      </trkpt>
      <trkpt lat="36.907866010442376" lon="-3.461533980444074">
        <ele>632.67999999999995</ele>
        <time>2025-05-12T07:28:07Z</time>
      </trkpt>
      <trkpt lat="36.907879002392292" lon="-3.461355026811361">
        <ele>632.67999999999995</ele>
        <time>2025-05-12T07:28:08Z</time>
      </trkpt>
      <trkpt lat="36.908032977953553" lon="-3.459469014778733">
        <ele>634.13</ele>
        <time>2025-05-12T07:28:18Z</time>
      </trkpt>
      <trkpt lat="36.908095004037023" lon="-3.459099037572742">
        <ele>633.64999999999998</ele>
        <time>2025-05-12T07:28:20Z</time>
      </trkpt>
      <trkpt lat="36.908157030120492" lon="-3.458922011777759">
        <ele>633.64999999999998</ele>
        <time>2025-05-12T07:28:21Z</time>
      </trkpt>
      <trkpt lat="36.908204974606633" lon="-3.458783961832523">
        <ele>633.64999999999998</ele>
        <time>2025-05-12T07:28:22Z</time>
      </trkpt>
      <trkpt lat="36.908332966268063" lon="-3.458655970171094">
        <ele>633.64999999999998</ele>
        <time>2025-05-12T07:28:23Z</time>
      </trkpt>
      <trkpt lat="36.908437991514802" lon="-3.458555974066258">
        <ele>633.16999999999996</ele>
        <time>2025-05-12T07:28:24Z</time>
      </trkpt>
      <trkpt lat="36.908545028418303" lon="-3.458480034023523">
        <ele>633.16999999999996</ele>
        <time>2025-05-12T07:28:25Z</time>
      </trkpt>
      <trkpt lat="36.908618034794927" lon="-3.458378026261926">
        <ele>632.20000000000005</ele>
        <time>2025-05-12T07:28:26Z</time>
      </trkpt>
      <trkpt lat="36.90864996984601" lon="-3.458261014893651">
        <ele>631.72000000000003</ele>
        <time>2025-05-12T07:28:27Z</time>
      </trkpt>
      <trkpt lat="36.908636977896094" lon="-3.458142997696996">
        <ele>631.24000000000001</ele>
        <time>2025-05-12T07:28:28Z</time>
      </trkpt>
      <trkpt lat="36.908592972904444" lon="-3.458025986328721">
        <ele>631.24000000000001</ele>
        <time>2025-05-12T07:28:29Z</time>
      </trkpt>
      <trkpt lat="36.908533964306116" lon="-3.457893971353769">
        <ele>630.75999999999999</ele>
        <time>2025-05-12T07:28:30Z</time>
      </trkpt>
      <trkpt lat="36.90847503952682" lon="-3.457761034369469">
        <ele>630.75999999999999</ele>
        <time>2025-05-12T07:28:31Z</time>
      </trkpt>
      <trkpt lat="36.908420976251364" lon="-3.457638993859291">
        <ele>630.27999999999997</ele>
        <time>2025-05-12T07:28:32Z</time>
      </trkpt>
      <trkpt lat="36.908376971259713" lon="-3.457538997754455">
        <ele>630.27999999999997</ele>
        <time>2025-05-12T07:28:33Z</time>
      </trkpt>
      <trkpt lat="36.908407984301448" lon="-3.457402037456632">
        <ele>630.27999999999997</ele>
        <time>2025-05-12T07:28:34Z</time>
      </trkpt>
      <trkpt lat="36.908440003171563" lon="-3.457261975854635">
        <ele>629.79999999999995</ele>
        <time>2025-05-12T07:28:35Z</time>
      </trkpt>
      <trkpt lat="36.90847403369844" lon="-3.457112023606896">
        <ele>629.32000000000005</ele>
        <time>2025-05-12T07:28:36Z</time>
      </trkpt>
      <trkpt lat="36.90847403369844" lon="-3.456968022510409">
        <ele>629.32000000000005</ele>
        <time>2025-05-12T07:28:37Z</time>
      </trkpt>
      <trkpt lat="36.908461963757873" lon="-3.456852016970515">
        <ele>628.84000000000003</ele>
        <time>2025-05-12T07:28:38Z</time>
      </trkpt>
      <trkpt lat="36.908400021493435" lon="-3.456798959523439">
        <ele>628.84000000000003</ele>
        <time>2025-05-12T07:28:39Z</time>
      </trkpt>
      <trkpt lat="36.908312011510134" lon="-3.456724025309086">
        <ele>628.84000000000003</ele>
        <time>2025-05-12T07:28:40Z</time>
      </trkpt>
      <trkpt lat="36.908215032890439" lon="-3.456682031974196">
        <ele>628.36000000000001</ele>
        <time>2025-05-12T07:28:41Z</time>
      </trkpt>
      <trkpt lat="36.908091986551881" lon="-3.456628974527121">
        <ele>627.88</ele>
        <time>2025-05-12T07:28:42Z</time>
      </trkpt>
      <trkpt lat="36.907959971576929" lon="-3.456546999514103">
        <ele>627.88</ele>
        <time>2025-05-12T07:28:43Z</time>
      </trkpt>
      <trkpt lat="36.907842960208654" lon="-3.456438034772873">
        <ele>627.39999999999998</ele>
        <time>2025-05-12T07:28:44Z</time>
      </trkpt>
      <trkpt lat="36.906994041055441" lon="-3.455545026808977">
        <ele>621.63</ele>
        <time>2025-05-12T07:28:51Z</time>
      </trkpt>
      <trkpt lat="36.906931009143591" lon="-3.455408988520503">
        <ele>620.66999999999996</ele>
        <time>2025-05-12T07:28:52Z</time>
      </trkpt>
      <trkpt lat="36.906911982223392" lon="-3.455282002687454">
        <ele>619.71000000000004</ele>
        <time>2025-05-12T07:28:53Z</time>
      </trkpt>
      <trkpt lat="36.906870994716883" lon="-3.45501302741468">
        <ele>617.77999999999997</ele>
        <time>2025-05-12T07:28:55Z</time>
      </trkpt>
      <trkpt lat="36.906840987503529" lon="-3.45488796941936">
        <ele>616.82000000000005</ele>
        <time>2025-05-12T07:28:56Z</time>
      </trkpt>
      <trkpt lat="36.90675700083375" lon="-3.454802976921201">
        <ele>615.86000000000001</ele>
        <time>2025-05-12T07:28:57Z</time>
      </trkpt>
      <trkpt lat="36.906663039699197" lon="-3.45475897192955">
        <ele>614.89999999999998</ele>
        <time>2025-05-12T07:28:58Z</time>
      </trkpt>
      <trkpt lat="36.906559020280838" lon="-3.454738017171621">
        <ele>613.94000000000005</ele>
        <time>2025-05-12T07:28:59Z</time>
      </trkpt>
      <trkpt lat="36.906462041661143" lon="-3.454718990251422">
        <ele>612.98000000000002</ele>
        <time>2025-05-12T07:29:00Z</time>
      </trkpt>
      <trkpt lat="36.906362967565656" lon="-3.454682026058435">
        <ele>612.5</ele>
        <time>2025-05-12T07:29:01Z</time>
      </trkpt>
      <trkpt lat="36.906231036409736" lon="-3.454598961398006">
        <ele>611.53999999999996</ele>
        <time>2025-05-12T07:29:02Z</time>
      </trkpt>
      <trkpt lat="36.905975975096226" lon="-3.454258991405368">
        <ele>608.16999999999996</ele>
        <time>2025-05-12T07:29:05Z</time>
      </trkpt>
      <trkpt lat="36.905929958447814" lon="-3.454126976430416">
        <ele>607.21000000000004</ele>
        <time>2025-05-12T07:29:06Z</time>
      </trkpt>
      <trkpt lat="36.905886037275195" lon="-3.453994039446116">
        <ele>606.25</ele>
        <time>2025-05-12T07:29:07Z</time>
      </trkpt>
      <trkpt lat="36.90587698481977" lon="-3.453851966187358">
        <ele>605.28999999999996</ele>
        <time>2025-05-12T07:29:08Z</time>
      </trkpt>
      <trkpt lat="36.905899029225111" lon="-3.453687010332942">
        <ele>603.85000000000002</ele>
        <time>2025-05-12T07:29:09Z</time>
      </trkpt>
      <trkpt lat="36.905923001468182" lon="-3.453504033386707">
        <ele>602.39999999999998</ele>
        <time>2025-05-12T07:29:10Z</time>
      </trkpt>
      <trkpt lat="36.905948985368013" lon="-3.453310998156667">
        <ele>601.44000000000005</ele>
        <time>2025-05-12T07:29:11Z</time>
      </trkpt>
      <trkpt lat="36.905932975932956" lon="-3.453102959319949">
        <ele>600.48000000000002</ele>
        <time>2025-05-12T07:29:12Z</time>
      </trkpt>
      <trkpt lat="36.905912021175027" lon="-3.452900033444166">
        <ele>599.51999999999998</ele>
        <time>2025-05-12T07:29:13Z</time>
      </trkpt>
      <trkpt lat="36.905892994254827" lon="-3.452722001820803">
        <ele>598.55999999999995</ele>
        <time>2025-05-12T07:29:14Z</time>
      </trkpt>
      <trkpt lat="36.905906992033124" lon="-3.452572971582413">
        <ele>597.12</ele>
        <time>2025-05-12T07:29:15Z</time>
      </trkpt>
      <trkpt lat="36.90594001673162" lon="-3.452442968264222">
        <ele>596.63999999999999</ele>
        <time>2025-05-12T07:29:16Z</time>
      </trkpt>
      <trkpt lat="36.906029032543302" lon="-3.452349007129669">
        <ele>595.66999999999996</ele>
        <time>2025-05-12T07:29:17Z</time>
      </trkpt>
      <trkpt lat="36.906126011162996" lon="-3.45224498771131">
        <ele>594.71000000000004</ele>
        <time>2025-05-12T07:29:18Z</time>
      </trkpt>
      <trkpt lat="36.906922040507197" lon="-3.451390033587813">
        <ele>591.35000000000002</ele>
        <time>2025-05-12T07:29:25Z</time>
      </trkpt>
      <trkpt lat="36.906981971114874" lon="-3.451208984479308">
        <ele>591.35000000000002</ele>
        <time>2025-05-12T07:29:26Z</time>
      </trkpt>
      <trkpt lat="36.907003009691834" lon="-3.451071018353105">
        <ele>590.87</ele>
        <time>2025-05-12T07:29:27Z</time>
      </trkpt>
      <trkpt lat="36.907033016905189" lon="-3.450884018093348">
        <ele>589.90999999999997</ele>
        <time>2025-05-12T07:29:28Z</time>
      </trkpt>
      <trkpt lat="36.907064029946923" lon="-3.450680002570152">
        <ele>589.42999999999995</ele>
        <time>2025-05-12T07:29:29Z</time>
      </trkpt>
      <trkpt lat="36.907085990533233" lon="-3.450474981218576">
        <ele>588.95000000000005</ele>
        <time>2025-05-12T07:29:30Z</time>
      </trkpt>
      <trkpt lat="36.907072998583317" lon="-3.450306002050638">
        <ele>588.46000000000004</ele>
        <time>2025-05-12T07:29:31Z</time>
      </trkpt>
      <trkpt lat="36.906994041055441" lon="-3.450136017054319">
        <ele>587.5</ele>
        <time>2025-05-12T07:29:32Z</time>
      </trkpt>
      <trkpt lat="36.906892033293843" lon="-3.449984975159168">
        <ele>587.01999999999998</ele>
        <time>2025-05-12T07:29:33Z</time>
      </trkpt>
      <trkpt lat="36.906787008047104" lon="-3.449830999597907">
        <ele>586.53999999999996</ele>
        <time>2025-05-12T07:29:34Z</time>
      </trkpt>
      <trkpt lat="36.906703021377325" lon="-3.44970703125">
        <ele>586.05999999999995</ele>
        <time>2025-05-12T07:29:35Z</time>
      </trkpt>
      <trkpt lat="36.906566983088851" lon="-3.449632013216615">
        <ele>585.58000000000004</ele>
        <time>2025-05-12T07:29:36Z</time>
      </trkpt>
      <trkpt lat="36.906443014740944" lon="-3.449589014053345">
        <ele>584.62</ele>
        <time>2025-05-12T07:29:37Z</time>
      </trkpt>
      <trkpt lat="36.90630798228085" lon="-3.449567975476384">
        <ele>584.13999999999999</ele>
        <time>2025-05-12T07:29:38Z</time>
      </trkpt>
      <trkpt lat="36.906182002276182" lon="-3.449548026546836">
        <ele>583.65999999999997</ele>
        <time>2025-05-12T07:29:39Z</time>
      </trkpt>
      <trkpt lat="36.906093992292881" lon="-3.449523970484734">
        <ele>582.70000000000005</ele>
        <time>2025-05-12T07:29:40Z</time>
      </trkpt>
      <trkpt lat="36.906030038371682" lon="-3.449434032663703">
        <ele>581.73000000000002</ele>
        <time>2025-05-12T07:29:41Z</time>
      </trkpt>
      <trkpt lat="36.905991984531283" lon="-3.449328001588583">
        <ele>580.76999999999998</ele>
        <time>2025-05-12T07:29:42Z</time>
      </trkpt>
      <trkpt lat="36.90598301589489" lon="-3.449172014370561">
        <ele>579.33000000000004</ele>
        <time>2025-05-12T07:29:43Z</time>
      </trkpt>
      <trkpt lat="36.905973963439465" lon="-3.448989037424326">
        <ele>577.88999999999999</ele>
        <time>2025-05-12T07:29:44Z</time>
      </trkpt>
      <trkpt lat="36.905944962054491" lon="-3.448077002540231">
        <ele>572.60000000000002</ele>
        <time>2025-05-12T07:29:49Z</time>
      </trkpt>
      <trkpt lat="36.905967006459832" lon="-3.447909029200673">
        <ele>572.12</ele>
        <time>2025-05-12T07:29:50Z</time>
      </trkpt>
      <trkpt lat="36.906010005623102" lon="-3.447750024497509">
        <ele>571.15999999999997</ele>
        <time>2025-05-12T07:29:51Z</time>
      </trkpt>
      <trkpt lat="36.906231036409736" lon="-3.447089027613401">
        <ele>567.32000000000005</ele>
        <time>2025-05-12T07:29:56Z</time>
      </trkpt>
      <trkpt lat="36.906231036409736" lon="-3.446976961567998">
        <ele>566.83000000000004</ele>
        <time>2025-05-12T07:29:57Z</time>
      </trkpt>
      <trkpt lat="36.906216032803059" lon="-3.446877971291542">
        <ele>565.87</ele>
        <time>2025-05-12T07:29:58Z</time>
      </trkpt>
      <trkpt lat="36.906162975355983" lon="-3.446810999885202">
        <ele>564.90999999999997</ele>
        <time>2025-05-12T07:29:59Z</time>
      </trkpt>
      <trkpt lat="36.906064990907907" lon="-3.446789039298892">
        <ele>564.42999999999995</ele>
        <time>2025-05-12T07:30:00Z</time>
      </trkpt>
      <trkpt lat="36.905957031995058" lon="-3.446812005713582">
        <ele>563.47000000000003</ele>
        <time>2025-05-12T07:30:01Z</time>
      </trkpt>
      <trkpt lat="36.905844965949655" lon="-3.446879982948303">
        <ele>562.50999999999999</ele>
        <time>2025-05-12T07:30:02Z</time>
      </trkpt>
      <trkpt lat="36.905720997601748" lon="-3.446956006810069">
        <ele>562.02999999999997</ele>
        <time>2025-05-12T07:30:03Z</time>
      </trkpt>
      <trkpt lat="36.904965033754706" lon="-3.44745397567749">
        <ele>556.74000000000001</ele>
        <time>2025-05-12T07:30:09Z</time>
      </trkpt>
      <trkpt lat="36.904854979366064" lon="-3.447480965405703">
        <ele>556.25999999999999</ele>
        <time>2025-05-12T07:30:10Z</time>
      </trkpt>
      <trkpt lat="36.904746014624834" lon="-3.44747400842607">
        <ele>555.29999999999995</ele>
        <time>2025-05-12T07:30:11Z</time>
      </trkpt>
      <trkpt lat="36.904647024348378" lon="-3.44741097651422">
        <ele>554.82000000000005</ele>
        <time>2025-05-12T07:30:12Z</time>
      </trkpt>
      <trkpt lat="36.904563037678599" lon="-3.447306035086513">
        <ele>553.86000000000001</ele>
        <time>2025-05-12T07:30:13Z</time>
      </trkpt>
      <trkpt lat="36.904487013816833" lon="-3.447180977091193">
        <ele>552.40999999999997</ele>
        <time>2025-05-12T07:30:14Z</time>
      </trkpt>
      <trkpt lat="36.904463963583112" lon="-3.447030019015074">
        <ele>551.45000000000005</ele>
        <time>2025-05-12T07:30:15Z</time>
      </trkpt>
      <trkpt lat="36.904462035745382" lon="-3.44687202014029">
        <ele>550.00999999999999</ele>
        <time>2025-05-12T07:30:16Z</time>
      </trkpt>
      <trkpt lat="36.904490031301975" lon="-3.446711003780365">
        <ele>548.57000000000005</ele>
        <time>2025-05-12T07:30:17Z</time>
      </trkpt>
      <trkpt lat="36.904525989666581" lon="-3.446546969935298">
        <ele>547.13</ele>
        <time>2025-05-12T07:30:18Z</time>
      </trkpt>
      <trkpt lat="36.904590027406812" lon="-3.446397017687559">
        <ele>545.69000000000005</ele>
        <time>2025-05-12T07:30:19Z</time>
      </trkpt>
      <trkpt lat="36.904643001034856" lon="-3.446273971349001">
        <ele>544.72000000000003</ele>
        <time>2025-05-12T07:30:20Z</time>
      </trkpt>
      <trkpt lat="36.904760012403131" lon="-3.446194007992744">
        <ele>543.27999999999997</ele>
        <time>2025-05-12T07:30:21Z</time>
      </trkpt>
      <trkpt lat="36.904856991022825" lon="-3.446127958595753">
        <ele>542.32000000000005</ele>
        <time>2025-05-12T07:30:22Z</time>
      </trkpt>
      <trkpt lat="36.90495103597641" lon="-3.446064004674554">
        <ele>540.88</ele>
        <time>2025-05-12T07:30:23Z</time>
      </trkpt>
      <trkpt lat="36.905044997110963" lon="-3.445999966934323">
        <ele>539.91999999999996</ele>
        <time>2025-05-12T07:30:24Z</time>
      </trkpt>
      <trkpt lat="36.90512303262949" lon="-3.445931989699602">
        <ele>538.96000000000004</ele>
        <time>2025-05-12T07:30:25Z</time>
      </trkpt>
      <trkpt lat="36.905156979337335" lon="-3.445823024958372">
        <ele>537.50999999999999</ele>
        <time>2025-05-12T07:30:26Z</time>
      </trkpt>
      <trkpt lat="36.905149016529322" lon="-3.445688998326659">
        <ele>536.54999999999995</ele>
        <time>2025-05-12T07:30:27Z</time>
      </trkpt>
      <trkpt lat="36.905139964073896" lon="-3.445527981966734">
        <ele>535.59000000000003</ele>
        <time>2025-05-12T07:30:28Z</time>
      </trkpt>
      <trkpt lat="36.905085984617472" lon="-3.445365037769079">
        <ele>534.63</ele>
        <time>2025-05-12T07:30:29Z</time>
      </trkpt>
      <trkpt lat="36.905014989897609" lon="-3.445236040279269">
        <ele>533.66999999999996</ele>
        <time>2025-05-12T07:30:30Z</time>
      </trkpt>
      <trkpt lat="36.904894039034843" lon="-3.445167979225516">
        <ele>533.19000000000005</ele>
        <time>2025-05-12T07:30:31Z</time>
      </trkpt>
      <trkpt lat="36.90477903932333" lon="-3.445112993940711">
        <ele>532.71000000000004</ele>
        <time>2025-05-12T07:30:32Z</time>
      </trkpt>
      <trkpt lat="36.904670996591449" lon="-3.445062031969428">
        <ele>532.23000000000002</ele>
        <time>2025-05-12T07:30:33Z</time>
      </trkpt>
      <trkpt lat="36.904565971344709" lon="-3.445011992007494">
        <ele>532.23000000000002</ele>
        <time>2025-05-12T07:30:34Z</time>
      </trkpt>
      <trkpt lat="36.904485002160072" lon="-3.444920964539051">
        <ele>531.75</ele>
        <time>2025-05-12T07:30:35Z</time>
      </trkpt>
      <trkpt lat="36.904408978298306" lon="-3.444803031161428">
        <ele>531.75</ele>
        <time>2025-05-12T07:30:36Z</time>
      </trkpt>
      <trkpt lat="36.904335971921682" lon="-3.444667998701334">
        <ele>531.26999999999998</ele>
        <time>2025-05-12T07:30:37Z</time>
      </trkpt>
      <trkpt lat="36.904232958331704" lon="-3.444560961797833">
        <ele>530.78999999999996</ele>
        <time>2025-05-12T07:30:38Z</time>
      </trkpt>
      <trkpt lat="36.904115024954081" lon="-3.444491978734732">
        <ele>531.26999999999998</ele>
        <time>2025-05-12T07:30:39Z</time>
      </trkpt>
      <trkpt lat="36.903970018029213" lon="-3.444440010935068">
        <ele>531.26999999999998</ele>
        <time>2025-05-12T07:30:40Z</time>
      </trkpt>
      <trkpt lat="36.903829034417868" lon="-3.444421989843249">
        <ele>531.26999999999998</ele>
        <time>2025-05-12T07:30:41Z</time>
      </trkpt>
      <trkpt lat="36.903684027493" lon="-3.444415032863617">
        <ele>530.78999999999996</ele>
        <time>2025-05-12T07:30:42Z</time>
      </trkpt>
      <trkpt lat="36.903546983376145" lon="-3.444444034248591">
        <ele>530.78999999999996</ele>
        <time>2025-05-12T07:30:43Z</time>
      </trkpt>
      <trkpt lat="36.903408011421561" lon="-3.444474963471293">
        <ele>530.29999999999995</ele>
        <time>2025-05-12T07:30:44Z</time>
      </trkpt>
      <trkpt lat="36.902866959571838" lon="-3.444571020081639">
        <ele>528.86000000000001</ele>
        <time>2025-05-12T07:30:48Z</time>
      </trkpt>
      <trkpt lat="36.902734022587538" lon="-3.444546964019537">
        <ele>528.38</ele>
        <time>2025-05-12T07:30:49Z</time>
      </trkpt>
      <trkpt lat="36.902609970420599" lon="-3.444485021755099">
        <ele>527.89999999999998</ele>
        <time>2025-05-12T07:30:50Z</time>
      </trkpt>
      <trkpt lat="36.902490025386214" lon="-3.444416038691998">
        <ele>527.41999999999996</ele>
        <time>2025-05-12T07:30:51Z</time>
      </trkpt>
      <trkpt lat="36.902415007352829" lon="-3.44429399818182">
        <ele>526.94000000000005</ele>
        <time>2025-05-12T07:30:52Z</time>
      </trkpt>
      <trkpt lat="36.902337977662683" lon="-3.444169024005532">
        <ele>525.98000000000002</ele>
        <time>2025-05-12T07:30:53Z</time>
      </trkpt>
      <trkpt lat="36.902316017076373" lon="-3.444000966846943">
        <ele>525.5</ele>
        <time>2025-05-12T07:30:54Z</time>
      </trkpt>
      <trkpt lat="36.902303025126457" lon="-3.443806003779173">
        <ele>524.53999999999996</ele>
        <time>2025-05-12T07:30:55Z</time>
      </trkpt>
      <trkpt lat="36.90228802151978" lon="-3.443568963557482">
        <ele>524.05999999999995</ele>
        <time>2025-05-12T07:30:56Z</time>
      </trkpt>
      <trkpt lat="36.902203029021621" lon="-3.441867018118501">
        <ele>521.16999999999996</ele>
        <time>2025-05-12T07:31:02Z</time>
      </trkpt>
      <trkpt lat="36.902217026799917" lon="-3.441456975415349">
        <ele>520.21000000000004</ele>
        <time>2025-05-12T07:31:04Z</time>
      </trkpt>
      <trkpt lat="36.902283998206258" lon="-3.441298976540566">
        <ele>520.21000000000004</ele>
        <time>2025-05-12T07:31:05Z</time>
      </trkpt>
      <trkpt lat="36.902383994311094" lon="-3.441167967393994">
        <ele>519.73000000000002</ele>
        <time>2025-05-12T07:31:06Z</time>
      </trkpt>
      <trkpt lat="36.902512991800904" lon="-3.441032012924552">
        <ele>519.25</ele>
        <time>2025-05-12T07:31:07Z</time>
      </trkpt>
      <trkpt lat="36.90265397541225" lon="-3.440880971029401">
        <ele>518.76999999999998</ele>
        <time>2025-05-12T07:31:08Z</time>
      </trkpt>
      <trkpt lat="36.903841020539403" lon="-3.439714964479208">
        <ele>516.37</ele>
        <time>2025-05-12T07:31:16Z</time>
      </trkpt>
      <trkpt lat="36.903954008594155" lon="-3.439570963382721">
        <ele>515.88</ele>
        <time>2025-05-12T07:31:17Z</time>
      </trkpt>
      <trkpt lat="36.904055010527372" lon="-3.439427968114615">
        <ele>515.39999999999998</ele>
        <time>2025-05-12T07:31:18Z</time>
      </trkpt>
      <trkpt lat="36.904191970825195" lon="-3.439107025042176">
        <ele>514.91999999999996</ele>
        <time>2025-05-12T07:31:20Z</time>
      </trkpt>
      <trkpt lat="36.904230024665594" lon="-3.438936034217477">
        <ele>514.44000000000005</ele>
        <time>2025-05-12T07:31:21Z</time>
      </trkpt>
      <trkpt lat="36.9042659830302" lon="-3.438766971230507">
        <ele>514.44000000000005</ele>
        <time>2025-05-12T07:31:22Z</time>
      </trkpt>
      <trkpt lat="36.904332032427192" lon="-3.438461031764746">
        <ele>513.96000000000004</ele>
        <time>2025-05-12T07:31:24Z</time>
      </trkpt>
      <trkpt lat="36.904361033812165" lon="-3.438320970162749">
        <ele>513.96000000000004</ele>
        <time>2025-05-12T07:31:25Z</time>
      </trkpt>
      <trkpt lat="36.90439498052001" lon="-3.438187027350068">
        <ele>513.96000000000004</ele>
        <time>2025-05-12T07:31:26Z</time>
      </trkpt>
      <trkpt lat="36.904457006603479" lon="-3.438069010153413">
        <ele>513.96000000000004</ele>
        <time>2025-05-12T07:31:27Z</time>
      </trkpt>
      <trkpt lat="36.904516015201807" lon="-3.437956022098661">
        <ele>513.96000000000004</ele>
        <time>2025-05-12T07:31:28Z</time>
      </trkpt>
      <trkpt lat="36.904646018519998" lon="-3.437632983550429">
        <ele>513.48000000000002</ele>
        <time>2025-05-12T07:31:31Z</time>
      </trkpt>
      <trkpt lat="36.904669990763068" lon="-3.437513960525394">
        <ele>513</ele>
        <time>2025-05-12T07:31:32Z</time>
      </trkpt>
      <trkpt lat="36.904678037390113" lon="-3.437395021319389">
        <ele>512.51999999999998</ele>
        <time>2025-05-12T07:31:33Z</time>
      </trkpt>
      <trkpt lat="36.904640989378095" lon="-3.437283961102366">
        <ele>512.51999999999998</ele>
        <time>2025-05-12T07:31:34Z</time>
      </trkpt>
      <trkpt lat="36.904584998264909" lon="-3.437182959169149">
        <ele>512.51999999999998</ele>
        <time>2025-05-12T07:31:35Z</time>
      </trkpt>
      <trkpt lat="36.904510986059904" lon="-3.437091009691358">
        <ele>512.03999999999996</ele>
        <time>2025-05-12T07:31:36Z</time>
      </trkpt>
      <trkpt lat="36.904425993561745" lon="-3.437013980001211">
        <ele>512.03999999999996</ele>
        <time>2025-05-12T07:31:37Z</time>
      </trkpt>
      <trkpt lat="36.904342006891966" lon="-3.436937034130096">
        <ele>512.03999999999996</ele>
        <time>2025-05-12T07:31:38Z</time>
      </trkpt>
      <trkpt lat="36.904282998293638" lon="-3.436851035803556">
        <ele>512.03999999999996</ele>
        <time>2025-05-12T07:31:39Z</time>
      </trkpt>
      <trkpt lat="36.904236981645226" lon="-3.436748022213578">
        <ele>512.03999999999996</ele>
        <time>2025-05-12T07:31:40Z</time>
      </trkpt>
      <trkpt lat="36.904247961938381" lon="-3.436622964218259">
        <ele>512.03999999999996</ele>
        <time>2025-05-12T07:31:41Z</time>
      </trkpt>
      <trkpt lat="36.904260031878948" lon="-3.436491033062339">
        <ele>512.03999999999996</ele>
        <time>2025-05-12T07:31:42Z</time>
      </trkpt>
      <trkpt lat="36.904271012172103" lon="-3.436359018087387">
        <ele>511.56</ele>
        <time>2025-05-12T07:31:43Z</time>
      </trkpt>
      <trkpt lat="36.904397998005152" lon="-3.435722999274731">
        <ele>511.56</ele>
        <time>2025-05-12T07:31:49Z</time>
      </trkpt>
      <trkpt lat="36.904445020481944" lon="-3.435657033696771">
        <ele>511.56</ele>
        <time>2025-05-12T07:31:50Z</time>
      </trkpt>
      <trkpt lat="36.904506040737033" lon="-3.435629038140178">
        <ele>512.03999999999996</ele>
        <time>2025-05-12T07:31:51Z</time>
      </trkpt>
      <trkpt lat="36.904583992436528" lon="-3.435626020655036">
        <ele>511.56</ele>
        <time>2025-05-12T07:31:52Z</time>
      </trkpt>
      <trkpt lat="36.904670996591449" lon="-3.435620991513133">
        <ele>511.56</ele>
        <time>2025-05-12T07:31:53Z</time>
      </trkpt>
      <trkpt lat="36.904767975211143" lon="-3.435616968199611">
        <ele>511.07999999999998</ele>
        <time>2025-05-12T07:31:54Z</time>
      </trkpt>
      <trkpt lat="36.904868977144361" lon="-3.43561202287674">
        <ele>511.07999999999998</ele>
        <time>2025-05-12T07:31:55Z</time>
      </trkpt>
      <trkpt lat="36.904960004612803" lon="-3.435571035370231">
        <ele>510.12</ele>
        <time>2025-05-12T07:31:56Z</time>
      </trkpt>
      <trkpt lat="36.905023958534002" lon="-3.43550699763">
        <ele>509.63999999999999</ele>
        <time>2025-05-12T07:31:57Z</time>
      </trkpt>
      <trkpt lat="36.905044997110963" lon="-3.435422005131841">
        <ele>509.16000000000003</ele>
        <time>2025-05-12T07:31:58Z</time>
      </trkpt>
      <trkpt lat="36.905071986839175" lon="-3.435287978500128">
        <ele>509.16000000000003</ele>
        <time>2025-05-12T07:31:59Z</time>
      </trkpt>
      <trkpt lat="36.905071986839175" lon="-3.43518597073853">
        <ele>508.67000000000002</ele>
        <time>2025-05-12T07:32:00Z</time>
      </trkpt>
      <trkpt lat="36.905070981010795" lon="-3.435048004612327">
        <ele>508.19</ele>
        <time>2025-05-12T07:32:01Z</time>
      </trkpt>
      <trkpt lat="36.905018007382751" lon="-3.433547979220748">
        <ele>506.75</ele>
        <time>2025-05-12T07:32:12Z</time>
      </trkpt>
      <trkpt lat="36.90495103597641" lon="-3.432948002591729">
        <ele>505.31</ele>
        <time>2025-05-12T07:32:17Z</time>
      </trkpt>
      <trkpt lat="36.904898984357715" lon="-3.432841971516609">
        <ele>505.31</ele>
        <time>2025-05-12T07:32:18Z</time>
      </trkpt>
      <trkpt lat="36.904828995466232" lon="-3.432741975411773">
        <ele>505.31</ele>
        <time>2025-05-12T07:32:19Z</time>
      </trkpt>
      <trkpt lat="36.904741991311312" lon="-3.432667963206768">
        <ele>505.31</ele>
        <time>2025-05-12T07:32:20Z</time>
      </trkpt>
      <trkpt lat="36.904640989378095" lon="-3.432621024549007">
        <ele>505.31</ele>
        <time>2025-05-12T07:32:21Z</time>
      </trkpt>
      <trkpt lat="36.904066996648908" lon="-3.432358000427485">
        <ele>504.35000000000002</ele>
        <time>2025-05-12T07:32:26Z</time>
      </trkpt>
      <trkpt lat="36.903944034129381" lon="-3.432333022356033">
        <ele>503.38999999999999</ele>
        <time>2025-05-12T07:32:27Z</time>
      </trkpt>
      <trkpt lat="36.903820987790823" lon="-3.43234702013433">
        <ele>502.91000000000003</ele>
        <time>2025-05-12T07:32:28Z</time>
      </trkpt>
      <trkpt lat="36.90360096283257" lon="-3.432399993762374">
        <ele>501.94999999999999</ele>
        <time>2025-05-12T07:32:30Z</time>
      </trkpt>
      <trkpt lat="36.903501972556114" lon="-3.432488003745675">
        <ele>501.45999999999998</ele>
        <time>2025-05-12T07:32:31Z</time>
      </trkpt>
      <trkpt lat="36.903409017249942" lon="-3.432571990415454">
        <ele>501.45999999999998</ele>
        <time>2025-05-12T07:32:32Z</time>
      </trkpt>
      <trkpt lat="36.903116991743445" lon="-3.432796038687229">
        <ele>499.54000000000002</ele>
        <time>2025-05-12T07:32:35Z</time>
      </trkpt>
      <trkpt lat="36.903011966496706" lon="-3.432844989001751">
        <ele>499.06</ele>
        <time>2025-05-12T07:32:36Z</time>
      </trkpt>
      <trkpt lat="36.902907025068998" lon="-3.43288597650826">
        <ele>498.10000000000002</ele>
        <time>2025-05-12T07:32:37Z</time>
      </trkpt>
      <trkpt lat="36.902796970680356" lon="-3.432896034792066">
        <ele>497.13999999999999</ele>
        <time>2025-05-12T07:32:38Z</time>
      </trkpt>
      <trkpt lat="36.902685994282365" lon="-3.432905003428459">
        <ele>496.18000000000001</ele>
        <time>2025-05-12T07:32:39Z</time>
      </trkpt>
      <trkpt lat="36.902578035369515" lon="-3.432880025357008">
        <ele>495.22000000000003</ele>
        <time>2025-05-12T07:32:40Z</time>
      </trkpt>
      <trkpt lat="36.902468986809254" lon="-3.432854963466525">
        <ele>494.25999999999999</ele>
        <time>2025-05-12T07:32:41Z</time>
      </trkpt>
      <trkpt lat="36.90205299295485" lon="-3.432737030088902">
        <ele>490.88999999999999</ele>
        <time>2025-05-12T07:32:45Z</time>
      </trkpt>
      <trkpt lat="36.90196598879993" lon="-3.432694030925632">
        <ele>490.41000000000003</ele>
        <time>2025-05-12T07:32:46Z</time>
      </trkpt>
      <trkpt lat="36.901870016008615" lon="-3.432611972093582">
        <ele>489.93000000000001</ele>
        <time>2025-05-12T07:32:47Z</time>
      </trkpt>
      <trkpt lat="36.90185802988708" lon="-3.432508958503604">
        <ele>488.97000000000003</ele>
        <time>2025-05-12T07:32:48Z</time>
      </trkpt>
      <trkpt lat="36.901878984645009" lon="-3.43239102512598">
        <ele>488.49000000000001</ele>
        <time>2025-05-12T07:32:49Z</time>
      </trkpt>
      <trkpt lat="36.901913015171885" lon="-3.432275019586086">
        <ele>487.52999999999997</ele>
        <time>2025-05-12T07:32:50Z</time>
      </trkpt>
      <trkpt lat="36.901948973536491" lon="-3.432151973247528">
        <ele>486.56</ele>
        <time>2025-05-12T07:32:51Z</time>
      </trkpt>
      <trkpt lat="36.901960959658027" lon="-3.43202599324286">
        <ele>485.60000000000002</ele>
        <time>2025-05-12T07:32:52Z</time>
      </trkpt>
      <trkpt lat="36.901960959658027" lon="-3.43189699575305">
        <ele>484.63999999999999</ele>
        <time>2025-05-12T07:32:53Z</time>
      </trkpt>
      <trkpt lat="36.90190396271646" lon="-3.431777972728014">
        <ele>483.68000000000001</ele>
        <time>2025-05-12T07:32:54Z</time>
      </trkpt>
      <trkpt lat="36.901844032108784" lon="-3.431650986894965">
        <ele>482.24000000000001</ele>
        <time>2025-05-12T07:32:55Z</time>
      </trkpt>
      <trkpt lat="36.901783011853695" lon="-3.431524001061916">
        <ele>481.27999999999997</ele>
        <time>2025-05-12T07:32:56Z</time>
      </trkpt>
      <trkpt lat="36.901734983548522" lon="-3.431402966380119">
        <ele>479.83999999999997</ele>
        <time>2025-05-12T07:32:57Z</time>
      </trkpt>
      <trkpt lat="36.901704976335168" lon="-3.431282015517354">
        <ele>478.87</ele>
        <time>2025-05-12T07:32:58Z</time>
      </trkpt>
      <trkpt lat="36.90168502740562" lon="-3.431161986663938">
        <ele>477.91000000000003</ele>
        <time>2025-05-12T07:32:59Z</time>
      </trkpt>
      <trkpt lat="36.901717968285084" lon="-3.430916983634234">
        <ele>475.50999999999999</ele>
        <time>2025-05-12T07:33:01Z</time>
      </trkpt>
      <trkpt lat="36.901705982163548" lon="-3.430782034993172">
        <ele>475.02999999999997</ele>
        <time>2025-05-12T07:33:02Z</time>
      </trkpt>
      <trkpt lat="36.901674969121814" lon="-3.430649014189839">
        <ele>474.06999999999999</ele>
        <time>2025-05-12T07:33:03Z</time>
      </trkpt>
      <trkpt lat="36.901639010757208" lon="-3.430518005043268">
        <ele>473.11000000000001</ele>
        <time>2025-05-12T07:33:04Z</time>
      </trkpt>
      <trkpt lat="36.901593999937177" lon="-3.430390013381839">
        <ele>472.63</ele>
        <time>2025-05-12T07:33:05Z</time>
      </trkpt>
      <trkpt lat="36.901538008823991" lon="-3.430279958993197">
        <ele>471.66000000000003</ele>
        <time>2025-05-12T07:33:06Z</time>
      </trkpt>
      <trkpt lat="36.901237014681101" lon="-3.42970596626401">
        <ele>467.81999999999999</ele>
        <time>2025-05-12T07:33:12Z</time>
      </trkpt>
      <trkpt lat="36.901145987212658" lon="-3.429529024288058">
        <ele>466.38</ele>
        <time>2025-05-12T07:33:14Z</time>
      </trkpt>
      <trkpt lat="36.90106300637126" lon="-3.429236998781562">
        <ele>464.44999999999999</ele>
        <time>2025-05-12T07:33:17Z</time>
      </trkpt>
      <trkpt lat="36.901045991107821" lon="-3.429139014333487">
        <ele>463.97000000000003</ele>
        <time>2025-05-12T07:33:18Z</time>
      </trkpt>
      <trkpt lat="36.901028975844383" lon="-3.429049998521805">
        <ele>463.00999999999999</ele>
        <time>2025-05-12T07:33:19Z</time>
      </trkpt>
      <trkpt lat="36.901016989722848" lon="-3.428967017680407">
        <ele>462.05000000000001</ele>
        <time>2025-05-12T07:33:20Z</time>
      </trkpt>
      <trkpt lat="36.901016989722848" lon="-3.428887976333499">
        <ele>461.08999999999997</ele>
        <time>2025-05-12T07:33:21Z</time>
      </trkpt>
      <trkpt lat="36.90102000720799" lon="-3.428659988567233">
        <ele>459.17000000000002</ele>
        <time>2025-05-12T07:33:24Z</time>
      </trkpt>
      <trkpt lat="36.901124026626348" lon="-3.428593017160893">
        <ele>458.69</ele>
        <time>2025-05-12T07:33:25Z</time>
      </trkpt>
      <trkpt lat="36.901143975555897" lon="-3.428569966927171">
        <ele>458.69</ele>
        <time>2025-05-12T07:33:26Z</time>
      </trkpt>
      <trkpt lat="36.901424014940858" lon="-3.42833099886775">
        <ele>459.64999999999998</ele>
        <time>2025-05-12T07:33:30Z</time>
      </trkpt>
      <trkpt lat="36.901519987732172" lon="-3.428280958905816">
        <ele>461.08999999999997</ele>
        <time>2025-05-12T07:33:31Z</time>
      </trkpt>
      <trkpt lat="36.901627024635673" lon="-3.428241983056068">
        <ele>462.05000000000001</ele>
        <time>2025-05-12T07:33:32Z</time>
      </trkpt>
      <trkpt lat="36.901725009083748" lon="-3.428206024691463">
        <ele>463.00999999999999</ele>
        <time>2025-05-12T07:33:33Z</time>
      </trkpt>
      <trkpt lat="36.901855012401938" lon="-3.428194960579276">
        <ele>463.97000000000003</ele>
        <time>2025-05-12T07:33:34Z</time>
      </trkpt>
      <trkpt lat="36.901984009891748" lon="-3.428183980286121">
        <ele>464.93000000000001</ele>
        <time>2025-05-12T07:33:35Z</time>
      </trkpt>
      <trkpt lat="36.903431983664632" lon="-3.428104016929865">
        <ele>472.63</ele>
        <time>2025-05-12T07:33:44Z</time>
      </trkpt>
      <trkpt lat="36.904446026310325" lon="-3.427953980863094">
        <ele>480.31999999999999</ele>
        <time>2025-05-12T07:33:51Z</time>
      </trkpt>
      <trkpt lat="36.90527600236237" lon="-3.427811991423369">
        <ele>486.07999999999998</ele>
        <time>2025-05-12T07:33:59Z</time>
      </trkpt>
      <trkpt lat="36.906093992292881" lon="-3.427832024171948">
        <ele>490.41000000000003</ele>
        <time>2025-05-12T07:34:04Z</time>
      </trkpt>
      <trkpt lat="36.906357016414404" lon="-3.427826995030046">
        <ele>491.85000000000002</ele>
        <time>2025-05-12T07:34:06Z</time>
      </trkpt>
      <trkpt lat="36.906463969498873" lon="-3.427802016958594">
        <ele>492.81</ele>
        <time>2025-05-12T07:34:07Z</time>
      </trkpt>
      <trkpt lat="36.906648958101869" lon="-3.427759017795324">
        <ele>494.74000000000001</ele>
        <time>2025-05-12T07:34:09Z</time>
      </trkpt>
      <trkpt lat="36.906727999448776" lon="-3.427766980603337">
        <ele>495.69999999999999</ele>
        <time>2025-05-12T07:34:10Z</time>
      </trkpt>
      <trkpt lat="36.906806034967303" lon="-3.42779497615993">
        <ele>496.18000000000001</ele>
        <time>2025-05-12T07:34:11Z</time>
      </trkpt>
      <trkpt lat="36.906873006373644" lon="-3.427861025556922">
        <ele>496.66000000000003</ele>
        <time>2025-05-12T07:34:12Z</time>
      </trkpt>
      <trkpt lat="36.906905025243759" lon="-3.42796303331852">
        <ele>497.13999999999999</ele>
        <time>2025-05-12T07:34:13Z</time>
      </trkpt>
      <trkpt lat="36.906936960294843" lon="-3.428070992231369">
        <ele>498.10000000000002</ele>
        <time>2025-05-12T07:34:14Z</time>
      </trkpt>
      <trkpt lat="36.906895972788334" lon="-3.428172999992967">
        <ele>498.57999999999998</ele>
        <time>2025-05-12T07:34:15Z</time>
      </trkpt>
      <trkpt lat="36.906846016645432" lon="-3.428281964734197">
        <ele>499.06</ele>
        <time>2025-05-12T07:34:16Z</time>
      </trkpt>
      <trkpt lat="36.906776027753949" lon="-3.42835103161633">
        <ele>500.01999999999998</ele>
        <time>2025-05-12T07:34:17Z</time>
      </trkpt>
      <trkpt lat="36.906679971143603" lon="-3.428405011072755">
        <ele>500.5</ele>
        <time>2025-05-12T07:34:18Z</time>
      </trkpt>
      <trkpt lat="36.906562959775329" lon="-3.428435018286109">
        <ele>500.98000000000002</ele>
        <time>2025-05-12T07:34:19Z</time>
      </trkpt>
      <trkpt lat="36.906442008912563" lon="-3.428404005244374">
        <ele>501.94999999999999</ele>
        <time>2025-05-12T07:34:20Z</time>
      </trkpt>
      <trkpt lat="36.906312005594373" lon="-3.428348014131188">
        <ele>502.43000000000001</ele>
        <time>2025-05-12T07:34:21Z</time>
      </trkpt>
      <trkpt lat="36.906175967305899" lon="-3.428291017189622">
        <ele>503.38999999999999</ele>
        <time>2025-05-12T07:34:22Z</time>
      </trkpt>
      <trkpt lat="36.906044036149979" lon="-3.428246006369591">
        <ele>504.35000000000002</ele>
        <time>2025-05-12T07:34:23Z</time>
      </trkpt>
      <trkpt lat="36.905915960669518" lon="-3.428233014419675">
        <ele>505.31</ele>
        <time>2025-05-12T07:34:24Z</time>
      </trkpt>
      <trkpt lat="36.905810013413429" lon="-3.42826503328979">
        <ele>505.31</ele>
        <time>2025-05-12T07:34:25Z</time>
      </trkpt>
      <trkpt lat="36.90572896040976" lon="-3.428327981382608">
        <ele>505.79000000000002</ele>
        <time>2025-05-12T07:34:26Z</time>
      </trkpt>
      <trkpt lat="36.905672969296575" lon="-3.428429989144206">
        <ele>506.26999999999998</ele>
        <time>2025-05-12T07:34:27Z</time>
      </trkpt>
      <trkpt lat="36.905672969296575" lon="-3.428552029654384">
        <ele>507.23000000000002</ele>
        <time>2025-05-12T07:34:28Z</time>
      </trkpt>
      <trkpt lat="36.905720997601748" lon="-3.428679015487433">
        <ele>508.19</ele>
        <time>2025-05-12T07:34:29Z</time>
      </trkpt>
      <trkpt lat="36.905797021463513" lon="-3.428798960521817">
        <ele>508.67000000000002</ele>
        <time>2025-05-12T07:34:30Z</time>
      </trkpt>
      <trkpt lat="36.905901962891221" lon="-3.428880013525486">
        <ele>509.16000000000003</ele>
        <time>2025-05-12T07:34:31Z</time>
      </trkpt>
      <trkpt lat="36.906030960381031" lon="-3.428956959396601">
        <ele>509.63999999999999</ele>
        <time>2025-05-12T07:34:32Z</time>
      </trkpt>
      <trkpt lat="36.906173033639789" lon="-3.429006999358535">
        <ele>511.07999999999998</ele>
        <time>2025-05-12T07:34:33Z</time>
      </trkpt>
      <trkpt lat="36.906326003372669" lon="-3.42906097881496">
        <ele>512.03999999999996</ele>
        <time>2025-05-12T07:34:34Z</time>
      </trkpt>
      <trkpt lat="36.906964033842087" lon="-3.429322997108102">
        <ele>516.37</ele>
        <time>2025-05-12T07:34:38Z</time>
      </trkpt>
      <trkpt lat="36.907111974433064" lon="-3.429454006254673">
        <ele>517.33000000000004</ele>
        <time>2025-05-12T07:34:39Z</time>
      </trkpt>
      <trkpt lat="36.907587982714176" lon="-3.429857008159161">
        <ele>520.21000000000004</ele>
        <time>2025-05-12T07:34:42Z</time>
      </trkpt>
      <trkpt lat="36.907761991024017" lon="-3.429960021749139">
        <ele>522.13</ele>
        <time>2025-05-12T07:34:43Z</time>
      </trkpt>
      <trkpt lat="36.908162981271744" lon="-3.430223967880011">
        <ele>526.46000000000004</ele>
        <time>2025-05-12T07:34:46Z</time>
      </trkpt>
      <trkpt lat="36.908243028447032" lon="-3.430325975641608">
        <ele>527.89999999999998</ele>
        <time>2025-05-12T07:34:47Z</time>
      </trkpt>
      <trkpt lat="36.908301031216979" lon="-3.430456984788179">
        <ele>529.82000000000005</ele>
        <time>2025-05-12T07:34:48Z</time>
      </trkpt>
      <trkpt lat="36.908364985138178" lon="-3.430605009198189">
        <ele>530.78999999999996</ele>
        <time>2025-05-12T07:34:49Z</time>
      </trkpt>
      <trkpt lat="36.908446960151196" lon="-3.430749010294676">
        <ele>531.75</ele>
        <time>2025-05-12T07:34:50Z</time>
      </trkpt>
      <trkpt lat="36.908555002883077" lon="-3.430878007784486">
        <ele>532.71000000000004</ele>
        <time>2025-05-12T07:34:51Z</time>
      </trkpt>
      <trkpt lat="36.90868902951479" lon="-3.430964006111026">
        <ele>534.14999999999998</ele>
        <time>2025-05-12T07:34:52Z</time>
      </trkpt>
      <trkpt lat="36.908806040883064" lon="-3.431039024144411">
        <ele>535.11000000000001</ele>
        <time>2025-05-12T07:34:53Z</time>
      </trkpt>
      <trkpt lat="36.908955993130803" lon="-3.43105997890234">
        <ele>536.07000000000005</ele>
        <time>2025-05-12T07:34:54Z</time>
      </trkpt>
      <trkpt lat="36.909084990620613" lon="-3.431043969467282">
        <ele>537.02999999999997</ele>
        <time>2025-05-12T07:34:55Z</time>
      </trkpt>
      <trkpt lat="36.909231003373861" lon="-3.430997030809522">
        <ele>537.99000000000001</ele>
        <time>2025-05-12T07:34:56Z</time>
      </trkpt>
      <trkpt lat="36.910047987475991" lon="-3.430659994482994">
        <ele>545.69000000000005</ele>
        <time>2025-05-12T07:35:01Z</time>
      </trkpt>
      <trkpt lat="36.910182014107704" lon="-3.430562010034919">
        <ele>547.61000000000001</ele>
        <time>2025-05-12T07:35:02Z</time>
      </trkpt>
      <trkpt lat="36.910314029082656" lon="-3.430465031415224">
        <ele>549.04999999999995</ele>
        <time>2025-05-12T07:35:03Z</time>
      </trkpt>
      <trkpt lat="36.910552997142076" lon="-3.430221034213901">
        <ele>551.92999999999995</ele>
        <time>2025-05-12T07:35:05Z</time>
      </trkpt>
      <trkpt lat="36.910666991025209" lon="-3.430083990097046">
        <ele>553.86000000000001</ele>
        <time>2025-05-12T07:35:06Z</time>
      </trkpt>
      <trkpt lat="36.910768998786807" lon="-3.429936971515417">
        <ele>555.29999999999995</ele>
        <time>2025-05-12T07:35:07Z</time>
      </trkpt>
      <trkpt lat="36.910871006548405" lon="-3.42979003675282">
        <ele>556.25999999999999</ele>
        <time>2025-05-12T07:35:08Z</time>
      </trkpt>
      <trkpt lat="36.910974020138383" lon="-3.429642012342811">
        <ele>557.70000000000005</ele>
        <time>2025-05-12T07:35:09Z</time>
      </trkpt>
      <trkpt lat="36.911773988977075" lon="-3.428547000512481">
        <ele>565.87</ele>
        <time>2025-05-12T07:35:15Z</time>
      </trkpt>
      <trkpt lat="36.912273969501257" lon="-3.427831018343568">
        <ele>570.67999999999995</ele>
        <time>2025-05-12T07:35:19Z</time>
      </trkpt>
      <trkpt lat="36.912358961999416" lon="-3.427645023912191">
        <ele>572.12</ele>
        <time>2025-05-12T07:35:20Z</time>
      </trkpt>
      <trkpt lat="36.912415036931634" lon="-3.427448971197009">
        <ele>573.08000000000004</ele>
        <time>2025-05-12T07:35:21Z</time>
      </trkpt>
      <trkpt lat="36.912573035806417" lon="-3.42682896181941">
        <ele>577.40999999999997</ele>
        <time>2025-05-12T07:35:25Z</time>
      </trkpt>
      <trkpt lat="36.912629026919603" lon="-3.426759978756309">
        <ele>578.37</ele>
        <time>2025-05-12T07:35:26Z</time>
      </trkpt>
      <trkpt lat="36.91270999610424" lon="-3.426704993471503">
        <ele>578.85000000000002</ele>
        <time>2025-05-12T07:35:27Z</time>
      </trkpt>
      <trkpt lat="36.912781996652484" lon="-3.426722008734942">
        <ele>579.80999999999995</ele>
        <time>2025-05-12T07:35:28Z</time>
      </trkpt>
      <trkpt lat="36.912827007472515" lon="-3.426774982362986">
        <ele>580.76999999999998</ele>
        <time>2025-05-12T07:35:29Z</time>
      </trkpt>
      <trkpt lat="36.912864977493882" lon="-3.426854023709893">
        <ele>581.25</ele>
        <time>2025-05-12T07:35:30Z</time>
      </trkpt>
      <trkpt lat="36.91288199275732" lon="-3.426967011764646">
        <ele>582.22000000000003</ele>
        <time>2025-05-12T07:35:31Z</time>
      </trkpt>
      <trkpt lat="36.912856008857489" lon="-3.427122998982668">
        <ele>582.70000000000005</ele>
        <time>2025-05-12T07:35:32Z</time>
      </trkpt>
      <trkpt lat="36.912824995815754" lon="-3.427308993414044">
        <ele>583.65999999999997</ele>
        <time>2025-05-12T07:35:33Z</time>
      </trkpt>
      <trkpt lat="36.912803035229445" lon="-3.427510997280479">
        <ele>584.13999999999999</ele>
        <time>2025-05-12T07:35:34Z</time>
      </trkpt>
      <trkpt lat="36.912743020802736" lon="-3.428143998607993">
        <ele>586.05999999999995</ele>
        <time>2025-05-12T07:35:37Z</time>
      </trkpt>
      <trkpt lat="36.912692980840802" lon="-3.428303003311157">
        <ele>586.53999999999996</ele>
        <time>2025-05-12T07:35:38Z</time>
      </trkpt>
      <trkpt lat="36.912582004442811" lon="-3.428453961387277">
        <ele>587.5</ele>
        <time>2025-05-12T07:35:39Z</time>
      </trkpt>
      <trkpt lat="36.911858981475234" lon="-3.429474961012602">
        <ele>591.83000000000004</ele>
        <time>2025-05-12T07:35:46Z</time>
      </trkpt>
      <trkpt lat="36.911836015060544" lon="-3.429602030664682">
        <ele>592.30999999999995</ele>
        <time>2025-05-12T07:35:47Z</time>
      </trkpt>
      <trkpt lat="36.91185001283884" lon="-3.429739996790886">
        <ele>593.26999999999998</ele>
        <time>2025-05-12T07:35:48Z</time>
      </trkpt>
      <trkpt lat="36.911882031708956" lon="-3.430046020075679">
        <ele>594.71000000000004</ele>
        <time>2025-05-12T07:35:50Z</time>
      </trkpt>
      <trkpt lat="36.911878008395433" lon="-3.430212987586856">
        <ele>595.66999999999996</ele>
        <time>2025-05-12T07:35:51Z</time>
      </trkpt>
      <trkpt lat="36.911797039210796" lon="-3.430353971198201">
        <ele>596.63999999999999</ele>
        <time>2025-05-12T07:35:52Z</time>
      </trkpt>
      <trkpt lat="36.911709029227495" lon="-3.430509036406875">
        <ele>597.60000000000002</ele>
        <time>2025-05-12T07:35:53Z</time>
      </trkpt>
      <trkpt lat="36.911619007587433" lon="-3.430668041110039">
        <ele>598.55999999999995</ele>
        <time>2025-05-12T07:35:54Z</time>
      </trkpt>
      <trkpt lat="36.911529991775751" lon="-3.430825034156442">
        <ele>600</ele>
        <time>2025-05-12T07:35:55Z</time>
      </trkpt>
      <trkpt lat="36.911443993449211" lon="-3.430981021374464">
        <ele>600.96000000000004</ele>
        <time>2025-05-12T07:35:56Z</time>
      </trkpt>
      <trkpt lat="36.911413986235857" lon="-3.431152012199163">
        <ele>601.91999999999996</ele>
        <time>2025-05-12T07:35:57Z</time>
      </trkpt>
      <trkpt lat="36.911383979022503" lon="-3.431328032165766">
        <ele>602.88</ele>
        <time>2025-05-12T07:35:58Z</time>
      </trkpt>
      <trkpt lat="36.911368975415826" lon="-3.431519977748394">
        <ele>604.33000000000004</ele>
        <time>2025-05-12T07:35:59Z</time>
      </trkpt>
      <trkpt lat="36.911404011771083" lon="-3.431709995493293">
        <ele>605.28999999999996</ele>
        <time>2025-05-12T07:36:00Z</time>
      </trkpt>
      <trkpt lat="36.911438964307308" lon="-3.431900013238192">
        <ele>606.25</ele>
        <time>2025-05-12T07:36:01Z</time>
      </trkpt>
      <trkpt lat="36.911463020369411" lon="-3.432085001841188">
        <ele>607.69000000000005</ele>
        <time>2025-05-12T07:36:02Z</time>
      </trkpt>
      <trkpt lat="36.911447010934353" lon="-3.432239983230829">
        <ele>609.13</ele>
        <time>2025-05-12T07:36:03Z</time>
      </trkpt>
      <trkpt lat="36.91139898262918" lon="-3.432389013469219">
        <ele>610.57000000000005</ele>
        <time>2025-05-12T07:36:04Z</time>
      </trkpt>
      <trkpt lat="36.911346009001136" lon="-3.432536032050848">
        <ele>612.01999999999998</ele>
        <time>2025-05-12T07:36:05Z</time>
      </trkpt>
      <trkpt lat="36.911294041201472" lon="-3.432678021490574">
        <ele>612.98000000000002</ele>
        <time>2025-05-12T07:36:06Z</time>
      </trkpt>
      <trkpt lat="36.911295969039202" lon="-3.432811964303255">
        <ele>613.46000000000004</ele>
        <time>2025-05-12T07:36:07Z</time>
      </trkpt>
      <trkpt lat="36.911343997344375" lon="-3.432919001206756">
        <ele>614.41999999999996</ele>
        <time>2025-05-12T07:36:08Z</time>
      </trkpt>
      <trkpt lat="36.911422032862902" lon="-3.432996030896902">
        <ele>615.38</ele>
        <time>2025-05-12T07:36:09Z</time>
      </trkpt>
      <trkpt lat="36.91152798011899" lon="-3.433023020625114">
        <ele>615.86000000000001</ele>
        <time>2025-05-12T07:36:10Z</time>
      </trkpt>
      <trkpt lat="36.911624958738685" lon="-3.432983960956335">
        <ele>616.34000000000003</ele>
        <time>2025-05-12T07:36:11Z</time>
      </trkpt>
      <trkpt lat="36.911702994257212" lon="-3.43290600925684">
        <ele>617.29999999999995</ele>
        <time>2025-05-12T07:36:12Z</time>
      </trkpt>
      <trkpt lat="36.911731995642185" lon="-3.432787992060185">
        <ele>618.25999999999999</ele>
        <time>2025-05-12T07:36:14Z</time>
      </trkpt>
      <trkpt lat="36.911770971491933" lon="-3.432335034012795">
        <ele>618.75</ele>
        <time>2025-05-12T07:36:16Z</time>
      </trkpt>
      <trkpt lat="36.912045981734991" lon="-3.430996024981141">
        <ele>627.39999999999998</ele>
        <time>2025-05-12T07:36:24Z</time>
      </trkpt>
      <trkpt lat="36.912110019475222" lon="-3.430845988914371">
        <ele>628.84000000000003</ele>
        <time>2025-05-12T07:36:25Z</time>
      </trkpt>
      <trkpt lat="36.912432974204421" lon="-3.430262021720409">
        <ele>633.64999999999998</ele>
        <time>2025-05-12T07:36:30Z</time>
      </trkpt>
      <trkpt lat="36.912454012781382" lon="-3.430137969553471">
        <ele>634.61000000000001</ele>
        <time>2025-05-12T07:36:31Z</time>
      </trkpt>
      <trkpt lat="36.912459963932633" lon="-3.430009977892041">
        <ele>635.57000000000005</ele>
        <time>2025-05-12T07:36:32Z</time>
      </trkpt>
      <trkpt lat="36.912465998902917" lon="-3.42987603507936">
        <ele>636.04999999999995</ele>
        <time>2025-05-12T07:36:33Z</time>
      </trkpt>
      <trkpt lat="36.9124720338732" lon="-3.429747959598899">
        <ele>637.00999999999999</ele>
        <time>2025-05-12T07:36:34Z</time>
      </trkpt>
      <trkpt lat="36.912501035258174" lon="-3.429634971544147">
        <ele>637.97000000000003</ele>
        <time>2025-05-12T07:36:35Z</time>
      </trkpt>
      <trkpt lat="36.912582004442811" lon="-3.429557019844651">
        <ele>638.92999999999995</ele>
        <time>2025-05-12T07:36:36Z</time>
      </trkpt>
      <trkpt lat="36.912685018032789" lon="-3.429485019296408">
        <ele>639.88999999999999</ele>
        <time>2025-05-12T07:36:37Z</time>
      </trkpt>
      <trkpt lat="36.912792976945639" lon="-3.429410001263022">
        <ele>640.86000000000001</ele>
        <time>2025-05-12T07:36:38Z</time>
      </trkpt>
      <trkpt lat="36.91303102299571" lon="-3.429236998781562">
        <ele>643.25999999999999</ele>
        <time>2025-05-12T07:36:40Z</time>
      </trkpt>
      <trkpt lat="36.913146022707224" lon="-3.429115964099765">
        <ele>644.22000000000003</ele>
        <time>2025-05-12T07:36:41Z</time>
      </trkpt>
      <trkpt lat="36.913376022130251" lon="-3.428871966898441">
        <ele>647.10000000000002</ele>
        <time>2025-05-12T07:36:43Z</time>
      </trkpt>
      <trkpt lat="36.913524968549609" lon="-3.428825028240681">
        <ele>648.07000000000005</ele>
        <time>2025-05-12T07:36:44Z</time>
      </trkpt>
      <trkpt lat="36.913667041808367" lon="-3.42878102324903">
        <ele>649.50999999999999</ele>
        <time>2025-05-12T07:36:45Z</time>
      </trkpt>
      <trkpt lat="36.913822023198009" lon="-3.428755961358547">
        <ele>650.95000000000005</ele>
        <time>2025-05-12T07:36:46Z</time>
      </trkpt>
      <trkpt lat="36.913984967395663" lon="-3.428741963580251">
        <ele>651.90999999999997</ele>
        <time>2025-05-12T07:36:47Z</time>
      </trkpt>
      <trkpt lat="36.914530964568257" lon="-3.42867499217391">
        <ele>656.24000000000001</ele>
        <time>2025-05-12T07:36:51Z</time>
      </trkpt>
      <trkpt lat="36.914629032835364" lon="-3.428634004667401">
        <ele>657.20000000000005</ele>
        <time>2025-05-12T07:36:52Z</time>
      </trkpt>
      <trkpt lat="36.914713019505143" lon="-3.428598968312144">
        <ele>657.67999999999995</ele>
        <time>2025-05-12T07:36:53Z</time>
      </trkpt>
      <trkpt lat="36.914759958162904" lon="-3.428514981642366">
        <ele>658.63999999999999</ele>
        <time>2025-05-12T07:36:54Z</time>
      </trkpt>
      <trkpt lat="36.914800023660064" lon="-3.428420014679432">
        <ele>659.12</ele>
        <time>2025-05-12T07:36:55Z</time>
      </trkpt>
      <trkpt lat="36.914834976196289" lon="-3.428335022181273">
        <ele>659.60000000000002</ele>
        <time>2025-05-12T07:36:56Z</time>
      </trkpt>
      <trkpt lat="36.914893984794617" lon="-3.42824500054121">
        <ele>660.08000000000004</ele>
        <time>2025-05-12T07:36:57Z</time>
      </trkpt>
      <trkpt lat="36.914950981736183" lon="-3.428156990557909">
        <ele>660.55999999999995</ele>
        <time>2025-05-12T07:36:58Z</time>
      </trkpt>
      <trkpt lat="36.915009990334511" lon="-3.428065041080117">
        <ele>661.51999999999998</ele>
        <time>2025-05-12T07:36:59Z</time>
      </trkpt>
      <trkpt lat="36.915474012494087" lon="-3.427676958963275">
        <ele>665.85000000000002</ele>
        <time>2025-05-12T07:37:04Z</time>
      </trkpt>
      <trkpt lat="36.915575014427304" lon="-3.427632031962276">
        <ele>666.80999999999995</ele>
        <time>2025-05-12T07:37:05Z</time>
      </trkpt>
      <trkpt lat="36.915686996653676" lon="-3.427638988941908">
        <ele>667.28999999999996</ele>
        <time>2025-05-12T07:37:06Z</time>
      </trkpt>
      <trkpt lat="36.916462993249297" lon="-3.427671007812023">
        <ele>673.53999999999996</ele>
        <time>2025-05-12T07:37:12Z</time>
      </trkpt>
      <trkpt lat="36.916587967425585" lon="-3.427630020305514">
        <ele>674.5</ele>
        <time>2025-05-12T07:37:13Z</time>
      </trkpt>
      <trkpt lat="36.916697015985847" lon="-3.427548967301846">
        <ele>675.46000000000004</ele>
        <time>2025-05-12T07:37:14Z</time>
      </trkpt>
      <trkpt lat="36.916777985170484" lon="-3.427422987297177">
        <ele>676.41999999999996</ele>
        <time>2025-05-12T07:37:15Z</time>
      </trkpt>
      <trkpt lat="36.916864989325404" lon="-3.427289966493845">
        <ele>677.38999999999999</ele>
        <time>2025-05-12T07:37:16Z</time>
      </trkpt>
      <trkpt lat="36.916954005137086" lon="-3.427153006196022">
        <ele>678.35000000000002</ele>
        <time>2025-05-12T07:37:17Z</time>
      </trkpt>
      <trkpt lat="36.91713597625494" lon="-3.426872966811061">
        <ele>680.26999999999998</ele>
        <time>2025-05-12T07:37:19Z</time>
      </trkpt>
      <trkpt lat="36.917228009551764" lon="-3.426731983199716">
        <ele>680.75</ele>
        <time>2025-05-12T07:37:20Z</time>
      </trkpt>
      <trkpt lat="36.917292969301343" lon="-3.426563004031777">
        <ele>681.71000000000004</ele>
        <time>2025-05-12T07:37:21Z</time>
      </trkpt>
      <trkpt lat="36.917338985949755" lon="-3.426392013207078">
        <ele>682.66999999999996</ele>
        <time>2025-05-12T07:37:22Z</time>
      </trkpt>
      <trkpt lat="36.917386008426547" lon="-3.426218004897237">
        <ele>683.63</ele>
        <time>2025-05-12T07:37:23Z</time>
      </trkpt>
      <trkpt lat="36.917820023372769" lon="-3.425217038020492">
        <ele>687.48000000000002</ele>
        <time>2025-05-12T07:37:29Z</time>
      </trkpt>
      <trkpt lat="36.917937034741044" lon="-3.425075970590115">
        <ele>687.96000000000004</ele>
        <time>2025-05-12T07:37:30Z</time>
      </trkpt>
      <trkpt lat="36.918821996077895" lon="-3.424027981236577">
        <ele>693.25</ele>
        <time>2025-05-12T07:37:37Z</time>
      </trkpt>
      <trkpt lat="36.919385008513927" lon="-3.423361033201218">
        <ele>696.61000000000001</ele>
        <time>2025-05-12T07:37:42Z</time>
      </trkpt>
      <trkpt lat="36.919464971870184" lon="-3.423264976590872">
        <ele>697.09000000000003</ele>
        <time>2025-05-12T07:37:43Z</time>
      </trkpt>
      <trkpt lat="36.919508976861835" lon="-3.423161040991545">
        <ele>698.04999999999995</ele>
        <time>2025-05-12T07:37:44Z</time>
      </trkpt>
      <trkpt lat="36.919500008225441" lon="-3.423058027401567">
        <ele>698.52999999999997</ele>
        <time>2025-05-12T07:37:45Z</time>
      </trkpt>
      <trkpt lat="36.919471006840467" lon="-3.422946967184544">
        <ele>699.01999999999998</ele>
        <time>2025-05-12T07:37:46Z</time>
      </trkpt>
      <trkpt lat="36.919390959665179" lon="-3.422855017706752">
        <ele>699.5</ele>
        <time>2025-05-12T07:37:47Z</time>
      </trkpt>
      <trkpt lat="36.919302027672529" lon="-3.422750998288393">
        <ele>700.46000000000004</ele>
        <time>2025-05-12T07:37:48Z</time>
      </trkpt>
      <trkpt lat="36.919203959405422" lon="-3.422638010233641">
        <ele>701.41999999999996</ele>
        <time>2025-05-12T07:37:49Z</time>
      </trkpt>
      <trkpt lat="36.919027017429471" lon="-3.422384960576892">
        <ele>703.34000000000003</ele>
        <time>2025-05-12T07:37:51Z</time>
      </trkpt>
      <trkpt lat="36.918973037973046" lon="-3.422248000279069">
        <ele>704.29999999999995</ele>
        <time>2025-05-12T07:37:52Z</time>
      </trkpt>
      <trkpt lat="36.918953005224466" lon="-3.422068962827325">
        <ele>705.25999999999999</ele>
        <time>2025-05-12T07:37:53Z</time>
      </trkpt>
      <trkpt lat="36.918892990797758" lon="-3.42113102786243">
        <ele>710.07000000000005</ele>
        <time>2025-05-12T07:37:58Z</time>
      </trkpt>
      <trkpt lat="36.918913023546338" lon="-3.420995995402336">
        <ele>711.02999999999997</ele>
        <time>2025-05-12T07:37:59Z</time>
      </trkpt>
      <trkpt lat="36.919003967195749" lon="-3.420892981812358">
        <ele>711.50999999999999</ele>
        <time>2025-05-12T07:38:00Z</time>
      </trkpt>
      <trkpt lat="36.919107986614108" lon="-3.420775970444083">
        <ele>711.99000000000001</ele>
        <time>2025-05-12T07:38:01Z</time>
      </trkpt>
      <trkpt lat="36.91921996884048" lon="-3.420648984611034">
        <ele>712.95000000000005</ele>
        <time>2025-05-12T07:38:02Z</time>
      </trkpt>
      <trkpt lat="36.919334968551993" lon="-3.420517975464463">
        <ele>713.44000000000005</ele>
        <time>2025-05-12T07:38:03Z</time>
      </trkpt>
      <trkpt lat="36.919424990192056" lon="-3.420371962711215">
        <ele>713.91999999999996</ele>
        <time>2025-05-12T07:38:04Z</time>
      </trkpt>
      <trkpt lat="36.919474024325609" lon="-3.420199966058135">
        <ele>714.39999999999998</ele>
        <time>2025-05-12T07:38:05Z</time>
      </trkpt>
      <trkpt lat="36.91952196881175" lon="-3.420030986890197">
        <ele>714.88</ele>
        <time>2025-05-12T07:38:06Z</time>
      </trkpt>
      <trkpt lat="36.919568991288543" lon="-3.41986795887351">
        <ele>715.36000000000001</ele>
        <time>2025-05-12T07:38:07Z</time>
      </trkpt>
      <trkpt lat="36.919640991836786" lon="-3.419748013839126">
        <ele>715.84000000000003</ele>
        <time>2025-05-12T07:38:08Z</time>
      </trkpt>
      <trkpt lat="36.919709974899888" lon="-3.41964902356267">
        <ele>716.32000000000005</ele>
        <time>2025-05-12T07:38:09Z</time>
      </trkpt>
      <trkpt lat="36.919789016246796" lon="-3.419614993035793">
        <ele>716.32000000000005</ele>
        <time>2025-05-12T07:38:10Z</time>
      </trkpt>
      <trkpt lat="36.919888006523252" lon="-3.419605018571019">
        <ele>716.79999999999995</ele>
        <time>2025-05-12T07:38:11Z</time>
      </trkpt>
      <trkpt lat="36.920009041205049" lon="-3.419646006077528">
        <ele>716.79999999999995</ele>
        <time>2025-05-12T07:38:12Z</time>
      </trkpt>
      <trkpt lat="36.92014398984611" lon="-3.419705014675856">
        <ele>717.27999999999997</ele>
        <time>2025-05-12T07:38:13Z</time>
      </trkpt>
      <trkpt lat="36.920286985114217" lon="-3.41978196054697">
        <ele>717.75999999999999</ele>
        <time>2025-05-12T07:38:14Z</time>
      </trkpt>
      <trkpt lat="36.921467995271087" lon="-3.42042300850153">
        <ele>722.57000000000005</ele>
        <time>2025-05-12T07:38:22Z</time>
      </trkpt>
      <trkpt lat="36.921585006639361" lon="-3.420478999614716">
        <ele>723.52999999999997</ele>
        <time>2025-05-12T07:38:23Z</time>
      </trkpt>
      <trkpt lat="36.921697994694114" lon="-3.420474976301193">
        <ele>724.49000000000001</ele>
        <time>2025-05-12T07:38:24Z</time>
      </trkpt>
      <trkpt lat="36.921792961657047" lon="-3.420430971309543">
        <ele>724.97000000000003</ele>
        <time>2025-05-12T07:38:25Z</time>
      </trkpt>
      <trkpt lat="36.921888012439013" lon="-3.420387972146273">
        <ele>725.45000000000005</ele>
        <time>2025-05-12T07:38:26Z</time>
      </trkpt>
      <trkpt lat="36.921961018815637" lon="-3.420290993526578">
        <ele>726.40999999999997</ele>
        <time>2025-05-12T07:38:27Z</time>
      </trkpt>
      <trkpt lat="36.922022961080074" lon="-3.420175993815064">
        <ele>726.88999999999999</ele>
        <time>2025-05-12T07:38:28Z</time>
      </trkpt>
      <trkpt lat="36.922066966071725" lon="-3.420065017417073">
        <ele>726.88999999999999</ele>
        <time>2025-05-12T07:38:29Z</time>
      </trkpt>
      <trkpt lat="36.922061014920473" lon="-3.419916993007064">
        <ele>727.37</ele>
        <time>2025-05-12T07:38:30Z</time>
      </trkpt>
      <trkpt lat="36.922031007707119" lon="-3.419752037152648">
        <ele>728.34000000000003</ele>
        <time>2025-05-12T07:38:31Z</time>
      </trkpt>
      <trkpt lat="36.921814000234008" lon="-3.418556023389101">
        <ele>734.58000000000004</ele>
        <time>2025-05-12T07:38:38Z</time>
      </trkpt>
      <trkpt lat="36.921835038810968" lon="-3.418434988707304">
        <ele>734.58000000000004</ele>
        <time>2025-05-12T07:38:39Z</time>
      </trkpt>
      <trkpt lat="36.922151958569884" lon="-3.417263031005859">
        <ele>737.47000000000003</ele>
        <time>2025-05-12T07:38:46Z</time>
      </trkpt>
      <trkpt lat="36.922554038465023" lon="-3.41608202084899">
        <ele>741.78999999999996</ele>
        <time>2025-05-12T07:38:52Z</time>
      </trkpt>
      <trkpt lat="36.922644982114434" lon="-3.415939025580883">
        <ele>742.75999999999999</ele>
        <time>2025-05-12T07:38:53Z</time>
      </trkpt>
      <trkpt lat="36.922765010967851" lon="-3.415835006162524">
        <ele>743.72000000000003</ele>
        <time>2025-05-12T07:38:54Z</time>
      </trkpt>
      <trkpt lat="36.923650978133082" lon="-3.415120029821992">
        <ele>748.03999999999996</ele>
        <time>2025-05-12T07:39:01Z</time>
      </trkpt>
      <trkpt lat="36.923762038350105" lon="-3.41509597375989">
        <ele>748.03999999999996</ele>
        <time>2025-05-12T07:39:02Z</time>
      </trkpt>
      <trkpt lat="36.923892963677645" lon="-3.415111983194947">
        <ele>748.51999999999998</ele>
        <time>2025-05-12T07:39:03Z</time>
      </trkpt>
      <trkpt lat="36.924036964774132" lon="-3.415130004286766">
        <ele>748.51999999999998</ele>
        <time>2025-05-12T07:39:04Z</time>
      </trkpt>
      <trkpt lat="36.92418297752738" lon="-3.415163028985262">
        <ele>748.51999999999998</ele>
        <time>2025-05-12T07:39:05Z</time>
      </trkpt>
      <trkpt lat="36.924335025250912" lon="-3.415211979299784">
        <ele>749</ele>
        <time>2025-05-12T07:39:06Z</time>
      </trkpt>
      <trkpt lat="36.925074979662895" lon="-3.415468968451023">
        <ele>749.97000000000003</ele>
        <time>2025-05-12T07:39:11Z</time>
      </trkpt>
      <trkpt lat="36.925204982981086" lon="-3.415542980656028">
        <ele>750.45000000000005</ele>
        <time>2025-05-12T07:39:12Z</time>
      </trkpt>
      <trkpt lat="36.925534978508949" lon="-3.415693016722798">
        <ele>750.92999999999995</ele>
        <time>2025-05-12T07:39:15Z</time>
      </trkpt>
      <trkpt lat="36.925638997927308" lon="-3.415700979530811">
        <ele>751.40999999999997</ele>
        <time>2025-05-12T07:39:16Z</time>
      </trkpt>
      <trkpt lat="36.925755003467202" lon="-3.415705002844334">
        <ele>751.40999999999997</ele>
        <time>2025-05-12T07:39:17Z</time>
      </trkpt>
      <trkpt lat="36.926192035898566" lon="-3.415687987580895">
        <ele>752.37</ele>
        <time>2025-05-12T07:39:21Z</time>
      </trkpt>
      <trkpt lat="36.926282979547977" lon="-3.415656974539161">
        <ele>752.85000000000002</ele>
        <time>2025-05-12T07:39:22Z</time>
      </trkpt>
      <trkpt lat="36.926356991752982" lon="-3.415591008961201">
        <ele>753.33000000000004</ele>
        <time>2025-05-12T07:39:23Z</time>
      </trkpt>
      <trkpt lat="36.926435027271509" lon="-3.415511967614293">
        <ele>753.33000000000004</ele>
        <time>2025-05-12T07:39:24Z</time>
      </trkpt>
      <trkpt lat="36.926512978971004" lon="-3.415435021743178">
        <ele>753.80999999999995</ele>
        <time>2025-05-12T07:39:25Z</time>
      </trkpt>
      <trkpt lat="36.926571987569332" lon="-3.415341982617974">
        <ele>753.80999999999995</ele>
        <time>2025-05-12T07:39:26Z</time>
      </trkpt>
      <trkpt lat="36.926615992560983" lon="-3.415231006219983">
        <ele>754.28999999999996</ele>
        <time>2025-05-12T07:39:27Z</time>
      </trkpt>
      <trkpt lat="36.926662009209394" lon="-3.415112989023328">
        <ele>754.76999999999998</ele>
        <time>2025-05-12T07:39:28Z</time>
      </trkpt>
      <trkpt lat="36.926702996715903" lon="-3.414990026503801">
        <ele>755.25</ele>
        <time>2025-05-12T07:39:29Z</time>
      </trkpt>
      <trkpt lat="36.926709031686187" lon="-3.414848959073424">
        <ele>755.25</ele>
        <time>2025-05-12T07:39:30Z</time>
      </trkpt>
      <trkpt lat="36.9267169944942" lon="-3.414702024310827">
        <ele>755.73000000000002</ele>
        <time>2025-05-12T07:39:31Z</time>
      </trkpt>
      <trkpt lat="36.9267169944942" lon="-3.414546959102154">
        <ele>756.21000000000004</ele>
        <time>2025-05-12T07:39:32Z</time>
      </trkpt>
      <trkpt lat="36.926687993109226" lon="-3.414387032389641">
        <ele>756.69000000000005</ele>
        <time>2025-05-12T07:39:33Z</time>
      </trkpt>
      <trkpt lat="36.926615992560983" lon="-3.414250994101167">
        <ele>757.17999999999995</ele>
        <time>2025-05-12T07:39:34Z</time>
      </trkpt>
      <trkpt lat="36.926536029204726" lon="-3.414134988561273">
        <ele>757.65999999999997</ele>
        <time>2025-05-12T07:39:35Z</time>
      </trkpt>
      <trkpt lat="36.926463022828102" lon="-3.414027029648423">
        <ele>758.62</ele>
        <time>2025-05-12T07:39:36Z</time>
      </trkpt>
      <trkpt lat="36.926400996744633" lon="-3.413922004401684">
        <ele>759.10000000000002</ele>
        <time>2025-05-12T07:39:37Z</time>
      </trkpt>
      <trkpt lat="36.926400996744633" lon="-3.413819996640086">
        <ele>759.58000000000004</ele>
        <time>2025-05-12T07:39:38Z</time>
      </trkpt>
      <trkpt lat="36.926421029493213" lon="-3.413716983050108">
        <ele>760.05999999999995</ele>
        <time>2025-05-12T07:39:39Z</time>
      </trkpt>
      <trkpt lat="36.926451036706567" lon="-3.413606006652117">
        <ele>760.53999999999996</ele>
        <time>2025-05-12T07:39:40Z</time>
      </trkpt>
      <trkpt lat="36.92647903226316" lon="-3.413482960313559">
        <ele>761.01999999999998</ele>
        <time>2025-05-12T07:39:41Z</time>
      </trkpt>
      <trkpt lat="36.926507027819753" lon="-3.413365026935935">
        <ele>761.01999999999998</ele>
        <time>2025-05-12T07:39:42Z</time>
      </trkpt>
      <trkpt lat="36.926463022828102" lon="-3.413266036659479">
        <ele>761.5</ele>
        <time>2025-05-12T07:39:43Z</time>
      </trkpt>
      <trkpt lat="36.92639596760273" lon="-3.41320501640439">
        <ele>761.98000000000002</ele>
        <time>2025-05-12T07:39:44Z</time>
      </trkpt>
      <trkpt lat="36.926297983154655" lon="-3.413155982270837">
        <ele>762.94000000000005</ele>
        <time>2025-05-12T07:39:45Z</time>
      </trkpt>
      <trkpt lat="36.926192035898566" lon="-3.413103008642793">
        <ele>763.41999999999996</ele>
        <time>2025-05-12T07:39:46Z</time>
      </trkpt>
      <trkpt lat="36.926083993166685" lon="-3.413049029186368">
        <ele>763.89999999999998</ele>
        <time>2025-05-12T07:39:47Z</time>
      </trkpt>
      <trkpt lat="36.925990032032132" lon="-3.412987003102899">
        <ele>764.38999999999999</ele>
        <time>2025-05-12T07:39:48Z</time>
      </trkpt>
      <trkpt lat="36.925907973200083" lon="-3.412895975634456">
        <ele>764.87</ele>
        <time>2025-05-12T07:39:49Z</time>
      </trkpt>
      <trkpt lat="36.925829015672207" lon="-3.412807965651155">
        <ele>765.35000000000002</ele>
        <time>2025-05-12T07:39:50Z</time>
      </trkpt>
      <trkpt lat="36.925804959610105" lon="-3.412686008960009">
        <ele>766.30999999999995</ele>
        <time>2025-05-12T07:39:51Z</time>
      </trkpt>
      <trkpt lat="36.925804037600756" lon="-3.412558017298579">
        <ele>766.78999999999996</ele>
        <time>2025-05-12T07:39:52Z</time>
      </trkpt>
      <trkpt lat="36.925809988752007" lon="-3.412416027858853">
        <ele>767.75</ele>
        <time>2025-05-12T07:39:53Z</time>
      </trkpt>
      <trkpt lat="36.925816023722291" lon="-3.412268003448844">
        <ele>768.23000000000002</ele>
        <time>2025-05-12T07:39:54Z</time>
      </trkpt>
      <trkpt lat="36.925925994291902" lon="-3.411313975229859">
        <ele>774.48000000000002</ele>
        <time>2025-05-12T07:40:01Z</time>
      </trkpt>
      <trkpt lat="36.925915013998747" lon="-3.411152958869934">
        <ele>776.39999999999998</ele>
        <time>2025-05-12T07:40:03Z</time>
      </trkpt>
      <trkpt lat="36.925908979028463" lon="-3.411068972200155">
        <ele>777.84000000000003</ele>
        <time>2025-05-12T07:40:04Z</time>
      </trkpt>
      <trkpt lat="36.925851982086897" lon="-3.410984985530376">
        <ele>778.80999999999995</ele>
        <time>2025-05-12T07:40:05Z</time>
      </trkpt>
      <trkpt lat="36.925778975710273" lon="-3.410911979153752">
        <ele>779.76999999999998</ele>
        <time>2025-05-12T07:40:06Z</time>
      </trkpt>
      <trkpt lat="36.925717033445835" lon="-3.410911979153752">
        <ele>781.21000000000004</ele>
        <time>2025-05-12T07:40:07Z</time>
      </trkpt>
      <trkpt lat="36.925606979057193" lon="-3.410911979153752">
        <ele>782.16999999999996</ele>
        <time>2025-05-12T07:40:08Z</time>
      </trkpt>
      <trkpt lat="36.92555601708591" lon="-3.410941986367106">
        <ele>783.13</ele>
        <time>2025-05-12T07:40:09Z</time>
      </trkpt>
      <trkpt lat="36.925489967688918" lon="-3.410981968045235">
        <ele>784.57000000000005</ele>
        <time>2025-05-12T07:40:10Z</time>
      </trkpt>
      <trkpt lat="36.925332974642515" lon="-3.411076012998819">
        <ele>787.46000000000004</ele>
        <time>2025-05-12T07:40:13Z</time>
      </trkpt>
      <trkpt lat="36.925291987136006" lon="-3.411100991070271">
        <ele>788.89999999999998</ele>
        <time>2025-05-12T07:40:14Z</time>
      </trkpt>
      <trkpt lat="36.925270026549697" lon="-3.41109998524189">
        <ele>789.86000000000001</ele>
        <time>2025-05-12T07:40:15Z</time>
      </trkpt>
      <trkpt lat="36.925211017951369" lon="-3.411082969978452">
        <ele>790.82000000000005</ele>
        <time>2025-05-12T07:40:16Z</time>
      </trkpt>
      <trkpt lat="36.925144968554378" lon="-3.411063021048904">
        <ele>791.77999999999997</ele>
        <time>2025-05-12T07:40:17Z</time>
      </trkpt>
      <trkpt lat="36.925071040168405" lon="-3.411039970815182">
        <ele>792.25999999999999</ele>
        <time>2025-05-12T07:40:18Z</time>
      </trkpt>
      <trkpt lat="36.925023011863232" lon="-3.410957995802164">
        <ele>793.22000000000003</ele>
        <time>2025-05-12T07:40:19Z</time>
      </trkpt>
      <trkpt lat="36.924962997436523" lon="-3.410851964727044">
        <ele>793.71000000000004</ele>
        <time>2025-05-12T07:40:20Z</time>
      </trkpt>
      <trkpt lat="36.924895020201802" lon="-3.410731013864279">
        <ele>794.19000000000005</ele>
        <time>2025-05-12T07:40:21Z</time>
      </trkpt>
      <trkpt lat="36.92482503131032" lon="-3.410591036081314">
        <ele>794.66999999999996</ele>
        <time>2025-05-12T07:40:22Z</time>
      </trkpt>
      <trkpt lat="36.924750013276935" lon="-3.410443011671305">
        <ele>795.14999999999998</ele>
        <time>2025-05-12T07:40:23Z</time>
      </trkpt>
      <trkpt lat="36.924297977238894" lon="-3.409513961523771">
        <ele>800.44000000000005</ele>
        <time>2025-05-12T07:40:30Z</time>
      </trkpt>
      <trkpt lat="36.924253972247243" lon="-3.409413965418935">
        <ele>800.91999999999996</ele>
        <time>2025-05-12T07:40:31Z</time>
      </trkpt>
      <trkpt lat="36.924227988347411" lon="-3.409314975142479">
        <ele>801.39999999999998</ele>
        <time>2025-05-12T07:40:32Z</time>
      </trkpt>
      <trkpt lat="36.924214996397495" lon="-3.40920701622963">
        <ele>801.88</ele>
        <time>2025-05-12T07:40:33Z</time>
      </trkpt>
      <trkpt lat="36.92420301027596" lon="-3.40910199098289">
        <ele>802.36000000000001</ele>
        <time>2025-05-12T07:40:34Z</time>
      </trkpt>
      <trkpt lat="36.924191024154425" lon="-3.409001994878054">
        <ele>802.84000000000003</ele>
        <time>2025-05-12T07:40:35Z</time>
      </trkpt>
      <trkpt lat="36.92420301027596" lon="-3.408895963802934">
        <ele>803.32000000000005</ele>
        <time>2025-05-12T07:40:36Z</time>
      </trkpt>
      <trkpt lat="36.924219019711018" lon="-3.408791022375226">
        <ele>803.79999999999995</ele>
        <time>2025-05-12T07:40:37Z</time>
      </trkpt>
      <trkpt lat="36.924257995560765" lon="-3.40869102627039">
        <ele>804.27999999999997</ele>
        <time>2025-05-12T07:40:38Z</time>
      </trkpt>
      <trkpt lat="36.924456981942058" lon="-3.408167995512486">
        <ele>806.20000000000005</ele>
        <time>2025-05-12T07:40:43Z</time>
      </trkpt>
      <trkpt lat="36.924501992762089" lon="-3.408063976094127">
        <ele>807.15999999999997</ele>
        <time>2025-05-12T07:40:44Z</time>
      </trkpt>
      <trkpt lat="36.9245670363307" lon="-3.407978983595967">
        <ele>807.63999999999999</ele>
        <time>2025-05-12T07:40:45Z</time>
      </trkpt>
      <trkpt lat="36.924640964716673" lon="-3.407899020239711">
        <ele>808.13</ele>
        <time>2025-05-12T07:40:46Z</time>
      </trkpt>
      <trkpt lat="36.924716988578439" lon="-3.407816961407661">
        <ele>809.09000000000003</ele>
        <time>2025-05-12T07:40:47Z</time>
      </trkpt>
      <trkpt lat="36.924792006611824" lon="-3.407735992223024">
        <ele>809.57000000000005</ele>
        <time>2025-05-12T07:40:48Z</time>
      </trkpt>
      <trkpt lat="36.924844980239868" lon="-3.407611018046737">
        <ele>810.04999999999995</ele>
        <time>2025-05-12T07:40:49Z</time>
      </trkpt>
      <trkpt lat="36.924897031858563" lon="-3.40749098919332">
        <ele>811.00999999999999</ele>
        <time>2025-05-12T07:40:50Z</time>
      </trkpt>
      <trkpt lat="36.924941958859563" lon="-3.407370038330555">
        <ele>811.49000000000001</ele>
        <time>2025-05-12T07:40:51Z</time>
      </trkpt>
      <trkpt lat="36.924985041841865" lon="-3.407241040840745">
        <ele>812.45000000000005</ele>
        <time>2025-05-12T07:40:52Z</time>
      </trkpt>
      <trkpt lat="36.924989987164736" lon="-3.407101985067129">
        <ele>813.40999999999997</ele>
        <time>2025-05-12T07:40:53Z</time>
      </trkpt>
      <trkpt lat="36.924996022135019" lon="-3.406967036426067">
        <ele>813.88999999999999</ele>
        <time>2025-05-12T07:40:54Z</time>
      </trkpt>
      <trkpt lat="36.925000967457891" lon="-3.406828986480832">
        <ele>815.34000000000003</ele>
        <time>2025-05-12T07:40:55Z</time>
      </trkpt>
      <trkpt lat="36.925005996599793" lon="-3.406706023961306">
        <ele>816.29999999999995</ele>
        <time>2025-05-12T07:40:56Z</time>
      </trkpt>
      <trkpt lat="36.925080008804798" lon="-3.40658700093627">
        <ele>817.25999999999999</ele>
        <time>2025-05-12T07:40:57Z</time>
      </trkpt>
      <trkpt lat="36.925143040716648" lon="-3.406485999003053">
        <ele>818.70000000000005</ele>
        <time>2025-05-12T07:40:58Z</time>
      </trkpt>
      <trkpt lat="36.925202971324325" lon="-3.406388014554977">
        <ele>819.65999999999997</ele>
        <time>2025-05-12T07:40:59Z</time>
      </trkpt>
      <trkpt lat="36.925262985751033" lon="-3.406291035935283">
        <ele>820.13999999999999</ele>
        <time>2025-05-12T07:41:00Z</time>
      </trkpt>
      <trkpt lat="36.925315037369728" lon="-3.406197996810079">
        <ele>821.10000000000002</ele>
        <time>2025-05-12T07:41:01Z</time>
      </trkpt>
      <trkpt lat="36.92536499351263" lon="-3.406102024018765">
        <ele>821.58000000000004</ele>
        <time>2025-05-12T07:41:02Z</time>
      </trkpt>
      <trkpt lat="36.925415033474565" lon="-3.406006973236799">
        <ele>822.54999999999995</ele>
        <time>2025-05-12T07:41:03Z</time>
      </trkpt>
      <trkpt lat="36.925465995445848" lon="-3.405909994617105">
        <ele>823.02999999999997</ele>
        <time>2025-05-12T07:41:04Z</time>
      </trkpt>
      <trkpt lat="36.925517963245511" lon="-3.405812010169029">
        <ele>823.99000000000001</ele>
        <time>2025-05-12T07:41:05Z</time>
      </trkpt>
      <trkpt lat="36.925520980730653" lon="-3.405716037377715">
        <ele>824.95000000000005</ele>
        <time>2025-05-12T07:41:06Z</time>
      </trkpt>
      <trkpt lat="36.925520980730653" lon="-3.405589973554015">
        <ele>825.42999999999995</ele>
        <time>2025-05-12T07:41:07Z</time>
      </trkpt>
      <trkpt lat="36.925520980730653" lon="-3.405453013256192">
        <ele>826.38999999999999</ele>
        <time>2025-05-12T07:41:08Z</time>
      </trkpt>
      <trkpt lat="36.925532966852188" lon="-3.404871979728341">
        <ele>828.30999999999995</ele>
        <time>2025-05-12T07:41:12Z</time>
      </trkpt>
      <trkpt lat="36.925543025135994" lon="-3.404710041359067">
        <ele>828.30999999999995</ele>
        <time>2025-05-12T07:41:13Z</time>
      </trkpt>
      <trkpt lat="36.925602033734322" lon="-3.404600992798805">
        <ele>829.26999999999998</ele>
        <time>2025-05-12T07:41:14Z</time>
      </trkpt>
      <trkpt lat="36.925672022625804" lon="-3.404474006965756">
        <ele>830.24000000000001</ele>
        <time>2025-05-12T07:41:15Z</time>
      </trkpt>
      <trkpt lat="36.925755003467202" lon="-3.404355989769101">
        <ele>831.67999999999995</ele>
        <time>2025-05-12T07:41:16Z</time>
      </trkpt>
      <trkpt lat="36.925821974873543" lon="-3.404260016977787">
        <ele>832.63999999999999</ele>
        <time>2025-05-12T07:41:17Z</time>
      </trkpt>
      <trkpt lat="36.925821974873543" lon="-3.404109980911017">
        <ele>834.08000000000004</ele>
        <time>2025-05-12T07:41:18Z</time>
      </trkpt>
      <trkpt lat="36.925821974873543" lon="-3.403972014784813">
        <ele>835.03999999999996</ele>
        <time>2025-05-12T07:41:19Z</time>
      </trkpt>
      <trkpt lat="36.925792973488569" lon="-3.403827007859945">
        <ele>836.48000000000002</ele>
        <time>2025-05-12T07:41:20Z</time>
      </trkpt>
      <trkpt lat="36.925744023174047" lon="-3.403673032298684">
        <ele>837.45000000000005</ele>
        <time>2025-05-12T07:41:21Z</time>
      </trkpt>
      <trkpt lat="36.925695994868875" lon="-3.403520984575152">
        <ele>838.88999999999999</ele>
        <time>2025-05-12T07:41:22Z</time>
      </trkpt>
      <trkpt lat="36.925586024299264" lon="-3.403272964060307">
        <ele>841.28999999999996</ele>
        <time>2025-05-12T07:41:24Z</time>
      </trkpt>
      <trkpt lat="36.925473036244512" lon="-3.403159976005554">
        <ele>842.73000000000002</ele>
        <time>2025-05-12T07:41:25Z</time>
      </trkpt>
      <trkpt lat="36.925373040139675" lon="-3.403059979900718">
        <ele>843.69000000000005</ele>
        <time>2025-05-12T07:41:26Z</time>
      </trkpt>
      <trkpt lat="36.92527899518609" lon="-3.402967024594545">
        <ele>845.13999999999999</ele>
        <time>2025-05-12T07:41:27Z</time>
      </trkpt>
      <trkpt lat="36.92521302960813" lon="-3.40286904014647">
        <ele>846.10000000000002</ele>
        <time>2025-05-12T07:41:28Z</time>
      </trkpt>
      <trkpt lat="36.925157038494945" lon="-3.402779018506408">
        <ele>847.05999999999995</ele>
        <time>2025-05-12T07:41:29Z</time>
      </trkpt>
      <trkpt lat="36.925154021009803" lon="-3.40265597216785">
        <ele>848.01999999999998</ele>
        <time>2025-05-12T07:41:30Z</time>
      </trkpt>
      <trkpt lat="36.925151003524661" lon="-3.402512976899743">
        <ele>848.98000000000002</ele>
        <time>2025-05-12T07:41:31Z</time>
      </trkpt>
      <trkpt lat="36.925147986039519" lon="-3.402353972196579">
        <ele>849.46000000000004</ele>
        <time>2025-05-12T07:41:32Z</time>
      </trkpt>
      <trkpt lat="36.925134994089603" lon="-3.401170028373599">
        <ele>854.26999999999998</ele>
        <time>2025-05-12T07:41:39Z</time>
      </trkpt>
      <trkpt lat="36.925079002976418" lon="-3.400997025892139">
        <ele>855.23000000000002</ele>
        <time>2025-05-12T07:41:40Z</time>
      </trkpt>
      <trkpt lat="36.92497699521482" lon="-3.400675999000669">
        <ele>856.66999999999996</ele>
        <time>2025-05-12T07:41:42Z</time>
      </trkpt>
      <trkpt lat="36.924929972738028" lon="-3.400496961548924">
        <ele>857.14999999999998</ele>
        <time>2025-05-12T07:41:43Z</time>
      </trkpt>
      <trkpt lat="36.924693016335368" lon="-3.399073965847492">
        <ele>864.36000000000001</ele>
        <time>2025-05-12T07:41:50Z</time>
      </trkpt>
      <trkpt lat="36.924663009122014" lon="-3.39889501221478">
        <ele>865.32000000000005</ele>
        <time>2025-05-12T07:41:51Z</time>
      </trkpt>
      <trkpt lat="36.92461003549397" lon="-3.398750005289912">
        <ele>866.28999999999996</ele>
        <time>2025-05-12T07:41:52Z</time>
      </trkpt>
      <trkpt lat="36.924562007188797" lon="-3.398645985871553">
        <ele>867.25</ele>
        <time>2025-05-12T07:41:53Z</time>
      </trkpt>
      <trkpt lat="36.924477014690638" lon="-3.398569040000439">
        <ele>868.21000000000004</ele>
        <time>2025-05-12T07:41:54Z</time>
      </trkpt>
      <trkpt lat="36.924380036070943" lon="-3.398482035845518">
        <ele>868.69000000000005</ele>
        <time>2025-05-12T07:41:55Z</time>
      </trkpt>
      <trkpt lat="36.924274004995823" lon="-3.398385979235172">
        <ele>868.69000000000005</ele>
        <time>2025-05-12T07:41:56Z</time>
      </trkpt>
      <trkpt lat="36.923782993108034" lon="-3.397994041442871">
        <ele>869.64999999999998</ele>
        <time>2025-05-12T07:42:00Z</time>
      </trkpt>
      <trkpt lat="36.923663970082998" lon="-3.397977026179433">
        <ele>870.13</ele>
        <time>2025-05-12T07:42:01Z</time>
      </trkpt>
      <trkpt lat="36.923542013391852" lon="-3.397960010915995">
        <ele>870.61000000000001</ele>
        <time>2025-05-12T07:42:02Z</time>
      </trkpt>
      <trkpt lat="36.923434976488352" lon="-3.397944001480937">
        <ele>871.09000000000003</ele>
        <time>2025-05-12T07:42:03Z</time>
      </trkpt>
      <trkpt lat="36.923332968726754" lon="-3.397930003702641">
        <ele>871.09000000000003</ele>
        <time>2025-05-12T07:42:04Z</time>
      </trkpt>
      <trkpt lat="36.923253005370498" lon="-3.397850040346384">
        <ele>872.04999999999995</ele>
        <time>2025-05-12T07:42:05Z</time>
      </trkpt>
      <trkpt lat="36.923207994550467" lon="-3.397750966250897">
        <ele>872.52999999999997</ele>
        <time>2025-05-12T07:42:06Z</time>
      </trkpt>
      <trkpt lat="36.923186033964157" lon="-3.397634960711002">
        <ele>873.00999999999999</ele>
        <time>2025-05-12T07:42:07Z</time>
      </trkpt>
      <trkpt lat="36.923216041177511" lon="-3.397517027333379">
        <ele>873.98000000000002</ele>
        <time>2025-05-12T07:42:08Z</time>
      </trkpt>
      <trkpt lat="36.923265997320414" lon="-3.397424994036555">
        <ele>874.46000000000004</ele>
        <time>2025-05-12T07:42:09Z</time>
      </trkpt>
      <trkpt lat="36.923331962898374" lon="-3.397381994873285">
        <ele>875.41999999999996</ele>
        <time>2025-05-12T07:42:10Z</time>
      </trkpt>
      <trkpt lat="36.923430031165481" lon="-3.397355005145073">
        <ele>876.38</ele>
        <time>2025-05-12T07:42:11Z</time>
      </trkpt>
      <trkpt lat="36.923536984249949" lon="-3.397331032902002">
        <ele>877.34000000000003</ele>
        <time>2025-05-12T07:42:12Z</time>
      </trkpt>
      <trkpt lat="36.923662964254618" lon="-3.397359028458595">
        <ele>878.29999999999995</ele>
        <time>2025-05-12T07:42:13Z</time>
      </trkpt>
      <trkpt lat="36.923790033906698" lon="-3.397387024015188">
        <ele>878.77999999999997</ele>
        <time>2025-05-12T07:42:14Z</time>
      </trkpt>
      <trkpt lat="36.923911990597844" lon="-3.397415019571781">
        <ele>879.25999999999999</ele>
        <time>2025-05-12T07:42:15Z</time>
      </trkpt>
      <trkpt lat="36.924006035551429" lon="-3.397490037605166">
        <ele>879.74000000000001</ele>
        <time>2025-05-12T07:42:16Z</time>
      </trkpt>
      <trkpt lat="36.924104019999504" lon="-3.397570000961423">
        <ele>880.22000000000003</ele>
        <time>2025-05-12T07:42:17Z</time>
      </trkpt>
      <trkpt lat="36.924277022480965" lon="-3.397709978744388">
        <ele>881.19000000000005</ele>
        <time>2025-05-12T07:42:19Z</time>
      </trkpt>
      <trkpt lat="36.924377018585801" lon="-3.39777703396976">
        <ele>881.66999999999996</ele>
        <time>2025-05-12T07:42:20Z</time>
      </trkpt>
      <trkpt lat="36.924471985548735" lon="-3.397761024534702">
        <ele>882.14999999999998</ele>
        <time>2025-05-12T07:42:21Z</time>
      </trkpt>
      <trkpt lat="36.924555972218513" lon="-3.397677037864924">
        <ele>882.63</ele>
        <time>2025-05-12T07:42:22Z</time>
      </trkpt>
      <trkpt lat="36.924587991088629" lon="-3.397562960162759">
        <ele>883.59000000000003</ele>
        <time>2025-05-12T07:42:23Z</time>
      </trkpt>
      <trkpt lat="36.924586985260248" lon="-3.397445026785135">
        <ele>884.54999999999995</ele>
        <time>2025-05-12T07:42:24Z</time>
      </trkpt>
      <trkpt lat="36.924538034945726" lon="-3.397338995710015">
        <ele>885.50999999999999</ele>
        <time>2025-05-12T07:42:25Z</time>
      </trkpt>
      <trkpt lat="36.924448013305664" lon="-3.397280992940068">
        <ele>886.47000000000003</ele>
        <time>2025-05-12T07:42:26Z</time>
      </trkpt>
      <trkpt lat="36.924350028857589" lon="-3.397217961028218">
        <ele>887.42999999999995</ele>
        <time>2025-05-12T07:42:27Z</time>
      </trkpt>
      <trkpt lat="36.924254978075624" lon="-3.397157024592161">
        <ele>888.39999999999998</ele>
        <time>2025-05-12T07:42:28Z</time>
      </trkpt>
      <trkpt lat="36.924181971698999" lon="-3.397041019052267">
        <ele>889.36000000000001</ele>
        <time>2025-05-12T07:42:29Z</time>
      </trkpt>
      <trkpt lat="36.924142995849252" lon="-3.396934987977147">
        <ele>889.84000000000003</ele>
        <time>2025-05-12T07:42:30Z</time>
      </trkpt>
      <trkpt lat="36.924131009727716" lon="-3.396816970780492">
        <ele>890.79999999999995</ele>
        <time>2025-05-12T07:42:31Z</time>
      </trkpt>
      <trkpt lat="36.924118017777801" lon="-3.396693002432585">
        <ele>891.75999999999999</ele>
        <time>2025-05-12T07:42:32Z</time>
      </trkpt>
      <trkpt lat="36.924105025827885" lon="-3.396559981629252">
        <ele>892.24000000000001</ele>
        <time>2025-05-12T07:42:33Z</time>
      </trkpt>
      <trkpt lat="36.924091028049588" lon="-3.396425032988191">
        <ele>893.20000000000005</ele>
        <time>2025-05-12T07:42:34Z</time>
      </trkpt>
      <trkpt lat="36.924077030271292" lon="-3.396285977214575">
        <ele>893.67999999999995</ele>
        <time>2025-05-12T07:42:35Z</time>
      </trkpt>
      <trkpt lat="36.924062026664615" lon="-3.396147005259991">
        <ele>894.15999999999997</ele>
        <time>2025-05-12T07:42:36Z</time>
      </trkpt>
      <trkpt lat="36.923928000032902" lon="-3.395515009760857">
        <ele>898.97000000000003</ele>
        <time>2025-05-12T07:42:41Z</time>
      </trkpt>
      <trkpt lat="36.923891035839915" lon="-3.395376037806273">
        <ele>899.92999999999995</ele>
        <time>2025-05-12T07:42:42Z</time>
      </trkpt>
      <trkpt lat="36.923855999484658" lon="-3.395287021994591">
        <ele>900.88999999999999</ele>
        <time>2025-05-12T07:42:43Z</time>
      </trkpt>
      <trkpt lat="36.923417039215565" lon="-3.393968967720866">
        <ele>908.58000000000004</ele>
        <time>2025-05-12T07:42:53Z</time>
      </trkpt>
      <trkpt lat="36.923394994810224" lon="-3.393813986331224">
        <ele>909.05999999999995</ele>
        <time>2025-05-12T07:42:54Z</time>
      </trkpt>
      <trkpt lat="36.923377979546785" lon="-3.393660010769963">
        <ele>910.02999999999997</ele>
        <time>2025-05-12T07:42:55Z</time>
      </trkpt>
      <trkpt lat="36.923398012295365" lon="-3.393513998016715">
        <ele>910.50999999999999</ele>
        <time>2025-05-12T07:42:56Z</time>
      </trkpt>
      <trkpt lat="36.923490967601538" lon="-3.393148966133595">
        <ele>912.90999999999997</ele>
        <time>2025-05-12T07:42:59Z</time>
      </trkpt>
      <trkpt lat="36.923534972593188" lon="-3.393019968643785">
        <ele>913.38999999999999</ele>
        <time>2025-05-12T07:43:00Z</time>
      </trkpt>
      <trkpt lat="36.92362398840487" lon="-3.392762979492545">
        <ele>914.35000000000002</ele>
        <time>2025-05-12T07:43:02Z</time>
      </trkpt>
      <trkpt lat="36.92364402115345" lon="-3.392605986446142">
        <ele>914.83000000000004</ele>
        <time>2025-05-12T07:43:03Z</time>
      </trkpt>
      <trkpt lat="36.923647960647941" lon="-3.392447987571359">
        <ele>915.30999999999995</ele>
        <time>2025-05-12T07:43:04Z</time>
      </trkpt>
      <trkpt lat="36.923610996454954" lon="-3.39227900840342">
        <ele>915.78999999999996</ele>
        <time>2025-05-12T07:43:05Z</time>
      </trkpt>
      <trkpt lat="36.923571014776826" lon="-3.392097037285566">
        <ele>916.26999999999998</ele>
        <time>2025-05-12T07:43:06Z</time>
      </trkpt>
      <trkpt lat="36.923528015613556" lon="-3.391899978742003">
        <ele>917.24000000000001</ele>
        <time>2025-05-12T07:43:07Z</time>
      </trkpt>
      <trkpt lat="36.923462972044945" lon="-3.391696969047189">
        <ele>917.72000000000003</ele>
        <time>2025-05-12T07:43:08Z</time>
      </trkpt>
      <trkpt lat="36.923376973718405" lon="-3.391497982665896">
        <ele>918.20000000000005</ele>
        <time>2025-05-12T07:43:09Z</time>
      </trkpt>
      <trkpt lat="36.923159966245294" lon="-3.390985010191798">
        <ele>919.63999999999999</ele>
        <time>2025-05-12T07:43:12Z</time>
      </trkpt>
      <trkpt lat="36.923144040629268" lon="-3.390811001881957">
        <ele>920.60000000000002</ele>
        <time>2025-05-12T07:43:13Z</time>
      </trkpt>
      <trkpt lat="36.923154015094042" lon="-3.390630958601832">
        <ele>921.08000000000004</ele>
        <time>2025-05-12T07:43:14Z</time>
      </trkpt>
      <trkpt lat="36.923203971236944" lon="-3.389547010883689">
        <ele>924.92999999999995</ele>
        <time>2025-05-12T07:43:20Z</time>
      </trkpt>
      <trkpt lat="36.923158038407564" lon="-3.389421030879021">
        <ele>925.40999999999997</ele>
        <time>2025-05-12T07:43:21Z</time>
      </trkpt>
      <trkpt lat="36.923072040081024" lon="-3.389306031167507">
        <ele>926.37</ele>
        <time>2025-05-12T07:43:22Z</time>
      </trkpt>
      <trkpt lat="36.922945976257324" lon="-3.389219027012587">
        <ele>926.85000000000002</ele>
        <time>2025-05-12T07:43:23Z</time>
      </trkpt>
      <trkpt lat="36.922810021787882" lon="-3.389138979837298">
        <ele>927.33000000000004</ele>
        <time>2025-05-12T07:43:24Z</time>
      </trkpt>
      <trkpt lat="36.922668032348156" lon="-3.389058010652661">
        <ele>928.28999999999996</ele>
        <time>2025-05-12T07:43:25Z</time>
      </trkpt>
      <trkpt lat="36.921620965003967" lon="-3.388575967401266">
        <ele>934.05999999999995</ele>
        <time>2025-05-12T07:43:32Z</time>
      </trkpt>
      <trkpt lat="36.921508982777596" lon="-3.388531040400267">
        <ele>935.01999999999998</ele>
        <time>2025-05-12T07:43:33Z</time>
      </trkpt>
      <trkpt lat="36.921424996107817" lon="-3.388464991003275">
        <ele>935.98000000000002</ele>
        <time>2025-05-12T07:43:34Z</time>
      </trkpt>
      <trkpt lat="36.921379985287786" lon="-3.388381004333496">
        <ele>936.94000000000005</ele>
        <time>2025-05-12T07:43:35Z</time>
      </trkpt>
      <trkpt lat="36.921361964195967" lon="-3.38828100822866">
        <ele>937.41999999999996</ele>
        <time>2025-05-12T07:43:36Z</time>
      </trkpt>
      <trkpt lat="36.921379985287786" lon="-3.388101970776916">
        <ele>937.89999999999998</ele>
        <time>2025-05-12T07:43:37Z</time>
      </trkpt>
      <trkpt lat="36.921416027471423" lon="-3.388018989935517">
        <ele>938.86000000000001</ele>
        <time>2025-05-12T07:43:38Z</time>
      </trkpt>
      <trkpt lat="36.921477969735861" lon="-3.387872977182269">
        <ele>939.35000000000002</ele>
        <time>2025-05-12T07:43:39Z</time>
      </trkpt>
      <trkpt lat="36.921619959175587" lon="-3.387542981654406">
        <ele>940.30999999999995</ele>
        <time>2025-05-12T07:43:41Z</time>
      </trkpt>
      <trkpt lat="36.921687014400959" lon="-3.387384982779622">
        <ele>940.78999999999996</ele>
        <time>2025-05-12T07:43:42Z</time>
      </trkpt>
      <trkpt lat="36.921750968322158" lon="-3.387237964197993">
        <ele>941.26999999999998</ele>
        <time>2025-05-12T07:43:43Z</time>
      </trkpt>
      <trkpt lat="36.921837972477078" lon="-3.387128999456763">
        <ele>941.26999999999998</ele>
        <time>2025-05-12T07:43:44Z</time>
      </trkpt>
      <trkpt lat="36.92194702103734" lon="-3.387020034715533">
        <ele>941.26999999999998</ele>
        <time>2025-05-12T07:43:45Z</time>
      </trkpt>
      <trkpt lat="36.922065038233995" lon="-3.386903023347259">
        <ele>941.26999999999998</ele>
        <time>2025-05-12T07:43:46Z</time>
      </trkpt>
      <trkpt lat="36.922409031540155" lon="-3.386612003669143">
        <ele>941.26999999999998</ele>
        <time>2025-05-12T07:43:49Z</time>
      </trkpt>
      <trkpt lat="36.92252797074616" lon="-3.386550983414054">
        <ele>941.26999999999998</ele>
        <time>2025-05-12T07:43:50Z</time>
      </trkpt>
      <trkpt lat="36.923245964571834" lon="-3.386333975940943">
        <ele>942.23000000000002</ele>
        <time>2025-05-12T07:43:55Z</time>
      </trkpt>
      <trkpt lat="36.92330002784729" lon="-3.386255018413067">
        <ele>942.23000000000002</ele>
        <time>2025-05-12T07:43:56Z</time>
      </trkpt>
      <trkpt lat="36.923355013132095" lon="-3.386139012873173">
        <ele>941.75</ele>
        <time>2025-05-12T07:43:57Z</time>
      </trkpt>
      <trkpt lat="36.923419972881675" lon="-3.386003980413079">
        <ele>941.26999999999998</ele>
        <time>2025-05-12T07:43:58Z</time>
      </trkpt>
      <trkpt lat="36.92349499091506" lon="-3.38585402816534">
        <ele>940.30999999999995</ele>
        <time>2025-05-12T07:43:59Z</time>
      </trkpt>
      <trkpt lat="36.923578977584839" lon="-3.385740034282208">
        <ele>940.30999999999995</ele>
        <time>2025-05-12T07:44:00Z</time>
      </trkpt>
      <trkpt lat="36.923657013103366" lon="-3.385632997378707">
        <ele>939.83000000000004</ele>
        <time>2025-05-12T07:44:01Z</time>
      </trkpt>
      <trkpt lat="36.923718033358455" lon="-3.385540964081883">
        <ele>939.35000000000002</ele>
        <time>2025-05-12T07:44:02Z</time>
      </trkpt>
      <trkpt lat="36.923703029751778" lon="-3.385406015440822">
        <ele>938.86000000000001</ele>
        <time>2025-05-12T07:44:03Z</time>
      </trkpt>
      <trkpt lat="36.923659024760127" lon="-3.385255979374051">
        <ele>938.38</ele>
        <time>2025-05-12T07:44:04Z</time>
      </trkpt>
      <trkpt lat="36.923598004505038" lon="-3.38510200381279">
        <ele>937.89999999999998</ele>
        <time>2025-05-12T07:44:05Z</time>
      </trkpt>
      <trkpt lat="36.923535978421569" lon="-3.384944004938006">
        <ele>936.94000000000005</ele>
        <time>2025-05-12T07:44:06Z</time>
      </trkpt>
      <trkpt lat="36.923460960388184" lon="-3.384754993021488">
        <ele>936.46000000000004</ele>
        <time>2025-05-12T07:44:07Z</time>
      </trkpt>
      <trkpt lat="36.923455009236932" lon="-3.384630018845201">
        <ele>935.98000000000002</ele>
        <time>2025-05-12T07:44:08Z</time>
      </trkpt>
      <trkpt lat="36.923446962609887" lon="-3.384472019970417">
        <ele>935.5</ele>
        <time>2025-05-12T07:44:09Z</time>
      </trkpt>
      <trkpt lat="36.923440005630255" lon="-3.384326007217169">
        <ele>935.01999999999998</ele>
        <time>2025-05-12T07:44:10Z</time>
      </trkpt>
      <trkpt lat="36.92336599342525" lon="-3.384220981970429">
        <ele>935.01999999999998</ele>
        <time>2025-05-12T07:44:11Z</time>
      </trkpt>
      <trkpt lat="36.923286030068994" lon="-3.384108999744058">
        <ele>935.01999999999998</ele>
        <time>2025-05-12T07:44:12Z</time>
      </trkpt>
      <trkpt lat="36.923200031742454" lon="-3.38398695923388">
        <ele>934.53999999999996</ele>
        <time>2025-05-12T07:44:13Z</time>
      </trkpt>
      <trkpt lat="36.923113027587533" lon="-3.383863996714354">
        <ele>934.53999999999996</ele>
        <time>2025-05-12T07:44:14Z</time>
      </trkpt>
      <trkpt lat="36.923045972362161" lon="-3.383733993396163">
        <ele>934.53999999999996</ele>
        <time>2025-05-12T07:44:15Z</time>
      </trkpt>
      <trkpt lat="36.922994004562497" lon="-3.38359996676445">
        <ele>934.53999999999996</ele>
        <time>2025-05-12T07:44:16Z</time>
      </trkpt>
      <trkpt lat="36.92295796237886" lon="-3.383472980931401">
        <ele>934.05999999999995</ele>
        <time>2025-05-12T07:44:17Z</time>
      </trkpt>
      <trkpt lat="36.922899037599564" lon="-3.38310300372541">
        <ele>933.58000000000004</ele>
        <time>2025-05-12T07:44:20Z</time>
      </trkpt>
      <trkpt lat="36.922860983759165" lon="-3.382865963503718">
        <ele>933.10000000000002</ele>
        <time>2025-05-12T07:44:22Z</time>
      </trkpt>
      <trkpt lat="36.922814967110753" lon="-3.382721040397883">
        <ele>932.62</ele>
        <time>2025-05-12T07:44:23Z</time>
      </trkpt>
      <trkpt lat="36.922772973775864" lon="-3.38258701376617">
        <ele>932.13999999999999</ele>
        <time>2025-05-12T07:44:24Z</time>
      </trkpt>
      <trkpt lat="36.922632995992899" lon="-3.382069012150168">
        <ele>930.69000000000005</ele>
        <time>2025-05-12T07:44:28Z</time>
      </trkpt>
      <trkpt lat="36.922599971294403" lon="-3.381800958886743">
        <ele>929.73000000000002</ele>
        <time>2025-05-12T07:44:31Z</time>
      </trkpt>
      <trkpt lat="36.922579016536474" lon="-3.381630973890424">
        <ele>928.28999999999996</ele>
        <time>2025-05-12T07:44:39Z</time>
      </trkpt>
      <trkpt lat="36.922567030414939" lon="-3.381531983613968">
        <ele>926.37</ele>
        <time>2025-05-12T07:44:50Z</time>
      </trkpt>
      <trkpt lat="36.922567030414939" lon="-3.381531983613968">
        <ele>926.37</ele>
        <time>2025-05-12T07:45:11Z</time>
      </trkpt>
      <trkpt lat="36.922514978796244" lon="-3.381447996944189">
        <ele>945.11000000000001</ele>
        <time>2025-05-12T07:48:44Z</time>
      </trkpt>
      <trkpt lat="36.922501986846328" lon="-3.381468029692769">
        <ele>935.98000000000002</ele>
        <time>2025-05-12T07:49:32Z</time>
      </trkpt>
      <trkpt lat="36.922554960474372" lon="-3.381431987509131">
        <ele>935.01999999999998</ele>
        <time>2025-05-12T07:49:43Z</time>
      </trkpt>
      <trkpt lat="36.922551020979881" lon="-3.381399968639016">
        <ele>934.53999999999996</ele>
        <time>2025-05-12T07:49:44Z</time>
      </trkpt>
      <trkpt lat="36.922544986009598" lon="-3.381351018324494">
        <ele>934.53999999999996</ele>
        <time>2025-05-12T07:49:45Z</time>
      </trkpt>
      <trkpt lat="36.922539034858346" lon="-3.38129997253418">
        <ele>934.05999999999995</ele>
        <time>2025-05-12T07:49:46Z</time>
      </trkpt>
      <trkpt lat="36.922520007938147" lon="-3.381205005571246">
        <ele>934.05999999999995</ele>
        <time>2025-05-12T07:49:47Z</time>
      </trkpt>
      <trkpt lat="36.92248597741127" lon="-3.381034014746547">
        <ele>933.10000000000002</ele>
        <time>2025-05-12T07:49:49Z</time>
      </trkpt>
      <trkpt lat="36.922293026000261" lon="-3.380149975419045">
        <ele>931.16999999999996</ele>
        <time>2025-05-12T07:49:56Z</time>
      </trkpt>
      <trkpt lat="36.92222798243165" lon="-3.379762982949615">
        <ele>930.21000000000004</ele>
        <time>2025-05-12T07:49:59Z</time>
      </trkpt>
      <trkpt lat="36.922224964946508" lon="-3.379653012380004">
        <ele>929.73000000000002</ele>
        <time>2025-05-12T07:50:00Z</time>
      </trkpt>
      <trkpt lat="36.922251032665372" lon="-3.37953700684011">
        <ele>929.25</ele>
        <time>2025-05-12T07:50:01Z</time>
      </trkpt>
      <trkpt lat="36.922307023778558" lon="-3.379441034048796">
        <ele>928.76999999999998</ele>
        <time>2025-05-12T07:50:02Z</time>
      </trkpt>
      <trkpt lat="36.922367038205266" lon="-3.379369033500552">
        <ele>928.76999999999998</ele>
        <time>2025-05-12T07:50:03Z</time>
      </trkpt>
      <trkpt lat="36.92246301099658" lon="-3.379369033500552">
        <ele>928.28999999999996</ele>
        <time>2025-05-12T07:50:04Z</time>
      </trkpt>
      <trkpt lat="36.92257197573781" lon="-3.379369033500552">
        <ele>927.80999999999995</ele>
        <time>2025-05-12T07:50:05Z</time>
      </trkpt>
      <trkpt lat="36.922695022076368" lon="-3.379370961338282">
        <ele>927.33000000000004</ele>
        <time>2025-05-12T07:50:06Z</time>
      </trkpt>
      <trkpt lat="36.92282896488905" lon="-3.379381019622088">
        <ele>926.85000000000002</ele>
        <time>2025-05-12T07:50:07Z</time>
      </trkpt>
      <trkpt lat="36.922975983470678" lon="-3.379385964944959">
        <ele>925.88999999999999</ele>
        <time>2025-05-12T07:50:08Z</time>
      </trkpt>
      <trkpt lat="36.92313096486032" lon="-3.37936501018703">
        <ele>925.40999999999997</ele>
        <time>2025-05-12T07:50:09Z</time>
      </trkpt>
      <trkpt lat="36.923296004533768" lon="-3.379342965781689">
        <ele>924.92999999999995</ele>
        <time>2025-05-12T07:50:10Z</time>
      </trkpt>
      <trkpt lat="36.923462972044945" lon="-3.379319999366999">
        <ele>924.45000000000005</ele>
        <time>2025-05-12T07:50:11Z</time>
      </trkpt>
      <trkpt lat="36.923804031684995" lon="-3.379281023517251">
        <ele>923.96000000000004</ele>
        <time>2025-05-12T07:50:13Z</time>
      </trkpt>
      <trkpt lat="36.923976028338075" lon="-3.379274988546968">
        <ele>923.96000000000004</ele>
        <time>2025-05-12T07:50:14Z</time>
      </trkpt>
      <trkpt lat="36.924151964485645" lon="-3.379268031567335">
        <ele>923.96000000000004</ele>
        <time>2025-05-12T07:50:15Z</time>
      </trkpt>
      <trkpt lat="36.924323961138725" lon="-3.379261996597052">
        <ele>924.45000000000005</ele>
        <time>2025-05-12T07:50:16Z</time>
      </trkpt>
      <trkpt lat="36.924476008862257" lon="-3.379203993827105">
        <ele>924.92999999999995</ele>
        <time>2025-05-12T07:50:17Z</time>
      </trkpt>
      <trkpt lat="36.924625961109996" lon="-3.379140039905906">
        <ele>925.40999999999997</ele>
        <time>2025-05-12T07:50:18Z</time>
      </trkpt>
      <trkpt lat="36.924759987741709" lon="-3.379051024094224">
        <ele>925.40999999999997</ele>
        <time>2025-05-12T07:50:19Z</time>
      </trkpt>
      <trkpt lat="36.924884961917996" lon="-3.378964019939303">
        <ele>926.37</ele>
        <time>2025-05-12T07:50:20Z</time>
      </trkpt>
      <trkpt lat="36.925015971064568" lon="-3.378909034654498">
        <ele>926.85000000000002</ele>
        <time>2025-05-12T07:50:21Z</time>
      </trkpt>
      <trkpt lat="36.925157960504293" lon="-3.378863018006086">
        <ele>927.80999999999995</ele>
        <time>2025-05-12T07:50:22Z</time>
      </trkpt>
      <trkpt lat="36.925310008227825" lon="-3.378814989700913">
        <ele>928.28999999999996</ele>
        <time>2025-05-12T07:50:23Z</time>
      </trkpt>
      <trkpt lat="36.925469012930989" lon="-3.378764027729631">
        <ele>928.28999999999996</ele>
        <time>2025-05-12T07:50:24Z</time>
      </trkpt>
      <trkpt lat="36.925617037340999" lon="-3.378670988604426">
        <ele>928.76999999999998</ele>
        <time>2025-05-12T07:50:25Z</time>
      </trkpt>
      <trkpt lat="36.925762966275215" lon="-3.378553977236152">
        <ele>928.76999999999998</ele>
        <time>2025-05-12T07:50:26Z</time>
      </trkpt>
      <trkpt lat="36.925913002341986" lon="-3.378435960039496">
        <ele>929.25</ele>
        <time>2025-05-12T07:50:27Z</time>
      </trkpt>
      <trkpt lat="36.927156960591674" lon="-3.377229971811175">
        <ele>933.58000000000004</ele>
        <time>2025-05-12T07:50:36Z</time>
      </trkpt>
      <trkpt lat="36.927286041900516" lon="-3.377129975706339">
        <ele>934.05999999999995</ele>
        <time>2025-05-12T07:50:37Z</time>
      </trkpt>
      <trkpt lat="36.927406992763281" lon="-3.37704498320818">
        <ele>934.53999999999996</ele>
        <time>2025-05-12T07:50:38Z</time>
      </trkpt>
      <trkpt lat="36.927530961111188" lon="-3.376999972388148">
        <ele>935.01999999999998</ele>
        <time>2025-05-12T07:50:39Z</time>
      </trkpt>
      <trkpt lat="36.927650989964604" lon="-3.376956973224878">
        <ele>935.5</ele>
        <time>2025-05-12T07:50:40Z</time>
      </trkpt>
      <trkpt lat="36.927765989676118" lon="-3.37691598571837">
        <ele>935.98000000000002</ele>
        <time>2025-05-12T07:50:41Z</time>
      </trkpt>
      <trkpt lat="36.927875960245728" lon="-3.376876004040241">
        <ele>936.46000000000004</ele>
        <time>2025-05-12T07:50:42Z</time>
      </trkpt>
      <trkpt lat="36.928228000178933" lon="-3.376844990998507">
        <ele>937.41999999999996</ele>
        <time>2025-05-12T07:50:45Z</time>
      </trkpt>
      <trkpt lat="36.928337970748544" lon="-3.376839961856604">
        <ele>938.38</ele>
        <time>2025-05-12T07:50:46Z</time>
      </trkpt>
      <trkpt lat="36.928432015702128" lon="-3.376800986006856">
        <ele>938.38</ele>
        <time>2025-05-12T07:50:47Z</time>
      </trkpt>
      <trkpt lat="36.928494963794947" lon="-3.376738037914038">
        <ele>938.86000000000001</ele>
        <time>2025-05-12T07:50:48Z</time>
      </trkpt>
      <trkpt lat="36.928547015413642" lon="-3.376686992123723">
        <ele>939.35000000000002</ele>
        <time>2025-05-12T07:50:49Z</time>
      </trkpt>
      <trkpt lat="36.928578028455377" lon="-3.376640975475311">
        <ele>939.35000000000002</ele>
        <time>2025-05-12T07:50:50Z</time>
      </trkpt>
      <trkpt lat="36.928599989041686" lon="-3.376607028767467">
        <ele>939.83000000000004</ele>
        <time>2025-05-12T07:50:51Z</time>
      </trkpt>
      <trkpt lat="36.928613986819983" lon="-3.376585990190506">
        <ele>939.83000000000004</ele>
        <time>2025-05-12T07:50:52Z</time>
      </trkpt>
      <trkpt lat="36.928622033447027" lon="-3.376574004068971">
        <ele>940.30999999999995</ele>
        <time>2025-05-12T07:50:53Z</time>
      </trkpt>
      <trkpt lat="36.928655980154872" lon="-3.376522036269307">
        <ele>941.26999999999998</ele>
        <time>2025-05-12T07:50:56Z</time>
      </trkpt>
      <trkpt lat="36.928677018731833" lon="-3.376492029055953">
        <ele>941.75</ele>
        <time>2025-05-12T07:50:57Z</time>
      </trkpt>
      <trkpt lat="36.928719012066722" lon="-3.376428997144103">
        <ele>942.23000000000002</ele>
        <time>2025-05-12T07:50:58Z</time>
      </trkpt>
      <trkpt lat="36.928751030936837" lon="-3.376410976052284">
        <ele>942.23000000000002</ele>
        <time>2025-05-12T07:50:59Z</time>
      </trkpt>
      <trkpt lat="36.928814984858036" lon="-3.376375017687678">
        <ele>942.71000000000004</ele>
        <time>2025-05-12T07:51:00Z</time>
      </trkpt>
      <trkpt lat="36.92895102314651" lon="-3.376257000491023">
        <ele>942.71000000000004</ele>
        <time>2025-05-12T07:51:02Z</time>
      </trkpt>
      <trkpt lat="36.929010031744838" lon="-3.376157004386187">
        <ele>942.71000000000004</ele>
        <time>2025-05-12T07:51:03Z</time>
      </trkpt>
      <trkpt lat="36.929072979837656" lon="-3.376052984967828">
        <ele>942.23000000000002</ele>
        <time>2025-05-12T07:51:04Z</time>
      </trkpt>
      <trkpt lat="36.929137017577887" lon="-3.37594703771174">
        <ele>942.23000000000002</ele>
        <time>2025-05-12T07:51:05Z</time>
      </trkpt>
      <trkpt lat="36.929199965670705" lon="-3.375842012465">
        <ele>941.75</ele>
        <time>2025-05-12T07:51:06Z</time>
      </trkpt>
      <trkpt lat="36.929258974269032" lon="-3.375742016360164">
        <ele>940.78999999999996</ele>
        <time>2025-05-12T07:51:07Z</time>
      </trkpt>
      <trkpt lat="36.929325023666024" lon="-3.375659035518765">
        <ele>940.30999999999995</ele>
        <time>2025-05-12T07:51:08Z</time>
      </trkpt>
      <trkpt lat="36.929412027820945" lon="-3.375598015263677">
        <ele>939.83000000000004</ele>
        <time>2025-05-12T07:51:09Z</time>
      </trkpt>
      <trkpt lat="36.929497020319104" lon="-3.375536995008588">
        <ele>939.35000000000002</ele>
        <time>2025-05-12T07:51:10Z</time>
      </trkpt>
      <trkpt lat="36.929585030302405" lon="-3.375475974753499">
        <ele>939.35000000000002</ele>
        <time>2025-05-12T07:51:11Z</time>
      </trkpt>
      <trkpt lat="36.929773958399892" lon="-3.375392993912101">
        <ele>938.38</ele>
        <time>2025-05-12T07:51:13Z</time>
      </trkpt>
      <trkpt lat="36.929877977818251" lon="-3.375367010012269">
        <ele>937.89999999999998</ele>
        <time>2025-05-12T07:51:14Z</time>
      </trkpt>
      <trkpt lat="36.930377958342433" lon="-3.375319987535477">
        <ele>936.46000000000004</ele>
        <time>2025-05-12T07:51:18Z</time>
      </trkpt>
      <trkpt lat="36.930493041872978" lon="-3.375286040827632">
        <ele>935.98000000000002</ele>
        <time>2025-05-12T07:51:19Z</time>
      </trkpt>
      <trkpt lat="36.930592032149434" lon="-3.375212028622627">
        <ele>935.5</ele>
        <time>2025-05-12T07:51:20Z</time>
      </trkpt>
      <trkpt lat="36.930659003555775" lon="-3.375124018639326">
        <ele>935.01999999999998</ele>
        <time>2025-05-12T07:51:21Z</time>
      </trkpt>
      <trkpt lat="36.930732009932399" lon="-3.374997032806277">
        <ele>934.53999999999996</ele>
        <time>2025-05-12T07:51:22Z</time>
      </trkpt>
      <trkpt lat="36.930807027965784" lon="-3.374869041144848">
        <ele>934.05999999999995</ele>
        <time>2025-05-12T07:51:23Z</time>
      </trkpt>
      <trkpt lat="36.931011965498328" lon="-3.3744259737432">
        <ele>932.62</ele>
        <time>2025-05-12T07:51:26Z</time>
      </trkpt>
      <trkpt lat="36.931169964373112" lon="-3.373939990997315">
        <ele>932.13999999999999</ele>
        <time>2025-05-12T07:51:29Z</time>
      </trkpt>
      <trkpt lat="36.931211035698652" lon="-3.373771011829376">
        <ele>932.13999999999999</ele>
        <time>2025-05-12T07:51:30Z</time>
      </trkpt>
      <trkpt lat="36.931307008489966" lon="-3.373274970799685">
        <ele>933.10000000000002</ele>
        <time>2025-05-12T07:51:34Z</time>
      </trkpt>
      <trkpt lat="36.931343972682953" lon="-3.37319802492857">
        <ele>933.58000000000004</ele>
        <time>2025-05-12T07:51:35Z</time>
      </trkpt>
      <trkpt lat="36.931400969624519" lon="-3.373128036037087">
        <ele>934.05999999999995</ele>
        <time>2025-05-12T07:51:36Z</time>
      </trkpt>
      <trkpt lat="36.931480010971427" lon="-3.373067015781999">
        <ele>934.53999999999996</ele>
        <time>2025-05-12T07:51:37Z</time>
      </trkpt>
      <trkpt lat="36.93157103843987" lon="-3.373009013012052">
        <ele>934.53999999999996</ele>
        <time>2025-05-12T07:51:38Z</time>
      </trkpt>
      <trkpt lat="36.93247402086854" lon="-3.372420016676188">
        <ele>935.5</ele>
        <time>2025-05-12T07:51:45Z</time>
      </trkpt>
      <trkpt lat="36.933127976953983" lon="-3.37197401560843">
        <ele>935.98000000000002</ele>
        <time>2025-05-12T07:51:50Z</time>
      </trkpt>
      <trkpt lat="36.933212969452143" lon="-3.371880976483226">
        <ele>935.98000000000002</ele>
        <time>2025-05-12T07:51:51Z</time>
      </trkpt>
      <trkpt lat="36.933310031890869" lon="-3.371773017570376">
        <ele>935.98000000000002</ele>
        <time>2025-05-12T07:51:52Z</time>
      </trkpt>
      <trkpt lat="36.933352025225759" lon="-3.371690036728978">
        <ele>936.46000000000004</ele>
        <time>2025-05-12T07:51:53Z</time>
      </trkpt>
      <trkpt lat="36.933413967490196" lon="-3.37156699039042">
        <ele>936.94000000000005</ele>
        <time>2025-05-12T07:51:54Z</time>
      </trkpt>
      <trkpt lat="36.933543970808387" lon="-3.371357023715973">
        <ele>937.89999999999998</ele>
        <time>2025-05-12T07:51:56Z</time>
      </trkpt>
      <trkpt lat="36.933590993285179" lon="-3.371291980147362">
        <ele>938.38</ele>
        <time>2025-05-12T07:51:57Z</time>
      </trkpt>
      <trkpt lat="36.93376500159502" lon="-3.371052006259561">
        <ele>941.26999999999998</ele>
        <time>2025-05-12T07:52:01Z</time>
      </trkpt>
      <trkpt lat="36.933814035728574" lon="-3.37098503485322">
        <ele>941.75</ele>
        <time>2025-05-12T07:52:02Z</time>
      </trkpt>
      <trkpt lat="36.933864997699857" lon="-3.370914962142706">
        <ele>942.71000000000004</ele>
        <time>2025-05-12T07:52:03Z</time>
      </trkpt>
      <trkpt lat="36.93395996466279" lon="-3.370756963267922">
        <ele>944.14999999999998</ele>
        <time>2025-05-12T07:52:05Z</time>
      </trkpt>
      <trkpt lat="36.934007992967963" lon="-3.370667025446892">
        <ele>945.11000000000001</ele>
        <time>2025-05-12T07:52:06Z</time>
      </trkpt>
      <trkpt lat="36.934058032929897" lon="-3.370572980493307">
        <ele>945.59000000000003</ele>
        <time>2025-05-12T07:52:07Z</time>
      </trkpt>
      <trkpt lat="36.934115029871464" lon="-3.370474996045232">
        <ele>946.55999999999995</ele>
        <time>2025-05-12T07:52:08Z</time>
      </trkpt>
      <trkpt lat="36.934191975742579" lon="-3.370397966355085">
        <ele>947.51999999999998</ele>
        <time>2025-05-12T07:52:09Z</time>
      </trkpt>
      <trkpt lat="36.934275962412357" lon="-3.370313979685307">
        <ele>948.48000000000002</ele>
        <time>2025-05-12T07:52:10Z</time>
      </trkpt>
      <trkpt lat="36.934363972395658" lon="-3.370265029370785">
        <ele>949.44000000000005</ele>
        <time>2025-05-12T07:52:11Z</time>
      </trkpt>
      <trkpt lat="36.934468997642398" lon="-3.370206020772457">
        <ele>949.91999999999996</ele>
        <time>2025-05-12T07:52:12Z</time>
      </trkpt>
      <trkpt lat="36.934510990977287" lon="-3.370103007182479">
        <ele>950.39999999999998</ele>
        <time>2025-05-12T07:52:13Z</time>
      </trkpt>
      <trkpt lat="36.93455901928246" lon="-3.369979960843921">
        <ele>951.36000000000001</ele>
        <time>2025-05-12T07:52:14Z</time>
      </trkpt>
      <trkpt lat="36.934640994295478" lon="-3.369712997227907">
        <ele>951.84000000000003</ele>
        <time>2025-05-12T07:52:16Z</time>
      </trkpt>
      <trkpt lat="36.934711989015341" lon="-3.369618030264974">
        <ele>952.32000000000005</ele>
        <time>2025-05-12T07:52:17Z</time>
      </trkpt>
      <trkpt lat="36.934791030362248" lon="-3.369514010846615">
        <ele>952.79999999999995</ele>
        <time>2025-05-12T07:52:18Z</time>
      </trkpt>
      <trkpt lat="36.934876022860408" lon="-3.369406973943114">
        <ele>952.79999999999995</ele>
        <time>2025-05-12T07:52:19Z</time>
      </trkpt>
      <trkpt lat="36.934959003701806" lon="-3.369301026687026">
        <ele>953.27999999999997</ele>
        <time>2025-05-12T07:52:20Z</time>
      </trkpt>
      <trkpt lat="36.935041984543204" lon="-3.369196001440287">
        <ele>953.76999999999998</ele>
        <time>2025-05-12T07:52:21Z</time>
      </trkpt>
      <trkpt lat="36.935135023668408" lon="-3.369100028648973">
        <ele>954.25</ele>
        <time>2025-05-12T07:52:22Z</time>
      </trkpt>
      <trkpt lat="36.935240970924497" lon="-3.369018975645304">
        <ele>954.73000000000002</ele>
        <time>2025-05-12T07:52:23Z</time>
      </trkpt>
      <trkpt lat="36.935449009761214" lon="-3.368823006749153">
        <ele>955.69000000000005</ele>
        <time>2025-05-12T07:52:25Z</time>
      </trkpt>
      <trkpt lat="36.93554699420929" lon="-3.368703983724117">
        <ele>956.16999999999996</ele>
        <time>2025-05-12T07:52:26Z</time>
      </trkpt>
      <trkpt lat="36.935776993632317" lon="-3.368428973481059">
        <ele>956.64999999999998</ele>
        <time>2025-05-12T07:52:29Z</time>
      </trkpt>
      <trkpt lat="36.935865003615618" lon="-3.368354039266706">
        <ele>957.13</ele>
        <time>2025-05-12T07:52:30Z</time>
      </trkpt>
      <trkpt lat="36.936172032728791" lon="-3.368057990446687">
        <ele>957.61000000000001</ele>
        <time>2025-05-12T07:52:33Z</time>
      </trkpt>
      <trkpt lat="36.936394991353154" lon="-3.367804018780589">
        <ele>958.09000000000003</ele>
        <time>2025-05-12T07:52:35Z</time>
      </trkpt>
      <trkpt lat="36.936922967433929" lon="-3.36722700856626">
        <ele>959.52999999999997</ele>
        <time>2025-05-12T07:52:41Z</time>
      </trkpt>
      <trkpt lat="36.937048025429249" lon="-3.367083007469773">
        <ele>960.98000000000002</ele>
        <time>2025-05-12T07:52:48Z</time>
      </trkpt>
      <trkpt lat="36.937184985727072" lon="-3.36692500859499">
        <ele>962.89999999999998</ele>
        <time>2025-05-12T07:53:03Z</time>
      </trkpt>
      <trkpt lat="36.937280036509037" lon="-3.366815960034728">
        <ele>963.38</ele>
        <time>2025-05-12T07:53:50Z</time>
      </trkpt>
      <trkpt lat="36.937286993488669" lon="-3.366812020540237">
        <ele>962.89999999999998</ele>
        <time>2025-05-12T07:53:51Z</time>
      </trkpt>
      <trkpt lat="36.937342984601855" lon="-3.366774972528219">
        <ele>962.89999999999998</ele>
        <time>2025-05-12T07:53:52Z</time>
      </trkpt>
      <trkpt lat="36.937414985150099" lon="-3.366726022213697">
        <ele>962.89999999999998</ele>
        <time>2025-05-12T07:53:53Z</time>
      </trkpt>
      <trkpt lat="36.937504000961781" lon="-3.36666701361537">
        <ele>962.89999999999998</ele>
        <time>2025-05-12T07:53:54Z</time>
      </trkpt>
      <trkpt lat="36.938301036134362" lon="-3.366185976192355">
        <ele>961.46000000000004</ele>
        <time>2025-05-12T07:54:00Z</time>
      </trkpt>
      <trkpt lat="36.939018024131656" lon="-3.365704016759992">
        <ele>960.49000000000001</ele>
        <time>2025-05-12T07:54:05Z</time>
      </trkpt>
      <trkpt lat="36.939133023843169" lon="-3.365602008998394">
        <ele>960.49000000000001</ele>
        <time>2025-05-12T07:54:06Z</time>
      </trkpt>
      <trkpt lat="36.939250035211444" lon="-3.365498995408416">
        <ele>960.49000000000001</ele>
        <time>2025-05-12T07:54:07Z</time>
      </trkpt>
      <trkpt lat="36.939362017437816" lon="-3.36540000513196">
        <ele>960.49000000000001</ele>
        <time>2025-05-12T07:54:08Z</time>
      </trkpt>
      <trkpt lat="36.939511969685555" lon="-3.365316018462181">
        <ele>960.49000000000001</ele>
        <time>2025-05-12T07:54:09Z</time>
      </trkpt>
      <trkpt lat="36.93965001963079" lon="-3.365237982943654">
        <ele>960.98000000000002</ele>
        <time>2025-05-12T07:54:10Z</time>
      </trkpt>
      <trkpt lat="36.939807012677193" lon="-3.365174029022455">
        <ele>960.98000000000002</ele>
        <time>2025-05-12T07:54:11Z</time>
      </trkpt>
      <trkpt lat="36.939955037087202" lon="-3.365126000717282">
        <ele>961.46000000000004</ele>
        <time>2025-05-12T07:54:12Z</time>
      </trkpt>
      <trkpt lat="36.940398020669818" lon="-3.365006977692246">
        <ele>962.89999999999998</ele>
        <time>2025-05-12T07:54:15Z</time>
      </trkpt>
      <trkpt lat="36.940535986796021" lon="-3.364997003227472">
        <ele>963.38</ele>
        <time>2025-05-12T07:54:16Z</time>
      </trkpt>
      <trkpt lat="36.940664984285831" lon="-3.364958027377725">
        <ele>963.86000000000001</ele>
        <time>2025-05-12T07:54:17Z</time>
      </trkpt>
      <trkpt lat="36.9407909642905" lon="-3.364885021001101">
        <ele>964.34000000000003</ele>
        <time>2025-05-12T07:54:18Z</time>
      </trkpt>
      <trkpt lat="36.940907975658774" lon="-3.364816959947348">
        <ele>964.82000000000005</ele>
        <time>2025-05-12T07:54:19Z</time>
      </trkpt>
      <trkpt lat="36.941032027825713" lon="-3.364756023511291">
        <ele>965.77999999999997</ele>
        <time>2025-05-12T07:54:20Z</time>
      </trkpt>
      <trkpt lat="36.941168988123536" lon="-3.364756023511291">
        <ele>965.77999999999997</ele>
        <time>2025-05-12T07:54:21Z</time>
      </trkpt>
      <trkpt lat="36.941322963684797" lon="-3.364756023511291">
        <ele>966.25999999999999</ele>
        <time>2025-05-12T07:54:22Z</time>
      </trkpt>
      <trkpt lat="36.941481968387961" lon="-3.364726016297936">
        <ele>966.25999999999999</ele>
        <time>2025-05-12T07:54:23Z</time>
      </trkpt>
      <trkpt lat="36.941653965041041" lon="-3.364675976336002">
        <ele>966.74000000000001</ele>
        <time>2025-05-12T07:54:24Z</time>
      </trkpt>
      <trkpt lat="36.942124022170901" lon="-3.364483024924994">
        <ele>968.17999999999995</ele>
        <time>2025-05-12T07:54:27Z</time>
      </trkpt>
      <trkpt lat="36.942242961376905" lon="-3.364409012719989">
        <ele>968.66999999999996</ele>
        <time>2025-05-12T07:54:28Z</time>
      </trkpt>
      <trkpt lat="36.942353015765548" lon="-3.364309016615152">
        <ele>969.14999999999998</ele>
        <time>2025-05-12T07:54:29Z</time>
      </trkpt>
      <trkpt lat="36.942449994385242" lon="-3.36421899497509">
        <ele>969.63</ele>
        <time>2025-05-12T07:54:30Z</time>
      </trkpt>
      <trkpt lat="36.94248897023499" lon="-3.36413299664855">
        <ele>970.59000000000003</ele>
        <time>2025-05-12T07:54:31Z</time>
      </trkpt>
      <trkpt lat="36.942515959963202" lon="-3.36402696557343">
        <ele>971.07000000000005</ele>
        <time>2025-05-12T07:54:32Z</time>
      </trkpt>
      <trkpt lat="36.942504979670048" lon="-3.363996958360076">
        <ele>972.02999999999997</ele>
        <time>2025-05-12T07:54:33Z</time>
      </trkpt>
      <trkpt lat="36.942475978285074" lon="-3.363920012488961">
        <ele>972.50999999999999</ele>
        <time>2025-05-12T07:54:34Z</time>
      </trkpt>
      <trkpt lat="36.942446976900101" lon="-3.36385102942586">
        <ele>973.47000000000003</ele>
        <time>2025-05-12T07:54:35Z</time>
      </trkpt>
      <trkpt lat="36.942357961088419" lon="-3.363777017220855">
        <ele>973.95000000000005</ele>
        <time>2025-05-12T07:54:36Z</time>
      </trkpt>
      <trkpt lat="36.942258970811963" lon="-3.363732006400824">
        <ele>974.90999999999997</ele>
        <time>2025-05-12T07:54:37Z</time>
      </trkpt>
      <trkpt lat="36.942129973322153" lon="-3.363700993359089">
        <ele>975.88</ele>
        <time>2025-05-12T07:54:38Z</time>
      </trkpt>
      <trkpt lat="36.94197197444737" lon="-3.363662017509341">
        <ele>975.88</ele>
        <time>2025-05-12T07:54:39Z</time>
      </trkpt>
      <trkpt lat="36.941334027796984" lon="-3.363473005592823">
        <ele>977.32000000000005</ele>
        <time>2025-05-12T07:54:43Z</time>
      </trkpt>
      <trkpt lat="36.941059017553926" lon="-3.363320035859942">
        <ele>978.75999999999999</ele>
        <time>2025-05-12T07:54:45Z</time>
      </trkpt>
      <trkpt lat="36.940933037549257" lon="-3.363305032253265">
        <ele>979.72000000000003</ele>
        <time>2025-05-12T07:54:46Z</time>
      </trkpt>
      <trkpt lat="36.939590005204082" lon="-3.363233031705022">
        <ele>985.49000000000001</ele>
        <time>2025-05-12T07:54:54Z</time>
      </trkpt>
      <trkpt lat="36.939063034951687" lon="-3.363265972584486">
        <ele>988.37</ele>
        <time>2025-05-12T07:54:57Z</time>
      </trkpt>
      <trkpt lat="36.938436990603805" lon="-3.363392958417535">
        <ele>992.70000000000005</ele>
        <time>2025-05-12T07:55:01Z</time>
      </trkpt>
      <trkpt lat="36.938358033075929" lon="-3.363463031128049">
        <ele>993.65999999999997</ele>
        <time>2025-05-12T07:55:02Z</time>
      </trkpt>
      <trkpt lat="36.938301036134362" lon="-3.36355296894908">
        <ele>994.62</ele>
        <time>2025-05-12T07:55:03Z</time>
      </trkpt>
      <trkpt lat="36.938245967030525" lon="-3.363639973104">
        <ele>995.10000000000002</ele>
        <time>2025-05-12T07:55:04Z</time>
      </trkpt>
      <trkpt lat="36.938182013109326" lon="-3.363688001409173">
        <ele>995.58000000000004</ele>
        <time>2025-05-12T07:55:05Z</time>
      </trkpt>
      <trkpt lat="36.938117975369096" lon="-3.363694036379457">
        <ele>995.58000000000004</ele>
        <time>2025-05-12T07:55:06Z</time>
      </trkpt>
      <trkpt lat="36.938056033104658" lon="-3.3636590000242">
        <ele>995.58000000000004</ele>
        <time>2025-05-12T07:55:07Z</time>
      </trkpt>
      <trkpt lat="36.938010016456246" lon="-3.36359697394073">
        <ele>997.01999999999998</ele>
        <time>2025-05-12T07:55:08Z</time>
      </trkpt>
      <trkpt lat="36.938010016456246" lon="-3.363517010584474">
        <ele>997.99000000000001</ele>
        <time>2025-05-12T07:55:09Z</time>
      </trkpt>
      <trkpt lat="36.938027031719685" lon="-3.363438975065947">
        <ele>998.47000000000003</ele>
        <time>2025-05-12T07:55:10Z</time>
      </trkpt>
      <trkpt lat="36.938069025054574" lon="-3.363355994224548">
        <ele>999.42999999999995</ele>
        <time>2025-05-12T07:55:11Z</time>
      </trkpt>
      <trkpt lat="36.938160974532366" lon="-3.363327998667955">
        <ele>999.90999999999997</ele>
        <time>2025-05-12T07:55:12Z</time>
      </trkpt>
      <trkpt lat="36.938267005607486" lon="-3.36329497396946">
        <ele>1000.39</ele>
        <time>2025-05-12T07:55:13Z</time>
      </trkpt>
      <trkpt lat="36.938378987833858" lon="-3.363242000341415">
        <ele>1000.87</ele>
        <time>2025-05-12T07:55:14Z</time>
      </trkpt>
      <trkpt lat="36.938495999202132" lon="-3.363158013671637">
        <ele>1001.35</ele>
        <time>2025-05-12T07:55:15Z</time>
      </trkpt>
      <trkpt lat="36.938929008319974" lon="-3.362915022298694">
        <ele>1003.75</ele>
        <time>2025-05-12T07:55:18Z</time>
      </trkpt>
      <trkpt lat="36.939095975831151" lon="-3.362870011478663">
        <ele>1005.2</ele>
        <time>2025-05-12T07:55:19Z</time>
      </trkpt>
      <trkpt lat="36.93926596082747" lon="-3.362826006487012">
        <ele>1006.64</ele>
        <time>2025-05-12T07:55:20Z</time>
      </trkpt>
      <trkpt lat="36.940290983766317" lon="-3.362603969871998">
        <ele>1013.85</ele>
        <time>2025-05-12T07:55:26Z</time>
      </trkpt>
      <trkpt lat="36.94072499871254" lon="-3.362590977922082">
        <ele>1017.6900000000001</ele>
        <time>2025-05-12T07:55:29Z</time>
      </trkpt>
      <trkpt lat="36.940824994817376" lon="-3.362547978758812">
        <ele>1018.65</ele>
        <time>2025-05-12T07:55:30Z</time>
      </trkpt>
      <trkpt lat="36.941104028373957" lon="-3.362300964072347">
        <ele>1022.5</ele>
        <time>2025-05-12T07:55:33Z</time>
      </trkpt>
      <trkpt lat="36.941190026700497" lon="-3.362225024029613">
        <ele>1023.9400000000001</ele>
        <time>2025-05-12T07:55:34Z</time>
      </trkpt>
      <trkpt lat="36.941267978399992" lon="-3.36215503513813">
        <ele>1025.3800000000001</ele>
        <time>2025-05-12T07:55:35Z</time>
      </trkpt>
      <trkpt lat="36.9413470197469" lon="-3.36209200322628">
        <ele>1026.3399999999999</ele>
        <time>2025-05-12T07:55:36Z</time>
      </trkpt>
      <trkpt lat="36.941439975053072" lon="-3.362061996012926">
        <ele>1028.27</ele>
        <time>2025-05-12T07:55:37Z</time>
      </trkpt>
      <trkpt lat="36.941536031663418" lon="-3.362030982971191">
        <ele>1029.71</ele>
        <time>2025-05-12T07:55:38Z</time>
      </trkpt>
      <trkpt lat="36.941624963656068" lon="-3.362002987414599">
        <ele>1031.1500000000001</ele>
        <time>2025-05-12T07:55:39Z</time>
      </trkpt>
      <trkpt lat="36.941708028316498" lon="-3.361975997686386">
        <ele>1032.1099999999999</ele>
        <time>2025-05-12T07:55:40Z</time>
      </trkpt>
      <trkpt lat="36.94184398278594" lon="-3.361932998523116">
        <ele>1034.04</ele>
        <time>2025-05-12T07:55:42Z</time>
      </trkpt>
      <trkpt lat="36.941871978342533" lon="-3.361924029886723">
        <ele>1035</ele>
        <time>2025-05-12T07:55:43Z</time>
      </trkpt>
      <trkpt lat="36.941888993605971" lon="-3.361854963004589">
        <ele>1035.96</ele>
        <time>2025-05-12T07:55:44Z</time>
      </trkpt>
      <trkpt lat="36.941905003041029" lon="-3.361793020740151">
        <ele>1037.4000000000001</ele>
        <time>2025-05-12T07:55:45Z</time>
      </trkpt>
      <trkpt lat="36.941913971677423" lon="-3.361750021576881">
        <ele>1038.3599999999999</ele>
        <time>2025-05-12T07:55:46Z</time>
      </trkpt>
      <trkpt lat="36.941871978342533" lon="-3.361666034907103">
        <ele>1038.8399999999999</ele>
        <time>2025-05-12T07:55:47Z</time>
      </trkpt>
      <trkpt lat="36.941810036078095" lon="-3.361651031300426">
        <ele>1039.8</ele>
        <time>2025-05-12T07:55:48Z</time>
      </trkpt>
      <trkpt lat="36.941718002781272" lon="-3.361627981066704">
        <ele>1040.28</ele>
        <time>2025-05-12T07:55:49Z</time>
      </trkpt>
      <trkpt lat="36.941609038040042" lon="-3.361603002995253">
        <ele>1040.76</ele>
        <time>2025-05-12T07:55:50Z</time>
      </trkpt>
      <trkpt lat="36.941493032500148" lon="-3.361632004380226">
        <ele>1041.25</ele>
        <time>2025-05-12T07:55:51Z</time>
      </trkpt>
      <trkpt lat="36.941381972283125" lon="-3.361659999936819">
        <ele>1042.21</ele>
        <time>2025-05-12T07:55:52Z</time>
      </trkpt>
      <trkpt lat="36.941273007541895" lon="-3.361686989665031">
        <ele>1042.6900000000001</ele>
        <time>2025-05-12T07:55:53Z</time>
      </trkpt>
      <trkpt lat="36.941159013658762" lon="-3.361737029626966">
        <ele>1042.6900000000001</ele>
        <time>2025-05-12T07:55:54Z</time>
      </trkpt>
      <trkpt lat="36.941078966483474" lon="-3.361825039610267">
        <ele>1043.1700000000001</ele>
        <time>2025-05-12T07:55:55Z</time>
      </trkpt>
      <trkpt lat="36.94100403226912" lon="-3.361908020451665">
        <ele>1043.1700000000001</ele>
        <time>2025-05-12T07:55:56Z</time>
      </trkpt>
      <trkpt lat="36.940932031720877" lon="-3.361995024606586">
        <ele>1043.1700000000001</ele>
        <time>2025-05-12T07:55:57Z</time>
      </trkpt>
      <trkpt lat="36.94087696261704" lon="-3.362087979912758">
        <ele>1043.1700000000001</ele>
        <time>2025-05-12T07:55:58Z</time>
      </trkpt>
      <trkpt lat="36.940822983160615" lon="-3.36217800155282">
        <ele>1043.6500000000001</ele>
        <time>2025-05-12T07:55:59Z</time>
      </trkpt>
      <trkpt lat="36.940749976783991" lon="-3.362204991281033">
        <ele>1044.1300000000001</ele>
        <time>2025-05-12T07:56:00Z</time>
      </trkpt>
      <trkpt lat="36.940664984285831" lon="-3.362232986837626">
        <ele>1045.0899999999999</ele>
        <time>2025-05-12T07:56:01Z</time>
      </trkpt>
      <trkpt lat="36.940578985959291" lon="-3.362232986837626">
        <ele>1045.5699999999999</ele>
        <time>2025-05-12T07:56:02Z</time>
      </trkpt>
      <trkpt lat="36.940476978197694" lon="-3.362208008766174">
        <ele>1046.05</ele>
        <time>2025-05-12T07:56:03Z</time>
      </trkpt>
      <trkpt lat="36.940273968502879" lon="-3.362159980461001">
        <ele>1047.49</ele>
        <time>2025-05-12T07:56:05Z</time>
      </trkpt>
      <trkpt lat="36.940170032903552" lon="-3.362159980461001">
        <ele>1047.97</ele>
        <time>2025-05-12T07:56:06Z</time>
      </trkpt>
      <trkpt lat="36.939379032701254" lon="-3.362146988511086">
        <ele>1052.78</ele>
        <time>2025-05-12T07:56:14Z</time>
      </trkpt>
      <trkpt lat="36.939302003011107" lon="-3.362109018489718">
        <ele>1053.74</ele>
        <time>2025-05-12T07:56:15Z</time>
      </trkpt>
      <trkpt lat="36.939252968877554" lon="-3.36204900406301">
        <ele>1054.22</ele>
        <time>2025-05-12T07:56:16Z</time>
      </trkpt>
      <trkpt lat="36.939226984977722" lon="-3.361964011564851">
        <ele>1054.7</ele>
        <time>2025-05-12T07:56:17Z</time>
      </trkpt>
      <trkpt lat="36.939213993027806" lon="-3.361854963004589">
        <ele>1055.1800000000001</ele>
        <time>2025-05-12T07:56:18Z</time>
      </trkpt>
      <trkpt lat="36.939224973320961" lon="-3.361757984384894">
        <ele>1055.6700000000001</ele>
        <time>2025-05-12T07:56:19Z</time>
      </trkpt>
      <trkpt lat="36.939265038818121" lon="-3.361667040735483">
        <ele>1056.1500000000001</ele>
        <time>2025-05-12T07:56:20Z</time>
      </trkpt>
      <trkpt lat="36.939335027709603" lon="-3.361585987731814">
        <ele>1056.6300000000001</ele>
        <time>2025-05-12T07:56:21Z</time>
      </trkpt>
      <trkpt lat="36.939409961923957" lon="-3.361510969698429">
        <ele>1057.1099999999999</ele>
        <time>2025-05-12T07:56:22Z</time>
      </trkpt>
      <trkpt lat="36.939483974128962" lon="-3.361437041312456">
        <ele>1058.0699999999999</ele>
        <time>2025-05-12T07:56:23Z</time>
      </trkpt>
      <trkpt lat="36.939678015187383" lon="-3.361236965283752">
        <ele>1059.99</ele>
        <time>2025-05-12T07:56:26Z</time>
      </trkpt>
      <trkpt lat="36.939768036827445" lon="-3.361134035512805">
        <ele>1060.95</ele>
        <time>2025-05-12T07:56:28Z</time>
      </trkpt>
      <trkpt lat="36.939791003242135" lon="-3.361063040792942">
        <ele>1061.4300000000001</ele>
        <time>2025-05-12T07:56:29Z</time>
      </trkpt>
      <trkpt lat="36.939791003242135" lon="-3.360985005274415">
        <ele>1061.9100000000001</ele>
        <time>2025-05-12T07:56:30Z</time>
      </trkpt>
      <trkpt lat="36.939766025170684" lon="-3.360920967534185">
        <ele>1062.3900000000001</ele>
        <time>2025-05-12T07:56:31Z</time>
      </trkpt>
      <trkpt lat="36.939724031835794" lon="-3.360858019441366">
        <ele>1063.3599999999999</ele>
        <time>2025-05-12T07:56:32Z</time>
      </trkpt>
      <trkpt lat="36.939680026844144" lon="-3.360792975872755">
        <ele>1063.8399999999999</ele>
        <time>2025-05-12T07:56:33Z</time>
      </trkpt>
      <trkpt lat="36.939602997153997" lon="-3.360770009458065">
        <ele>1063.3599999999999</ele>
        <time>2025-05-12T07:56:34Z</time>
      </trkpt>
      <trkpt lat="36.93952202796936" lon="-3.360777972266078">
        <ele>1062.3900000000001</ele>
        <time>2025-05-12T07:56:35Z</time>
      </trkpt>
      <trkpt lat="36.939437035471201" lon="-3.360785013064742">
        <ele>1061.9100000000001</ele>
        <time>2025-05-12T07:56:36Z</time>
      </trkpt>
      <trkpt lat="36.939360005781054" lon="-3.360859025269747">
        <ele>1060.95</ele>
        <time>2025-05-12T07:56:37Z</time>
      </trkpt>
      <trkpt lat="36.939298985525966" lon="-3.360927002504468">
        <ele>1060.95</ele>
        <time>2025-05-12T07:56:38Z</time>
      </trkpt>
      <trkpt lat="36.939246011897922" lon="-3.360985005274415">
        <ele>1060.95</ele>
        <time>2025-05-12T07:56:39Z</time>
      </trkpt>
      <trkpt lat="36.939194966107607" lon="-3.361042002215982">
        <ele>1060.95</ele>
        <time>2025-05-12T07:56:40Z</time>
      </trkpt>
      <trkpt lat="36.938731027767062" lon="-3.361560003831983">
        <ele>1064.8</ele>
        <time>2025-05-12T07:56:47Z</time>
      </trkpt>
      <trkpt lat="36.938653998076916" lon="-3.361625969409943">
        <ele>1065.76</ele>
        <time>2025-05-12T07:56:48Z</time>
      </trkpt>
      <trkpt lat="36.938574034720659" lon="-3.361671986058354">
        <ele>1066.24</ele>
        <time>2025-05-12T07:56:49Z</time>
      </trkpt>
      <trkpt lat="36.93849298171699" lon="-3.361687995493412">
        <ele>1067.2</ele>
        <time>2025-05-12T07:56:50Z</time>
      </trkpt>
      <trkpt lat="36.938416035845876" lon="-3.361665029078722">
        <ele>1067.6800000000001</ele>
        <time>2025-05-12T07:56:51Z</time>
      </trkpt>
      <trkpt lat="36.938364990055561" lon="-3.361613983288407">
        <ele>1068.1600000000001</ele>
        <time>2025-05-12T07:56:52Z</time>
      </trkpt>
      <trkpt lat="36.938361972570419" lon="-3.361531002447009">
        <ele>1069.1199999999999</ele>
        <time>2025-05-12T07:56:53Z</time>
      </trkpt>
      <trkpt lat="36.938372030854225" lon="-3.361451039090753">
        <ele>1069.5999999999999</ele>
        <time>2025-05-12T07:56:54Z</time>
      </trkpt>
      <trkpt lat="36.93842601031065" lon="-3.361382978037">
        <ele>1070.5699999999999</ele>
        <time>2025-05-12T07:56:55Z</time>
      </trkpt>
      <trkpt lat="36.938499016687274" lon="-3.361315000802279">
        <ele>1071.53</ele>
        <time>2025-05-12T07:56:56Z</time>
      </trkpt>
      <trkpt lat="36.93857898004353" lon="-3.361240988597274">
        <ele>1072.01</ele>
        <time>2025-05-12T07:56:57Z</time>
      </trkpt>
      <trkpt lat="36.939382972195745" lon="-3.360280003398657">
        <ele>1078.74</ele>
        <time>2025-05-12T07:57:07Z</time>
      </trkpt>
      <trkpt lat="36.939467964693904" lon="-3.36020196788013">
        <ele>1079.7</ele>
        <time>2025-05-12T07:57:08Z</time>
      </trkpt>
      <trkpt lat="36.939554968848825" lon="-3.360120998695493">
        <ele>1080.6600000000001</ele>
        <time>2025-05-12T07:57:09Z</time>
      </trkpt>
      <trkpt lat="36.939635016024113" lon="-3.360084034502506">
        <ele>1081.6199999999999</ele>
        <time>2025-05-12T07:57:10Z</time>
      </trkpt>
      <trkpt lat="36.93971699103713" lon="-3.360046986490488">
        <ele>1082.5799999999999</ele>
        <time>2025-05-12T07:57:11Z</time>
      </trkpt>
      <trkpt lat="36.939789997413754" lon="-3.360013039782643">
        <ele>1083.54</ele>
        <time>2025-05-12T07:57:12Z</time>
      </trkpt>
      <trkpt lat="36.939855040982366" lon="-3.359949002042413">
        <ele>1084.5</ele>
        <time>2025-05-12T07:57:13Z</time>
      </trkpt>
      <trkpt lat="36.939898040145636" lon="-3.359864009544253">
        <ele>1084.99</ele>
        <time>2025-05-12T07:57:14Z</time>
      </trkpt>
      <trkpt lat="36.939898040145636" lon="-3.359783962368965">
        <ele>1085.47</ele>
        <time>2025-05-12T07:57:15Z</time>
      </trkpt>
      <trkpt lat="36.939858980476856" lon="-3.359683966264129">
        <ele>1085.95</ele>
        <time>2025-05-12T07:57:16Z</time>
      </trkpt>
      <trkpt lat="36.939783040434122" lon="-3.359649013727903">
        <ele>1086.4300000000001</ele>
        <time>2025-05-12T07:57:17Z</time>
      </trkpt>
      <trkpt lat="36.939725959673524" lon="-3.359649013727903">
        <ele>1086.9100000000001</ele>
        <time>2025-05-12T07:57:18Z</time>
      </trkpt>
      <trkpt lat="36.939649013802409" lon="-3.359739035367966">
        <ele>1087.3900000000001</ele>
        <time>2025-05-12T07:57:19Z</time>
      </trkpt>
      <trkpt lat="36.939592016860843" lon="-3.359805000945926">
        <ele>1088.3499999999999</ele>
        <time>2025-05-12T07:57:20Z</time>
      </trkpt>
      <trkpt lat="36.939528984948993" lon="-3.359880018979311">
        <ele>1089.3099999999999</ele>
        <time>2025-05-12T07:57:21Z</time>
      </trkpt>
      <trkpt lat="36.939456984400749" lon="-3.359949002042413">
        <ele>1090.27</ele>
        <time>2025-05-12T07:57:22Z</time>
      </trkpt>
      <trkpt lat="36.939375009387732" lon="-3.360013039782643">
        <ele>1091.71</ele>
        <time>2025-05-12T07:57:23Z</time>
      </trkpt>
      <trkpt lat="36.939283981919289" lon="-3.360084034502506">
        <ele>1092.2</ele>
        <time>2025-05-12T07:57:24Z</time>
      </trkpt>
      <trkpt lat="36.938336994498968" lon="-3.360916022211313">
        <ele>1101.8099999999999</ele>
        <time>2025-05-12T07:57:32Z</time>
      </trkpt>
      <trkpt lat="36.938084028661251" lon="-3.36108298972249">
        <ele>1104.21</ele>
        <time>2025-05-12T07:57:34Z</time>
      </trkpt>
      <trkpt lat="36.937991995364428" lon="-3.361198995262384">
        <ele>1104.6900000000001</ele>
        <time>2025-05-12T07:57:35Z</time>
      </trkpt>
      <trkpt lat="36.937902979552746" lon="-3.361332016065717">
        <ele>1105.6500000000001</ele>
        <time>2025-05-12T07:57:36Z</time>
      </trkpt>
      <trkpt lat="36.937655964866281" lon="-3.361702999100089">
        <ele>1108.0599999999999</ele>
        <time>2025-05-12T07:57:39Z</time>
      </trkpt>
      <trkpt lat="36.937576001510024" lon="-3.361821016296744">
        <ele>1109.02</ele>
        <time>2025-05-12T07:57:40Z</time>
      </trkpt>
      <trkpt lat="36.937478017061949" lon="-3.36191900074482">
        <ele>1109.98</ele>
        <time>2025-05-12T07:57:41Z</time>
      </trkpt>
      <trkpt lat="36.937361005693674" lon="-3.361974991858006">
        <ele>1110.9400000000001</ele>
        <time>2025-05-12T07:57:42Z</time>
      </trkpt>
      <trkpt lat="36.937252962961793" lon="-3.362010028213263">
        <ele>1111.9000000000001</ele>
        <time>2025-05-12T07:57:43Z</time>
      </trkpt>
      <trkpt lat="36.93713603541255" lon="-3.362020002678037">
        <ele>1113.3399999999999</ele>
        <time>2025-05-12T07:57:44Z</time>
      </trkpt>
      <trkpt lat="36.936999997124076" lon="-3.362030982971191">
        <ele>1114.3099999999999</ele>
        <time>2025-05-12T07:57:45Z</time>
      </trkpt>
      <trkpt lat="36.935846982523799" lon="-3.36224002763629">
        <ele>1122.96</ele>
        <time>2025-05-12T07:57:52Z</time>
      </trkpt>
      <trkpt lat="36.935064028948545" lon="-3.362406995147467">
        <ele>1129.21</ele>
        <time>2025-05-12T07:57:57Z</time>
      </trkpt>
      <trkpt lat="36.934955986216664" lon="-3.362475978210568">
        <ele>1130.6500000000001</ele>
        <time>2025-05-12T07:57:58Z</time>
      </trkpt>
      <trkpt lat="36.934868982061744" lon="-3.362588966265321">
        <ele>1132.0899999999999</ele>
        <time>2025-05-12T07:57:59Z</time>
      </trkpt>
      <trkpt lat="36.934780972078443" lon="-3.362702960148454">
        <ele>1133.53</ele>
        <time>2025-05-12T07:58:00Z</time>
      </trkpt>
      <trkpt lat="36.934692962095141" lon="-3.362817037850618">
        <ele>1134.97</ele>
        <time>2025-05-12T07:58:01Z</time>
      </trkpt>
      <trkpt lat="36.93460101261735" lon="-3.362936982885003">
        <ele>1136.4200000000001</ele>
        <time>2025-05-12T07:58:02Z</time>
      </trkpt>
      <trkpt lat="36.934376964345574" lon="-3.363120965659618">
        <ele>1138.8199999999999</ele>
        <time>2025-05-12T07:58:04Z</time>
      </trkpt>
      <trkpt lat="36.933928029611707" lon="-3.363435035571456">
        <ele>1144.1099999999999</ele>
        <time>2025-05-12T07:58:08Z</time>
      </trkpt>
      <trkpt lat="36.933797020465136" lon="-3.363479962572455">
        <ele>1145.0699999999999</ele>
        <time>2025-05-12T07:58:09Z</time>
      </trkpt>
      <trkpt lat="36.932343011721969" lon="-3.363901991397142">
        <ele>1155.1600000000001</ele>
        <time>2025-05-12T07:58:18Z</time>
      </trkpt>
      <trkpt lat="36.931468024849892" lon="-3.364273980259895">
        <ele>1161.8900000000001</ele>
        <time>2025-05-12T07:58:24Z</time>
      </trkpt>
      <trkpt lat="36.931321006268263" lon="-3.364313039928675">
        <ele>1162.3699999999999</ele>
        <time>2025-05-12T07:58:25Z</time>
      </trkpt>
      <trkpt lat="36.930881962180138" lon="-3.364387974143028">
        <ele>1163.3299999999999</ele>
        <time>2025-05-12T07:58:28Z</time>
      </trkpt>
      <trkpt lat="36.930493041872978" lon="-3.364488976076245">
        <ele>1164.29</ele>
        <time>2025-05-12T07:58:31Z</time>
      </trkpt>
      <trkpt lat="36.930372007191181" lon="-3.364490987733007">
        <ele>1163.8099999999999</ele>
        <time>2025-05-12T07:58:32Z</time>
      </trkpt>
      <trkpt lat="36.929190997034311" lon="-3.36460598744452">
        <ele>1162.8499999999999</ele>
        <time>2025-05-12T07:58:41Z</time>
      </trkpt>
      <trkpt lat="36.929083960130811" lon="-3.364690979942679">
        <ele>1162.3699999999999</ele>
        <time>2025-05-12T07:58:42Z</time>
      </trkpt>
      <trkpt lat="36.928965020924807" lon="-3.364787036553025">
        <ele>1161.8900000000001</ele>
        <time>2025-05-12T07:58:43Z</time>
      </trkpt>
      <trkpt lat="36.927795996889472" lon="-3.365742992609739">
        <ele>1166.22</ele>
        <time>2025-05-12T07:58:52Z</time>
      </trkpt>
      <trkpt lat="36.927384026348591" lon="-3.36606502532959">
        <ele>1169.0999999999999</ele>
        <time>2025-05-12T07:58:56Z</time>
      </trkpt>
      <trkpt lat="36.927301967516541" lon="-3.366128979250789">
        <ele>1170.0599999999999</ele>
        <time>2025-05-12T07:58:57Z</time>
      </trkpt>
      <trkpt lat="36.927214041352272" lon="-3.366128979250789">
        <ele>1170.54</ele>
        <time>2025-05-12T07:58:58Z</time>
      </trkpt>
      <trkpt lat="36.927130976691842" lon="-3.366128979250789">
        <ele>1171.02</ele>
        <time>2025-05-12T07:58:59Z</time>
      </trkpt>
      <trkpt lat="36.927075991407037" lon="-3.366061002016068">
        <ele>1171.5</ele>
        <time>2025-05-12T07:59:00Z</time>
      </trkpt>
      <trkpt lat="36.927033998072147" lon="-3.365977015346289">
        <ele>1171.98</ele>
        <time>2025-05-12T07:59:01Z</time>
      </trkpt>
      <trkpt lat="36.927007008343935" lon="-3.365870984271169">
        <ele>1172.47</ele>
        <time>2025-05-12T07:59:02Z</time>
      </trkpt>
      <trkpt lat="36.926978006958961" lon="-3.365755984559655">
        <ele>1172.47</ele>
        <time>2025-05-12T07:59:03Z</time>
      </trkpt>
      <trkpt lat="36.926946993917227" lon="-3.365632016211748">
        <ele>1172.47</ele>
        <time>2025-05-12T07:59:04Z</time>
      </trkpt>
      <trkpt lat="36.926841968670487" lon="-3.365224990993738">
        <ele>1172.47</ele>
        <time>2025-05-12T07:59:07Z</time>
      </trkpt>
      <trkpt lat="36.926791006699204" lon="-3.365096999332309">
        <ele>1172.47</ele>
        <time>2025-05-12T07:59:08Z</time>
      </trkpt>
      <trkpt lat="36.92673996090889" lon="-3.364971019327641">
        <ele>1172.95</ele>
        <time>2025-05-12T07:59:09Z</time>
      </trkpt>
      <trkpt lat="36.926692016422749" lon="-3.364849984645844">
        <ele>1172.95</ele>
        <time>2025-05-12T07:59:10Z</time>
      </trkpt>
      <trkpt lat="36.926637031137943" lon="-3.364713024348021">
        <ele>1173.4300000000001</ele>
        <time>2025-05-12T07:59:11Z</time>
      </trkpt>
      <trkpt lat="36.926637031137943" lon="-3.364606993272901">
        <ele>1173.9100000000001</ele>
        <time>2025-05-12T07:59:12Z</time>
      </trkpt>
      <trkpt lat="36.926637031137943" lon="-3.364470032975078">
        <ele>1173.9100000000001</ele>
        <time>2025-05-12T07:59:13Z</time>
      </trkpt>
      <trkpt lat="36.926649017259479" lon="-3.364332988858223">
        <ele>1173.9100000000001</ele>
        <time>2025-05-12T07:59:14Z</time>
      </trkpt>
      <trkpt lat="36.926665026694536" lon="-3.3641960285604">
        <ele>1173.9100000000001</ele>
        <time>2025-05-12T07:59:15Z</time>
      </trkpt>
      <trkpt lat="36.926681036129594" lon="-3.364054039120674">
        <ele>1173.9100000000001</ele>
        <time>2025-05-12T07:59:16Z</time>
      </trkpt>
      <trkpt lat="36.926697967574" lon="-3.363906014710665">
        <ele>1173.9100000000001</ele>
        <time>2025-05-12T07:59:17Z</time>
      </trkpt>
      <trkpt lat="36.926680030301213" lon="-3.363762013614178">
        <ele>1173.9100000000001</ele>
        <time>2025-05-12T07:59:18Z</time>
      </trkpt>
      <trkpt lat="36.92665203474462" lon="-3.363611977547407">
        <ele>1173.9100000000001</ele>
        <time>2025-05-12T07:59:19Z</time>
      </trkpt>
      <trkpt lat="36.926621021702886" lon="-3.363452972844243">
        <ele>1173.9100000000001</ele>
        <time>2025-05-12T07:59:20Z</time>
      </trkpt>
      <trkpt lat="36.926590008661151" lon="-3.363284999504685">
        <ele>1173.9100000000001</ele>
        <time>2025-05-12T07:59:21Z</time>
      </trkpt>
      <trkpt lat="36.926556983962655" lon="-3.363111997023225">
        <ele>1173.9100000000001</ele>
        <time>2025-05-12T07:59:22Z</time>
      </trkpt>
      <trkpt lat="36.926540974527597" lon="-3.362935977056623">
        <ele>1173.9100000000001</ele>
        <time>2025-05-12T07:59:23Z</time>
      </trkpt>
      <trkpt lat="36.926532005891204" lon="-3.362770015373826">
        <ele>1173.4300000000001</ele>
        <time>2025-05-12T07:59:24Z</time>
      </trkpt>
      <trkpt lat="36.926555978134274" lon="-3.362612016499043">
        <ele>1173.4300000000001</ele>
        <time>2025-05-12T07:59:25Z</time>
      </trkpt>
      <trkpt lat="36.926597971469164" lon="-3.362461980432272">
        <ele>1172.95</ele>
        <time>2025-05-12T07:59:26Z</time>
      </trkpt>
      <trkpt lat="36.926683969795704" lon="-3.362319990992546">
        <ele>1172.95</ele>
        <time>2025-05-12T07:59:27Z</time>
      </trkpt>
      <trkpt lat="36.926768962293863" lon="-3.362181019037962">
        <ele>1172.47</ele>
        <time>2025-05-12T07:59:28Z</time>
      </trkpt>
      <trkpt lat="36.92684699781239" lon="-3.362053027376533">
        <ele>1171.98</ele>
        <time>2025-05-12T07:59:29Z</time>
      </trkpt>
      <trkpt lat="36.926883962005377" lon="-3.361912965774536">
        <ele>1171.5</ele>
        <time>2025-05-12T07:59:30Z</time>
      </trkpt>
      <trkpt lat="36.926880022510886" lon="-3.361773993819952">
        <ele>1171.02</ele>
        <time>2025-05-12T07:59:31Z</time>
      </trkpt>
      <trkpt lat="36.926829982548952" lon="-3.36163803935051">
        <ele>1170.54</ele>
        <time>2025-05-12T07:59:32Z</time>
      </trkpt>
      <trkpt lat="36.926776003092527" lon="-3.361485991626978">
        <ele>1170.0599999999999</ele>
        <time>2025-05-12T07:59:33Z</time>
      </trkpt>
      <trkpt lat="36.92660802975297" lon="-3.361018029972911">
        <ele>1169.0999999999999</ele>
        <time>2025-05-12T07:59:36Z</time>
      </trkpt>
      <trkpt lat="36.92658900283277" lon="-3.360851984471083">
        <ele>1169.0999999999999</ele>
        <time>2025-05-12T07:59:37Z</time>
      </trkpt>
      <trkpt lat="36.926581040024757" lon="-3.360676970332861">
        <ele>1169.0999999999999</ele>
        <time>2025-05-12T07:59:38Z</time>
      </trkpt>
      <trkpt lat="36.926572993397713" lon="-3.360312022268772">
        <ele>1168.6199999999999</ele>
        <time>2025-05-12T07:59:40Z</time>
      </trkpt>
      <trkpt lat="36.926572993397713" lon="-3.360099960118532">
        <ele>1168.1400000000001</ele>
        <time>2025-05-12T07:59:41Z</time>
      </trkpt>
      <trkpt lat="36.926508033648133" lon="-3.359496966004372">
        <ele>1167.1800000000001</ele>
        <time>2025-05-12T07:59:44Z</time>
      </trkpt>
      <trkpt lat="36.926505016162992" lon="-3.358460040763021">
        <ele>1164.77</ele>
        <time>2025-05-12T07:59:49Z</time>
      </trkpt>
      <trkpt lat="36.926480960100889" lon="-3.358273040503264">
        <ele>1164.77</ele>
        <time>2025-05-12T07:59:50Z</time>
      </trkpt>
      <trkpt lat="36.926293959841132" lon="-3.357217004522681">
        <ele>1162.3699999999999</ele>
        <time>2025-05-12T07:59:56Z</time>
      </trkpt>
      <trkpt lat="36.926293959841132" lon="-3.357066968455911">
        <ele>1161.4100000000001</ele>
        <time>2025-05-12T07:59:57Z</time>
      </trkpt>
      <trkpt lat="36.926324972882867" lon="-3.356915004551411">
        <ele>1160.9300000000001</ele>
        <time>2025-05-12T07:59:58Z</time>
      </trkpt>
      <trkpt lat="36.92643703892827" lon="-3.356580985710025">
        <ele>1159.49</ele>
        <time>2025-05-12T08:00:00Z</time>
      </trkpt>
      <trkpt lat="36.926484983414412" lon="-3.356403037905693">
        <ele>1158.53</ele>
        <time>2025-05-12T08:00:01Z</time>
      </trkpt>
      <trkpt lat="36.926556983962655" lon="-3.356058038771153">
        <ele>1156.5999999999999</ele>
        <time>2025-05-12T08:00:03Z</time>
      </trkpt>
      <trkpt lat="36.926623033359647" lon="-3.355888975784183">
        <ele>1155.6400000000001</ele>
        <time>2025-05-12T08:00:04Z</time>
      </trkpt>
      <trkpt lat="36.926711965352297" lon="-3.355728965252638">
        <ele>1154.6800000000001</ele>
        <time>2025-05-12T08:00:05Z</time>
      </trkpt>
      <trkpt lat="36.927130976691842" lon="-3.354970989748836">
        <ele>1149.3900000000001</ele>
        <time>2025-05-12T08:00:10Z</time>
      </trkpt>
      <trkpt lat="36.927165007218719" lon="-3.354834029451013">
        <ele>1148.4300000000001</ele>
        <time>2025-05-12T08:00:11Z</time>
      </trkpt>
      <trkpt lat="36.927156960591674" lon="-3.354732021689415">
        <ele>1147.47</ele>
        <time>2025-05-12T08:00:12Z</time>
      </trkpt>
      <trkpt lat="36.927127037197351" lon="-3.354623978957534">
        <ele>1146.99</ele>
        <time>2025-05-12T08:00:13Z</time>
      </trkpt>
      <trkpt lat="36.927050007507205" lon="-3.354532029479742">
        <ele>1146.03</ele>
        <time>2025-05-12T08:00:14Z</time>
      </trkpt>
      <trkpt lat="36.926963003352284" lon="-3.35448500700295">
        <ele>1145.55</ele>
        <time>2025-05-12T08:00:15Z</time>
      </trkpt>
      <trkpt lat="36.926840962842107" lon="-3.354458017274737">
        <ele>1145.55</ele>
        <time>2025-05-12T08:00:16Z</time>
      </trkpt>
      <trkpt lat="36.926715988665819" lon="-3.354429015889764">
        <ele>1145.0699999999999</ele>
        <time>2025-05-12T08:00:17Z</time>
      </trkpt>
      <trkpt lat="36.926067983731627" lon="-3.354258025065064">
        <ele>1146.03</ele>
        <time>2025-05-12T08:00:24Z</time>
      </trkpt>
      <trkpt lat="36.925992965698242" lon="-3.354219971224666">
        <ele>1147.95</ele>
        <time>2025-05-12T08:00:31Z</time>
      </trkpt>
      <trkpt lat="36.925992965698242" lon="-3.354219971224666">
        <ele>1147.95</ele>
        <time>2025-05-12T08:01:02Z</time>
      </trkpt>
      <trkpt lat="36.925992965698242" lon="-3.354219971224666">
        <ele>1149.3900000000001</ele>
        <time>2025-05-12T08:02:03Z</time>
      </trkpt>
      <trkpt lat="36.925992965698242" lon="-3.354219971224666">
        <ele>1149.3900000000001</ele>
        <time>2025-05-12T08:02:24Z</time>
      </trkpt>
      <trkpt lat="36.925954995676875" lon="-3.354193987324834">
        <ele>1149.8699999999999</ele>
        <time>2025-05-12T08:02:25Z</time>
      </trkpt>
      <trkpt lat="36.925935968756676" lon="-3.354180995374918">
        <ele>1150.3499999999999</ele>
        <time>2025-05-12T08:02:26Z</time>
      </trkpt>
      <trkpt lat="36.925920965149999" lon="-3.354171020910144">
        <ele>1150.8399999999999</ele>
        <time>2025-05-12T08:02:27Z</time>
      </trkpt>
      <trkpt lat="36.925907973200083" lon="-3.354161968454719">
        <ele>1151.3199999999999</ele>
        <time>2025-05-12T08:02:28Z</time>
      </trkpt>
      <trkpt lat="36.925889030098915" lon="-3.354149982333183">
        <ele>1151.3199999999999</ele>
        <time>2025-05-12T08:02:29Z</time>
      </trkpt>
      <trkpt lat="36.925854999572039" lon="-3.354126010090113">
        <ele>1151.3199999999999</ele>
        <time>2025-05-12T08:02:30Z</time>
      </trkpt>
      <trkpt lat="36.925804959610105" lon="-3.354091979563236">
        <ele>1151.8</ele>
        <time>2025-05-12T08:02:31Z</time>
      </trkpt>
      <trkpt lat="36.925742011517286" lon="-3.354048980399966">
        <ele>1151.8</ele>
        <time>2025-05-12T08:02:32Z</time>
      </trkpt>
      <trkpt lat="36.925580995157361" lon="-3.353939009830356">
        <ele>1152.28</ele>
        <time>2025-05-12T08:02:34Z</time>
      </trkpt>
      <trkpt lat="36.925014965236187" lon="-3.353627035394311">
        <ele>1154.6800000000001</ele>
        <time>2025-05-12T08:02:39Z</time>
      </trkpt>
      <trkpt lat="36.924893008545041" lon="-3.353552017360926">
        <ele>1155.6400000000001</ele>
        <time>2025-05-12T08:02:40Z</time>
      </trkpt>
      <trkpt lat="36.924786977469921" lon="-3.353457972407341">
        <ele>1156.5999999999999</ele>
        <time>2025-05-12T08:02:41Z</time>
      </trkpt>
      <trkpt lat="36.924693016335368" lon="-3.353339033201337">
        <ele>1157.5599999999999</ele>
        <time>2025-05-12T08:02:42Z</time>
      </trkpt>
      <trkpt lat="36.924616992473602" lon="-3.35319503210485">
        <ele>1159.01</ele>
        <time>2025-05-12T08:02:43Z</time>
      </trkpt>
      <trkpt lat="36.924537029117346" lon="-3.353040972724557">
        <ele>1159.97</ele>
        <time>2025-05-12T08:02:44Z</time>
      </trkpt>
      <trkpt lat="36.924277022480965" lon="-3.352438984438777">
        <ele>1164.29</ele>
        <time>2025-05-12T08:02:48Z</time>
      </trkpt>
      <trkpt lat="36.924208961427212" lon="-3.352342005819082">
        <ele>1165.26</ele>
        <time>2025-05-12T08:02:49Z</time>
      </trkpt>
      <trkpt lat="36.924150036647916" lon="-3.352259024977684">
        <ele>1165.74</ele>
        <time>2025-05-12T08:02:50Z</time>
      </trkpt>
      <trkpt lat="36.924093961715698" lon="-3.352196998894215">
        <ele>1166.7</ele>
        <time>2025-05-12T08:02:51Z</time>
      </trkpt>
      <trkpt lat="36.92403101362288" lon="-3.352144025266171">
        <ele>1168.1400000000001</ele>
        <time>2025-05-12T08:02:52Z</time>
      </trkpt>
      <trkpt lat="36.923963958397508" lon="-3.352088034152985">
        <ele>1169.0999999999999</ele>
        <time>2025-05-12T08:02:53Z</time>
      </trkpt>
      <trkpt lat="36.923898998647928" lon="-3.352032965049148">
        <ele>1169.5799999999999</ele>
        <time>2025-05-12T08:02:54Z</time>
      </trkpt>
      <trkpt lat="36.923840995877981" lon="-3.351970016956329">
        <ele>1170.0599999999999</ele>
        <time>2025-05-12T08:02:55Z</time>
      </trkpt>
      <trkpt lat="36.923814006149769" lon="-3.351888963952661">
        <ele>1170.54</ele>
        <time>2025-05-12T08:02:56Z</time>
      </trkpt>
      <trkpt lat="36.923815011978149" lon="-3.351790979504585">
        <ele>1171.5</ele>
        <time>2025-05-12T08:02:57Z</time>
      </trkpt>
      <trkpt lat="36.923835966736078" lon="-3.351694000884891">
        <ele>1171.98</ele>
        <time>2025-05-12T08:02:58Z</time>
      </trkpt>
      <trkpt lat="36.923887012526393" lon="-3.351609008386731">
        <ele>1172.47</ele>
        <time>2025-05-12T08:02:59Z</time>
      </trkpt>
      <trkpt lat="36.923973010852933" lon="-3.351537007838488">
        <ele>1173.4300000000001</ele>
        <time>2025-05-12T08:03:00Z</time>
      </trkpt>
      <trkpt lat="36.924068983644247" lon="-3.351460983976722">
        <ele>1173.9100000000001</ele>
        <time>2025-05-12T08:03:01Z</time>
      </trkpt>
      <trkpt lat="36.924170991405845" lon="-3.351380014792085">
        <ele>1174.3900000000001</ele>
        <time>2025-05-12T08:03:02Z</time>
      </trkpt>
      <trkpt lat="36.924277022480965" lon="-3.351296028122306">
        <ele>1174.8699999999999</ele>
        <time>2025-05-12T08:03:03Z</time>
      </trkpt>
      <trkpt lat="36.924482965841889" lon="-3.351133000105619">
        <ele>1175.8299999999999</ele>
        <time>2025-05-12T08:03:05Z</time>
      </trkpt>
      <trkpt lat="36.92536398768425" lon="-3.350221971049905">
        <ele>1181.5999999999999</ele>
        <time>2025-05-12T08:03:14Z</time>
      </trkpt>
      <trkpt lat="36.925479993224144" lon="-3.35010102018714">
        <ele>1182.5599999999999</ele>
        <time>2025-05-12T08:03:15Z</time>
      </trkpt>
      <trkpt lat="36.925788028165698" lon="-3.349619982764125">
        <ele>1184.96</ele>
        <time>2025-05-12T08:03:18Z</time>
      </trkpt>
      <trkpt lat="36.925861034542322" lon="-3.349443040788174">
        <ele>1186.4000000000001</ele>
        <time>2025-05-12T08:03:19Z</time>
      </trkpt>
      <trkpt lat="36.925975028425455" lon="-3.349083960056305">
        <ele>1188.3299999999999</ele>
        <time>2025-05-12T08:03:21Z</time>
      </trkpt>
      <trkpt lat="36.926061026751995" lon="-3.348929984495044">
        <ele>1189.29</ele>
        <time>2025-05-12T08:03:22Z</time>
      </trkpt>
      <trkpt lat="36.926270993426442" lon="-3.348623961210251">
        <ele>1191.6900000000001</ele>
        <time>2025-05-12T08:03:24Z</time>
      </trkpt>
      <trkpt lat="36.926474003121257" lon="-3.348335037007928">
        <ele>1193.6099999999999</ele>
        <time>2025-05-12T08:03:26Z</time>
      </trkpt>
      <trkpt lat="36.92661096341908" lon="-3.348229005932808">
        <ele>1194.5799999999999</ele>
        <time>2025-05-12T08:03:27Z</time>
      </trkpt>
      <trkpt lat="36.926755970343947" lon="-3.348118029534817">
        <ele>1195.54</ele>
        <time>2025-05-12T08:03:28Z</time>
      </trkpt>
      <trkpt lat="36.92690902389586" lon="-3.348001018166542">
        <ele>1196.5</ele>
        <time>2025-05-12T08:03:29Z</time>
      </trkpt>
      <trkpt lat="36.927067022770643" lon="-3.347878977656364">
        <ele>1197.9400000000001</ele>
        <time>2025-05-12T08:03:30Z</time>
      </trkpt>
      <trkpt lat="36.927890041843057" lon="-3.34724698215723">
        <ele>1203.23</ele>
        <time>2025-05-12T08:03:35Z</time>
      </trkpt>
      <trkpt lat="36.928878016769886" lon="-3.346121963113546">
        <ele>1212.3599999999999</ele>
        <time>2025-05-12T08:03:42Z</time>
      </trkpt>
      <trkpt lat="36.928987987339497" lon="-3.345942003652453">
        <ele>1213.8</ele>
        <time>2025-05-12T08:03:43Z</time>
      </trkpt>
      <trkpt lat="36.929093012586236" lon="-3.345757015049458">
        <ele>1214.76</ele>
        <time>2025-05-12T08:03:44Z</time>
      </trkpt>
      <trkpt lat="36.929215975105762" lon="-3.345592981204391">
        <ele>1215.72</ele>
        <time>2025-05-12T08:03:45Z</time>
      </trkpt>
      <trkpt lat="36.929361987859011" lon="-3.345454009249806">
        <ele>1216.6900000000001</ele>
        <time>2025-05-12T08:03:46Z</time>
      </trkpt>
      <trkpt lat="36.929509006440639" lon="-3.345313025638461">
        <ele>1217.6500000000001</ele>
        <time>2025-05-12T08:03:47Z</time>
      </trkpt>
      <trkpt lat="36.929770018905401" lon="-3.34498998709023">
        <ele>1220.05</ele>
        <time>2025-05-12T08:03:49Z</time>
      </trkpt>
      <trkpt lat="36.929888958111405" lon="-3.344809021800757">
        <ele>1221.49</ele>
        <time>2025-05-12T08:03:50Z</time>
      </trkpt>
      <trkpt lat="36.930337976664305" lon="-3.344013998284936">
        <ele>1227.26</ele>
        <time>2025-05-12T08:03:55Z</time>
      </trkpt>
      <trkpt lat="36.930383993312716" lon="-3.343865973874927">
        <ele>1228.7</ele>
        <time>2025-05-12T08:03:56Z</time>
      </trkpt>
      <trkpt lat="36.930421963334084" lon="-3.343706969171763">
        <ele>1229.6600000000001</ele>
        <time>2025-05-12T08:03:57Z</time>
      </trkpt>
      <trkpt lat="36.930444007739425" lon="-3.343543019145727">
        <ele>1230.6199999999999</ele>
        <time>2025-05-12T08:03:58Z</time>
      </trkpt>
      <trkpt lat="36.930464962497354" lon="-3.343383008614183">
        <ele>1231.5899999999999</ele>
        <time>2025-05-12T08:03:59Z</time>
      </trkpt>
      <trkpt lat="36.930505027994514" lon="-3.343074973672628">
        <ele>1233.99</ele>
        <time>2025-05-12T08:04:01Z</time>
      </trkpt>
      <trkpt lat="36.930530006065965" lon="-3.342929966747761">
        <ele>1234.95</ele>
        <time>2025-05-12T08:04:02Z</time>
      </trkpt>
      <trkpt lat="36.930579962208867" lon="-3.342788983136416">
        <ele>1236.3900000000001</ele>
        <time>2025-05-12T08:04:03Z</time>
      </trkpt>
      <trkpt lat="36.93062799051404" lon="-3.342655040323734">
        <ele>1237.3499999999999</ele>
        <time>2025-05-12T08:04:04Z</time>
      </trkpt>
      <trkpt lat="36.930698985233903" lon="-3.342535011470318">
        <ele>1238.8</ele>
        <time>2025-05-12T08:04:05Z</time>
      </trkpt>
      <trkpt lat="36.930767968297005" lon="-3.342418000102043">
        <ele>1239.76</ele>
        <time>2025-05-12T08:04:06Z</time>
      </trkpt>
      <trkpt lat="36.930909035727382" lon="-3.342179032042623">
        <ele>1242.1600000000001</ele>
        <time>2025-05-12T08:04:08Z</time>
      </trkpt>
      <trkpt lat="36.930950023233891" lon="-3.342053974047303">
        <ele>1243.1199999999999</ele>
        <time>2025-05-12T08:04:09Z</time>
      </trkpt>
      <trkpt lat="36.930947005748749" lon="-3.341882983222604">
        <ele>1244.0799999999999</ele>
        <time>2025-05-12T08:04:10Z</time>
      </trkpt>
      <trkpt lat="36.930918004363775" lon="-3.341761026531458">
        <ele>1245.04</ele>
        <time>2025-05-12T08:04:11Z</time>
      </trkpt>
      <trkpt lat="36.930890008807182" lon="-3.34163898602128">
        <ele>1246.49</ele>
        <time>2025-05-12T08:04:12Z</time>
      </trkpt>
      <trkpt lat="36.931001991033554" lon="-3.340431991964579">
        <ele>1250.3299999999999</ele>
        <time>2025-05-12T08:04:20Z</time>
      </trkpt>
      <trkpt lat="36.931455032899976" lon="-3.339360030367971">
        <ele>1248.8900000000001</ele>
        <time>2025-05-12T08:04:28Z</time>
      </trkpt>
      <trkpt lat="36.931643038988113" lon="-3.33903799764812">
        <ele>1247.9300000000001</ele>
        <time>2025-05-12T08:04:31Z</time>
      </trkpt>
      <trkpt lat="36.931671034544706" lon="-3.338939007371664">
        <ele>1247.45</ele>
        <time>2025-05-12T08:04:32Z</time>
      </trkpt>
      <trkpt lat="36.93170104175806" lon="-3.338834987953305">
        <ele>1246.97</ele>
        <time>2025-05-12T08:04:33Z</time>
      </trkpt>
      <trkpt lat="36.931676985695958" lon="-3.338764999061823">
        <ele>1246.97</ele>
        <time>2025-05-12T08:04:34Z</time>
      </trkpt>
      <trkpt lat="36.931641027331352" lon="-3.338659973815084">
        <ele>1246.97</ele>
        <time>2025-05-12T08:04:35Z</time>
      </trkpt>
      <trkpt lat="36.931601967662573" lon="-3.338548997417092">
        <ele>1246.49</ele>
        <time>2025-05-12T08:04:36Z</time>
      </trkpt>
      <trkpt lat="36.931561985984445" lon="-3.338432991877198">
        <ele>1246.97</ele>
        <time>2025-05-12T08:04:37Z</time>
      </trkpt>
      <trkpt lat="36.931522004306316" lon="-3.338316986337304">
        <ele>1246.97</ele>
        <time>2025-05-12T08:04:38Z</time>
      </trkpt>
      <trkpt lat="36.93150800652802" lon="-3.338209027424455">
        <ele>1246.49</ele>
        <time>2025-05-12T08:04:39Z</time>
      </trkpt>
      <trkpt lat="36.93150800652802" lon="-3.338081035763025">
        <ele>1246.49</ele>
        <time>2025-05-12T08:04:40Z</time>
      </trkpt>
      <trkpt lat="36.93150800652802" lon="-3.337934017181397">
        <ele>1246.01</ele>
        <time>2025-05-12T08:04:41Z</time>
      </trkpt>
      <trkpt lat="36.931553017348051" lon="-3.33785698749125">
        <ele>1245.53</ele>
        <time>2025-05-12T08:04:42Z</time>
      </trkpt>
      <trkpt lat="36.931613031774759" lon="-3.337753973901272">
        <ele>1245.04</ele>
        <time>2025-05-12T08:04:43Z</time>
      </trkpt>
      <trkpt lat="36.931675979867578" lon="-3.337646014988422">
        <ele>1244.5599999999999</ele>
        <time>2025-05-12T08:04:44Z</time>
      </trkpt>
      <trkpt lat="36.931884018704295" lon="-3.337237983942032">
        <ele>1241.6800000000001</ele>
        <time>2025-05-12T08:04:48Z</time>
      </trkpt>
      <trkpt lat="36.93191603757441" lon="-3.337161960080266">
        <ele>1241.2</ele>
        <time>2025-05-12T08:04:49Z</time>
      </trkpt>
      <trkpt lat="36.931902961805463" lon="-3.337075039744377">
        <ele>1240.24</ele>
        <time>2025-05-12T08:04:50Z</time>
      </trkpt>
      <trkpt lat="36.931893993169069" lon="-3.337011002004147">
        <ele>1239.76</ele>
        <time>2025-05-12T08:04:51Z</time>
      </trkpt>
      <trkpt lat="36.931835990399122" lon="-3.336966997012496">
        <ele>1239.28</ele>
        <time>2025-05-12T08:04:52Z</time>
      </trkpt>
      <trkpt lat="36.931762984022498" lon="-3.336913017556071">
        <ele>1238.8</ele>
        <time>2025-05-12T08:04:53Z</time>
      </trkpt>
      <trkpt lat="36.931688971817493" lon="-3.336857026442885">
        <ele>1239.28</ele>
        <time>2025-05-12T08:04:54Z</time>
      </trkpt>
      <trkpt lat="36.931615965440869" lon="-3.336786031723023">
        <ele>1239.28</ele>
        <time>2025-05-12T08:04:55Z</time>
      </trkpt>
      <trkpt lat="36.931562991812825" lon="-3.336700033396483">
        <ele>1239.28</ele>
        <time>2025-05-12T08:04:56Z</time>
      </trkpt>
      <trkpt lat="36.931526027619839" lon="-3.336574975401163">
        <ele>1239.28</ele>
        <time>2025-05-12T08:04:57Z</time>
      </trkpt>
      <trkpt lat="36.931518986821175" lon="-3.336453018710017">
        <ele>1239.28</ele>
        <time>2025-05-12T08:04:58Z</time>
      </trkpt>
      <trkpt lat="36.931512029841542" lon="-3.336328966543078">
        <ele>1239.76</ele>
        <time>2025-05-12T08:04:59Z</time>
      </trkpt>
      <trkpt lat="36.931531978771091" lon="-3.336200974881649">
        <ele>1239.76</ele>
        <time>2025-05-12T08:05:00Z</time>
      </trkpt>
      <trkpt lat="36.931581012904644" lon="-3.336083041504026">
        <ele>1239.76</ele>
        <time>2025-05-12T08:05:01Z</time>
      </trkpt>
      <trkpt lat="36.931629963219166" lon="-3.335963012650609">
        <ele>1240.24</ele>
        <time>2025-05-12T08:05:02Z</time>
      </trkpt>
      <trkpt lat="36.931682014837861" lon="-3.335848012939096">
        <ele>1239.76</ele>
        <time>2025-05-12T08:05:03Z</time>
      </trkpt>
      <trkpt lat="36.931738005951047" lon="-3.335735024884343">
        <ele>1239.76</ele>
        <time>2025-05-12T08:05:04Z</time>
      </trkpt>
      <trkpt lat="36.931844037026167" lon="-3.335523968562484">
        <ele>1239.76</ele>
        <time>2025-05-12T08:05:06Z</time>
      </trkpt>
      <trkpt lat="36.931893993169069" lon="-3.335423972457647">
        <ele>1239.76</ele>
        <time>2025-05-12T08:05:07Z</time>
      </trkpt>
      <trkpt lat="36.931884018704295" lon="-3.33532003685832">
        <ele>1239.28</ele>
        <time>2025-05-12T08:05:08Z</time>
      </trkpt>
      <trkpt lat="36.931868009269238" lon="-3.335195984691382">
        <ele>1238.8</ele>
        <time>2025-05-12T08:05:09Z</time>
      </trkpt>
      <trkpt lat="36.931826015934348" lon="-3.335076961666346">
        <ele>1238.3199999999999</ele>
        <time>2025-05-12T08:05:10Z</time>
      </trkpt>
      <trkpt lat="36.931785028427839" lon="-3.334963973611593">
        <ele>1238.3199999999999</ele>
        <time>2025-05-12T08:05:11Z</time>
      </trkpt>
      <trkpt lat="36.93170296959579" lon="-3.33474101498723">
        <ele>1237.8299999999999</ele>
        <time>2025-05-12T08:05:13Z</time>
      </trkpt>
      <trkpt lat="36.931690983474255" lon="-3.334618974477053">
        <ele>1237.8299999999999</ele>
        <time>2025-05-12T08:05:14Z</time>
      </trkpt>
      <trkpt lat="36.93168100900948" lon="-3.334490982815623">
        <ele>1237.8299999999999</ele>
        <time>2025-05-12T08:05:15Z</time>
      </trkpt>
      <trkpt lat="36.93165997043252" lon="-3.334244973957539">
        <ele>1236.3900000000001</ele>
        <time>2025-05-12T08:05:17Z</time>
      </trkpt>
      <trkpt lat="36.931608002632856" lon="-3.334126034751535">
        <ele>1235.9100000000001</ele>
        <time>2025-05-12T08:05:18Z</time>
      </trkpt>
      <trkpt lat="36.931544970721006" lon="-3.334005000069737">
        <ele>1235.4300000000001</ele>
        <time>2025-05-12T08:05:19Z</time>
      </trkpt>
      <trkpt lat="36.931482022628188" lon="-3.333882037550211">
        <ele>1234.47</ele>
        <time>2025-05-12T08:05:20Z</time>
      </trkpt>
      <trkpt lat="36.931421002373099" lon="-3.333767037838697">
        <ele>1233.99</ele>
        <time>2025-05-12T08:05:21Z</time>
      </trkpt>
      <trkpt lat="36.931371968239546" lon="-3.333661006763578">
        <ele>1233.51</ele>
        <time>2025-05-12T08:05:22Z</time>
      </trkpt>
      <trkpt lat="36.93133600987494" lon="-3.33353997208178">
        <ele>1233.51</ele>
        <time>2025-05-12T08:05:23Z</time>
      </trkpt>
      <trkpt lat="36.931326035410166" lon="-3.333414997905493">
        <ele>1233.51</ele>
        <time>2025-05-12T08:05:24Z</time>
      </trkpt>
      <trkpt lat="36.931350007653236" lon="-3.333293963223696">
        <ele>1233.51</ele>
        <time>2025-05-12T08:05:25Z</time>
      </trkpt>
      <trkpt lat="36.931405998766422" lon="-3.333190027624369">
        <ele>1233.51</ele>
        <time>2025-05-12T08:05:26Z</time>
      </trkpt>
      <trkpt lat="36.931474981829524" lon="-3.333093971014023">
        <ele>1233.51</ele>
        <time>2025-05-12T08:05:27Z</time>
      </trkpt>
      <trkpt lat="36.931544970721006" lon="-3.332996992394328">
        <ele>1233.03</ele>
        <time>2025-05-12T08:05:28Z</time>
      </trkpt>
      <trkpt lat="36.931684026494622" lon="-3.332805968821049">
        <ele>1232.55</ele>
        <time>2025-05-12T08:05:30Z</time>
      </trkpt>
      <trkpt lat="36.931755021214485" lon="-3.332708990201354">
        <ele>1232.55</ele>
        <time>2025-05-12T08:05:31Z</time>
      </trkpt>
      <trkpt lat="36.932048974558711" lon="-3.331980016082525">
        <ele>1232.55</ele>
        <time>2025-05-12T08:05:37Z</time>
      </trkpt>
      <trkpt lat="36.932108988985419" lon="-3.331859987229109">
        <ele>1232.55</ele>
        <time>2025-05-12T08:05:38Z</time>
      </trkpt>
      <trkpt lat="36.932190963998437" lon="-3.33175303414464">
        <ele>1233.03</ele>
        <time>2025-05-12T08:05:39Z</time>
      </trkpt>
      <trkpt lat="36.932852966710925" lon="-3.331052977591753">
        <ele>1232.55</ele>
        <time>2025-05-12T08:05:44Z</time>
      </trkpt>
      <trkpt lat="36.932946005836129" lon="-3.330906964838505">
        <ele>1232.0699999999999</ele>
        <time>2025-05-12T08:05:45Z</time>
      </trkpt>
      <trkpt lat="36.933107022196054" lon="-3.330704960972071">
        <ele>1232.0699999999999</ele>
        <time>2025-05-12T08:05:47Z</time>
      </trkpt>
      <trkpt lat="36.933186985552311" lon="-3.330650981515646">
        <ele>1232.0699999999999</ele>
        <time>2025-05-12T08:05:48Z</time>
      </trkpt>
      <trkpt lat="36.933282036334276" lon="-3.330619968473911">
        <ele>1232.0699999999999</ele>
        <time>2025-05-12T08:05:49Z</time>
      </trkpt>
      <trkpt lat="36.933353031054139" lon="-3.330595996230841">
        <ele>1232.0699999999999</ele>
        <time>2025-05-12T08:05:50Z</time>
      </trkpt>
      <trkpt lat="36.933457972481847" lon="-3.330490970984101">
        <ele>1231.5899999999999</ele>
        <time>2025-05-12T08:05:51Z</time>
      </trkpt>
      <trkpt lat="36.933499965816736" lon="-3.330413019284606">
        <ele>1231.1099999999999</ele>
        <time>2025-05-12T08:05:52Z</time>
      </trkpt>
      <trkpt lat="36.933539025485516" lon="-3.330296007916331">
        <ele>1230.6199999999999</ele>
        <time>2025-05-12T08:05:53Z</time>
      </trkpt>
      <trkpt lat="36.933568026870489" lon="-3.33018695935607">
        <ele>1230.6199999999999</ele>
        <time>2025-05-12T08:05:54Z</time>
      </trkpt>
      <trkpt lat="36.933568026870489" lon="-3.330065002664924">
        <ele>1230.1400000000001</ele>
        <time>2025-05-12T08:05:55Z</time>
      </trkpt>
      <trkpt lat="36.933576995506883" lon="-3.329934999346733">
        <ele>1229.6600000000001</ele>
        <time>2025-05-12T08:05:56Z</time>
      </trkpt>
      <trkpt lat="36.933611026033759" lon="-3.329780017957091">
        <ele>1229.1800000000001</ele>
        <time>2025-05-12T08:05:57Z</time>
      </trkpt>
      <trkpt lat="36.933666011318564" lon="-3.329701982438564">
        <ele>1228.7</ele>
        <time>2025-05-12T08:05:58Z</time>
      </trkpt>
      <trkpt lat="36.933728959411383" lon="-3.329613972455263">
        <ele>1228.22</ele>
        <time>2025-05-12T08:05:59Z</time>
      </trkpt>
      <trkpt lat="36.933954013511539" lon="-3.329256987199187">
        <ele>1225.8199999999999</ele>
        <time>2025-05-12T08:06:03Z</time>
      </trkpt>
      <trkpt lat="36.933997012674809" lon="-3.329162020236254">
        <ele>1225.3399999999999</ele>
        <time>2025-05-12T08:06:04Z</time>
      </trkpt>
      <trkpt lat="36.934020984917879" lon="-3.329075016081333">
        <ele>1224.3800000000001</ele>
        <time>2025-05-12T08:06:05Z</time>
      </trkpt>
      <trkpt lat="36.934040011838078" lon="-3.328792965039611">
        <ele>1222.9300000000001</ele>
        <time>2025-05-12T08:06:07Z</time>
      </trkpt>
      <trkpt lat="36.934018973261118" lon="-3.328455006703734">
        <ele>1221.49</ele>
        <time>2025-05-12T08:06:10Z</time>
      </trkpt>
      <trkpt lat="36.934024002403021" lon="-3.328326009213924">
        <ele>1220.53</ele>
        <time>2025-05-12T08:06:11Z</time>
      </trkpt>
      <trkpt lat="36.934184012934566" lon="-3.3278420381248">
        <ele>1218.6099999999999</ele>
        <time>2025-05-12T08:06:15Z</time>
      </trkpt>
      <trkpt lat="36.934382999315858" lon="-3.327284976840019">
        <ele>1215.24</ele>
        <time>2025-05-12T08:06:21Z</time>
      </trkpt>
      <trkpt lat="36.934441002085805" lon="-3.327193027362227">
        <ele>1214.76</ele>
        <time>2025-05-12T08:06:22Z</time>
      </trkpt>
      <trkpt lat="36.934514008462429" lon="-3.327125972136855">
        <ele>1214.76</ele>
        <time>2025-05-12T08:06:23Z</time>
      </trkpt>
      <trkpt lat="36.934587014839053" lon="-3.327057994902134">
        <ele>1214.76</ele>
        <time>2025-05-12T08:06:24Z</time>
      </trkpt>
      <trkpt lat="36.934662032872438" lon="-3.326988006010652">
        <ele>1214.76</ele>
        <time>2025-05-12T08:06:25Z</time>
      </trkpt>
      <trkpt lat="36.934721041470766" lon="-3.326909970492125">
        <ele>1214.76</ele>
        <time>2025-05-12T08:06:26Z</time>
      </trkpt>
      <trkpt lat="36.934764040634036" lon="-3.326806034892798">
        <ele>1214.76</ele>
        <time>2025-05-12T08:06:27Z</time>
      </trkpt>
      <trkpt lat="36.934812990948558" lon="-3.326690029352903">
        <ele>1214.76</ele>
        <time>2025-05-12T08:06:28Z</time>
      </trkpt>
      <trkpt lat="36.934812990948558" lon="-3.326567988842726">
        <ele>1214.76</ele>
        <time>2025-05-12T08:06:29Z</time>
      </trkpt>
      <trkpt lat="36.934812990948558" lon="-3.326437985524535">
        <ele>1214.76</ele>
        <time>2025-05-12T08:06:30Z</time>
      </trkpt>
      <trkpt lat="36.934812990948558" lon="-3.326182002201676">
        <ele>1214.76</ele>
        <time>2025-05-12T08:06:32Z</time>
      </trkpt>
      <trkpt lat="36.934827994555235" lon="-3.326054010540247">
        <ele>1214.76</ele>
        <time>2025-05-12T08:06:33Z</time>
      </trkpt>
      <trkpt lat="36.93486001342535" lon="-3.325934987515211">
        <ele>1214.76</ele>
        <time>2025-05-12T08:06:34Z</time>
      </trkpt>
      <trkpt lat="36.934926984831691" lon="-3.325720997527242">
        <ele>1215.24</ele>
        <time>2025-05-12T08:06:36Z</time>
      </trkpt>
      <trkpt lat="36.935120020061731" lon="-3.325325036421418">
        <ele>1215.72</ele>
        <time>2025-05-12T08:06:41Z</time>
      </trkpt>
      <trkpt lat="36.935341972857714" lon="-3.324993029236794">
        <ele>1215.24</ele>
        <time>2025-05-12T08:06:45Z</time>
      </trkpt>
      <trkpt lat="36.935411961749196" lon="-3.324937038123608">
        <ele>1215.24</ele>
        <time>2025-05-12T08:06:46Z</time>
      </trkpt>
      <trkpt lat="36.935920994728804" lon="-3.324560020118952">
        <ele>1216.21</ele>
        <time>2025-05-12T08:06:54Z</time>
      </trkpt>
      <trkpt lat="36.935986960306764" lon="-3.32451400347054">
        <ele>1216.6900000000001</ele>
        <time>2025-05-12T08:06:55Z</time>
      </trkpt>
      <trkpt lat="36.936116041615605" lon="-3.324391040951014">
        <ele>1217.1700000000001</ele>
        <time>2025-05-12T08:06:57Z</time>
      </trkpt>
      <trkpt lat="36.936182007193565" lon="-3.32431803457439">
        <ele>1217.1700000000001</ele>
        <time>2025-05-12T08:06:58Z</time>
      </trkpt>
      <trkpt lat="36.936242021620274" lon="-3.324242010712624">
        <ele>1217.6500000000001</ele>
        <time>2025-05-12T08:06:59Z</time>
      </trkpt>
      <trkpt lat="36.936294995248318" lon="-3.324151989072561">
        <ele>1218.1300000000001</ele>
        <time>2025-05-12T08:07:00Z</time>
      </trkpt>
      <trkpt lat="36.936346041038632" lon="-3.32406397908926">
        <ele>1218.6099999999999</ele>
        <time>2025-05-12T08:07:01Z</time>
      </trkpt>
      <trkpt lat="36.936446037143469" lon="-3.323889970779419">
        <ele>1219.5699999999999</ele>
        <time>2025-05-12T08:07:03Z</time>
      </trkpt>
      <trkpt lat="36.936503034085035" lon="-3.323812019079924">
        <ele>1220.05</ele>
        <time>2025-05-12T08:07:04Z</time>
      </trkpt>
      <trkpt lat="36.936572017148137" lon="-3.323729038238525">
        <ele>1221.01</ele>
        <time>2025-05-12T08:07:05Z</time>
      </trkpt>
      <trkpt lat="36.936633037403226" lon="-3.323707999661565">
        <ele>1221.97</ele>
        <time>2025-05-12T08:07:06Z</time>
      </trkpt>
      <trkpt lat="36.936703026294708" lon="-3.323682015761733">
        <ele>1222.45</ele>
        <time>2025-05-12T08:07:07Z</time>
      </trkpt>
      <trkpt lat="36.936766980215907" lon="-3.323658965528011">
        <ele>1223.4200000000001</ele>
        <time>2025-05-12T08:07:08Z</time>
      </trkpt>
      <trkpt lat="36.936934031546116" lon="-3.3235680218786">
        <ele>1224.8599999999999</ele>
        <time>2025-05-12T08:07:11Z</time>
      </trkpt>
      <trkpt lat="36.937046013772488" lon="-3.323467019945383">
        <ele>1225.8199999999999</ele>
        <time>2025-05-12T08:07:13Z</time>
      </trkpt>
      <trkpt lat="36.937084989622235" lon="-3.323385966941714">
        <ele>1226.3</ele>
        <time>2025-05-12T08:07:14Z</time>
      </trkpt>
      <trkpt lat="36.937123965471983" lon="-3.323303991928697">
        <ele>1226.3</ele>
        <time>2025-05-12T08:07:15Z</time>
      </trkpt>
      <trkpt lat="36.937163025140762" lon="-3.32322302274406">
        <ele>1226.3</ele>
        <time>2025-05-12T08:07:16Z</time>
      </trkpt>
      <trkpt lat="36.93720200099051" lon="-3.32314096391201">
        <ele>1226.3</ele>
        <time>2025-05-12T08:07:17Z</time>
      </trkpt>
      <trkpt lat="36.93726796656847" lon="-3.322958992794156">
        <ele>1226.78</ele>
        <time>2025-05-12T08:07:19Z</time>
      </trkpt>
      <trkpt lat="36.937282970175147" lon="-3.322865031659603">
        <ele>1226.3</ele>
        <time>2025-05-12T08:07:20Z</time>
      </trkpt>
      <trkpt lat="36.937295962125063" lon="-3.322776015847921">
        <ele>1226.3</ele>
        <time>2025-05-12T08:07:21Z</time>
      </trkpt>
      <trkpt lat="36.93730803206563" lon="-3.322676019743085">
        <ele>1227.26</ele>
        <time>2025-05-12T08:07:22Z</time>
      </trkpt>
      <trkpt lat="36.937318006530404" lon="-3.322574011981487">
        <ele>1227.74</ele>
        <time>2025-05-12T08:07:23Z</time>
      </trkpt>
      <trkpt lat="36.937342984601855" lon="-3.322478039190173">
        <ele>1228.22</ele>
        <time>2025-05-12T08:07:24Z</time>
      </trkpt>
      <trkpt lat="36.937381038442254" lon="-3.322381982579827">
        <ele>1229.1800000000001</ele>
        <time>2025-05-12T08:07:25Z</time>
      </trkpt>
      <trkpt lat="36.937435017898679" lon="-3.322287015616894">
        <ele>1230.1400000000001</ele>
        <time>2025-05-12T08:07:26Z</time>
      </trkpt>
      <trkpt lat="36.937519004568458" lon="-3.322205040603876">
        <ele>1231.1099999999999</ele>
        <time>2025-05-12T08:07:27Z</time>
      </trkpt>
      <trkpt lat="36.937613971531391" lon="-3.322177967056632">
        <ele>1232.0699999999999</ele>
        <time>2025-05-12T08:07:28Z</time>
      </trkpt>
      <trkpt lat="36.937711033970118" lon="-3.322189031168819">
        <ele>1232.55</ele>
        <time>2025-05-12T08:07:29Z</time>
      </trkpt>
      <trkpt lat="36.937790997326374" lon="-3.32223697565496">
        <ele>1234.95</ele>
        <time>2025-05-12T08:07:30Z</time>
      </trkpt>
      <trkpt lat="36.937883030623198" lon="-3.322292966768146">
        <ele>1235.9100000000001</ele>
        <time>2025-05-12T08:07:31Z</time>
      </trkpt>
      <trkpt lat="36.937987972050905" lon="-3.322355998679996">
        <ele>1237.8299999999999</ele>
        <time>2025-05-12T08:07:32Z</time>
      </trkpt>
      <trkpt lat="36.938073970377445" lon="-3.322410983964801">
        <ele>1238.8</ele>
        <time>2025-05-12T08:07:33Z</time>
      </trkpt>
      <trkpt lat="36.938158962875605" lon="-3.322466975077987">
        <ele>1239.76</ele>
        <time>2025-05-12T08:07:34Z</time>
      </trkpt>
      <trkpt lat="36.938440008088946" lon="-3.322651041671634">
        <ele>1243.1199999999999</ele>
        <time>2025-05-12T08:07:38Z</time>
      </trkpt>
      <trkpt lat="36.938586020842195" lon="-3.322705021128058">
        <ele>1244.5599999999999</ele>
        <time>2025-05-12T08:07:40Z</time>
      </trkpt>
      <trkpt lat="36.938819959759712" lon="-3.322738967835903">
        <ele>1246.01</ele>
        <time>2025-05-12T08:07:43Z</time>
      </trkpt>
      <trkpt lat="36.93889900110662" lon="-3.322724970057607">
        <ele>1246.49</ele>
        <time>2025-05-12T08:07:44Z</time>
      </trkpt>
      <trkpt lat="36.938973013311625" lon="-3.322657998651266">
        <ele>1246.97</ele>
        <time>2025-05-12T08:07:45Z</time>
      </trkpt>
      <trkpt lat="36.939045013859868" lon="-3.32257803529501">
        <ele>1247.45</ele>
        <time>2025-05-12T08:07:46Z</time>
      </trkpt>
      <trkpt lat="36.939117014408112" lon="-3.322487007826567">
        <ele>1247.9300000000001</ele>
        <time>2025-05-12T08:07:47Z</time>
      </trkpt>
      <trkpt lat="36.939296973869205" lon="-3.322312999516726">
        <ele>1248.4100000000001</ele>
        <time>2025-05-12T08:07:49Z</time>
      </trkpt>
      <trkpt lat="36.93939495831728" lon="-3.322231024503708">
        <ele>1248.4100000000001</ele>
        <time>2025-05-12T08:07:50Z</time>
      </trkpt>
      <trkpt lat="36.939506018534303" lon="-3.322187019512057">
        <ele>1248.4100000000001</ele>
        <time>2025-05-12T08:07:51Z</time>
      </trkpt>
      <trkpt lat="36.939622024074197" lon="-3.322161035612226">
        <ele>1248.8900000000001</ele>
        <time>2025-05-12T08:07:52Z</time>
      </trkpt>
      <trkpt lat="36.939742974936962" lon="-3.322133962064982">
        <ele>1249.3699999999999</ele>
        <time>2025-05-12T08:07:53Z</time>
      </trkpt>
      <trkpt lat="36.939869038760662" lon="-3.322104960680008">
        <ele>1249.8499999999999</ele>
        <time>2025-05-12T08:07:54Z</time>
      </trkpt>
      <trkpt lat="36.939985966309905" lon="-3.322032960131764">
        <ele>1250.3299999999999</ele>
        <time>2025-05-12T08:07:55Z</time>
      </trkpt>
      <trkpt lat="36.940096020698547" lon="-3.32193598151207">
        <ele>1250.8099999999999</ele>
        <time>2025-05-12T08:07:56Z</time>
      </trkpt>
      <trkpt lat="36.940198028460145" lon="-3.321804972365499">
        <ele>1251.29</ele>
        <time>2025-05-12T08:07:57Z</time>
      </trkpt>
      <trkpt lat="36.940300958231091" lon="-3.321672035381198">
        <ele>1251.29</ele>
        <time>2025-05-12T08:07:58Z</time>
      </trkpt>
      <trkpt lat="36.940389974042773" lon="-3.321537002921104">
        <ele>1251.77</ele>
        <time>2025-05-12T08:07:59Z</time>
      </trkpt>
      <trkpt lat="36.940453005954623" lon="-3.321393001824617">
        <ele>1252.74</ele>
        <time>2025-05-12T08:08:00Z</time>
      </trkpt>
      <trkpt lat="36.940593989565969" lon="-3.321102987974882">
        <ele>1254.1800000000001</ele>
        <time>2025-05-12T08:08:02Z</time>
      </trkpt>
      <trkpt lat="36.940674958750606" lon="-3.320957981050015">
        <ele>1255.1400000000001</ele>
        <time>2025-05-12T08:08:03Z</time>
      </trkpt>
      <trkpt lat="36.940778978168964" lon="-3.320882963016629">
        <ele>1256.0999999999999</ele>
        <time>2025-05-12T08:08:04Z</time>
      </trkpt>
      <trkpt lat="36.940890960395336" lon="-3.320829989388585">
        <ele>1256.5799999999999</ele>
        <time>2025-05-12T08:08:05Z</time>
      </trkpt>
      <trkpt lat="36.940996991470456" lon="-3.32079503685236">
        <ele>1257.54</ele>
        <time>2025-05-12T08:08:06Z</time>
      </trkpt>
      <trkpt lat="36.941094975918531" lon="-3.320762012153864">
        <ele>1258.02</ele>
        <time>2025-05-12T08:08:07Z</time>
      </trkpt>
      <trkpt lat="36.941169993951917" lon="-3.320704009383917">
        <ele>1258.5</ele>
        <time>2025-05-12T08:08:08Z</time>
      </trkpt>
      <trkpt lat="36.941233025863767" lon="-3.32060401327908">
        <ele>1258.98</ele>
        <time>2025-05-12T08:08:09Z</time>
      </trkpt>
      <trkpt lat="36.941293040290475" lon="-3.320509968325496">
        <ele>1259.46</ele>
        <time>2025-05-12T08:08:10Z</time>
      </trkpt>
      <trkpt lat="36.941282982006669" lon="-3.320394968613982">
        <ele>1259.9400000000001</ele>
        <time>2025-05-12T08:08:11Z</time>
      </trkpt>
      <trkpt lat="36.941270995885134" lon="-3.320252979174256">
        <ele>1260.4300000000001</ele>
        <time>2025-05-12T08:08:12Z</time>
      </trkpt>
      <trkpt lat="36.941193966194987" lon="-3.320164969190955">
        <ele>1260.9100000000001</ele>
        <time>2025-05-12T08:08:13Z</time>
      </trkpt>
      <trkpt lat="36.941097993403673" lon="-3.320068996399641">
        <ele>1261.8699999999999</ele>
        <time>2025-05-12T08:08:14Z</time>
      </trkpt>
      <trkpt lat="36.940981987863779" lon="-3.320004958659411">
        <ele>1262.3499999999999</ele>
        <time>2025-05-12T08:08:15Z</time>
      </trkpt>
      <trkpt lat="36.940885009244084" lon="-3.319952990859747">
        <ele>1263.3099999999999</ele>
        <time>2025-05-12T08:08:16Z</time>
      </trkpt>
      <trkpt lat="36.940731033682823" lon="-3.319989033043385">
        <ele>1264.27</ele>
        <time>2025-05-12T08:08:17Z</time>
      </trkpt>
      <trkpt lat="36.940613016486168" lon="-3.320016022771597">
        <ele>1265.23</ele>
        <time>2025-05-12T08:08:18Z</time>
      </trkpt>
      <trkpt lat="36.94049097597599" lon="-3.320029014721513">
        <ele>1265.71</ele>
        <time>2025-05-12T08:08:19Z</time>
      </trkpt>
      <trkpt lat="36.940390979871154" lon="-3.319994984194636">
        <ele>1266.1900000000001</ele>
        <time>2025-05-12T08:08:20Z</time>
      </trkpt>
      <trkpt lat="36.94029601290822" lon="-3.31991602666676">
        <ele>1266.1900000000001</ele>
        <time>2025-05-12T08:08:21Z</time>
      </trkpt>
      <trkpt lat="36.940249996259809" lon="-3.319809995591641">
        <ele>1266.6700000000001</ele>
        <time>2025-05-12T08:08:22Z</time>
      </trkpt>
      <trkpt lat="36.940230969339609" lon="-3.319697007536888">
        <ele>1268.1199999999999</ele>
        <time>2025-05-12T08:08:23Z</time>
      </trkpt>
      <trkpt lat="36.94023298099637" lon="-3.31957396119833">
        <ele>1269.0799999999999</ele>
        <time>2025-05-12T08:08:24Z</time>
      </trkpt>
      <trkpt lat="36.940264999866486" lon="-3.319432977586985">
        <ele>1269.5599999999999</ele>
        <time>2025-05-12T08:08:25Z</time>
      </trkpt>
      <trkpt lat="36.940297018736601" lon="-3.31929299980402">
        <ele>1270.04</ele>
        <time>2025-05-12T08:08:26Z</time>
      </trkpt>
      <trkpt lat="36.940330965444446" lon="-3.319142963737249">
        <ele>1270.52</ele>
        <time>2025-05-12T08:08:27Z</time>
      </trkpt>
      <trkpt lat="36.940371030941606" lon="-3.318969961255789">
        <ele>1270.52</ele>
        <time>2025-05-12T08:08:28Z</time>
      </trkpt>
      <trkpt lat="36.940387962386012" lon="-3.318776004016399">
        <ele>1271</ele>
        <time>2025-05-12T08:08:29Z</time>
      </trkpt>
      <trkpt lat="36.94038201123476" lon="-3.318566037341952">
        <ele>1271</ele>
        <time>2025-05-12T08:08:30Z</time>
      </trkpt>
      <trkpt lat="36.940374970436096" lon="-3.318344000726938">
        <ele>1271</ele>
        <time>2025-05-12T08:08:31Z</time>
      </trkpt>
      <trkpt lat="36.94023298099637" lon="-3.315845020115376">
        <ele>1268.1199999999999</ele>
        <time>2025-05-12T08:08:42Z</time>
      </trkpt>
      <trkpt lat="36.940108006820083" lon="-3.313938975334168">
        <ele>1271.48</ele>
        <time>2025-05-12T08:08:52Z</time>
      </trkpt>
      <trkpt lat="36.940099960193038" lon="-3.31379103474319">
        <ele>1271.96</ele>
        <time>2025-05-12T08:08:53Z</time>
      </trkpt>
      <trkpt lat="36.940090991556644" lon="-3.313644016161561">
        <ele>1272.4400000000001</ele>
        <time>2025-05-12T08:08:54Z</time>
      </trkpt>
      <trkpt lat="36.940114963799715" lon="-3.313534967601299">
        <ele>1273.4000000000001</ele>
        <time>2025-05-12T08:08:55Z</time>
      </trkpt>
      <trkpt lat="36.940157040953636" lon="-3.313420973718166">
        <ele>1273.8800000000001</ele>
        <time>2025-05-12T08:08:56Z</time>
      </trkpt>
      <trkpt lat="36.94022904150188" lon="-3.313329024240375">
        <ele>1274.8499999999999</ele>
        <time>2025-05-12T08:08:57Z</time>
      </trkpt>
      <trkpt lat="36.940306993201375" lon="-3.313228022307158">
        <ele>1275.3299999999999</ele>
        <time>2025-05-12T08:08:58Z</time>
      </trkpt>
      <trkpt lat="36.940549984574318" lon="-3.312915964052081">
        <ele>1276.77</ele>
        <time>2025-05-12T08:09:01Z</time>
      </trkpt>
      <trkpt lat="36.940641012042761" lon="-3.312842035666108">
        <ele>1276.77</ele>
        <time>2025-05-12T08:09:02Z</time>
      </trkpt>
      <trkpt lat="36.941031021997333" lon="-3.312639025971293">
        <ele>1276.29</ele>
        <time>2025-05-12T08:09:06Z</time>
      </trkpt>
      <trkpt lat="36.941120037809014" lon="-3.312603989616036">
        <ele>1276.29</ele>
        <time>2025-05-12T08:09:07Z</time>
      </trkpt>
      <trkpt lat="36.941211987286806" lon="-3.312574988231063">
        <ele>1275.8099999999999</ele>
        <time>2025-05-12T08:09:08Z</time>
      </trkpt>
      <trkpt lat="36.941299997270107" lon="-3.312542969360948">
        <ele>1275.3299999999999</ele>
        <time>2025-05-12T08:09:09Z</time>
      </trkpt>
      <trkpt lat="36.941399993374944" lon="-3.312507010996342">
        <ele>1274.8499999999999</ele>
        <time>2025-05-12T08:09:10Z</time>
      </trkpt>
      <trkpt lat="36.94145699031651" lon="-3.312450014054775">
        <ele>1274.8499999999999</ele>
        <time>2025-05-12T08:09:11Z</time>
      </trkpt>
      <trkpt lat="36.941517004743218" lon="-3.312366027384996">
        <ele>1274.3599999999999</ele>
        <time>2025-05-12T08:09:12Z</time>
      </trkpt>
      <trkpt lat="36.94154298864305" lon="-3.312272988259792">
        <ele>1274.3599999999999</ele>
        <time>2025-05-12T08:09:13Z</time>
      </trkpt>
      <trkpt lat="36.94154198281467" lon="-3.312166035175324">
        <ele>1273.8800000000001</ele>
        <time>2025-05-12T08:09:14Z</time>
      </trkpt>
      <trkpt lat="36.941528990864754" lon="-3.312035026028752">
        <ele>1273.8800000000001</ele>
        <time>2025-05-12T08:09:15Z</time>
      </trkpt>
      <trkpt lat="36.941467970609665" lon="-3.311950033530593">
        <ele>1273.4000000000001</ele>
        <time>2025-05-12T08:09:16Z</time>
      </trkpt>
      <trkpt lat="36.941389013081789" lon="-3.311855988577008">
        <ele>1273.8800000000001</ele>
        <time>2025-05-12T08:09:17Z</time>
      </trkpt>
      <trkpt lat="36.941293962299824" lon="-3.311775019392371">
        <ele>1274.3599999999999</ele>
        <time>2025-05-12T08:09:18Z</time>
      </trkpt>
      <trkpt lat="36.941104028373957" lon="-3.311598999425769">
        <ele>1275.3299999999999</ele>
        <time>2025-05-12T08:09:20Z</time>
      </trkpt>
      <trkpt lat="36.941034039482474" lon="-3.311485005542636">
        <ele>1275.8099999999999</ele>
        <time>2025-05-12T08:09:21Z</time>
      </trkpt>
      <trkpt lat="36.940967990085483" lon="-3.311376962810755">
        <ele>1276.29</ele>
        <time>2025-05-12T08:09:22Z</time>
      </trkpt>
      <trkpt lat="36.940775960683823" lon="-3.311022995039821">
        <ele>1278.21</ele>
        <time>2025-05-12T08:09:26Z</time>
      </trkpt>
      <trkpt lat="36.940732961520553" lon="-3.310925010591745">
        <ele>1278.6900000000001</ele>
        <time>2025-05-12T08:09:27Z</time>
      </trkpt>
      <trkpt lat="36.940722987055779" lon="-3.310811016708612">
        <ele>1278.6900000000001</ele>
        <time>2025-05-12T08:09:28Z</time>
      </trkpt>
      <trkpt lat="36.940711000934243" lon="-3.310691993683577">
        <ele>1279.1700000000001</ele>
        <time>2025-05-12T08:09:29Z</time>
      </trkpt>
      <trkpt lat="36.940700020641088" lon="-3.310570036992431">
        <ele>1279.6500000000001</ele>
        <time>2025-05-12T08:09:30Z</time>
      </trkpt>
      <trkpt lat="36.940689040347934" lon="-3.31044003367424">
        <ele>1279.6500000000001</ele>
        <time>2025-05-12T08:09:31Z</time>
      </trkpt>
      <trkpt lat="36.940673030912876" lon="-3.310153037309647">
        <ele>1280.6099999999999</ele>
        <time>2025-05-12T08:09:33Z</time>
      </trkpt>
      <trkpt lat="36.940632965415716" lon="-3.310020016506314">
        <ele>1280.6099999999999</ele>
        <time>2025-05-12T08:09:34Z</time>
      </trkpt>
      <trkpt lat="36.940579991787672" lon="-3.30990401096642">
        <ele>1280.1300000000001</ele>
        <time>2025-05-12T08:09:35Z</time>
      </trkpt>
      <trkpt lat="36.940513020381331" lon="-3.309803009033203">
        <ele>1279.6500000000001</ele>
        <time>2025-05-12T08:09:36Z</time>
      </trkpt>
      <trkpt lat="36.940442025661469" lon="-3.309713993221521">
        <ele>1279.1700000000001</ele>
        <time>2025-05-12T08:09:37Z</time>
      </trkpt>
      <trkpt lat="36.940304981544614" lon="-3.309518024325371">
        <ele>1278.21</ele>
        <time>2025-05-12T08:09:39Z</time>
      </trkpt>
      <trkpt lat="36.940257037058473" lon="-3.309408975765109">
        <ele>1277.73</ele>
        <time>2025-05-12T08:09:40Z</time>
      </trkpt>
      <trkpt lat="36.940241027623415" lon="-3.309292970225215">
        <ele>1277.25</ele>
        <time>2025-05-12T08:09:41Z</time>
      </trkpt>
      <trkpt lat="36.940241027623415" lon="-3.309161961078644">
        <ele>1276.77</ele>
        <time>2025-05-12T08:09:42Z</time>
      </trkpt>
      <trkpt lat="36.940261982381344" lon="-3.309027012437582">
        <ele>1276.29</ele>
        <time>2025-05-12T08:09:43Z</time>
      </trkpt>
      <trkpt lat="36.940304981544614" lon="-3.308885022997856">
        <ele>1275.8099999999999</ele>
        <time>2025-05-12T08:09:44Z</time>
      </trkpt>
      <trkpt lat="36.940349992364645" lon="-3.308736998587847">
        <ele>1274.8499999999999</ele>
        <time>2025-05-12T08:09:45Z</time>
      </trkpt>
      <trkpt lat="36.940517965704203" lon="-3.308307006955147">
        <ele>1271.48</ele>
        <time>2025-05-12T08:09:48Z</time>
      </trkpt>
      <trkpt lat="36.94100403226912" lon="-3.307386003434658">
        <ele>1264.27</ele>
        <time>2025-05-12T08:09:55Z</time>
      </trkpt>
      <trkpt lat="36.941057005897164" lon="-3.307271003723145">
        <ele>1263.3099999999999</ele>
        <time>2025-05-12T08:09:56Z</time>
      </trkpt>
      <trkpt lat="36.94104602560401" lon="-3.307107975706458">
        <ele>1261.8699999999999</ele>
        <time>2025-05-12T08:09:57Z</time>
      </trkpt>
      <trkpt lat="36.941037978976965" lon="-3.306985013186932">
        <ele>1260.9100000000001</ele>
        <time>2025-05-12T08:09:58Z</time>
      </trkpt>
      <trkpt lat="36.941000008955598" lon="-3.306888034567237">
        <ele>1259.46</ele>
        <time>2025-05-12T08:09:59Z</time>
      </trkpt>
      <trkpt lat="36.940950974822044" lon="-3.306802958250046">
        <ele>1258.5</ele>
        <time>2025-05-12T08:10:00Z</time>
      </trkpt>
      <trkpt lat="36.940906969830394" lon="-3.306725006550551">
        <ele>1257.54</ele>
        <time>2025-05-12T08:10:01Z</time>
      </trkpt>
      <trkpt lat="36.940863970667124" lon="-3.306648982688785">
        <ele>1256.5799999999999</ele>
        <time>2025-05-12T08:10:02Z</time>
      </trkpt>
      <trkpt lat="36.940807979553938" lon="-3.306602966040373">
        <ele>1255.6199999999999</ele>
        <time>2025-05-12T08:10:03Z</time>
      </trkpt>
      <trkpt lat="36.940746959298849" lon="-3.306550998240709">
        <ele>1255.1400000000001</ele>
        <time>2025-05-12T08:10:04Z</time>
      </trkpt>
      <trkpt lat="36.940673030912876" lon="-3.306489977985621">
        <ele>1253.7</ele>
        <time>2025-05-12T08:10:05Z</time>
      </trkpt>
      <trkpt lat="36.940588960424066" lon="-3.306419989094138">
        <ele>1252.74</ele>
        <time>2025-05-12T08:10:06Z</time>
      </trkpt>
      <trkpt lat="36.940502040088177" lon="-3.306347988545895">
        <ele>1251.29</ele>
        <time>2025-05-12T08:10:07Z</time>
      </trkpt>
      <trkpt lat="36.940444959327579" lon="-3.306246986612678">
        <ele>1250.3299999999999</ele>
        <time>2025-05-12T08:10:08Z</time>
      </trkpt>
      <trkpt lat="36.940390979871154" lon="-3.306112037971616">
        <ele>1249.8499999999999</ele>
        <time>2025-05-12T08:10:09Z</time>
      </trkpt>
      <trkpt lat="36.940377987921238" lon="-3.305960996076465">
        <ele>1248.4100000000001</ele>
        <time>2025-05-12T08:10:10Z</time>
      </trkpt>
      <trkpt lat="36.940362984314561" lon="-3.305794028565288">
        <ele>1247.45</ele>
        <time>2025-05-12T08:10:11Z</time>
      </trkpt>
      <trkpt lat="36.940345969051123" lon="-3.305609961971641">
        <ele>1246.01</ele>
        <time>2025-05-12T08:10:12Z</time>
      </trkpt>
      <trkpt lat="36.940327025949955" lon="-3.305404018610716">
        <ele>1245.04</ele>
        <time>2025-05-12T08:10:13Z</time>
      </trkpt>
      <trkpt lat="36.940319985151291" lon="-3.305232021957636">
        <ele>1244.0799999999999</ele>
        <time>2025-05-12T08:10:14Z</time>
      </trkpt>
      <trkpt lat="36.940251002088189" lon="-3.304542023688555">
        <ele>1239.28</ele>
        <time>2025-05-12T08:10:18Z</time>
      </trkpt>
      <trkpt lat="36.940219989046454" lon="-3.304353011772037">
        <ele>1238.3199999999999</ele>
        <time>2025-05-12T08:10:19Z</time>
      </trkpt>
      <trkpt lat="36.940148994326591" lon="-3.304198030382395">
        <ele>1237.8299999999999</ele>
        <time>2025-05-12T08:10:20Z</time>
      </trkpt>
      <trkpt lat="36.940071964636445" lon="-3.304043971002102">
        <ele>1237.3499999999999</ele>
        <time>2025-05-12T08:10:21Z</time>
      </trkpt>
      <trkpt lat="36.939981020987034" lon="-3.303899969905615">
        <ele>1236.8699999999999</ele>
        <time>2025-05-12T08:10:22Z</time>
      </trkpt>
      <trkpt lat="36.939884964376688" lon="-3.303782036527991">
        <ele>1235.9100000000001</ele>
        <time>2025-05-12T08:10:23Z</time>
      </trkpt>
      <trkpt lat="36.939768958836794" lon="-3.303666030988097">
        <ele>1235.4300000000001</ele>
        <time>2025-05-12T08:10:24Z</time>
      </trkpt>
      <trkpt lat="36.939659994095564" lon="-3.303633006289601">
        <ele>1235.4300000000001</ele>
        <time>2025-05-12T08:10:25Z</time>
      </trkpt>
      <trkpt lat="36.939516998827457" lon="-3.303589001297951">
        <ele>1235.4300000000001</ele>
        <time>2025-05-12T08:10:26Z</time>
      </trkpt>
      <trkpt lat="36.939360005781054" lon="-3.303541978821158">
        <ele>1235.4300000000001</ele>
        <time>2025-05-12T08:10:27Z</time>
      </trkpt>
      <trkpt lat="36.93919999524951" lon="-3.30347802489996">
        <ele>1234.95</ele>
        <time>2025-05-12T08:10:28Z</time>
      </trkpt>
      <trkpt lat="36.937751015648246" lon="-3.302757013589144">
        <ele>1230.6199999999999</ele>
        <time>2025-05-12T08:10:37Z</time>
      </trkpt>
      <trkpt lat="36.937223961576819" lon="-3.302501030266285">
        <ele>1227.74</ele>
        <time>2025-05-12T08:10:41Z</time>
      </trkpt>
      <trkpt lat="36.937122037634254" lon="-3.302386030554771">
        <ele>1226.3</ele>
        <time>2025-05-12T08:10:42Z</time>
      </trkpt>
      <trkpt lat="36.937023969367146" lon="-3.302252003923059">
        <ele>1225.3399999999999</ele>
        <time>2025-05-12T08:10:43Z</time>
      </trkpt>
      <trkpt lat="36.9369210395962" lon="-3.302111020311713">
        <ele>1223.9000000000001</ele>
        <time>2025-05-12T08:10:44Z</time>
      </trkpt>
      <trkpt lat="36.936809979379177" lon="-3.301973976194859">
        <ele>1222.9300000000001</ele>
        <time>2025-05-12T08:10:45Z</time>
      </trkpt>
      <trkpt lat="36.936693973839283" lon="-3.301856964826584">
        <ele>1221.97</ele>
        <time>2025-05-12T08:10:46Z</time>
      </trkpt>
      <trkpt lat="36.936478978022933" lon="-3.301641969010234">
        <ele>1220.05</ele>
        <time>2025-05-12T08:10:48Z</time>
      </trkpt>
      <trkpt lat="36.936398008838296" lon="-3.301528980955482">
        <ele>1218.6099999999999</ele>
        <time>2025-05-12T08:10:49Z</time>
      </trkpt>
      <trkpt lat="36.936389040201902" lon="-3.301380034536123">
        <ele>1217.6500000000001</ele>
        <time>2025-05-12T08:10:50Z</time>
      </trkpt>
      <trkpt lat="36.936378981918097" lon="-3.301220024004579">
        <ele>1216.6900000000001</ele>
        <time>2025-05-12T08:10:51Z</time>
      </trkpt>
      <trkpt lat="36.936418963596225" lon="-3.301051966845989">
        <ele>1215.72</ele>
        <time>2025-05-12T08:10:52Z</time>
      </trkpt>
      <trkpt lat="36.936462968587875" lon="-3.300871001556516">
        <ele>1214.28</ele>
        <time>2025-05-12T08:10:53Z</time>
      </trkpt>
      <trkpt lat="36.936754994094372" lon="-3.299922002479434">
        <ele>1208.51</ele>
        <time>2025-05-12T08:10:58Z</time>
      </trkpt>
      <trkpt lat="36.936832023784518" lon="-3.299779007211328">
        <ele>1207.55</ele>
        <time>2025-05-12T08:10:59Z</time>
      </trkpt>
      <trkpt lat="36.936950962990522" lon="-3.299655038863421">
        <ele>1206.5899999999999</ele>
        <time>2025-05-12T08:11:00Z</time>
      </trkpt>
      <trkpt lat="36.9370730035007" lon="-3.299528975039721">
        <ele>1205.6300000000001</ele>
        <time>2025-05-12T08:11:01Z</time>
      </trkpt>
      <trkpt lat="36.937192026525736" lon="-3.299406012520194">
        <ele>1204.1900000000001</ele>
        <time>2025-05-12T08:11:02Z</time>
      </trkpt>
      <trkpt lat="36.937487991526723" lon="-3.299012985080481">
        <ele>1200.8199999999999</ele>
        <time>2025-05-12T08:11:05Z</time>
      </trkpt>
      <trkpt lat="36.937557980418205" lon="-3.298861021175981">
        <ele>1199.8599999999999</ele>
        <time>2025-05-12T08:11:06Z</time>
      </trkpt>
      <trkpt lat="36.93763199262321" lon="-3.298704028129578">
        <ele>1198.4200000000001</ele>
        <time>2025-05-12T08:11:07Z</time>
      </trkpt>
      <trkpt lat="36.937701981514692" lon="-3.298552986234427">
        <ele>1197.46</ele>
        <time>2025-05-12T08:11:08Z</time>
      </trkpt>
      <trkpt lat="36.937786974012852" lon="-3.298437986522913">
        <ele>1196.5</ele>
        <time>2025-05-12T08:11:09Z</time>
      </trkpt>
      <trkpt lat="36.937869032844901" lon="-3.298337990418077">
        <ele>1195.54</ele>
        <time>2025-05-12T08:11:10Z</time>
      </trkpt>
      <trkpt lat="36.937974980100989" lon="-3.298262972384691">
        <ele>1194.5799999999999</ele>
        <time>2025-05-12T08:11:11Z</time>
      </trkpt>
      <trkpt lat="36.938088973984122" lon="-3.298182003200054">
        <ele>1193.6099999999999</ele>
        <time>2025-05-12T08:11:12Z</time>
      </trkpt>
      <trkpt lat="36.938584009185433" lon="-3.297770032659173">
        <ele>1189.77</ele>
        <time>2025-05-12T08:11:16Z</time>
      </trkpt>
      <trkpt lat="36.938681993633509" lon="-3.297642040997744">
        <ele>1189.29</ele>
        <time>2025-05-12T08:11:17Z</time>
      </trkpt>
      <trkpt lat="36.938944011926651" lon="-3.297239039093256">
        <ele>1186.4000000000001</ele>
        <time>2025-05-12T08:11:20Z</time>
      </trkpt>
      <trkpt lat="36.93905096501112" lon="-3.297132002189755">
        <ele>1185.4400000000001</ele>
        <time>2025-05-12T08:11:21Z</time>
      </trkpt>
      <trkpt lat="36.939236037433147" lon="-3.296921029686928">
        <ele>1184</ele>
        <time>2025-05-12T08:11:23Z</time>
      </trkpt>
      <trkpt lat="36.939276019111276" lon="-3.29681801609695">
        <ele>1183.52</ele>
        <time>2025-05-12T08:11:24Z</time>
      </trkpt>
      <trkpt lat="36.939276019111276" lon="-3.296710979193449">
        <ele>1182.5599999999999</ele>
        <time>2025-05-12T08:11:25Z</time>
      </trkpt>
      <trkpt lat="36.939255986362696" lon="-3.296595979481936">
        <ele>1182.0799999999999</ele>
        <time>2025-05-12T08:11:26Z</time>
      </trkpt>
      <trkpt lat="36.93922103382647" lon="-3.296466981992126">
        <ele>1181.5999999999999</ele>
        <time>2025-05-12T08:11:27Z</time>
      </trkpt>
      <trkpt lat="36.939187003299594" lon="-3.296327004209161">
        <ele>1181.1199999999999</ele>
        <time>2025-05-12T08:11:28Z</time>
      </trkpt>
      <trkpt lat="36.939164036884904" lon="-3.296167999505997">
        <ele>1180.6400000000001</ele>
        <time>2025-05-12T08:11:29Z</time>
      </trkpt>
      <trkpt lat="36.939145009964705" lon="-3.296036990359426">
        <ele>1180.1600000000001</ele>
        <time>2025-05-12T08:11:30Z</time>
      </trkpt>
      <trkpt lat="36.939132018014789" lon="-3.295945040881634">
        <ele>1180.1600000000001</ele>
        <time>2025-05-12T08:11:31Z</time>
      </trkpt>
      <trkpt lat="36.939118020236492" lon="-3.295845966786146">
        <ele>1179.6700000000001</ele>
        <time>2025-05-12T08:11:32Z</time>
      </trkpt>
      <trkpt lat="36.939101004973054" lon="-3.295738007873297">
        <ele>1179.6700000000001</ele>
        <time>2025-05-12T08:11:33Z</time>
      </trkpt>
      <trkpt lat="36.939064040780067" lon="-3.295627031475306">
        <ele>1179.6700000000001</ele>
        <time>2025-05-12T08:11:34Z</time>
      </trkpt>
      <trkpt lat="36.939016012474895" lon="-3.29552804119885">
        <ele>1179.1900000000001</ele>
        <time>2025-05-12T08:11:35Z</time>
      </trkpt>
      <trkpt lat="36.938947029411793" lon="-3.295451011508703">
        <ele>1179.1900000000001</ele>
        <time>2025-05-12T08:11:36Z</time>
      </trkpt>
      <trkpt lat="36.938880980014801" lon="-3.295374987646937">
        <ele>1179.1900000000001</ele>
        <time>2025-05-12T08:11:37Z</time>
      </trkpt>
      <trkpt lat="36.938816020265222" lon="-3.295301981270313">
        <ele>1179.1900000000001</ele>
        <time>2025-05-12T08:11:38Z</time>
      </trkpt>
      <trkpt lat="36.938752988353372" lon="-3.29522998072207">
        <ele>1179.1900000000001</ele>
        <time>2025-05-12T08:11:39Z</time>
      </trkpt>
      <trkpt lat="36.938701020553708" lon="-3.295153034850955">
        <ele>1179.1900000000001</ele>
        <time>2025-05-12T08:11:40Z</time>
      </trkpt>
      <trkpt lat="36.938665984198451" lon="-3.295073993504047">
        <ele>1179.1900000000001</ele>
        <time>2025-05-12T08:11:41Z</time>
      </trkpt>
      <trkpt lat="36.938632037490606" lon="-3.29499302431941">
        <ele>1179.1900000000001</ele>
        <time>2025-05-12T08:11:42Z</time>
      </trkpt>
      <trkpt lat="36.938632037490606" lon="-3.294910965487361">
        <ele>1179.1900000000001</ele>
        <time>2025-05-12T08:11:43Z</time>
      </trkpt>
      <trkpt lat="36.938640000298619" lon="-3.294812981039286">
        <ele>1179.6700000000001</ele>
        <time>2025-05-12T08:11:44Z</time>
      </trkpt>
      <trkpt lat="36.938660033047199" lon="-3.294722037389875">
        <ele>1179.6700000000001</ele>
        <time>2025-05-12T08:11:45Z</time>
      </trkpt>
      <trkpt lat="36.938681993633509" lon="-3.294624974951148">
        <ele>1180.1600000000001</ele>
        <time>2025-05-12T08:11:46Z</time>
      </trkpt>
      <trkpt lat="36.938705965876579" lon="-3.29451902769506">
        <ele>1180.1600000000001</ele>
        <time>2025-05-12T08:11:47Z</time>
      </trkpt>
      <trkpt lat="36.938738990575075" lon="-3.294375026598573">
        <ele>1180.1600000000001</ele>
        <time>2025-05-12T08:11:48Z</time>
      </trkpt>
      <trkpt lat="36.938690040260553" lon="-3.293880997225642">
        <ele>1183.04</ele>
        <time>2025-05-12T08:11:52Z</time>
      </trkpt>
      <trkpt lat="36.938671013340354" lon="-3.293738001957536">
        <ele>1184</ele>
        <time>2025-05-12T08:11:53Z</time>
      </trkpt>
      <trkpt lat="36.938353003934026" lon="-3.292680038139224">
        <ele>1191.6900000000001</ele>
        <time>2025-05-12T08:12:02Z</time>
      </trkpt>
      <trkpt lat="36.938357027247548" lon="-3.29256403259933">
        <ele>1192.1700000000001</ele>
        <time>2025-05-12T08:12:03Z</time>
      </trkpt>
      <trkpt lat="36.938360966742039" lon="-3.292448027059436">
        <ele>1193.1300000000001</ele>
        <time>2025-05-12T08:12:04Z</time>
      </trkpt>
      <trkpt lat="36.938364990055561" lon="-3.292332021519542">
        <ele>1194.0899999999999</ele>
        <time>2025-05-12T08:12:05Z</time>
      </trkpt>
      <trkpt lat="36.938368007540703" lon="-3.29222003929317">
        <ele>1194.5799999999999</ele>
        <time>2025-05-12T08:12:06Z</time>
      </trkpt>
      <trkpt lat="36.938368007540703" lon="-3.291999008506537">
        <ele>1195.54</ele>
        <time>2025-05-12T08:12:08Z</time>
      </trkpt>
      <trkpt lat="36.938347974792123" lon="-3.291889959946275">
        <ele>1196.5</ele>
        <time>2025-05-12T08:12:09Z</time>
      </trkpt>
      <trkpt lat="36.93831997923553" lon="-3.291775966063142">
        <ele>1197.46</ele>
        <time>2025-05-12T08:12:10Z</time>
      </trkpt>
      <trkpt lat="36.938263988122344" lon="-3.291664989665151">
        <ele>1198.4200000000001</ele>
        <time>2025-05-12T08:12:11Z</time>
      </trkpt>
      <trkpt lat="36.938196010887623" lon="-3.291547978296876">
        <ele>1199.8599999999999</ele>
        <time>2025-05-12T08:12:12Z</time>
      </trkpt>
      <trkpt lat="36.938042035326362" lon="-3.291299035772681">
        <ele>1201.79</ele>
        <time>2025-05-12T08:12:14Z</time>
      </trkpt>
      <trkpt lat="36.937967017292976" lon="-3.291178001090884">
        <ele>1202.75</ele>
        <time>2025-05-12T08:12:15Z</time>
      </trkpt>
      <trkpt lat="36.937933992594481" lon="-3.291014973074198">
        <ele>1204.1900000000001</ele>
        <time>2025-05-12T08:12:16Z</time>
      </trkpt>
      <trkpt lat="36.937900967895985" lon="-3.290851023048163">
        <ele>1205.1500000000001</ele>
        <time>2025-05-12T08:12:17Z</time>
      </trkpt>
      <trkpt lat="36.937881018966436" lon="-3.290680032223463">
        <ele>1206.1099999999999</ele>
        <time>2025-05-12T08:12:18Z</time>
      </trkpt>
      <trkpt lat="36.937888981774449" lon="-3.290365040302277">
        <ele>1208.51</ele>
        <time>2025-05-12T08:12:20Z</time>
      </trkpt>
      <trkpt lat="36.937917983159423" lon="-3.290235036984086">
        <ele>1209.96</ele>
        <time>2025-05-12T08:12:21Z</time>
      </trkpt>
      <trkpt lat="36.937967017292976" lon="-3.290168987587094">
        <ele>1210.4400000000001</ele>
        <time>2025-05-12T08:12:22Z</time>
      </trkpt>
      <trkpt lat="36.938066007569432" lon="-3.290157001465559">
        <ele>1210.9200000000001</ele>
        <time>2025-05-12T08:12:23Z</time>
      </trkpt>
      <trkpt lat="36.938161980360746" lon="-3.290154989808798">
        <ele>1211.4000000000001</ele>
        <time>2025-05-12T08:12:24Z</time>
      </trkpt>
      <trkpt lat="36.938285026699305" lon="-3.290193965658546">
        <ele>1211.4000000000001</ele>
        <time>2025-05-12T08:12:25Z</time>
      </trkpt>
      <trkpt lat="36.938425004482269" lon="-3.290237970650196">
        <ele>1211.8800000000001</ele>
        <time>2025-05-12T08:12:26Z</time>
      </trkpt>
      <trkpt lat="36.938912998884916" lon="-3.29039404168725">
        <ele>1212.8399999999999</ele>
        <time>2025-05-12T08:12:29Z</time>
      </trkpt>
      <trkpt lat="36.939076026901603" lon="-3.290394963696599">
        <ele>1212.8399999999999</ele>
        <time>2025-05-12T08:12:30Z</time>
      </trkpt>
      <trkpt lat="36.93922002799809" lon="-3.290362022817135">
        <ele>1213.3199999999999</ele>
        <time>2025-05-12T08:12:31Z</time>
      </trkpt>
      <trkpt lat="36.939355982467532" lon="-3.290265966206789">
        <ele>1213.8</ele>
        <time>2025-05-12T08:12:32Z</time>
      </trkpt>
      <trkpt lat="36.939497971907258" lon="-3.290164964273572">
        <ele>1214.28</ele>
        <time>2025-05-12T08:12:33Z</time>
      </trkpt>
      <trkpt lat="36.939640967175364" lon="-3.290063962340355">
        <ele>1215.24</ele>
        <time>2025-05-12T08:12:34Z</time>
      </trkpt>
      <trkpt lat="36.939750015735626" lon="-3.289942005649209">
        <ele>1215.72</ele>
        <time>2025-05-12T08:12:35Z</time>
      </trkpt>
      <trkpt lat="36.939826961606741" lon="-3.289808984845877">
        <ele>1216.21</ele>
        <time>2025-05-12T08:12:36Z</time>
      </trkpt>
      <trkpt lat="36.939863003790379" lon="-3.289677975699306">
        <ele>1217.1700000000001</ele>
        <time>2025-05-12T08:12:37Z</time>
      </trkpt>
      <trkpt lat="36.939875995740294" lon="-3.289526011794806">
        <ele>1217.6500000000001</ele>
        <time>2025-05-12T08:12:38Z</time>
      </trkpt>
      <trkpt lat="36.939890999346972" lon="-3.289361977949739">
        <ele>1218.6099999999999</ele>
        <time>2025-05-12T08:12:39Z</time>
      </trkpt>
      <trkpt lat="36.939924024045467" lon="-3.289195010438561">
        <ele>1219.0899999999999</ele>
        <time>2025-05-12T08:12:40Z</time>
      </trkpt>
      <trkpt lat="36.939961994066834" lon="-3.289053020998836">
        <ele>1220.05</ele>
        <time>2025-05-12T08:12:41Z</time>
      </trkpt>
      <trkpt lat="36.940068025141954" lon="-3.288922011852264">
        <ele>1220.53</ele>
        <time>2025-05-12T08:12:42Z</time>
      </trkpt>
      <trkpt lat="36.940171038731933" lon="-3.288792008534074">
        <ele>1221.49</ele>
        <time>2025-05-12T08:12:43Z</time>
      </trkpt>
      <trkpt lat="36.940286038443446" lon="-3.288649013265967">
        <ele>1222.45</ele>
        <time>2025-05-12T08:12:44Z</time>
      </trkpt>
      <trkpt lat="36.940401960164309" lon="-3.288495037704706">
        <ele>1223.4200000000001</ele>
        <time>2025-05-12T08:12:45Z</time>
      </trkpt>
      <trkpt lat="36.94049097597599" lon="-3.288304014131427">
        <ele>1224.8599999999999</ele>
        <time>2025-05-12T08:12:46Z</time>
      </trkpt>
      <trkpt lat="36.940583009272814" lon="-3.288108967244625">
        <ele>1225.8199999999999</ele>
        <time>2025-05-12T08:12:47Z</time>
      </trkpt>
      <trkpt lat="36.940664984285831" lon="-3.287933031097055">
        <ele>1226.78</ele>
        <time>2025-05-12T08:12:48Z</time>
      </trkpt>
      <trkpt lat="36.940756011754274" lon="-3.287791041657329">
        <ele>1228.22</ele>
        <time>2025-05-12T08:12:49Z</time>
      </trkpt>
      <trkpt lat="36.940996991470456" lon="-3.287564981728792">
        <ele>1230.1400000000001</ele>
        <time>2025-05-12T08:12:51Z</time>
      </trkpt>
      <trkpt lat="36.941091036424041" lon="-3.287421986460686">
        <ele>1231.5899999999999</ele>
        <time>2025-05-12T08:12:52Z</time>
      </trkpt>
      <trkpt lat="36.941178040578961" lon="-3.287287037819624">
        <ele>1233.03</ele>
        <time>2025-05-12T08:12:53Z</time>
      </trkpt>
      <trkpt lat="36.941270995885134" lon="-3.287143958732486">
        <ele>1233.99</ele>
        <time>2025-05-12T08:12:54Z</time>
      </trkpt>
      <trkpt lat="36.941388007253408" lon="-3.287071036174893">
        <ele>1234.95</ele>
        <time>2025-05-12T08:12:55Z</time>
      </trkpt>
      <trkpt lat="36.941508958116174" lon="-3.286995012313128">
        <ele>1235.9100000000001</ele>
        <time>2025-05-12T08:12:56Z</time>
      </trkpt>
      <trkpt lat="36.942225024104118" lon="-3.286629980430007">
        <ele>1241.6800000000001</ele>
        <time>2025-05-12T08:13:02Z</time>
      </trkpt>
      <trkpt lat="36.942303981631994" lon="-3.286540964618325">
        <ele>1242.6400000000001</ele>
        <time>2025-05-12T08:13:03Z</time>
      </trkpt>
      <trkpt lat="36.942392997443676" lon="-3.286440968513489">
        <ele>1243.5999999999999</ele>
        <time>2025-05-12T08:13:04Z</time>
      </trkpt>
      <trkpt lat="36.942493999376893" lon="-3.286327980458736">
        <ele>1244.5599999999999</ele>
        <time>2025-05-12T08:13:05Z</time>
      </trkpt>
      <trkpt lat="36.942591983824968" lon="-3.286264026537538">
        <ele>1246.01</ele>
        <time>2025-05-12T08:13:06Z</time>
      </trkpt>
      <trkpt lat="36.942707989364862" lon="-3.286185991019011">
        <ele>1247.45</ele>
        <time>2025-05-12T08:13:07Z</time>
      </trkpt>
      <trkpt lat="36.943070003762841" lon="-3.28596998937428">
        <ele>1251.77</ele>
        <time>2025-05-12T08:13:10Z</time>
      </trkpt>
      <trkpt lat="36.943180980160832" lon="-3.285941993817687">
        <ele>1252.74</ele>
        <time>2025-05-12T08:13:11Z</time>
      </trkpt>
      <trkpt lat="36.943301009014249" lon="-3.285955991595984">
        <ele>1254.1800000000001</ele>
        <time>2025-05-12T08:13:12Z</time>
      </trkpt>
      <trkpt lat="36.943546012043953" lon="-3.285984992980957">
        <ele>1256.5799999999999</ele>
        <time>2025-05-12T08:13:14Z</time>
      </trkpt>
      <trkpt lat="36.943689007312059" lon="-3.285923972725868">
        <ele>1257.54</ele>
        <time>2025-05-12T08:13:15Z</time>
      </trkpt>
      <trkpt lat="36.943796966224909" lon="-3.285832023248076">
        <ele>1258.98</ele>
        <time>2025-05-12T08:13:16Z</time>
      </trkpt>
      <trkpt lat="36.943907020613551" lon="-3.285734038800001">
        <ele>1259.9400000000001</ele>
        <time>2025-05-12T08:13:17Z</time>
      </trkpt>
      <trkpt lat="36.944012967869639" lon="-3.285640999674797">
        <ele>1261.3900000000001</ele>
        <time>2025-05-12T08:13:18Z</time>
      </trkpt>
      <trkpt lat="36.944121010601521" lon="-3.285571010783315">
        <ele>1262.3499999999999</ele>
        <time>2025-05-12T08:13:19Z</time>
      </trkpt>
      <trkpt lat="36.944239027798176" lon="-3.285518037155271">
        <ele>1263.3099999999999</ele>
        <time>2025-05-12T08:13:20Z</time>
      </trkpt>
      <trkpt lat="36.944358972832561" lon="-3.285486018285155">
        <ele>1264.75</ele>
        <time>2025-05-12T08:13:21Z</time>
      </trkpt>
      <trkpt lat="36.944475984200835" lon="-3.28547696582973">
        <ele>1265.71</ele>
        <time>2025-05-12T08:13:22Z</time>
      </trkpt>
      <trkpt lat="36.944589978083968" lon="-3.285505967214704">
        <ele>1267.1600000000001</ele>
        <time>2025-05-12T08:13:23Z</time>
      </trkpt>
      <trkpt lat="36.944676982238889" lon="-3.285592971369624">
        <ele>1268.5999999999999</ele>
        <time>2025-05-12T08:13:24Z</time>
      </trkpt>
      <trkpt lat="36.94476499222219" lon="-3.285680981352925">
        <ele>1269.5599999999999</ele>
        <time>2025-05-12T08:13:25Z</time>
      </trkpt>
      <trkpt lat="36.944812014698982" lon="-3.285728003829718">
        <ele>1270.52</ele>
        <time>2025-05-12T08:13:26Z</time>
      </trkpt>
      <trkpt lat="36.944944029673934" lon="-3.285772008821368">
        <ele>1271</ele>
        <time>2025-05-12T08:13:27Z</time>
      </trkpt>
      <trkpt lat="36.945029022172093" lon="-3.285767985507846">
        <ele>1271.96</ele>
        <time>2025-05-12T08:13:28Z</time>
      </trkpt>
      <trkpt lat="36.945096999406815" lon="-3.285700008273125">
        <ele>1272.9200000000001</ele>
        <time>2025-05-12T08:13:29Z</time>
      </trkpt>
      <trkpt lat="36.94515299052" lon="-3.285594983026385">
        <ele>1273.4000000000001</ele>
        <time>2025-05-12T08:13:30Z</time>
      </trkpt>
      <trkpt lat="36.945189032703638" lon="-3.285461962223053">
        <ele>1274.3599999999999</ele>
        <time>2025-05-12T08:13:31Z</time>
      </trkpt>
      <trkpt lat="36.945224991068244" lon="-3.285334976390004">
        <ele>1275.3299999999999</ele>
        <time>2025-05-12T08:13:32Z</time>
      </trkpt>
      <trkpt lat="36.945270001888275" lon="-3.285229029133916">
        <ele>1276.29</ele>
        <time>2025-05-12T08:13:33Z</time>
      </trkpt>
      <trkpt lat="36.945357006043196" lon="-3.285161973908544">
        <ele>1276.77</ele>
        <time>2025-05-12T08:13:34Z</time>
      </trkpt>
      <trkpt lat="36.94547401741147" lon="-3.285150993615389">
        <ele>1278.21</ele>
        <time>2025-05-12T08:13:35Z</time>
      </trkpt>
      <trkpt lat="36.945605026558042" lon="-3.28517303802073">
        <ele>1278.6900000000001</ele>
        <time>2025-05-12T08:13:36Z</time>
      </trkpt>
      <trkpt lat="36.945748021826148" lon="-3.285197010263801">
        <ele>1279.1700000000001</ele>
        <time>2025-05-12T08:13:37Z</time>
      </trkpt>
      <trkpt lat="36.946040969341993" lon="-3.285233974456787">
        <ele>1280.6099999999999</ele>
        <time>2025-05-12T08:13:39Z</time>
      </trkpt>
      <trkpt lat="36.946176001802087" lon="-3.285233974456787">
        <ele>1281.5699999999999</ele>
        <time>2025-05-12T08:13:40Z</time>
      </trkpt>
      <trkpt lat="36.946299970149994" lon="-3.285231962800026">
        <ele>1282.54</ele>
        <time>2025-05-12T08:13:41Z</time>
      </trkpt>
      <trkpt lat="36.946700038388371" lon="-3.285128027200699">
        <ele>1284.46</ele>
        <time>2025-05-12T08:13:44Z</time>
      </trkpt>
      <trkpt lat="36.946852002292871" lon="-3.285115035250783">
        <ele>1284.9400000000001</ele>
        <time>2025-05-12T08:13:45Z</time>
      </trkpt>
      <trkpt lat="36.947005977854133" lon="-3.285138001665473">
        <ele>1285.9000000000001</ele>
        <time>2025-05-12T08:13:46Z</time>
      </trkpt>
      <trkpt lat="36.947161965072155" lon="-3.285161973908544">
        <ele>1286.3800000000001</ele>
        <time>2025-05-12T08:13:47Z</time>
      </trkpt>
      <trkpt lat="36.947313006967306" lon="-3.285228023305535">
        <ele>1287.3399999999999</ele>
        <time>2025-05-12T08:13:48Z</time>
      </trkpt>
      <trkpt lat="36.94745197892189" lon="-3.285312009975314">
        <ele>1287.8199999999999</ele>
        <time>2025-05-12T08:13:49Z</time>
      </trkpt>
      <trkpt lat="36.947589023038745" lon="-3.285393984988332">
        <ele>1288.78</ele>
        <time>2025-05-12T08:13:50Z</time>
      </trkpt>
      <trkpt lat="36.947716008871794" lon="-3.285470008850098">
        <ele>1289.75</ele>
        <time>2025-05-12T08:13:51Z</time>
      </trkpt>
      <trkpt lat="36.947841988876462" lon="-3.285456011071801">
        <ele>1290.23</ele>
        <time>2025-05-12T08:13:52Z</time>
      </trkpt>
      <trkpt lat="36.947971992194653" lon="-3.285404965281487">
        <ele>1291.1900000000001</ele>
        <time>2025-05-12T08:13:53Z</time>
      </trkpt>
      <trkpt lat="36.948100989684463" lon="-3.285355009138584">
        <ele>1291.6700000000001</ele>
        <time>2025-05-12T08:13:54Z</time>
      </trkpt>
      <trkpt lat="36.948221018537879" lon="-3.285307986661792">
        <ele>1292.6300000000001</ele>
        <time>2025-05-12T08:13:55Z</time>
      </trkpt>
      <trkpt lat="36.948340963572264" lon="-3.285298012197018">
        <ele>1293.1099999999999</ele>
        <time>2025-05-12T08:13:56Z</time>
      </trkpt>
      <trkpt lat="36.948444982990623" lon="-3.285334976390004">
        <ele>1294.0699999999999</ele>
        <time>2025-05-12T08:13:57Z</time>
      </trkpt>
      <trkpt lat="36.948540033772588" lon="-3.285404965281487">
        <ele>1295.03</ele>
        <time>2025-05-12T08:13:58Z</time>
      </trkpt>
      <trkpt lat="36.948637012392282" lon="-3.28547696582973">
        <ele>1295.99</ele>
        <time>2025-05-12T08:13:59Z</time>
      </trkpt>
      <trkpt lat="36.94873902015388" lon="-3.285551983863115">
        <ele>1296.96</ele>
        <time>2025-05-12T08:14:00Z</time>
      </trkpt>
      <trkpt lat="36.948843039572239" lon="-3.285629013553262">
        <ele>1297.9200000000001</ele>
        <time>2025-05-12T08:14:01Z</time>
      </trkpt>
      <trkpt lat="36.948935994878411" lon="-3.285678969696164">
        <ele>1298.8800000000001</ele>
        <time>2025-05-12T08:14:02Z</time>
      </trkpt>
      <trkpt lat="36.949030039831996" lon="-3.285699002444744">
        <ele>1299.3599999999999</ele>
        <time>2025-05-12T08:14:03Z</time>
      </trkpt>
      <trkpt lat="36.949113020673394" lon="-3.28564896248281">
        <ele>1300.3199999999999</ele>
        <time>2025-05-12T08:14:04Z</time>
      </trkpt>
      <trkpt lat="36.949171023443341" lon="-3.28553999774158">
        <ele>1300.8</ele>
        <time>2025-05-12T08:14:05Z</time>
      </trkpt>
      <trkpt lat="36.949231959879398" lon="-3.285405971109867">
        <ele>1301.76</ele>
        <time>2025-05-12T08:14:06Z</time>
      </trkpt>
      <trkpt lat="36.949283005669713" lon="-3.285263981670141">
        <ele>1302.72</ele>
        <time>2025-05-12T08:14:07Z</time>
      </trkpt>
      <trkpt lat="36.949338996782899" lon="-3.285104976966977">
        <ele>1303.6900000000001</ele>
        <time>2025-05-12T08:14:08Z</time>
      </trkpt>
      <trkpt lat="36.949433041736484" lon="-3.285012021660805">
        <ele>1305.1300000000001</ele>
        <time>2025-05-12T08:14:09Z</time>
      </trkpt>
      <trkpt lat="36.949554998427629" lon="-3.284971034154296">
        <ele>1306.0899999999999</ele>
        <time>2025-05-12T08:14:10Z</time>
      </trkpt>
      <trkpt lat="36.949686007574201" lon="-3.2849380094558">
        <ele>1307.53</ele>
        <time>2025-05-12T08:14:11Z</time>
      </trkpt>
      <trkpt lat="36.949824979528785" lon="-3.284903978928924">
        <ele>1308.97</ele>
        <time>2025-05-12T08:14:12Z</time>
      </trkpt>
      <trkpt lat="36.949956994503736" lon="-3.28487103804946">
        <ele>1309.9300000000001</ele>
        <time>2025-05-12T08:14:13Z</time>
      </trkpt>
      <trkpt lat="36.950039975345135" lon="-3.284769030287862">
        <ele>1311.3800000000001</ele>
        <time>2025-05-12T08:14:14Z</time>
      </trkpt>
      <trkpt lat="36.950121028348804" lon="-3.284666016697884">
        <ele>1312.8199999999999</ele>
        <time>2025-05-12T08:14:15Z</time>
      </trkpt>
      <trkpt lat="36.950204009190202" lon="-3.284559985622764">
        <ele>1313.78</ele>
        <time>2025-05-12T08:14:16Z</time>
      </trkpt>
      <trkpt lat="36.950295036658645" lon="-3.28444398008287">
        <ele>1315.22</ele>
        <time>2025-05-12T08:14:17Z</time>
      </trkpt>
      <trkpt lat="36.950406013056636" lon="-3.284347001463175">
        <ele>1316.1800000000001</ele>
        <time>2025-05-12T08:14:18Z</time>
      </trkpt>
      <trkpt lat="36.950527969747782" lon="-3.284290004521608">
        <ele>1317.1400000000001</ele>
        <time>2025-05-12T08:14:19Z</time>
      </trkpt>
      <trkpt lat="36.950655961409211" lon="-3.284290004521608">
        <ele>1318.0999999999999</ele>
        <time>2025-05-12T08:14:20Z</time>
      </trkpt>
      <trkpt lat="36.950785964727402" lon="-3.284290004521608">
        <ele>1319.0699999999999</ele>
        <time>2025-05-12T08:14:21Z</time>
      </trkpt>
      <trkpt lat="36.950898030772805" lon="-3.284282041713595">
        <ele>1320.03</ele>
        <time>2025-05-12T08:14:22Z</time>
      </trkpt>
      <trkpt lat="36.950991991907358" lon="-3.284225966781378">
        <ele>1320.51</ele>
        <time>2025-05-12T08:14:23Z</time>
      </trkpt>
      <trkpt lat="36.951048988848925" lon="-3.284095963463187">
        <ele>1321.47</ele>
        <time>2025-05-12T08:14:24Z</time>
      </trkpt>
      <trkpt lat="36.951397005468607" lon="-3.283332036808133">
        <ele>1325.3099999999999</ele>
        <time>2025-05-12T08:14:29Z</time>
      </trkpt>
      <trkpt lat="36.951489960774779" lon="-3.283179989084601">
        <ele>1326.28</ele>
        <time>2025-05-12T08:14:30Z</time>
      </trkpt>
      <trkpt lat="36.951608983799815" lon="-3.283061971887946">
        <ele>1327.24</ele>
        <time>2025-05-12T08:14:31Z</time>
      </trkpt>
      <trkpt lat="36.951734041795135" lon="-3.282950995489955">
        <ele>1327.72</ele>
        <time>2025-05-12T08:14:32Z</time>
      </trkpt>
      <trkpt lat="36.9518549926579" lon="-3.282843036577106">
        <ele>1328.2</ele>
        <time>2025-05-12T08:14:33Z</time>
      </trkpt>
      <trkpt lat="36.951980972662568" lon="-3.282784027978778">
        <ele>1329.1600000000001</ele>
        <time>2025-05-12T08:14:34Z</time>
      </trkpt>
      <trkpt lat="36.952120028436184" lon="-3.282744968309999">
        <ele>1330.1199999999999</ele>
        <time>2025-05-12T08:14:35Z</time>
      </trkpt>
      <trkpt lat="36.952255982905626" lon="-3.282728036865592">
        <ele>1330.5999999999999</ele>
        <time>2025-05-12T08:14:36Z</time>
      </trkpt>
      <trkpt lat="36.952401995658875" lon="-3.282737005501986">
        <ele>1331.0799999999999</ele>
        <time>2025-05-12T08:14:37Z</time>
      </trkpt>
      <trkpt lat="36.952541973441839" lon="-3.282731976360083">
        <ele>1331.5599999999999</ele>
        <time>2025-05-12T08:14:38Z</time>
      </trkpt>
      <trkpt lat="36.952643981203437" lon="-3.2826810143888">
        <ele>1331.5599999999999</ele>
        <time>2025-05-12T08:14:39Z</time>
      </trkpt>
      <trkpt lat="36.952712964266539" lon="-3.282573977485299">
        <ele>1332.04</ele>
        <time>2025-05-12T08:14:40Z</time>
      </trkpt>
      <trkpt lat="36.952788988128304" lon="-3.282457971945405">
        <ele>1332.04</ele>
        <time>2025-05-12T08:14:41Z</time>
      </trkpt>
      <trkpt lat="36.952874986454844" lon="-3.282326962798834">
        <ele>1332.04</ele>
        <time>2025-05-12T08:14:42Z</time>
      </trkpt>
      <trkpt lat="36.953070033341646" lon="-3.282053964212537">
        <ele>1331.5599999999999</ele>
        <time>2025-05-12T08:14:44Z</time>
      </trkpt>
      <trkpt lat="36.953181009739637" lon="-3.281928990036249">
        <ele>1331.5599999999999</ele>
        <time>2025-05-12T08:14:45Z</time>
      </trkpt>
      <trkpt lat="36.953328028321266" lon="-3.281850032508373">
        <ele>1331.5599999999999</ele>
        <time>2025-05-12T08:14:46Z</time>
      </trkpt>
      <trkpt lat="36.953626004979014" lon="-3.281690021976829">
        <ele>1332.04</ele>
        <time>2025-05-12T08:14:48Z</time>
      </trkpt>
      <trkpt lat="36.953770006075501" lon="-3.281623972579837">
        <ele>1332.04</ele>
        <time>2025-05-12T08:14:49Z</time>
      </trkpt>
      <trkpt lat="36.953911995515227" lon="-3.281603017821908">
        <ele>1332.52</ele>
        <time>2025-05-12T08:14:50Z</time>
      </trkpt>
      <trkpt lat="36.954043004661798" lon="-3.281583990901709">
        <ele>1333.01</ele>
        <time>2025-05-12T08:14:51Z</time>
      </trkpt>
      <trkpt lat="36.954160016030073" lon="-3.28156596980989">
        <ele>1333.49</ele>
        <time>2025-05-12T08:14:52Z</time>
      </trkpt>
      <trkpt lat="36.954247020184994" lon="-3.281485000625253">
        <ele>1333.49</ele>
        <time>2025-05-12T08:14:53Z</time>
      </trkpt>
      <trkpt lat="36.954287001863122" lon="-3.281377963721752">
        <ele>1333.97</ele>
        <time>2025-05-12T08:14:54Z</time>
      </trkpt>
      <trkpt lat="36.954289013519883" lon="-3.28128500841558">
        <ele>1333.97</ele>
        <time>2025-05-12T08:14:55Z</time>
      </trkpt>
      <trkpt lat="36.954276021569967" lon="-3.281165985390544">
        <ele>1333.97</ele>
        <time>2025-05-12T08:14:56Z</time>
      </trkpt>
      <trkpt lat="36.954208966344595" lon="-3.281077975407243">
        <ele>1333.97</ele>
        <time>2025-05-12T08:14:57Z</time>
      </trkpt>
      <trkpt lat="36.954112993553281" lon="-3.281015027314425">
        <ele>1333.97</ele>
        <time>2025-05-12T08:14:58Z</time>
      </trkpt>
      <trkpt lat="36.953968992456794" lon="-3.280979990959168">
        <ele>1333.97</ele>
        <time>2025-05-12T08:14:59Z</time>
      </trkpt>
      <trkpt lat="36.953811999410391" lon="-3.2809420209378">
        <ele>1334.45</ele>
        <time>2025-05-12T08:15:00Z</time>
      </trkpt>
      <trkpt lat="36.953660035505891" lon="-3.280904972925782">
        <ele>1334.9300000000001</ele>
        <time>2025-05-12T08:15:01Z</time>
      </trkpt>
      <trkpt lat="36.953521985560656" lon="-3.280872032046318">
        <ele>1334.45</ele>
        <time>2025-05-12T08:15:02Z</time>
      </trkpt>
      <trkpt lat="36.953384019434452" lon="-3.280790979042649">
        <ele>1334.45</ele>
        <time>2025-05-12T08:15:03Z</time>
      </trkpt>
      <trkpt lat="36.953287962824106" lon="-3.28070598654449">
        <ele>1333.97</ele>
        <time>2025-05-12T08:15:04Z</time>
      </trkpt>
      <trkpt lat="36.95320799946785" lon="-3.280568020418286">
        <ele>1333.97</ele>
        <time>2025-05-12T08:15:05Z</time>
      </trkpt>
      <trkpt lat="36.953137004747987" lon="-3.280442962422967">
        <ele>1334.45</ele>
        <time>2025-05-12T08:15:06Z</time>
      </trkpt>
      <trkpt lat="36.953061986714602" lon="-3.280312037095428">
        <ele>1334.9300000000001</ele>
        <time>2025-05-12T08:15:07Z</time>
      </trkpt>
      <trkpt lat="36.953005995601416" lon="-3.280168035998941">
        <ele>1335.8900000000001</ele>
        <time>2025-05-12T08:15:08Z</time>
      </trkpt>
      <trkpt lat="36.952966013923287" lon="-3.280020011588931">
        <ele>1335.8900000000001</ele>
        <time>2025-05-12T08:15:09Z</time>
      </trkpt>
      <trkpt lat="36.952966013923287" lon="-3.279867963865399">
        <ele>1336.3699999999999</ele>
        <time>2025-05-12T08:15:10Z</time>
      </trkpt>
      <trkpt lat="36.952999960631132" lon="-3.27971700578928">
        <ele>1336.8499999999999</ele>
        <time>2025-05-12T08:15:11Z</time>
      </trkpt>
      <trkpt lat="36.953062992542982" lon="-3.279578033834696">
        <ele>1337.3299999999999</ele>
        <time>2025-05-12T08:15:12Z</time>
      </trkpt>
      <trkpt lat="36.953144967556" lon="-3.279454987496138">
        <ele>1337.8099999999999</ele>
        <time>2025-05-12T08:15:13Z</time>
      </trkpt>
      <trkpt lat="36.953255021944642" lon="-3.279349962249398">
        <ele>1338.77</ele>
        <time>2025-05-12T08:15:14Z</time>
      </trkpt>
      <trkpt lat="36.953368009999394" lon="-3.279240997508168">
        <ele>1339.73</ele>
        <time>2025-05-12T08:15:15Z</time>
      </trkpt>
      <trkpt lat="36.953603960573673" lon="-3.279014015570283">
        <ele>1342.1400000000001</ele>
        <time>2025-05-12T08:15:17Z</time>
      </trkpt>
      <trkpt lat="36.95374402217567" lon="-3.278918964788318">
        <ele>1343.0999999999999</ele>
        <time>2025-05-12T08:15:18Z</time>
      </trkpt>
      <trkpt lat="36.955104991793633" lon="-3.278500037267804">
        <ele>1353.6700000000001</ele>
        <time>2025-05-12T08:15:26Z</time>
      </trkpt>
      <trkpt lat="36.956791011616588" lon="-3.278375985100865">
        <ele>1366.1700000000001</ele>
        <time>2025-05-12T08:15:35Z</time>
      </trkpt>
      <trkpt lat="36.957601960748434" lon="-3.278419990092516">
        <ele>1372.9000000000001</ele>
        <time>2025-05-12T08:15:40Z</time>
      </trkpt>
      <trkpt lat="36.957737999036908" lon="-3.27849299646914">
        <ele>1374.3399999999999</ele>
        <time>2025-05-12T08:15:41Z</time>
      </trkpt>
      <trkpt lat="36.958294976502657" lon="-3.278840007260442">
        <ele>1379.6300000000001</ele>
        <time>2025-05-12T08:15:45Z</time>
      </trkpt>
      <trkpt lat="36.958393966779113" lon="-3.278840007260442">
        <ele>1381.0699999999999</ele>
        <time>2025-05-12T08:15:46Z</time>
      </trkpt>
      <trkpt lat="36.958568980917335" lon="-3.278800025582314">
        <ele>1382.03</ele>
        <time>2025-05-12T08:15:47Z</time>
      </trkpt>
      <trkpt lat="36.959625016897917" lon="-3.278569020330906">
        <ele>1389.72</ele>
        <time>2025-05-12T08:15:53Z</time>
      </trkpt>
      <trkpt lat="36.960175037384033" lon="-3.278453014791012">
        <ele>1394.53</ele>
        <time>2025-05-12T08:15:57Z</time>
      </trkpt>
      <trkpt lat="36.960300011560321" lon="-3.278488973155618">
        <ele>1396.45</ele>
        <time>2025-05-12T08:15:58Z</time>
      </trkpt>
      <trkpt lat="36.960417022928596" lon="-3.278521997854114">
        <ele>1397.8900000000001</ele>
        <time>2025-05-12T08:15:59Z</time>
      </trkpt>
      <trkpt lat="36.960543002933264" lon="-3.278635991737247">
        <ele>1398.8599999999999</ele>
        <time>2025-05-12T08:16:00Z</time>
      </trkpt>
      <trkpt lat="36.960639981552958" lon="-3.278776975348592">
        <ele>1400.78</ele>
        <time>2025-05-12T08:16:01Z</time>
      </trkpt>
      <trkpt lat="36.960757998749614" lon="-3.278926005586982">
        <ele>1402.22</ele>
        <time>2025-05-12T08:16:02Z</time>
      </trkpt>
      <trkpt lat="36.960886996239424" lon="-3.279071012511849">
        <ele>1403.1800000000001</ele>
        <time>2025-05-12T08:16:03Z</time>
      </trkpt>
      <trkpt lat="36.961034014821053" lon="-3.279168996959925">
        <ele>1404.1400000000001</ele>
        <time>2025-05-12T08:16:04Z</time>
      </trkpt>
      <trkpt lat="36.961163012310863" lon="-3.279254995286465">
        <ele>1405.0999999999999</ele>
        <time>2025-05-12T08:16:05Z</time>
      </trkpt>
      <trkpt lat="36.961272982880473" lon="-3.279328001663089">
        <ele>1407.03</ele>
        <time>2025-05-12T08:16:06Z</time>
      </trkpt>
      <trkpt lat="36.961355963721871" lon="-3.279432021081448">
        <ele>1408.47</ele>
        <time>2025-05-12T08:16:07Z</time>
      </trkpt>
      <trkpt lat="36.961432993412018" lon="-3.279568981379271">
        <ele>1409.9100000000001</ele>
        <time>2025-05-12T08:16:08Z</time>
      </trkpt>
      <trkpt lat="36.961508011445403" lon="-3.279703008010984">
        <ele>1411.3499999999999</ele>
        <time>2025-05-12T08:16:09Z</time>
      </trkpt>
      <trkpt lat="36.961613036692142" lon="-3.279891014099121">
        <ele>1412.3099999999999</ele>
        <time>2025-05-12T08:16:10Z</time>
      </trkpt>
      <trkpt lat="36.961705991998315" lon="-3.279937030747533">
        <ele>1413.28</ele>
        <time>2025-05-12T08:16:11Z</time>
      </trkpt>
      <trkpt lat="36.961858039721847" lon="-3.27999796718359">
        <ele>1414.72</ele>
        <time>2025-05-12T08:16:12Z</time>
      </trkpt>
      <trkpt lat="36.962016960605979" lon="-3.27999796718359">
        <ele>1415.6800000000001</ele>
        <time>2025-05-12T08:16:13Z</time>
      </trkpt>
      <trkpt lat="36.96218803524971" lon="-3.280002996325493">
        <ele>1416.1600000000001</ele>
        <time>2025-05-12T08:16:14Z</time>
      </trkpt>
      <trkpt lat="36.962853977456689" lon="-3.280094023793936">
        <ele>1420.97</ele>
        <time>2025-05-12T08:16:18Z</time>
      </trkpt>
      <trkpt lat="36.963008036836982" lon="-3.280149009078741">
        <ele>1422.4100000000001</ele>
        <time>2025-05-12T08:16:19Z</time>
      </trkpt>
      <trkpt lat="36.963541964069009" lon="-3.280618982389569">
        <ele>1428.1800000000001</ele>
        <time>2025-05-12T08:16:23Z</time>
      </trkpt>
      <trkpt lat="36.963671967387199" lon="-3.280757032334805">
        <ele>1430.0999999999999</ele>
        <time>2025-05-12T08:16:24Z</time>
      </trkpt>
      <trkpt lat="36.964360037818551" lon="-3.281444013118744">
        <ele>1438.75</ele>
        <time>2025-05-12T08:16:29Z</time>
      </trkpt>
      <trkpt lat="36.964499009773135" lon="-3.281527999788523">
        <ele>1440.1900000000001</ele>
        <time>2025-05-12T08:16:30Z</time>
      </trkpt>
      <trkpt lat="36.964642005041242" lon="-3.281592959538102">
        <ele>1441.1500000000001</ele>
        <time>2025-05-12T08:16:31Z</time>
      </trkpt>
      <trkpt lat="36.964778965339065" lon="-3.281611986458302">
        <ele>1442.1099999999999</ele>
        <time>2025-05-12T08:16:32Z</time>
      </trkpt>
      <trkpt lat="36.964910980314016" lon="-3.281623972579837">
        <ele>1443.0799999999999</ele>
        <time>2025-05-12T08:16:33Z</time>
      </trkpt>
      <trkpt lat="36.965022962540388" lon="-3.28158700838685">
        <ele>1444.04</ele>
        <time>2025-05-12T08:16:34Z</time>
      </trkpt>
      <trkpt lat="36.965126981958747" lon="-3.281509978696704">
        <ele>1444.52</ele>
        <time>2025-05-12T08:16:35Z</time>
      </trkpt>
      <trkpt lat="36.965209040790796" lon="-3.28139497898519">
        <ele>1445</ele>
        <time>2025-05-12T08:16:36Z</time>
      </trkpt>
      <trkpt lat="36.965295961126685" lon="-3.281272016465664">
        <ele>1445.48</ele>
        <time>2025-05-12T08:16:37Z</time>
      </trkpt>
      <trkpt lat="36.965732993558049" lon="-3.280599033460021">
        <ele>1447.4000000000001</ele>
        <time>2025-05-12T08:16:42Z</time>
      </trkpt>
      <trkpt lat="36.965869031846523" lon="-3.280526027083397">
        <ele>1447.8800000000001</ele>
        <time>2025-05-12T08:16:43Z</time>
      </trkpt>
      <trkpt lat="36.96601202711463" lon="-3.280448997393251">
        <ele>1448.3599999999999</ele>
        <time>2025-05-12T08:16:44Z</time>
      </trkpt>
      <trkpt lat="36.966118980199099" lon="-3.280448997393251">
        <ele>1448.8399999999999</ele>
        <time>2025-05-12T08:16:45Z</time>
      </trkpt>
      <trkpt lat="36.966275973245502" lon="-3.280448997393251">
        <ele>1449.3199999999999</ele>
        <time>2025-05-12T08:16:46Z</time>
      </trkpt>
      <trkpt lat="36.96644595824182" lon="-3.280448997393251">
        <ele>1449.8099999999999</ele>
        <time>2025-05-12T08:16:47Z</time>
      </trkpt>
      <trkpt lat="36.967524038627744" lon="-3.280470035970211">
        <ele>1454.1300000000001</ele>
        <time>2025-05-12T08:16:53Z</time>
      </trkpt>
      <trkpt lat="36.96766602806747" lon="-3.280470035970211">
        <ele>1455.0899999999999</ele>
        <time>2025-05-12T08:16:54Z</time>
      </trkpt>
      <trkpt lat="36.9677749928087" lon="-3.280402980744839">
        <ele>1455.5699999999999</ele>
        <time>2025-05-12T08:16:55Z</time>
      </trkpt>
      <trkpt lat="36.967858979478478" lon="-3.280317988246679">
        <ele>1455.5699999999999</ele>
        <time>2025-05-12T08:16:56Z</time>
      </trkpt>
      <trkpt lat="36.967952018603683" lon="-3.280226038768888">
        <ele>1455.5699999999999</ele>
        <time>2025-05-12T08:16:57Z</time>
      </trkpt>
      <trkpt lat="36.968046985566616" lon="-3.280129982158542">
        <ele>1455.5699999999999</ele>
        <time>2025-05-12T08:16:58Z</time>
      </trkpt>
      <trkpt lat="36.968143964186311" lon="-3.280093017965555">
        <ele>1455.5699999999999</ele>
        <time>2025-05-12T08:16:59Z</time>
      </trkpt>
      <trkpt lat="36.96824798360467" lon="-3.280073991045356">
        <ele>1455.5699999999999</ele>
        <time>2025-05-12T08:17:00Z</time>
      </trkpt>
      <trkpt lat="36.968346973881125" lon="-3.280091006308794">
        <ele>1456.05</ele>
        <time>2025-05-12T08:17:01Z</time>
      </trkpt>
      <trkpt lat="36.968444036319852" lon="-3.280159989371896">
        <ele>1456.05</ele>
        <time>2025-05-12T08:17:02Z</time>
      </trkpt>
      <trkpt lat="36.968530034646392" lon="-3.280268032103777">
        <ele>1456.53</ele>
        <time>2025-05-12T08:17:03Z</time>
      </trkpt>
      <trkpt lat="36.968629024922848" lon="-3.280401974916458">
        <ele>1457.02</ele>
        <time>2025-05-12T08:17:04Z</time>
      </trkpt>
      <trkpt lat="36.968839997425675" lon="-3.280690982937813">
        <ele>1457.02</ele>
        <time>2025-05-12T08:17:06Z</time>
      </trkpt>
      <trkpt lat="36.968960026279092" lon="-3.280821992084384">
        <ele>1457.02</ele>
        <time>2025-05-12T08:17:07Z</time>
      </trkpt>
      <trkpt lat="36.969117019325495" lon="-3.280868008732796">
        <ele>1457.02</ele>
        <time>2025-05-12T08:17:08Z</time>
      </trkpt>
      <trkpt lat="36.969931991770864" lon="-3.281115023419261">
        <ele>1455.5699999999999</ele>
        <time>2025-05-12T08:17:13Z</time>
      </trkpt>
      <trkpt lat="36.970306998118758" lon="-3.281300012022257">
        <ele>1454.6099999999999</ele>
        <time>2025-05-12T08:17:16Z</time>
      </trkpt>
      <trkpt lat="36.97041898034513" lon="-3.281320966780186">
        <ele>1454.6099999999999</ele>
        <time>2025-05-12T08:17:17Z</time>
      </trkpt>
      <trkpt lat="36.970498021692038" lon="-3.281253995373845">
        <ele>1454.6099999999999</ele>
        <time>2025-05-12T08:17:18Z</time>
      </trkpt>
      <trkpt lat="36.970582008361816" lon="-3.281144024804235">
        <ele>1454.6099999999999</ele>
        <time>2025-05-12T08:17:19Z</time>
      </trkpt>
      <trkpt lat="36.970639005303383" lon="-3.280992982909083">
        <ele>1454.6099999999999</ele>
        <time>2025-05-12T08:17:20Z</time>
      </trkpt>
      <trkpt lat="36.970702959224582" lon="-3.280821992084384">
        <ele>1454.1300000000001</ele>
        <time>2025-05-12T08:17:21Z</time>
      </trkpt>
      <trkpt lat="36.970845032483339" lon="-3.280503982678056">
        <ele>1454.1300000000001</ele>
        <time>2025-05-12T08:17:23Z</time>
      </trkpt>
      <trkpt lat="36.970920972526073" lon="-3.280371967703104">
        <ele>1453.6500000000001</ele>
        <time>2025-05-12T08:17:24Z</time>
      </trkpt>
      <trkpt lat="36.971044018864632" lon="-3.280277000740171">
        <ele>1453.1700000000001</ele>
        <time>2025-05-12T08:17:25Z</time>
      </trkpt>
      <trkpt lat="36.971182990819216" lon="-3.28016996383667">
        <ele>1452.6900000000001</ele>
        <time>2025-05-12T08:17:26Z</time>
      </trkpt>
      <trkpt lat="36.971329003572464" lon="-3.280076002702117">
        <ele>1452.21</ele>
        <time>2025-05-12T08:17:27Z</time>
      </trkpt>
      <trkpt lat="36.97162002325058" lon="-3.279860001057386">
        <ele>1450.77</ele>
        <time>2025-05-12T08:17:29Z</time>
      </trkpt>
      <trkpt lat="36.971754971891642" lon="-3.279743995517492">
        <ele>1450.29</ele>
        <time>2025-05-12T08:17:30Z</time>
      </trkpt>
      <trkpt lat="36.972468020394444" lon="-3.278831960633397">
        <ele>1448.3599999999999</ele>
        <time>2025-05-12T08:17:37Z</time>
      </trkpt>
      <trkpt lat="36.972580002620816" lon="-3.278737999498844">
        <ele>1448.3599999999999</ele>
        <time>2025-05-12T08:17:38Z</time>
      </trkpt>
      <trkpt lat="36.972716962918639" lon="-3.278660969808698">
        <ele>1447.8800000000001</ele>
        <time>2025-05-12T08:17:39Z</time>
      </trkpt>
      <trkpt lat="36.972857024520636" lon="-3.278582012280822">
        <ele>1447.8800000000001</ele>
        <time>2025-05-12T08:17:40Z</time>
      </trkpt>
      <trkpt lat="36.973006976768374" lon="-3.278544964268804">
        <ele>1447.8800000000001</ele>
        <time>2025-05-12T08:17:41Z</time>
      </trkpt>
      <trkpt lat="36.9731489662081" lon="-3.278509005904198">
        <ele>1447.8800000000001</ele>
        <time>2025-05-12T08:17:42Z</time>
      </trkpt>
      <trkpt lat="36.973302019760013" lon="-3.278506994247437">
        <ele>1447.4000000000001</ele>
        <time>2025-05-12T08:17:43Z</time>
      </trkpt>
      <trkpt lat="36.973466975614429" lon="-3.278524009510875">
        <ele>1447.4000000000001</ele>
        <time>2025-05-12T08:17:44Z</time>
      </trkpt>
      <trkpt lat="36.974448999390006" lon="-3.278617970645428">
        <ele>1445.48</ele>
        <time>2025-05-12T08:17:50Z</time>
      </trkpt>
      <trkpt lat="36.974575985223055" lon="-3.278605984523892">
        <ele>1445.48</ele>
        <time>2025-05-12T08:17:51Z</time>
      </trkpt>
      <trkpt lat="36.974696014076471" lon="-3.278545970097184">
        <ele>1445.48</ele>
        <time>2025-05-12T08:17:52Z</time>
      </trkpt>
      <trkpt lat="36.974803972989321" lon="-3.278437005355954">
        <ele>1445.96</ele>
        <time>2025-05-12T08:17:53Z</time>
      </trkpt>
      <trkpt lat="36.974904974922538" lon="-3.278336003422737">
        <ele>1446.4400000000001</ele>
        <time>2025-05-12T08:17:54Z</time>
      </trkpt>
      <trkpt lat="36.975023997947574" lon="-3.278270959854126">
        <ele>1446.9200000000001</ele>
        <time>2025-05-12T08:17:55Z</time>
      </trkpt>
      <trkpt lat="36.975156012922525" lon="-3.27823500148952">
        <ele>1447.4000000000001</ele>
        <time>2025-05-12T08:17:56Z</time>
      </trkpt>
      <trkpt lat="36.975304959341884" lon="-3.278225027024746">
        <ele>1447.8800000000001</ele>
        <time>2025-05-12T08:17:57Z</time>
      </trkpt>
      <trkpt lat="36.975637972354889" lon="-3.278204994276166">
        <ele>1449.3199999999999</ele>
        <time>2025-05-12T08:17:59Z</time>
      </trkpt>
      <trkpt lat="36.975808041170239" lon="-3.278184961527586">
        <ele>1449.8099999999999</ele>
        <time>2025-05-12T08:18:00Z</time>
      </trkpt>
      <trkpt lat="36.975967967882752" lon="-3.278131987899542">
        <ele>1450.77</ele>
        <time>2025-05-12T08:18:01Z</time>
      </trkpt>
      <trkpt lat="36.976249013096094" lon="-3.278038026764989">
        <ele>1451.25</ele>
        <time>2025-05-12T08:18:03Z</time>
      </trkpt>
      <trkpt lat="36.976360995322466" lon="-3.278043977916241">
        <ele>1451.73</ele>
        <time>2025-05-12T08:18:04Z</time>
      </trkpt>
      <trkpt lat="36.976481024175882" lon="-3.278075996786356">
        <ele>1451.73</ele>
        <time>2025-05-12T08:18:05Z</time>
      </trkpt>
      <trkpt lat="36.976601975038648" lon="-3.2781479973346">
        <ele>1451.25</ele>
        <time>2025-05-12T08:18:06Z</time>
      </trkpt>
      <trkpt lat="36.976727033033967" lon="-3.278242964297533">
        <ele>1451.25</ele>
        <time>2025-05-12T08:18:07Z</time>
      </trkpt>
      <trkpt lat="36.976849995553493" lon="-3.278339020907879">
        <ele>1450.77</ele>
        <time>2025-05-12T08:18:08Z</time>
      </trkpt>
      <trkpt lat="36.976966001093388" lon="-3.278428036719561">
        <ele>1450.29</ele>
        <time>2025-05-12T08:18:09Z</time>
      </trkpt>
      <trkpt lat="36.977103967219591" lon="-3.278460977599025">
        <ele>1449.8099999999999</ele>
        <time>2025-05-12T08:18:10Z</time>
      </trkpt>
      <trkpt lat="36.977242017164826" lon="-3.278472041711211">
        <ele>1449.8099999999999</ele>
        <time>2025-05-12T08:18:11Z</time>
      </trkpt>
      <trkpt lat="36.977386018261313" lon="-3.278416972607374">
        <ele>1449.3199999999999</ele>
        <time>2025-05-12T08:18:12Z</time>
      </trkpt>
      <trkpt lat="36.977527001872659" lon="-3.278342038393021">
        <ele>1449.3199999999999</ele>
        <time>2025-05-12T08:18:13Z</time>
      </trkpt>
      <trkpt lat="36.977677959948778" lon="-3.278261991217732">
        <ele>1448.8399999999999</ele>
        <time>2025-05-12T08:18:14Z</time>
      </trkpt>
      <trkpt lat="36.977964034304023" lon="-3.278110027313232">
        <ele>1448.3599999999999</ele>
        <time>2025-05-12T08:18:16Z</time>
      </trkpt>
      <trkpt lat="36.97808900848031" lon="-3.277952028438449">
        <ele>1448.3599999999999</ele>
        <time>2025-05-12T08:18:17Z</time>
      </trkpt>
      <trkpt lat="36.978201996535063" lon="-3.277807021513581">
        <ele>1448.3599999999999</ele>
        <time>2025-05-12T08:18:18Z</time>
      </trkpt>
      <trkpt lat="36.978312972933054" lon="-3.277666959911585">
        <ele>1448.3599999999999</ele>
        <time>2025-05-12T08:18:19Z</time>
      </trkpt>
      <trkpt lat="36.978413974866271" lon="-3.277538968250155">
        <ele>1448.3599999999999</ele>
        <time>2025-05-12T08:18:20Z</time>
      </trkpt>
      <trkpt lat="36.978522017598152" lon="-3.277402007952333">
        <ele>1448.8399999999999</ele>
        <time>2025-05-12T08:18:21Z</time>
      </trkpt>
      <trkpt lat="36.978628970682621" lon="-3.277348028495908">
        <ele>1448.8399999999999</ele>
        <time>2025-05-12T08:18:22Z</time>
      </trkpt>
      <trkpt lat="36.978758974000812" lon="-3.277321960777044">
        <ele>1448.8399999999999</ele>
        <time>2025-05-12T08:18:23Z</time>
      </trkpt>
      <trkpt lat="36.978895012289286" lon="-3.277334030717611">
        <ele>1448.8399999999999</ele>
        <time>2025-05-12T08:18:24Z</time>
      </trkpt>
      <trkpt lat="36.979038007557392" lon="-3.277362026274204">
        <ele>1448.8399999999999</ele>
        <time>2025-05-12T08:18:25Z</time>
      </trkpt>
      <trkpt lat="36.979177985340357" lon="-3.277410976588726">
        <ele>1449.3199999999999</ele>
        <time>2025-05-12T08:18:26Z</time>
      </trkpt>
      <trkpt lat="36.979317041113973" lon="-3.277487000450492">
        <ele>1449.8099999999999</ele>
        <time>2025-05-12T08:18:27Z</time>
      </trkpt>
      <trkpt lat="36.979451989755034" lon="-3.277588002383709">
        <ele>1450.29</ele>
        <time>2025-05-12T08:18:28Z</time>
      </trkpt>
      <trkpt lat="36.980160009115934" lon="-3.278282023966312">
        <ele>1453.1700000000001</ele>
        <time>2025-05-12T08:18:34Z</time>
      </trkpt>
      <trkpt lat="36.980228992179036" lon="-3.278428036719561">
        <ele>1453.1700000000001</ele>
        <time>2025-05-12T08:18:35Z</time>
      </trkpt>
      <trkpt lat="36.980280037969351" lon="-3.278591986745596">
        <ele>1453.6500000000001</ele>
        <time>2025-05-12T08:18:36Z</time>
      </trkpt>
      <trkpt lat="36.980391014367342" lon="-3.278946038335562">
        <ele>1454.1300000000001</ele>
        <time>2025-05-12T08:18:38Z</time>
      </trkpt>
      <trkpt lat="36.980550019070506" lon="-3.279288019984961">
        <ele>1454.1300000000001</ele>
        <time>2025-05-12T08:18:40Z</time>
      </trkpt>
      <trkpt lat="36.980640962719917" lon="-3.279452975839376">
        <ele>1454.1300000000001</ele>
        <time>2025-05-12T08:18:41Z</time>
      </trkpt>
      <trkpt lat="36.980741964653134" lon="-3.279587002471089">
        <ele>1454.1300000000001</ele>
        <time>2025-05-12T08:18:42Z</time>
      </trkpt>
      <trkpt lat="36.980841038748622" lon="-3.279714994132519">
        <ele>1453.6500000000001</ele>
        <time>2025-05-12T08:18:43Z</time>
      </trkpt>
      <trkpt lat="36.98094598017633" lon="-3.279766039922833">
        <ele>1453.1700000000001</ele>
        <time>2025-05-12T08:18:44Z</time>
      </trkpt>
      <trkpt lat="36.98107497766614" lon="-3.279805015772581">
        <ele>1452.21</ele>
        <time>2025-05-12T08:18:45Z</time>
      </trkpt>
      <trkpt lat="36.981184026226401" lon="-3.27978297136724">
        <ele>1451.73</ele>
        <time>2025-05-12T08:18:46Z</time>
      </trkpt>
      <trkpt lat="36.981322998180985" lon="-3.279753969982266">
        <ele>1451.25</ele>
        <time>2025-05-12T08:18:47Z</time>
      </trkpt>
      <trkpt lat="36.981737986207008" lon="-3.279668977484107">
        <ele>1451.25</ele>
        <time>2025-05-12T08:18:50Z</time>
      </trkpt>
      <trkpt lat="36.981864972040057" lon="-3.279671994969249">
        <ele>1451.25</ele>
        <time>2025-05-12T08:18:51Z</time>
      </trkpt>
      <trkpt lat="36.981992041692138" lon="-3.279707031324506">
        <ele>1451.25</ele>
        <time>2025-05-12T08:18:52Z</time>
      </trkpt>
      <trkpt lat="36.982135036960244" lon="-3.279747013002634">
        <ele>1451.25</ele>
        <time>2025-05-12T08:18:53Z</time>
      </trkpt>
      <trkpt lat="36.982289012521505" lon="-3.2798230368644">
        <ele>1450.77</ele>
        <time>2025-05-12T08:18:54Z</time>
      </trkpt>
      <trkpt lat="36.982437036931515" lon="-3.279914986342192">
        <ele>1450.77</ele>
        <time>2025-05-12T08:18:55Z</time>
      </trkpt>
      <trkpt lat="36.982869040220976" lon="-3.280183961614966">
        <ele>1448.3599999999999</ele>
        <time>2025-05-12T08:18:58Z</time>
      </trkpt>
      <trkpt lat="36.98300801217556" lon="-3.280257973819971">
        <ele>1447.8800000000001</ele>
        <time>2025-05-12T08:18:59Z</time>
      </trkpt>
      <trkpt lat="36.983168022707105" lon="-3.280270965769887">
        <ele>1446.9200000000001</ele>
        <time>2025-05-12T08:19:00Z</time>
      </trkpt>
      <trkpt lat="36.983321998268366" lon="-3.280284041538835">
        <ele>1445.96</ele>
        <time>2025-05-12T08:19:01Z</time>
      </trkpt>
      <trkpt lat="36.983500029891729" lon="-3.28029896132648">
        <ele>1445</ele>
        <time>2025-05-12T08:19:02Z</time>
      </trkpt>
      <trkpt lat="36.983586028218269" lon="-3.280225032940507">
        <ele>1444.52</ele>
        <time>2025-05-12T08:19:03Z</time>
      </trkpt>
      <trkpt lat="36.983660962432623" lon="-3.280121013522148">
        <ele>1444.04</ele>
        <time>2025-05-12T08:19:04Z</time>
      </trkpt>
      <trkpt lat="36.983692981302738" lon="-3.279984975233674">
        <ele>1443.0799999999999</ele>
        <time>2025-05-12T08:19:05Z</time>
      </trkpt>
      <trkpt lat="36.983709996566176" lon="-3.279850026592612">
        <ele>1443.0799999999999</ele>
        <time>2025-05-12T08:19:06Z</time>
      </trkpt>
      <trkpt lat="36.983684012666345" lon="-3.279732009395957">
        <ele>1443.0799999999999</ele>
        <time>2025-05-12T08:19:07Z</time>
      </trkpt>
      <trkpt lat="36.983623998239636" lon="-3.279633019119501">
        <ele>1443.0799999999999</ele>
        <time>2025-05-12T08:19:08Z</time>
      </trkpt>
      <trkpt lat="36.983530037105083" lon="-3.279547020792961">
        <ele>1442.5999999999999</ele>
        <time>2025-05-12T08:19:09Z</time>
      </trkpt>
      <trkpt lat="36.983433980494738" lon="-3.27945901080966">
        <ele>1442.5999999999999</ele>
        <time>2025-05-12T08:19:10Z</time>
      </trkpt>
      <trkpt lat="36.98335200548172" lon="-3.279357003048062">
        <ele>1443.0799999999999</ele>
        <time>2025-05-12T08:19:11Z</time>
      </trkpt>
      <trkpt lat="36.983275981619954" lon="-3.279237980023027">
        <ele>1443.0799999999999</ele>
        <time>2025-05-12T08:19:12Z</time>
      </trkpt>
      <trkpt lat="36.983230970799923" lon="-3.279077969491482">
        <ele>1444.04</ele>
        <time>2025-05-12T08:19:13Z</time>
      </trkpt>
      <trkpt lat="36.983184032142162" lon="-3.278912007808685">
        <ele>1444.52</ele>
        <time>2025-05-12T08:19:14Z</time>
      </trkpt>
      <trkpt lat="36.983124017715454" lon="-3.27842996455729">
        <ele>1447.4000000000001</ele>
        <time>2025-05-12T08:19:17Z</time>
      </trkpt>
      <trkpt lat="36.983152013272047" lon="-3.27830096706748">
        <ele>1448.3599999999999</ele>
        <time>2025-05-12T08:19:18Z</time>
      </trkpt>
      <trkpt lat="36.983216973021626" lon="-3.278185967355967">
        <ele>1449.3199999999999</ele>
        <time>2025-05-12T08:19:19Z</time>
      </trkpt>
      <trkpt lat="36.983300959691405" lon="-3.278075996786356">
        <ele>1450.29</ele>
        <time>2025-05-12T08:19:20Z</time>
      </trkpt>
      <trkpt lat="36.983413025736809" lon="-3.277970971539617">
        <ele>1450.77</ele>
        <time>2025-05-12T08:19:21Z</time>
      </trkpt>
      <trkpt lat="36.983531964942813" lon="-3.277861000970006">
        <ele>1451.73</ele>
        <time>2025-05-12T08:19:22Z</time>
      </trkpt>
      <trkpt lat="36.983775040134788" lon="-3.277635024860501">
        <ele>1453.1700000000001</ele>
        <time>2025-05-12T08:19:24Z</time>
      </trkpt>
      <trkpt lat="36.983882999047637" lon="-3.277534022927284">
        <ele>1454.1300000000001</ele>
        <time>2025-05-12T08:19:25Z</time>
      </trkpt>
      <trkpt lat="36.983919963240623" lon="-3.277393961325288">
        <ele>1454.6099999999999</ele>
        <time>2025-05-12T08:19:26Z</time>
      </trkpt>
      <trkpt lat="36.983949970453978" lon="-3.277272004634142">
        <ele>1455.5699999999999</ele>
        <time>2025-05-12T08:19:27Z</time>
      </trkpt>
      <trkpt lat="36.98391099460423" lon="-3.277146024629474">
        <ele>1456.53</ele>
        <time>2025-05-12T08:19:28Z</time>
      </trkpt>
      <trkpt lat="36.983864977955818" lon="-3.276993976905942">
        <ele>1457.5</ele>
        <time>2025-05-12T08:19:29Z</time>
      </trkpt>
      <trkpt lat="36.983657022938132" lon="-3.276296015828848">
        <ele>1462.3</ele>
        <time>2025-05-12T08:19:33Z</time>
      </trkpt>
      <trkpt lat="36.983500029891729" lon="-3.275449024513364">
        <ele>1466.6300000000001</ele>
        <time>2025-05-12T08:19:37Z</time>
      </trkpt>
      <trkpt lat="36.983490977436304" lon="-3.275025989860296">
        <ele>1469.03</ele>
        <time>2025-05-12T08:19:39Z</time>
      </trkpt>
      <trkpt lat="36.983486032113433" lon="-3.274810994043946">
        <ele>1470.47</ele>
        <time>2025-05-12T08:19:40Z</time>
      </trkpt>
      <trkpt lat="36.983482008799911" lon="-3.274606978520751">
        <ele>1471.4400000000001</ele>
        <time>2025-05-12T08:19:41Z</time>
      </trkpt>
      <trkpt lat="36.983471028506756" lon="-3.274412015452981">
        <ele>1472.8800000000001</ele>
        <time>2025-05-12T08:19:42Z</time>
      </trkpt>
      <trkpt lat="36.983444960787892" lon="-3.274225015193224">
        <ele>1473.8399999999999</ele>
        <time>2025-05-12T08:19:43Z</time>
      </trkpt>
      <trkpt lat="36.983419982716441" lon="-3.274052012711763">
        <ele>1475.28</ele>
        <time>2025-05-12T08:19:44Z</time>
      </trkpt>
      <trkpt lat="36.983399027958512" lon="-3.273908011615276">
        <ele>1476.24</ele>
        <time>2025-05-12T08:19:45Z</time>
      </trkpt>
      <trkpt lat="36.983424006029963" lon="-3.27378798276186">
        <ele>1477.2</ele>
        <time>2025-05-12T08:19:46Z</time>
      </trkpt>
      <trkpt lat="36.983474968001246" lon="-3.273668959736824">
        <ele>1478.6500000000001</ele>
        <time>2025-05-12T08:19:47Z</time>
      </trkpt>
      <trkpt lat="36.983520984649658" lon="-3.273561000823975">
        <ele>1479.6099999999999</ele>
        <time>2025-05-12T08:19:48Z</time>
      </trkpt>
      <trkpt lat="36.983628021553159" lon="-3.273471985012293">
        <ele>1481.05</ele>
        <time>2025-05-12T08:19:49Z</time>
      </trkpt>
      <trkpt lat="36.983727011829615" lon="-3.273390009999275">
        <ele>1482.01</ele>
        <time>2025-05-12T08:19:50Z</time>
      </trkpt>
      <trkpt lat="36.983852991834283" lon="-3.273328989744186">
        <ele>1482.97</ele>
        <time>2025-05-12T08:19:51Z</time>
      </trkpt>
      <trkpt lat="36.984003027901053" lon="-3.273293031379581">
        <ele>1483.45</ele>
        <time>2025-05-12T08:19:52Z</time>
      </trkpt>
      <trkpt lat="36.98539299890399" lon="-3.272958006709814">
        <ele>1490.1800000000001</ele>
        <time>2025-05-12T08:20:00Z</time>
      </trkpt>
      <trkpt lat="36.985541023313999" lon="-3.272883994504809">
        <ele>1490.6600000000001</ele>
        <time>2025-05-12T08:20:01Z</time>
      </trkpt>
      <trkpt lat="36.985685024410486" lon="-3.272766983136535">
        <ele>1491.6199999999999</ele>
        <time>2025-05-12T08:20:02Z</time>
      </trkpt>
      <trkpt lat="36.985946036875248" lon="-3.272552993148565">
        <ele>1493.0599999999999</ele>
        <time>2025-05-12T08:20:04Z</time>
      </trkpt>
      <trkpt lat="36.986105963587761" lon="-3.272475963458419">
        <ele>1493.55</ele>
        <time>2025-05-12T08:20:05Z</time>
      </trkpt>
      <trkpt lat="36.986418021842837" lon="-3.27232601121068">
        <ele>1494.99</ele>
        <time>2025-05-12T08:20:07Z</time>
      </trkpt>
      <trkpt lat="36.986568979918957" lon="-3.272230038419366">
        <ele>1495.47</ele>
        <time>2025-05-12T08:20:08Z</time>
      </trkpt>
      <trkpt lat="36.986715998500586" lon="-3.272119984030724">
        <ele>1495.95</ele>
        <time>2025-05-12T08:20:09Z</time>
      </trkpt>
      <trkpt lat="36.986850025132298" lon="-3.271986041218042">
        <ele>1496.4300000000001</ele>
        <time>2025-05-12T08:20:10Z</time>
      </trkpt>
      <trkpt lat="36.986969970166683" lon="-3.271857965737581">
        <ele>1496.9100000000001</ele>
        <time>2025-05-12T08:20:11Z</time>
      </trkpt>
      <trkpt lat="36.987188989296556" lon="-3.271663002669811">
        <ele>1497.8699999999999</ele>
        <time>2025-05-12T08:20:13Z</time>
      </trkpt>
      <trkpt lat="36.987284040078521" lon="-3.271609023213387">
        <ele>1497.8699999999999</ele>
        <time>2025-05-12T08:20:14Z</time>
      </trkpt>
      <trkpt lat="36.98739199899137" lon="-3.271621009334922">
        <ele>1498.3499999999999</ele>
        <time>2025-05-12T08:20:15Z</time>
      </trkpt>
      <trkpt lat="36.987514039501548" lon="-3.271635007113218">
        <ele>1498.3499999999999</ele>
        <time>2025-05-12T08:20:16Z</time>
      </trkpt>
      <trkpt lat="36.98764999397099" lon="-3.271651016548276">
        <ele>1498.8299999999999</ele>
        <time>2025-05-12T08:20:17Z</time>
      </trkpt>
      <trkpt lat="36.988404029980302" lon="-3.271736009046435">
        <ele>1499.79</ele>
        <time>2025-05-12T08:20:22Z</time>
      </trkpt>
      <trkpt lat="36.988541996106505" lon="-3.271712036803365">
        <ele>1499.79</ele>
        <time>2025-05-12T08:20:23Z</time>
      </trkpt>
      <trkpt lat="36.988676022738218" lon="-3.271684963256121">
        <ele>1500.27</ele>
        <time>2025-05-12T08:20:24Z</time>
      </trkpt>
      <trkpt lat="36.988800996914506" lon="-3.271623020991683">
        <ele>1500.27</ele>
        <time>2025-05-12T08:20:25Z</time>
      </trkpt>
      <trkpt lat="36.9889170024544" lon="-3.271534005180001">
        <ele>1500.27</ele>
        <time>2025-05-12T08:20:26Z</time>
      </trkpt>
      <trkpt lat="36.989024039357901" lon="-3.271438032388687">
        <ele>1500.76</ele>
        <time>2025-05-12T08:20:27Z</time>
      </trkpt>
      <trkpt lat="36.989093022421002" lon="-3.271300988271833">
        <ele>1500.76</ele>
        <time>2025-05-12T08:20:28Z</time>
      </trkpt>
      <trkpt lat="36.989163011312485" lon="-3.271161010488868">
        <ele>1501.24</ele>
        <time>2025-05-12T08:20:29Z</time>
      </trkpt>
      <trkpt lat="36.989231994375587" lon="-3.271023966372013">
        <ele>1501.72</ele>
        <time>2025-05-12T08:20:30Z</time>
      </trkpt>
      <trkpt lat="36.989294020459056" lon="-3.270898992195725">
        <ele>1502.2</ele>
        <time>2025-05-12T08:20:31Z</time>
      </trkpt>
      <trkpt lat="36.989386975765228" lon="-3.270818023011088">
        <ele>1502.6800000000001</ele>
        <time>2025-05-12T08:20:32Z</time>
      </trkpt>
      <trkpt lat="36.989495018497109" lon="-3.270759014412761">
        <ele>1503.1600000000001</ele>
        <time>2025-05-12T08:20:33Z</time>
      </trkpt>
      <trkpt lat="36.989620998501778" lon="-3.270716015249491">
        <ele>1503.1600000000001</ele>
        <time>2025-05-12T08:20:34Z</time>
      </trkpt>
      <trkpt lat="36.989757036790252" lon="-3.270690031349659">
        <ele>1503.6400000000001</ele>
        <time>2025-05-12T08:20:35Z</time>
      </trkpt>
      <trkpt lat="36.990217035636306" lon="-3.270604033023119">
        <ele>1506.04</ele>
        <time>2025-05-12T08:20:38Z</time>
      </trkpt>
      <trkpt lat="36.990380985662341" lon="-3.270636973902583">
        <ele>1506.52</ele>
        <time>2025-05-12T08:20:39Z</time>
      </trkpt>
      <trkpt lat="36.990535967051983" lon="-3.270677961409092">
        <ele>1507</ele>
        <time>2025-05-12T08:20:40Z</time>
      </trkpt>
      <trkpt lat="36.991085987538099" lon="-3.27082104049623">
        <ele>1508.45</ele>
        <time>2025-05-12T08:20:44Z</time>
      </trkpt>
      <trkpt lat="36.991211967542768" lon="-3.270853981375694">
        <ele>1508.9300000000001</ele>
        <time>2025-05-12T08:20:45Z</time>
      </trkpt>
      <trkpt lat="36.991338031366467" lon="-3.27080100774765">
        <ele>1508.9300000000001</ele>
        <time>2025-05-12T08:20:46Z</time>
      </trkpt>
      <trkpt lat="36.991464011371136" lon="-3.2707379758358">
        <ele>1509.4100000000001</ele>
        <time>2025-05-12T08:20:47Z</time>
      </trkpt>
      <trkpt lat="36.991587979719043" lon="-3.270676033571363">
        <ele>1509.4100000000001</ele>
        <time>2025-05-12T08:20:48Z</time>
      </trkpt>
      <trkpt lat="36.991933984681964" lon="-3.270462965592742">
        <ele>1509.4100000000001</ele>
        <time>2025-05-12T08:20:51Z</time>
      </trkpt>
      <trkpt lat="36.99215903878212" lon="-3.270287029445171">
        <ele>1508.9300000000001</ele>
        <time>2025-05-12T08:20:53Z</time>
      </trkpt>
      <trkpt lat="36.992800002917647" lon="-3.269680012017489">
        <ele>1505.5599999999999</ele>
        <time>2025-05-12T08:20:59Z</time>
      </trkpt>
      <trkpt lat="36.992923971265554" lon="-3.269625026732683">
        <ele>1505.0799999999999</ele>
        <time>2025-05-12T08:21:00Z</time>
      </trkpt>
      <trkpt lat="36.993046011775732" lon="-3.269570963457227">
        <ele>1504.1199999999999</ele>
        <time>2025-05-12T08:21:01Z</time>
      </trkpt>
      <trkpt lat="36.993166040629148" lon="-3.269570041447878">
        <ele>1503.6400000000001</ele>
        <time>2025-05-12T08:21:02Z</time>
      </trkpt>
      <trkpt lat="36.993281962350011" lon="-3.269570041447878">
        <ele>1502.6800000000001</ele>
        <time>2025-05-12T08:21:03Z</time>
      </trkpt>
      <trkpt lat="36.993382964283228" lon="-3.269570041447878">
        <ele>1501.72</ele>
        <time>2025-05-12T08:21:04Z</time>
      </trkpt>
      <trkpt lat="36.993540963158011" lon="-3.26963902451098">
        <ele>1499.79</ele>
        <time>2025-05-12T08:21:06Z</time>
      </trkpt>
      <trkpt lat="36.993614975363016" lon="-3.269672971218824">
        <ele>1499.3099999999999</ele>
        <time>2025-05-12T08:21:07Z</time>
      </trkpt>
      <trkpt lat="36.993670966476202" lon="-3.269699038937688">
        <ele>1498.3499999999999</ele>
        <time>2025-05-12T08:21:08Z</time>
      </trkpt>
      <trkpt lat="36.993742967024446" lon="-3.269756035879254">
        <ele>1497.8699999999999</ele>
        <time>2025-05-12T08:21:09Z</time>
      </trkpt>
      <trkpt lat="36.993805998936296" lon="-3.269806997850537">
        <ele>1497.3900000000001</ele>
        <time>2025-05-12T08:21:10Z</time>
      </trkpt>
      <trkpt lat="36.993885040283203" lon="-3.269870029762387">
        <ele>1496.9100000000001</ele>
        <time>2025-05-12T08:21:11Z</time>
      </trkpt>
      <trkpt lat="36.993917981162667" lon="-3.269935995340347">
        <ele>1496.9100000000001</ele>
        <time>2025-05-12T08:21:12Z</time>
      </trkpt>
      <trkpt lat="36.993960980325937" lon="-3.270020987838507">
        <ele>1496.4300000000001</ele>
        <time>2025-05-12T08:21:13Z</time>
      </trkpt>
      <trkpt lat="36.994002973660827" lon="-3.270104974508286">
        <ele>1495.95</ele>
        <time>2025-05-12T08:21:14Z</time>
      </trkpt>
      <trkpt lat="36.99405200779438" lon="-3.270182004198432">
        <ele>1495.95</ele>
        <time>2025-05-12T08:21:15Z</time>
      </trkpt>
      <trkpt lat="36.994134988635778" lon="-3.27024101279676">
        <ele>1495.47</ele>
        <time>2025-05-12T08:21:16Z</time>
      </trkpt>
      <trkpt lat="36.994236996397376" lon="-3.270272025838494">
        <ele>1494.51</ele>
        <time>2025-05-12T08:21:17Z</time>
      </trkpt>
      <trkpt lat="36.994358031079173" lon="-3.270257022231817">
        <ele>1494.03</ele>
        <time>2025-05-12T08:21:18Z</time>
      </trkpt>
      <trkpt lat="36.994447968900204" lon="-3.270213017240167">
        <ele>1493.55</ele>
        <time>2025-05-12T08:21:19Z</time>
      </trkpt>
      <trkpt lat="36.994559029117227" lon="-3.270159037783742">
        <ele>1492.5799999999999</ele>
        <time>2025-05-12T08:21:20Z</time>
      </trkpt>
      <trkpt lat="36.994872009381652" lon="-3.270009001716971">
        <ele>1490.6600000000001</ele>
        <time>2025-05-12T08:21:23Z</time>
      </trkpt>
      <trkpt lat="36.994951972737908" lon="-3.269977988675237">
        <ele>1490.6600000000001</ele>
        <time>2025-05-12T08:21:24Z</time>
      </trkpt>
      <trkpt lat="36.995046017691493" lon="-3.269977988675237">
        <ele>1490.1800000000001</ele>
        <time>2025-05-12T08:21:25Z</time>
      </trkpt>
      <trkpt lat="36.995421024039388" lon="-3.269970025867224">
        <ele>1487.78</ele>
        <time>2025-05-12T08:21:29Z</time>
      </trkpt>
      <trkpt lat="36.995507022365928" lon="-3.269912023097277">
        <ele>1486.8199999999999</ele>
        <time>2025-05-12T08:21:30Z</time>
      </trkpt>
      <trkpt lat="36.995601989328861" lon="-3.269848991185427">
        <ele>1486.3399999999999</ele>
        <time>2025-05-12T08:21:31Z</time>
      </trkpt>
      <trkpt lat="36.996161984279752" lon="-3.269330989569426">
        <ele>1481.53</ele>
        <time>2025-05-12T08:21:37Z</time>
      </trkpt>
      <trkpt lat="36.996240019798279" lon="-3.26921196654439">
        <ele>1480.0899999999999</ele>
        <time>2025-05-12T08:21:38Z</time>
      </trkpt>
      <trkpt lat="36.996513018384576" lon="-3.268764037638903">
        <ele>1476.72</ele>
        <time>2025-05-12T08:21:42Z</time>
      </trkpt>
      <trkpt lat="36.996603040024638" lon="-3.268666975200176">
        <ele>1475.76</ele>
        <time>2025-05-12T08:21:43Z</time>
      </trkpt>
      <trkpt lat="36.997451959177852" lon="-3.267767010256648">
        <ele>1468.55</ele>
        <time>2025-05-12T08:21:52Z</time>
      </trkpt>
      <trkpt lat="36.997565031051636" lon="-3.267715964466333">
        <ele>1467.5899999999999</ele>
        <time>2025-05-12T08:21:53Z</time>
      </trkpt>
      <trkpt lat="36.997672989964485" lon="-3.267667014151812">
        <ele>1466.6300000000001</ele>
        <time>2025-05-12T08:21:54Z</time>
      </trkpt>
      <trkpt lat="36.997771980240941" lon="-3.26762200333178">
        <ele>1465.6700000000001</ele>
        <time>2025-05-12T08:21:55Z</time>
      </trkpt>
      <trkpt lat="36.99787700548768" lon="-3.267573975026608">
        <ele>1464.71</ele>
        <time>2025-05-12T08:21:56Z</time>
      </trkpt>
      <trkpt lat="36.997935008257627" lon="-3.26749300584197">
        <ele>1463.74</ele>
        <time>2025-05-12T08:21:57Z</time>
      </trkpt>
      <trkpt lat="36.997989993542433" lon="-3.267394015565515">
        <ele>1462.3</ele>
        <time>2025-05-12T08:21:58Z</time>
      </trkpt>
      <trkpt lat="36.998015977442265" lon="-3.267275998368859">
        <ele>1461.3399999999999</ele>
        <time>2025-05-12T08:21:59Z</time>
      </trkpt>
      <trkpt lat="36.998041961342096" lon="-3.267153035849333">
        <ele>1460.3800000000001</ele>
        <time>2025-05-12T08:22:00Z</time>
      </trkpt>
      <trkpt lat="36.998038021847606" lon="-3.267016997560859">
        <ele>1459.4200000000001</ele>
        <time>2025-05-12T08:22:01Z</time>
      </trkpt>
      <trkpt lat="36.99802603572607" lon="-3.266888000071049">
        <ele>1458.46</ele>
        <time>2025-05-12T08:22:02Z</time>
      </trkpt>
      <trkpt lat="36.998013965785503" lon="-3.266761014238">
        <ele>1457.02</ele>
        <time>2025-05-12T08:22:03Z</time>
      </trkpt>
      <trkpt lat="36.998001979663968" lon="-3.266635034233332">
        <ele>1456.05</ele>
        <time>2025-05-12T08:22:04Z</time>
      </trkpt>
      <trkpt lat="36.997986976057291" lon="-3.266391959041357">
        <ele>1454.1300000000001</ele>
        <time>2025-05-12T08:22:06Z</time>
      </trkpt>
      <trkpt lat="36.997996028512716" lon="-3.266276037320495">
        <ele>1453.1700000000001</ele>
        <time>2025-05-12T08:22:07Z</time>
      </trkpt>
      <trkpt lat="36.99800499714911" lon="-3.266165982931852">
        <ele>1452.21</ele>
        <time>2025-05-12T08:22:08Z</time>
      </trkpt>
      <trkpt lat="36.99806903488934" lon="-3.266081996262074">
        <ele>1451.25</ele>
        <time>2025-05-12T08:22:09Z</time>
      </trkpt>
      <trkpt lat="36.998132988810539" lon="-3.266005972400308">
        <ele>1450.29</ele>
        <time>2025-05-12T08:22:10Z</time>
      </trkpt>
      <trkpt lat="36.99819702655077" lon="-3.265928020700812">
        <ele>1449.8099999999999</ele>
        <time>2025-05-12T08:22:11Z</time>
      </trkpt>
      <trkpt lat="36.998279001563787" lon="-3.265877980738878">
        <ele>1448.8399999999999</ele>
        <time>2025-05-12T08:22:12Z</time>
      </trkpt>
      <trkpt lat="36.998358964920044" lon="-3.265848979353905">
        <ele>1447.8800000000001</ele>
        <time>2025-05-12T08:22:13Z</time>
      </trkpt>
      <trkpt lat="36.998429959639907" lon="-3.265821989625692">
        <ele>1446.9200000000001</ele>
        <time>2025-05-12T08:22:14Z</time>
      </trkpt>
      <trkpt lat="36.998493997380137" lon="-3.265798017382622">
        <ele>1445.96</ele>
        <time>2025-05-12T08:22:15Z</time>
      </trkpt>
      <trkpt lat="36.998562980443239" lon="-3.26577203348279">
        <ele>1445</ele>
        <time>2025-05-12T08:22:16Z</time>
      </trkpt>
      <trkpt lat="36.998617965728045" lon="-3.26577203348279">
        <ele>1444.52</ele>
        <time>2025-05-12T08:22:17Z</time>
      </trkpt>
      <trkpt lat="36.998682003468275" lon="-3.26577203348279">
        <ele>1443.5599999999999</ele>
        <time>2025-05-12T08:22:18Z</time>
      </trkpt>
      <trkpt lat="36.99886498041451" lon="-3.26577203348279">
        <ele>1441.6300000000001</ele>
        <time>2025-05-12T08:22:21Z</time>
      </trkpt>
      <trkpt lat="36.998948967084289" lon="-3.265749989077449">
        <ele>1440.6700000000001</ele>
        <time>2025-05-12T08:22:23Z</time>
      </trkpt>
      <trkpt lat="36.999005964025855" lon="-3.265713024884462">
        <ele>1440.1900000000001</ele>
        <time>2025-05-12T08:22:24Z</time>
      </trkpt>
      <trkpt lat="36.999047035351396" lon="-3.265685029327869">
        <ele>1439.23</ele>
        <time>2025-05-12T08:22:25Z</time>
      </trkpt>
      <trkpt lat="36.999109983444214" lon="-3.265581009909511">
        <ele>1438.27</ele>
        <time>2025-05-12T08:22:27Z</time>
      </trkpt>
      <trkpt lat="36.999134961515665" lon="-3.2655159663409">
        <ele>1437.79</ele>
        <time>2025-05-12T08:22:28Z</time>
      </trkpt>
      <trkpt lat="36.999161029234529" lon="-3.265448994934559">
        <ele>1437.3099999999999</ele>
        <time>2025-05-12T08:22:29Z</time>
      </trkpt>
      <trkpt lat="36.999185001477599" lon="-3.265376994386315">
        <ele>1436.8299999999999</ele>
        <time>2025-05-12T08:22:30Z</time>
      </trkpt>
      <trkpt lat="36.999176032841206" lon="-3.265302982181311">
        <ele>1436.3499999999999</ele>
        <time>2025-05-12T08:22:31Z</time>
      </trkpt>
      <trkpt lat="36.999167986214161" lon="-3.265230981633067">
        <ele>1435.8699999999999</ele>
        <time>2025-05-12T08:22:32Z</time>
      </trkpt>
      <trkpt lat="36.99914401397109" lon="-3.265155041590333">
        <ele>1435.8699999999999</ele>
        <time>2025-05-12T08:22:33Z</time>
      </trkpt>
      <trkpt lat="36.999109983444214" lon="-3.265094021335244">
        <ele>1435.3900000000001</ele>
        <time>2025-05-12T08:22:34Z</time>
      </trkpt>
      <trkpt lat="36.99907997623086" lon="-3.265039036050439">
        <ele>1435.3900000000001</ele>
        <time>2025-05-12T08:22:35Z</time>
      </trkpt>
      <trkpt lat="36.999050974845886" lon="-3.264985978603363">
        <ele>1435.3900000000001</ele>
        <time>2025-05-12T08:22:36Z</time>
      </trkpt>
      <trkpt lat="36.999025996774435" lon="-3.264939961954951">
        <ele>1434.9100000000001</ele>
        <time>2025-05-12T08:22:37Z</time>
      </trkpt>
      <trkpt lat="36.998999007046223" lon="-3.26489101164043">
        <ele>1434.9100000000001</ele>
        <time>2025-05-12T08:22:38Z</time>
      </trkpt>
      <trkpt lat="36.99897101148963" lon="-3.264841977506876">
        <ele>1434.4200000000001</ele>
        <time>2025-05-12T08:22:39Z</time>
      </trkpt>
      <trkpt lat="36.998943015933037" lon="-3.264792021363974">
        <ele>1433.9400000000001</ele>
        <time>2025-05-12T08:22:40Z</time>
      </trkpt>
      <trkpt lat="36.998914014548063" lon="-3.26474198140204">
        <ele>1433.46</ele>
        <time>2025-05-12T08:22:41Z</time>
      </trkpt>
      <trkpt lat="36.998888030648232" lon="-3.264694958925247">
        <ele>1433.46</ele>
        <time>2025-05-12T08:22:42Z</time>
      </trkpt>
      <trkpt lat="36.998861962929368" lon="-3.264648020267487">
        <ele>1432.98</ele>
        <time>2025-05-12T08:22:43Z</time>
      </trkpt>
      <trkpt lat="36.998805971816182" lon="-3.264503013342619">
        <ele>1432.5</ele>
        <time>2025-05-12T08:22:46Z</time>
      </trkpt>
      <trkpt lat="36.998792979866266" lon="-3.264452973380685">
        <ele>1432.5</ele>
        <time>2025-05-12T08:22:47Z</time>
      </trkpt>
      <trkpt lat="36.998781999573112" lon="-3.264396982267499">
        <ele>1432.5</ele>
        <time>2025-05-12T08:22:48Z</time>
      </trkpt>
      <trkpt lat="36.998770013451576" lon="-3.26433596201241">
        <ele>1432.02</ele>
        <time>2025-05-12T08:22:49Z</time>
      </trkpt>
      <trkpt lat="36.99875702150166" lon="-3.264266978949308">
        <ele>1432.02</ele>
        <time>2025-05-12T08:22:50Z</time>
      </trkpt>
      <trkpt lat="36.998777976259589" lon="-3.264205036684871">
        <ele>1432.5</ele>
        <time>2025-05-12T08:22:51Z</time>
      </trkpt>
      <trkpt lat="36.998803038150072" lon="-3.264136975631118">
        <ele>1432.98</ele>
        <time>2025-05-12T08:22:52Z</time>
      </trkpt>
      <trkpt lat="36.99884201399982" lon="-3.26409799978137">
        <ele>1432.98</ele>
        <time>2025-05-12T08:22:53Z</time>
      </trkpt>
      <trkpt lat="36.998906973749399" lon="-3.264067992568016">
        <ele>1433.46</ele>
        <time>2025-05-12T08:22:54Z</time>
      </trkpt>
      <trkpt lat="36.998970005661249" lon="-3.264038991183043">
        <ele>1433.9400000000001</ele>
        <time>2025-05-12T08:22:55Z</time>
      </trkpt>
      <trkpt lat="36.999032031744719" lon="-3.26401099562645">
        <ele>1434.4200000000001</ele>
        <time>2025-05-12T08:22:56Z</time>
      </trkpt>
      <trkpt lat="36.999282985925674" lon="-3.263985011726618">
        <ele>1433.46</ele>
        <time>2025-05-12T08:23:00Z</time>
      </trkpt>
      <trkpt lat="36.999344006180763" lon="-3.26399096287787">
        <ele>1433.46</ele>
        <time>2025-05-12T08:23:01Z</time>
      </trkpt>
      <trkpt lat="36.999410977587104" lon="-3.263996997848153">
        <ele>1432.98</ele>
        <time>2025-05-12T08:23:02Z</time>
      </trkpt>
      <trkpt lat="36.999840969219804" lon="-3.263992974534631">
        <ele>1432.5</ele>
        <time>2025-05-12T08:23:08Z</time>
      </trkpt>
      <trkpt lat="36.999919004738331" lon="-3.263974031433463">
        <ele>1432.02</ele>
        <time>2025-05-12T08:23:09Z</time>
      </trkpt>
      <trkpt lat="37.000022018328309" lon="-3.2639479637146">
        <ele>1432.02</ele>
        <time>2025-05-12T08:23:10Z</time>
      </trkpt>
      <trkpt lat="37.000085972249508" lon="-3.263903958722949">
        <ele>1431.54</ele>
        <time>2025-05-12T08:23:11Z</time>
      </trkpt>
      <trkpt lat="37.000166019424796" lon="-3.263849979266524">
        <ele>1431.0599999999999</ele>
        <time>2025-05-12T08:23:12Z</time>
      </trkpt>
      <trkpt lat="37.000635992735624" lon="-3.263462986797094">
        <ele>1428.1800000000001</ele>
        <time>2025-05-12T08:23:19Z</time>
      </trkpt>
      <trkpt lat="37.000693995505571" lon="-3.263404984027147">
        <ele>1427.21</ele>
        <time>2025-05-12T08:23:20Z</time>
      </trkpt>
      <trkpt lat="37.000753004103899" lon="-3.263343963772059">
        <ele>1426.73</ele>
        <time>2025-05-12T08:23:21Z</time>
      </trkpt>
      <trkpt lat="37.000774964690208" lon="-3.263261988759041">
        <ele>1426.25</ele>
        <time>2025-05-12T08:23:22Z</time>
      </trkpt>
      <trkpt lat="37.00079700909555" lon="-3.263180013746023">
        <ele>1426.25</ele>
        <time>2025-05-12T08:23:23Z</time>
      </trkpt>
      <trkpt lat="37.000818969681859" lon="-3.263098960742354">
        <ele>1425.77</ele>
        <time>2025-05-12T08:23:24Z</time>
      </trkpt>
      <trkpt lat="37.0008410140872" lon="-3.263015979900956">
        <ele>1425.77</ele>
        <time>2025-05-12T08:23:25Z</time>
      </trkpt>
      <trkpt lat="37.00086398050189" lon="-3.262929981574416">
        <ele>1425.29</ele>
        <time>2025-05-12T08:23:26Z</time>
      </trkpt>
      <trkpt lat="37.000888036563993" lon="-3.262841971591115">
        <ele>1424.8099999999999</ele>
        <time>2025-05-12T08:23:27Z</time>
      </trkpt>
      <trkpt lat="37.000900022685528" lon="-3.262747004628182">
        <ele>1424.3299999999999</ele>
        <time>2025-05-12T08:23:28Z</time>
      </trkpt>
      <trkpt lat="37.000893987715244" lon="-3.262648014351726">
        <ele>1423.8499999999999</ele>
        <time>2025-05-12T08:23:29Z</time>
      </trkpt>
      <trkpt lat="37.000888036563993" lon="-3.262545000761747">
        <ele>1422.8900000000001</ele>
        <time>2025-05-12T08:23:30Z</time>
      </trkpt>
      <trkpt lat="37.000882001593709" lon="-3.262445004656911">
        <ele>1422.4100000000001</ele>
        <time>2025-05-12T08:23:31Z</time>
      </trkpt>
      <trkpt lat="37.0008410140872" lon="-3.26235800050199">
        <ele>1422.4100000000001</ele>
        <time>2025-05-12T08:23:32Z</time>
      </trkpt>
      <trkpt lat="37.000794997438788" lon="-3.262280970811844">
        <ele>1421.9300000000001</ele>
        <time>2025-05-12T08:23:33Z</time>
      </trkpt>
      <trkpt lat="37.000745041295886" lon="-3.262204024940729">
        <ele>1421.45</ele>
        <time>2025-05-12T08:23:34Z</time>
      </trkpt>
      <trkpt lat="37.000685026869178" lon="-3.262150967493653">
        <ele>1421.45</ele>
        <time>2025-05-12T08:23:35Z</time>
      </trkpt>
      <trkpt lat="37.000515963882208" lon="-3.262060023844242">
        <ele>1420.49</ele>
        <time>2025-05-12T08:23:38Z</time>
      </trkpt>
      <trkpt lat="37.00045301578939" lon="-3.262060023844242">
        <ele>1420</ele>
        <time>2025-05-12T08:23:39Z</time>
      </trkpt>
      <trkpt lat="37.000366011634469" lon="-3.262060023844242">
        <ele>1420</ele>
        <time>2025-05-12T08:23:40Z</time>
      </trkpt>
      <trkpt lat="37.000317983329296" lon="-3.26209899969399">
        <ele>1420</ele>
        <time>2025-05-12T08:23:41Z</time>
      </trkpt>
      <trkpt lat="37.000240031629801" lon="-3.26216496527195">
        <ele>1420</ele>
        <time>2025-05-12T08:23:42Z</time>
      </trkpt>
      <trkpt lat="37.000158978626132" lon="-3.262234032154083">
        <ele>1420.49</ele>
        <time>2025-05-12T08:23:43Z</time>
      </trkpt>
      <trkpt lat="36.999906012788415" lon="-3.262446010485292">
        <ele>1421.45</ele>
        <time>2025-05-12T08:23:46Z</time>
      </trkpt>
      <trkpt lat="36.999828983098269" lon="-3.26250996440649">
        <ele>1421.9300000000001</ele>
        <time>2025-05-12T08:23:47Z</time>
      </trkpt>
      <trkpt lat="36.999719012528658" lon="-3.262560004368424">
        <ele>1421.9300000000001</ele>
        <time>2025-05-12T08:23:48Z</time>
      </trkpt>
      <trkpt lat="36.999609963968396" lon="-3.262594034895301">
        <ele>1421.9300000000001</ele>
        <time>2025-05-12T08:23:49Z</time>
      </trkpt>
      <trkpt lat="36.999492030590773" lon="-3.262586994096637">
        <ele>1421.45</ele>
        <time>2025-05-12T08:23:50Z</time>
      </trkpt>
      <trkpt lat="36.999365966767073" lon="-3.262578025460243">
        <ele>1421.45</ele>
        <time>2025-05-12T08:23:51Z</time>
      </trkpt>
      <trkpt lat="36.999235041439533" lon="-3.262560004368424">
        <ele>1421.45</ele>
        <time>2025-05-12T08:23:52Z</time>
      </trkpt>
      <trkpt lat="36.998827010393143" lon="-3.262494960799813">
        <ele>1420</ele>
        <time>2025-05-12T08:23:55Z</time>
      </trkpt>
      <trkpt lat="36.998673034831882" lon="-3.262523040175438">
        <ele>1419.52</ele>
        <time>2025-05-12T08:23:56Z</time>
      </trkpt>
      <trkpt lat="36.998187974095345" lon="-3.262609960511327">
        <ele>1418.0799999999999</ele>
        <time>2025-05-12T08:23:59Z</time>
      </trkpt>
      <trkpt lat="36.998011032119393" lon="-3.262638039886951">
        <ele>1417.5999999999999</ele>
        <time>2025-05-12T08:24:00Z</time>
      </trkpt>
      <trkpt lat="36.996885007247329" lon="-3.262618007138372">
        <ele>1413.28</ele>
        <time>2025-05-12T08:24:07Z</time>
      </trkpt>
      <trkpt lat="36.996791968122125" lon="-3.262644996866584">
        <ele>1412.79</ele>
        <time>2025-05-12T08:24:08Z</time>
      </trkpt>
      <trkpt lat="36.996687026694417" lon="-3.262696964666247">
        <ele>1412.79</ele>
        <time>2025-05-12T08:24:09Z</time>
      </trkpt>
      <trkpt lat="36.996613014489412" lon="-3.262773994356394">
        <ele>1412.79</ele>
        <time>2025-05-12T08:24:10Z</time>
      </trkpt>
      <trkpt lat="36.996561968699098" lon="-3.262900980189443">
        <ele>1412.79</ele>
        <time>2025-05-12T08:24:11Z</time>
      </trkpt>
      <trkpt lat="36.996517963707447" lon="-3.263041963800788">
        <ele>1412.79</ele>
        <time>2025-05-12T08:24:12Z</time>
      </trkpt>
      <trkpt lat="36.996157038956881" lon="-3.264339985325933">
        <ele>1418.0799999999999</ele>
        <time>2025-05-12T08:24:20Z</time>
      </trkpt>
      <trkpt lat="36.996128037571907" lon="-3.264447022229433">
        <ele>1419.52</ele>
        <time>2025-05-12T08:24:21Z</time>
      </trkpt>
      <trkpt lat="36.996052013710141" lon="-3.264533020555973">
        <ele>1420.49</ele>
        <time>2025-05-12T08:24:22Z</time>
      </trkpt>
      <trkpt lat="36.995978001505136" lon="-3.264589011669159">
        <ele>1420.97</ele>
        <time>2025-05-12T08:24:23Z</time>
      </trkpt>
      <trkpt lat="36.99589803814888" lon="-3.264649026095867">
        <ele>1421.9300000000001</ele>
        <time>2025-05-12T08:24:24Z</time>
      </trkpt>
      <trkpt lat="36.995812961831689" lon="-3.264712980017066">
        <ele>1422.4100000000001</ele>
        <time>2025-05-12T08:24:25Z</time>
      </trkpt>
      <trkpt lat="36.995164034888148" lon="-3.265148000791669">
        <ele>1425.77</ele>
        <time>2025-05-12T08:24:31Z</time>
      </trkpt>
      <trkpt lat="36.995022967457771" lon="-3.265213966369629">
        <ele>1425.77</ele>
        <time>2025-05-12T08:24:32Z</time>
      </trkpt>
      <trkpt lat="36.994900004938245" lon="-3.265229975804687">
        <ele>1426.25</ele>
        <time>2025-05-12T08:24:33Z</time>
      </trkpt>
      <trkpt lat="36.994750974699855" lon="-3.265250008553267">
        <ele>1426.25</ele>
        <time>2025-05-12T08:24:34Z</time>
      </trkpt>
      <trkpt lat="36.994594987481833" lon="-3.265237016603351">
        <ele>1426.25</ele>
        <time>2025-05-12T08:24:35Z</time>
      </trkpt>
      <trkpt lat="36.994436988607049" lon="-3.265208015218377">
        <ele>1426.25</ele>
        <time>2025-05-12T08:24:36Z</time>
      </trkpt>
      <trkpt lat="36.99428703635931" lon="-3.265167027711868">
        <ele>1425.77</ele>
        <time>2025-05-12T08:24:37Z</time>
      </trkpt>
      <trkpt lat="36.994121996685863" lon="-3.26510701328516">
        <ele>1425.77</ele>
        <time>2025-05-12T08:24:38Z</time>
      </trkpt>
      <trkpt lat="36.993992999196053" lon="-3.265002993866801">
        <ele>1425.29</ele>
        <time>2025-05-12T08:24:39Z</time>
      </trkpt>
      <trkpt lat="36.993856960907578" lon="-3.26489201746881">
        <ele>1425.29</ele>
        <time>2025-05-12T08:24:40Z</time>
      </trkpt>
      <trkpt lat="36.993724023923278" lon="-3.26480601914227">
        <ele>1424.8099999999999</ele>
        <time>2025-05-12T08:24:41Z</time>
      </trkpt>
      <trkpt lat="36.993592008948326" lon="-3.264753967523575">
        <ele>1424.3299999999999</ele>
        <time>2025-05-12T08:24:42Z</time>
      </trkpt>
      <trkpt lat="36.993482960388064" lon="-3.264783974736929">
        <ele>1423.8499999999999</ele>
        <time>2025-05-12T08:24:43Z</time>
      </trkpt>
      <trkpt lat="36.993379024788737" lon="-3.264838960021734">
        <ele>1423.8499999999999</ele>
        <time>2025-05-12T08:24:44Z</time>
      </trkpt>
      <trkpt lat="36.993295960128307" lon="-3.264882965013385">
        <ele>1424.3299999999999</ele>
        <time>2025-05-12T08:24:45Z</time>
      </trkpt>
      <trkpt lat="36.993208033964038" lon="-3.264928981661797">
        <ele>1423.8499999999999</ele>
        <time>2025-05-12T08:24:50Z</time>
      </trkpt>
      <trkpt lat="36.993189007043839" lon="-3.264939039945602">
        <ele>1425.29</ele>
        <time>2025-05-12T08:25:03Z</time>
      </trkpt>
      <trkpt lat="36.993189007043839" lon="-3.264939039945602">
        <ele>1425.29</ele>
        <time>2025-05-12T08:25:43Z</time>
      </trkpt>
      <trkpt lat="36.99315195903182" lon="-3.26495697721839">
        <ele>1426.25</ele>
        <time>2025-05-12T08:26:01Z</time>
      </trkpt>
      <trkpt lat="36.993124969303608" lon="-3.264958988875151">
        <ele>1426.73</ele>
        <time>2025-05-12T08:26:02Z</time>
      </trkpt>
      <trkpt lat="36.993079958483577" lon="-3.264963012188673">
        <ele>1427.7</ele>
        <time>2025-05-12T08:26:03Z</time>
      </trkpt>
      <trkpt lat="36.993009969592094" lon="-3.264968963339925">
        <ele>1428.1800000000001</ele>
        <time>2025-05-12T08:26:04Z</time>
      </trkpt>
      <trkpt lat="36.992923971265554" lon="-3.264976004138589">
        <ele>1428.6600000000001</ele>
        <time>2025-05-12T08:26:05Z</time>
      </trkpt>
      <trkpt lat="36.992730014026165" lon="-3.264992013573647">
        <ele>1430.0999999999999</ele>
        <time>2025-05-12T08:26:07Z</time>
      </trkpt>
      <trkpt lat="36.992640998214483" lon="-3.264998970553279">
        <ele>1430.0999999999999</ele>
        <time>2025-05-12T08:26:08Z</time>
      </trkpt>
      <trkpt lat="36.992522981017828" lon="-3.265062002465129">
        <ele>1431.0599999999999</ele>
        <time>2025-05-12T08:26:09Z</time>
      </trkpt>
      <trkpt lat="36.992414016276598" lon="-3.265121011063457">
        <ele>1431.54</ele>
        <time>2025-05-12T08:26:10Z</time>
      </trkpt>
      <trkpt lat="36.992299016565084" lon="-3.265182031318545">
        <ele>1432.5</ele>
        <time>2025-05-12T08:26:11Z</time>
      </trkpt>
      <trkpt lat="36.991788977757096" lon="-3.265396021306515">
        <ele>1436.8299999999999</ele>
        <time>2025-05-12T08:26:15Z</time>
      </trkpt>
      <trkpt lat="36.99164598248899" lon="-3.265432985499501">
        <ele>1437.79</ele>
        <time>2025-05-12T08:26:16Z</time>
      </trkpt>
      <trkpt lat="36.991382036358118" lon="-3.265500962734222">
        <ele>1439.23</ele>
        <time>2025-05-12T08:26:18Z</time>
      </trkpt>
      <trkpt lat="36.991245998069644" lon="-3.265535999089479">
        <ele>1439.71</ele>
        <time>2025-05-12T08:26:19Z</time>
      </trkpt>
      <trkpt lat="36.991132004186511" lon="-3.265617974102497">
        <ele>1440.1900000000001</ele>
        <time>2025-05-12T08:26:20Z</time>
      </trkpt>
      <trkpt lat="36.99091600254178" lon="-3.2657749671489">
        <ele>1440.1900000000001</ele>
        <time>2025-05-12T08:26:22Z</time>
      </trkpt>
      <trkpt lat="36.990801002830267" lon="-3.265827018767595">
        <ele>1440.1900000000001</ele>
        <time>2025-05-12T08:26:23Z</time>
      </trkpt>
      <trkpt lat="36.990160960704088" lon="-3.265909999608994">
        <ele>1440.1900000000001</ele>
        <time>2025-05-12T08:26:27Z</time>
      </trkpt>
      <trkpt lat="36.989829037338495" lon="-3.265919974073768">
        <ele>1439.23</ele>
        <time>2025-05-12T08:26:29Z</time>
      </trkpt>
      <trkpt lat="36.989662991836667" lon="-3.265950987115502">
        <ele>1438.75</ele>
        <time>2025-05-12T08:26:30Z</time>
      </trkpt>
      <trkpt lat="36.989190001040697" lon="-3.266069004312158">
        <ele>1435.8699999999999</ele>
        <time>2025-05-12T08:26:33Z</time>
      </trkpt>
      <trkpt lat="36.989032002165914" lon="-3.266055006533861">
        <ele>1434.4200000000001</ele>
        <time>2025-05-12T08:26:34Z</time>
      </trkpt>
      <trkpt lat="36.988696977496147" lon="-3.266041008755565">
        <ele>1432.5</ele>
        <time>2025-05-12T08:26:36Z</time>
      </trkpt>
      <trkpt lat="36.98855197057128" lon="-3.266070010140538">
        <ele>1431.0599999999999</ele>
        <time>2025-05-12T08:26:37Z</time>
      </trkpt>
      <trkpt lat="36.988421967253089" lon="-3.266171012073755">
        <ele>1429.6199999999999</ele>
        <time>2025-05-12T08:26:38Z</time>
      </trkpt>
      <trkpt lat="36.988000022247434" lon="-3.266518022865057">
        <ele>1425.77</ele>
        <time>2025-05-12T08:26:41Z</time>
      </trkpt>
      <trkpt lat="36.987859960645437" lon="-3.266593040898442">
        <ele>1424.8099999999999</ele>
        <time>2025-05-12T08:26:42Z</time>
      </trkpt>
      <trkpt lat="36.987700033932924" lon="-3.266646014526486">
        <ele>1423.8499999999999</ele>
        <time>2025-05-12T08:26:43Z</time>
      </trkpt>
      <trkpt lat="36.986719015985727" lon="-3.267081035301089">
        <ele>1415.6800000000001</ele>
        <time>2025-05-12T08:26:49Z</time>
      </trkpt>
      <trkpt lat="36.986551964655519" lon="-3.267064020037651">
        <ele>1414.24</ele>
        <time>2025-05-12T08:26:50Z</time>
      </trkpt>
      <trkpt lat="36.986411986872554" lon="-3.267050022259355">
        <ele>1412.79</ele>
        <time>2025-05-12T08:26:51Z</time>
      </trkpt>
      <trkpt lat="36.986289024353027" lon="-3.267038036137819">
        <ele>1411.8299999999999</ele>
        <time>2025-05-12T08:26:52Z</time>
      </trkpt>
      <trkpt lat="36.98620998300612" lon="-3.266957988962531">
        <ele>1410.3900000000001</ele>
        <time>2025-05-12T08:26:53Z</time>
      </trkpt>
      <trkpt lat="36.986136976629496" lon="-3.266882970929146">
        <ele>1408.95</ele>
        <time>2025-05-12T08:26:54Z</time>
      </trkpt>
      <trkpt lat="36.986087020486593" lon="-3.266743998974562">
        <ele>1407.99</ele>
        <time>2025-05-12T08:26:55Z</time>
      </trkpt>
      <trkpt lat="36.986029017716646" lon="-3.266583988443017">
        <ele>1406.55</ele>
        <time>2025-05-12T08:26:56Z</time>
      </trkpt>
      <trkpt lat="36.985965985804796" lon="-3.266410985961556">
        <ele>1405.0999999999999</ele>
        <time>2025-05-12T08:26:57Z</time>
      </trkpt>
      <trkpt lat="36.985903959721327" lon="-3.266239995136857">
        <ele>1404.1400000000001</ele>
        <time>2025-05-12T08:26:58Z</time>
      </trkpt>
      <trkpt lat="36.985806981101632" lon="-3.266118038445711">
        <ele>1402.7</ele>
        <time>2025-05-12T08:26:59Z</time>
      </trkpt>
      <trkpt lat="36.985696004703641" lon="-3.266028016805649">
        <ele>1401.74</ele>
        <time>2025-05-12T08:27:00Z</time>
      </trkpt>
      <trkpt lat="36.985579999163747" lon="-3.265986023470759">
        <ele>1400.78</ele>
        <time>2025-05-12T08:27:01Z</time>
      </trkpt>
      <trkpt lat="36.985471034422517" lon="-3.265986023470759">
        <ele>1399.8199999999999</ele>
        <time>2025-05-12T08:27:02Z</time>
      </trkpt>
      <trkpt lat="36.985390987247229" lon="-3.26600999571383">
        <ele>1399.3399999999999</ele>
        <time>2025-05-12T08:27:03Z</time>
      </trkpt>
      <trkpt lat="36.985318986698985" lon="-3.266103034839034">
        <ele>1399.3399999999999</ele>
        <time>2025-05-12T08:27:04Z</time>
      </trkpt>
      <trkpt lat="36.985246986150742" lon="-3.266218034550548">
        <ele>1399.3399999999999</ele>
        <time>2025-05-12T08:27:05Z</time>
      </trkpt>
      <trkpt lat="36.9851990416646" lon="-3.26637402176857">
        <ele>1399.3399999999999</ele>
        <time>2025-05-12T08:27:06Z</time>
      </trkpt>
      <trkpt lat="36.984809031710029" lon="-3.267359985038638">
        <ele>1403.6600000000001</ele>
        <time>2025-05-12T08:27:12Z</time>
      </trkpt>
      <trkpt lat="36.984775001183152" lon="-3.267539022490382">
        <ele>1404.1400000000001</ele>
        <time>2025-05-12T08:27:13Z</time>
      </trkpt>
      <trkpt lat="36.984738958999515" lon="-3.267731973901391">
        <ele>1405.0999999999999</ele>
        <time>2025-05-12T08:27:14Z</time>
      </trkpt>
      <trkpt lat="36.984638040885329" lon="-3.268274031579495">
        <ele>1408.95</ele>
        <time>2025-05-12T08:27:17Z</time>
      </trkpt>
      <trkpt lat="36.984601998701692" lon="-3.268406968563795">
        <ele>1410.3900000000001</ele>
        <time>2025-05-12T08:27:18Z</time>
      </trkpt>
      <trkpt lat="36.984542990103364" lon="-3.2684809807688">
        <ele>1411.8299999999999</ele>
        <time>2025-05-12T08:27:19Z</time>
      </trkpt>
      <trkpt lat="36.984442993998528" lon="-3.268521968275309">
        <ele>1412.79</ele>
        <time>2025-05-12T08:27:20Z</time>
      </trkpt>
      <trkpt lat="36.984323970973492" lon="-3.268516017124057">
        <ele>1414.24</ele>
        <time>2025-05-12T08:27:21Z</time>
      </trkpt>
      <trkpt lat="36.984210982918739" lon="-3.26845801435411">
        <ele>1415.2</ele>
        <time>2025-05-12T08:27:22Z</time>
      </trkpt>
      <trkpt lat="36.984105035662651" lon="-3.268350977450609">
        <ele>1416.6400000000001</ele>
        <time>2025-05-12T08:27:23Z</time>
      </trkpt>
      <trkpt lat="36.983980983495712" lon="-3.268228014931083">
        <ele>1417.5999999999999</ele>
        <time>2025-05-12T08:27:24Z</time>
      </trkpt>
      <trkpt lat="36.983839999884367" lon="-3.268121983855963">
        <ele>1418.5599999999999</ele>
        <time>2025-05-12T08:27:25Z</time>
      </trkpt>
      <trkpt lat="36.983692981302738" lon="-3.268044032156467">
        <ele>1419.04</ele>
        <time>2025-05-12T08:27:26Z</time>
      </trkpt>
      <trkpt lat="36.983529031276703" lon="-3.268026011064649">
        <ele>1420</ele>
        <time>2025-05-12T08:27:27Z</time>
      </trkpt>
      <trkpt lat="36.983387041836977" lon="-3.268046965822578">
        <ele>1420.97</ele>
        <time>2025-05-12T08:27:28Z</time>
      </trkpt>
      <trkpt lat="36.983256032690406" lon="-3.268069010227919">
        <ele>1421.45</ele>
        <time>2025-05-12T08:27:29Z</time>
      </trkpt>
      <trkpt lat="36.983134998008609" lon="-3.268088959157467">
        <ele>1422.4100000000001</ele>
        <time>2025-05-12T08:27:30Z</time>
      </trkpt>
      <trkpt lat="36.983007006347179" lon="-3.2680509891361">
        <ele>1423.8499999999999</ele>
        <time>2025-05-12T08:27:31Z</time>
      </trkpt>
      <trkpt lat="36.982886977493763" lon="-3.267996003851295">
        <ele>1424.8099999999999</ele>
        <time>2025-05-12T08:27:32Z</time>
      </trkpt>
      <trkpt lat="36.982782036066055" lon="-3.267906988039613">
        <ele>1425.77</ele>
        <time>2025-05-12T08:27:33Z</time>
      </trkpt>
      <trkpt lat="36.982696959748864" lon="-3.26777396723628">
        <ele>1426.73</ele>
        <time>2025-05-12T08:27:34Z</time>
      </trkpt>
      <trkpt lat="36.982611967250705" lon="-3.267632983624935">
        <ele>1427.7</ele>
        <time>2025-05-12T08:27:35Z</time>
      </trkpt>
      <trkpt lat="36.982534015551209" lon="-3.267501974478364">
        <ele>1428.6600000000001</ele>
        <time>2025-05-12T08:27:36Z</time>
      </trkpt>
      <trkpt lat="36.982446005567908" lon="-3.267423016950488">
        <ele>1429.6199999999999</ele>
        <time>2025-05-12T08:27:37Z</time>
      </trkpt>
      <trkpt lat="36.982354978099465" lon="-3.267384963110089">
        <ele>1431.0599999999999</ele>
        <time>2025-05-12T08:27:38Z</time>
      </trkpt>
      <trkpt lat="36.982246013358235" lon="-3.267398038879037">
        <ele>1432.02</ele>
        <time>2025-05-12T08:27:39Z</time>
      </trkpt>
      <trkpt lat="36.982124978676438" lon="-3.267441960051656">
        <ele>1432.98</ele>
        <time>2025-05-12T08:27:40Z</time>
      </trkpt>
      <trkpt lat="36.981995981186628" lon="-3.267499040812254">
        <ele>1434.4200000000001</ele>
        <time>2025-05-12T08:27:41Z</time>
      </trkpt>
      <trkpt lat="36.981871007010341" lon="-3.267554026097059">
        <ele>1435.3900000000001</ele>
        <time>2025-05-12T08:27:42Z</time>
      </trkpt>
      <trkpt lat="36.981745027005672" lon="-3.267564000561833">
        <ele>1436.3499999999999</ele>
        <time>2025-05-12T08:27:43Z</time>
      </trkpt>
      <trkpt lat="36.981618963181973" lon="-3.267527036368847">
        <ele>1437.79</ele>
        <time>2025-05-12T08:27:44Z</time>
      </trkpt>
      <trkpt lat="36.981513015925884" lon="-3.267445983365178">
        <ele>1438.75</ele>
        <time>2025-05-12T08:27:45Z</time>
      </trkpt>
      <trkpt lat="36.981415031477809" lon="-3.267373982816935">
        <ele>1439.71</ele>
        <time>2025-05-12T08:27:46Z</time>
      </trkpt>
      <trkpt lat="36.981315035372972" lon="-3.267375994473696">
        <ele>1440.6700000000001</ele>
        <time>2025-05-12T08:27:47Z</time>
      </trkpt>
      <trkpt lat="36.981183020398021" lon="-3.267402984201908">
        <ele>1441.6300000000001</ele>
        <time>2025-05-12T08:27:48Z</time>
      </trkpt>
      <trkpt lat="36.981114037334919" lon="-3.267497029155493">
        <ele>1442.5999999999999</ele>
        <time>2025-05-12T08:27:49Z</time>
      </trkpt>
      <trkpt lat="36.981015969067812" lon="-3.267630971968174">
        <ele>1443.5599999999999</ele>
        <time>2025-05-12T08:27:50Z</time>
      </trkpt>
      <trkpt lat="36.980913961306214" lon="-3.26777002774179">
        <ele>1444.04</ele>
        <time>2025-05-12T08:27:51Z</time>
      </trkpt>
      <trkpt lat="36.980812037363648" lon="-3.267910005524755">
        <ele>1445.48</ele>
        <time>2025-05-12T08:27:52Z</time>
      </trkpt>
      <trkpt lat="36.980712963268161" lon="-3.268045959994197">
        <ele>1446.9200000000001</ele>
        <time>2025-05-12T08:27:53Z</time>
      </trkpt>
      <trkpt lat="36.98060299269855" lon="-3.268197001889348">
        <ele>1447.8800000000001</ele>
        <time>2025-05-12T08:27:54Z</time>
      </trkpt>
      <trkpt lat="36.980475001037121" lon="-3.268267996609211">
        <ele>1449.3199999999999</ele>
        <time>2025-05-12T08:27:55Z</time>
      </trkpt>
      <trkpt lat="36.98032203130424" lon="-3.26835198327899">
        <ele>1450.29</ele>
        <time>2025-05-12T08:27:56Z</time>
      </trkpt>
      <trkpt lat="36.979675032198429" lon="-3.268710980191827">
        <ele>1456.05</ele>
        <time>2025-05-12T08:28:00Z</time>
      </trkpt>
      <trkpt lat="36.979403039440513" lon="-3.268861016258597">
        <ele>1459.4200000000001</ele>
        <time>2025-05-12T08:28:02Z</time>
      </trkpt>
      <trkpt lat="36.979272030293941" lon="-3.268898986279964">
        <ele>1460.8599999999999</ele>
        <time>2025-05-12T08:28:03Z</time>
      </trkpt>
      <trkpt lat="36.979138003662229" lon="-3.268871996551752">
        <ele>1462.78</ele>
        <time>2025-05-12T08:28:04Z</time>
      </trkpt>
      <trkpt lat="36.9789909850806" lon="-3.268831009045243">
        <ele>1464.23</ele>
        <time>2025-05-12T08:28:05Z</time>
      </trkpt>
      <trkpt lat="36.978841032832861" lon="-3.268788009881973">
        <ele>1466.1500000000001</ele>
        <time>2025-05-12T08:28:06Z</time>
      </trkpt>
      <trkpt lat="36.97868999093771" lon="-3.268788009881973">
        <ele>1467.1099999999999</ele>
        <time>2025-05-12T08:28:07Z</time>
      </trkpt>
      <trkpt lat="36.978546995669603" lon="-3.268818017095327">
        <ele>1467.5899999999999</ele>
        <time>2025-05-12T08:28:08Z</time>
      </trkpt>
      <trkpt lat="36.97841196320951" lon="-3.268863027915359">
        <ele>1468.0699999999999</ele>
        <time>2025-05-12T08:28:09Z</time>
      </trkpt>
      <trkpt lat="36.978285983204842" lon="-3.268905021250248">
        <ele>1468.55</ele>
        <time>2025-05-12T08:28:10Z</time>
      </trkpt>
      <trkpt lat="36.978167966008186" lon="-3.268890017643571">
        <ele>1468.55</ele>
        <time>2025-05-12T08:28:11Z</time>
      </trkpt>
      <trkpt lat="36.978056989610195" lon="-3.268841989338398">
        <ele>1469.03</ele>
        <time>2025-05-12T08:28:12Z</time>
      </trkpt>
      <trkpt lat="36.977927992120385" lon="-3.268746016547084">
        <ele>1469.03</ele>
        <time>2025-05-12T08:28:13Z</time>
      </trkpt>
      <trkpt lat="36.977786002680659" lon="-3.268641997128725">
        <ele>1469.03</ele>
        <time>2025-05-12T08:28:14Z</time>
      </trkpt>
      <trkpt lat="36.977476961910725" lon="-3.26841501519084">
        <ele>1469.03</ele>
        <time>2025-05-12T08:28:16Z</time>
      </trkpt>
      <trkpt lat="36.977305971086025" lon="-3.268318036571145">
        <ele>1469.51</ele>
        <time>2025-05-12T08:28:17Z</time>
      </trkpt>
      <trkpt lat="36.977118970826268" lon="-3.268259027972817">
        <ele>1469.51</ele>
        <time>2025-05-12T08:28:18Z</time>
      </trkpt>
      <trkpt lat="36.976924007758498" lon="-3.268247041851282">
        <ele>1469.51</ele>
        <time>2025-05-12T08:28:19Z</time>
      </trkpt>
      <trkpt lat="36.976723009720445" lon="-3.268231032416225">
        <ele>1469.51</ele>
        <time>2025-05-12T08:28:20Z</time>
      </trkpt>
      <trkpt lat="36.97523002512753" lon="-3.268102034926415">
        <ele>1466.1500000000001</ele>
        <time>2025-05-12T08:28:27Z</time>
      </trkpt>
      <trkpt lat="36.974818976595998" lon="-3.268127012997866">
        <ele>1464.71</ele>
        <time>2025-05-12T08:28:29Z</time>
      </trkpt>
      <trkpt lat="36.974269961938262" lon="-3.268298003822565">
        <ele>1462.3</ele>
        <time>2025-05-12T08:28:32Z</time>
      </trkpt>
      <trkpt lat="36.973976008594036" lon="-3.268424989655614">
        <ele>1461.3399999999999</ele>
        <time>2025-05-12T08:28:34Z</time>
      </trkpt>
      <trkpt lat="36.973856985569" lon="-3.268449967727065">
        <ele>1461.3399999999999</ele>
        <time>2025-05-12T08:28:35Z</time>
      </trkpt>
      <trkpt lat="36.973722036927938" lon="-3.268439993262291">
        <ele>1460.8599999999999</ele>
        <time>2025-05-12T08:28:36Z</time>
      </trkpt>
      <trkpt lat="36.973593039438128" lon="-3.268409986048937">
        <ele>1460.8599999999999</ele>
        <time>2025-05-12T08:28:37Z</time>
      </trkpt>
      <trkpt lat="36.97344702668488" lon="-3.268318958580494">
        <ele>1460.3800000000001</ele>
        <time>2025-05-12T08:28:38Z</time>
      </trkpt>
      <trkpt lat="36.973287016153336" lon="-3.268218962475658">
        <ele>1460.3800000000001</ele>
        <time>2025-05-12T08:28:39Z</time>
      </trkpt>
      <trkpt lat="36.972457962110639" lon="-3.26762200333178">
        <ele>1458.9400000000001</ele>
        <time>2025-05-12T08:28:44Z</time>
      </trkpt>
      <trkpt lat="36.972336005419493" lon="-3.267455035820603">
        <ele>1458.46</ele>
        <time>2025-05-12T08:28:45Z</time>
      </trkpt>
      <trkpt lat="36.972208013758063" lon="-3.267279015854001">
        <ele>1457.5</ele>
        <time>2025-05-12T08:28:46Z</time>
      </trkpt>
      <trkpt lat="36.971953958272934" lon="-3.266929993405938">
        <ele>1456.53</ele>
        <time>2025-05-12T08:28:48Z</time>
      </trkpt>
      <trkpt lat="36.971824960783124" lon="-3.266808036714792">
        <ele>1456.05</ele>
        <time>2025-05-12T08:28:49Z</time>
      </trkpt>
      <trkpt lat="36.971705015748739" lon="-3.26674098148942">
        <ele>1455.0899999999999</ele>
        <time>2025-05-12T08:28:50Z</time>
      </trkpt>
      <trkpt lat="36.971580041572452" lon="-3.266761014238">
        <ele>1454.6099999999999</ele>
        <time>2025-05-12T08:28:51Z</time>
      </trkpt>
      <trkpt lat="36.97144903242588" lon="-3.266798984259367">
        <ele>1453.6500000000001</ele>
        <time>2025-05-12T08:28:52Z</time>
      </trkpt>
      <trkpt lat="36.971304025501013" lon="-3.266875008121133">
        <ele>1453.1700000000001</ele>
        <time>2025-05-12T08:28:53Z</time>
      </trkpt>
      <trkpt lat="36.971148960292339" lon="-3.266956983134151">
        <ele>1452.21</ele>
        <time>2025-05-12T08:28:54Z</time>
      </trkpt>
      <trkpt lat="36.970570022240281" lon="-3.267223024740815">
        <ele>1449.3199999999999</ele>
        <time>2025-05-12T08:28:58Z</time>
      </trkpt>
      <trkpt lat="36.970442030578852" lon="-3.267250014469028">
        <ele>1448.3599999999999</ele>
        <time>2025-05-12T08:28:59Z</time>
      </trkpt>
      <trkpt lat="36.970320995897055" lon="-3.267227970063686">
        <ele>1447.4000000000001</ele>
        <time>2025-05-12T08:29:00Z</time>
      </trkpt>
      <trkpt lat="36.970217982307076" lon="-3.267210032790899">
        <ele>1445.96</ele>
        <time>2025-05-12T08:29:01Z</time>
      </trkpt>
      <trkpt lat="36.970098037272692" lon="-3.267096038907766">
        <ele>1444.52</ele>
        <time>2025-05-12T08:29:02Z</time>
      </trkpt>
      <trkpt lat="36.969972979277372" lon="-3.266978021711111">
        <ele>1443.5599999999999</ele>
        <time>2025-05-12T08:29:03Z</time>
      </trkpt>
      <trkpt lat="36.969839036464691" lon="-3.266851035878062">
        <ele>1442.1099999999999</ele>
        <time>2025-05-12T08:29:04Z</time>
      </trkpt>
      <trkpt lat="36.969683971256018" lon="-3.266760008409619">
        <ele>1441.1500000000001</ele>
        <time>2025-05-12T08:29:05Z</time>
      </trkpt>
      <trkpt lat="36.969527984037995" lon="-3.266736958175898">
        <ele>1439.71</ele>
        <time>2025-05-12T08:29:06Z</time>
      </trkpt>
      <trkpt lat="36.969375014305115" lon="-3.266749028116465">
        <ele>1438.27</ele>
        <time>2025-05-12T08:29:07Z</time>
      </trkpt>
      <trkpt lat="36.969212992116809" lon="-3.266789009794593">
        <ele>1437.3099999999999</ele>
        <time>2025-05-12T08:29:08Z</time>
      </trkpt>
      <trkpt lat="36.969049964100122" lon="-3.266827985644341">
        <ele>1435.8699999999999</ele>
        <time>2025-05-12T08:29:09Z</time>
      </trkpt>
      <trkpt lat="36.96861200965941" lon="-3.266901997849345">
        <ele>1433.46</ele>
        <time>2025-05-12T08:29:12Z</time>
      </trkpt>
      <trkpt lat="36.968465996906161" lon="-3.266893029212952">
        <ele>1432.98</ele>
        <time>2025-05-12T08:29:13Z</time>
      </trkpt>
      <trkpt lat="36.968127032741904" lon="-3.266793033108115">
        <ele>1432.5</ele>
        <time>2025-05-12T08:29:15Z</time>
      </trkpt>
      <trkpt lat="36.967939026653767" lon="-3.266774006187916">
        <ele>1432.02</ele>
        <time>2025-05-12T08:29:16Z</time>
      </trkpt>
      <trkpt lat="36.967556979507208" lon="-3.266759002581239">
        <ele>1431.54</ele>
        <time>2025-05-12T08:29:18Z</time>
      </trkpt>
      <trkpt lat="36.967338966205716" lon="-3.266820022836328">
        <ele>1431.54</ele>
        <time>2025-05-12T08:29:19Z</time>
      </trkpt>
      <trkpt lat="36.966727003455162" lon="-3.266971986740828">
        <ele>1432.98</ele>
        <time>2025-05-12T08:29:22Z</time>
      </trkpt>
      <trkpt lat="36.966535979881883" lon="-3.266999982297421">
        <ele>1432.98</ele>
        <time>2025-05-12T08:29:23Z</time>
      </trkpt>
      <trkpt lat="36.966354008764029" lon="-3.267002999782562">
        <ele>1433.46</ele>
        <time>2025-05-12T08:29:24Z</time>
      </trkpt>
      <trkpt lat="36.966189974918962" lon="-3.266967963427305">
        <ele>1433.46</ele>
        <time>2025-05-12T08:29:25Z</time>
      </trkpt>
      <trkpt lat="36.966029964387417" lon="-3.266934016719461">
        <ele>1433.9400000000001</ele>
        <time>2025-05-12T08:29:26Z</time>
      </trkpt>
      <trkpt lat="36.965879006311297" lon="-3.266901997849345">
        <ele>1433.9400000000001</ele>
        <time>2025-05-12T08:29:27Z</time>
      </trkpt>
      <trkpt lat="36.965740034356713" lon="-3.266871990635991">
        <ele>1433.9400000000001</ele>
        <time>2025-05-12T08:29:28Z</time>
      </trkpt>
      <trkpt lat="36.96562604047358" lon="-3.266905015334487">
        <ele>1433.9400000000001</ele>
        <time>2025-05-12T08:29:29Z</time>
      </trkpt>
      <trkpt lat="36.965502994135022" lon="-3.266962012276053">
        <ele>1434.4200000000001</ele>
        <time>2025-05-12T08:29:30Z</time>
      </trkpt>
      <trkpt lat="36.965372990816832" lon="-3.267021020874381">
        <ele>1434.4200000000001</ele>
        <time>2025-05-12T08:29:31Z</time>
      </trkpt>
      <trkpt lat="36.965237036347389" lon="-3.267082963138819">
        <ele>1434.9100000000001</ele>
        <time>2025-05-12T08:29:32Z</time>
      </trkpt>
      <trkpt lat="36.965094041079283" lon="-3.26714800670743">
        <ele>1435.8699999999999</ele>
        <time>2025-05-12T08:29:33Z</time>
      </trkpt>
      <trkpt lat="36.964937970042229" lon="-3.267210032790899">
        <ele>1436.3499999999999</ele>
        <time>2025-05-12T08:29:34Z</time>
      </trkpt>
      <trkpt lat="36.964765973389149" lon="-3.267210032790899">
        <ele>1437.3099999999999</ele>
        <time>2025-05-12T08:29:35Z</time>
      </trkpt>
      <trkpt lat="36.964590037241578" lon="-3.267210032790899">
        <ele>1437.79</ele>
        <time>2025-05-12T08:29:36Z</time>
      </trkpt>
      <trkpt lat="36.964268004521728" lon="-3.267179019749165">
        <ele>1438.27</ele>
        <time>2025-05-12T08:29:38Z</time>
      </trkpt>
      <trkpt lat="36.964134983718395" lon="-3.267136020585895">
        <ele>1438.27</ele>
        <time>2025-05-12T08:29:39Z</time>
      </trkpt>
      <trkpt lat="36.964012021198869" lon="-3.267024038359523">
        <ele>1438.27</ele>
        <time>2025-05-12T08:29:40Z</time>
      </trkpt>
      <trkpt lat="36.963734999299049" lon="-3.266770988702774">
        <ele>1437.79</ele>
        <time>2025-05-12T08:29:42Z</time>
      </trkpt>
      <trkpt lat="36.963572977110744" lon="-3.266679961234331">
        <ele>1437.79</ele>
        <time>2025-05-12T08:29:43Z</time>
      </trkpt>
      <trkpt lat="36.962591959163547" lon="-3.266498995944858">
        <ele>1434.9100000000001</ele>
        <time>2025-05-12T08:29:48Z</time>
      </trkpt>
      <trkpt lat="36.962419962510467" lon="-3.266445016488433">
        <ele>1433.9400000000001</ele>
        <time>2025-05-12T08:29:49Z</time>
      </trkpt>
      <trkpt lat="36.962256012484431" lon="-3.266365975141525">
        <ele>1432.98</ele>
        <time>2025-05-12T08:29:50Z</time>
      </trkpt>
      <trkpt lat="36.962099019438028" lon="-3.266290035098791">
        <ele>1432.5</ele>
        <time>2025-05-12T08:29:51Z</time>
      </trkpt>
      <trkpt lat="36.96195300668478" lon="-3.266219962388277">
        <ele>1432.02</ele>
        <time>2025-05-12T08:29:52Z</time>
      </trkpt>
      <trkpt lat="36.961807999759912" lon="-3.266214011237025">
        <ele>1431.0599999999999</ele>
        <time>2025-05-12T08:29:53Z</time>
      </trkpt>
      <trkpt lat="36.961658969521523" lon="-3.266256004571915">
        <ele>1430.0999999999999</ele>
        <time>2025-05-12T08:29:54Z</time>
      </trkpt>
      <trkpt lat="36.961499964818358" lon="-3.266319036483765">
        <ele>1429.6199999999999</ele>
        <time>2025-05-12T08:29:55Z</time>
      </trkpt>
      <trkpt lat="36.96133098565042" lon="-3.266387013718486">
        <ele>1428.6600000000001</ele>
        <time>2025-05-12T08:29:56Z</time>
      </trkpt>
      <trkpt lat="36.961142979562283" lon="-3.266418026760221">
        <ele>1427.7</ele>
        <time>2025-05-12T08:29:57Z</time>
      </trkpt>
      <trkpt lat="36.96077099069953" lon="-3.266472006216645">
        <ele>1425.77</ele>
        <time>2025-05-12T08:29:59Z</time>
      </trkpt>
      <trkpt lat="36.96062003262341" lon="-3.266437975689769">
        <ele>1424.8099999999999</ele>
        <time>2025-05-12T08:30:00Z</time>
      </trkpt>
      <trkpt lat="36.960483994334936" lon="-3.266377039253712">
        <ele>1423.8499999999999</ele>
        <time>2025-05-12T08:30:01Z</time>
      </trkpt>
      <trkpt lat="36.96036203764379" lon="-3.266281988471746">
        <ele>1422.8900000000001</ele>
        <time>2025-05-12T08:30:02Z</time>
      </trkpt>
      <trkpt lat="36.960217030718923" lon="-3.266167994588614">
        <ele>1421.45</ele>
        <time>2025-05-12T08:30:03Z</time>
      </trkpt>
      <trkpt lat="36.959894997999072" lon="-3.265912011265755">
        <ele>1420</ele>
        <time>2025-05-12T08:30:05Z</time>
      </trkpt>
      <trkpt lat="36.959733981639147" lon="-3.265826012939215">
        <ele>1419.52</ele>
        <time>2025-05-12T08:30:06Z</time>
      </trkpt>
      <trkpt lat="36.959587968885899" lon="-3.265801034867764">
        <ele>1419.04</ele>
        <time>2025-05-12T08:30:07Z</time>
      </trkpt>
      <trkpt lat="36.959448996931314" lon="-3.265822995454073">
        <ele>1418.5599999999999</ele>
        <time>2025-05-12T08:30:08Z</time>
      </trkpt>
      <trkpt lat="36.959301978349686" lon="-3.265889966860414">
        <ele>1418.0799999999999</ele>
        <time>2025-05-12T08:30:09Z</time>
      </trkpt>
      <trkpt lat="36.959151020273566" lon="-3.265959033742547">
        <ele>1417.5999999999999</ele>
        <time>2025-05-12T08:30:10Z</time>
      </trkpt>
      <trkpt lat="36.95900802500546" lon="-3.266023993492127">
        <ele>1417.1199999999999</ele>
        <time>2025-05-12T08:30:11Z</time>
      </trkpt>
      <trkpt lat="36.958870980888605" lon="-3.266071015968919">
        <ele>1416.1600000000001</ele>
        <time>2025-05-12T08:30:12Z</time>
      </trkpt>
      <trkpt lat="36.958723962306976" lon="-3.266093982383609">
        <ele>1415.6800000000001</ele>
        <time>2025-05-12T08:30:13Z</time>
      </trkpt>
      <trkpt lat="36.958394972607493" lon="-3.266093982383609">
        <ele>1414.72</ele>
        <time>2025-05-12T08:30:15Z</time>
      </trkpt>
      <trkpt lat="36.958221970126033" lon="-3.266110997647047">
        <ele>1414.24</ele>
        <time>2025-05-12T08:30:16Z</time>
      </trkpt>
      <trkpt lat="36.957205999642611" lon="-3.266314007341862">
        <ele>1413.28</ele>
        <time>2025-05-12T08:30:22Z</time>
      </trkpt>
      <trkpt lat="36.957067027688026" lon="-3.266304032877088">
        <ele>1413.28</ele>
        <time>2025-05-12T08:30:23Z</time>
      </trkpt>
      <trkpt lat="36.95692696608603" lon="-3.26624502427876">
        <ele>1413.28</ele>
        <time>2025-05-12T08:30:24Z</time>
      </trkpt>
      <trkpt lat="36.956598982214928" lon="-3.266105968505144">
        <ele>1412.3099999999999</ele>
        <time>2025-05-12T08:30:26Z</time>
      </trkpt>
      <trkpt lat="36.956420028582215" lon="-3.266029022634029">
        <ele>1411.3499999999999</ele>
        <time>2025-05-12T08:30:27Z</time>
      </trkpt>
      <trkpt lat="36.956235039979219" lon="-3.266029022634029">
        <ele>1410.3900000000001</ele>
        <time>2025-05-12T08:30:28Z</time>
      </trkpt>
      <trkpt lat="36.955633973702788" lon="-3.266046037897468">
        <ele>1407.03</ele>
        <time>2025-05-12T08:30:31Z</time>
      </trkpt>
      <trkpt lat="36.955460971221328" lon="-3.266094988211989">
        <ele>1405.5799999999999</ele>
        <time>2025-05-12T08:30:32Z</time>
      </trkpt>
      <trkpt lat="36.955297021195292" lon="-3.266176041215658">
        <ele>1404.6199999999999</ele>
        <time>2025-05-12T08:30:33Z</time>
      </trkpt>
      <trkpt lat="36.955139022320509" lon="-3.266278970986605">
        <ele>1403.6600000000001</ele>
        <time>2025-05-12T08:30:34Z</time>
      </trkpt>
      <trkpt lat="36.954984040930867" lon="-3.266378967091441">
        <ele>1402.22</ele>
        <time>2025-05-12T08:30:35Z</time>
      </trkpt>
      <trkpt lat="36.954811038449407" lon="-3.266422972083092">
        <ele>1401.74</ele>
        <time>2025-05-12T08:30:36Z</time>
      </trkpt>
      <trkpt lat="36.954624960198998" lon="-3.266458008438349">
        <ele>1400.3</ele>
        <time>2025-05-12T08:30:37Z</time>
      </trkpt>
      <trkpt lat="36.954428991302848" lon="-3.266486003994942">
        <ele>1399.8199999999999</ele>
        <time>2025-05-12T08:30:38Z</time>
      </trkpt>
      <trkpt lat="36.954037975519896" lon="-3.266543000936508">
        <ele>1398.8599999999999</ele>
        <time>2025-05-12T08:30:40Z</time>
      </trkpt>
      <trkpt lat="36.953857010230422" lon="-3.266580970957875">
        <ele>1398.3699999999999</ele>
        <time>2025-05-12T08:30:41Z</time>
      </trkpt>
      <trkpt lat="36.953537994995713" lon="-3.266649032011628">
        <ele>1397.4100000000001</ele>
        <time>2025-05-12T08:30:43Z</time>
      </trkpt>
      <trkpt lat="36.953412014991045" lon="-3.266618018969894">
        <ele>1396.9300000000001</ele>
        <time>2025-05-12T08:30:44Z</time>
      </trkpt>
      <trkpt lat="36.953300032764673" lon="-3.266574013978243">
        <ele>1396.45</ele>
        <time>2025-05-12T08:30:45Z</time>
      </trkpt>
      <trkpt lat="36.953229960054159" lon="-3.266463959589601">
        <ele>1395.97</ele>
        <time>2025-05-12T08:30:46Z</time>
      </trkpt>
      <trkpt lat="36.953158965334296" lon="-3.266346026211977">
        <ele>1395.01</ele>
        <time>2025-05-12T08:30:47Z</time>
      </trkpt>
      <trkpt lat="36.953158965334296" lon="-3.266204036772251">
        <ele>1394.53</ele>
        <time>2025-05-12T08:30:48Z</time>
      </trkpt>
      <trkpt lat="36.953158965334296" lon="-3.266056012362242">
        <ele>1394.53</ele>
        <time>2025-05-12T08:30:49Z</time>
      </trkpt>
      <trkpt lat="36.953134993091226" lon="-3.265761975198984">
        <ele>1394.05</ele>
        <time>2025-05-12T08:30:51Z</time>
      </trkpt>
      <trkpt lat="36.953103980049491" lon="-3.265640018507838">
        <ele>1393.5699999999999</ele>
        <time>2025-05-12T08:30:52Z</time>
      </trkpt>
      <trkpt lat="36.953053018078208" lon="-3.265538010746241">
        <ele>1393.5699999999999</ele>
        <time>2025-05-12T08:30:53Z</time>
      </trkpt>
      <trkpt lat="36.952961990609765" lon="-3.265505991876125">
        <ele>1393.0899999999999</ele>
        <time>2025-05-12T08:30:54Z</time>
      </trkpt>
      <trkpt lat="36.952861994504929" lon="-3.26547296717763">
        <ele>1393.0899999999999</ele>
        <time>2025-05-12T08:30:55Z</time>
      </trkpt>
      <trkpt lat="36.952769039198756" lon="-3.265490988269448">
        <ele>1393.0899999999999</ele>
        <time>2025-05-12T08:30:56Z</time>
      </trkpt>
      <trkpt lat="36.952658984810114" lon="-3.26551403850317">
        <ele>1393.0899999999999</ele>
        <time>2025-05-12T08:30:57Z</time>
      </trkpt>
      <trkpt lat="36.952557982876897" lon="-3.265535999089479">
        <ele>1392.6099999999999</ele>
        <time>2025-05-12T08:30:58Z</time>
      </trkpt>
      <trkpt lat="36.952429991215467" lon="-3.265508003532887">
        <ele>1392.1300000000001</ele>
        <time>2025-05-12T08:30:59Z</time>
      </trkpt>
      <trkpt lat="36.952308034524322" lon="-3.265483025461435">
        <ele>1392.1300000000001</ele>
        <time>2025-05-12T08:31:00Z</time>
      </trkpt>
      <trkpt lat="36.952180964872241" lon="-3.265455029904842">
        <ele>1391.6500000000001</ele>
        <time>2025-05-12T08:31:01Z</time>
      </trkpt>
      <trkpt lat="36.952045010402799" lon="-3.265426028519869">
        <ele>1391.1700000000001</ele>
        <time>2025-05-12T08:31:02Z</time>
      </trkpt>
      <trkpt lat="36.951905032619834" lon="-3.265416976064444">
        <ele>1390.2</ele>
        <time>2025-05-12T08:31:03Z</time>
      </trkpt>
      <trkpt lat="36.951742004603148" lon="-3.26545000076294">
        <ele>1389.72</ele>
        <time>2025-05-12T08:31:04Z</time>
      </trkpt>
      <trkpt lat="36.951559027656913" lon="-3.265486964955926">
        <ele>1388.76</ele>
        <time>2025-05-12T08:31:05Z</time>
      </trkpt>
      <trkpt lat="36.950206020846963" lon="-3.265891978517175">
        <ele>1385.4000000000001</ele>
        <time>2025-05-12T08:31:11Z</time>
      </trkpt>
      <trkpt lat="36.949545023962855" lon="-3.266174029558897">
        <ele>1383.96</ele>
        <time>2025-05-12T08:31:14Z</time>
      </trkpt>
      <trkpt lat="36.949330028146505" lon="-3.266297997906804">
        <ele>1383.47</ele>
        <time>2025-05-12T08:31:15Z</time>
      </trkpt>
      <trkpt lat="36.947940979152918" lon="-3.267452018335462">
        <ele>1382.03</ele>
        <time>2025-05-12T08:31:22Z</time>
      </trkpt>
      <trkpt lat="36.946990974247456" lon="-3.268247041851282">
        <ele>1382.03</ele>
        <time>2025-05-12T08:31:27Z</time>
      </trkpt>
      <trkpt lat="36.946855019778013" lon="-3.26843898743391">
        <ele>1382.99</ele>
        <time>2025-05-12T08:31:28Z</time>
      </trkpt>
      <trkpt lat="36.946733985096216" lon="-3.268623976036906">
        <ele>1382.99</ele>
        <time>2025-05-12T08:31:29Z</time>
      </trkpt>
      <trkpt lat="36.946523012593389" lon="-3.268945002928376">
        <ele>1383.96</ele>
        <time>2025-05-12T08:31:31Z</time>
      </trkpt>
      <trkpt lat="36.94639996625483" lon="-3.269066959619522">
        <ele>1384.9200000000001</ele>
        <time>2025-05-12T08:31:32Z</time>
      </trkpt>
      <trkpt lat="36.946255965158343" lon="-3.269192017614842">
        <ele>1385.8800000000001</ele>
        <time>2025-05-12T08:31:33Z</time>
      </trkpt>
      <trkpt lat="36.946085980162024" lon="-3.269294025376439">
        <ele>1386.3599999999999</ele>
        <time>2025-05-12T08:31:34Z</time>
      </trkpt>
      <trkpt lat="36.945909960195422" lon="-3.269400978460908">
        <ele>1387.3199999999999</ele>
        <time>2025-05-12T08:31:35Z</time>
      </trkpt>
      <trkpt lat="36.94573201239109" lon="-3.26947096735239">
        <ele>1388.28</ele>
        <time>2025-05-12T08:31:36Z</time>
      </trkpt>
      <trkpt lat="36.945562027394772" lon="-3.269516984000802">
        <ele>1388.76</ele>
        <time>2025-05-12T08:31:37Z</time>
      </trkpt>
      <trkpt lat="36.945406962186098" lon="-3.269559983164072">
        <ele>1389.72</ele>
        <time>2025-05-12T08:31:38Z</time>
      </trkpt>
      <trkpt lat="36.945263966917992" lon="-3.269543973729014">
        <ele>1390.2</ele>
        <time>2025-05-12T08:31:39Z</time>
      </trkpt>
      <trkpt lat="36.945143016055226" lon="-3.26951296068728">
        <ele>1391.1700000000001</ele>
        <time>2025-05-12T08:31:40Z</time>
      </trkpt>
      <trkpt lat="36.94504695944488" lon="-3.269488988444209">
        <ele>1391.6500000000001</ele>
        <time>2025-05-12T08:31:41Z</time>
      </trkpt>
      <trkpt lat="36.94498099386692" lon="-3.269415982067585">
        <ele>1392.1300000000001</ele>
        <time>2025-05-12T08:31:42Z</time>
      </trkpt>
      <trkpt lat="36.944931959733367" lon="-3.269337024539709">
        <ele>1392.6099999999999</ele>
        <time>2025-05-12T08:31:43Z</time>
      </trkpt>
      <trkpt lat="36.944883009418845" lon="-3.269240967929363">
        <ele>1393.0899999999999</ele>
        <time>2025-05-12T08:31:44Z</time>
      </trkpt>
      <trkpt lat="36.944855013862252" lon="-3.269116999581456">
        <ele>1393.5699999999999</ele>
        <time>2025-05-12T08:31:45Z</time>
      </trkpt>
      <trkpt lat="36.944863982498646" lon="-3.268988002091646">
        <ele>1394.05</ele>
        <time>2025-05-12T08:31:46Z</time>
      </trkpt>
      <trkpt lat="36.944888960570097" lon="-3.268863027915359">
        <ele>1394.53</ele>
        <time>2025-05-12T08:31:47Z</time>
      </trkpt>
      <trkpt lat="36.944913016632199" lon="-3.268748028203845">
        <ele>1395.01</ele>
        <time>2025-05-12T08:31:48Z</time>
      </trkpt>
      <trkpt lat="36.944989962503314" lon="-3.268368998542428">
        <ele>1395.97</ele>
        <time>2025-05-12T08:31:51Z</time>
      </trkpt>
      <trkpt lat="36.945019969716668" lon="-3.26822298578918">
        <ele>1395.97</ele>
        <time>2025-05-12T08:31:52Z</time>
      </trkpt>
      <trkpt lat="36.945118959993124" lon="-3.267015991732478">
        <ele>1396.9300000000001</ele>
        <time>2025-05-12T08:31:58Z</time>
      </trkpt>
      <trkpt lat="36.945145027711987" lon="-3.266625981777906">
        <ele>1397.4100000000001</ele>
        <time>2025-05-12T08:32:00Z</time>
      </trkpt>
      <trkpt lat="36.945174029096961" lon="-3.266430012881756">
        <ele>1397.8900000000001</ele>
        <time>2025-05-12T08:32:01Z</time>
      </trkpt>
      <trkpt lat="36.945248963311315" lon="-3.266233038157225">
        <ele>1397.8900000000001</ele>
        <time>2025-05-12T08:32:02Z</time>
      </trkpt>
      <trkpt lat="36.945498995482922" lon="-3.265613028779626">
        <ele>1398.3699999999999</ele>
        <time>2025-05-12T08:32:05Z</time>
      </trkpt>
      <trkpt lat="36.945610977709293" lon="-3.26542804017663">
        <ele>1398.8599999999999</ele>
        <time>2025-05-12T08:32:06Z</time>
      </trkpt>
      <trkpt lat="36.945812981575727" lon="-3.265091003850102">
        <ele>1399.3399999999999</ele>
        <time>2025-05-12T08:32:08Z</time>
      </trkpt>
      <trkpt lat="36.945854974910617" lon="-3.2649149838835">
        <ele>1399.3399999999999</ele>
        <time>2025-05-12T08:32:09Z</time>
      </trkpt>
      <trkpt lat="36.945875007659197" lon="-3.264725971966982">
        <ele>1399.3399999999999</ele>
        <time>2025-05-12T08:32:10Z</time>
      </trkpt>
      <trkpt lat="36.945895962417126" lon="-3.264524973928928">
        <ele>1399.3399999999999</ele>
        <time>2025-05-12T08:32:11Z</time>
      </trkpt>
      <trkpt lat="36.945918006822467" lon="-3.264307966455817">
        <ele>1399.8199999999999</ele>
        <time>2025-05-12T08:32:12Z</time>
      </trkpt>
      <trkpt lat="36.945941979065537" lon="-3.26407696120441">
        <ele>1399.3399999999999</ele>
        <time>2025-05-12T08:32:13Z</time>
      </trkpt>
      <trkpt lat="36.946134008467197" lon="-3.26300298795104">
        <ele>1398.3699999999999</ele>
        <time>2025-05-12T08:32:18Z</time>
      </trkpt>
      <trkpt lat="36.94618497043848" lon="-3.262813976034522">
        <ele>1398.8599999999999</ele>
        <time>2025-05-12T08:32:19Z</time>
      </trkpt>
      <trkpt lat="36.946429973468184" lon="-3.2620760332793">
        <ele>1398.8599999999999</ele>
        <time>2025-05-12T08:32:23Z</time>
      </trkpt>
      <trkpt lat="36.946508008986712" lon="-3.261901019141078">
        <ele>1398.8599999999999</ele>
        <time>2025-05-12T08:32:24Z</time>
      </trkpt>
      <trkpt lat="36.946571040898561" lon="-3.261759029701352">
        <ele>1398.3699999999999</ele>
        <time>2025-05-12T08:32:25Z</time>
      </trkpt>
      <trkpt lat="36.946558970957994" lon="-3.261568006128073">
        <ele>1398.3699999999999</ele>
        <time>2025-05-12T08:32:26Z</time>
      </trkpt>
      <trkpt lat="36.94654799066484" lon="-3.261401960626245">
        <ele>1398.3699999999999</ele>
        <time>2025-05-12T08:32:27Z</time>
      </trkpt>
      <trkpt lat="36.946538016200066" lon="-3.261243039742112">
        <ele>1398.8599999999999</ele>
        <time>2025-05-12T08:32:28Z</time>
      </trkpt>
      <trkpt lat="36.94652896374464" lon="-3.26109099201858">
        <ele>1398.8599999999999</ele>
        <time>2025-05-12T08:32:29Z</time>
      </trkpt>
      <trkpt lat="36.946583027020097" lon="-3.260936010628939">
        <ele>1399.3399999999999</ele>
        <time>2025-05-12T08:32:30Z</time>
      </trkpt>
      <trkpt lat="36.946644969284534" lon="-3.260757979005575">
        <ele>1399.3399999999999</ele>
        <time>2025-05-12T08:32:31Z</time>
      </trkpt>
      <trkpt lat="36.94719398394227" lon="-3.259278992190957">
        <ele>1402.22</ele>
        <time>2025-05-12T08:32:39Z</time>
      </trkpt>
      <trkpt lat="36.947261961176991" lon="-3.259172961115837">
        <ele>1402.7</ele>
        <time>2025-05-12T08:32:40Z</time>
      </trkpt>
      <trkpt lat="36.947344020009041" lon="-3.259081011638045">
        <ele>1402.7</ele>
        <time>2025-05-12T08:32:41Z</time>
      </trkpt>
      <trkpt lat="36.947449967265129" lon="-3.259015968069434">
        <ele>1403.1800000000001</ele>
        <time>2025-05-12T08:32:42Z</time>
      </trkpt>
      <trkpt lat="36.947560021653771" lon="-3.258964000269771">
        <ele>1403.6600000000001</ele>
        <time>2025-05-12T08:32:43Z</time>
      </trkpt>
      <trkpt lat="36.947662029415369" lon="-3.258915971964598">
        <ele>1403.6600000000001</ele>
        <time>2025-05-12T08:32:44Z</time>
      </trkpt>
      <trkpt lat="36.94775297306478" lon="-3.258856041356921">
        <ele>1404.1400000000001</ele>
        <time>2025-05-12T08:32:45Z</time>
      </trkpt>
      <trkpt lat="36.947827991098166" lon="-3.258766019716859">
        <ele>1404.1400000000001</ele>
        <time>2025-05-12T08:32:46Z</time>
      </trkpt>
      <trkpt lat="36.947855986654758" lon="-3.25864196754992">
        <ele>1404.6199999999999</ele>
        <time>2025-05-12T08:32:47Z</time>
      </trkpt>
      <trkpt lat="36.9478780310601" lon="-3.258508024737239">
        <ele>1404.6199999999999</ele>
        <time>2025-05-12T08:32:48Z</time>
      </trkpt>
      <trkpt lat="36.94790200330317" lon="-3.258369974792004">
        <ele>1404.6199999999999</ele>
        <time>2025-05-12T08:32:49Z</time>
      </trkpt>
      <trkpt lat="36.947923041880131" lon="-3.258239971473813">
        <ele>1405.0999999999999</ele>
        <time>2025-05-12T08:32:50Z</time>
      </trkpt>
      <trkpt lat="36.948058996349573" lon="-3.257831018418074">
        <ele>1406.0699999999999</ele>
        <time>2025-05-12T08:32:53Z</time>
      </trkpt>
      <trkpt lat="36.948061008006334" lon="-3.257704032585025">
        <ele>1406.55</ele>
        <time>2025-05-12T08:32:54Z</time>
      </trkpt>
      <trkpt lat="36.948042986914515" lon="-3.257578974589706">
        <ele>1407.51</ele>
        <time>2025-05-12T08:32:55Z</time>
      </trkpt>
      <trkpt lat="36.948011973872781" lon="-3.257451988756657">
        <ele>1407.99</ele>
        <time>2025-05-12T08:32:56Z</time>
      </trkpt>
      <trkpt lat="36.947928993031383" lon="-3.257345035672188">
        <ele>1407.99</ele>
        <time>2025-05-12T08:32:57Z</time>
      </trkpt>
      <trkpt lat="36.94783603772521" lon="-3.257306981831789">
        <ele>1407.99</ele>
        <time>2025-05-12T08:32:58Z</time>
      </trkpt>
      <trkpt lat="36.947744004428387" lon="-3.257269011810422">
        <ele>1408.47</ele>
        <time>2025-05-12T08:32:59Z</time>
      </trkpt>
      <trkpt lat="36.947649037465453" lon="-3.257230035960674">
        <ele>1407.99</ele>
        <time>2025-05-12T08:33:00Z</time>
      </trkpt>
      <trkpt lat="36.947578964754939" lon="-3.257165998220444">
        <ele>1407.51</ele>
        <time>2025-05-12T08:33:01Z</time>
      </trkpt>
      <trkpt lat="36.947528002783656" lon="-3.257064996287227">
        <ele>1406.55</ele>
        <time>2025-05-12T08:33:02Z</time>
      </trkpt>
      <trkpt lat="36.947525991126895" lon="-3.256973968818784">
        <ele>1406.0699999999999</ele>
        <time>2025-05-12T08:33:03Z</time>
      </trkpt>
      <trkpt lat="36.947547029703856" lon="-3.256854023784399">
        <ele>1405.0999999999999</ele>
        <time>2025-05-12T08:33:04Z</time>
      </trkpt>
      <trkpt lat="36.947572007775307" lon="-3.25670599937439">
        <ele>1404.6199999999999</ele>
        <time>2025-05-12T08:33:05Z</time>
      </trkpt>
      <trkpt lat="36.947602014988661" lon="-3.256531991064549">
        <ele>1404.1400000000001</ele>
        <time>2025-05-12T08:33:06Z</time>
      </trkpt>
      <trkpt lat="36.947635039687157" lon="-3.256337027996779">
        <ele>1403.1800000000001</ele>
        <time>2025-05-12T08:33:07Z</time>
      </trkpt>
      <trkpt lat="36.947670998051763" lon="-3.2561269775033">
        <ele>1402.7</ele>
        <time>2025-05-12T08:33:08Z</time>
      </trkpt>
      <trkpt lat="36.947678038850427" lon="-3.255898989737034">
        <ele>1402.22</ele>
        <time>2025-05-12T08:33:09Z</time>
      </trkpt>
      <trkpt lat="36.947661023586988" lon="-3.255667984485626">
        <ele>1401.74</ele>
        <time>2025-05-12T08:33:10Z</time>
      </trkpt>
      <trkpt lat="36.947645014151931" lon="-3.255452988669276">
        <ele>1401.26</ele>
        <time>2025-05-12T08:33:11Z</time>
      </trkpt>
      <trkpt lat="36.947631016373634" lon="-3.255265988409519">
        <ele>1400.78</ele>
        <time>2025-05-12T08:33:12Z</time>
      </trkpt>
      <trkpt lat="36.947636967524886" lon="-3.255083011463285">
        <ele>1400.78</ele>
        <time>2025-05-12T08:33:13Z</time>
      </trkpt>
      <trkpt lat="36.947676027193666" lon="-3.254887964576483">
        <ele>1400.3</ele>
        <time>2025-05-12T08:33:14Z</time>
      </trkpt>
      <trkpt lat="36.947801001369953" lon="-3.254276001825929">
        <ele>1400.3</ele>
        <time>2025-05-12T08:33:17Z</time>
      </trkpt>
      <trkpt lat="36.947888005524874" lon="-3.254118002951145">
        <ele>1400.3</ele>
        <time>2025-05-12T08:33:18Z</time>
      </trkpt>
      <trkpt lat="36.948005016893148" lon="-3.253972996026278">
        <ele>1400.78</ele>
        <time>2025-05-12T08:33:19Z</time>
      </trkpt>
      <trkpt lat="36.948214983567595" lon="-3.253681976348162">
        <ele>1400.78</ele>
        <time>2025-05-12T08:33:21Z</time>
      </trkpt>
      <trkpt lat="36.948279021307826" lon="-3.253536969423294">
        <ele>1401.26</ele>
        <time>2025-05-12T08:33:22Z</time>
      </trkpt>
      <trkpt lat="36.94830902852118" lon="-3.253368996083736">
        <ele>1401.74</ele>
        <time>2025-05-12T08:33:23Z</time>
      </trkpt>
      <trkpt lat="36.948296958580613" lon="-3.253180989995599">
        <ele>1402.22</ele>
        <time>2025-05-12T08:33:24Z</time>
      </trkpt>
      <trkpt lat="36.948276003822684" lon="-3.253002958372235">
        <ele>1402.22</ele>
        <time>2025-05-12T08:33:25Z</time>
      </trkpt>
      <trkpt lat="36.948229987174273" lon="-3.252830961719155">
        <ele>1402.22</ele>
        <time>2025-05-12T08:33:26Z</time>
      </trkpt>
      <trkpt lat="36.948186988011003" lon="-3.252672962844372">
        <ele>1402.7</ele>
        <time>2025-05-12T08:33:27Z</time>
      </trkpt>
      <trkpt lat="36.948149017989635" lon="-3.252530973404646">
        <ele>1402.7</ele>
        <time>2025-05-12T08:33:28Z</time>
      </trkpt>
      <trkpt lat="36.948166033253074" lon="-3.252381021156907">
        <ele>1403.1800000000001</ele>
        <time>2025-05-12T08:33:29Z</time>
      </trkpt>
      <trkpt lat="36.948209032416344" lon="-3.25221598148346">
        <ele>1403.1800000000001</ele>
        <time>2025-05-12T08:33:30Z</time>
      </trkpt>
      <trkpt lat="36.948253037407994" lon="-3.252049013972282">
        <ele>1403.6600000000001</ele>
        <time>2025-05-12T08:33:31Z</time>
      </trkpt>
      <trkpt lat="36.948316991329193" lon="-3.251889003440738">
        <ele>1403.6600000000001</ele>
        <time>2025-05-12T08:33:32Z</time>
      </trkpt>
      <trkpt lat="36.94839402101934" lon="-3.251725975424051">
        <ele>1403.6600000000001</ele>
        <time>2025-05-12T08:33:33Z</time>
      </trkpt>
      <trkpt lat="36.9484599865973" lon="-3.251558002084494">
        <ele>1403.1800000000001</ele>
        <time>2025-05-12T08:33:34Z</time>
      </trkpt>
      <trkpt lat="36.9484599865973" lon="-3.25137896463275">
        <ele>1402.7</ele>
        <time>2025-05-12T08:33:35Z</time>
      </trkpt>
      <trkpt lat="36.948455041274428" lon="-3.251182995736599">
        <ele>1402.7</ele>
        <time>2025-05-12T08:33:36Z</time>
      </trkpt>
      <trkpt lat="36.948408018797636" lon="-3.250981997698546">
        <ele>1402.22</ele>
        <time>2025-05-12T08:33:37Z</time>
      </trkpt>
      <trkpt lat="36.948254965245724" lon="-3.250394007191062">
        <ele>1399.3399999999999</ele>
        <time>2025-05-12T08:33:40Z</time>
      </trkpt>
      <trkpt lat="36.948205009102821" lon="-3.250243971124291">
        <ele>1398.3699999999999</ele>
        <time>2025-05-12T08:33:41Z</time>
      </trkpt>
      <trkpt lat="36.948118004947901" lon="-3.25015302747488">
        <ele>1397.4100000000001</ele>
        <time>2025-05-12T08:33:42Z</time>
      </trkpt>
      <trkpt lat="36.948023037984967" lon="-3.250113967806101">
        <ele>1396.45</ele>
        <time>2025-05-12T08:33:43Z</time>
      </trkpt>
      <trkpt lat="36.947914995253086" lon="-3.250092007219791">
        <ele>1395.49</ele>
        <time>2025-05-12T08:33:44Z</time>
      </trkpt>
      <trkpt lat="36.94779203273356" lon="-3.25006602331996">
        <ele>1394.53</ele>
        <time>2025-05-12T08:33:45Z</time>
      </trkpt>
      <trkpt lat="36.94766303524375" lon="-3.250039033591747">
        <ele>1393.5699999999999</ele>
        <time>2025-05-12T08:33:46Z</time>
      </trkpt>
      <trkpt lat="36.947549963369966" lon="-3.249992011114955">
        <ele>1392.6099999999999</ele>
        <time>2025-05-12T08:33:47Z</time>
      </trkpt>
      <trkpt lat="36.947463965043426" lon="-3.249906012788415">
        <ele>1391.6500000000001</ele>
        <time>2025-05-12T08:33:48Z</time>
      </trkpt>
      <trkpt lat="36.94742800667882" lon="-3.249786989763379">
        <ele>1390.6800000000001</ele>
        <time>2025-05-12T08:33:49Z</time>
      </trkpt>
      <trkpt lat="36.947411997243762" lon="-3.249663021415472">
        <ele>1389.24</ele>
        <time>2025-05-12T08:33:50Z</time>
      </trkpt>
      <trkpt lat="36.947425995022058" lon="-3.249522037804127">
        <ele>1388.76</ele>
        <time>2025-05-12T08:33:51Z</time>
      </trkpt>
      <trkpt lat="36.947462037205696" lon="-3.24937803670764">
        <ele>1387.8</ele>
        <time>2025-05-12T08:33:52Z</time>
      </trkpt>
      <trkpt lat="36.947524985298514" lon="-3.249225988984108">
        <ele>1386.3599999999999</ele>
        <time>2025-05-12T08:33:53Z</time>
      </trkpt>
      <trkpt lat="36.947624981403351" lon="-3.24908098205924">
        <ele>1385.4000000000001</ele>
        <time>2025-05-12T08:33:54Z</time>
      </trkpt>
      <trkpt lat="36.94773000665009" lon="-3.24892901815474">
        <ele>1384.4400000000001</ele>
        <time>2025-05-12T08:33:55Z</time>
      </trkpt>
      <trkpt lat="36.947831008583307" lon="-3.248783005401492">
        <ele>1382.99</ele>
        <time>2025-05-12T08:33:56Z</time>
      </trkpt>
      <trkpt lat="36.947920024394989" lon="-3.248653002083302">
        <ele>1381.55</ele>
        <time>2025-05-12T08:33:57Z</time>
      </trkpt>
      <trkpt lat="36.947956988587976" lon="-3.248524004593492">
        <ele>1380.5899999999999</ele>
        <time>2025-05-12T08:33:58Z</time>
      </trkpt>
      <trkpt lat="36.94798699580133" lon="-3.248407999053598">
        <ele>1379.6300000000001</ele>
        <time>2025-05-12T08:33:59Z</time>
      </trkpt>
      <trkpt lat="36.94796696305275" lon="-3.248272966593504">
        <ele>1378.1900000000001</ele>
        <time>2025-05-12T08:34:00Z</time>
      </trkpt>
      <trkpt lat="36.94794500246644" lon="-3.24811203405261">
        <ele>1377.23</ele>
        <time>2025-05-12T08:34:01Z</time>
      </trkpt>
      <trkpt lat="36.947951959446073" lon="-3.247952023521066">
        <ele>1376.26</ele>
        <time>2025-05-12T08:34:02Z</time>
      </trkpt>
      <trkpt lat="36.947959000244737" lon="-3.247785978019238">
        <ele>1375.3</ele>
        <time>2025-05-12T08:34:03Z</time>
      </trkpt>
      <trkpt lat="36.947966041043401" lon="-3.247642982751131">
        <ele>1373.8599999999999</ele>
        <time>2025-05-12T08:34:04Z</time>
      </trkpt>
      <trkpt lat="36.947907032445073" lon="-3.247546004131436">
        <ele>1372.9000000000001</ele>
        <time>2025-05-12T08:34:05Z</time>
      </trkpt>
      <trkpt lat="36.947842994704843" lon="-3.247462017461658">
        <ele>1371.9400000000001</ele>
        <time>2025-05-12T08:34:06Z</time>
      </trkpt>
      <trkpt lat="36.947750961408019" lon="-3.247422035783529">
        <ele>1370.98</ele>
        <time>2025-05-12T08:34:07Z</time>
      </trkpt>
      <trkpt lat="36.947647025808692" lon="-3.247417006641626">
        <ele>1370.02</ele>
        <time>2025-05-12T08:34:08Z</time>
      </trkpt>
      <trkpt lat="36.947542000561953" lon="-3.247439973056316">
        <ele>1369.05</ele>
        <time>2025-05-12T08:34:09Z</time>
      </trkpt>
      <trkpt lat="36.947445021942258" lon="-3.247461011633277">
        <ele>1368.0899999999999</ele>
        <time>2025-05-12T08:34:10Z</time>
      </trkpt>
      <trkpt lat="36.947355000302196" lon="-3.247480960562825">
        <ele>1367.1300000000001</ele>
        <time>2025-05-12T08:34:11Z</time>
      </trkpt>
      <trkpt lat="36.947275036945939" lon="-3.247497975826263">
        <ele>1366.6500000000001</ele>
        <time>2025-05-12T08:34:12Z</time>
      </trkpt>
      <trkpt lat="36.947215022519231" lon="-3.247510967776179">
        <ele>1365.6900000000001</ele>
        <time>2025-05-12T08:34:13Z</time>
      </trkpt>
      <trkpt lat="36.947160959243774" lon="-3.247470986098051">
        <ele>1365.21</ele>
        <time>2025-05-12T08:34:14Z</time>
      </trkpt>
      <trkpt lat="36.947129024192691" lon="-3.247394040226936">
        <ele>1364.25</ele>
        <time>2025-05-12T08:34:15Z</time>
      </trkpt>
      <trkpt lat="36.947129024192691" lon="-3.247307036072016">
        <ele>1363.77</ele>
        <time>2025-05-12T08:34:16Z</time>
      </trkpt>
      <trkpt lat="36.947137992829084" lon="-3.247223971411586">
        <ele>1363.29</ele>
        <time>2025-05-12T08:34:17Z</time>
      </trkpt>
      <trkpt lat="36.94719398394227" lon="-3.2471679802984">
        <ele>1362.3299999999999</ele>
        <time>2025-05-12T08:34:18Z</time>
      </trkpt>
      <trkpt lat="36.94725601002574" lon="-3.247116012498736">
        <ele>1361.8399999999999</ele>
        <time>2025-05-12T08:34:19Z</time>
      </trkpt>
      <trkpt lat="36.947335973381996" lon="-3.247075024992228">
        <ele>1360.8800000000001</ele>
        <time>2025-05-12T08:34:20Z</time>
      </trkpt>
      <trkpt lat="36.947427000850439" lon="-3.247030014172196">
        <ele>1360.4000000000001</ele>
        <time>2025-05-12T08:34:21Z</time>
      </trkpt>
      <trkpt lat="36.947528002783656" lon="-3.246978968381882">
        <ele>1359.4400000000001</ele>
        <time>2025-05-12T08:34:22Z</time>
      </trkpt>
      <trkpt lat="36.947635039687157" lon="-3.246929012238979">
        <ele>1358.48</ele>
        <time>2025-05-12T08:34:23Z</time>
      </trkpt>
      <trkpt lat="36.948196962475777" lon="-3.246702030301094">
        <ele>1353.1900000000001</ele>
        <time>2025-05-12T08:34:28Z</time>
      </trkpt>
      <trkpt lat="36.948342975229025" lon="-3.246601028367877">
        <ele>1351.75</ele>
        <time>2025-05-12T08:34:29Z</time>
      </trkpt>
      <trkpt lat="36.94863298907876" lon="-3.246377985924482">
        <ele>1348.3900000000001</ele>
        <time>2025-05-12T08:34:31Z</time>
      </trkpt>
      <trkpt lat="36.948714964091778" lon="-3.246235996484757">
        <ele>1346.9400000000001</ele>
        <time>2025-05-12T08:34:32Z</time>
      </trkpt>
      <trkpt lat="36.948777996003628" lon="-3.24609300121665">
        <ele>1345.5</ele>
        <time>2025-05-12T08:34:33Z</time>
      </trkpt>
      <trkpt lat="36.948963990435004" lon="-3.24538498185575">
        <ele>1339.73</ele>
        <time>2025-05-12T08:34:37Z</time>
      </trkpt>
      <trkpt lat="36.948974970728159" lon="-3.245240980759263">
        <ele>1338.29</ele>
        <time>2025-05-12T08:34:38Z</time>
      </trkpt>
      <trkpt lat="36.948929037898779" lon="-3.245120029896498">
        <ele>1337.3299999999999</ele>
        <time>2025-05-12T08:34:39Z</time>
      </trkpt>
      <trkpt lat="36.948858965188265" lon="-3.245006036013365">
        <ele>1335.8900000000001</ele>
        <time>2025-05-12T08:34:40Z</time>
      </trkpt>
      <trkpt lat="36.948759974911809" lon="-3.244883995503187">
        <ele>1335.4100000000001</ele>
        <time>2025-05-12T08:34:41Z</time>
      </trkpt>
      <trkpt lat="36.948635000735521" lon="-3.244794979691505">
        <ele>1335.4100000000001</ele>
        <time>2025-05-12T08:34:42Z</time>
      </trkpt>
      <trkpt lat="36.948518995195627" lon="-3.244711998850107">
        <ele>1335.4100000000001</ele>
        <time>2025-05-12T08:34:43Z</time>
      </trkpt>
      <trkpt lat="36.948026977479458" lon="-3.244345961138606">
        <ele>1336.3699999999999</ele>
        <time>2025-05-12T08:34:48Z</time>
      </trkpt>
      <trkpt lat="36.947949025779963" lon="-3.244244959205389">
        <ele>1336.3699999999999</ele>
        <time>2025-05-12T08:34:49Z</time>
      </trkpt>
      <trkpt lat="36.947860009968281" lon="-3.244129037484527">
        <ele>1336.3699999999999</ele>
        <time>2025-05-12T08:34:50Z</time>
      </trkpt>
      <trkpt lat="36.947253998368979" lon="-3.243217002600431">
        <ele>1336.3699999999999</ele>
        <time>2025-05-12T08:34:55Z</time>
      </trkpt>
      <trkpt lat="36.947101028636098" lon="-3.243104014545679">
        <ele>1336.3699999999999</ele>
        <time>2025-05-12T08:34:56Z</time>
      </trkpt>
      <trkpt lat="36.946960967034101" lon="-3.243001000955701">
        <ele>1335.8900000000001</ele>
        <time>2025-05-12T08:34:57Z</time>
      </trkpt>
      <trkpt lat="36.946841021999717" lon="-3.242911985144019">
        <ele>1335.8900000000001</ele>
        <time>2025-05-12T08:34:58Z</time>
      </trkpt>
      <trkpt lat="36.946749994531274" lon="-3.242821041494608">
        <ele>1335.8900000000001</ele>
        <time>2025-05-12T08:34:59Z</time>
      </trkpt>
      <trkpt lat="36.946690985932946" lon="-3.242683997377753">
        <ele>1335.8900000000001</ele>
        <time>2025-05-12T08:35:00Z</time>
      </trkpt>
      <trkpt lat="36.946629965677857" lon="-3.24252700433135">
        <ele>1335.4100000000001</ele>
        <time>2025-05-12T08:35:01Z</time>
      </trkpt>
      <trkpt lat="36.946589983999729" lon="-3.242340004071593">
        <ele>1335.4100000000001</ele>
        <time>2025-05-12T08:35:02Z</time>
      </trkpt>
      <trkpt lat="36.94639996625483" lon="-3.241439033299685">
        <ele>1334.45</ele>
        <time>2025-05-12T08:35:06Z</time>
      </trkpt>
      <trkpt lat="36.946326959878206" lon="-3.241256978362799">
        <ele>1334.45</ele>
        <time>2025-05-12T08:35:07Z</time>
      </trkpt>
      <trkpt lat="36.946254959329963" lon="-3.241078024730086">
        <ele>1334.45</ele>
        <time>2025-05-12T08:35:08Z</time>
      </trkpt>
      <trkpt lat="36.94622403010726" lon="-3.240910973399878">
        <ele>1333.97</ele>
        <time>2025-05-12T08:35:09Z</time>
      </trkpt>
      <trkpt lat="36.946214977651834" lon="-3.240730008110404">
        <ele>1333.97</ele>
        <time>2025-05-12T08:35:10Z</time>
      </trkpt>
      <trkpt lat="36.946207014843822" lon="-3.240531021729112">
        <ele>1333.49</ele>
        <time>2025-05-12T08:35:11Z</time>
      </trkpt>
      <trkpt lat="36.94622696377337" lon="-3.240309990942478">
        <ele>1333.49</ele>
        <time>2025-05-12T08:35:12Z</time>
      </trkpt>
      <trkpt lat="36.946331989020109" lon="-3.239361997693777">
        <ele>1332.52</ele>
        <time>2025-05-12T08:35:16Z</time>
      </trkpt>
      <trkpt lat="36.946327965706587" lon="-3.239138033241034">
        <ele>1332.04</ele>
        <time>2025-05-12T08:35:17Z</time>
      </trkpt>
      <trkpt lat="36.94631396792829" lon="-3.238756991922855">
        <ele>1331.5599999999999</ele>
        <time>2025-05-12T08:35:19Z</time>
      </trkpt>
      <trkpt lat="36.946369959041476" lon="-3.238577032461762">
        <ele>1331.5599999999999</ele>
        <time>2025-05-12T08:35:20Z</time>
      </trkpt>
      <trkpt lat="36.946425028145313" lon="-3.23840000666678">
        <ele>1331.5599999999999</ele>
        <time>2025-05-12T08:35:21Z</time>
      </trkpt>
      <trkpt lat="36.946484036743641" lon="-3.238212000578642">
        <ele>1331.0799999999999</ele>
        <time>2025-05-12T08:35:22Z</time>
      </trkpt>
      <trkpt lat="36.946524018421769" lon="-3.238016031682491">
        <ele>1330.5999999999999</ele>
        <time>2025-05-12T08:35:23Z</time>
      </trkpt>
      <trkpt lat="36.946508008986712" lon="-3.237798018381">
        <ele>1330.1199999999999</ele>
        <time>2025-05-12T08:35:24Z</time>
      </trkpt>
      <trkpt lat="36.946490993723273" lon="-3.237576987594366">
        <ele>1329.6400000000001</ele>
        <time>2025-05-12T08:35:25Z</time>
      </trkpt>
      <trkpt lat="36.946446988731623" lon="-3.237384958192706">
        <ele>1329.1600000000001</ele>
        <time>2025-05-12T08:35:26Z</time>
      </trkpt>
      <trkpt lat="36.946381023153663" lon="-3.237241040915251">
        <ele>1329.1600000000001</ele>
        <time>2025-05-12T08:35:27Z</time>
      </trkpt>
      <trkpt lat="36.946296030655503" lon="-3.237121012061834">
        <ele>1329.1600000000001</ele>
        <time>2025-05-12T08:35:28Z</time>
      </trkpt>
      <trkpt lat="36.946216989308596" lon="-3.237009029835463">
        <ele>1329.1600000000001</ele>
        <time>2025-05-12T08:35:29Z</time>
      </trkpt>
      <trkpt lat="36.94616099819541" lon="-3.236891012638807">
        <ele>1329.1600000000001</ele>
        <time>2025-05-12T08:35:30Z</time>
      </trkpt>
      <trkpt lat="36.946150017902255" lon="-3.236744999885559">
        <ele>1328.6800000000001</ele>
        <time>2025-05-12T08:35:31Z</time>
      </trkpt>
      <trkpt lat="36.946153035387397" lon="-3.23661700822413">
        <ele>1328.6800000000001</ele>
        <time>2025-05-12T08:35:32Z</time>
      </trkpt>
      <trkpt lat="36.94622403010726" lon="-3.236509971320629">
        <ele>1327.72</ele>
        <time>2025-05-12T08:35:33Z</time>
      </trkpt>
      <trkpt lat="36.946308016777039" lon="-3.236383991315961">
        <ele>1326.76</ele>
        <time>2025-05-12T08:35:34Z</time>
      </trkpt>
      <trkpt lat="36.946401977911592" lon="-3.236242001876235">
        <ele>1325.8</ele>
        <time>2025-05-12T08:35:35Z</time>
      </trkpt>
      <trkpt lat="36.94648596458137" lon="-3.236063970252872">
        <ele>1324.8299999999999</ele>
        <time>2025-05-12T08:35:36Z</time>
      </trkpt>
      <trkpt lat="36.946567017585039" lon="-3.23584696277976">
        <ele>1323.8699999999999</ele>
        <time>2025-05-12T08:35:37Z</time>
      </trkpt>
      <trkpt lat="36.946807997301221" lon="-3.235164005309343">
        <ele>1320.51</ele>
        <time>2025-05-12T08:35:40Z</time>
      </trkpt>
      <trkpt lat="36.946930959820747" lon="-3.234810037538409">
        <ele>1318.0999999999999</ele>
        <time>2025-05-12T08:35:42Z</time>
      </trkpt>
      <trkpt lat="36.9469990208745" lon="-3.234668970108032">
        <ele>1317.1400000000001</ele>
        <time>2025-05-12T08:35:43Z</time>
      </trkpt>
      <trkpt lat="36.947060963138938" lon="-3.234540978446603">
        <ele>1315.7</ele>
        <time>2025-05-12T08:35:44Z</time>
      </trkpt>
      <trkpt lat="36.947092982009053" lon="-3.234409969300032">
        <ele>1314.74</ele>
        <time>2025-05-12T08:35:45Z</time>
      </trkpt>
      <trkpt lat="36.94710798561573" lon="-3.234250964596868">
        <ele>1313.3</ele>
        <time>2025-05-12T08:35:46Z</time>
      </trkpt>
      <trkpt lat="36.947053000330925" lon="-3.234140994027257">
        <ele>1311.8599999999999</ele>
        <time>2025-05-12T08:35:47Z</time>
      </trkpt>
      <trkpt lat="36.946975970640779" lon="-3.233988024294376">
        <ele>1310.9000000000001</ele>
        <time>2025-05-12T08:35:48Z</time>
      </trkpt>
      <trkpt lat="36.946878992021084" lon="-3.233843017369509">
        <ele>1309.45</ele>
        <time>2025-05-12T08:35:49Z</time>
      </trkpt>
      <trkpt lat="36.94676399230957" lon="-3.233728017657995">
        <ele>1308.49</ele>
        <time>2025-05-12T08:35:50Z</time>
      </trkpt>
      <trkpt lat="36.946652010083199" lon="-3.233634978532791">
        <ele>1307.53</ele>
        <time>2025-05-12T08:35:51Z</time>
      </trkpt>
      <trkpt lat="36.946553019806743" lon="-3.233553003519774">
        <ele>1306.5699999999999</ele>
        <time>2025-05-12T08:35:52Z</time>
      </trkpt>
      <trkpt lat="36.946458974853158" lon="-3.233462981879711">
        <ele>1305.6099999999999</ele>
        <time>2025-05-12T08:35:53Z</time>
      </trkpt>
      <trkpt lat="36.946412036195397" lon="-3.233321998268366">
        <ele>1304.6500000000001</ele>
        <time>2025-05-12T08:35:54Z</time>
      </trkpt>
      <trkpt lat="36.946374988183379" lon="-3.233144972473383">
        <ele>1303.6900000000001</ele>
        <time>2025-05-12T08:35:55Z</time>
      </trkpt>
      <trkpt lat="36.946340035647154" lon="-3.232942968606949">
        <ele>1302.24</ele>
        <time>2025-05-12T08:35:56Z</time>
      </trkpt>
      <trkpt lat="36.94622503593564" lon="-3.232285995036364">
        <ele>1298.8800000000001</ele>
        <time>2025-05-12T08:35:59Z</time>
      </trkpt>
      <trkpt lat="36.946171978488564" lon="-3.232092037796974">
        <ele>1297.4400000000001</ele>
        <time>2025-05-12T08:36:00Z</time>
      </trkpt>
      <trkpt lat="36.946124034002423" lon="-3.231915012001991">
        <ele>1296.48</ele>
        <time>2025-05-12T08:36:01Z</time>
      </trkpt>
      <trkpt lat="36.946093020960689" lon="-3.231756007298827">
        <ele>1295.51</ele>
        <time>2025-05-12T08:36:02Z</time>
      </trkpt>
      <trkpt lat="36.946079023182392" lon="-3.231595996767283">
        <ele>1294.55</ele>
        <time>2025-05-12T08:36:03Z</time>
      </trkpt>
      <trkpt lat="36.946065025404096" lon="-3.231424000114203">
        <ele>1293.1099999999999</ele>
        <time>2025-05-12T08:36:04Z</time>
      </trkpt>
      <trkpt lat="36.945995036512613" lon="-3.230613972991705">
        <ele>1288.78</ele>
        <time>2025-05-12T08:36:08Z</time>
      </trkpt>
      <trkpt lat="36.945929992944002" lon="-3.230440970510244">
        <ele>1287.3399999999999</ele>
        <time>2025-05-12T08:36:09Z</time>
      </trkpt>
      <trkpt lat="36.945865033194423" lon="-3.230294035747647">
        <ele>1286.3800000000001</ele>
        <time>2025-05-12T08:36:10Z</time>
      </trkpt>
      <trkpt lat="36.945809964090586" lon="-3.230168977752328">
        <ele>1285.4200000000001</ele>
        <time>2025-05-12T08:36:11Z</time>
      </trkpt>
      <trkpt lat="36.945755984634161" lon="-3.230045009404421">
        <ele>1284.46</ele>
        <time>2025-05-12T08:36:12Z</time>
      </trkpt>
      <trkpt lat="36.945755984634161" lon="-3.22993696667254">
        <ele>1283.98</ele>
        <time>2025-05-12T08:36:13Z</time>
      </trkpt>
      <trkpt lat="36.945755984634161" lon="-3.229787014424801">
        <ele>1283.02</ele>
        <time>2025-05-12T08:36:14Z</time>
      </trkpt>
      <trkpt lat="36.945755984634161" lon="-3.229623986408114">
        <ele>1282.0599999999999</ele>
        <time>2025-05-12T08:36:15Z</time>
      </trkpt>
      <trkpt lat="36.945755984634161" lon="-3.229446960613132">
        <ele>1281.5699999999999</ele>
        <time>2025-05-12T08:36:16Z</time>
      </trkpt>
      <trkpt lat="36.945755984634161" lon="-3.229250991716981">
        <ele>1281.0899999999999</ele>
        <time>2025-05-12T08:36:17Z</time>
      </trkpt>
      <trkpt lat="36.945735029876232" lon="-3.229072038084269">
        <ele>1280.6099999999999</ele>
        <time>2025-05-12T08:36:18Z</time>
      </trkpt>
      <trkpt lat="36.945713991299272" lon="-3.228890988975763">
        <ele>1280.1300000000001</ele>
        <time>2025-05-12T08:36:19Z</time>
      </trkpt>
      <trkpt lat="36.945639979094267" lon="-3.228741036728025">
        <ele>1279.6500000000001</ele>
        <time>2025-05-12T08:36:20Z</time>
      </trkpt>
      <trkpt lat="36.945564961060882" lon="-3.228589994832873">
        <ele>1279.1700000000001</ele>
        <time>2025-05-12T08:36:21Z</time>
      </trkpt>
      <trkpt lat="36.945459013804793" lon="-3.228454040363431">
        <ele>1278.21</ele>
        <time>2025-05-12T08:36:22Z</time>
      </trkpt>
      <trkpt lat="36.945336973294616" lon="-3.228322025388479">
        <ele>1277.73</ele>
        <time>2025-05-12T08:36:23Z</time>
      </trkpt>
      <trkpt lat="36.945018041878939" lon="-3.227961016818881">
        <ele>1275.3299999999999</ele>
        <time>2025-05-12T08:36:26Z</time>
      </trkpt>
      <trkpt lat="36.944973031058908" lon="-3.227839982137084">
        <ele>1274.8499999999999</ele>
        <time>2025-05-12T08:36:27Z</time>
      </trkpt>
      <trkpt lat="36.944946041330695" lon="-3.227718025445938">
        <ele>1273.8800000000001</ele>
        <time>2025-05-12T08:36:28Z</time>
      </trkpt>
      <trkpt lat="36.944969007745385" lon="-3.227590033784509">
        <ele>1272.9200000000001</ele>
        <time>2025-05-12T08:36:29Z</time>
      </trkpt>
      <trkpt lat="36.945005971938372" lon="-3.227478973567486">
        <ele>1271.96</ele>
        <time>2025-05-12T08:36:30Z</time>
      </trkpt>
      <trkpt lat="36.945069003850222" lon="-3.227385012432933">
        <ele>1270.52</ele>
        <time>2025-05-12T08:36:31Z</time>
      </trkpt>
      <trkpt lat="36.945161037147045" lon="-3.227346958592534">
        <ele>1269.5599999999999</ele>
        <time>2025-05-12T08:36:32Z</time>
      </trkpt>
      <trkpt lat="36.945251980796456" lon="-3.227361040189862">
        <ele>1268.5999999999999</ele>
        <time>2025-05-12T08:36:33Z</time>
      </trkpt>
      <trkpt lat="36.945359017699957" lon="-3.227388029918075">
        <ele>1267.6400000000001</ele>
        <time>2025-05-12T08:36:34Z</time>
      </trkpt>
      <trkpt lat="36.945482986047864" lon="-3.227419964969158">
        <ele>1267.1600000000001</ele>
        <time>2025-05-12T08:36:35Z</time>
      </trkpt>
      <trkpt lat="36.945619024336338" lon="-3.227455001324415">
        <ele>1266.1900000000001</ele>
        <time>2025-05-12T08:36:36Z</time>
      </trkpt>
      <trkpt lat="36.9457539729774" lon="-3.227490037679672">
        <ele>1265.23</ele>
        <time>2025-05-12T08:36:37Z</time>
      </trkpt>
      <trkpt lat="36.945895040407777" lon="-3.227495988830924">
        <ele>1264.27</ele>
        <time>2025-05-12T08:36:38Z</time>
      </trkpt>
      <trkpt lat="36.946040969341993" lon="-3.227450978010893">
        <ele>1263.3099999999999</ele>
        <time>2025-05-12T08:36:39Z</time>
      </trkpt>
      <trkpt lat="36.946345986798406" lon="-3.22735701687634">
        <ele>1261.8699999999999</ele>
        <time>2025-05-12T08:36:41Z</time>
      </trkpt>
      <trkpt lat="36.947037996724248" lon="-3.227283004671335">
        <ele>1256.5799999999999</ele>
        <time>2025-05-12T08:36:47Z</time>
      </trkpt>
      <trkpt lat="36.947126006707549" lon="-3.227260038256645">
        <ele>1256.0999999999999</ele>
        <time>2025-05-12T08:36:48Z</time>
      </trkpt>
      <trkpt lat="36.947521967813373" lon="-3.227136991918087">
        <ele>1254.6600000000001</ele>
        <time>2025-05-12T08:36:53Z</time>
      </trkpt>
      <trkpt lat="36.947595980018377" lon="-3.227106984704733">
        <ele>1254.6600000000001</ele>
        <time>2025-05-12T08:36:54Z</time>
      </trkpt>
      <trkpt lat="36.947655994445086" lon="-3.227022998034954">
        <ele>1254.6600000000001</ele>
        <time>2025-05-12T08:36:55Z</time>
      </trkpt>
      <trkpt lat="36.947707962244749" lon="-3.226944962516427">
        <ele>1254.6600000000001</ele>
        <time>2025-05-12T08:36:56Z</time>
      </trkpt>
      <trkpt lat="36.947756996378303" lon="-3.226862987503409">
        <ele>1254.1800000000001</ele>
        <time>2025-05-12T08:36:57Z</time>
      </trkpt>
      <trkpt lat="36.948210038244724" lon="-3.226042985916138">
        <ele>1254.6600000000001</ele>
        <time>2025-05-12T08:37:08Z</time>
      </trkpt>
      <trkpt lat="36.948423022404313" lon="-3.225653981789947">
        <ele>1256.5799999999999</ele>
        <time>2025-05-12T08:37:13Z</time>
      </trkpt>
      <trkpt lat="36.948463004082441" lon="-3.225576030090451">
        <ele>1257.54</ele>
        <time>2025-05-12T08:37:14Z</time>
      </trkpt>
      <trkpt lat="36.948504997417331" lon="-3.225496988743544">
        <ele>1258.02</ele>
        <time>2025-05-12T08:37:15Z</time>
      </trkpt>
      <trkpt lat="36.948732985183597" lon="-3.225105972960591">
        <ele>1258.5</ele>
        <time>2025-05-12T08:37:20Z</time>
      </trkpt>
      <trkpt lat="36.948780007660389" lon="-3.225025003775954">
        <ele>1258.98</ele>
        <time>2025-05-12T08:37:21Z</time>
      </trkpt>
      <trkpt lat="36.949016964063048" lon="-3.224615966901183">
        <ele>1260.4300000000001</ele>
        <time>2025-05-12T08:37:26Z</time>
      </trkpt>
      <trkpt lat="36.949266996234655" lon="-3.224172983318567">
        <ele>1260.9100000000001</ele>
        <time>2025-05-12T08:37:32Z</time>
      </trkpt>
      <trkpt lat="36.94932097569108" lon="-3.224119003862143">
        <ele>1260.9100000000001</ele>
        <time>2025-05-12T08:37:33Z</time>
      </trkpt>
      <trkpt lat="36.949374033138156" lon="-3.224067036062479">
        <ele>1260.9100000000001</ele>
        <time>2025-05-12T08:37:34Z</time>
      </trkpt>
      <trkpt lat="36.94944703951478" lon="-3.223994029685855">
        <ele>1261.3900000000001</ele>
        <time>2025-05-12T08:37:35Z</time>
      </trkpt>
      <trkpt lat="36.94949297234416" lon="-3.223981959745288">
        <ele>1261.3900000000001</ele>
        <time>2025-05-12T08:37:36Z</time>
      </trkpt>
      <trkpt lat="36.949561033397913" lon="-3.223965028300881">
        <ele>1261.8699999999999</ele>
        <time>2025-05-12T08:37:37Z</time>
      </trkpt>
      <trkpt lat="36.949630016461015" lon="-3.223953964188695">
        <ele>1262.3499999999999</ele>
        <time>2025-05-12T08:37:38Z</time>
      </trkpt>
      <trkpt lat="36.949692964553833" lon="-3.223972991108894">
        <ele>1262.3499999999999</ele>
        <time>2025-05-12T08:37:39Z</time>
      </trkpt>
      <trkpt lat="36.949760019779205" lon="-3.223993023857474">
        <ele>1262.8299999999999</ele>
        <time>2025-05-12T08:37:40Z</time>
      </trkpt>
      <trkpt lat="36.949833026155829" lon="-3.224014984443784">
        <ele>1262.8299999999999</ele>
        <time>2025-05-12T08:37:41Z</time>
      </trkpt>
      <trkpt lat="36.950187999755144" lon="-3.224102994427085">
        <ele>1264.75</ele>
        <time>2025-05-12T08:37:46Z</time>
      </trkpt>
      <trkpt lat="36.950265029445291" lon="-3.224106011912227">
        <ele>1265.23</ele>
        <time>2025-05-12T08:37:47Z</time>
      </trkpt>
      <trkpt lat="36.950338035821915" lon="-3.224109029397368">
        <ele>1265.71</ele>
        <time>2025-05-12T08:37:48Z</time>
      </trkpt>
      <trkpt lat="36.950422022491693" lon="-3.224112968891859">
        <ele>1266.6700000000001</ele>
        <time>2025-05-12T08:37:49Z</time>
      </trkpt>
      <trkpt lat="36.95052201859653" lon="-3.224117998033762">
        <ele>1267.6400000000001</ele>
        <time>2025-05-12T08:37:50Z</time>
      </trkpt>
      <trkpt lat="36.950641963630915" lon="-3.224116992205381">
        <ele>1268.1199999999999</ele>
        <time>2025-05-12T08:37:51Z</time>
      </trkpt>
      <trkpt lat="36.95114403963089" lon="-3.224018001928926">
        <ele>1270.52</ele>
        <time>2025-05-12T08:37:55Z</time>
      </trkpt>
      <trkpt lat="36.951270019635558" lon="-3.224056977778673">
        <ele>1270.52</ele>
        <time>2025-05-12T08:37:56Z</time>
      </trkpt>
      <trkpt lat="36.951542012393475" lon="-3.224163008853793">
        <ele>1270.52</ele>
        <time>2025-05-12T08:37:58Z</time>
      </trkpt>
      <trkpt lat="36.951655000448227" lon="-3.224119003862143">
        <ele>1270.52</ele>
        <time>2025-05-12T08:37:59Z</time>
      </trkpt>
      <trkpt lat="36.951760025694966" lon="-3.224072987213731">
        <ele>1271</ele>
        <time>2025-05-12T08:38:00Z</time>
      </trkpt>
      <trkpt lat="36.951861027628183" lon="-3.22402898222208">
        <ele>1271</ele>
        <time>2025-05-12T08:38:01Z</time>
      </trkpt>
      <trkpt lat="36.951960017904639" lon="-3.224014984443784">
        <ele>1271</ele>
        <time>2025-05-12T08:38:02Z</time>
      </trkpt>
      <trkpt lat="36.952068982645869" lon="-3.224033005535603">
        <ele>1271.48</ele>
        <time>2025-05-12T08:38:03Z</time>
      </trkpt>
      <trkpt lat="36.952188005670905" lon="-3.224079022184014">
        <ele>1271.48</ele>
        <time>2025-05-12T08:38:04Z</time>
      </trkpt>
      <trkpt lat="36.952326977625489" lon="-3.224133001640439">
        <ele>1271</ele>
        <time>2025-05-12T08:38:05Z</time>
      </trkpt>
      <trkpt lat="36.95247801952064" lon="-3.224191004410386">
        <ele>1271</ele>
        <time>2025-05-12T08:38:06Z</time>
      </trkpt>
      <trkpt lat="36.952627971768379" lon="-3.224259987473488">
        <ele>1271</ele>
        <time>2025-05-12T08:38:07Z</time>
      </trkpt>
      <trkpt lat="36.952870041131973" lon="-3.22441203519702">
        <ele>1270.04</ele>
        <time>2025-05-12T08:38:09Z</time>
      </trkpt>
      <trkpt lat="36.952970959246159" lon="-3.224425027146936">
        <ele>1269.5599999999999</ele>
        <time>2025-05-12T08:38:10Z</time>
      </trkpt>
      <trkpt lat="36.953047988936305" lon="-3.22437196969986">
        <ele>1269.0799999999999</ele>
        <time>2025-05-12T08:38:11Z</time>
      </trkpt>
      <trkpt lat="36.953092999756336" lon="-3.224281026050448">
        <ele>1268.1199999999999</ele>
        <time>2025-05-12T08:38:12Z</time>
      </trkpt>
      <trkpt lat="36.953083025291562" lon="-3.22417801246047">
        <ele>1267.6400000000001</ele>
        <time>2025-05-12T08:38:13Z</time>
      </trkpt>
      <trkpt lat="36.953061986714602" lon="-3.224058989435434">
        <ele>1267.1600000000001</ele>
        <time>2025-05-12T08:38:14Z</time>
      </trkpt>
      <trkpt lat="36.953007001429796" lon="-3.223952036350966">
        <ele>1266.6700000000001</ele>
        <time>2025-05-12T08:38:15Z</time>
      </trkpt>
      <trkpt lat="36.952942963689566" lon="-3.223829995840788">
        <ele>1266.6700000000001</ele>
        <time>2025-05-12T08:38:16Z</time>
      </trkpt>
      <trkpt lat="36.952874986454844" lon="-3.223699992522597">
        <ele>1266.1900000000001</ele>
        <time>2025-05-12T08:38:17Z</time>
      </trkpt>
      <trkpt lat="36.952812960371375" lon="-3.223579041659832">
        <ele>1266.1900000000001</ele>
        <time>2025-05-12T08:38:18Z</time>
      </trkpt>
      <trkpt lat="36.952794017270207" lon="-3.223466975614429">
        <ele>1266.6700000000001</ele>
        <time>2025-05-12T08:38:19Z</time>
      </trkpt>
      <trkpt lat="36.952804997563362" lon="-3.223337978124619">
        <ele>1267.6400000000001</ele>
        <time>2025-05-12T08:38:20Z</time>
      </trkpt>
      <trkpt lat="36.952847996726632" lon="-3.223199006170034">
        <ele>1268.5999999999999</ele>
        <time>2025-05-12T08:38:21Z</time>
      </trkpt>
      <trkpt lat="36.952895019203424" lon="-3.223050981760025">
        <ele>1269.5599999999999</ele>
        <time>2025-05-12T08:38:22Z</time>
      </trkpt>
      <trkpt lat="36.952918991446495" lon="-3.222886025905609">
        <ele>1270.52</ele>
        <time>2025-05-12T08:38:23Z</time>
      </trkpt>
      <trkpt lat="36.952897030860186" lon="-3.222506996244192">
        <ele>1272.4400000000001</ele>
        <time>2025-05-12T08:38:25Z</time>
      </trkpt>
      <trkpt lat="36.95286501199007" lon="-3.222151016816497">
        <ele>1274.8499999999999</ele>
        <time>2025-05-12T08:38:27Z</time>
      </trkpt>
      <trkpt lat="36.952812038362026" lon="-3.22200802154839">
        <ele>1275.8099999999999</ele>
        <time>2025-05-12T08:38:28Z</time>
      </trkpt>
      <trkpt lat="36.952703995630145" lon="-3.221715996041894">
        <ele>1278.6900000000001</ele>
        <time>2025-05-12T08:38:30Z</time>
      </trkpt>
      <trkpt lat="36.952657978981733" lon="-3.221555985510349">
        <ele>1280.1300000000001</ele>
        <time>2025-05-12T08:38:31Z</time>
      </trkpt>
      <trkpt lat="36.952636018395424" lon="-3.221393963322043">
        <ele>1281.5699999999999</ele>
        <time>2025-05-12T08:38:32Z</time>
      </trkpt>
      <trkpt lat="36.952639035880566" lon="-3.221239987760782">
        <ele>1282.54</ele>
        <time>2025-05-12T08:38:33Z</time>
      </trkpt>
      <trkpt lat="36.952687986195087" lon="-3.221095986664295">
        <ele>1283.98</ele>
        <time>2025-05-12T08:38:34Z</time>
      </trkpt>
      <trkpt lat="36.952773984521627" lon="-3.220973024144769">
        <ele>1285.4200000000001</ele>
        <time>2025-05-12T08:38:35Z</time>
      </trkpt>
      <trkpt lat="36.952869035303593" lon="-3.220840003341436">
        <ele>1286.8599999999999</ele>
        <time>2025-05-12T08:38:36Z</time>
      </trkpt>
      <trkpt lat="36.952964002266526" lon="-3.220690973103046">
        <ele>1287.8199999999999</ele>
        <time>2025-05-12T08:38:37Z</time>
      </trkpt>
      <trkpt lat="36.953042959794402" lon="-3.220517970621586">
        <ele>1288.78</ele>
        <time>2025-05-12T08:38:38Z</time>
      </trkpt>
      <trkpt lat="36.953215040266514" lon="-3.220156962051988">
        <ele>1290.71</ele>
        <time>2025-05-12T08:38:40Z</time>
      </trkpt>
      <trkpt lat="36.953329034149647" lon="-3.220007009804249">
        <ele>1291.6700000000001</ele>
        <time>2025-05-12T08:38:41Z</time>
      </trkpt>
      <trkpt lat="36.953433975577354" lon="-3.219869965687394">
        <ele>1293.1099999999999</ele>
        <time>2025-05-12T08:38:42Z</time>
      </trkpt>
      <trkpt lat="36.953505976125598" lon="-3.219721019268036">
        <ele>1294.0699999999999</ele>
        <time>2025-05-12T08:38:43Z</time>
      </trkpt>
      <trkpt lat="36.953556016087532" lon="-3.219546005129814">
        <ele>1295.03</ele>
        <time>2025-05-12T08:38:44Z</time>
      </trkpt>
      <trkpt lat="36.953566996380687" lon="-3.219356993213296">
        <ele>1296.48</ele>
        <time>2025-05-12T08:38:45Z</time>
      </trkpt>
      <trkpt lat="36.953566996380687" lon="-3.219164963811636">
        <ele>1297.4400000000001</ele>
        <time>2025-05-12T08:38:46Z</time>
      </trkpt>
      <trkpt lat="36.953536989167333" lon="-3.218982992693782">
        <ele>1298.4000000000001</ele>
        <time>2025-05-12T08:38:47Z</time>
      </trkpt>
      <trkpt lat="36.953474963083863" lon="-3.218808984383941">
        <ele>1299.3599999999999</ele>
        <time>2025-05-12T08:38:48Z</time>
      </trkpt>
      <trkpt lat="36.953352000564337" lon="-3.218650985509157">
        <ele>1300.8</ele>
        <time>2025-05-12T08:38:49Z</time>
      </trkpt>
      <trkpt lat="36.95323197171092" lon="-3.218550989404321">
        <ele>1301.76</ele>
        <time>2025-05-12T08:38:50Z</time>
      </trkpt>
      <trkpt lat="36.953103980049491" lon="-3.218444958329201">
        <ele>1303.2</ele>
        <time>2025-05-12T08:38:51Z</time>
      </trkpt>
      <trkpt lat="36.952995015308261" lon="-3.218353008851409">
        <ele>1305.1300000000001</ele>
        <time>2025-05-12T08:38:52Z</time>
      </trkpt>
      <trkpt lat="36.95292703807354" lon="-3.218238009139895">
        <ele>1306.5699999999999</ele>
        <time>2025-05-12T08:38:53Z</time>
      </trkpt>
      <trkpt lat="36.952911028638482" lon="-3.218103982508183">
        <ele>1307.53</ele>
        <time>2025-05-12T08:38:54Z</time>
      </trkpt>
      <trkpt lat="36.952931983396411" lon="-3.217944977805018">
        <ele>1308.49</ele>
        <time>2025-05-12T08:38:55Z</time>
      </trkpt>
      <trkpt lat="36.952955033630133" lon="-3.217764012515545">
        <ele>1308.97</ele>
        <time>2025-05-12T08:38:56Z</time>
      </trkpt>
      <trkpt lat="36.952999960631132" lon="-3.217578018084168">
        <ele>1309.45</ele>
        <time>2025-05-12T08:38:57Z</time>
      </trkpt>
      <trkpt lat="36.953061986714602" lon="-3.217381965368986">
        <ele>1309.9300000000001</ele>
        <time>2025-05-12T08:38:58Z</time>
      </trkpt>
      <trkpt lat="36.953441016376019" lon="-3.216620972380042">
        <ele>1311.8599999999999</ele>
        <time>2025-05-12T08:39:02Z</time>
      </trkpt>
      <trkpt lat="36.953542018309236" lon="-3.216459034010768">
        <ele>1311.8599999999999</ele>
        <time>2025-05-12T08:39:03Z</time>
      </trkpt>
      <trkpt lat="36.953664980828762" lon="-3.216363983228803">
        <ele>1312.3399999999999</ele>
        <time>2025-05-12T08:39:04Z</time>
      </trkpt>
      <trkpt lat="36.953799007460475" lon="-3.216287959367037">
        <ele>1312.3399999999999</ele>
        <time>2025-05-12T08:39:05Z</time>
      </trkpt>
      <trkpt lat="36.953914007171988" lon="-3.21622702293098">
        <ele>1312.8199999999999</ele>
        <time>2025-05-12T08:39:06Z</time>
      </trkpt>
      <trkpt lat="36.954038981348276" lon="-3.216242026537657">
        <ele>1312.8199999999999</ele>
        <time>2025-05-12T08:39:07Z</time>
      </trkpt>
      <trkpt lat="36.95415398105979" lon="-3.216283014044166">
        <ele>1313.3</ele>
        <time>2025-05-12T08:39:08Z</time>
      </trkpt>
      <trkpt lat="36.954281972721219" lon="-3.216345040127635">
        <ele>1313.78</ele>
        <time>2025-05-12T08:39:09Z</time>
      </trkpt>
      <trkpt lat="36.9545610062778" lon="-3.216479988768697">
        <ele>1315.22</ele>
        <time>2025-05-12T08:39:11Z</time>
      </trkpt>
      <trkpt lat="36.954710958525538" lon="-3.21655198931694">
        <ele>1316.1800000000001</ele>
        <time>2025-05-12T08:39:12Z</time>
      </trkpt>
      <trkpt lat="36.955045983195305" lon="-3.216621978208423">
        <ele>1317.6199999999999</ele>
        <time>2025-05-12T08:39:14Z</time>
      </trkpt>
      <trkpt lat="36.955216974020004" lon="-3.216624995693564">
        <ele>1318.5899999999999</ele>
        <time>2025-05-12T08:39:15Z</time>
      </trkpt>
      <trkpt lat="36.955538000911474" lon="-3.216598005965352">
        <ele>1320.51</ele>
        <time>2025-05-12T08:39:17Z</time>
      </trkpt>
      <trkpt lat="36.955658029764891" lon="-3.216565987095237">
        <ele>1321.47</ele>
        <time>2025-05-12T08:39:18Z</time>
      </trkpt>
      <trkpt lat="36.955760037526488" lon="-3.21648602373898">
        <ele>1322.4300000000001</ele>
        <time>2025-05-12T08:39:19Z</time>
      </trkpt>
      <trkpt lat="36.955977967008948" lon="-3.21631302125752">
        <ele>1324.3499999999999</ele>
        <time>2025-05-12T08:39:21Z</time>
      </trkpt>
      <trkpt lat="36.956104030832648" lon="-3.216238003224134">
        <ele>1325.3099999999999</ele>
        <time>2025-05-12T08:39:22Z</time>
      </trkpt>
      <trkpt lat="36.956226993352175" lon="-3.216183017939329">
        <ele>1326.28</ele>
        <time>2025-05-12T08:39:23Z</time>
      </trkpt>
      <trkpt lat="36.956355990841985" lon="-3.216198021546006">
        <ele>1326.76</ele>
        <time>2025-05-12T08:39:24Z</time>
      </trkpt>
      <trkpt lat="36.956479959189892" lon="-3.216233979910612">
        <ele>1327.72</ele>
        <time>2025-05-12T08:39:25Z</time>
      </trkpt>
      <trkpt lat="36.956609040498734" lon="-3.216299023479223">
        <ele>1328.6800000000001</ele>
        <time>2025-05-12T08:39:26Z</time>
      </trkpt>
      <trkpt lat="36.956994021311402" lon="-3.21650798432529">
        <ele>1331.0799999999999</ele>
        <time>2025-05-12T08:39:29Z</time>
      </trkpt>
      <trkpt lat="36.957122012972832" lon="-3.216542014852166">
        <ele>1331.5599999999999</ele>
        <time>2025-05-12T08:39:30Z</time>
      </trkpt>
      <trkpt lat="36.957243969663978" lon="-3.21652801707387">
        <ele>1331.5599999999999</ele>
        <time>2025-05-12T08:39:31Z</time>
      </trkpt>
      <trkpt lat="36.957370033487678" lon="-3.216514019295573">
        <ele>1331.5599999999999</ele>
        <time>2025-05-12T08:39:32Z</time>
      </trkpt>
      <trkpt lat="36.957498025149107" lon="-3.216498009860516">
        <ele>1331.5599999999999</ele>
        <time>2025-05-12T08:39:33Z</time>
      </trkpt>
      <trkpt lat="36.957601038739085" lon="-3.216484012082219">
        <ele>1331.0799999999999</ele>
        <time>2025-05-12T08:39:34Z</time>
      </trkpt>
      <trkpt lat="36.957697011530399" lon="-3.216387033462524">
        <ele>1330.5999999999999</ele>
        <time>2025-05-12T08:39:35Z</time>
      </trkpt>
      <trkpt lat="36.957745961844921" lon="-3.216262981295586">
        <ele>1330.1199999999999</ele>
        <time>2025-05-12T08:39:36Z</time>
      </trkpt>
      <trkpt lat="36.957788961008191" lon="-3.216131972149015">
        <ele>1329.6400000000001</ele>
        <time>2025-05-12T08:39:37Z</time>
      </trkpt>
      <trkpt lat="36.957793990150094" lon="-3.215996017679572">
        <ele>1329.6400000000001</ele>
        <time>2025-05-12T08:39:38Z</time>
      </trkpt>
      <trkpt lat="36.957755014300346" lon="-3.215890992432833">
        <ele>1329.6400000000001</ele>
        <time>2025-05-12T08:39:39Z</time>
      </trkpt>
      <trkpt lat="36.957690976560116" lon="-3.215810023248196">
        <ele>1329.6400000000001</ele>
        <time>2025-05-12T08:39:40Z</time>
      </trkpt>
      <trkpt lat="36.957598021253943" lon="-3.215738022699952">
        <ele>1330.1199999999999</ele>
        <time>2025-05-12T08:39:41Z</time>
      </trkpt>
      <trkpt lat="36.957498025149107" lon="-3.215659987181425">
        <ele>1330.5999999999999</ele>
        <time>2025-05-12T08:39:42Z</time>
      </trkpt>
      <trkpt lat="36.957389982417226" lon="-3.215576000511646">
        <ele>1331.0799999999999</ele>
        <time>2025-05-12T08:39:43Z</time>
      </trkpt>
      <trkpt lat="36.957293003797531" lon="-3.215454965829849">
        <ele>1331.0799999999999</ele>
        <time>2025-05-12T08:39:44Z</time>
      </trkpt>
      <trkpt lat="36.957213962450624" lon="-3.21532404050231">
        <ele>1331.5599999999999</ele>
        <time>2025-05-12T08:39:45Z</time>
      </trkpt>
      <trkpt lat="36.957165012136102" lon="-3.215178027749062">
        <ele>1332.04</ele>
        <time>2025-05-12T08:39:46Z</time>
      </trkpt>
      <trkpt lat="36.957115978002548" lon="-3.215028997510672">
        <ele>1333.01</ele>
        <time>2025-05-12T08:39:47Z</time>
      </trkpt>
      <trkpt lat="36.957064010202885" lon="-3.21487401612103">
        <ele>1333.97</ele>
        <time>2025-05-12T08:39:48Z</time>
      </trkpt>
      <trkpt lat="36.956950016319752" lon="-3.214785000309348">
        <ele>1334.45</ele>
        <time>2025-05-12T08:39:49Z</time>
      </trkpt>
      <trkpt lat="36.956826969981194" lon="-3.214689027518034">
        <ele>1335.8900000000001</ele>
        <time>2025-05-12T08:39:50Z</time>
      </trkpt>
      <trkpt lat="36.956700989976525" lon="-3.214590037241578">
        <ele>1336.8499999999999</ele>
        <time>2025-05-12T08:39:51Z</time>
      </trkpt>
      <trkpt lat="36.956572998315096" lon="-3.214490041136742">
        <ele>1337.8099999999999</ele>
        <time>2025-05-12T08:39:52Z</time>
      </trkpt>
      <trkpt lat="36.956468978896737" lon="-3.214352997019887">
        <ele>1338.29</ele>
        <time>2025-05-12T08:39:53Z</time>
      </trkpt>
      <trkpt lat="36.956365965306759" lon="-3.214216036722064">
        <ele>1339.25</ele>
        <time>2025-05-12T08:39:54Z</time>
      </trkpt>
      <trkpt lat="36.956278961151838" lon="-3.214063988998532">
        <ele>1340.22</ele>
        <time>2025-05-12T08:39:55Z</time>
      </trkpt>
      <trkpt lat="36.956206038594246" lon="-3.213886963203549">
        <ele>1341.6600000000001</ele>
        <time>2025-05-12T08:39:56Z</time>
      </trkpt>
      <trkpt lat="36.956169996410608" lon="-3.213732987642288">
        <ele>1342.6199999999999</ele>
        <time>2025-05-12T08:39:57Z</time>
      </trkpt>
      <trkpt lat="36.956138983368874" lon="-3.213545987382531">
        <ele>1344.0599999999999</ele>
        <time>2025-05-12T08:39:58Z</time>
      </trkpt>
      <trkpt lat="36.956105958670378" lon="-3.212761022150517">
        <ele>1348.8699999999999</ele>
        <time>2025-05-12T08:40:02Z</time>
      </trkpt>
      <trkpt lat="36.956103025004268" lon="-3.212552983313799">
        <ele>1350.3099999999999</ele>
        <time>2025-05-12T08:40:03Z</time>
      </trkpt>
      <trkpt lat="36.956142000854015" lon="-3.212352991104126">
        <ele>1351.75</ele>
        <time>2025-05-12T08:40:04Z</time>
      </trkpt>
      <trkpt lat="36.956177037209272" lon="-3.212164985015988">
        <ele>1353.1900000000001</ele>
        <time>2025-05-12T08:40:05Z</time>
      </trkpt>
      <trkpt lat="36.956245014443994" lon="-3.212006986141205">
        <ele>1354.6300000000001</ele>
        <time>2025-05-12T08:40:06Z</time>
      </trkpt>
      <trkpt lat="36.956322966143489" lon="-3.211872037500143">
        <ele>1356.0799999999999</ele>
        <time>2025-05-12T08:40:07Z</time>
      </trkpt>
      <trkpt lat="36.956411981955171" lon="-3.21175703778863">
        <ele>1357.04</ele>
        <time>2025-05-12T08:40:08Z</time>
      </trkpt>
      <trkpt lat="36.956506026908755" lon="-3.211633991450071">
        <ele>1358</ele>
        <time>2025-05-12T08:40:09Z</time>
      </trkpt>
      <trkpt lat="36.956536034122109" lon="-3.21150197647512">
        <ele>1358.96</ele>
        <time>2025-05-12T08:40:10Z</time>
      </trkpt>
      <trkpt lat="36.956572998315096" lon="-3.211339032277465">
        <ele>1359.9200000000001</ele>
        <time>2025-05-12T08:40:11Z</time>
      </trkpt>
      <trkpt lat="36.956655979156494" lon="-3.210968971252441">
        <ele>1361.8399999999999</ele>
        <time>2025-05-12T08:40:13Z</time>
      </trkpt>
      <trkpt lat="36.956665031611919" lon="-3.210794040933251">
        <ele>1362.8099999999999</ele>
        <time>2025-05-12T08:40:14Z</time>
      </trkpt>
      <trkpt lat="36.956675006076694" lon="-3.210605029016733">
        <ele>1363.77</ele>
        <time>2025-05-12T08:40:15Z</time>
      </trkpt>
      <trkpt lat="36.956727979704738" lon="-3.21042800322175">
        <ele>1365.21</ele>
        <time>2025-05-12T08:40:16Z</time>
      </trkpt>
      <trkpt lat="36.956802997738123" lon="-3.210263969376683">
        <ele>1365.6900000000001</ele>
        <time>2025-05-12T08:40:17Z</time>
      </trkpt>
      <trkpt lat="36.956869969144464" lon="-3.210115022957325">
        <ele>1367.1300000000001</ele>
        <time>2025-05-12T08:40:18Z</time>
      </trkpt>
      <trkpt lat="36.956929983571172" lon="-3.209980996325612">
        <ele>1368.0899999999999</ele>
        <time>2025-05-12T08:40:19Z</time>
      </trkpt>
      <trkpt lat="36.956977006047964" lon="-3.209865996614099">
        <ele>1368.5699999999999</ele>
        <time>2025-05-12T08:40:20Z</time>
      </trkpt>
      <trkpt lat="36.956957979127765" lon="-3.209729958325625">
        <ele>1369.54</ele>
        <time>2025-05-12T08:40:21Z</time>
      </trkpt>
      <trkpt lat="36.956938030198216" lon="-3.209592998027802">
        <ele>1370.5</ele>
        <time>2025-05-12T08:40:22Z</time>
      </trkpt>
      <trkpt lat="36.956916991621256" lon="-3.209447991102934">
        <ele>1371.46</ele>
        <time>2025-05-12T08:40:23Z</time>
      </trkpt>
      <trkpt lat="36.956939036026597" lon="-3.209284041076899">
        <ele>1372.4200000000001</ele>
        <time>2025-05-12T08:40:24Z</time>
      </trkpt>
      <trkpt lat="36.956992009654641" lon="-3.209128975868225">
        <ele>1373.3800000000001</ele>
        <time>2025-05-12T08:40:25Z</time>
      </trkpt>
      <trkpt lat="36.957080019637942" lon="-3.208982041105628">
        <ele>1374.3399999999999</ele>
        <time>2025-05-12T08:40:26Z</time>
      </trkpt>
      <trkpt lat="36.957175992429256" lon="-3.208823036402464">
        <ele>1375.3</ele>
        <time>2025-05-12T08:40:27Z</time>
      </trkpt>
      <trkpt lat="36.957370033487678" lon="-3.208499997854233">
        <ele>1377.71</ele>
        <time>2025-05-12T08:40:29Z</time>
      </trkpt>
      <trkpt lat="36.957454020157456" lon="-3.208359014242888">
        <ele>1378.6700000000001</ele>
        <time>2025-05-12T08:40:30Z</time>
      </trkpt>
      <trkpt lat="36.957498025149107" lon="-3.208209984004498">
        <ele>1379.6300000000001</ele>
        <time>2025-05-12T08:40:31Z</time>
      </trkpt>
      <trkpt lat="36.957504982128739" lon="-3.208047961816192">
        <ele>1380.1099999999999</ele>
        <time>2025-05-12T08:40:32Z</time>
      </trkpt>
      <trkpt lat="36.957486961036921" lon="-3.207874037325382">
        <ele>1381.0699999999999</ele>
        <time>2025-05-12T08:40:33Z</time>
      </trkpt>
      <trkpt lat="36.957468017935753" lon="-3.207701034843922">
        <ele>1382.03</ele>
        <time>2025-05-12T08:40:34Z</time>
      </trkpt>
      <trkpt lat="36.957449996843934" lon="-3.207535995170474">
        <ele>1382.99</ele>
        <time>2025-05-12T08:40:35Z</time>
      </trkpt>
      <trkpt lat="36.957500958815217" lon="-3.20739702321589">
        <ele>1383.96</ele>
        <time>2025-05-12T08:40:36Z</time>
      </trkpt>
      <trkpt lat="36.957566002383828" lon="-3.207252016291022">
        <ele>1384.4400000000001</ele>
        <time>2025-05-12T08:40:37Z</time>
      </trkpt>
      <trkpt lat="36.95765501819551" lon="-3.207112038508058">
        <ele>1385.4000000000001</ele>
        <time>2025-05-12T08:40:38Z</time>
      </trkpt>
      <trkpt lat="36.957764988765121" lon="-3.206984968855977">
        <ele>1385.8800000000001</ele>
        <time>2025-05-12T08:40:39Z</time>
      </trkpt>
      <trkpt lat="36.957879988476634" lon="-3.206869969144464">
        <ele>1385.8800000000001</ele>
        <time>2025-05-12T08:40:40Z</time>
      </trkpt>
      <trkpt lat="36.957987025380135" lon="-3.206763016059995">
        <ele>1386.3599999999999</ele>
        <time>2025-05-12T08:40:41Z</time>
      </trkpt>
      <trkpt lat="36.95821400731802" lon="-3.206596970558167">
        <ele>1386.3599999999999</ele>
        <time>2025-05-12T08:40:43Z</time>
      </trkpt>
      <trkpt lat="36.958307968452573" lon="-3.206527987495065">
        <ele>1386.3599999999999</ele>
        <time>2025-05-12T08:40:44Z</time>
      </trkpt>
      <trkpt lat="36.958421962335706" lon="-3.20651700720191">
        <ele>1386.3599999999999</ele>
        <time>2025-05-12T08:40:45Z</time>
      </trkpt>
      <trkpt lat="36.95870703086257" lon="-3.206491023302078">
        <ele>1385.4000000000001</ele>
        <time>2025-05-12T08:40:47Z</time>
      </trkpt>
      <trkpt lat="36.958849020302296" lon="-3.206448024138808">
        <ele>1384.4400000000001</ele>
        <time>2025-05-12T08:40:48Z</time>
      </trkpt>
      <trkpt lat="36.958981035277247" lon="-3.206378035247326">
        <ele>1383.47</ele>
        <time>2025-05-12T08:40:49Z</time>
      </trkpt>
      <trkpt lat="36.959102991968393" lon="-3.206312991678715">
        <ele>1382.51</ele>
        <time>2025-05-12T08:40:50Z</time>
      </trkpt>
      <trkpt lat="36.959255961701274" lon="-3.206297988072038">
        <ele>1381.55</ele>
        <time>2025-05-12T08:40:51Z</time>
      </trkpt>
      <trkpt lat="36.959415972232819" lon="-3.206282984465361">
        <ele>1380.1099999999999</ele>
        <time>2025-05-12T08:40:52Z</time>
      </trkpt>
      <trkpt lat="36.959553016349673" lon="-3.206269992515445">
        <ele>1378.6700000000001</ele>
        <time>2025-05-12T08:40:53Z</time>
      </trkpt>
      <trkpt lat="36.959673967212439" lon="-3.206201009452343">
        <ele>1377.23</ele>
        <time>2025-05-12T08:40:54Z</time>
      </trkpt>
      <trkpt lat="36.959727024659514" lon="-3.206112999469042">
        <ele>1375.78</ele>
        <time>2025-05-12T08:40:55Z</time>
      </trkpt>
      <trkpt lat="36.959768012166023" lon="-3.205990958958864">
        <ele>1374.3399999999999</ele>
        <time>2025-05-12T08:40:56Z</time>
      </trkpt>
      <trkpt lat="36.959738004952669" lon="-3.205904960632324">
        <ele>1372.9000000000001</ele>
        <time>2025-05-12T08:40:57Z</time>
      </trkpt>
      <trkpt lat="36.959692994132638" lon="-3.205779986456037">
        <ele>1371.46</ele>
        <time>2025-05-12T08:40:58Z</time>
      </trkpt>
      <trkpt lat="36.959645971655846" lon="-3.205646965652704">
        <ele>1370.5</ele>
        <time>2025-05-12T08:40:59Z</time>
      </trkpt>
      <trkpt lat="36.959629962220788" lon="-3.205504976212978">
        <ele>1369.54</ele>
        <time>2025-05-12T08:41:00Z</time>
      </trkpt>
      <trkpt lat="36.959617976099253" lon="-3.205346977338195">
        <ele>1368.0899999999999</ele>
        <time>2025-05-12T08:41:01Z</time>
      </trkpt>
      <trkpt lat="36.959678996354342" lon="-3.205213034525514">
        <ele>1367.1300000000001</ele>
        <time>2025-05-12T08:41:02Z</time>
      </trkpt>
      <trkpt lat="36.959764994680882" lon="-3.205060986801982">
        <ele>1365.6900000000001</ele>
        <time>2025-05-12T08:41:03Z</time>
      </trkpt>
      <trkpt lat="36.959873959422112" lon="-3.20492603816092">
        <ele>1364.25</ele>
        <time>2025-05-12T08:41:04Z</time>
      </trkpt>
      <trkpt lat="36.959982002153993" lon="-3.204794023185968">
        <ele>1363.29</ele>
        <time>2025-05-12T08:41:05Z</time>
      </trkpt>
      <trkpt lat="36.960080992430449" lon="-3.20467097684741">
        <ele>1361.8399999999999</ele>
        <time>2025-05-12T08:41:06Z</time>
      </trkpt>
      <trkpt lat="36.960115022957325" lon="-3.204528987407684">
        <ele>1360.4000000000001</ele>
        <time>2025-05-12T08:41:07Z</time>
      </trkpt>
      <trkpt lat="36.960142012685537" lon="-3.204385992139578">
        <ele>1359.4400000000001</ele>
        <time>2025-05-12T08:41:08Z</time>
      </trkpt>
      <trkpt lat="36.960175037384033" lon="-3.204209972172976">
        <ele>1358.48</ele>
        <time>2025-05-12T08:41:09Z</time>
      </trkpt>
      <trkpt lat="36.960239997133613" lon="-3.204103019088507">
        <ele>1357.52</ele>
        <time>2025-05-12T08:41:10Z</time>
      </trkpt>
      <trkpt lat="36.960338987410069" lon="-3.204004028812051">
        <ele>1357.52</ele>
        <time>2025-05-12T08:41:11Z</time>
      </trkpt>
      <trkpt lat="36.96044996380806" lon="-3.203892968595028">
        <ele>1357.04</ele>
        <time>2025-05-12T08:41:12Z</time>
      </trkpt>
      <trkpt lat="36.960568986833096" lon="-3.203774029389024">
        <ele>1356.5599999999999</ele>
        <time>2025-05-12T08:41:13Z</time>
      </trkpt>
      <trkpt lat="36.960692033171654" lon="-3.203650983050466">
        <ele>1356.0799999999999</ele>
        <time>2025-05-12T08:41:14Z</time>
      </trkpt>
      <trkpt lat="36.960816001519561" lon="-3.203526008874178">
        <ele>1355.5999999999999</ele>
        <time>2025-05-12T08:41:15Z</time>
      </trkpt>
      <trkpt lat="36.960968971252441" lon="-3.203453002497554">
        <ele>1355.1199999999999</ele>
        <time>2025-05-12T08:41:16Z</time>
      </trkpt>
      <trkpt lat="36.961113978177309" lon="-3.203398017212749">
        <ele>1354.1500000000001</ele>
        <time>2025-05-12T08:41:17Z</time>
      </trkpt>
      <trkpt lat="36.9612439814955" lon="-3.203347977250814">
        <ele>1353.6700000000001</ele>
        <time>2025-05-12T08:41:18Z</time>
      </trkpt>
      <trkpt lat="36.961351018399" lon="-3.203283017501235">
        <ele>1352.71</ele>
        <time>2025-05-12T08:41:19Z</time>
      </trkpt>
      <trkpt lat="36.961423018947244" lon="-3.203174974769354">
        <ele>1352.23</ele>
        <time>2025-05-12T08:41:20Z</time>
      </trkpt>
      <trkpt lat="36.961472975090146" lon="-3.203029967844486">
        <ele>1351.75</ele>
        <time>2025-05-12T08:41:21Z</time>
      </trkpt>
      <trkpt lat="36.961529972031713" lon="-3.202868029475212">
        <ele>1351.27</ele>
        <time>2025-05-12T08:41:22Z</time>
      </trkpt>
      <trkpt lat="36.961648995056748" lon="-3.202527975663543">
        <ele>1350.3099999999999</ele>
        <time>2025-05-12T08:41:24Z</time>
      </trkpt>
      <trkpt lat="36.96169501170516" lon="-3.202341981232166">
        <ele>1349.8299999999999</ele>
        <time>2025-05-12T08:41:25Z</time>
      </trkpt>
      <trkpt lat="36.961679002270103" lon="-3.202139977365732">
        <ele>1349.3499999999999</ele>
        <time>2025-05-12T08:41:26Z</time>
      </trkpt>
      <trkpt lat="36.961614964529872" lon="-3.201931016519666">
        <ele>1348.8699999999999</ele>
        <time>2025-05-12T08:41:27Z</time>
      </trkpt>
      <trkpt lat="36.961550004780293" lon="-3.201723983511329">
        <ele>1348.8699999999999</ele>
        <time>2025-05-12T08:41:28Z</time>
      </trkpt>
      <trkpt lat="36.961426958441734" lon="-3.201549975201488">
        <ele>1348.3900000000001</ele>
        <time>2025-05-12T08:41:29Z</time>
      </trkpt>
      <trkpt lat="36.961311036720872" lon="-3.201386025175452">
        <ele>1348.3900000000001</ele>
        <time>2025-05-12T08:41:30Z</time>
      </trkpt>
      <trkpt lat="36.961199976503849" lon="-3.201229032129049">
        <ele>1347.9100000000001</ele>
        <time>2025-05-12T08:41:31Z</time>
      </trkpt>
      <trkpt lat="36.961091011762619" lon="-3.201075978577137">
        <ele>1347.9100000000001</ele>
        <time>2025-05-12T08:41:32Z</time>
      </trkpt>
      <trkpt lat="36.960999984294176" lon="-3.200913034379482">
        <ele>1347.9100000000001</ele>
        <time>2025-05-12T08:41:33Z</time>
      </trkpt>
      <trkpt lat="36.960918009281158" lon="-3.200756963342428">
        <ele>1347.4300000000001</ele>
        <time>2025-05-12T08:41:34Z</time>
      </trkpt>
      <trkpt lat="36.960894037038088" lon="-3.20060801692307">
        <ele>1346.9400000000001</ele>
        <time>2025-05-12T08:41:35Z</time>
      </trkpt>
      <trkpt lat="36.960891019552946" lon="-3.200484970584512">
        <ele>1346.46</ele>
        <time>2025-05-12T08:41:36Z</time>
      </trkpt>
      <trkpt lat="36.960956985130906" lon="-3.200370976701379">
        <ele>1346.46</ele>
        <time>2025-05-12T08:41:37Z</time>
      </trkpt>
      <trkpt lat="36.961034014821053" lon="-3.200239967554808">
        <ele>1345.5</ele>
        <time>2025-05-12T08:41:38Z</time>
      </trkpt>
      <trkpt lat="36.961142979562283" lon="-3.200154975056648">
        <ele>1344.54</ele>
        <time>2025-05-12T08:41:39Z</time>
      </trkpt>
      <trkpt lat="36.961271977052093" lon="-3.200057996436954">
        <ele>1343.5799999999999</ele>
        <time>2025-05-12T08:41:40Z</time>
      </trkpt>
      <trkpt lat="36.961999023333192" lon="-3.199575031176209">
        <ele>1337.8099999999999</ele>
        <time>2025-05-12T08:41:45Z</time>
      </trkpt>
      <trkpt lat="36.962164985015988" lon="-3.199536977335811">
        <ele>1336.3699999999999</ele>
        <time>2025-05-12T08:41:46Z</time>
      </trkpt>
      <trkpt lat="36.962327007204294" lon="-3.199501018971205">
        <ele>1334.9300000000001</ele>
        <time>2025-05-12T08:41:47Z</time>
      </trkpt>
      <trkpt lat="36.962471008300781" lon="-3.199467994272709">
        <ele>1333.97</ele>
        <time>2025-05-12T08:41:48Z</time>
      </trkpt>
      <trkpt lat="36.962641999125481" lon="-3.199349977076054">
        <ele>1333.01</ele>
        <time>2025-05-12T08:41:49Z</time>
      </trkpt>
      <trkpt lat="36.962778959423304" lon="-3.199240006506443">
        <ele>1332.04</ele>
        <time>2025-05-12T08:41:50Z</time>
      </trkpt>
      <trkpt lat="36.962885996326804" lon="-3.199093993753195">
        <ele>1331.0799999999999</ele>
        <time>2025-05-12T08:41:51Z</time>
      </trkpt>
      <trkpt lat="36.962974006310105" lon="-3.198937000706792">
        <ele>1330.1199999999999</ele>
        <time>2025-05-12T08:41:52Z</time>
      </trkpt>
      <trkpt lat="36.963052963837981" lon="-3.198795011267066">
        <ele>1328.6800000000001</ele>
        <time>2025-05-12T08:41:53Z</time>
      </trkpt>
      <trkpt lat="36.963138962164521" lon="-3.198693003505468">
        <ele>1326.76</ele>
        <time>2025-05-12T08:41:54Z</time>
      </trkpt>
      <trkpt lat="36.963248010724783" lon="-3.19860901683569">
        <ele>1325.3099999999999</ele>
        <time>2025-05-12T08:41:55Z</time>
      </trkpt>
      <trkpt lat="36.963868020102382" lon="-3.198325959965587">
        <ele>1318.0999999999999</ele>
        <time>2025-05-12T08:41:59Z</time>
      </trkpt>
      <trkpt lat="36.964002968743443" lon="-3.198233004659414">
        <ele>1316.1800000000001</ele>
        <time>2025-05-12T08:42:00Z</time>
      </trkpt>
      <trkpt lat="36.964110005646944" lon="-3.198118004947901">
        <ele>1314.74</ele>
        <time>2025-05-12T08:42:01Z</time>
      </trkpt>
      <trkpt lat="36.964202038943768" lon="-3.198019014671445">
        <ele>1313.78</ele>
        <time>2025-05-12T08:42:02Z</time>
      </trkpt>
      <trkpt lat="36.964305974543095" lon="-3.19796402938664">
        <ele>1312.8199999999999</ele>
        <time>2025-05-12T08:42:03Z</time>
      </trkpt>
      <trkpt lat="36.964418962597847" lon="-3.197928993031383">
        <ele>1311.3800000000001</ele>
        <time>2025-05-12T08:42:04Z</time>
      </trkpt>
      <trkpt lat="36.964535973966122" lon="-3.197884988039732">
        <ele>1309.9300000000001</ele>
        <time>2025-05-12T08:42:05Z</time>
      </trkpt>
      <trkpt lat="36.964653991162777" lon="-3.197811981663108">
        <ele>1308.49</ele>
        <time>2025-05-12T08:42:06Z</time>
      </trkpt>
      <trkpt lat="36.964751975610852" lon="-3.197693964466453">
        <ele>1307.05</ele>
        <time>2025-05-12T08:42:07Z</time>
      </trkpt>
      <trkpt lat="36.964839985594153" lon="-3.197569996118546">
        <ele>1306.0899999999999</ele>
        <time>2025-05-12T08:42:08Z</time>
      </trkpt>
      <trkpt lat="36.964919026941061" lon="-3.197457008063793">
        <ele>1304.6500000000001</ele>
        <time>2025-05-12T08:42:09Z</time>
      </trkpt>
      <trkpt lat="36.965016005560756" lon="-3.197393976151943">
        <ele>1303.6900000000001</ele>
        <time>2025-05-12T08:42:10Z</time>
      </trkpt>
      <trkpt lat="36.965114995837212" lon="-3.197347959503532">
        <ele>1303.2</ele>
        <time>2025-05-12T08:42:11Z</time>
      </trkpt>
      <trkpt lat="36.965204011648893" lon="-3.197306971997023">
        <ele>1302.24</ele>
        <time>2025-05-12T08:42:12Z</time>
      </trkpt>
      <trkpt lat="36.96528104133904" lon="-3.197339996695519">
        <ele>1301.76</ele>
        <time>2025-05-12T08:42:13Z</time>
      </trkpt>
      <trkpt lat="36.96539000608027" lon="-3.19740797393024">
        <ele>1301.28</ele>
        <time>2025-05-12T08:42:14Z</time>
      </trkpt>
      <trkpt lat="36.96543401107192" lon="-3.19749103859067">
        <ele>1300.3199999999999</ele>
        <time>2025-05-12T08:42:15Z</time>
      </trkpt>
      <trkpt lat="36.965492013841867" lon="-3.197602014988661">
        <ele>1299.8399999999999</ele>
        <time>2025-05-12T08:42:16Z</time>
      </trkpt>
      <trkpt lat="36.965548004955053" lon="-3.19770896807313">
        <ele>1299.8399999999999</ele>
        <time>2025-05-12T08:42:17Z</time>
      </trkpt>
      <trkpt lat="36.965598966926336" lon="-3.197805024683476">
        <ele>1299.3599999999999</ele>
        <time>2025-05-12T08:42:18Z</time>
      </trkpt>
      <trkpt lat="36.965666022151709" lon="-3.197851963341236">
        <ele>1299.8399999999999</ele>
        <time>2025-05-12T08:42:19Z</time>
      </trkpt>
      <trkpt lat="36.96573399938643" lon="-3.197875013574958">
        <ele>1299.8399999999999</ele>
        <time>2025-05-12T08:42:20Z</time>
      </trkpt>
      <trkpt lat="36.965829972177744" lon="-3.197844000533223">
        <ele>1299.8399999999999</ele>
        <time>2025-05-12T08:42:21Z</time>
      </trkpt>
      <trkpt lat="36.965909013524652" lon="-3.197739981114864">
        <ele>1299.8399999999999</ele>
        <time>2025-05-12T08:42:22Z</time>
      </trkpt>
      <trkpt lat="36.965963998809457" lon="-3.197605032473803">
        <ele>1299.8399999999999</ele>
        <time>2025-05-12T08:42:23Z</time>
      </trkpt>
      <trkpt lat="36.966024013236165" lon="-3.197454996407032">
        <ele>1300.3199999999999</ele>
        <time>2025-05-12T08:42:24Z</time>
      </trkpt>
      <trkpt lat="36.966215958818793" lon="-3.196979993954301">
        <ele>1301.28</ele>
        <time>2025-05-12T08:42:27Z</time>
      </trkpt>
      <trkpt lat="36.966279996559024" lon="-3.196824006736279">
        <ele>1301.28</ele>
        <time>2025-05-12T08:42:28Z</time>
      </trkpt>
      <trkpt lat="36.966319978237152" lon="-3.196651004254818">
        <ele>1301.76</ele>
        <time>2025-05-12T08:42:29Z</time>
      </trkpt>
      <trkpt lat="36.96633699350059" lon="-3.196469033136964">
        <ele>1301.76</ele>
        <time>2025-05-12T08:42:30Z</time>
      </trkpt>
      <trkpt lat="36.966353002935648" lon="-3.196284966543317">
        <ele>1301.76</ele>
        <time>2025-05-12T08:42:31Z</time>
      </trkpt>
      <trkpt lat="36.966370018199086" lon="-3.19609897211194">
        <ele>1301.76</ele>
        <time>2025-05-12T08:42:32Z</time>
      </trkpt>
      <trkpt lat="36.966386027634144" lon="-3.195918006822467">
        <ele>1301.76</ele>
        <time>2025-05-12T08:42:33Z</time>
      </trkpt>
      <trkpt lat="36.966411005705595" lon="-3.195745004341006">
        <ele>1301.76</ele>
        <time>2025-05-12T08:42:34Z</time>
      </trkpt>
      <trkpt lat="36.96646498516202" lon="-3.195599997416139">
        <ele>1302.24</ele>
        <time>2025-05-12T08:42:35Z</time>
      </trkpt>
      <trkpt lat="36.966516030952334" lon="-3.195466976612806">
        <ele>1302.24</ele>
        <time>2025-05-12T08:42:36Z</time>
      </trkpt>
      <trkpt lat="36.966564981266856" lon="-3.195337979122996">
        <ele>1302.24</ele>
        <time>2025-05-12T08:42:37Z</time>
      </trkpt>
      <trkpt lat="36.966647040098906" lon="-3.195239994674921">
        <ele>1301.76</ele>
        <time>2025-05-12T08:42:38Z</time>
      </trkpt>
      <trkpt lat="36.966742007061839" lon="-3.195133041590452">
        <ele>1301.76</ele>
        <time>2025-05-12T08:42:39Z</time>
      </trkpt>
      <trkpt lat="36.966837979853153" lon="-3.195051988586783">
        <ele>1301.28</ele>
        <time>2025-05-12T08:42:40Z</time>
      </trkpt>
      <trkpt lat="36.967073008418083" lon="-3.194854008033872">
        <ele>1300.3199999999999</ele>
        <time>2025-05-12T08:42:42Z</time>
      </trkpt>
      <trkpt lat="36.967188008129597" lon="-3.194738002493978">
        <ele>1299.8399999999999</ele>
        <time>2025-05-12T08:42:43Z</time>
      </trkpt>
      <trkpt lat="36.967291021719575" lon="-3.194600958377123">
        <ele>1298.8800000000001</ele>
        <time>2025-05-12T08:42:44Z</time>
      </trkpt>
      <trkpt lat="36.968246977776289" lon="-3.193407040089369">
        <ele>1291.6700000000001</ele>
        <time>2025-05-12T08:42:53Z</time>
      </trkpt>
      <trkpt lat="36.968544032424688" lon="-3.193073021247983">
        <ele>1289.75</ele>
        <time>2025-05-12T08:42:56Z</time>
      </trkpt>
      <trkpt lat="36.968668000772595" lon="-3.193031027913094">
        <ele>1289.27</ele>
        <time>2025-05-12T08:42:57Z</time>
      </trkpt>
      <trkpt lat="36.969523038715124" lon="-3.192740008234978">
        <ele>1285.4200000000001</ele>
        <time>2025-05-12T08:43:05Z</time>
      </trkpt>
      <trkpt lat="36.969614988192916" lon="-3.192735984921455">
        <ele>1284.46</ele>
        <time>2025-05-12T08:43:06Z</time>
      </trkpt>
      <trkpt lat="36.969696963205934" lon="-3.1927440315485">
        <ele>1283.98</ele>
        <time>2025-05-12T08:43:07Z</time>
      </trkpt>
      <trkpt lat="36.969768041744828" lon="-3.192749982699752">
        <ele>1283.5</ele>
        <time>2025-05-12T08:43:08Z</time>
      </trkpt>
      <trkpt lat="36.969842975959182" lon="-3.192758029326797">
        <ele>1282.54</ele>
        <time>2025-05-12T08:43:09Z</time>
      </trkpt>
      <trkpt lat="36.969925034791231" lon="-3.192764986306429">
        <ele>1282.0599999999999</ele>
        <time>2025-05-12T08:43:10Z</time>
      </trkpt>
      <trkpt lat="36.970002986490726" lon="-3.192773032933474">
        <ele>1281.0899999999999</ele>
        <time>2025-05-12T08:43:11Z</time>
      </trkpt>
      <trkpt lat="36.970053026452661" lon="-3.192725004628301">
        <ele>1280.1300000000001</ele>
        <time>2025-05-12T08:43:12Z</time>
      </trkpt>
      <trkpt lat="36.970121003687382" lon="-3.19266096688807">
        <ele>1279.6500000000001</ele>
        <time>2025-05-12T08:43:13Z</time>
      </trkpt>
      <trkpt lat="36.970194010064006" lon="-3.192591983824968">
        <ele>1278.6900000000001</ele>
        <time>2025-05-12T08:43:14Z</time>
      </trkpt>
      <trkpt lat="36.970268022269011" lon="-3.192521994933486">
        <ele>1278.21</ele>
        <time>2025-05-12T08:43:15Z</time>
      </trkpt>
      <trkpt lat="36.970341028645635" lon="-3.192453011870384">
        <ele>1277.25</ele>
        <time>2025-05-12T08:43:16Z</time>
      </trkpt>
      <trkpt lat="36.970421997830272" lon="-3.19238000549376">
        <ele>1276.77</ele>
        <time>2025-05-12T08:43:17Z</time>
      </trkpt>
      <trkpt lat="36.970629030838609" lon="-3.19227397441864">
        <ele>1274.8499999999999</ele>
        <time>2025-05-12T08:43:19Z</time>
      </trkpt>
      <trkpt lat="36.970729026943445" lon="-3.192252013832331">
        <ele>1274.3599999999999</ele>
        <time>2025-05-12T08:43:20Z</time>
      </trkpt>
      <trkpt lat="36.970829023048282" lon="-3.192239021882415">
        <ele>1273.4000000000001</ele>
        <time>2025-05-12T08:43:21Z</time>
      </trkpt>
      <trkpt lat="36.971029015257955" lon="-3.192256037145853">
        <ele>1271.48</ele>
        <time>2025-05-12T08:43:23Z</time>
      </trkpt>
      <trkpt lat="36.971109984442592" lon="-3.192234998568893">
        <ele>1270.52</ele>
        <time>2025-05-12T08:43:24Z</time>
      </trkpt>
      <trkpt lat="36.971197994425893" lon="-3.192198034375906">
        <ele>1269.5599999999999</ele>
        <time>2025-05-12T08:43:25Z</time>
      </trkpt>
      <trkpt lat="36.971271000802517" lon="-3.192168027162552">
        <ele>1269.0799999999999</ele>
        <time>2025-05-12T08:43:26Z</time>
      </trkpt>
      <trkpt lat="36.971311988309026" lon="-3.192151011899114">
        <ele>1268.1199999999999</ele>
        <time>2025-05-12T08:43:27Z</time>
      </trkpt>
      <trkpt lat="36.971335038542747" lon="-3.192110024392605">
        <ele>1267.1600000000001</ele>
        <time>2025-05-12T08:43:28Z</time>
      </trkpt>
      <trkpt lat="36.971366973593831" lon="-3.1920550391078">
        <ele>1266.6700000000001</ele>
        <time>2025-05-12T08:43:29Z</time>
      </trkpt>
      <trkpt lat="36.971397986635566" lon="-3.191999970003963">
        <ele>1265.71</ele>
        <time>2025-05-12T08:43:30Z</time>
      </trkpt>
      <trkpt lat="36.971376026049256" lon="-3.191893016919494">
        <ele>1265.23</ele>
        <time>2025-05-12T08:43:31Z</time>
      </trkpt>
      <trkpt lat="36.971327997744083" lon="-3.191854041069746">
        <ele>1264.27</ele>
        <time>2025-05-12T08:43:32Z</time>
      </trkpt>
      <trkpt lat="36.97123596444726" lon="-3.19182101637125">
        <ele>1263.3099999999999</ele>
        <time>2025-05-12T08:43:33Z</time>
      </trkpt>
      <trkpt lat="36.971154995262623" lon="-3.191853035241365">
        <ele>1263.3099999999999</ele>
        <time>2025-05-12T08:43:34Z</time>
      </trkpt>
      <trkpt lat="36.971062961965799" lon="-3.191889999434352">
        <ele>1263.3099999999999</ele>
        <time>2025-05-12T08:43:35Z</time>
      </trkpt>
      <trkpt lat="36.970963971689343" lon="-3.1919289752841">
        <ele>1262.8299999999999</ele>
        <time>2025-05-12T08:43:36Z</time>
      </trkpt>
      <trkpt lat="36.970849977806211" lon="-3.191942973062396">
        <ele>1262.3499999999999</ele>
        <time>2025-05-12T08:43:37Z</time>
      </trkpt>
      <trkpt lat="36.970729026943445" lon="-3.191953031346202">
        <ele>1261.8699999999999</ele>
        <time>2025-05-12T08:43:38Z</time>
      </trkpt>
      <trkpt lat="36.970602041110396" lon="-3.191966023296118">
        <ele>1261.3900000000001</ele>
        <time>2025-05-12T08:43:39Z</time>
      </trkpt>
      <trkpt lat="36.970471031963825" lon="-3.191983960568905">
        <ele>1260.9100000000001</ele>
        <time>2025-05-12T08:43:40Z</time>
      </trkpt>
      <trkpt lat="36.969895027577877" lon="-3.192099966108799">
        <ele>1258.02</ele>
        <time>2025-05-12T08:43:44Z</time>
      </trkpt>
      <trkpt lat="36.969759995117784" lon="-3.192157968878746">
        <ele>1257.0599999999999</ele>
        <time>2025-05-12T08:43:45Z</time>
      </trkpt>
      <trkpt lat="36.969633009284735" lon="-3.192213037982583">
        <ele>1256.5799999999999</ele>
        <time>2025-05-12T08:43:46Z</time>
      </trkpt>
      <trkpt lat="36.969503005966544" lon="-3.192254025489092">
        <ele>1256.0999999999999</ele>
        <time>2025-05-12T08:43:47Z</time>
      </trkpt>
      <trkpt lat="36.969359004870057" lon="-3.192236004397273">
        <ele>1255.1400000000001</ele>
        <time>2025-05-12T08:43:48Z</time>
      </trkpt>
      <trkpt lat="36.969238976016641" lon="-3.1921879760921">
        <ele>1253.7</ele>
        <time>2025-05-12T08:43:49Z</time>
      </trkpt>
      <trkpt lat="36.969104027375579" lon="-3.192133996635675">
        <ele>1252.74</ele>
        <time>2025-05-12T08:43:50Z</time>
      </trkpt>
      <trkpt lat="36.96895700879395" lon="-3.192111030220985">
        <ele>1251.77</ele>
        <time>2025-05-12T08:43:51Z</time>
      </trkpt>
      <trkpt lat="36.968803033232689" lon="-3.192118993028998">
        <ele>1250.8099999999999</ele>
        <time>2025-05-12T08:43:52Z</time>
      </trkpt>
      <trkpt lat="36.968660959973931" lon="-3.192126033827663">
        <ele>1249.8499999999999</ele>
        <time>2025-05-12T08:43:53Z</time>
      </trkpt>
      <trkpt lat="36.968531040474772" lon="-3.192132990807295">
        <ele>1248.8900000000001</ele>
        <time>2025-05-12T08:43:54Z</time>
      </trkpt>
      <trkpt lat="36.968040028586984" lon="-3.192168027162552">
        <ele>1245.53</ele>
        <time>2025-05-12T08:43:59Z</time>
      </trkpt>
      <trkpt lat="36.967985965311527" lon="-3.192171966657043">
        <ele>1245.04</ele>
        <time>2025-05-12T08:44:00Z</time>
      </trkpt>
      <trkpt lat="36.967653958126903" lon="-3.192203985527158">
        <ele>1243.1199999999999</ele>
        <time>2025-05-12T08:44:05Z</time>
      </trkpt>
      <trkpt lat="36.967599978670478" lon="-3.192194011062384">
        <ele>1242.6400000000001</ele>
        <time>2025-05-12T08:44:06Z</time>
      </trkpt>
      <trkpt lat="36.967557985335588" lon="-3.192152017727494">
        <ele>1242.6400000000001</ele>
        <time>2025-05-12T08:44:07Z</time>
      </trkpt>
      <trkpt lat="36.967533007264137" lon="-3.192116981372237">
        <ele>1242.1600000000001</ele>
        <time>2025-05-12T08:44:08Z</time>
      </trkpt>
      <trkpt lat="36.967521021142602" lon="-3.192069958895445">
        <ele>1242.1600000000001</ele>
        <time>2025-05-12T08:44:09Z</time>
      </trkpt>
      <trkpt lat="36.967520015314221" lon="-3.192026959732175">
        <ele>1242.1600000000001</ele>
        <time>2025-05-12T08:44:10Z</time>
      </trkpt>
      <trkpt lat="36.967542981728911" lon="-3.191970968618989">
        <ele>1242.1600000000001</ele>
        <time>2025-05-12T08:44:11Z</time>
      </trkpt>
      <trkpt lat="36.967556979507208" lon="-3.191936016082764">
        <ele>1241.6800000000001</ele>
        <time>2025-05-12T08:44:12Z</time>
      </trkpt>
      <trkpt lat="36.967637026682496" lon="-3.191896034404635">
        <ele>1241.6800000000001</ele>
        <time>2025-05-12T08:44:13Z</time>
      </trkpt>
      <trkpt lat="36.967708021402359" lon="-3.191860998049378">
        <ele>1241.2</ele>
        <time>2025-05-12T08:44:14Z</time>
      </trkpt>
      <trkpt lat="36.967787984758615" lon="-3.19186300970614">
        <ele>1240.72</ele>
        <time>2025-05-12T08:44:15Z</time>
      </trkpt>
      <trkpt lat="36.967880018055439" lon="-3.191883964464068">
        <ele>1240.24</ele>
        <time>2025-05-12T08:44:16Z</time>
      </trkpt>
      <trkpt lat="36.967982025817037" lon="-3.191893016919494">
        <ele>1239.28</ele>
        <time>2025-05-12T08:44:17Z</time>
      </trkpt>
      <trkpt lat="36.968093002215028" lon="-3.191893016919494">
        <ele>1238.8</ele>
        <time>2025-05-12T08:44:18Z</time>
      </trkpt>
      <trkpt lat="36.968214036896825" lon="-3.19188698194921">
        <ele>1238.3199999999999</ele>
        <time>2025-05-12T08:44:19Z</time>
      </trkpt>
      <trkpt lat="36.968331970274448" lon="-3.191826967522502">
        <ele>1237.8299999999999</ele>
        <time>2025-05-12T08:44:20Z</time>
      </trkpt>
      <trkpt lat="36.968442024663091" lon="-3.191738035529852">
        <ele>1236.8699999999999</ele>
        <time>2025-05-12T08:44:21Z</time>
      </trkpt>
      <trkpt lat="36.96854998357594" lon="-3.191646002233028">
        <ele>1236.3900000000001</ele>
        <time>2025-05-12T08:44:22Z</time>
      </trkpt>
      <trkpt lat="36.968650985509157" lon="-3.191579030826688">
        <ele>1235.4300000000001</ele>
        <time>2025-05-12T08:44:23Z</time>
      </trkpt>
      <trkpt lat="36.968732960522175" lon="-3.191523961722851">
        <ele>1234.47</ele>
        <time>2025-05-12T08:44:24Z</time>
      </trkpt>
      <trkpt lat="36.968812001869082" lon="-3.191531002521515">
        <ele>1233.03</ele>
        <time>2025-05-12T08:44:25Z</time>
      </trkpt>
      <trkpt lat="36.96889297105372" lon="-3.191566960886121">
        <ele>1232.55</ele>
        <time>2025-05-12T08:44:26Z</time>
      </trkpt>
      <trkpt lat="36.968951979652047" lon="-3.191593028604984">
        <ele>1231.5899999999999</ele>
        <time>2025-05-12T08:44:27Z</time>
      </trkpt>
      <trkpt lat="36.969049964100122" lon="-3.191593028604984">
        <ele>1230.1400000000001</ele>
        <time>2025-05-12T08:44:28Z</time>
      </trkpt>
      <trkpt lat="36.969145014882088" lon="-3.191592022776604">
        <ele>1229.1800000000001</ele>
        <time>2025-05-12T08:44:29Z</time>
      </trkpt>
      <trkpt lat="36.969189019873738" lon="-3.191493032500148">
        <ele>1228.22</ele>
        <time>2025-05-12T08:44:30Z</time>
      </trkpt>
      <trkpt lat="36.969231013208628" lon="-3.191373003646731">
        <ele>1227.26</ele>
        <time>2025-05-12T08:44:31Z</time>
      </trkpt>
      <trkpt lat="36.969231013208628" lon="-3.191244006156921">
        <ele>1225.8199999999999</ele>
        <time>2025-05-12T08:44:32Z</time>
      </trkpt>
      <trkpt lat="36.969231013208628" lon="-3.191121965646744">
        <ele>1224.8599999999999</ele>
        <time>2025-05-12T08:44:33Z</time>
      </trkpt>
      <trkpt lat="36.969287004321814" lon="-3.191024987027049">
        <ele>1223.9000000000001</ele>
        <time>2025-05-12T08:44:34Z</time>
      </trkpt>
      <trkpt lat="36.969352969899774" lon="-3.190909987315536">
        <ele>1223.4200000000001</ele>
        <time>2025-05-12T08:44:35Z</time>
      </trkpt>
      <trkpt lat="36.969438968226314" lon="-3.190804962068796">
        <ele>1222.9300000000001</ele>
        <time>2025-05-12T08:44:36Z</time>
      </trkpt>
      <trkpt lat="36.969534019008279" lon="-3.190709995105863">
        <ele>1221.97</ele>
        <time>2025-05-12T08:44:37Z</time>
      </trkpt>
      <trkpt lat="36.969595039263368" lon="-3.190648974850774">
        <ele>1221.01</ele>
        <time>2025-05-12T08:44:38Z</time>
      </trkpt>
      <trkpt lat="36.969725964590907" lon="-3.190604969859123">
        <ele>1220.05</ele>
        <time>2025-05-12T08:44:39Z</time>
      </trkpt>
      <trkpt lat="36.969853034242988" lon="-3.190562976524234">
        <ele>1219.0899999999999</ele>
        <time>2025-05-12T08:44:40Z</time>
      </trkpt>
      <trkpt lat="36.969918999820948" lon="-3.190577980130911">
        <ele>1218.6099999999999</ele>
        <time>2025-05-12T08:44:41Z</time>
      </trkpt>
      <trkpt lat="36.970022013410926" lon="-3.190602036193013">
        <ele>1217.6500000000001</ele>
        <time>2025-05-12T08:44:42Z</time>
      </trkpt>
      <trkpt lat="36.970460973680019" lon="-3.190684011206031">
        <ele>1214.28</ele>
        <time>2025-05-12T08:44:46Z</time>
      </trkpt>
      <trkpt lat="36.970560969784856" lon="-3.190670013427734">
        <ele>1213.3199999999999</ele>
        <time>2025-05-12T08:44:47Z</time>
      </trkpt>
      <trkpt lat="36.970628025010228" lon="-3.19057697430253">
        <ele>1212.3599999999999</ele>
        <time>2025-05-12T08:44:48Z</time>
      </trkpt>
      <trkpt lat="36.970673035830259" lon="-3.190448982641101">
        <ele>1211.4000000000001</ele>
        <time>2025-05-12T08:44:49Z</time>
      </trkpt>
      <trkpt lat="36.970720980316401" lon="-3.190310010686517">
        <ele>1209.96</ele>
        <time>2025-05-12T08:44:50Z</time>
      </trkpt>
      <trkpt lat="36.970775965601206" lon="-3.190155029296875">
        <ele>1209</ele>
        <time>2025-05-12T08:44:51Z</time>
      </trkpt>
      <trkpt lat="36.97086900472641" lon="-3.190041035413742">
        <ele>1208.03</ele>
        <time>2025-05-12T08:44:52Z</time>
      </trkpt>
      <trkpt lat="36.97097604162991" lon="-3.189911032095552">
        <ele>1207.0699999999999</ele>
        <time>2025-05-12T08:44:53Z</time>
      </trkpt>
      <trkpt lat="36.971410978585482" lon="-3.189444998279214">
        <ele>1202.75</ele>
        <time>2025-05-12T08:44:57Z</time>
      </trkpt>
      <trkpt lat="36.971497982740402" lon="-3.189333016052842">
        <ele>1202.27</ele>
        <time>2025-05-12T08:44:58Z</time>
      </trkpt>
      <trkpt lat="36.971651036292315" lon="-3.18913402967155">
        <ele>1200.8199999999999</ele>
        <time>2025-05-12T08:45:00Z</time>
      </trkpt>
      <trkpt lat="36.971740974113345" lon="-3.189018024131656">
        <ele>1200.3399999999999</ele>
        <time>2025-05-12T08:45:01Z</time>
      </trkpt>
      <trkpt lat="36.971812974661589" lon="-3.188972007483244">
        <ele>1199.8599999999999</ele>
        <time>2025-05-12T08:45:02Z</time>
      </trkpt>
      <trkpt lat="36.97241404093802" lon="-3.18857797421515">
        <ele>1195.0599999999999</ele>
        <time>2025-05-12T08:45:07Z</time>
      </trkpt>
      <trkpt lat="36.972499033436179" lon="-3.188456017524004">
        <ele>1194.0899999999999</ele>
        <time>2025-05-12T08:45:08Z</time>
      </trkpt>
      <trkpt lat="36.972578996792436" lon="-3.188333977013826">
        <ele>1193.1300000000001</ele>
        <time>2025-05-12T08:45:09Z</time>
      </trkpt>
      <trkpt lat="36.972650997340679" lon="-3.188209002837539">
        <ele>1192.6500000000001</ele>
        <time>2025-05-12T08:45:10Z</time>
      </trkpt>
      <trkpt lat="36.972728027030826" lon="-3.188073970377445">
        <ele>1191.21</ele>
        <time>2025-05-12T08:45:11Z</time>
      </trkpt>
      <trkpt lat="36.972835985943675" lon="-3.187984032556415">
        <ele>1189.77</ele>
        <time>2025-05-12T08:45:12Z</time>
      </trkpt>
      <trkpt lat="36.972960960119963" lon="-3.187879007309675">
        <ele>1188.3299999999999</ele>
        <time>2025-05-12T08:45:13Z</time>
      </trkpt>
      <trkpt lat="36.973112002015114" lon="-3.187788985669613">
        <ele>1186.8800000000001</ele>
        <time>2025-05-12T08:45:14Z</time>
      </trkpt>
      <trkpt lat="36.973580969497561" lon="-3.187527973204851">
        <ele>1183.52</ele>
        <time>2025-05-12T08:45:17Z</time>
      </trkpt>
      <trkpt lat="36.974154962226748" lon="-3.18722203373909">
        <ele>1180.6400000000001</ele>
        <time>2025-05-12T08:45:21Z</time>
      </trkpt>
      <trkpt lat="36.974277002736926" lon="-3.187140980735421">
        <ele>1180.1600000000001</ele>
        <time>2025-05-12T08:45:22Z</time>
      </trkpt>
      <trkpt lat="36.974386973306537" lon="-3.187056994065642">
        <ele>1179.6700000000001</ele>
        <time>2025-05-12T08:45:23Z</time>
      </trkpt>
      <trkpt lat="36.974482024088502" lon="-3.186983987689018">
        <ele>1179.1900000000001</ele>
        <time>2025-05-12T08:45:24Z</time>
      </trkpt>
      <trkpt lat="36.97454103268683" lon="-3.186894971877337">
        <ele>1178.71</ele>
        <time>2025-05-12T08:45:25Z</time>
      </trkpt>
      <trkpt lat="36.974595012143254" lon="-3.186807967722416">
        <ele>1178.23</ele>
        <time>2025-05-12T08:45:26Z</time>
      </trkpt>
      <trkpt lat="36.9745840318501" lon="-3.186720963567495">
        <ele>1177.75</ele>
        <time>2025-05-12T08:45:27Z</time>
      </trkpt>
      <trkpt lat="36.974573973566294" lon="-3.186635971069336">
        <ele>1177.27</ele>
        <time>2025-05-12T08:45:28Z</time>
      </trkpt>
      <trkpt lat="36.974573973566294" lon="-3.186635971069336">
        <ele>1176.79</ele>
        <time>2025-05-12T08:45:29Z</time>
      </trkpt>
      <trkpt lat="36.974461991339922" lon="-3.186649968847632">
        <ele>1176.3099999999999</ele>
        <time>2025-05-12T08:45:30Z</time>
      </trkpt>
      <trkpt lat="36.974401976913214" lon="-3.186657009646297">
        <ele>1175.8299999999999</ele>
        <time>2025-05-12T08:45:31Z</time>
      </trkpt>
      <trkpt lat="36.974342968314886" lon="-3.186759017407894">
        <ele>1175.3499999999999</ele>
        <time>2025-05-12T08:45:32Z</time>
      </trkpt>
      <trkpt lat="36.974280020222068" lon="-3.186866976320744">
        <ele>1174.3900000000001</ele>
        <time>2025-05-12T08:45:33Z</time>
      </trkpt>
      <trkpt lat="36.974193016067147" lon="-3.186967978253961">
        <ele>1173.9100000000001</ele>
        <time>2025-05-12T08:45:34Z</time>
      </trkpt>
      <trkpt lat="36.974096037447453" lon="-3.187053976580501">
        <ele>1173.4300000000001</ele>
        <time>2025-05-12T08:45:35Z</time>
      </trkpt>
      <trkpt lat="36.973958993330598" lon="-3.187122959643602">
        <ele>1172.95</ele>
        <time>2025-05-12T08:45:36Z</time>
      </trkpt>
      <trkpt lat="36.97381298057735" lon="-3.187171993777156">
        <ele>1172.47</ele>
        <time>2025-05-12T08:45:37Z</time>
      </trkpt>
      <trkpt lat="36.973668979480863" lon="-3.187171993777156">
        <ele>1171.98</ele>
        <time>2025-05-12T08:45:38Z</time>
      </trkpt>
      <trkpt lat="36.973365973681211" lon="-3.18720200099051">
        <ele>1171.02</ele>
        <time>2025-05-12T08:45:40Z</time>
      </trkpt>
      <trkpt lat="36.973046958446503" lon="-3.187297973781824">
        <ele>1169.0999999999999</ele>
        <time>2025-05-12T08:45:42Z</time>
      </trkpt>
      <trkpt lat="36.972733978182077" lon="-3.187386989593506">
        <ele>1167.1800000000001</ele>
        <time>2025-05-12T08:45:44Z</time>
      </trkpt>
      <trkpt lat="36.972596012055874" lon="-3.187386989593506">
        <ele>1166.22</ele>
        <time>2025-05-12T08:45:45Z</time>
      </trkpt>
      <trkpt lat="36.972212037071586" lon="-3.187405010685325">
        <ele>1163.8099999999999</ele>
        <time>2025-05-12T08:45:48Z</time>
      </trkpt>
      <trkpt lat="36.972121009603143" lon="-3.187435017898679">
        <ele>1162.8499999999999</ele>
        <time>2025-05-12T08:45:49Z</time>
      </trkpt>
      <trkpt lat="36.972032999619842" lon="-3.187520010396838">
        <ele>1162.3699999999999</ele>
        <time>2025-05-12T08:45:50Z</time>
      </trkpt>
      <trkpt lat="36.971940966323018" lon="-3.187608020380139">
        <ele>1161.4100000000001</ele>
        <time>2025-05-12T08:45:51Z</time>
      </trkpt>
      <trkpt lat="36.971837030723691" lon="-3.187708016484976">
        <ele>1160.9300000000001</ele>
        <time>2025-05-12T08:45:52Z</time>
      </trkpt>
      <trkpt lat="36.971721025183797" lon="-3.187818992882967">
        <ele>1160.45</ele>
        <time>2025-05-12T08:45:53Z</time>
      </trkpt>
      <trkpt lat="36.971594039350748" lon="-3.187928963452578">
        <ele>1159.49</ele>
        <time>2025-05-12T08:45:54Z</time>
      </trkpt>
      <trkpt lat="36.971465963870287" lon="-3.187965005636215">
        <ele>1158.53</ele>
        <time>2025-05-12T08:45:55Z</time>
      </trkpt>
      <trkpt lat="36.971368985250592" lon="-3.187947990372777">
        <ele>1157.0799999999999</ele>
        <time>2025-05-12T08:45:56Z</time>
      </trkpt>
      <trkpt lat="36.971288016065955" lon="-3.187893005087972">
        <ele>1156.1199999999999</ele>
        <time>2025-05-12T08:45:57Z</time>
      </trkpt>
      <trkpt lat="36.97119397111237" lon="-3.187822010368109">
        <ele>1155.1600000000001</ele>
        <time>2025-05-12T08:45:58Z</time>
      </trkpt>
      <trkpt lat="36.971099004149437" lon="-3.187749003991485">
        <ele>1153.72</ele>
        <time>2025-05-12T08:45:59Z</time>
      </trkpt>
      <trkpt lat="36.971007976680994" lon="-3.187680020928383">
        <ele>1152.76</ele>
        <time>2025-05-12T08:46:00Z</time>
      </trkpt>
      <trkpt lat="36.970904041081667" lon="-3.187691001221538">
        <ele>1151.8</ele>
        <time>2025-05-12T08:46:01Z</time>
      </trkpt>
      <trkpt lat="36.970809996128082" lon="-3.187718996778131">
        <ele>1150.8399999999999</ele>
        <time>2025-05-12T08:46:02Z</time>
      </trkpt>
      <trkpt lat="36.970714023336768" lon="-3.187746992334724">
        <ele>1149.3900000000001</ele>
        <time>2025-05-12T08:46:03Z</time>
      </trkpt>
      <trkpt lat="36.970625007525086" lon="-3.187772976234555">
        <ele>1148.9100000000001</ele>
        <time>2025-05-12T08:46:04Z</time>
      </trkpt>
      <trkpt lat="36.970540015026927" lon="-3.187729977071285">
        <ele>1148.4300000000001</ele>
        <time>2025-05-12T08:46:05Z</time>
      </trkpt>
      <trkpt lat="36.970496010035276" lon="-3.187657976523042">
        <ele>1148.9100000000001</ele>
        <time>2025-05-12T08:46:06Z</time>
      </trkpt>
      <trkpt lat="36.970477988943458" lon="-3.187603997066617">
        <ele>1149.3900000000001</ele>
        <time>2025-05-12T08:46:07Z</time>
      </trkpt>
      <trkpt lat="36.970491986721754" lon="-3.187506012618542">
        <ele>1149.3900000000001</ele>
        <time>2025-05-12T08:46:08Z</time>
      </trkpt>
      <trkpt lat="36.970535991713405" lon="-3.187441974878311">
        <ele>1148.9100000000001</ele>
        <time>2025-05-12T08:46:09Z</time>
      </trkpt>
      <trkpt lat="36.97061100974679" lon="-3.187384977936745">
        <ele>1148.9100000000001</ele>
        <time>2025-05-12T08:46:10Z</time>
      </trkpt>
      <trkpt lat="36.970703965052962" lon="-3.187357988208532">
        <ele>1147.95</ele>
        <time>2025-05-12T08:46:11Z</time>
      </trkpt>
      <trkpt lat="36.97080597281456" lon="-3.187357988208532">
        <ele>1147.47</ele>
        <time>2025-05-12T08:46:12Z</time>
      </trkpt>
      <trkpt lat="36.970921978354454" lon="-3.187387995421886">
        <ele>1146.51</ele>
        <time>2025-05-12T08:46:13Z</time>
      </trkpt>
      <trkpt lat="36.97104200720787" lon="-3.187420014292002">
        <ele>1145.0699999999999</ele>
        <time>2025-05-12T08:46:14Z</time>
      </trkpt>
      <trkpt lat="36.971162036061287" lon="-3.187451027333736">
        <ele>1143.6300000000001</ele>
        <time>2025-05-12T08:46:15Z</time>
      </trkpt>
      <trkpt lat="36.9712770357728" lon="-3.187451027333736">
        <ele>1141.7</ele>
        <time>2025-05-12T08:46:16Z</time>
      </trkpt>
      <trkpt lat="36.971374014392495" lon="-3.187410039827228">
        <ele>1139.3</ele>
        <time>2025-05-12T08:46:17Z</time>
      </trkpt>
      <trkpt lat="36.971452971920371" lon="-3.187329992651939">
        <ele>1137.3800000000001</ele>
        <time>2025-05-12T08:46:18Z</time>
      </trkpt>
      <trkpt lat="36.971495971083641" lon="-3.187211975455284">
        <ele>1135.45</ele>
        <time>2025-05-12T08:46:19Z</time>
      </trkpt>
      <trkpt lat="36.971521032974124" lon="-3.187091024592519">
        <ele>1133.53</ele>
        <time>2025-05-12T08:46:20Z</time>
      </trkpt>
      <trkpt lat="36.971498988568783" lon="-3.186950040981174">
        <ele>1132.0899999999999</ele>
        <time>2025-05-12T08:46:21Z</time>
      </trkpt>
      <trkpt lat="36.971476022154093" lon="-3.186804028227925">
        <ele>1130.1700000000001</ele>
        <time>2025-05-12T08:46:22Z</time>
      </trkpt>
      <trkpt lat="36.971229007467628" lon="-3.185221021994948">
        <ele>1121.03</ele>
        <time>2025-05-12T08:46:32Z</time>
      </trkpt>
      <trkpt lat="36.971179973334074" lon="-3.184909969568253">
        <ele>1120.0699999999999</ele>
        <time>2025-05-12T08:46:34Z</time>
      </trkpt>
      <trkpt lat="36.9711509719491" lon="-3.184768985956907">
        <ele>1119.1099999999999</ele>
        <time>2025-05-12T08:46:35Z</time>
      </trkpt>
      <trkpt lat="36.971076037734747" lon="-3.184619033709168">
        <ele>1119.1099999999999</ele>
        <time>2025-05-12T08:46:36Z</time>
      </trkpt>
      <trkpt lat="36.970992973074317" lon="-3.184535969048739">
        <ele>1118.6300000000001</ele>
        <time>2025-05-12T08:46:37Z</time>
      </trkpt>
      <trkpt lat="36.970867998898029" lon="-3.184468997642398">
        <ele>1118.1500000000001</ele>
        <time>2025-05-12T08:46:38Z</time>
      </trkpt>
      <trkpt lat="36.970744030550122" lon="-3.184434967115521">
        <ele>1118.1500000000001</ele>
        <time>2025-05-12T08:46:39Z</time>
      </trkpt>
      <trkpt lat="36.970583014190197" lon="-3.18445198237896">
        <ele>1118.6300000000001</ele>
        <time>2025-05-12T08:46:40Z</time>
      </trkpt>
      <trkpt lat="36.970429960638285" lon="-3.184484001249075">
        <ele>1119.5899999999999</ele>
        <time>2025-05-12T08:46:41Z</time>
      </trkpt>
      <trkpt lat="36.970122009515762" lon="-3.184540998190641">
        <ele>1121.03</ele>
        <time>2025-05-12T08:46:43Z</time>
      </trkpt>
      <trkpt lat="36.969980020076036" lon="-3.184553990140557">
        <ele>1122</ele>
        <time>2025-05-12T08:46:44Z</time>
      </trkpt>
      <trkpt lat="36.969862002879381" lon="-3.184477966278791">
        <ele>1122.48</ele>
        <time>2025-05-12T08:46:45Z</time>
      </trkpt>
      <trkpt lat="36.969731999561191" lon="-3.184388028457761">
        <ele>1122.96</ele>
        <time>2025-05-12T08:46:46Z</time>
      </trkpt>
      <trkpt lat="36.969637032598257" lon="-3.184264982119203">
        <ele>1123.4400000000001</ele>
        <time>2025-05-12T08:46:47Z</time>
      </trkpt>
      <trkpt lat="36.969564026221633" lon="-3.184121986851096">
        <ele>1124.4000000000001</ele>
        <time>2025-05-12T08:46:48Z</time>
      </trkpt>
      <trkpt lat="36.969510968774557" lon="-3.183968011289835">
        <ele>1124.8800000000001</ele>
        <time>2025-05-12T08:46:49Z</time>
      </trkpt>
      <trkpt lat="36.969460006803274" lon="-3.183821998536587">
        <ele>1125.8399999999999</ele>
        <time>2025-05-12T08:46:50Z</time>
      </trkpt>
      <trkpt lat="36.969416001811624" lon="-3.183711022138596">
        <ele>1126.8</ele>
        <time>2025-05-12T08:46:51Z</time>
      </trkpt>
      <trkpt lat="36.969322962686419" lon="-3.183630974963307">
        <ele>1127.28</ele>
        <time>2025-05-12T08:46:52Z</time>
      </trkpt>
      <trkpt lat="36.969231013208628" lon="-3.183594010770321">
        <ele>1128.24</ele>
        <time>2025-05-12T08:46:53Z</time>
      </trkpt>
      <trkpt lat="36.969079971313477" lon="-3.183610020205379">
        <ele>1129.21</ele>
        <time>2025-05-12T08:46:54Z</time>
      </trkpt>
      <trkpt lat="36.96897704154253" lon="-3.1836589705199">
        <ele>1130.6500000000001</ele>
        <time>2025-05-12T08:46:55Z</time>
      </trkpt>
      <trkpt lat="36.96882700547576" lon="-3.183728959411383">
        <ele>1132.5699999999999</ele>
        <time>2025-05-12T08:46:56Z</time>
      </trkpt>
      <trkpt lat="36.968038016930223" lon="-3.184057027101517">
        <ele>1140.26</ele>
        <time>2025-05-12T08:47:01Z</time>
      </trkpt>
      <trkpt lat="36.967886975035071" lon="-3.184067001566291">
        <ele>1141.22</ele>
        <time>2025-05-12T08:47:02Z</time>
      </trkpt>
      <trkpt lat="36.967726964503527" lon="-3.184034982696176">
        <ele>1142.1800000000001</ele>
        <time>2025-05-12T08:47:03Z</time>
      </trkpt>
      <trkpt lat="36.967557985335588" lon="-3.184001035988331">
        <ele>1143.1400000000001</ele>
        <time>2025-05-12T08:47:04Z</time>
      </trkpt>
      <trkpt lat="36.967390011996031" lon="-3.183968011289835">
        <ele>1144.5899999999999</ele>
        <time>2025-05-12T08:47:05Z</time>
      </trkpt>
      <trkpt lat="36.967232013121247" lon="-3.18393599241972">
        <ele>1145.55</ele>
        <time>2025-05-12T08:47:06Z</time>
      </trkpt>
      <trkpt lat="36.967080971226096" lon="-3.183905985206366">
        <ele>1146.99</ele>
        <time>2025-05-12T08:47:07Z</time>
      </trkpt>
      <trkpt lat="36.96693797595799" lon="-3.183858962729573">
        <ele>1147.95</ele>
        <time>2025-05-12T08:47:08Z</time>
      </trkpt>
      <trkpt lat="36.966784000396729" lon="-3.183782016858459">
        <ele>1148.9100000000001</ele>
        <time>2025-05-12T08:47:09Z</time>
      </trkpt>
      <trkpt lat="36.966675035655499" lon="-3.18369803018868">
        <ele>1149.8699999999999</ele>
        <time>2025-05-12T08:47:10Z</time>
      </trkpt>
      <trkpt lat="36.966552995145321" lon="-3.183603985235095">
        <ele>1150.8399999999999</ele>
        <time>2025-05-12T08:47:11Z</time>
      </trkpt>
      <trkpt lat="36.966431960463524" lon="-3.183568026870489">
        <ele>1151.8</ele>
        <time>2025-05-12T08:47:12Z</time>
      </trkpt>
      <trkpt lat="36.966302962973714" lon="-3.183568026870489">
        <ele>1151.8</ele>
        <time>2025-05-12T08:47:13Z</time>
      </trkpt>
      <trkpt lat="36.966180000454187" lon="-3.183568026870489">
        <ele>1152.28</ele>
        <time>2025-05-12T08:47:14Z</time>
      </trkpt>
      <trkpt lat="36.966075981035829" lon="-3.183568026870489">
        <ele>1153.24</ele>
        <time>2025-05-12T08:47:15Z</time>
      </trkpt>
      <trkpt lat="36.965979002416134" lon="-3.183501977473497">
        <ele>1153.24</ele>
        <time>2025-05-12T08:47:16Z</time>
      </trkpt>
      <trkpt lat="36.965923011302948" lon="-3.183412961661816">
        <ele>1153.72</ele>
        <time>2025-05-12T08:47:17Z</time>
      </trkpt>
      <trkpt lat="36.965873977169394" lon="-3.183272983878851">
        <ele>1154.2</ele>
        <time>2025-05-12T08:47:18Z</time>
      </trkpt>
      <trkpt lat="36.965813962742686" lon="-3.183104004710913">
        <ele>1154.6800000000001</ele>
        <time>2025-05-12T08:47:19Z</time>
      </trkpt>
      <trkpt lat="36.965746991336346" lon="-3.182913986966014">
        <ele>1154.6800000000001</ele>
        <time>2025-05-12T08:47:20Z</time>
      </trkpt>
      <trkpt lat="36.965657975524664" lon="-3.182706031948328">
        <ele>1154.2</ele>
        <time>2025-05-12T08:47:21Z</time>
      </trkpt>
      <trkpt lat="36.965527972206473" lon="-3.18251702003181">
        <ele>1153.72</ele>
        <time>2025-05-12T08:47:22Z</time>
      </trkpt>
      <trkpt lat="36.964867981150746" lon="-3.181559974327683">
        <ele>1154.2</ele>
        <time>2025-05-12T08:47:27Z</time>
      </trkpt>
      <trkpt lat="36.964723980054259" lon="-3.181471964344382">
        <ele>1154.2</ele>
        <time>2025-05-12T08:47:28Z</time>
      </trkpt>
      <trkpt lat="36.964570004492998" lon="-3.181419996544719">
        <ele>1154.6800000000001</ele>
        <time>2025-05-12T08:47:29Z</time>
      </trkpt>
      <trkpt lat="36.964403036981821" lon="-3.181365011259913">
        <ele>1155.6400000000001</ele>
        <time>2025-05-12T08:47:30Z</time>
      </trkpt>
      <trkpt lat="36.96423003450036" lon="-3.181322012096643">
        <ele>1156.1199999999999</ele>
        <time>2025-05-12T08:47:31Z</time>
      </trkpt>
      <trkpt lat="36.96380197070539" lon="-3.1812500115484">
        <ele>1157.0799999999999</ele>
        <time>2025-05-12T08:47:34Z</time>
      </trkpt>
      <trkpt lat="36.963699040934443" lon="-3.181148003786802">
        <ele>1157.5599999999999</ele>
        <time>2025-05-12T08:47:35Z</time>
      </trkpt>
      <trkpt lat="36.963636009022593" lon="-3.181063011288643">
        <ele>1157.5599999999999</ele>
        <time>2025-05-12T08:47:36Z</time>
      </trkpt>
      <trkpt lat="36.963581023737788" lon="-3.180935019627214">
        <ele>1157.5599999999999</ele>
        <time>2025-05-12T08:47:37Z</time>
      </trkpt>
      <trkpt lat="36.963520003482699" lon="-3.180793030187488">
        <ele>1158.05</ele>
        <time>2025-05-12T08:47:38Z</time>
      </trkpt>
      <trkpt lat="36.963312970474362" lon="-3.180368989706039">
        <ele>1159.01</ele>
        <time>2025-05-12T08:47:41Z</time>
      </trkpt>
      <trkpt lat="36.963230995461345" lon="-3.180236974731088">
        <ele>1159.97</ele>
        <time>2025-05-12T08:47:42Z</time>
      </trkpt>
      <trkpt lat="36.963151032105088" lon="-3.180109988898039">
        <ele>1160.45</ele>
        <time>2025-05-12T08:47:43Z</time>
      </trkpt>
      <trkpt lat="36.9630709849298" lon="-3.179979985579848">
        <ele>1161.4100000000001</ele>
        <time>2025-05-12T08:47:44Z</time>
      </trkpt>
      <trkpt lat="36.963023040443659" lon="-3.17981000058353">
        <ele>1161.8900000000001</ele>
        <time>2025-05-12T08:47:45Z</time>
      </trkpt>
      <trkpt lat="36.962980963289738" lon="-3.179630963131785">
        <ele>1162.8499999999999</ele>
        <time>2025-05-12T08:47:46Z</time>
      </trkpt>
      <trkpt lat="36.962963026016951" lon="-3.179461983963847">
        <ele>1163.3299999999999</ele>
        <time>2025-05-12T08:47:47Z</time>
      </trkpt>
      <trkpt lat="36.962947016581893" lon="-3.179310020059347">
        <ele>1163.8099999999999</ele>
        <time>2025-05-12T08:47:48Z</time>
      </trkpt>
      <trkpt lat="36.962974006310105" lon="-3.179161995649338">
        <ele>1163.8099999999999</ele>
        <time>2025-05-12T08:47:49Z</time>
      </trkpt>
      <trkpt lat="36.963114989921451" lon="-3.178676012903452">
        <ele>1163.3299999999999</ele>
        <time>2025-05-12T08:47:52Z</time>
      </trkpt>
      <trkpt lat="36.963166035711765" lon="-3.178522037342191">
        <ele>1163.8099999999999</ele>
        <time>2025-05-12T08:47:53Z</time>
      </trkpt>
      <trkpt lat="36.963213980197906" lon="-3.178378958255053">
        <ele>1163.8099999999999</ele>
        <time>2025-05-12T08:47:54Z</time>
      </trkpt>
      <trkpt lat="36.963238958269358" lon="-3.178232023492456">
        <ele>1163.8099999999999</ele>
        <time>2025-05-12T08:47:55Z</time>
      </trkpt>
      <trkpt lat="36.963225966319442" lon="-3.17809103988111">
        <ele>1163.8099999999999</ele>
        <time>2025-05-12T08:47:56Z</time>
      </trkpt>
      <trkpt lat="36.963168969377875" lon="-3.177947038784623">
        <ele>1163.8099999999999</ele>
        <time>2025-05-12T08:47:57Z</time>
      </trkpt>
      <trkpt lat="36.963092023506761" lon="-3.177811000496149">
        <ele>1163.3299999999999</ele>
        <time>2025-05-12T08:47:58Z</time>
      </trkpt>
      <trkpt lat="36.963004013523459" lon="-3.177673034369946">
        <ele>1163.3299999999999</ele>
        <time>2025-05-12T08:47:59Z</time>
      </trkpt>
      <trkpt lat="36.962922038510442" lon="-3.177516041323543">
        <ele>1163.8099999999999</ele>
        <time>2025-05-12T08:48:00Z</time>
      </trkpt>
      <trkpt lat="36.962837968021631" lon="-3.177347984164953">
        <ele>1163.8099999999999</ele>
        <time>2025-05-12T08:48:01Z</time>
      </trkpt>
      <trkpt lat="36.962737971916795" lon="-3.177203983068466">
        <ele>1163.8099999999999</ele>
        <time>2025-05-12T08:48:02Z</time>
      </trkpt>
      <trkpt lat="36.962625989690423" lon="-3.177092000842094">
        <ele>1163.8099999999999</ele>
        <time>2025-05-12T08:48:03Z</time>
      </trkpt>
      <trkpt lat="36.962520964443684" lon="-3.176985969766974">
        <ele>1164.29</ele>
        <time>2025-05-12T08:48:04Z</time>
      </trkpt>
      <trkpt lat="36.962410993874073" lon="-3.176913969218731">
        <ele>1164.29</ele>
        <time>2025-05-12T08:48:05Z</time>
      </trkpt>
      <trkpt lat="36.96229599416256" lon="-3.176871975883842">
        <ele>1164.77</ele>
        <time>2025-05-12T08:48:06Z</time>
      </trkpt>
      <trkpt lat="36.962189041078091" lon="-3.176830988377333">
        <ele>1165.26</ele>
        <time>2025-05-12T08:48:07Z</time>
      </trkpt>
      <trkpt lat="36.962091978639364" lon="-3.176795030012727">
        <ele>1165.74</ele>
        <time>2025-05-12T08:48:08Z</time>
      </trkpt>
      <trkpt lat="36.962012015283108" lon="-3.176765022799373">
        <ele>1165.74</ele>
        <time>2025-05-12T08:48:09Z</time>
      </trkpt>
      <trkpt lat="36.961950995028019" lon="-3.176741972565651">
        <ele>1166.22</ele>
        <time>2025-05-12T08:48:10Z</time>
      </trkpt>
      <trkpt lat="36.961864996701479" lon="-3.176710037514567">
        <ele>1166.22</ele>
        <time>2025-05-12T08:48:12Z</time>
      </trkpt>
      <trkpt lat="36.961788972839713" lon="-3.176634013652802">
        <ele>1166.7</ele>
        <time>2025-05-12T08:48:13Z</time>
      </trkpt>
      <trkpt lat="36.961797019466758" lon="-3.176547009497881">
        <ele>1166.7</ele>
        <time>2025-05-12T08:48:14Z</time>
      </trkpt>
      <trkpt lat="36.961805988103151" lon="-3.176443995907903">
        <ele>1167.1800000000001</ele>
        <time>2025-05-12T08:48:15Z</time>
      </trkpt>
      <trkpt lat="36.961791990324855" lon="-3.176327990368009">
        <ele>1167.1800000000001</ele>
        <time>2025-05-12T08:48:16Z</time>
      </trkpt>
      <trkpt lat="36.961745973676443" lon="-3.17620100453496">
        <ele>1167.6600000000001</ele>
        <time>2025-05-12T08:48:17Z</time>
      </trkpt>
      <trkpt lat="36.961679002270103" lon="-3.176077958196402">
        <ele>1168.1400000000001</ele>
        <time>2025-05-12T08:48:18Z</time>
      </trkpt>
      <trkpt lat="36.961602978408337" lon="-3.175951978191733">
        <ele>1168.6199999999999</ele>
        <time>2025-05-12T08:48:19Z</time>
      </trkpt>
      <trkpt lat="36.9615220092237" lon="-3.175825998187065">
        <ele>1169.0999999999999</ele>
        <time>2025-05-12T08:48:20Z</time>
      </trkpt>
      <trkpt lat="36.961473980918527" lon="-3.17566498182714">
        <ele>1170.0599999999999</ele>
        <time>2025-05-12T08:48:21Z</time>
      </trkpt>
      <trkpt lat="36.961432993412018" lon="-3.175493991002441">
        <ele>1170.54</ele>
        <time>2025-05-12T08:48:22Z</time>
      </trkpt>
      <trkpt lat="36.961391000077128" lon="-3.175315959379077">
        <ele>1171.5</ele>
        <time>2025-05-12T08:48:23Z</time>
      </trkpt>
      <trkpt lat="36.961349006742239" lon="-3.175143040716648">
        <ele>1172.47</ele>
        <time>2025-05-12T08:48:24Z</time>
      </trkpt>
      <trkpt lat="36.961291003972292" lon="-3.174845986068249">
        <ele>1173.9100000000001</ele>
        <time>2025-05-12T08:48:26Z</time>
      </trkpt>
      <trkpt lat="36.961291003972292" lon="-3.174706008285284">
        <ele>1175.3499999999999</ele>
        <time>2025-05-12T08:48:27Z</time>
      </trkpt>
      <trkpt lat="36.961334003135562" lon="-3.174577010795474">
        <ele>1175.8299999999999</ele>
        <time>2025-05-12T08:48:28Z</time>
      </trkpt>
      <trkpt lat="36.961412038654089" lon="-3.174485983327031">
        <ele>1177.27</ele>
        <time>2025-05-12T08:48:29Z</time>
      </trkpt>
      <trkpt lat="36.961505999788642" lon="-3.174376012757421">
        <ele>1177.75</ele>
        <time>2025-05-12T08:48:30Z</time>
      </trkpt>
      <trkpt lat="36.961612030863762" lon="-3.174251960590482">
        <ele>1178.71</ele>
        <time>2025-05-12T08:48:31Z</time>
      </trkpt>
      <trkpt lat="36.961727030575275" lon="-3.174116006121039">
        <ele>1180.1600000000001</ele>
        <time>2025-05-12T08:48:32Z</time>
      </trkpt>
      <trkpt lat="36.96184697560966" lon="-3.173976028338075">
        <ele>1181.1199999999999</ele>
        <time>2025-05-12T08:48:33Z</time>
      </trkpt>
      <trkpt lat="36.962099019438028" lon="-3.173676040023565">
        <ele>1183.52</ele>
        <time>2025-05-12T08:48:35Z</time>
      </trkpt>
      <trkpt lat="36.962208990007639" lon="-3.173506977036595">
        <ele>1184.96</ele>
        <time>2025-05-12T08:48:36Z</time>
      </trkpt>
      <trkpt lat="36.962449969723821" lon="-3.173073967918754">
        <ele>1187.8499999999999</ele>
        <time>2025-05-12T08:48:39Z</time>
      </trkpt>
      <trkpt lat="36.962467990815639" lon="-3.172949999570847">
        <ele>1188.8099999999999</ele>
        <time>2025-05-12T08:48:40Z</time>
      </trkpt>
      <trkpt lat="36.962461033836007" lon="-3.172821002081037">
        <ele>1189.29</ele>
        <time>2025-05-12T08:48:41Z</time>
      </trkpt>
      <trkpt lat="36.962452987208962" lon="-3.172682030126452">
        <ele>1190.25</ele>
        <time>2025-05-12T08:48:42Z</time>
      </trkpt>
      <trkpt lat="36.96246899664402" lon="-3.172562001273036">
        <ele>1190.73</ele>
        <time>2025-05-12T08:48:43Z</time>
      </trkpt>
      <trkpt lat="36.962514007464051" lon="-3.172410037368536">
        <ele>1191.6900000000001</ele>
        <time>2025-05-12T08:48:44Z</time>
      </trkpt>
      <trkpt lat="36.962590031325817" lon="-3.172341976314783">
        <ele>1192.1700000000001</ele>
        <time>2025-05-12T08:48:45Z</time>
      </trkpt>
      <trkpt lat="36.962697990238667" lon="-3.172244997695088">
        <ele>1193.1300000000001</ele>
        <time>2025-05-12T08:48:46Z</time>
      </trkpt>
      <trkpt lat="36.962825981900096" lon="-3.172165034338832">
        <ele>1194.0899999999999</ele>
        <time>2025-05-12T08:48:47Z</time>
      </trkpt>
      <trkpt lat="36.962968977168202" lon="-3.172088004648686">
        <ele>1194.5799999999999</ele>
        <time>2025-05-12T08:48:48Z</time>
      </trkpt>
      <trkpt lat="36.963115995749831" lon="-3.172010974958539">
        <ele>1195.0599999999999</ele>
        <time>2025-05-12T08:48:49Z</time>
      </trkpt>
      <trkpt lat="36.963257985189557" lon="-3.171936040744185">
        <ele>1195.54</ele>
        <time>2025-05-12T08:48:50Z</time>
      </trkpt>
      <trkpt lat="36.96339201182127" lon="-3.171865968033671">
        <ele>1196.02</ele>
        <time>2025-05-12T08:48:51Z</time>
      </trkpt>
      <trkpt lat="36.9635009765625" lon="-3.171808971092105">
        <ele>1196.5</ele>
        <time>2025-05-12T08:48:52Z</time>
      </trkpt>
      <trkpt lat="36.963596027344465" lon="-3.171733031049371">
        <ele>1196.5</ele>
        <time>2025-05-12T08:48:53Z</time>
      </trkpt>
      <trkpt lat="36.963647995144129" lon="-3.17164502106607">
        <ele>1196.98</ele>
        <time>2025-05-12T08:48:54Z</time>
      </trkpt>
      <trkpt lat="36.963667022064328" lon="-3.171535972505808">
        <ele>1196.98</ele>
        <time>2025-05-12T08:48:55Z</time>
      </trkpt>
      <trkpt lat="36.963652018457651" lon="-3.171401023864746">
        <ele>1197.9400000000001</ele>
        <time>2025-05-12T08:48:56Z</time>
      </trkpt>
      <trkpt lat="36.963570965453982" lon="-3.171320976689458">
        <ele>1198.4200000000001</ele>
        <time>2025-05-12T08:48:57Z</time>
      </trkpt>
      <trkpt lat="36.963459989055991" lon="-3.17125903442502">
        <ele>1198.9000000000001</ele>
        <time>2025-05-12T08:48:58Z</time>
      </trkpt>
      <trkpt lat="36.963331997394562" lon="-3.171204971149564">
        <ele>1199.3800000000001</ele>
        <time>2025-05-12T08:48:59Z</time>
      </trkpt>
      <trkpt lat="36.963184978812933" lon="-3.171168006956577">
        <ele>1200.3399999999999</ele>
        <time>2025-05-12T08:49:00Z</time>
      </trkpt>
      <trkpt lat="36.963051036000252" lon="-3.171144034713507">
        <ele>1200.8199999999999</ele>
        <time>2025-05-12T08:49:01Z</time>
      </trkpt>
      <trkpt lat="36.962949028238654" lon="-3.171063987538219">
        <ele>1201.79</ele>
        <time>2025-05-12T08:49:02Z</time>
      </trkpt>
      <trkpt lat="36.962858000770211" lon="-3.170992992818356">
        <ele>1202.27</ele>
        <time>2025-05-12T08:49:03Z</time>
      </trkpt>
      <trkpt lat="36.962838973850012" lon="-3.170900959521532">
        <ele>1203.23</ele>
        <time>2025-05-12T08:49:04Z</time>
      </trkpt>
      <trkpt lat="36.962874010205269" lon="-3.170822001993656">
        <ele>1204.1900000000001</ele>
        <time>2025-05-12T08:49:05Z</time>
      </trkpt>
      <trkpt lat="36.962936036288738" lon="-3.170746983960271">
        <ele>1205.1500000000001</ele>
        <time>2025-05-12T08:49:06Z</time>
      </trkpt>
      <trkpt lat="36.963031003251672" lon="-3.170660985633731">
        <ele>1205.6300000000001</ele>
        <time>2025-05-12T08:49:07Z</time>
      </trkpt>
      <trkpt lat="36.963138040155172" lon="-3.170564007014036">
        <ele>1206.5899999999999</ele>
        <time>2025-05-12T08:49:08Z</time>
      </trkpt>
      <trkpt lat="36.96337197907269" lon="-3.170364014804363">
        <ele>1208.51</ele>
        <time>2025-05-12T08:49:10Z</time>
      </trkpt>
      <trkpt lat="36.963508017361164" lon="-3.170319003984332">
        <ele>1209</ele>
        <time>2025-05-12T08:49:11Z</time>
      </trkpt>
      <trkpt lat="36.963728964328766" lon="-3.170244991779327">
        <ele>1211.4000000000001</ele>
        <time>2025-05-12T08:49:13Z</time>
      </trkpt>
      <trkpt lat="36.963799959048629" lon="-3.17016402259469">
        <ele>1212.3599999999999</ele>
        <time>2025-05-12T08:49:14Z</time>
      </trkpt>
      <trkpt lat="36.963849999010563" lon="-3.170027984306216">
        <ele>1213.8</ele>
        <time>2025-05-12T08:49:15Z</time>
      </trkpt>
      <trkpt lat="36.963891992345452" lon="-3.169859005138278">
        <ele>1214.76</ele>
        <time>2025-05-12T08:49:16Z</time>
      </trkpt>
      <trkpt lat="36.963937003165483" lon="-3.169679967686534">
        <ele>1215.72</ele>
        <time>2025-05-12T08:49:17Z</time>
      </trkpt>
      <trkpt lat="36.964001040905714" lon="-3.169491039589047">
        <ele>1217.1700000000001</ele>
        <time>2025-05-12T08:49:18Z</time>
      </trkpt>
      <trkpt lat="36.964073963463306" lon="-3.169296998530626">
        <ele>1218.6099999999999</ele>
        <time>2025-05-12T08:49:19Z</time>
      </trkpt>
      <trkpt lat="36.964255012571812" lon="-3.168754018843174">
        <ele>1223.4200000000001</ele>
        <time>2025-05-12T08:49:22Z</time>
      </trkpt>
      <trkpt lat="36.964261969551444" lon="-3.16859501414001">
        <ele>1224.8599999999999</ele>
        <time>2025-05-12T08:49:23Z</time>
      </trkpt>
      <trkpt lat="36.96427202783525" lon="-3.168331990018487">
        <ele>1227.74</ele>
        <time>2025-05-12T08:49:25Z</time>
      </trkpt>
      <trkpt lat="36.964313015341759" lon="-3.168256971985102">
        <ele>1228.7</ele>
        <time>2025-05-12T08:49:26Z</time>
      </trkpt>
      <trkpt lat="36.964403036981821" lon="-3.168182037770748">
        <ele>1229.1800000000001</ele>
        <time>2025-05-12T08:49:27Z</time>
      </trkpt>
      <trkpt lat="36.964498003944755" lon="-3.168191006407142">
        <ele>1230.1400000000001</ele>
        <time>2025-05-12T08:49:28Z</time>
      </trkpt>
      <trkpt lat="36.964618032798171" lon="-3.168201986700296">
        <ele>1231.1099999999999</ele>
        <time>2025-05-12T08:49:29Z</time>
      </trkpt>
      <trkpt lat="36.964894970878959" lon="-3.168224031105638">
        <ele>1232.0699999999999</ele>
        <time>2025-05-12T08:49:31Z</time>
      </trkpt>
      <trkpt lat="36.965048024430871" lon="-3.168211961165071">
        <ele>1233.03</ele>
        <time>2025-05-12T08:49:32Z</time>
      </trkpt>
      <trkpt lat="36.965207029134035" lon="-3.168167034164071">
        <ele>1233.99</ele>
        <time>2025-05-12T08:49:33Z</time>
      </trkpt>
      <trkpt lat="36.965353963896632" lon="-3.168067038059235">
        <ele>1234.47</ele>
        <time>2025-05-12T08:49:34Z</time>
      </trkpt>
      <trkpt lat="36.965502994135022" lon="-3.167966036126018">
        <ele>1235.4300000000001</ele>
        <time>2025-05-12T08:49:35Z</time>
      </trkpt>
      <trkpt lat="36.96562604047358" lon="-3.167881965637207">
        <ele>1236.3900000000001</ele>
        <time>2025-05-12T08:49:36Z</time>
      </trkpt>
      <trkpt lat="36.965793007984757" lon="-3.167852964252234">
        <ele>1237.3499999999999</ele>
        <time>2025-05-12T08:49:37Z</time>
      </trkpt>
      <trkpt lat="36.965933991596103" lon="-3.167827986180782">
        <ele>1238.3199999999999</ele>
        <time>2025-05-12T08:49:38Z</time>
      </trkpt>
      <trkpt lat="36.966067012399435" lon="-3.167751962319017">
        <ele>1239.28</ele>
        <time>2025-05-12T08:49:39Z</time>
      </trkpt>
      <trkpt lat="36.966170025989413" lon="-3.167641991749406">
        <ele>1240.24</ele>
        <time>2025-05-12T08:49:40Z</time>
      </trkpt>
      <trkpt lat="36.966253006830812" lon="-3.167503019794822">
        <ele>1241.2</ele>
        <time>2025-05-12T08:49:41Z</time>
      </trkpt>
      <trkpt lat="36.966312015429139" lon="-3.167333034798503">
        <ele>1242.1600000000001</ele>
        <time>2025-05-12T08:49:42Z</time>
      </trkpt>
      <trkpt lat="36.966374041512609" lon="-3.167155003175139">
        <ele>1243.1199999999999</ele>
        <time>2025-05-12T08:49:43Z</time>
      </trkpt>
      <trkpt lat="36.966431960463524" lon="-3.166985018178821">
        <ele>1244.5599999999999</ele>
        <time>2025-05-12T08:49:44Z</time>
      </trkpt>
      <trkpt lat="36.966521982103586" lon="-3.166868006810546">
        <ele>1245.53</ele>
        <time>2025-05-12T08:49:45Z</time>
      </trkpt>
      <trkpt lat="36.96661401540041" lon="-3.166765999048948">
        <ele>1246.49</ele>
        <time>2025-05-12T08:49:46Z</time>
      </trkpt>
      <trkpt lat="36.96674301289022" lon="-3.166712019592524">
        <ele>1247.45</ele>
        <time>2025-05-12T08:49:47Z</time>
      </trkpt>
      <trkpt lat="36.966866981238127" lon="-3.166659967973828">
        <ele>1247.9300000000001</ele>
        <time>2025-05-12T08:49:48Z</time>
      </trkpt>
      <trkpt lat="36.96695800870657" lon="-3.166537005454302">
        <ele>1247.9300000000001</ele>
        <time>2025-05-12T08:49:49Z</time>
      </trkpt>
      <trkpt lat="36.967015005648136" lon="-3.166383029893041">
        <ele>1248.4100000000001</ele>
        <time>2025-05-12T08:49:50Z</time>
      </trkpt>
      <trkpt lat="36.967064961791039" lon="-3.166211033239961">
        <ele>1248.8900000000001</ele>
        <time>2025-05-12T08:49:51Z</time>
      </trkpt>
      <trkpt lat="36.967119025066495" lon="-3.166028978303075">
        <ele>1249.3699999999999</ele>
        <time>2025-05-12T08:49:52Z</time>
      </trkpt>
      <trkpt lat="36.9671740103513" lon="-3.165839966386557">
        <ele>1249.3699999999999</ele>
        <time>2025-05-12T08:49:53Z</time>
      </trkpt>
      <trkpt lat="36.967251962050796" lon="-3.165671993046999">
        <ele>1248.8900000000001</ele>
        <time>2025-05-12T08:49:54Z</time>
      </trkpt>
      <trkpt lat="36.967340977862477" lon="-3.165512988343835">
        <ele>1248.8900000000001</ele>
        <time>2025-05-12T08:49:55Z</time>
      </trkpt>
      <trkpt lat="36.967711038887501" lon="-3.164951987564564">
        <ele>1248.4100000000001</ele>
        <time>2025-05-12T08:50:01Z</time>
      </trkpt>
      <trkpt lat="36.96775303222239" lon="-3.164892978966236">
        <ele>1248.4100000000001</ele>
        <time>2025-05-12T08:50:02Z</time>
      </trkpt>
      <trkpt lat="36.967772981151938" lon="-3.164849979802966">
        <ele>1247.9300000000001</ele>
        <time>2025-05-12T08:50:03Z</time>
      </trkpt>
      <trkpt lat="36.967787984758615" lon="-3.164817960932851">
        <ele>1247.9300000000001</ele>
        <time>2025-05-12T08:50:04Z</time>
      </trkpt>
      <trkpt lat="36.967799970880151" lon="-3.164790971204639">
        <ele>1247.9300000000001</ele>
        <time>2025-05-12T08:50:05Z</time>
      </trkpt>
      <trkpt lat="36.967852022498846" lon="-3.164677983149886">
        <ele>1246.97</ele>
        <time>2025-05-12T08:50:15Z</time>
      </trkpt>
      <trkpt lat="36.967763006687164" lon="-3.164562983438373">
        <ele>1253.22</ele>
        <time>2025-05-12T08:55:21Z</time>
      </trkpt>
      <trkpt lat="36.967897033318877" lon="-3.164581004530191">
        <ele>1246.97</ele>
        <time>2025-05-12T08:55:49Z</time>
      </trkpt>
      <trkpt lat="36.967933997511864" lon="-3.164501963183284">
        <ele>1246.97</ele>
        <time>2025-05-12T08:55:51Z</time>
      </trkpt>
      <trkpt lat="36.967958975583315" lon="-3.164445972070098">
        <ele>1246.97</ele>
        <time>2025-05-12T08:55:52Z</time>
      </trkpt>
      <trkpt lat="36.96799099445343" lon="-3.164377994835377">
        <ele>1246.97</ele>
        <time>2025-05-12T08:55:53Z</time>
      </trkpt>
      <trkpt lat="36.96801102720201" lon="-3.164293002337217">
        <ele>1246.49</ele>
        <time>2025-05-12T08:55:54Z</time>
      </trkpt>
      <trkpt lat="36.968017984181643" lon="-3.164193006232381">
        <ele>1246.49</ele>
        <time>2025-05-12T08:55:55Z</time>
      </trkpt>
      <trkpt lat="36.968027036637068" lon="-3.164081024006009">
        <ele>1246.49</ele>
        <time>2025-05-12T08:55:56Z</time>
      </trkpt>
      <trkpt lat="36.968036005273461" lon="-3.163959989324212">
        <ele>1246.49</ele>
        <time>2025-05-12T08:55:57Z</time>
      </trkpt>
      <trkpt lat="36.968044973909855" lon="-3.163834009319544">
        <ele>1246.01</ele>
        <time>2025-05-12T08:55:58Z</time>
      </trkpt>
      <trkpt lat="36.96807598695159" lon="-3.163711968809366">
        <ele>1246.01</ele>
        <time>2025-05-12T08:55:59Z</time>
      </trkpt>
      <trkpt lat="36.968157961964607" lon="-3.163548018783331">
        <ele>1245.53</ele>
        <time>2025-05-12T08:56:00Z</time>
      </trkpt>
      <trkpt lat="36.968237003311515" lon="-3.163463026285172">
        <ele>1245.04</ele>
        <time>2025-05-12T08:56:01Z</time>
      </trkpt>
      <trkpt lat="36.968340016901493" lon="-3.163351966068149">
        <ele>1244.5599999999999</ele>
        <time>2025-05-12T08:56:02Z</time>
      </trkpt>
      <trkpt lat="36.968458034098148" lon="-3.16322598606348">
        <ele>1243.5999999999999</ele>
        <time>2025-05-12T08:56:03Z</time>
      </trkpt>
      <trkpt lat="36.968503966927528" lon="-3.1630730163306">
        <ele>1243.1199999999999</ele>
        <time>2025-05-12T08:56:04Z</time>
      </trkpt>
      <trkpt lat="36.968559036031365" lon="-3.162890961393714">
        <ele>1242.1600000000001</ele>
        <time>2025-05-12T08:56:05Z</time>
      </trkpt>
      <trkpt lat="36.968640005216002" lon="-3.162477985024452">
        <ele>1239.76</ele>
        <time>2025-05-12T08:56:07Z</time>
      </trkpt>
      <trkpt lat="36.968692978844047" lon="-3.161160014569759">
        <ele>1235.4300000000001</ele>
        <time>2025-05-12T08:56:13Z</time>
      </trkpt>
      <trkpt lat="36.968659032136202" lon="-3.16098902374506">
        <ele>1234.95</ele>
        <time>2025-05-12T08:56:14Z</time>
      </trkpt>
      <trkpt lat="36.968599017709494" lon="-3.16083999350667">
        <ele>1234.47</ele>
        <time>2025-05-12T08:56:15Z</time>
      </trkpt>
      <trkpt lat="36.968534979969263" lon="-3.160700015723705">
        <ele>1234.47</ele>
        <time>2025-05-12T08:56:16Z</time>
      </trkpt>
      <trkpt lat="36.968473037704825" lon="-3.160566994920373">
        <ele>1233.99</ele>
        <time>2025-05-12T08:56:17Z</time>
      </trkpt>
      <trkpt lat="36.968415034934878" lon="-3.160443026572466">
        <ele>1233.99</ele>
        <time>2025-05-12T08:56:18Z</time>
      </trkpt>
      <trkpt lat="36.968374969437718" lon="-3.160315034911037">
        <ele>1233.99</ele>
        <time>2025-05-12T08:56:19Z</time>
      </trkpt>
      <trkpt lat="36.968386033549905" lon="-3.160184025764465">
        <ele>1233.99</ele>
        <time>2025-05-12T08:56:20Z</time>
      </trkpt>
      <trkpt lat="36.968413023278117" lon="-3.160057961940765">
        <ele>1233.51</ele>
        <time>2025-05-12T08:56:21Z</time>
      </trkpt>
      <trkpt lat="36.968473037704825" lon="-3.159951008856297">
        <ele>1233.51</ele>
        <time>2025-05-12T08:56:22Z</time>
      </trkpt>
      <trkpt lat="36.968562975525856" lon="-3.15987297333777">
        <ele>1233.51</ele>
        <time>2025-05-12T08:56:23Z</time>
      </trkpt>
      <trkpt lat="36.968671018257737" lon="-3.159833997488022">
        <ele>1233.51</ele>
        <time>2025-05-12T08:56:24Z</time>
      </trkpt>
      <trkpt lat="36.968789035454392" lon="-3.159826034680009">
        <ele>1233.51</ele>
        <time>2025-05-12T08:56:25Z</time>
      </trkpt>
      <trkpt lat="36.968908980488777" lon="-3.159817988052964">
        <ele>1233.03</ele>
        <time>2025-05-12T08:56:26Z</time>
      </trkpt>
      <trkpt lat="36.970270033925772" lon="-3.159755961969495">
        <ele>1230.6199999999999</ele>
        <time>2025-05-12T08:56:36Z</time>
      </trkpt>
      <trkpt lat="36.970585025846958" lon="-3.159763002768159">
        <ele>1230.6199999999999</ele>
        <time>2025-05-12T08:56:38Z</time>
      </trkpt>
      <trkpt lat="36.971493037417531" lon="-3.160028960555792">
        <ele>1228.7</ele>
        <time>2025-05-12T08:56:44Z</time>
      </trkpt>
      <trkpt lat="36.971590016037226" lon="-3.160113031044602">
        <ele>1227.74</ele>
        <time>2025-05-12T08:56:45Z</time>
      </trkpt>
      <trkpt lat="36.971654975786805" lon="-3.160178996622562">
        <ele>1226.78</ele>
        <time>2025-05-12T08:56:46Z</time>
      </trkpt>
      <trkpt lat="36.971787996590137" lon="-3.160244962200522">
        <ele>1226.3</ele>
        <time>2025-05-12T08:56:47Z</time>
      </trkpt>
      <trkpt lat="36.971892016008496" lon="-3.160278992727399">
        <ele>1225.3399999999999</ele>
        <time>2025-05-12T08:56:48Z</time>
      </trkpt>
      <trkpt lat="36.971973991021514" lon="-3.160204980522394">
        <ele>1224.3800000000001</ele>
        <time>2025-05-12T08:56:49Z</time>
      </trkpt>
      <trkpt lat="36.972038028761744" lon="-3.16010900773108">
        <ele>1223.4200000000001</ele>
        <time>2025-05-12T08:56:50Z</time>
      </trkpt>
      <trkpt lat="36.97207298129797" lon="-3.160003982484341">
        <ele>1222.9300000000001</ele>
        <time>2025-05-12T08:56:51Z</time>
      </trkpt>
      <trkpt lat="36.97209401987493" lon="-3.15985101275146">
        <ele>1222.45</ele>
        <time>2025-05-12T08:56:52Z</time>
      </trkpt>
      <trkpt lat="36.972117992118001" lon="-3.159683961421251">
        <ele>1221.97</ele>
        <time>2025-05-12T08:56:53Z</time>
      </trkpt>
      <trkpt lat="36.972142970189452" lon="-3.159511964768171">
        <ele>1221.97</ele>
        <time>2025-05-12T08:56:54Z</time>
      </trkpt>
      <trkpt lat="36.972203990444541" lon="-3.159341979771853">
        <ele>1221.97</ele>
        <time>2025-05-12T08:56:55Z</time>
      </trkpt>
      <trkpt lat="36.972274985164404" lon="-3.159176018089056">
        <ele>1221.97</ele>
        <time>2025-05-12T08:56:56Z</time>
      </trkpt>
      <trkpt lat="36.972385961562395" lon="-3.159035034477711">
        <ele>1221.97</ele>
        <time>2025-05-12T08:56:57Z</time>
      </trkpt>
      <trkpt lat="36.972494004294276" lon="-3.158910982310772">
        <ele>1222.45</ele>
        <time>2025-05-12T08:56:58Z</time>
      </trkpt>
      <trkpt lat="36.972601963207126" lon="-3.158803023397923">
        <ele>1222.45</ele>
        <time>2025-05-12T08:56:59Z</time>
      </trkpt>
      <trkpt lat="36.972714029252529" lon="-3.158730017021298">
        <ele>1222.9300000000001</ele>
        <time>2025-05-12T08:57:00Z</time>
      </trkpt>
      <trkpt lat="36.972835985943675" lon="-3.158675031736493">
        <ele>1223.4200000000001</ele>
        <time>2025-05-12T08:57:01Z</time>
      </trkpt>
      <trkpt lat="36.972972024232149" lon="-3.158647958189249">
        <ele>1223.4200000000001</ele>
        <time>2025-05-12T08:57:02Z</time>
      </trkpt>
      <trkpt lat="36.973117031157017" lon="-3.158634966239333">
        <ele>1223.9000000000001</ele>
        <time>2025-05-12T08:57:03Z</time>
      </trkpt>
      <trkpt lat="36.973267989233136" lon="-3.158622980117798">
        <ele>1223.9000000000001</ele>
        <time>2025-05-12T08:57:04Z</time>
      </trkpt>
      <trkpt lat="36.974401976913214" lon="-3.158418964594603">
        <ele>1224.3800000000001</ele>
        <time>2025-05-12T08:57:11Z</time>
      </trkpt>
      <trkpt lat="36.974551007151604" lon="-3.15839096903801">
        <ele>1224.3800000000001</ele>
        <time>2025-05-12T08:57:12Z</time>
      </trkpt>
      <trkpt lat="36.974705988541245" lon="-3.158361967653036">
        <ele>1224.3800000000001</ele>
        <time>2025-05-12T08:57:13Z</time>
      </trkpt>
      <trkpt lat="36.974863987416029" lon="-3.158362973481417">
        <ele>1224.3800000000001</ele>
        <time>2025-05-12T08:57:14Z</time>
      </trkpt>
      <trkpt lat="36.975017040967941" lon="-3.158373031765223">
        <ele>1224.3800000000001</ele>
        <time>2025-05-12T08:57:15Z</time>
      </trkpt>
      <trkpt lat="36.975389029830694" lon="-3.158398009836674">
        <ele>1223.9000000000001</ele>
        <time>2025-05-12T08:57:18Z</time>
      </trkpt>
      <trkpt lat="36.975477039813995" lon="-3.158485013991594">
        <ele>1223.9000000000001</ele>
        <time>2025-05-12T08:57:19Z</time>
      </trkpt>
      <trkpt lat="36.975561026483774" lon="-3.158570006489754">
        <ele>1223.9000000000001</ele>
        <time>2025-05-12T08:57:20Z</time>
      </trkpt>
      <trkpt lat="36.975634032860398" lon="-3.158686012029648">
        <ele>1223.9000000000001</ele>
        <time>2025-05-12T08:57:21Z</time>
      </trkpt>
      <trkpt lat="36.975709972903132" lon="-3.158806962892413">
        <ele>1223.9000000000001</ele>
        <time>2025-05-12T08:57:22Z</time>
      </trkpt>
      <trkpt lat="36.975785996764898" lon="-3.15892799757421">
        <ele>1224.3800000000001</ele>
        <time>2025-05-12T08:57:23Z</time>
      </trkpt>
      <trkpt lat="36.975864032283425" lon="-3.159050960093737">
        <ele>1224.3800000000001</ele>
        <time>2025-05-12T08:57:24Z</time>
      </trkpt>
      <trkpt lat="36.975956987589598" lon="-3.15916302613914">
        <ele>1224.3800000000001</ele>
        <time>2025-05-12T08:57:25Z</time>
      </trkpt>
      <trkpt lat="36.976072993129492" lon="-3.159217005595565">
        <ele>1224.3800000000001</ele>
        <time>2025-05-12T08:57:26Z</time>
      </trkpt>
      <trkpt lat="36.976186987012625" lon="-3.159269979223609">
        <ele>1224.3800000000001</ele>
        <time>2025-05-12T08:57:27Z</time>
      </trkpt>
      <trkpt lat="36.976310033351183" lon="-3.159255981445313">
        <ele>1224.3800000000001</ele>
        <time>2025-05-12T08:57:28Z</time>
      </trkpt>
      <trkpt lat="36.976428972557187" lon="-3.1592289917171">
        <ele>1224.3800000000001</ele>
        <time>2025-05-12T08:57:29Z</time>
      </trkpt>
      <trkpt lat="36.97654003277421" lon="-3.159164031967521">
        <ele>1224.3800000000001</ele>
        <time>2025-05-12T08:57:30Z</time>
      </trkpt>
      <trkpt lat="36.976647991687059" lon="-3.159101000055671">
        <ele>1224.3800000000001</ele>
        <time>2025-05-12T08:57:31Z</time>
      </trkpt>
      <trkpt lat="36.977033978328109" lon="-3.158918023109436">
        <ele>1225.8199999999999</ele>
        <time>2025-05-12T08:57:35Z</time>
      </trkpt>
      <trkpt lat="36.977128023281693" lon="-3.158903019502759">
        <ele>1226.3</ele>
        <time>2025-05-12T08:57:36Z</time>
      </trkpt>
      <trkpt lat="36.977218966931105" lon="-3.158889021724463">
        <ele>1226.78</ele>
        <time>2025-05-12T08:57:37Z</time>
      </trkpt>
      <trkpt lat="36.977308988571167" lon="-3.158874018117786">
        <ele>1227.26</ele>
        <time>2025-05-12T08:57:38Z</time>
      </trkpt>
      <trkpt lat="36.977398004382849" lon="-3.158860020339489">
        <ele>1227.74</ele>
        <time>2025-05-12T08:57:39Z</time>
      </trkpt>
      <trkpt lat="36.977489031851292" lon="-3.158834958449006">
        <ele>1227.74</ele>
        <time>2025-05-12T08:57:40Z</time>
      </trkpt>
      <trkpt lat="36.977564971894026" lon="-3.158779973164201">
        <ele>1228.22</ele>
        <time>2025-05-12T08:57:41Z</time>
      </trkpt>
      <trkpt lat="36.977913994342089" lon="-3.158529018983245">
        <ele>1230.1400000000001</ele>
        <time>2025-05-12T08:57:46Z</time>
      </trkpt>
      <trkpt lat="36.978041986003518" lon="-3.158458024263382">
        <ele>1230.6199999999999</ele>
        <time>2025-05-12T08:57:48Z</time>
      </trkpt>
      <trkpt lat="36.97811096906662" lon="-3.158448971807957">
        <ele>1231.1099999999999</ele>
        <time>2025-05-12T08:57:49Z</time>
      </trkpt>
      <trkpt lat="36.978178024291992" lon="-3.158441008999944">
        <ele>1231.1099999999999</ele>
        <time>2025-05-12T08:57:50Z</time>
      </trkpt>
      <trkpt lat="36.978229992091656" lon="-3.158499011769891">
        <ele>1231.1099999999999</ele>
        <time>2025-05-12T08:57:51Z</time>
      </trkpt>
      <trkpt lat="36.978291012346745" lon="-3.158570006489754">
        <ele>1231.1099999999999</ele>
        <time>2025-05-12T08:57:52Z</time>
      </trkpt>
      <trkpt lat="36.978357983753085" lon="-3.15864603035152">
        <ele>1230.6199999999999</ele>
        <time>2025-05-12T08:57:53Z</time>
      </trkpt>
      <trkpt lat="36.978425960987806" lon="-3.158723982051015">
        <ele>1229.6600000000001</ele>
        <time>2025-05-12T08:57:54Z</time>
      </trkpt>
      <trkpt lat="36.97849796153605" lon="-3.158791959285736">
        <ele>1229.6600000000001</ele>
        <time>2025-05-12T08:57:55Z</time>
      </trkpt>
      <trkpt lat="36.978574991226196" lon="-3.158822972327471">
        <ele>1229.1800000000001</ele>
        <time>2025-05-12T08:57:56Z</time>
      </trkpt>
      <trkpt lat="36.978653026744723" lon="-3.15877896733582">
        <ele>1228.7</ele>
        <time>2025-05-12T08:57:57Z</time>
      </trkpt>
      <trkpt lat="36.978714969009161" lon="-3.15873496234417">
        <ele>1228.22</ele>
        <time>2025-05-12T08:57:58Z</time>
      </trkpt>
      <trkpt lat="36.978755034506321" lon="-3.158653993159533">
        <ele>1227.26</ele>
        <time>2025-05-12T08:57:59Z</time>
      </trkpt>
      <trkpt lat="36.978782024234533" lon="-3.158558020368218">
        <ele>1226.78</ele>
        <time>2025-05-12T08:58:00Z</time>
      </trkpt>
      <trkpt lat="36.978813037276268" lon="-3.158450983464718">
        <ele>1226.3</ele>
        <time>2025-05-12T08:58:01Z</time>
      </trkpt>
      <trkpt lat="36.979057034477592" lon="-3.157496033236384">
        <ele>1220.05</ele>
        <time>2025-05-12T08:58:09Z</time>
      </trkpt>
      <trkpt lat="36.979105984792113" lon="-3.157390002161264">
        <ele>1219.5699999999999</ele>
        <time>2025-05-12T08:58:10Z</time>
      </trkpt>
      <trkpt lat="36.979157030582428" lon="-3.157282965257764">
        <ele>1218.6099999999999</ele>
        <time>2025-05-12T08:58:11Z</time>
      </trkpt>
      <trkpt lat="36.97920598089695" lon="-3.157199984416366">
        <ele>1217.6500000000001</ele>
        <time>2025-05-12T08:58:12Z</time>
      </trkpt>
      <trkpt lat="36.979275969788432" lon="-3.157133013010025">
        <ele>1216.6900000000001</ele>
        <time>2025-05-12T08:58:13Z</time>
      </trkpt>
      <trkpt lat="36.979343025013804" lon="-3.157067969441414">
        <ele>1215.72</ele>
        <time>2025-05-12T08:58:14Z</time>
      </trkpt>
      <trkpt lat="36.979408990591764" lon="-3.157006027176976">
        <ele>1214.76</ele>
        <time>2025-05-12T08:58:15Z</time>
      </trkpt>
      <trkpt lat="36.979675032198429" lon="-3.156731016933918">
        <ele>1209.96</ele>
        <time>2025-05-12T08:58:20Z</time>
      </trkpt>
      <trkpt lat="36.979889022186399" lon="-3.156334972009063">
        <ele>1204.1900000000001</ele>
        <time>2025-05-12T08:58:27Z</time>
      </trkpt>
      <trkpt lat="36.980133019387722" lon="-3.155956026166678">
        <ele>1198.9000000000001</ele>
        <time>2025-05-12T08:58:35Z</time>
      </trkpt>
      <trkpt lat="36.98021600022912" lon="-3.155882013961673">
        <ele>1197.9400000000001</ele>
        <time>2025-05-12T08:58:37Z</time>
      </trkpt>
      <trkpt lat="36.98023796081543" lon="-3.155866004526615">
        <ele>1197.46</ele>
        <time>2025-05-12T08:58:38Z</time>
      </trkpt>
      <trkpt lat="36.980290012434125" lon="-3.15585401840508">
        <ele>1196.98</ele>
        <time>2025-05-12T08:58:39Z</time>
      </trkpt>
      <trkpt lat="36.980437031015754" lon="-3.155823005363345">
        <ele>1195.54</ele>
        <time>2025-05-12T08:58:42Z</time>
      </trkpt>
      <trkpt lat="36.980495033785701" lon="-3.155823005363345">
        <ele>1195.0599999999999</ele>
        <time>2025-05-12T08:58:43Z</time>
      </trkpt>
      <trkpt lat="36.9805589877069" lon="-3.155823005363345">
        <ele>1194.5799999999999</ele>
        <time>2025-05-12T08:58:44Z</time>
      </trkpt>
      <trkpt lat="36.98062302544713" lon="-3.155823005363345">
        <ele>1194.0899999999999</ele>
        <time>2025-05-12T08:58:45Z</time>
      </trkpt>
      <trkpt lat="36.980668036267161" lon="-3.155823005363345">
        <ele>1194.0899999999999</ele>
        <time>2025-05-12T08:58:46Z</time>
      </trkpt>
      <trkpt lat="36.980734001845121" lon="-3.155853012576699">
        <ele>1193.6099999999999</ele>
        <time>2025-05-12T08:58:47Z</time>
      </trkpt>
      <trkpt lat="36.980771971866488" lon="-3.155868016183376">
        <ele>1193.1300000000001</ele>
        <time>2025-05-12T08:58:48Z</time>
      </trkpt>
      <trkpt lat="36.981024015694857" lon="-3.155969018116593">
        <ele>1191.6900000000001</ele>
        <time>2025-05-12T08:58:56Z</time>
      </trkpt>
      <trkpt lat="36.981057040393353" lon="-3.155968012288213">
        <ele>1191.6900000000001</ele>
        <time>2025-05-12T08:58:57Z</time>
      </trkpt>
      <trkpt lat="36.981099033728242" lon="-3.155958037823439">
        <ele>1191.21</ele>
        <time>2025-05-12T08:58:58Z</time>
      </trkpt>
      <trkpt lat="36.981151001527905" lon="-3.155946973711252">
        <ele>1191.21</ele>
        <time>2025-05-12T08:58:59Z</time>
      </trkpt>
      <trkpt lat="36.98122501373291" lon="-3.155929958447814">
        <ele>1191.21</ele>
        <time>2025-05-12T08:59:00Z</time>
      </trkpt>
      <trkpt lat="36.981266001239419" lon="-3.15589802339673">
        <ele>1191.21</ele>
        <time>2025-05-12T08:59:01Z</time>
      </trkpt>
      <trkpt lat="36.981314029544592" lon="-3.155858963727951">
        <ele>1191.21</ele>
        <time>2025-05-12T08:59:02Z</time>
      </trkpt>
      <trkpt lat="36.981358034536242" lon="-3.155826022848487">
        <ele>1190.73</ele>
        <time>2025-05-12T08:59:03Z</time>
      </trkpt>
      <trkpt lat="36.981400027871132" lon="-3.155797021463513">
        <ele>1190.73</ele>
        <time>2025-05-12T08:59:04Z</time>
      </trkpt>
      <trkpt lat="36.981444032862782" lon="-3.155766008421779">
        <ele>1190.73</ele>
        <time>2025-05-12T08:59:05Z</time>
      </trkpt>
      <trkpt lat="36.98148200288415" lon="-3.155739018693566">
        <ele>1190.25</ele>
        <time>2025-05-12T08:59:06Z</time>
      </trkpt>
      <trkpt lat="36.981515027582645" lon="-3.155714962631464">
        <ele>1189.77</ele>
        <time>2025-05-12T08:59:07Z</time>
      </trkpt>
      <trkpt lat="36.98154604062438" lon="-3.155694007873535">
        <ele>1189.77</ele>
        <time>2025-05-12T08:59:08Z</time>
      </trkpt>
      <trkpt lat="36.981576969847083" lon="-3.155671041458845">
        <ele>1189.77</ele>
        <time>2025-05-12T08:59:09Z</time>
      </trkpt>
      <trkpt lat="36.981629021465778" lon="-3.155633993446827">
        <ele>1189.77</ele>
        <time>2025-05-12T08:59:11Z</time>
      </trkpt>
      <trkpt lat="36.981651987880468" lon="-3.155617984011769">
        <ele>1190.25</ele>
        <time>2025-05-12T08:59:12Z</time>
      </trkpt>
      <trkpt lat="36.981673026457429" lon="-3.155602980405092">
        <ele>1190.25</ele>
        <time>2025-05-12T08:59:13Z</time>
      </trkpt>
      <trkpt lat="36.98171703144908" lon="-3.155571967363358">
        <ele>1190.25</ele>
        <time>2025-05-12T08:59:14Z</time>
      </trkpt>
      <trkpt lat="36.981771010905504" lon="-3.155533997341991">
        <ele>1190.73</ele>
        <time>2025-05-12T08:59:15Z</time>
      </trkpt>
      <trkpt lat="36.981829013675451" lon="-3.155493009835482">
        <ele>1190.73</ele>
        <time>2025-05-12T08:59:16Z</time>
      </trkpt>
      <trkpt lat="36.981929009780288" lon="-3.155388990417123">
        <ele>1191.21</ele>
        <time>2025-05-12T08:59:18Z</time>
      </trkpt>
      <trkpt lat="36.98197603225708" lon="-3.155337022617459">
        <ele>1191.21</ele>
        <time>2025-05-12T08:59:19Z</time>
      </trkpt>
      <trkpt lat="36.98204099200666" lon="-3.155265022069216">
        <ele>1191.6900000000001</ele>
        <time>2025-05-12T08:59:20Z</time>
      </trkpt>
      <trkpt lat="36.982058007270098" lon="-3.155221017077565">
        <ele>1192.1700000000001</ele>
        <time>2025-05-12T08:59:21Z</time>
      </trkpt>
      <trkpt lat="36.982082985341549" lon="-3.155158990994096">
        <ele>1192.1700000000001</ele>
        <time>2025-05-12T08:59:22Z</time>
      </trkpt>
      <trkpt lat="36.982107041403651" lon="-3.155099982395768">
        <ele>1192.6500000000001</ele>
        <time>2025-05-12T08:59:23Z</time>
      </trkpt>
      <trkpt lat="36.98212799616158" lon="-3.155046002939344">
        <ele>1192.6500000000001</ele>
        <time>2025-05-12T08:59:24Z</time>
      </trkpt>
      <trkpt lat="36.982167977839708" lon="-3.154940977692604">
        <ele>1192.6500000000001</ele>
        <time>2025-05-12T08:59:26Z</time>
      </trkpt>
      <trkpt lat="36.98219102807343" lon="-3.154879035428166">
        <ele>1192.6500000000001</ele>
        <time>2025-05-12T08:59:27Z</time>
      </trkpt>
      <trkpt lat="36.982212988659739" lon="-3.154842993244529">
        <ele>1192.6500000000001</ele>
        <time>2025-05-12T08:59:28Z</time>
      </trkpt>
      <trkpt lat="36.982240984216332" lon="-3.154797982424498">
        <ele>1192.1700000000001</ele>
        <time>2025-05-12T08:59:29Z</time>
      </trkpt>
      <trkpt lat="36.982268979772925" lon="-3.154751965776086">
        <ele>1191.6900000000001</ele>
        <time>2025-05-12T08:59:30Z</time>
      </trkpt>
      <trkpt lat="36.982337040826678" lon="-3.154641995206475">
        <ele>1191.21</ele>
        <time>2025-05-12T08:59:32Z</time>
      </trkpt>
      <trkpt lat="36.982381967827678" lon="-3.154580974951387">
        <ele>1190.73</ele>
        <time>2025-05-12T08:59:33Z</time>
      </trkpt>
      <trkpt lat="36.982436031103134" lon="-3.154525989666581">
        <ele>1190.25</ele>
        <time>2025-05-12T08:59:34Z</time>
      </trkpt>
      <trkpt lat="36.982616996392608" lon="-3.154346030205488">
        <ele>1189.29</ele>
        <time>2025-05-12T08:59:37Z</time>
      </trkpt>
      <trkpt lat="36.982685979455709" lon="-3.154322979971767">
        <ele>1188.8099999999999</ele>
        <time>2025-05-12T08:59:38Z</time>
      </trkpt>
      <trkpt lat="36.982764014974236" lon="-3.154299007728696">
        <ele>1188.3299999999999</ele>
        <time>2025-05-12T08:59:39Z</time>
      </trkpt>
      <trkpt lat="36.982837021350861" lon="-3.154278974980116">
        <ele>1188.3299999999999</ele>
        <time>2025-05-12T08:59:40Z</time>
      </trkpt>
      <trkpt lat="36.982917990535498" lon="-3.154318034648895">
        <ele>1187.8499999999999</ele>
        <time>2025-05-12T08:59:41Z</time>
      </trkpt>
      <trkpt lat="36.982998959720135" lon="-3.154357010498643">
        <ele>1187.8499999999999</ele>
        <time>2025-05-12T08:59:42Z</time>
      </trkpt>
      <trkpt lat="36.983078001067042" lon="-3.15439498052001">
        <ele>1187.3699999999999</ele>
        <time>2025-05-12T08:59:43Z</time>
      </trkpt>
      <trkpt lat="36.983152013272047" lon="-3.154431022703648">
        <ele>1186.8800000000001</ele>
        <time>2025-05-12T08:59:44Z</time>
      </trkpt>
      <trkpt lat="36.983305988833308" lon="-3.154505034908652">
        <ele>1185.4400000000001</ele>
        <time>2025-05-12T08:59:46Z</time>
      </trkpt>
      <trkpt lat="36.983383018523455" lon="-3.154543004930019">
        <ele>1184.96</ele>
        <time>2025-05-12T08:59:47Z</time>
      </trkpt>
      <trkpt lat="36.983535988256335" lon="-3.154571000486612">
        <ele>1183.52</ele>
        <time>2025-05-12T08:59:49Z</time>
      </trkpt>
      <trkpt lat="36.98367303237319" lon="-3.154559014365077">
        <ele>1182.0799999999999</ele>
        <time>2025-05-12T08:59:51Z</time>
      </trkpt>
      <trkpt lat="36.983723994344473" lon="-3.154534036293626">
        <ele>1181.1199999999999</ele>
        <time>2025-05-12T08:59:52Z</time>
      </trkpt>
      <trkpt lat="36.983772022649646" lon="-3.154498999938369">
        <ele>1180.6400000000001</ele>
        <time>2025-05-12T08:59:53Z</time>
      </trkpt>
      <trkpt lat="36.983818961307406" lon="-3.154464969411492">
        <ele>1179.6700000000001</ele>
        <time>2025-05-12T08:59:54Z</time>
      </trkpt>
      <trkpt lat="36.983861960470676" lon="-3.154434040188789">
        <ele>1178.71</ele>
        <time>2025-05-12T08:59:55Z</time>
      </trkpt>
      <trkpt lat="36.983905965462327" lon="-3.154402021318674">
        <ele>1177.75</ele>
        <time>2025-05-12T08:59:56Z</time>
      </trkpt>
      <trkpt lat="36.983951982110739" lon="-3.154362039640546">
        <ele>1177.27</ele>
        <time>2025-05-12T08:59:57Z</time>
      </trkpt>
      <trkpt lat="36.984015014022589" lon="-3.154299007728696">
        <ele>1176.3099999999999</ele>
        <time>2025-05-12T08:59:58Z</time>
      </trkpt>
      <trkpt lat="36.984056001529098" lon="-3.154246034100652">
        <ele>1175.3499999999999</ele>
        <time>2025-05-12T08:59:59Z</time>
      </trkpt>
      <trkpt lat="36.984112998470664" lon="-3.154174033552408">
        <ele>1174.3900000000001</ele>
        <time>2025-05-12T09:00:00Z</time>
      </trkpt>
      <trkpt lat="36.984173012897372" lon="-3.154098009690642">
        <ele>1173.4300000000001</ele>
        <time>2025-05-12T09:00:01Z</time>
      </trkpt>
      <trkpt lat="36.984436959028244" lon="-3.15381302498281">
        <ele>1169.0999999999999</ele>
        <time>2025-05-12T09:00:05Z</time>
      </trkpt>
      <trkpt lat="36.985087981447577" lon="-3.153220005333424">
        <ele>1164.29</ele>
        <time>2025-05-12T09:00:14Z</time>
      </trkpt>
      <trkpt lat="36.985918963328004" lon="-3.152467980980873">
        <ele>1159.01</ele>
        <time>2025-05-12T09:00:21Z</time>
      </trkpt>
      <trkpt lat="36.98606195859611" lon="-3.152360022068024">
        <ele>1158.05</ele>
        <time>2025-05-12T09:00:22Z</time>
      </trkpt>
      <trkpt lat="36.986216017976403" lon="-3.152268994599581">
        <ele>1157.5599999999999</ele>
        <time>2025-05-12T09:00:23Z</time>
      </trkpt>
      <trkpt lat="36.98638298548758" lon="-3.152172015979886">
        <ele>1156.5999999999999</ele>
        <time>2025-05-12T09:00:24Z</time>
      </trkpt>
      <trkpt lat="36.986571997404099" lon="-3.152101021260023">
        <ele>1155.6400000000001</ele>
        <time>2025-05-12T09:00:25Z</time>
      </trkpt>
      <trkpt lat="36.986760003492236" lon="-3.15202902071178">
        <ele>1154.6800000000001</ele>
        <time>2025-05-12T09:00:26Z</time>
      </trkpt>
      <trkpt lat="36.986937029287219" lon="-3.151961965486407">
        <ele>1153.72</ele>
        <time>2025-05-12T09:00:27Z</time>
      </trkpt>
      <trkpt lat="36.987106008455157" lon="-3.151934975758195">
        <ele>1152.28</ele>
        <time>2025-05-12T09:00:28Z</time>
      </trkpt>
      <trkpt lat="36.987269958481193" lon="-3.151928018778563">
        <ele>1151.3199999999999</ele>
        <time>2025-05-12T09:00:29Z</time>
      </trkpt>
      <trkpt lat="36.987429969012737" lon="-3.151921983808279">
        <ele>1149.8699999999999</ele>
        <time>2025-05-12T09:00:30Z</time>
      </trkpt>
      <trkpt lat="36.987557960674167" lon="-3.151906980201602">
        <ele>1147.95</ele>
        <time>2025-05-12T09:00:31Z</time>
      </trkpt>
      <trkpt lat="36.987659968435764" lon="-3.151863981038332">
        <ele>1146.51</ele>
        <time>2025-05-12T09:00:32Z</time>
      </trkpt>
      <trkpt lat="36.987721994519234" lon="-3.151789968833327">
        <ele>1144.5899999999999</ele>
        <time>2025-05-12T09:00:33Z</time>
      </trkpt>
      <trkpt lat="36.987765999510884" lon="-3.15166600048542">
        <ele>1143.1400000000001</ele>
        <time>2025-05-12T09:00:34Z</time>
      </trkpt>
      <trkpt lat="36.987784020602703" lon="-3.151506995782256">
        <ele>1141.7</ele>
        <time>2025-05-12T09:00:35Z</time>
      </trkpt>
      <trkpt lat="36.98775501921773" lon="-3.151326030492783">
        <ele>1140.26</ele>
        <time>2025-05-12T09:00:36Z</time>
      </trkpt>
      <trkpt lat="36.987725012004375" lon="-3.151140036061406">
        <ele>1138.8199999999999</ele>
        <time>2025-05-12T09:00:37Z</time>
      </trkpt>
      <trkpt lat="36.987697016447783" lon="-3.150970973074436">
        <ele>1137.3800000000001</ele>
        <time>2025-05-12T09:00:38Z</time>
      </trkpt>
      <trkpt lat="36.987673966214061" lon="-3.15082797780633">
        <ele>1135.45</ele>
        <time>2025-05-12T09:00:39Z</time>
      </trkpt>
      <trkpt lat="36.987693998962641" lon="-3.150685988366604">
        <ele>1134.01</ele>
        <time>2025-05-12T09:00:40Z</time>
      </trkpt>
      <trkpt lat="36.987769016996026" lon="-3.150566965341568">
        <ele>1133.05</ele>
        <time>2025-05-12T09:00:41Z</time>
      </trkpt>
      <trkpt lat="36.987880999222398" lon="-3.150481972843409">
        <ele>1131.6099999999999</ele>
        <time>2025-05-12T09:00:42Z</time>
      </trkpt>
      <trkpt lat="36.988003961741924" lon="-3.150431010872126">
        <ele>1130.1700000000001</ele>
        <time>2025-05-12T09:00:43Z</time>
      </trkpt>
      <trkpt lat="36.988148968666792" lon="-3.150404021143913">
        <ele>1128.73</ele>
        <time>2025-05-12T09:00:44Z</time>
      </trkpt>
      <trkpt lat="36.988285006955266" lon="-3.150428999215365">
        <ele>1127.28</ele>
        <time>2025-05-12T09:00:45Z</time>
      </trkpt>
      <trkpt lat="36.988415010273457" lon="-3.150423970073462">
        <ele>1125.3599999999999</ele>
        <time>2025-05-12T09:00:46Z</time>
      </trkpt>
      <trkpt lat="36.98852900415659" lon="-3.150406032800674">
        <ele>1123.9200000000001</ele>
        <time>2025-05-12T09:00:47Z</time>
      </trkpt>
      <trkpt lat="36.988607039675117" lon="-3.150393962860107">
        <ele>1122.48</ele>
        <time>2025-05-12T09:00:48Z</time>
      </trkpt>
      <trkpt lat="36.988651966676116" lon="-3.150298995897174">
        <ele>1120.55</ele>
        <time>2025-05-12T09:00:49Z</time>
      </trkpt>
      <trkpt lat="36.988706029951572" lon="-3.15018299035728">
        <ele>1118.6300000000001</ele>
        <time>2025-05-12T09:00:50Z</time>
      </trkpt>
      <trkpt lat="36.9887650385499" lon="-3.150058016180992">
        <ele>1116.71</ele>
        <time>2025-05-12T09:00:51Z</time>
      </trkpt>
      <trkpt lat="36.988786999136209" lon="-3.149939998984337">
        <ele>1115.27</ele>
        <time>2025-05-12T09:00:52Z</time>
      </trkpt>
      <trkpt lat="36.988797979429364" lon="-3.14981997013092">
        <ele>1113.8199999999999</ele>
        <time>2025-05-12T09:00:53Z</time>
      </trkpt>
      <trkpt lat="36.988763026893139" lon="-3.149746041744947">
        <ele>1112.8599999999999</ele>
        <time>2025-05-12T09:00:54Z</time>
      </trkpt>
      <trkpt lat="36.988689014688134" lon="-3.149649985134602">
        <ele>1111.9000000000001</ele>
        <time>2025-05-12T09:00:55Z</time>
      </trkpt>
      <trkpt lat="36.988589018583298" lon="-3.1495619751513">
        <ele>1111.4200000000001</ele>
        <time>2025-05-12T09:00:56Z</time>
      </trkpt>
      <trkpt lat="36.987423012033105" lon="-3.148940037935972">
        <ele>1115.27</ele>
        <time>2025-05-12T09:01:04Z</time>
      </trkpt>
      <trkpt lat="36.98696200735867" lon="-3.14876401796937">
        <ele>1118.6300000000001</ele>
        <time>2025-05-12T09:01:07Z</time>
      </trkpt>
      <trkpt lat="36.986846001818776" lon="-3.1487210188061">
        <ele>1119.5899999999999</ele>
        <time>2025-05-12T09:01:08Z</time>
      </trkpt>
      <trkpt lat="36.986705018207431" lon="-3.148770974949002">
        <ele>1120.55</ele>
        <time>2025-05-12T09:01:09Z</time>
      </trkpt>
      <trkpt lat="36.98655498214066" lon="-3.148825038224459">
        <ele>1121.03</ele>
        <time>2025-05-12T09:01:10Z</time>
      </trkpt>
      <trkpt lat="36.986418021842837" lon="-3.148930985480547">
        <ele>1122.48</ele>
        <time>2025-05-12T09:01:11Z</time>
      </trkpt>
      <trkpt lat="36.986277038231492" lon="-3.149042967706919">
        <ele>1123.4400000000001</ele>
        <time>2025-05-12T09:01:12Z</time>
      </trkpt>
      <trkpt lat="36.986148040741682" lon="-3.149155033752322">
        <ele>1123.9200000000001</ele>
        <time>2025-05-12T09:01:13Z</time>
      </trkpt>
      <trkpt lat="36.986029017716646" lon="-3.149261986836791">
        <ele>1124.8800000000001</ele>
        <time>2025-05-12T09:01:14Z</time>
      </trkpt>
      <trkpt lat="36.985897002741694" lon="-3.149339016526938">
        <ele>1125.8399999999999</ele>
        <time>2025-05-12T09:01:15Z</time>
      </trkpt>
      <trkpt lat="36.985774962231517" lon="-3.149403976276517">
        <ele>1126.8</ele>
        <time>2025-05-12T09:01:16Z</time>
      </trkpt>
      <trkpt lat="36.985633978620172" lon="-3.149449992924929">
        <ele>1127.28</ele>
        <time>2025-05-12T09:01:17Z</time>
      </trkpt>
      <trkpt lat="36.985494000837207" lon="-3.149449992924929">
        <ele>1128.24</ele>
        <time>2025-05-12T09:01:18Z</time>
      </trkpt>
      <trkpt lat="36.985342036932707" lon="-3.149449992924929">
        <ele>1129.21</ele>
        <time>2025-05-12T09:01:19Z</time>
      </trkpt>
      <trkpt lat="36.985195018351078" lon="-3.149471031501889">
        <ele>1130.1700000000001</ele>
        <time>2025-05-12T09:01:20Z</time>
      </trkpt>
      <trkpt lat="36.985057974234223" lon="-3.149493997916579">
        <ele>1130.6500000000001</ele>
        <time>2025-05-12T09:01:21Z</time>
      </trkpt>
      <trkpt lat="36.984937023371458" lon="-3.149514030665159">
        <ele>1131.1300000000001</ele>
        <time>2025-05-12T09:01:22Z</time>
      </trkpt>
      <trkpt lat="36.984836021438241" lon="-3.149530962109566">
        <ele>1132.0899999999999</ele>
        <time>2025-05-12T09:01:23Z</time>
      </trkpt>
      <trkpt lat="36.984743988141418" lon="-3.149487962946296">
        <ele>1133.05</ele>
        <time>2025-05-12T09:01:24Z</time>
      </trkpt>
      <trkpt lat="36.984656983986497" lon="-3.149425014853478">
        <ele>1133.05</ele>
        <time>2025-05-12T09:01:25Z</time>
      </trkpt>
      <trkpt lat="36.984551958739758" lon="-3.149328958243132">
        <ele>1133.53</ele>
        <time>2025-05-12T09:01:26Z</time>
      </trkpt>
      <trkpt lat="36.984479036182165" lon="-3.149202978238463">
        <ele>1134.01</ele>
        <time>2025-05-12T09:01:27Z</time>
      </trkpt>
      <trkpt lat="36.98440502397716" lon="-3.149075992405415">
        <ele>1134.49</ele>
        <time>2025-05-12T09:01:28Z</time>
      </trkpt>
      <trkpt lat="36.984332017600536" lon="-3.148952024057508">
        <ele>1134.97</ele>
        <time>2025-05-12T09:01:29Z</time>
      </trkpt>
      <trkpt lat="36.984272003173828" lon="-3.148849010467529">
        <ele>1135.45</ele>
        <time>2025-05-12T09:01:30Z</time>
      </trkpt>
      <trkpt lat="36.98416999541223" lon="-3.148826966062188">
        <ele>1135.45</ele>
        <time>2025-05-12T09:01:31Z</time>
      </trkpt>
      <trkpt lat="36.984061030671" lon="-3.148802993819118">
        <ele>1135.9400000000001</ele>
        <time>2025-05-12T09:01:32Z</time>
      </trkpt>
      <trkpt lat="36.983950976282358" lon="-3.148779021576047">
        <ele>1136.9000000000001</ele>
        <time>2025-05-12T09:01:33Z</time>
      </trkpt>
      <trkpt lat="36.983842011541128" lon="-3.148755971342325">
        <ele>1137.3800000000001</ele>
        <time>2025-05-12T09:01:34Z</time>
      </trkpt>
      <trkpt lat="36.983725000172853" lon="-3.148707021027803">
        <ele>1137.8599999999999</ele>
        <time>2025-05-12T09:01:35Z</time>
      </trkpt>
      <trkpt lat="36.983155030757189" lon="-3.148304019123316">
        <ele>1137.3800000000001</ele>
        <time>2025-05-12T09:01:40Z</time>
      </trkpt>
      <trkpt lat="36.983113037422299" lon="-3.148209974169731">
        <ele>1137.3800000000001</ele>
        <time>2025-05-12T09:01:41Z</time>
      </trkpt>
      <trkpt lat="36.983091998845339" lon="-3.148110983893275">
        <ele>1136.9000000000001</ele>
        <time>2025-05-12T09:01:42Z</time>
      </trkpt>
      <trkpt lat="36.983091998845339" lon="-3.147819964215159">
        <ele>1135.9400000000001</ele>
        <time>2025-05-12T09:01:44Z</time>
      </trkpt>
      <trkpt lat="36.983091998845339" lon="-3.147655008360744">
        <ele>1134.49</ele>
        <time>2025-05-12T09:01:45Z</time>
      </trkpt>
      <trkpt lat="36.983056962490082" lon="-3.147483011707664">
        <ele>1133.05</ele>
        <time>2025-05-12T09:01:46Z</time>
      </trkpt>
      <trkpt lat="36.982974987477064" lon="-3.147315038368106">
        <ele>1131.1300000000001</ele>
        <time>2025-05-12T09:01:47Z</time>
      </trkpt>
      <trkpt lat="36.982861999422312" lon="-3.147195009514689">
        <ele>1129.6900000000001</ele>
        <time>2025-05-12T09:01:48Z</time>
      </trkpt>
      <trkpt lat="36.982746999710798" lon="-3.147073974832892">
        <ele>1128.24</ele>
        <time>2025-05-12T09:01:49Z</time>
      </trkpt>
      <trkpt lat="36.982641974464059" lon="-3.146961992606521">
        <ele>1127.28</ele>
        <time>2025-05-12T09:01:50Z</time>
      </trkpt>
      <trkpt lat="36.98255798779428" lon="-3.146841963753104">
        <ele>1125.8399999999999</ele>
        <time>2025-05-12T09:01:51Z</time>
      </trkpt>
      <trkpt lat="36.982469977810979" lon="-3.14670299179852">
        <ele>1124.4000000000001</ele>
        <time>2025-05-12T09:01:52Z</time>
      </trkpt>
      <trkpt lat="36.982429996132851" lon="-3.146533006802201">
        <ele>1122.96</ele>
        <time>2025-05-12T09:01:53Z</time>
      </trkpt>
      <trkpt lat="36.982383979484439" lon="-3.1463379599154">
        <ele>1121.52</ele>
        <time>2025-05-12T09:01:54Z</time>
      </trkpt>
      <trkpt lat="36.982377022504807" lon="-3.146193036809564">
        <ele>1120.55</ele>
        <time>2025-05-12T09:01:55Z</time>
      </trkpt>
      <trkpt lat="36.982369981706142" lon="-3.146039983257651">
        <ele>1119.1099999999999</ele>
        <time>2025-05-12T09:01:56Z</time>
      </trkpt>
      <trkpt lat="36.98236302472651" lon="-3.145888019353151">
        <ele>1118.1500000000001</ele>
        <time>2025-05-12T09:01:57Z</time>
      </trkpt>
      <trkpt lat="36.982294041663408" lon="-3.145776959136128">
        <ele>1117.1900000000001</ele>
        <time>2025-05-12T09:01:58Z</time>
      </trkpt>
      <trkpt lat="36.982180969789624" lon="-3.145676963031292">
        <ele>1116.23</ele>
        <time>2025-05-12T09:01:59Z</time>
      </trkpt>
      <trkpt lat="36.982052978128195" lon="-3.145562969148159">
        <ele>1115.75</ele>
        <time>2025-05-12T09:02:00Z</time>
      </trkpt>
      <trkpt lat="36.98180302977562" lon="-3.145297011360526">
        <ele>1113.8199999999999</ele>
        <time>2025-05-12T09:02:02Z</time>
      </trkpt>
      <trkpt lat="36.981687024235725" lon="-3.145147981122136">
        <ele>1112.8599999999999</ele>
        <time>2025-05-12T09:02:03Z</time>
      </trkpt>
      <trkpt lat="36.981584010645747" lon="-3.145000962540507">
        <ele>1111.9000000000001</ele>
        <time>2025-05-12T09:02:04Z</time>
      </trkpt>
      <trkpt lat="36.981496000662446" lon="-3.144844975322485">
        <ele>1110.9400000000001</ele>
        <time>2025-05-12T09:02:05Z</time>
      </trkpt>
      <trkpt lat="36.981413019821048" lon="-3.144696028903127">
        <ele>1109.98</ele>
        <time>2025-05-12T09:02:06Z</time>
      </trkpt>
      <trkpt lat="36.981340013444424" lon="-3.144564013928175">
        <ele>1109.02</ele>
        <time>2025-05-12T09:02:07Z</time>
      </trkpt>
      <trkpt lat="36.981275975704193" lon="-3.144450020045042">
        <ele>1108.0599999999999</ele>
        <time>2025-05-12T09:02:08Z</time>
      </trkpt>
      <trkpt lat="36.98120397515595" lon="-3.144321022555232">
        <ele>1107.0999999999999</ele>
        <time>2025-05-12T09:02:09Z</time>
      </trkpt>
      <trkpt lat="36.981229959055781" lon="-3.144190013408661">
        <ele>1106.1300000000001</ele>
        <time>2025-05-12T09:02:10Z</time>
      </trkpt>
      <trkpt lat="36.981259966269135" lon="-3.144044000655413">
        <ele>1105.6500000000001</ele>
        <time>2025-05-12T09:02:11Z</time>
      </trkpt>
      <trkpt lat="36.981275975704193" lon="-3.1439099740237">
        <ele>1105.6500000000001</ele>
        <time>2025-05-12T09:02:12Z</time>
      </trkpt>
      <trkpt lat="36.98128997348249" lon="-3.143742000684142">
        <ele>1105.1700000000001</ele>
        <time>2025-05-12T09:02:13Z</time>
      </trkpt>
      <trkpt lat="36.98126801289618" lon="-3.143634963780642">
        <ele>1104.6900000000001</ele>
        <time>2025-05-12T09:02:14Z</time>
      </trkpt>
      <trkpt lat="36.981194000691175" lon="-3.143592970445752">
        <ele>1104.6900000000001</ele>
        <time>2025-05-12T09:02:15Z</time>
      </trkpt>
      <trkpt lat="36.98107497766614" lon="-3.143528010696173">
        <ele>1104.6900000000001</ele>
        <time>2025-05-12T09:02:16Z</time>
      </trkpt>
      <trkpt lat="36.980951009318233" lon="-3.143518958240748">
        <ele>1105.1700000000001</ele>
        <time>2025-05-12T09:02:17Z</time>
      </trkpt>
      <trkpt lat="36.979818027466536" lon="-3.143380992114544">
        <ele>1111.9000000000001</ele>
        <time>2025-05-12T09:02:24Z</time>
      </trkpt>
      <trkpt lat="36.979547040537" lon="-3.143311003223062">
        <ele>1114.3099999999999</ele>
        <time>2025-05-12T09:02:26Z</time>
      </trkpt>
      <trkpt lat="36.979443021118641" lon="-3.143259035423398">
        <ele>1115.27</ele>
        <time>2025-05-12T09:02:27Z</time>
      </trkpt>
      <trkpt lat="36.979374038055539" lon="-3.143138000741601">
        <ele>1116.23</ele>
        <time>2025-05-12T09:02:28Z</time>
      </trkpt>
      <trkpt lat="36.979307988658547" lon="-3.142989976331592">
        <ele>1117.1900000000001</ele>
        <time>2025-05-12T09:02:29Z</time>
      </trkpt>
      <trkpt lat="36.979250991716981" lon="-3.142861984670162">
        <ele>1118.6300000000001</ele>
        <time>2025-05-12T09:02:30Z</time>
      </trkpt>
      <trkpt lat="36.979243028908968" lon="-3.142639026045799">
        <ele>1119.5899999999999</ele>
        <time>2025-05-12T09:02:31Z</time>
      </trkpt>
      <trkpt lat="36.979234982281923" lon="-3.142442973330617">
        <ele>1120.55</ele>
        <time>2025-05-12T09:02:32Z</time>
      </trkpt>
      <trkpt lat="36.979230036959052" lon="-3.142304001376033">
        <ele>1121.52</ele>
        <time>2025-05-12T09:02:33Z</time>
      </trkpt>
      <trkpt lat="36.979168010875583" lon="-3.142118006944656">
        <ele>1122.48</ele>
        <time>2025-05-12T09:02:34Z</time>
      </trkpt>
      <trkpt lat="36.979075977578759" lon="-3.142039971426129">
        <ele>1122.96</ele>
        <time>2025-05-12T09:02:35Z</time>
      </trkpt>
      <trkpt lat="36.978961983695626" lon="-3.141949027776718">
        <ele>1123.4400000000001</ele>
        <time>2025-05-12T09:02:36Z</time>
      </trkpt>
      <trkpt lat="36.978830974549055" lon="-3.141842996701598">
        <ele>1123.9200000000001</ele>
        <time>2025-05-12T09:02:37Z</time>
      </trkpt>
      <trkpt lat="36.978698959574103" lon="-3.141718022525311">
        <ele>1124.4000000000001</ele>
        <time>2025-05-12T09:02:38Z</time>
      </trkpt>
      <trkpt lat="36.978577002882957" lon="-3.141554994508624">
        <ele>1124.4000000000001</ele>
        <time>2025-05-12T09:02:39Z</time>
      </trkpt>
      <trkpt lat="36.978449011221528" lon="-3.141379980370402">
        <ele>1124.8800000000001</ele>
        <time>2025-05-12T09:02:40Z</time>
      </trkpt>
      <trkpt lat="36.977558014914393" lon="-3.14029703848064">
        <ele>1126.8</ele>
        <time>2025-05-12T09:02:47Z</time>
      </trkpt>
      <trkpt lat="36.977321980521083" lon="-3.140093022957444">
        <ele>1126.8</ele>
        <time>2025-05-12T09:02:49Z</time>
      </trkpt>
      <trkpt lat="36.977268001064658" lon="-3.13999998383224">
        <ele>1126.8</ele>
        <time>2025-05-12T09:02:50Z</time>
      </trkpt>
      <trkpt lat="36.977222990244627" lon="-3.13989101909101">
        <ele>1126.8</ele>
        <time>2025-05-12T09:02:51Z</time>
      </trkpt>
      <trkpt lat="36.977190971374512" lon="-3.139794962480664">
        <ele>1126.8</ele>
        <time>2025-05-12T09:02:52Z</time>
      </trkpt>
      <trkpt lat="36.977190971374512" lon="-3.139651967212558">
        <ele>1126.3199999999999</ele>
        <time>2025-05-12T09:02:53Z</time>
      </trkpt>
      <trkpt lat="36.9772710185498" lon="-3.138423012569547">
        <ele>1124.8800000000001</ele>
        <time>2025-05-12T09:02:59Z</time>
      </trkpt>
      <trkpt lat="36.977268001064658" lon="-3.138197036460042">
        <ele>1124.4000000000001</ele>
        <time>2025-05-12T09:03:00Z</time>
      </trkpt>
      <trkpt lat="36.977257020771503" lon="-3.137987991794944">
        <ele>1123.9200000000001</ele>
        <time>2025-05-12T09:03:01Z</time>
      </trkpt>
      <trkpt lat="36.977188959717751" lon="-3.137783976271749">
        <ele>1122.96</ele>
        <time>2025-05-12T09:03:02Z</time>
      </trkpt>
      <trkpt lat="36.976796016097069" lon="-3.136345976963639">
        <ele>1123.4400000000001</ele>
        <time>2025-05-12T09:03:09Z</time>
      </trkpt>
      <trkpt lat="36.976795010268688" lon="-3.136176997795701">
        <ele>1124.4000000000001</ele>
        <time>2025-05-12T09:03:10Z</time>
      </trkpt>
      <trkpt lat="36.976811019703746" lon="-3.135998966172338">
        <ele>1125.3599999999999</ele>
        <time>2025-05-12T09:03:11Z</time>
      </trkpt>
      <trkpt lat="36.976830968633294" lon="-3.135809032246471">
        <ele>1126.3199999999999</ele>
        <time>2025-05-12T09:03:12Z</time>
      </trkpt>
      <trkpt lat="36.976881008595228" lon="-3.135619014501572">
        <ele>1127.76</ele>
        <time>2025-05-12T09:03:13Z</time>
      </trkpt>
      <trkpt lat="36.977091981098056" lon="-3.134978972375393">
        <ele>1132.0899999999999</ele>
        <time>2025-05-12T09:03:17Z</time>
      </trkpt>
      <trkpt lat="36.977178985252976" lon="-3.134840000420809">
        <ele>1132.5699999999999</ele>
        <time>2025-05-12T09:03:18Z</time>
      </trkpt>
      <trkpt lat="36.9772710185498" lon="-3.134691976010799">
        <ele>1133.05</ele>
        <time>2025-05-12T09:03:19Z</time>
      </trkpt>
      <trkpt lat="36.977342013269663" lon="-3.134579993784428">
        <ele>1133.05</ele>
        <time>2025-05-12T09:03:20Z</time>
      </trkpt>
      <trkpt lat="36.977332960814238" lon="-3.13439198769629">
        <ele>1133.05</ele>
        <time>2025-05-12T09:03:21Z</time>
      </trkpt>
      <trkpt lat="36.977327009662986" lon="-3.134251004084945">
        <ele>1133.05</ele>
        <time>2025-05-12T09:03:22Z</time>
      </trkpt>
      <trkpt lat="36.977320974692702" lon="-3.134095016866922">
        <ele>1132.5699999999999</ele>
        <time>2025-05-12T09:03:23Z</time>
      </trkpt>
      <trkpt lat="36.977352993562818" lon="-3.133937017992139">
        <ele>1132.0899999999999</ele>
        <time>2025-05-12T09:03:24Z</time>
      </trkpt>
      <trkpt lat="36.977420970797539" lon="-3.133828975260258">
        <ele>1131.6099999999999</ele>
        <time>2025-05-12T09:03:25Z</time>
      </trkpt>
      <trkpt lat="36.977522978559136" lon="-3.133716993033886">
        <ele>1130.6500000000001</ele>
        <time>2025-05-12T09:03:26Z</time>
      </trkpt>
      <trkpt lat="36.97761501185596" lon="-3.133649015799165">
        <ele>1130.1700000000001</ele>
        <time>2025-05-12T09:03:27Z</time>
      </trkpt>
      <trkpt lat="36.977749038487673" lon="-3.133620014414191">
        <ele>1129.6900000000001</ele>
        <time>2025-05-12T09:03:28Z</time>
      </trkpt>
      <trkpt lat="36.977878035977483" lon="-3.133593024685979">
        <ele>1129.21</ele>
        <time>2025-05-12T09:03:29Z</time>
      </trkpt>
      <trkpt lat="36.977994963526726" lon="-3.133622026070952">
        <ele>1128.73</ele>
        <time>2025-05-12T09:03:30Z</time>
      </trkpt>
      <trkpt lat="36.978123961016536" lon="-3.133623031899333">
        <ele>1127.76</ele>
        <time>2025-05-12T09:03:31Z</time>
      </trkpt>
      <trkpt lat="36.97821700014174" lon="-3.133552959188819">
        <ele>1127.28</ele>
        <time>2025-05-12T09:03:32Z</time>
      </trkpt>
      <trkpt lat="36.978267040103674" lon="-3.133471990004182">
        <ele>1126.8</ele>
        <time>2025-05-12T09:03:33Z</time>
      </trkpt>
      <trkpt lat="36.9782829657197" lon="-3.133407030254602">
        <ele>1126.3199999999999</ele>
        <time>2025-05-12T09:03:34Z</time>
      </trkpt>
      <trkpt lat="36.978273997083306" lon="-3.133293958380818">
        <ele>1125.3599999999999</ele>
        <time>2025-05-12T09:03:35Z</time>
      </trkpt>
      <trkpt lat="36.978264022618532" lon="-3.133163033053279">
        <ele>1124.8800000000001</ele>
        <time>2025-05-12T09:03:36Z</time>
      </trkpt>
      <trkpt lat="36.978213982656598" lon="-3.133020959794521">
        <ele>1124.8800000000001</ele>
        <time>2025-05-12T09:03:37Z</time>
      </trkpt>
      <trkpt lat="36.978156985715032" lon="-3.132860027253628">
        <ele>1124.4000000000001</ele>
        <time>2025-05-12T09:03:38Z</time>
      </trkpt>
      <trkpt lat="36.978050032630563" lon="-3.132541012018919">
        <ele>1124.4000000000001</ele>
        <time>2025-05-12T09:03:40Z</time>
      </trkpt>
      <trkpt lat="36.97800301015377" lon="-3.132367003709078">
        <ele>1124.4000000000001</ele>
        <time>2025-05-12T09:03:41Z</time>
      </trkpt>
      <trkpt lat="36.977964034304023" lon="-3.132210010662675">
        <ele>1123.9200000000001</ele>
        <time>2025-05-12T09:03:42Z</time>
      </trkpt>
      <trkpt lat="36.977964034304023" lon="-3.132041031494737">
        <ele>1123.9200000000001</ele>
        <time>2025-05-12T09:03:43Z</time>
      </trkpt>
      <trkpt lat="36.977965962141752" lon="-3.13185696490109">
        <ele>1123.9200000000001</ele>
        <time>2025-05-12T09:03:44Z</time>
      </trkpt>
      <trkpt lat="36.978111974895" lon="-3.130894973874092">
        <ele>1119.5899999999999</ele>
        <time>2025-05-12T09:03:49Z</time>
      </trkpt>
      <trkpt lat="36.978296963497996" lon="-3.130358029156923">
        <ele>1117.6700000000001</ele>
        <time>2025-05-12T09:03:52Z</time>
      </trkpt>
      <trkpt lat="36.978399977087975" lon="-3.130207993090153">
        <ele>1117.1900000000001</ele>
        <time>2025-05-12T09:03:53Z</time>
      </trkpt>
      <trkpt lat="36.978505002334714" lon="-3.130055023357272">
        <ele>1116.71</ele>
        <time>2025-05-12T09:03:54Z</time>
      </trkpt>
      <trkpt lat="36.978612039238214" lon="-3.129908004775643">
        <ele>1116.23</ele>
        <time>2025-05-12T09:03:55Z</time>
      </trkpt>
      <trkpt lat="36.97871002368629" lon="-3.129774983972311">
        <ele>1115.75</ele>
        <time>2025-05-12T09:03:56Z</time>
      </trkpt>
      <trkpt lat="36.978764003142715" lon="-3.129635006189346">
        <ele>1115.75</ele>
        <time>2025-05-12T09:03:57Z</time>
      </trkpt>
      <trkpt lat="36.97877598926425" lon="-3.129487987607718">
        <ele>1115.27</ele>
        <time>2025-05-12T09:03:58Z</time>
      </trkpt>
      <trkpt lat="36.97875302284956" lon="-3.129347003996372">
        <ele>1115.27</ele>
        <time>2025-05-12T09:03:59Z</time>
      </trkpt>
      <trkpt lat="36.978697031736374" lon="-3.129232004284859">
        <ele>1114.79</ele>
        <time>2025-05-12T09:04:00Z</time>
      </trkpt>
      <trkpt lat="36.978616984561086" lon="-3.129140976816416">
        <ele>1114.3099999999999</ele>
        <time>2025-05-12T09:04:01Z</time>
      </trkpt>
      <trkpt lat="36.978529980406165" lon="-3.129067970439792">
        <ele>1113.8199999999999</ele>
        <time>2025-05-12T09:04:02Z</time>
      </trkpt>
      <trkpt lat="36.978450017049909" lon="-3.128993036225438">
        <ele>1113.3399999999999</ele>
        <time>2025-05-12T09:04:03Z</time>
      </trkpt>
      <trkpt lat="36.978376004844904" lon="-3.128919024020433">
        <ele>1112.8599999999999</ele>
        <time>2025-05-12T09:04:04Z</time>
      </trkpt>
      <trkpt lat="36.978355972096324" lon="-3.128833025693893">
        <ele>1112.8599999999999</ele>
        <time>2025-05-12T09:04:05Z</time>
      </trkpt>
      <trkpt lat="36.978367958217859" lon="-3.128717020153999">
        <ele>1112.3800000000001</ele>
        <time>2025-05-12T09:04:06Z</time>
      </trkpt>
      <trkpt lat="36.978438030928373" lon="-3.128606965765357">
        <ele>1111.9000000000001</ele>
        <time>2025-05-12T09:04:07Z</time>
      </trkpt>
      <trkpt lat="36.978543978184462" lon="-3.128491966053844">
        <ele>1110.9400000000001</ele>
        <time>2025-05-12T09:04:08Z</time>
      </trkpt>
      <trkpt lat="36.978656966239214" lon="-3.128357017412782">
        <ele>1109.98</ele>
        <time>2025-05-12T09:04:09Z</time>
      </trkpt>
      <trkpt lat="36.978759979829192" lon="-3.128197006881237">
        <ele>1109.02</ele>
        <time>2025-05-12T09:04:10Z</time>
      </trkpt>
      <trkpt lat="36.978865005075932" lon="-3.128034984692931">
        <ele>1108.0599999999999</ele>
        <time>2025-05-12T09:04:11Z</time>
      </trkpt>
      <trkpt lat="36.978913033381104" lon="-3.127867011353374">
        <ele>1107.0999999999999</ele>
        <time>2025-05-12T09:04:12Z</time>
      </trkpt>
      <trkpt lat="36.978951003402472" lon="-3.127734996378422">
        <ele>1106.1300000000001</ele>
        <time>2025-05-12T09:04:13Z</time>
      </trkpt>
      <trkpt lat="36.978935999795794" lon="-3.127573980018497">
        <ele>1105.1700000000001</ele>
        <time>2025-05-12T09:04:14Z</time>
      </trkpt>
      <trkpt lat="36.978898029774427" lon="-3.127452023327351">
        <ele>1104.21</ele>
        <time>2025-05-12T09:04:15Z</time>
      </trkpt>
      <trkpt lat="36.978810019791126" lon="-3.127331994473934">
        <ele>1103.25</ele>
        <time>2025-05-12T09:04:16Z</time>
      </trkpt>
      <trkpt lat="36.978693008422852" lon="-3.127197967842221">
        <ele>1102.77</ele>
        <time>2025-05-12T09:04:17Z</time>
      </trkpt>
      <trkpt lat="36.978589994832873" lon="-3.127076011151075">
        <ele>1102.29</ele>
        <time>2025-05-12T09:04:18Z</time>
      </trkpt>
      <trkpt lat="36.978315990418196" lon="-3.126721037551761">
        <ele>1100.3699999999999</ele>
        <time>2025-05-12T09:04:21Z</time>
      </trkpt>
      <trkpt lat="36.978221023455262" lon="-3.126533031463623">
        <ele>1100.3699999999999</ele>
        <time>2025-05-12T09:04:22Z</time>
      </trkpt>
      <trkpt lat="36.97821700014174" lon="-3.126404033973813">
        <ele>1099.8900000000001</ele>
        <time>2025-05-12T09:04:23Z</time>
      </trkpt>
      <trkpt lat="36.978199984878302" lon="-3.125868011265993">
        <ele>1099.4000000000001</ele>
        <time>2025-05-12T09:04:26Z</time>
      </trkpt>
      <trkpt lat="36.978232003748417" lon="-3.125704983249307">
        <ele>1098.9200000000001</ele>
        <time>2025-05-12T09:04:27Z</time>
      </trkpt>
      <trkpt lat="36.978267040103674" lon="-3.125533992424607">
        <ele>1098.9200000000001</ele>
        <time>2025-05-12T09:04:28Z</time>
      </trkpt>
      <trkpt lat="36.97830299846828" lon="-3.125352021306753">
        <ele>1098.4400000000001</ele>
        <time>2025-05-12T09:04:29Z</time>
      </trkpt>
      <trkpt lat="36.978365024551749" lon="-3.125164015218616">
        <ele>1098.4400000000001</ele>
        <time>2025-05-12T09:04:30Z</time>
      </trkpt>
      <trkpt lat="36.97849603369832" lon="-3.124784985557199">
        <ele>1097.96</ele>
        <time>2025-05-12T09:04:32Z</time>
      </trkpt>
      <trkpt lat="36.978589994832873" lon="-3.124607959762216">
        <ele>1097.96</ele>
        <time>2025-05-12T09:04:33Z</time>
      </trkpt>
      <trkpt lat="36.979187959805131" lon="-3.123557036742568">
        <ele>1097.96</ele>
        <time>2025-05-12T09:04:40Z</time>
      </trkpt>
      <trkpt lat="36.979286028072238" lon="-3.123469026759267">
        <ele>1097.96</ele>
        <time>2025-05-12T09:04:41Z</time>
      </trkpt>
      <trkpt lat="36.979389041662216" lon="-3.123377999290824">
        <ele>1097.96</ele>
        <time>2025-05-12T09:04:42Z</time>
      </trkpt>
      <trkpt lat="36.9799580052495" lon="-3.122927974909544">
        <ele>1095.5599999999999</ele>
        <time>2025-05-12T09:04:47Z</time>
      </trkpt>
      <trkpt lat="36.980658983811736" lon="-3.122178968042135">
        <ele>1089.79</ele>
        <time>2025-05-12T09:04:56Z</time>
      </trkpt>
      <trkpt lat="36.98094598017633" lon="-3.121919967234135">
        <ele>1087.3900000000001</ele>
        <time>2025-05-12T09:05:00Z</time>
      </trkpt>
      <trkpt lat="36.980995014309883" lon="-3.121895994991064">
        <ele>1086.9100000000001</ele>
        <time>2025-05-12T09:05:01Z</time>
      </trkpt>
      <trkpt lat="36.981213027611375" lon="-3.121765991672874">
        <ele>1084.5</ele>
        <time>2025-05-12T09:05:05Z</time>
      </trkpt>
      <trkpt lat="36.981248985975981" lon="-3.121740007773042">
        <ele>1084.02</ele>
        <time>2025-05-12T09:05:06Z</time>
      </trkpt>
      <trkpt lat="36.981275975704193" lon="-3.121720980852842">
        <ele>1083.54</ele>
        <time>2025-05-12T09:05:07Z</time>
      </trkpt>
      <trkpt lat="36.981296008452773" lon="-3.121706983074546">
        <ele>1083.0599999999999</ele>
        <time>2025-05-12T09:05:08Z</time>
      </trkpt>
      <trkpt lat="36.98131000623107" lon="-3.121697008609772">
        <ele>1082.5799999999999</ele>
        <time>2025-05-12T09:05:09Z</time>
      </trkpt>
      <trkpt lat="36.98131000623107" lon="-3.121697008609772">
        <ele>1081.6199999999999</ele>
        <time>2025-05-12T09:05:22Z</time>
      </trkpt>
      <trkpt lat="36.981250997632742" lon="-3.121667001396418">
        <ele>1094.5999999999999</ele>
        <time>2025-05-12T09:46:16Z</time>
      </trkpt>
      <trkpt lat="36.981301959604025" lon="-3.121686028316617">
        <ele>1093.6400000000001</ele>
        <time>2025-05-12T09:47:01Z</time>
      </trkpt>
      <trkpt lat="36.981269018724561" lon="-3.121665995568037">
        <ele>1091.71</ele>
        <time>2025-05-12T09:47:42Z</time>
      </trkpt>
      <trkpt lat="36.981286033987999" lon="-3.12167395837605">
        <ele>1089.3099999999999</ele>
        <time>2025-05-12T09:47:54Z</time>
      </trkpt>
      <trkpt lat="36.981348982080817" lon="-3.121669013053179">
        <ele>1089.3099999999999</ele>
        <time>2025-05-12T09:47:58Z</time>
      </trkpt>
      <trkpt lat="36.981381000950933" lon="-3.121645962819457">
        <ele>1089.3099999999999</ele>
        <time>2025-05-12T09:47:59Z</time>
      </trkpt>
      <trkpt lat="36.981431040912867" lon="-3.121605981141329">
        <ele>1088.8299999999999</ele>
        <time>2025-05-12T09:48:00Z</time>
      </trkpt>
      <trkpt lat="36.981480997055769" lon="-3.121550995856524">
        <ele>1088.8299999999999</ele>
        <time>2025-05-12T09:48:01Z</time>
      </trkpt>
      <trkpt lat="36.981530031189322" lon="-3.121498022228479">
        <ele>1088.8299999999999</ele>
        <time>2025-05-12T09:48:02Z</time>
      </trkpt>
      <trkpt lat="36.981578981503844" lon="-3.121443958953023">
        <ele>1088.3499999999999</ele>
        <time>2025-05-12T09:48:03Z</time>
      </trkpt>
      <trkpt lat="36.98163203895092" lon="-3.121386040002108">
        <ele>1088.3499999999999</ele>
        <time>2025-05-12T09:48:04Z</time>
      </trkpt>
      <trkpt lat="36.981684006750584" lon="-3.121323008090258">
        <ele>1088.3499999999999</ele>
        <time>2025-05-12T09:48:05Z</time>
      </trkpt>
      <trkpt lat="36.981832031160593" lon="-3.121141958981752">
        <ele>1088.3499999999999</ele>
        <time>2025-05-12T09:48:08Z</time>
      </trkpt>
      <trkpt lat="36.982060018926859" lon="-3.120871977880597">
        <ele>1088.3499999999999</ele>
        <time>2025-05-12T09:48:12Z</time>
      </trkpt>
      <trkpt lat="36.982124978676438" lon="-3.120795032009482">
        <ele>1088.3499999999999</ele>
        <time>2025-05-12T09:48:13Z</time>
      </trkpt>
      <trkpt lat="36.982309967279434" lon="-3.120581964030862">
        <ele>1087.8699999999999</ele>
        <time>2025-05-12T09:48:16Z</time>
      </trkpt>
      <trkpt lat="36.982382973656058" lon="-3.120536031201482">
        <ele>1087.8699999999999</ele>
        <time>2025-05-12T09:48:17Z</time>
      </trkpt>
      <trkpt lat="36.982453968375921" lon="-3.12049001455307">
        <ele>1087.8699999999999</ele>
        <time>2025-05-12T09:48:18Z</time>
      </trkpt>
      <trkpt lat="36.982671981677413" lon="-3.120351964607835">
        <ele>1087.8699999999999</ele>
        <time>2025-05-12T09:48:21Z</time>
      </trkpt>
      <trkpt lat="36.982754040509462" lon="-3.120299996808171">
        <ele>1087.8699999999999</ele>
        <time>2025-05-12T09:48:22Z</time>
      </trkpt>
      <trkpt lat="36.982823023572564" lon="-3.120203018188477">
        <ele>1087.3900000000001</ele>
        <time>2025-05-12T09:48:23Z</time>
      </trkpt>
      <trkpt lat="36.982887983322144" lon="-3.120097992941737">
        <ele>1087.3900000000001</ele>
        <time>2025-05-12T09:48:24Z</time>
      </trkpt>
      <trkpt lat="36.982952021062374" lon="-3.119986010715365">
        <ele>1087.3900000000001</ele>
        <time>2025-05-12T09:48:25Z</time>
      </trkpt>
      <trkpt lat="36.983041958883405" lon="-3.119761040434241">
        <ele>1087.3900000000001</ele>
        <time>2025-05-12T09:48:27Z</time>
      </trkpt>
      <trkpt lat="36.98320004157722" lon="-3.119301963597536">
        <ele>1086.9100000000001</ele>
        <time>2025-05-12T09:48:32Z</time>
      </trkpt>
      <trkpt lat="36.983273969963193" lon="-3.119268016889691">
        <ele>1086.4300000000001</ele>
        <time>2025-05-12T09:48:33Z</time>
      </trkpt>
      <trkpt lat="36.983358040452003" lon="-3.119229041039944">
        <ele>1085.95</ele>
        <time>2025-05-12T09:48:34Z</time>
      </trkpt>
      <trkpt lat="36.983445966616273" lon="-3.119187969714403">
        <ele>1085.47</ele>
        <time>2025-05-12T09:48:35Z</time>
      </trkpt>
      <trkpt lat="36.983534982427955" lon="-3.119171038269997">
        <ele>1085.47</ele>
        <time>2025-05-12T09:48:36Z</time>
      </trkpt>
      <trkpt lat="36.983938990160823" lon="-3.119059978052974">
        <ele>1083.0599999999999</ele>
        <time>2025-05-12T09:48:41Z</time>
      </trkpt>
      <trkpt lat="36.984524969011545" lon="-3.118682960048318">
        <ele>1082.0999999999999</ele>
        <time>2025-05-12T09:48:47Z</time>
      </trkpt>
      <trkpt lat="36.984712975099683" lon="-3.118562009185553">
        <ele>1082.0999999999999</ele>
        <time>2025-05-12T09:48:49Z</time>
      </trkpt>
      <trkpt lat="36.984829986467957" lon="-3.118485985323787">
        <ele>1082.5799999999999</ele>
        <time>2025-05-12T09:48:50Z</time>
      </trkpt>
      <trkpt lat="36.985441027209163" lon="-3.117770003154874">
        <ele>1085.47</ele>
        <time>2025-05-12T09:48:59Z</time>
      </trkpt>
      <trkpt lat="36.985518978908658" lon="-3.117734966799617">
        <ele>1085.95</ele>
        <time>2025-05-12T09:49:00Z</time>
      </trkpt>
      <trkpt lat="36.985605983063579" lon="-3.117714012041688">
        <ele>1085.95</ele>
        <time>2025-05-12T09:49:01Z</time>
      </trkpt>
      <trkpt lat="36.985697010532022" lon="-3.117731027305126">
        <ele>1085.47</ele>
        <time>2025-05-12T09:49:02Z</time>
      </trkpt>
      <trkpt lat="36.985797006636858" lon="-3.117745025083423">
        <ele>1084.99</ele>
        <time>2025-05-12T09:49:03Z</time>
      </trkpt>
      <trkpt lat="36.985902031883597" lon="-3.117766985669732">
        <ele>1084.5</ele>
        <time>2025-05-12T09:49:04Z</time>
      </trkpt>
      <trkpt lat="36.986222974956036" lon="-3.11786999925971">
        <ele>1083.0599999999999</ele>
        <time>2025-05-12T09:49:07Z</time>
      </trkpt>
      <trkpt lat="36.986326994374394" lon="-3.117921967059374">
        <ele>1082.5799999999999</ele>
        <time>2025-05-12T09:49:08Z</time>
      </trkpt>
      <trkpt lat="36.986417016014457" lon="-3.118003020063043">
        <ele>1082.0999999999999</ele>
        <time>2025-05-12T09:49:09Z</time>
      </trkpt>
      <trkpt lat="36.986853964626789" lon="-3.118509035557509">
        <ele>1077.78</ele>
        <time>2025-05-12T09:49:14Z</time>
      </trkpt>
      <trkpt lat="36.986945997923613" lon="-3.118567960336804">
        <ele>1076.8099999999999</ele>
        <time>2025-05-12T09:49:15Z</time>
      </trkpt>
      <trkpt lat="36.98702503927052" lon="-3.118591010570526">
        <ele>1075.8499999999999</ele>
        <time>2025-05-12T09:49:16Z</time>
      </trkpt>
      <trkpt lat="36.987131992354989" lon="-3.118579024448991">
        <ele>1074.8900000000001</ele>
        <time>2025-05-12T09:49:17Z</time>
      </trkpt>
      <trkpt lat="36.987222013995051" lon="-3.118537031114101">
        <ele>1074.4100000000001</ele>
        <time>2025-05-12T09:49:18Z</time>
      </trkpt>
      <trkpt lat="36.987308012321591" lon="-3.118438040837646">
        <ele>1073.9300000000001</ele>
        <time>2025-05-12T09:49:19Z</time>
      </trkpt>
      <trkpt lat="36.987346988171339" lon="-3.118314994499087">
        <ele>1074.4100000000001</ele>
        <time>2025-05-12T09:49:20Z</time>
      </trkpt>
      <trkpt lat="36.987359980121255" lon="-3.118156995624304">
        <ele>1074.8900000000001</ele>
        <time>2025-05-12T09:49:21Z</time>
      </trkpt>
      <trkpt lat="36.98737196624279" lon="-3.11799799092114">
        <ele>1075.3699999999999</ele>
        <time>2025-05-12T09:49:22Z</time>
      </trkpt>
      <trkpt lat="36.987384036183357" lon="-3.117833035066724">
        <ele>1075.8499999999999</ele>
        <time>2025-05-12T09:49:23Z</time>
      </trkpt>
      <trkpt lat="36.987384036183357" lon="-3.117669001221657">
        <ele>1076.8099999999999</ele>
        <time>2025-05-12T09:49:24Z</time>
      </trkpt>
      <trkpt lat="36.987399039790034" lon="-3.117522988468409">
        <ele>1077.29</ele>
        <time>2025-05-12T09:49:25Z</time>
      </trkpt>
      <trkpt lat="36.98745796456933" lon="-3.117391979321837">
        <ele>1077.29</ele>
        <time>2025-05-12T09:49:26Z</time>
      </trkpt>
      <trkpt lat="36.987549997866154" lon="-3.117328025400639">
        <ele>1078.26</ele>
        <time>2025-05-12T09:49:27Z</time>
      </trkpt>
      <trkpt lat="36.98764999397099" lon="-3.117258958518505">
        <ele>1078.74</ele>
        <time>2025-05-12T09:49:28Z</time>
      </trkpt>
      <trkpt lat="36.987772034481168" lon="-3.117229035124183">
        <ele>1079.22</ele>
        <time>2025-05-12T09:49:29Z</time>
      </trkpt>
      <trkpt lat="36.987888040021062" lon="-3.117244960740209">
        <ele>1079.7</ele>
        <time>2025-05-12T09:49:30Z</time>
      </trkpt>
      <trkpt lat="36.98801402002573" lon="-3.117261976003647">
        <ele>1080.1800000000001</ele>
        <time>2025-05-12T09:49:31Z</time>
      </trkpt>
      <trkpt lat="36.988148968666792" lon="-3.117279997095466">
        <ele>1080.1800000000001</ele>
        <time>2025-05-12T09:49:32Z</time>
      </trkpt>
      <trkpt lat="36.988290036097169" lon="-3.117299024015665">
        <ele>1080.6600000000001</ele>
        <time>2025-05-12T09:49:33Z</time>
      </trkpt>
      <trkpt lat="36.988421967253089" lon="-3.117316961288452">
        <ele>1081.1400000000001</ele>
        <time>2025-05-12T09:49:34Z</time>
      </trkpt>
      <trkpt lat="36.988545013591647" lon="-3.117348980158567">
        <ele>1081.6199999999999</ele>
        <time>2025-05-12T09:49:35Z</time>
      </trkpt>
      <trkpt lat="36.988654984161258" lon="-3.117401031777263">
        <ele>1081.6199999999999</ele>
        <time>2025-05-12T09:49:36Z</time>
      </trkpt>
      <trkpt lat="36.9887650385499" lon="-3.117452999576926">
        <ele>1081.1400000000001</ele>
        <time>2025-05-12T09:49:37Z</time>
      </trkpt>
      <trkpt lat="36.988864028826356" lon="-3.117499016225338">
        <ele>1081.1400000000001</ele>
        <time>2025-05-12T09:49:38Z</time>
      </trkpt>
      <trkpt lat="36.988958995789289" lon="-3.117475965991616">
        <ele>1081.1400000000001</ele>
        <time>2025-05-12T09:49:39Z</time>
      </trkpt>
      <trkpt lat="36.989038959145546" lon="-3.117451993748546">
        <ele>1080.6600000000001</ele>
        <time>2025-05-12T09:49:40Z</time>
      </trkpt>
      <trkpt lat="36.989099979400635" lon="-3.117348980158567">
        <ele>1081.1400000000001</ele>
        <time>2025-05-12T09:49:41Z</time>
      </trkpt>
      <trkpt lat="36.989115988835692" lon="-3.117272034287453">
        <ele>1081.1400000000001</ele>
        <time>2025-05-12T09:49:42Z</time>
      </trkpt>
      <trkpt lat="36.989225959405303" lon="-3.116724025458098">
        <ele>1081.6199999999999</ele>
        <time>2025-05-12T09:49:46Z</time>
      </trkpt>
      <trkpt lat="36.989294020459056" lon="-3.116586981341243">
        <ele>1082.0999999999999</ele>
        <time>2025-05-12T09:49:47Z</time>
      </trkpt>
      <trkpt lat="36.989369038492441" lon="-3.1164510268718">
        <ele>1083.0599999999999</ele>
        <time>2025-05-12T09:49:48Z</time>
      </trkpt>
      <trkpt lat="36.989591997116804" lon="-3.116064034402371">
        <ele>1084.5</ele>
        <time>2025-05-12T09:49:51Z</time>
      </trkpt>
      <trkpt lat="36.989680007100105" lon="-3.115975018590689">
        <ele>1084.5</ele>
        <time>2025-05-12T09:49:52Z</time>
      </trkpt>
      <trkpt lat="36.989787966012955" lon="-3.115910980850458">
        <ele>1084.5</ele>
        <time>2025-05-12T09:49:53Z</time>
      </trkpt>
      <trkpt lat="36.989900032058358" lon="-3.115874016657472">
        <ele>1084.02</ele>
        <time>2025-05-12T09:49:54Z</time>
      </trkpt>
      <trkpt lat="36.989992987364531" lon="-3.115880973637104">
        <ele>1084.02</ele>
        <time>2025-05-12T09:49:55Z</time>
      </trkpt>
      <trkpt lat="36.990090971812606" lon="-3.115897988900542">
        <ele>1084.02</ele>
        <time>2025-05-12T09:49:56Z</time>
      </trkpt>
      <trkpt lat="36.990187028422952" lon="-3.115917015820742">
        <ele>1083.54</ele>
        <time>2025-05-12T09:49:57Z</time>
      </trkpt>
      <trkpt lat="36.990285012871027" lon="-3.115958003327251">
        <ele>1083.0599999999999</ele>
        <time>2025-05-12T09:49:58Z</time>
      </trkpt>
      <trkpt lat="36.990381991490722" lon="-3.115997985005379">
        <ele>1082.5799999999999</ele>
        <time>2025-05-12T09:49:59Z</time>
      </trkpt>
      <trkpt lat="36.990476958453655" lon="-3.115991028025746">
        <ele>1082.0999999999999</ele>
        <time>2025-05-12T09:50:00Z</time>
      </trkpt>
      <trkpt lat="36.990545019507408" lon="-3.11593403108418">
        <ele>1082.0999999999999</ele>
        <time>2025-05-12T09:50:01Z</time>
      </trkpt>
      <trkpt lat="36.99057200923562" lon="-3.115851972252131">
        <ele>1082.0999999999999</ele>
        <time>2025-05-12T09:50:02Z</time>
      </trkpt>
      <trkpt lat="36.990569997578859" lon="-3.115750970318914">
        <ele>1082.5799999999999</ele>
        <time>2025-05-12T09:50:03Z</time>
      </trkpt>
      <trkpt lat="36.990551976487041" lon="-3.115621972829104">
        <ele>1083.0599999999999</ele>
        <time>2025-05-12T09:50:04Z</time>
      </trkpt>
      <trkpt lat="36.990531021729112" lon="-3.115478977560997">
        <ele>1083.54</ele>
        <time>2025-05-12T09:50:05Z</time>
      </trkpt>
      <trkpt lat="36.990395989269018" lon="-3.114962987601757">
        <ele>1084.99</ele>
        <time>2025-05-12T09:50:08Z</time>
      </trkpt>
      <trkpt lat="36.990330023691058" lon="-3.114798031747341">
        <ele>1084.99</ele>
        <time>2025-05-12T09:50:09Z</time>
      </trkpt>
      <trkpt lat="36.990123996511102" lon="-3.114400980994105">
        <ele>1083.54</ele>
        <time>2025-05-12T09:50:12Z</time>
      </trkpt>
      <trkpt lat="36.990089965984225" lon="-3.114267960190773">
        <ele>1083.0599999999999</ele>
        <time>2025-05-12T09:50:13Z</time>
      </trkpt>
      <trkpt lat="36.990117961540818" lon="-3.114120019599795">
        <ele>1082.5799999999999</ele>
        <time>2025-05-12T09:50:14Z</time>
      </trkpt>
      <trkpt lat="36.990218041464686" lon="-3.11359397135675">
        <ele>1080.6600000000001</ele>
        <time>2025-05-12T09:50:17Z</time>
      </trkpt>
      <trkpt lat="36.990221980959177" lon="-3.113433038815856">
        <ele>1080.1800000000001</ele>
        <time>2025-05-12T09:50:18Z</time>
      </trkpt>
      <trkpt lat="36.990166995674372" lon="-3.113288031890988">
        <ele>1079.7</ele>
        <time>2025-05-12T09:50:19Z</time>
      </trkpt>
      <trkpt lat="36.990085020661354" lon="-3.113145958632231">
        <ele>1079.7</ele>
        <time>2025-05-12T09:50:20Z</time>
      </trkpt>
      <trkpt lat="36.989999022334814" lon="-3.112998018041253">
        <ele>1079.22</ele>
        <time>2025-05-12T09:50:21Z</time>
      </trkpt>
      <trkpt lat="36.98964798822999" lon="-3.112441962584853">
        <ele>1077.78</ele>
        <time>2025-05-12T09:50:25Z</time>
      </trkpt>
      <trkpt lat="36.989613035693765" lon="-3.112311959266663">
        <ele>1077.29</ele>
        <time>2025-05-12T09:50:26Z</time>
      </trkpt>
      <trkpt lat="36.989611024037004" lon="-3.112182039767504">
        <ele>1076.8099999999999</ele>
        <time>2025-05-12T09:50:27Z</time>
      </trkpt>
      <trkpt lat="36.989648994058371" lon="-3.112070979550481">
        <ele>1076.3299999999999</ele>
        <time>2025-05-12T09:50:28Z</time>
      </trkpt>
      <trkpt lat="36.989700961858034" lon="-3.111984981223941">
        <ele>1075.8499999999999</ele>
        <time>2025-05-12T09:50:29Z</time>
      </trkpt>
      <trkpt lat="36.98979701846838" lon="-3.111929995939136">
        <ele>1075.3699999999999</ele>
        <time>2025-05-12T09:50:30Z</time>
      </trkpt>
      <trkpt lat="36.989882010966539" lon="-3.111913986504078">
        <ele>1074.8900000000001</ele>
        <time>2025-05-12T09:50:31Z</time>
      </trkpt>
      <trkpt lat="36.989976977929473" lon="-3.111958997324109">
        <ele>1073.9300000000001</ele>
        <time>2025-05-12T09:50:32Z</time>
      </trkpt>
      <trkpt lat="36.990088960155845" lon="-3.112011970952153">
        <ele>1073.45</ele>
        <time>2025-05-12T09:50:33Z</time>
      </trkpt>
      <trkpt lat="36.990218041464686" lon="-3.112073997035623">
        <ele>1072.49</ele>
        <time>2025-05-12T09:50:34Z</time>
      </trkpt>
      <trkpt lat="36.990345027297735" lon="-3.112135017290711">
        <ele>1071.53</ele>
        <time>2025-05-12T09:50:35Z</time>
      </trkpt>
      <trkpt lat="36.990510988980532" lon="-3.112151026725769">
        <ele>1070.0799999999999</ele>
        <time>2025-05-12T09:50:36Z</time>
      </trkpt>
      <trkpt lat="36.990665970370173" lon="-3.112167036160827">
        <ele>1069.1199999999999</ele>
        <time>2025-05-12T09:50:37Z</time>
      </trkpt>
      <trkpt lat="36.990804020315409" lon="-3.112157983705401">
        <ele>1067.6800000000001</ele>
        <time>2025-05-12T09:50:38Z</time>
      </trkpt>
      <trkpt lat="36.990908961743116" lon="-3.112087994813919">
        <ele>1066.24</ele>
        <time>2025-05-12T09:50:39Z</time>
      </trkpt>
      <trkpt lat="36.990985991433263" lon="-3.112007025629282">
        <ele>1065.28</ele>
        <time>2025-05-12T09:50:40Z</time>
      </trkpt>
      <trkpt lat="36.991037037223577" lon="-3.111892025917769">
        <ele>1064.8</ele>
        <time>2025-05-12T09:50:41Z</time>
      </trkpt>
      <trkpt lat="36.99108699336648" lon="-3.111779037863016">
        <ele>1064.8</ele>
        <time>2025-05-12T09:50:42Z</time>
      </trkpt>
      <trkpt lat="36.991138961166143" lon="-3.111663032323122">
        <ele>1064.3199999999999</ele>
        <time>2025-05-12T09:50:43Z</time>
      </trkpt>
      <trkpt lat="36.991224959492683" lon="-3.111567981541157">
        <ele>1064.3199999999999</ele>
        <time>2025-05-12T09:50:44Z</time>
      </trkpt>
      <trkpt lat="36.991326967254281" lon="-3.111455999314785">
        <ele>1064.3199999999999</ele>
        <time>2025-05-12T09:50:45Z</time>
      </trkpt>
      <trkpt lat="36.991448001936078" lon="-3.111364971846342">
        <ele>1063.8399999999999</ele>
        <time>2025-05-12T09:50:46Z</time>
      </trkpt>
      <trkpt lat="36.991583034396172" lon="-3.111276961863041">
        <ele>1063.3599999999999</ele>
        <time>2025-05-12T09:50:47Z</time>
      </trkpt>
      <trkpt lat="36.991726029664278" lon="-3.111183000728488">
        <ele>1062.8699999999999</ele>
        <time>2025-05-12T09:50:48Z</time>
      </trkpt>
      <trkpt lat="36.991873970255256" lon="-3.111086022108793">
        <ele>1061.9100000000001</ele>
        <time>2025-05-12T09:50:49Z</time>
      </trkpt>
      <trkpt lat="36.992009002715349" lon="-3.110975967720151">
        <ele>1061.4300000000001</ele>
        <time>2025-05-12T09:50:50Z</time>
      </trkpt>
      <trkpt lat="36.992128025740385" lon="-3.110851999372244">
        <ele>1060.47</ele>
        <time>2025-05-12T09:50:51Z</time>
      </trkpt>
      <trkpt lat="36.992232967168093" lon="-3.110675979405642">
        <ele>1059.99</ele>
        <time>2025-05-12T09:50:52Z</time>
      </trkpt>
      <trkpt lat="36.992293987423182" lon="-3.110520998016">
        <ele>1059.51</ele>
        <time>2025-05-12T09:50:53Z</time>
      </trkpt>
      <trkpt lat="36.992356013506651" lon="-3.110364004969597">
        <ele>1058.55</ele>
        <time>2025-05-12T09:50:54Z</time>
      </trkpt>
      <trkpt lat="36.992408987134695" lon="-3.110226960852742">
        <ele>1058.0699999999999</ele>
        <time>2025-05-12T09:50:55Z</time>
      </trkpt>
      <trkpt lat="36.992455003783107" lon="-3.11011103913188">
        <ele>1057.5899999999999</ele>
        <time>2025-05-12T09:50:56Z</time>
      </trkpt>
      <trkpt lat="36.992514012381434" lon="-3.11002797447145">
        <ele>1057.1099999999999</ele>
        <time>2025-05-12T09:50:57Z</time>
      </trkpt>
      <trkpt lat="36.992587018758059" lon="-3.109950022771955">
        <ele>1056.1500000000001</ele>
        <time>2025-05-12T09:50:58Z</time>
      </trkpt>
      <trkpt lat="36.992663964629173" lon="-3.109866958111525">
        <ele>1055.6700000000001</ele>
        <time>2025-05-12T09:50:59Z</time>
      </trkpt>
      <trkpt lat="36.992754992097616" lon="-3.10976997949183">
        <ele>1055.1800000000001</ele>
        <time>2025-05-12T09:51:00Z</time>
      </trkpt>
      <trkpt lat="36.992829004302621" lon="-3.109642993658781">
        <ele>1054.22</ele>
        <time>2025-05-12T09:51:01Z</time>
      </trkpt>
      <trkpt lat="36.992889018729329" lon="-3.109503015875816">
        <ele>1053.74</ele>
        <time>2025-05-12T09:51:02Z</time>
      </trkpt>
      <trkpt lat="36.992945009842515" lon="-3.109372006729245">
        <ele>1052.78</ele>
        <time>2025-05-12T09:51:03Z</time>
      </trkpt>
      <trkpt lat="36.992997983470559" lon="-3.109268993139267">
        <ele>1052.3</ele>
        <time>2025-05-12T09:51:04Z</time>
      </trkpt>
      <trkpt lat="36.993073001503944" lon="-3.109201015904546">
        <ele>1051.8199999999999</ele>
        <time>2025-05-12T09:51:05Z</time>
      </trkpt>
      <trkpt lat="36.993145002052188" lon="-3.109136978164315">
        <ele>1050.8599999999999</ele>
        <time>2025-05-12T09:51:06Z</time>
      </trkpt>
      <trkpt lat="36.993333008140326" lon="-3.108970010653138">
        <ele>1048.9400000000001</ele>
        <time>2025-05-12T09:51:09Z</time>
      </trkpt>
      <trkpt lat="36.993399979546666" lon="-3.10893296264112">
        <ele>1048.45</ele>
        <time>2025-05-12T09:51:10Z</time>
      </trkpt>
      <trkpt lat="36.993474997580051" lon="-3.108920976519585">
        <ele>1047.97</ele>
        <time>2025-05-12T09:51:11Z</time>
      </trkpt>
      <trkpt lat="36.993552027270198" lon="-3.108947966247797">
        <ele>1047.49</ele>
        <time>2025-05-12T09:51:12Z</time>
      </trkpt>
      <trkpt lat="36.993627967312932" lon="-3.108992977067828">
        <ele>1047.01</ele>
        <time>2025-05-12T09:51:13Z</time>
      </trkpt>
      <trkpt lat="36.993709020316601" lon="-3.109042011201382">
        <ele>1047.01</ele>
        <time>2025-05-12T09:51:14Z</time>
      </trkpt>
      <trkpt lat="36.993790995329618" lon="-3.109091967344284">
        <ele>1046.53</ele>
        <time>2025-05-12T09:51:15Z</time>
      </trkpt>
      <trkpt lat="36.993874981999397" lon="-3.109142007306218">
        <ele>1046.05</ele>
        <time>2025-05-12T09:51:16Z</time>
      </trkpt>
      <trkpt lat="36.993953017517924" lon="-3.109168997034431">
        <ele>1045.0899999999999</ele>
        <time>2025-05-12T09:51:17Z</time>
      </trkpt>
      <trkpt lat="36.994035998359323" lon="-3.109151981770992">
        <ele>1044.6099999999999</ele>
        <time>2025-05-12T09:51:18Z</time>
      </trkpt>
      <trkpt lat="36.994084026664495" lon="-3.109108982607722">
        <ele>1043.6500000000001</ele>
        <time>2025-05-12T09:51:19Z</time>
      </trkpt>
      <trkpt lat="36.994128031656146" lon="-3.109071012586355">
        <ele>1043.1700000000001</ele>
        <time>2025-05-12T09:51:20Z</time>
      </trkpt>
      <trkpt lat="36.994168013334274" lon="-3.109034970402718">
        <ele>1042.6900000000001</ele>
        <time>2025-05-12T09:51:21Z</time>
      </trkpt>
      <trkpt lat="36.994196008890867" lon="-3.109009992331266">
        <ele>1042.21</ele>
        <time>2025-05-12T09:51:22Z</time>
      </trkpt>
      <trkpt lat="36.99422299861908" lon="-3.108986020088196">
        <ele>1041.73</ele>
        <time>2025-05-12T09:51:23Z</time>
      </trkpt>
      <trkpt lat="36.994242025539279" lon="-3.108980990946293">
        <ele>1041.25</ele>
        <time>2025-05-12T09:51:24Z</time>
      </trkpt>
      <trkpt lat="36.994242025539279" lon="-3.108980990946293">
        <ele>1038.8399999999999</ele>
        <time>2025-05-12T09:51:36Z</time>
      </trkpt>
      <trkpt lat="36.994242025539279" lon="-3.108980990946293">
        <ele>1038.3599999999999</ele>
        <time>2025-05-12T09:52:25Z</time>
      </trkpt>
      <trkpt lat="36.994242025539279" lon="-3.108980990946293">
        <ele>1037.4000000000001</ele>
        <time>2025-05-12T09:53:20Z</time>
      </trkpt>
      <trkpt lat="36.994242025539279" lon="-3.108980990946293">
        <ele>1037.8800000000001</ele>
        <time>2025-05-12T09:54:20Z</time>
      </trkpt>
      <trkpt lat="36.994242025539279" lon="-3.108980990946293">
        <ele>1037.8800000000001</ele>
        <time>2025-05-12T09:55:05Z</time>
      </trkpt>
      <trkpt lat="36.99428703635931" lon="-3.108980990946293">
        <ele>1037.8800000000001</ele>
        <time>2025-05-12T09:55:06Z</time>
      </trkpt>
      <trkpt lat="36.994506977498531" lon="-3.109062965959311">
        <ele>1037.4000000000001</ele>
        <time>2025-05-12T09:55:10Z</time>
      </trkpt>
      <trkpt lat="36.994560034945607" lon="-3.109096996486187">
        <ele>1037.4000000000001</ele>
        <time>2025-05-12T09:55:11Z</time>
      </trkpt>
      <trkpt lat="36.994706969708204" lon="-3.109184000641108">
        <ele>1037.4000000000001</ele>
        <time>2025-05-12T09:55:14Z</time>
      </trkpt>
      <trkpt lat="36.994764972478151" lon="-3.109205961227417">
        <ele>1037.4000000000001</ele>
        <time>2025-05-12T09:55:15Z</time>
      </trkpt>
      <trkpt lat="36.99482599273324" lon="-3.109229011461139">
        <ele>1037.4000000000001</ele>
        <time>2025-05-12T09:55:16Z</time>
      </trkpt>
      <trkpt lat="36.994882989674807" lon="-3.109224988147616">
        <ele>1037.4000000000001</ele>
        <time>2025-05-12T09:55:17Z</time>
      </trkpt>
      <trkpt lat="36.994948033243418" lon="-3.109200010076165">
        <ele>1037.4000000000001</ele>
        <time>2025-05-12T09:55:18Z</time>
      </trkpt>
      <trkpt lat="36.994998995214701" lon="-3.109133960679174">
        <ele>1037.8800000000001</ele>
        <time>2025-05-12T09:55:19Z</time>
      </trkpt>
      <trkpt lat="36.995064038783312" lon="-3.109036982059479">
        <ele>1037.8800000000001</ele>
        <time>2025-05-12T09:55:20Z</time>
      </trkpt>
      <trkpt lat="36.995131010189652" lon="-3.108935980126262">
        <ele>1038.3599999999999</ele>
        <time>2025-05-12T09:55:21Z</time>
      </trkpt>
      <trkpt lat="36.99525598436594" lon="-3.108720984309912">
        <ele>1039.3199999999999</ele>
        <time>2025-05-12T09:55:23Z</time>
      </trkpt>
      <trkpt lat="36.995245004072785" lon="-3.108611013740301">
        <ele>1040.28</ele>
        <time>2025-05-12T09:55:24Z</time>
      </trkpt>
      <trkpt lat="36.995216002687812" lon="-3.108486039564014">
        <ele>1040.76</ele>
        <time>2025-05-12T09:55:25Z</time>
      </trkpt>
      <trkpt lat="36.995150959119201" lon="-3.108356958255172">
        <ele>1040.76</ele>
        <time>2025-05-12T09:55:26Z</time>
      </trkpt>
      <trkpt lat="36.995077030733228" lon="-3.108210023492575">
        <ele>1040.28</ele>
        <time>2025-05-12T09:55:27Z</time>
      </trkpt>
      <trkpt lat="36.994968988001347" lon="-3.107925038784742">
        <ele>1039.3199999999999</ele>
        <time>2025-05-12T09:55:29Z</time>
      </trkpt>
      <trkpt lat="36.99493101797998" lon="-3.107773996889591">
        <ele>1038.8399999999999</ele>
        <time>2025-05-12T09:55:30Z</time>
      </trkpt>
      <trkpt lat="36.9949109852314" lon="-3.10759998857975">
        <ele>1038.3599999999999</ele>
        <time>2025-05-12T09:55:31Z</time>
      </trkpt>
      <trkpt lat="36.994881983846426" lon="-3.107422962784767">
        <ele>1037.8800000000001</ele>
        <time>2025-05-12T09:55:32Z</time>
      </trkpt>
      <trkpt lat="36.994822975248098" lon="-3.107250966131687">
        <ele>1037.8800000000001</ele>
        <time>2025-05-12T09:55:33Z</time>
      </trkpt>
      <trkpt lat="36.994763966649771" lon="-3.107078969478607">
        <ele>1036.9200000000001</ele>
        <time>2025-05-12T09:55:34Z</time>
      </trkpt>
      <trkpt lat="36.994703030213714" lon="-3.106901021674275">
        <ele>1036.4400000000001</ele>
        <time>2025-05-12T09:55:35Z</time>
      </trkpt>
      <trkpt lat="36.994639998301864" lon="-3.106709998100996">
        <ele>1035.96</ele>
        <time>2025-05-12T09:55:36Z</time>
      </trkpt>
      <trkpt lat="36.99452399276197" lon="-3.10631001368165">
        <ele>1034.04</ele>
        <time>2025-05-12T09:55:38Z</time>
      </trkpt>
      <trkpt lat="36.994449980556965" lon="-3.106123013421893">
        <ele>1033.55</ele>
        <time>2025-05-12T09:55:39Z</time>
      </trkpt>
      <trkpt lat="36.994376974180341" lon="-3.105954034253955">
        <ele>1032.5899999999999</ele>
        <time>2025-05-12T09:55:40Z</time>
      </trkpt>
      <trkpt lat="36.994314026087523" lon="-3.105810033157468">
        <ele>1031.6300000000001</ele>
        <time>2025-05-12T09:55:41Z</time>
      </trkpt>
      <trkpt lat="36.994300028309226" lon="-3.105697967112064">
        <ele>1030.6700000000001</ele>
        <time>2025-05-12T09:55:42Z</time>
      </trkpt>
      <trkpt lat="36.994310002774" lon="-3.105589002370834">
        <ele>1029.71</ele>
        <time>2025-05-12T09:55:43Z</time>
      </trkpt>
      <trkpt lat="36.994346966966987" lon="-3.105527982115746">
        <ele>1029.23</ele>
        <time>2025-05-12T09:55:44Z</time>
      </trkpt>
      <trkpt lat="36.994431959465146" lon="-3.105474002659321">
        <ele>1028.27</ele>
        <time>2025-05-12T09:55:45Z</time>
      </trkpt>
      <trkpt lat="36.994532961398363" lon="-3.105435026809573">
        <ele>1027.3099999999999</ele>
        <time>2025-05-12T09:55:46Z</time>
      </trkpt>
      <trkpt lat="36.994664976373315" lon="-3.105420023202896">
        <ele>1026.3399999999999</ele>
        <time>2025-05-12T09:55:47Z</time>
      </trkpt>
      <trkpt lat="36.994801014661789" lon="-3.105405019596219">
        <ele>1025.3800000000001</ele>
        <time>2025-05-12T09:55:48Z</time>
      </trkpt>
      <trkpt lat="36.994922971352935" lon="-3.105422034859657">
        <ele>1024.4200000000001</ele>
        <time>2025-05-12T09:55:49Z</time>
      </trkpt>
      <trkpt lat="36.995035037398338" lon="-3.105478025972843">
        <ele>1023.46</ele>
        <time>2025-05-12T09:55:50Z</time>
      </trkpt>
      <trkpt lat="36.995145007967949" lon="-3.105533011257649">
        <ele>1022.5</ele>
        <time>2025-05-12T09:55:51Z</time>
      </trkpt>
      <trkpt lat="36.995250033214688" lon="-3.105585984885693">
        <ele>1021.0599999999999</ele>
        <time>2025-05-12T09:55:52Z</time>
      </trkpt>
      <trkpt lat="36.995334019884467" lon="-3.105591014027596">
        <ele>1019.62</ele>
        <time>2025-05-12T09:55:53Z</time>
      </trkpt>
      <trkpt lat="36.995423035696149" lon="-3.105530999600887">
        <ele>1018.17</ele>
        <time>2025-05-12T09:55:54Z</time>
      </trkpt>
      <trkpt lat="36.995509034022689" lon="-3.105456987395883">
        <ele>1016.73</ele>
        <time>2025-05-12T09:55:55Z</time>
      </trkpt>
      <trkpt lat="36.995572987943888" lon="-3.105341987684369">
        <ele>1015.29</ele>
        <time>2025-05-12T09:55:56Z</time>
      </trkpt>
      <trkpt lat="36.995595032349229" lon="-3.10521500185132">
        <ele>1013.85</ele>
        <time>2025-05-12T09:55:57Z</time>
      </trkpt>
      <trkpt lat="36.995572987943888" lon="-3.105055997148156">
        <ele>1012.41</ele>
        <time>2025-05-12T09:55:58Z</time>
      </trkpt>
      <trkpt lat="36.995510039851069" lon="-3.104887017980218">
        <ele>1011.9299999999999</ele>
        <time>2025-05-12T09:55:59Z</time>
      </trkpt>
      <trkpt lat="36.995432004332542" lon="-3.104704041033983">
        <ele>1011.9299999999999</ele>
        <time>2025-05-12T09:56:00Z</time>
      </trkpt>
      <trkpt lat="36.995310969650745" lon="-3.104533972218633">
        <ele>1012.41</ele>
        <time>2025-05-12T09:56:01Z</time>
      </trkpt>
      <trkpt lat="36.995181972160935" lon="-3.10435401275754">
        <ele>1012.89</ele>
        <time>2025-05-12T09:56:02Z</time>
      </trkpt>
      <trkpt lat="36.994615020230412" lon="-3.103738026693463">
        <ele>1012.89</ele>
        <time>2025-05-12T09:56:06Z</time>
      </trkpt>
      <trkpt lat="36.994488034397364" lon="-3.10362302698195">
        <ele>1012.41</ele>
        <time>2025-05-12T09:56:07Z</time>
      </trkpt>
      <trkpt lat="36.994377980008721" lon="-3.103522025048733">
        <ele>1011.4400000000001</ele>
        <time>2025-05-12T09:56:08Z</time>
      </trkpt>
      <trkpt lat="36.994292987510562" lon="-3.103444995358586">
        <ele>1010.96</ele>
        <time>2025-05-12T09:56:09Z</time>
      </trkpt>
      <trkpt lat="36.994272032752633" lon="-3.103335024788976">
        <ele>1009.52</ele>
        <time>2025-05-12T09:56:10Z</time>
      </trkpt>
      <trkpt lat="36.99424303136766" lon="-3.103180965408683">
        <ele>1008.5599999999999</ele>
        <time>2025-05-12T09:56:11Z</time>
      </trkpt>
      <trkpt lat="36.994211012497544" lon="-3.103011986240745">
        <ele>1007.6</ele>
        <time>2025-05-12T09:56:12Z</time>
      </trkpt>
      <trkpt lat="36.994176981970668" lon="-3.102836972102523">
        <ele>1006.16</ele>
        <time>2025-05-12T09:56:13Z</time>
      </trkpt>
      <trkpt lat="36.994144041091204" lon="-3.102661035954952">
        <ele>1005.2</ele>
        <time>2025-05-12T09:56:14Z</time>
      </trkpt>
      <trkpt lat="36.99409400112927" lon="-3.102480992674828">
        <ele>1004.23</ele>
        <time>2025-05-12T09:56:15Z</time>
      </trkpt>
      <trkpt lat="36.993918986991048" lon="-3.102117972448468">
        <ele>1001.83</ele>
        <time>2025-05-12T09:56:17Z</time>
      </trkpt>
      <trkpt lat="36.99381303973496" lon="-3.101952010765672">
        <ele>1000.87</ele>
        <time>2025-05-12T09:56:18Z</time>
      </trkpt>
      <trkpt lat="36.993625033646822" lon="-3.101656967774034">
        <ele>998.47000000000003</ele>
        <time>2025-05-12T09:56:20Z</time>
      </trkpt>
      <trkpt lat="36.993560995906591" lon="-3.101528976112604">
        <ele>997.50999999999999</ele>
        <time>2025-05-12T09:56:21Z</time>
      </trkpt>
      <trkpt lat="36.993556972593069" lon="-3.101405007764697">
        <ele>996.53999999999996</ele>
        <time>2025-05-12T09:56:22Z</time>
      </trkpt>
      <trkpt lat="36.99360097758472" lon="-3.101321021094918">
        <ele>994.62</ele>
        <time>2025-05-12T09:56:23Z</time>
      </trkpt>
      <trkpt lat="36.993672978132963" lon="-3.101241979748011">
        <ele>993.17999999999995</ele>
        <time>2025-05-12T09:56:24Z</time>
      </trkpt>
      <trkpt lat="36.993752019479871" lon="-3.10115396976471">
        <ele>991.74000000000001</ele>
        <time>2025-05-12T09:56:25Z</time>
      </trkpt>
      <trkpt lat="36.993802981451154" lon="-3.101042993366718">
        <ele>990.77999999999997</ele>
        <time>2025-05-12T09:56:26Z</time>
      </trkpt>
      <trkpt lat="36.993841035291553" lon="-3.100934028625488">
        <ele>989.33000000000004</ele>
        <time>2025-05-12T09:56:27Z</time>
      </trkpt>
      <trkpt lat="36.993829971179366" lon="-3.100821962580085">
        <ele>988.37</ele>
        <time>2025-05-12T09:56:28Z</time>
      </trkpt>
      <trkpt lat="36.993821002542973" lon="-3.100719032809138">
        <ele>987.40999999999997</ele>
        <time>2025-05-12T09:56:29Z</time>
      </trkpt>
      <trkpt lat="36.993744978681207" lon="-3.100664969533682">
        <ele>986.45000000000005</ele>
        <time>2025-05-12T09:56:30Z</time>
      </trkpt>
      <trkpt lat="36.993656968697906" lon="-3.100600009784102">
        <ele>985.49000000000001</ele>
        <time>2025-05-12T09:56:31Z</time>
      </trkpt>
      <trkpt lat="36.993570970371366" lon="-3.100525997579098">
        <ele>984.52999999999997</ele>
        <time>2025-05-12T09:56:32Z</time>
      </trkpt>
      <trkpt lat="36.993510033935308" lon="-3.100446034222841">
        <ele>983.57000000000005</ele>
        <time>2025-05-12T09:56:33Z</time>
      </trkpt>
      <trkpt lat="36.993480026721954" lon="-3.100322987884283">
        <ele>982.60000000000002</ele>
        <time>2025-05-12T09:56:34Z</time>
      </trkpt>
      <trkpt lat="36.993507016450167" lon="-3.10018896125257">
        <ele>981.63999999999999</ele>
        <time>2025-05-12T09:56:35Z</time>
      </trkpt>
      <trkpt lat="36.993539035320282" lon="-3.100031968206167">
        <ele>980.20000000000005</ele>
        <time>2025-05-12T09:56:36Z</time>
      </trkpt>
      <trkpt lat="36.993652023375034" lon="-3.099483959376812">
        <ele>976.84000000000003</ele>
        <time>2025-05-12T09:56:39Z</time>
      </trkpt>
      <trkpt lat="36.99366400949657" lon="-3.099296959117055">
        <ele>975.88</ele>
        <time>2025-05-12T09:56:40Z</time>
      </trkpt>
      <trkpt lat="36.993648000061512" lon="-3.099099984392524">
        <ele>975.38999999999999</ele>
        <time>2025-05-12T09:56:41Z</time>
      </trkpt>
      <trkpt lat="36.993614975363016" lon="-3.09876998886466">
        <ele>974.42999999999995</ele>
        <time>2025-05-12T09:56:43Z</time>
      </trkpt>
      <trkpt lat="36.993636013939977" lon="-3.09862095862627">
        <ele>973.47000000000003</ele>
        <time>2025-05-12T09:56:44Z</time>
      </trkpt>
      <trkpt lat="36.993709020316601" lon="-3.098470000550151">
        <ele>972.50999999999999</ele>
        <time>2025-05-12T09:56:45Z</time>
      </trkpt>
      <trkpt lat="36.993786972016096" lon="-3.098307978361845">
        <ele>971.54999999999995</ele>
        <time>2025-05-12T09:56:46Z</time>
      </trkpt>
      <trkpt lat="36.993866013363004" lon="-3.098146039992571">
        <ele>970.11000000000001</ele>
        <time>2025-05-12T09:56:47Z</time>
      </trkpt>
      <trkpt lat="36.993934996426105" lon="-3.098003966733813">
        <ele>968.66999999999996</ele>
        <time>2025-05-12T09:56:48Z</time>
      </trkpt>
      <trkpt lat="36.99392301030457" lon="-3.097885027527809">
        <ele>967.22000000000003</ele>
        <time>2025-05-12T09:56:49Z</time>
      </trkpt>
      <trkpt lat="36.993877999484539" lon="-3.097735997289419">
        <ele>965.77999999999997</ele>
        <time>2025-05-12T09:56:50Z</time>
      </trkpt>
      <trkpt lat="36.993833994492888" lon="-3.097590990364552">
        <ele>964.34000000000003</ele>
        <time>2025-05-12T09:56:51Z</time>
      </trkpt>
      <trkpt lat="36.993799963966012" lon="-3.097452018409967">
        <ele>962.89999999999998</ele>
        <time>2025-05-12T09:56:52Z</time>
      </trkpt>
      <trkpt lat="36.993799963966012" lon="-3.097332995384932">
        <ele>961.46000000000004</ele>
        <time>2025-05-12T09:56:53Z</time>
      </trkpt>
      <trkpt lat="36.993842041119933" lon="-3.097213972359896">
        <ele>960.49000000000001</ele>
        <time>2025-05-12T09:56:54Z</time>
      </trkpt>
      <trkpt lat="36.99392301030457" lon="-3.09711598791182">
        <ele>959.04999999999995</ele>
        <time>2025-05-12T09:56:55Z</time>
      </trkpt>
      <trkpt lat="36.994014037773013" lon="-3.09700702317059">
        <ele>958.09000000000003</ele>
        <time>2025-05-12T09:56:56Z</time>
      </trkpt>
      <trkpt lat="36.994062988087535" lon="-3.096860004588962">
        <ele>956.64999999999998</ele>
        <time>2025-05-12T09:56:57Z</time>
      </trkpt>
      <trkpt lat="36.994096012786031" lon="-3.096720026805997">
        <ele>955.21000000000004</ele>
        <time>2025-05-12T09:56:58Z</time>
      </trkpt>
      <trkpt lat="36.994069023057818" lon="-3.096545012667775">
        <ele>954.25</ele>
        <time>2025-05-12T09:56:59Z</time>
      </trkpt>
      <trkpt lat="36.994043039157987" lon="-3.096374021843076">
        <ele>952.79999999999995</ele>
        <time>2025-05-12T09:57:00Z</time>
      </trkpt>
      <trkpt lat="36.994018983095884" lon="-3.096217028796673">
        <ele>951.36000000000001</ele>
        <time>2025-05-12T09:57:01Z</time>
      </trkpt>
      <trkpt lat="36.993992999196053" lon="-3.096042014658451">
        <ele>949.91999999999996</ele>
        <time>2025-05-12T09:57:02Z</time>
      </trkpt>
      <trkpt lat="36.994022000581026" lon="-3.095875969156623">
        <ele>948.48000000000002</ele>
        <time>2025-05-12T09:57:03Z</time>
      </trkpt>
      <trkpt lat="36.994057036936283" lon="-3.095676982775331">
        <ele>947.51999999999998</ele>
        <time>2025-05-12T09:57:04Z</time>
      </trkpt>
      <trkpt lat="36.994110010564327" lon="-3.095531975850463">
        <ele>946.55999999999995</ele>
        <time>2025-05-12T09:57:05Z</time>
      </trkpt>
      <trkpt lat="36.994196008890867" lon="-3.095376994460821">
        <ele>945.11000000000001</ele>
        <time>2025-05-12T09:57:06Z</time>
      </trkpt>
      <trkpt lat="36.994310002774" lon="-3.095240034162998">
        <ele>944.14999999999998</ele>
        <time>2025-05-12T09:57:07Z</time>
      </trkpt>
      <trkpt lat="36.995209967717528" lon="-3.094250969588757">
        <ele>936.46000000000004</ele>
        <time>2025-05-12T09:57:14Z</time>
      </trkpt>
      <trkpt lat="36.995281968265772" lon="-3.094133036211133">
        <ele>935.5</ele>
        <time>2025-05-12T09:57:15Z</time>
      </trkpt>
      <trkpt lat="36.995293032377958" lon="-3.094024993479252">
        <ele>935.01999999999998</ele>
        <time>2025-05-12T09:57:16Z</time>
      </trkpt>
      <trkpt lat="36.995294960215688" lon="-3.093903958797455">
        <ele>935.01999999999998</ele>
        <time>2025-05-12T09:57:17Z</time>
      </trkpt>
      <trkpt lat="36.995274005457759" lon="-3.093780996277928">
        <ele>934.53999999999996</ele>
        <time>2025-05-12T09:57:18Z</time>
      </trkpt>
      <trkpt lat="36.995237041264772" lon="-3.093573963269591">
        <ele>934.53999999999996</ele>
        <time>2025-05-12T09:57:19Z</time>
      </trkpt>
      <trkpt lat="36.995240980759263" lon="-3.093481007963419">
        <ele>934.05999999999995</ele>
        <time>2025-05-12T09:57:20Z</time>
      </trkpt>
      <trkpt lat="36.995398979634047" lon="-3.092245012521744">
        <ele>931.64999999999998</ele>
        <time>2025-05-12T09:57:26Z</time>
      </trkpt>
      <trkpt lat="36.995515991002321" lon="-3.091706978157163">
        <ele>929.25</ele>
        <time>2025-05-12T09:57:29Z</time>
      </trkpt>
      <trkpt lat="36.995595032349229" lon="-3.091572029516101">
        <ele>928.76999999999998</ele>
        <time>2025-05-12T09:57:30Z</time>
      </trkpt>
      <trkpt lat="36.995760994032025" lon="-3.091287966817617">
        <ele>926.85000000000002</ele>
        <time>2025-05-12T09:57:32Z</time>
      </trkpt>
      <trkpt lat="36.995837017893791" lon="-3.091129967942834">
        <ele>925.40999999999997</ele>
        <time>2025-05-12T09:57:33Z</time>
      </trkpt>
      <trkpt lat="36.995887979865074" lon="-3.090980015695095">
        <ele>924.45000000000005</ele>
        <time>2025-05-12T09:57:34Z</time>
      </trkpt>
      <trkpt lat="36.995933996513486" lon="-3.090746998786926">
        <ele>923</ele>
        <time>2025-05-12T09:57:36Z</time>
      </trkpt>
      <trkpt lat="36.995944976806641" lon="-3.090612972155213">
        <ele>922.51999999999998</ele>
        <time>2025-05-12T09:57:37Z</time>
      </trkpt>
      <trkpt lat="36.995930979028344" lon="-3.090512976050377">
        <ele>921.55999999999995</ele>
        <time>2025-05-12T09:57:38Z</time>
      </trkpt>
      <trkpt lat="36.995914969593287" lon="-3.090401999652386">
        <ele>921.08000000000004</ele>
        <time>2025-05-12T09:57:39Z</time>
      </trkpt>
      <trkpt lat="36.995899965986609" lon="-3.090297980234027">
        <ele>920.60000000000002</ele>
        <time>2025-05-12T09:57:40Z</time>
      </trkpt>
      <trkpt lat="36.995885968208313" lon="-3.09019697830081">
        <ele>920.12</ele>
        <time>2025-05-12T09:57:41Z</time>
      </trkpt>
      <trkpt lat="36.995871970430017" lon="-3.090098993852735">
        <ele>919.15999999999997</ele>
        <time>2025-05-12T09:57:42Z</time>
      </trkpt>
      <trkpt lat="36.995859984308481" lon="-3.090000003576279">
        <ele>919.15999999999997</ele>
        <time>2025-05-12T09:57:43Z</time>
      </trkpt>
      <trkpt lat="36.995859984308481" lon="-3.089686017483473">
        <ele>917.24000000000001</ele>
        <time>2025-05-12T09:57:46Z</time>
      </trkpt>
      <trkpt lat="36.995889991521835" lon="-3.089566994458437">
        <ele>917.24000000000001</ele>
        <time>2025-05-12T09:57:47Z</time>
      </trkpt>
      <trkpt lat="36.995923016220331" lon="-3.089451994746923">
        <ele>916.75</ele>
        <time>2025-05-12T09:57:48Z</time>
      </trkpt>
      <trkpt lat="36.995956962928176" lon="-3.089339006692171">
        <ele>916.26999999999998</ele>
        <time>2025-05-12T09:57:49Z</time>
      </trkpt>
      <trkpt lat="36.995988981798291" lon="-3.08922803029418">
        <ele>915.78999999999996</ele>
        <time>2025-05-12T09:57:50Z</time>
      </trkpt>
      <trkpt lat="36.996148992329836" lon="-3.088818993419409">
        <ele>914.83000000000004</ele>
        <time>2025-05-12T09:57:54Z</time>
      </trkpt>
      <trkpt lat="36.996204983443022" lon="-3.088728971779347">
        <ele>914.83000000000004</ele>
        <time>2025-05-12T09:57:55Z</time>
      </trkpt>
      <trkpt lat="36.996263992041349" lon="-3.088636016473174">
        <ele>914.83000000000004</ele>
        <time>2025-05-12T09:57:56Z</time>
      </trkpt>
      <trkpt lat="36.996499020606279" lon="-3.088435018435121">
        <ele>913.38999999999999</ele>
        <time>2025-05-12T09:57:59Z</time>
      </trkpt>
      <trkpt lat="36.996571021154523" lon="-3.088380033150315">
        <ele>913.38999999999999</ele>
        <time>2025-05-12T09:58:00Z</time>
      </trkpt>
      <trkpt lat="36.996654001995921" lon="-3.088317001238465">
        <ele>912.42999999999995</ele>
        <time>2025-05-12T09:58:01Z</time>
      </trkpt>
      <trkpt lat="36.996730025857687" lon="-3.088309038430452">
        <ele>911.95000000000005</ele>
        <time>2025-05-12T09:58:02Z</time>
      </trkpt>
      <trkpt lat="36.996819041669369" lon="-3.088300991803408">
        <ele>911.47000000000003</ele>
        <time>2025-05-12T09:58:03Z</time>
      </trkpt>
      <trkpt lat="36.996914008632302" lon="-3.08830501511693">
        <ele>910.99000000000001</ele>
        <time>2025-05-12T09:58:04Z</time>
      </trkpt>
      <trkpt lat="36.996997995302081" lon="-3.088323036208749">
        <ele>910.02999999999997</ele>
        <time>2025-05-12T09:58:05Z</time>
      </trkpt>
      <trkpt lat="36.997322961688042" lon="-3.088360000401735">
        <ele>907.62</ele>
        <time>2025-05-12T09:58:10Z</time>
      </trkpt>
      <trkpt lat="36.997362021356821" lon="-3.088360000401735">
        <ele>907.13999999999999</ele>
        <time>2025-05-12T09:58:11Z</time>
      </trkpt>
      <trkpt lat="36.997439973056316" lon="-3.088310966268182">
        <ele>906.65999999999997</ele>
        <time>2025-05-12T09:58:12Z</time>
      </trkpt>
      <trkpt lat="36.997498981654644" lon="-3.088274002075195">
        <ele>906.17999999999995</ele>
        <time>2025-05-12T09:58:13Z</time>
      </trkpt>
      <trkpt lat="36.997544998303056" lon="-3.088228991255164">
        <ele>906.17999999999995</ele>
        <time>2025-05-12T09:58:14Z</time>
      </trkpt>
      <trkpt lat="36.997582968324423" lon="-3.088152967393398">
        <ele>906.17999999999995</ele>
        <time>2025-05-12T09:58:15Z</time>
      </trkpt>
      <trkpt lat="36.99761901050806" lon="-3.088080966845155">
        <ele>906.17999999999995</ele>
        <time>2025-05-12T09:58:16Z</time>
      </trkpt>
      <trkpt lat="36.997753959149122" lon="-3.087810985744">
        <ele>906.17999999999995</ele>
        <time>2025-05-12T09:58:20Z</time>
      </trkpt>
      <trkpt lat="36.997788995504379" lon="-3.087730016559362">
        <ele>906.65999999999997</ele>
        <time>2025-05-12T09:58:21Z</time>
      </trkpt>
      <trkpt lat="36.997773991897702" lon="-3.087653992697597">
        <ele>907.13999999999999</ele>
        <time>2025-05-12T09:58:22Z</time>
      </trkpt>
      <trkpt lat="36.997739039361477" lon="-3.087581992149353">
        <ele>907.62</ele>
        <time>2025-05-12T09:58:23Z</time>
      </trkpt>
      <trkpt lat="36.997693022713065" lon="-3.08751099742949">
        <ele>908.10000000000002</ele>
        <time>2025-05-12T09:58:24Z</time>
      </trkpt>
      <trkpt lat="36.997643988579512" lon="-3.087433967739344">
        <ele>908.58000000000004</ele>
        <time>2025-05-12T09:58:25Z</time>
      </trkpt>
      <trkpt lat="36.997603001073003" lon="-3.087350986897945">
        <ele>908.58000000000004</ele>
        <time>2025-05-12T09:58:26Z</time>
      </trkpt>
      <trkpt lat="36.997566958889365" lon="-3.087256019935012">
        <ele>909.05999999999995</ele>
        <time>2025-05-12T09:58:27Z</time>
      </trkpt>
      <trkpt lat="36.997528988867998" lon="-3.087154012173414">
        <ele>909.05999999999995</ele>
        <time>2025-05-12T09:58:28Z</time>
      </trkpt>
      <trkpt lat="36.99748900718987" lon="-3.087047981098294">
        <ele>909.53999999999996</ele>
        <time>2025-05-12T09:58:29Z</time>
      </trkpt>
      <trkpt lat="36.997451037168503" lon="-3.086946979165077">
        <ele>910.02999999999997</ele>
        <time>2025-05-12T09:58:30Z</time>
      </trkpt>
      <trkpt lat="36.997408038005233" lon="-3.086857963353396">
        <ele>910.99000000000001</ele>
        <time>2025-05-12T09:58:31Z</time>
      </trkpt>
      <trkpt lat="36.997351963073015" lon="-3.086793003603816">
        <ele>911.47000000000003</ele>
        <time>2025-05-12T09:58:32Z</time>
      </trkpt>
      <trkpt lat="36.99729697778821" lon="-3.086728965863586">
        <ele>912.42999999999995</ele>
        <time>2025-05-12T09:58:33Z</time>
      </trkpt>
      <trkpt lat="36.997225983068347" lon="-3.086697030812502">
        <ele>912.90999999999997</ele>
        <time>2025-05-12T09:58:34Z</time>
      </trkpt>
      <trkpt lat="36.997154988348484" lon="-3.086665011942387">
        <ele>913.38999999999999</ele>
        <time>2025-05-12T09:58:35Z</time>
      </trkpt>
      <trkpt lat="36.996939992532134" lon="-3.086560992524028">
        <ele>915.78999999999996</ele>
        <time>2025-05-12T09:58:38Z</time>
      </trkpt>
      <trkpt lat="36.996870003640652" lon="-3.08652201667428">
        <ele>916.26999999999998</ele>
        <time>2025-05-12T09:58:39Z</time>
      </trkpt>
      <trkpt lat="36.996641010046005" lon="-3.086309032514691">
        <ele>919.15999999999997</ele>
        <time>2025-05-12T09:58:43Z</time>
      </trkpt>
      <trkpt lat="36.996602034196258" lon="-3.086251029744744">
        <ele>920.12</ele>
        <time>2025-05-12T09:58:44Z</time>
      </trkpt>
      <trkpt lat="36.996580995619297" lon="-3.086179029196501">
        <ele>920.60000000000002</ele>
        <time>2025-05-12T09:58:45Z</time>
      </trkpt>
      <trkpt lat="36.996557023376226" lon="-3.086100993677974">
        <ele>921.08000000000004</ele>
        <time>2025-05-12T09:58:46Z</time>
      </trkpt>
      <trkpt lat="36.996534978970885" lon="-3.086016001179814">
        <ele>921.55999999999995</ele>
        <time>2025-05-12T09:58:47Z</time>
      </trkpt>
      <trkpt lat="36.996512012556195" lon="-3.085918016731739">
        <ele>922.51999999999998</ele>
        <time>2025-05-12T09:58:48Z</time>
      </trkpt>
      <trkpt lat="36.996488962322474" lon="-3.085819026455283">
        <ele>923</ele>
        <time>2025-05-12T09:58:49Z</time>
      </trkpt>
      <trkpt lat="36.996430037543178" lon="-3.085002964362502">
        <ele>924.45000000000005</ele>
        <time>2025-05-12T09:58:58Z</time>
      </trkpt>
      <trkpt lat="36.996433977037668" lon="-3.084898022934794">
        <ele>924.45000000000005</ele>
        <time>2025-05-12T09:58:59Z</time>
      </trkpt>
      <trkpt lat="36.996438000351191" lon="-3.084795009344816">
        <ele>924.92999999999995</ele>
        <time>2025-05-12T09:59:00Z</time>
      </trkpt>
      <trkpt lat="36.996444035321474" lon="-3.084694007411599">
        <ele>924.92999999999995</ele>
        <time>2025-05-12T09:59:01Z</time>
      </trkpt>
      <trkpt lat="36.996450992301106" lon="-3.084591999650002">
        <ele>924.92999999999995</ele>
        <time>2025-05-12T09:59:02Z</time>
      </trkpt>
      <trkpt lat="36.9964599609375" lon="-3.083449965342879">
        <ele>921.08000000000004</ele>
        <time>2025-05-12T09:59:13Z</time>
      </trkpt>
      <trkpt lat="36.996482005342841" lon="-3.08269701898098">
        <ele>916.75</ele>
        <time>2025-05-12T09:59:21Z</time>
      </trkpt>
      <trkpt lat="36.996482005342841" lon="-3.082592999562621">
        <ele>915.30999999999995</ele>
        <time>2025-05-12T09:59:22Z</time>
      </trkpt>
      <trkpt lat="36.996482005342841" lon="-3.082483028993011">
        <ele>914.35000000000002</ele>
        <time>2025-05-12T09:59:23Z</time>
      </trkpt>
      <trkpt lat="36.996472030878067" lon="-3.081956980749965">
        <ele>911.47000000000003</ele>
        <time>2025-05-12T09:59:28Z</time>
      </trkpt>
      <trkpt lat="36.996453003957868" lon="-3.081856984645128">
        <ele>911.47000000000003</ele>
        <time>2025-05-12T09:59:29Z</time>
      </trkpt>
      <trkpt lat="36.996321994811296" lon="-3.081173021346331">
        <ele>907.13999999999999</ele>
        <time>2025-05-12T09:59:36Z</time>
      </trkpt>
      <trkpt lat="36.996263992041349" lon="-3.080975040793419">
        <ele>906.65999999999997</ele>
        <time>2025-05-12T09:59:38Z</time>
      </trkpt>
      <trkpt lat="36.99619903229177" lon="-3.080912008881569">
        <ele>905.70000000000005</ele>
        <time>2025-05-12T09:59:39Z</time>
      </trkpt>
      <trkpt lat="36.996127031743526" lon="-3.080864986404777">
        <ele>905.22000000000003</ele>
        <time>2025-05-12T09:59:40Z</time>
      </trkpt>
      <trkpt lat="36.996055031195283" lon="-3.080818969756365">
        <ele>904.74000000000001</ele>
        <time>2025-05-12T09:59:41Z</time>
      </trkpt>
      <trkpt lat="36.995981018990278" lon="-3.080771025270224">
        <ele>903.77999999999997</ele>
        <time>2025-05-12T09:59:42Z</time>
      </trkpt>
      <trkpt lat="36.995901977643371" lon="-3.08072098530829">
        <ele>903.29999999999995</ele>
        <time>2025-05-12T09:59:43Z</time>
      </trkpt>
      <trkpt lat="36.995845986530185" lon="-3.080642027780414">
        <ele>902.82000000000005</ele>
        <time>2025-05-12T09:59:44Z</time>
      </trkpt>
      <trkpt lat="36.995787983760238" lon="-3.080559968948364">
        <ele>902.33000000000004</ele>
        <time>2025-05-12T09:59:45Z</time>
      </trkpt>
      <trkpt lat="36.9957260414958" lon="-3.080473970621824">
        <ele>901.85000000000002</ele>
        <time>2025-05-12T09:59:46Z</time>
      </trkpt>
      <trkpt lat="36.995294960215688" lon="-3.079773997887969">
        <ele>898.49000000000001</ele>
        <time>2025-05-12T09:59:55Z</time>
      </trkpt>
      <trkpt lat="36.995209967717528" lon="-3.079609964042902">
        <ele>898.00999999999999</ele>
        <time>2025-05-12T09:59:57Z</time>
      </trkpt>
      <trkpt lat="36.995150959119201" lon="-3.07949798181653">
        <ele>898.49000000000001</ele>
        <time>2025-05-12T09:59:58Z</time>
      </trkpt>
      <trkpt lat="36.995150959119201" lon="-3.079419024288654">
        <ele>898.97000000000003</ele>
        <time>2025-05-12T09:59:59Z</time>
      </trkpt>
      <trkpt lat="36.995165962725878" lon="-3.079100009053946">
        <ele>899.45000000000005</ele>
        <time>2025-05-12T10:00:02Z</time>
      </trkpt>
      <trkpt lat="36.995171997696161" lon="-3.079007975757122">
        <ele>899.45000000000005</ele>
        <time>2025-05-12T10:00:03Z</time>
      </trkpt>
      <trkpt lat="36.995195969939232" lon="-3.078956007957459">
        <ele>899.92999999999995</ele>
        <time>2025-05-12T10:00:04Z</time>
      </trkpt>
      <trkpt lat="36.995245004072785" lon="-3.078899011015892">
        <ele>899.92999999999995</ele>
        <time>2025-05-12T10:00:05Z</time>
      </trkpt>
      <trkpt lat="36.995294038206339" lon="-3.078841008245945">
        <ele>899.92999999999995</ele>
        <time>2025-05-12T10:00:06Z</time>
      </trkpt>
      <trkpt lat="36.995342988520861" lon="-3.078822987154126">
        <ele>899.45000000000005</ele>
        <time>2025-05-12T10:00:07Z</time>
      </trkpt>
      <trkpt lat="36.995423035696149" lon="-3.078804966062307">
        <ele>898.97000000000003</ele>
        <time>2025-05-12T10:00:08Z</time>
      </trkpt>
      <trkpt lat="36.995510961860418" lon="-3.078784011304379">
        <ele>898.00999999999999</ele>
        <time>2025-05-12T10:00:09Z</time>
      </trkpt>
      <trkpt lat="36.995601989328861" lon="-3.078763978555799">
        <ele>897.04999999999995</ele>
        <time>2025-05-12T10:00:10Z</time>
      </trkpt>
      <trkpt lat="36.995692010968924" lon="-3.07874302379787">
        <ele>896.57000000000005</ele>
        <time>2025-05-12T10:00:11Z</time>
      </trkpt>
      <trkpt lat="36.995781026780605" lon="-3.078721985220909">
        <ele>895.61000000000001</ele>
        <time>2025-05-12T10:00:12Z</time>
      </trkpt>
      <trkpt lat="36.995868030935526" lon="-3.078699018806219">
        <ele>894.15999999999997</ele>
        <time>2025-05-12T10:00:13Z</time>
      </trkpt>
      <trkpt lat="36.995941959321499" lon="-3.07865702547133">
        <ele>893.20000000000005</ele>
        <time>2025-05-12T10:00:14Z</time>
      </trkpt>
      <trkpt lat="36.996018989011645" lon="-3.078587958589196">
        <ele>892.24000000000001</ele>
        <time>2025-05-12T10:00:15Z</time>
      </trkpt>
      <trkpt lat="36.996046984568238" lon="-3.078495003283024">
        <ele>891.27999999999997</ele>
        <time>2025-05-12T10:00:16Z</time>
      </trkpt>
      <trkpt lat="36.99607003480196" lon="-3.078391989693046">
        <ele>889.84000000000003</ele>
        <time>2025-05-12T10:00:17Z</time>
      </trkpt>
      <trkpt lat="36.996032986789942" lon="-3.078298028558493">
        <ele>889.36000000000001</ele>
        <time>2025-05-12T10:00:18Z</time>
      </trkpt>
      <trkpt lat="36.995995016768575" lon="-3.078197026625276">
        <ele>888.39999999999998</ele>
        <time>2025-05-12T10:00:19Z</time>
      </trkpt>
      <trkpt lat="36.995947994291782" lon="-3.078096024692059">
        <ele>887.42999999999995</ele>
        <time>2025-05-12T10:00:20Z</time>
      </trkpt>
      <trkpt lat="36.995887979865074" lon="-3.078006003051996">
        <ele>886.47000000000003</ele>
        <time>2025-05-12T10:00:21Z</time>
      </trkpt>
      <trkpt lat="36.995709026232362" lon="-3.077738033607602">
        <ele>882.14999999999998</ele>
        <time>2025-05-12T10:00:26Z</time>
      </trkpt>
      <trkpt lat="36.995729980990291" lon="-3.07767097838223">
        <ele>881.19000000000005</ele>
        <time>2025-05-12T10:00:27Z</time>
      </trkpt>
      <trkpt lat="36.995746996253729" lon="-3.077614987269044">
        <ele>880.22000000000003</ele>
        <time>2025-05-12T10:00:28Z</time>
      </trkpt>
      <trkpt lat="36.995962997898459" lon="-3.076947033405304">
        <ele>876.38</ele>
        <time>2025-05-12T10:00:35Z</time>
      </trkpt>
      <trkpt lat="36.996013959869742" lon="-3.076838990673423">
        <ele>875.89999999999998</ele>
        <time>2025-05-12T10:00:36Z</time>
      </trkpt>
      <trkpt lat="36.996096018701792" lon="-3.076664982363582">
        <ele>875.41999999999996</ele>
        <time>2025-05-12T10:00:37Z</time>
      </trkpt>
      <trkpt lat="36.996165001764894" lon="-3.076614020392299">
        <ele>875.41999999999996</ele>
        <time>2025-05-12T10:00:38Z</time>
      </trkpt>
      <trkpt lat="36.996270027011633" lon="-3.076534979045391">
        <ele>875.41999999999996</ele>
        <time>2025-05-12T10:00:39Z</time>
      </trkpt>
      <trkpt lat="36.99637396261096" lon="-3.076457027345896">
        <ele>875.41999999999996</ele>
        <time>2025-05-12T10:00:40Z</time>
      </trkpt>
      <trkpt lat="36.996525004506111" lon="-3.076344039291143">
        <ele>875.89999999999998</ele>
        <time>2025-05-12T10:00:41Z</time>
      </trkpt>
      <trkpt lat="36.996557023376226" lon="-3.0762720387429">
        <ele>875.89999999999998</ele>
        <time>2025-05-12T10:00:42Z</time>
      </trkpt>
      <trkpt lat="36.996686020866036" lon="-3.075990993529558">
        <ele>876.38</ele>
        <time>2025-05-12T10:00:44Z</time>
      </trkpt>
      <trkpt lat="36.996761038899422" lon="-3.075828971341252">
        <ele>876.86000000000001</ele>
        <time>2025-05-12T10:00:45Z</time>
      </trkpt>
      <trkpt lat="36.996935969218612" lon="-3.075554966926575">
        <ele>878.29999999999995</ele>
        <time>2025-05-12T10:00:47Z</time>
      </trkpt>
      <trkpt lat="36.997018028050661" lon="-3.075426975265145">
        <ele>878.77999999999997</ele>
        <time>2025-05-12T10:00:48Z</time>
      </trkpt>
      <trkpt lat="36.99710302054882" lon="-3.075259001925588">
        <ele>879.74000000000001</ele>
        <time>2025-05-12T10:00:49Z</time>
      </trkpt>
      <trkpt lat="36.997097991406918" lon="-3.075102008879185">
        <ele>881.19000000000005</ele>
        <time>2025-05-12T10:00:50Z</time>
      </trkpt>
      <trkpt lat="36.997092040255666" lon="-3.074951972812414">
        <ele>882.14999999999998</ele>
        <time>2025-05-12T10:00:51Z</time>
      </trkpt>
      <trkpt lat="36.997088016942143" lon="-3.074810989201069">
        <ele>883.11000000000001</ele>
        <time>2025-05-12T10:00:52Z</time>
      </trkpt>
      <trkpt lat="36.997082987800241" lon="-3.074668999761343">
        <ele>883.59000000000003</ele>
        <time>2025-05-12T10:00:53Z</time>
      </trkpt>
      <trkpt lat="36.997147025540471" lon="-3.074532961472869">
        <ele>884.54999999999995</ele>
        <time>2025-05-12T10:00:54Z</time>
      </trkpt>
      <trkpt lat="36.997346011921763" lon="-3.074107998982072">
        <ele>888.39999999999998</ele>
        <time>2025-05-12T10:00:57Z</time>
      </trkpt>
      <trkpt lat="36.997428992763162" lon="-3.073968021199107">
        <ele>890.32000000000005</ele>
        <time>2025-05-12T10:00:58Z</time>
      </trkpt>
      <trkpt lat="36.997547009959817" lon="-3.073897026479244">
        <ele>891.75999999999999</ele>
        <time>2025-05-12T10:00:59Z</time>
      </trkpt>
      <trkpt lat="36.997892009094357" lon="-3.073687981814146">
        <ele>897.04999999999995</ele>
        <time>2025-05-12T10:01:02Z</time>
      </trkpt>
      <trkpt lat="36.997973984107375" lon="-3.073638025671244">
        <ele>898.49000000000001</ele>
        <time>2025-05-12T10:01:03Z</time>
      </trkpt>
      <trkpt lat="36.998084038496017" lon="-3.073648000136018">
        <ele>900.40999999999997</ele>
        <time>2025-05-12T10:01:04Z</time>
      </trkpt>
      <trkpt lat="36.998184034600854" lon="-3.073689993470907">
        <ele>901.85000000000002</ele>
        <time>2025-05-12T10:01:05Z</time>
      </trkpt>
      <trkpt lat="36.998246982693672" lon="-3.07376098819077">
        <ele>903.77999999999997</ele>
        <time>2025-05-12T10:01:06Z</time>
      </trkpt>
      <trkpt lat="36.998303979635239" lon="-3.07382402010262">
        <ele>905.22000000000003</ele>
        <time>2025-05-12T10:01:07Z</time>
      </trkpt>
      <trkpt lat="36.99837002903223" lon="-3.073897026479244">
        <ele>906.65999999999997</ele>
        <time>2025-05-12T10:01:08Z</time>
      </trkpt>
      <trkpt lat="36.998394001275301" lon="-3.073897026479244">
        <ele>907.62</ele>
        <time>2025-05-12T10:01:09Z</time>
      </trkpt>
      <trkpt lat="36.998464995995164" lon="-3.073870958760381">
        <ele>909.05999999999995</ele>
        <time>2025-05-12T10:01:10Z</time>
      </trkpt>
      <trkpt lat="36.998557029291987" lon="-3.073793007060885">
        <ele>910.50999999999999</ele>
        <time>2025-05-12T10:01:11Z</time>
      </trkpt>
      <trkpt lat="36.998661970719695" lon="-3.073703991249204">
        <ele>911.95000000000005</ele>
        <time>2025-05-12T10:01:12Z</time>
      </trkpt>
      <trkpt lat="36.998887024819851" lon="-3.073509028181434">
        <ele>914.35000000000002</ele>
        <time>2025-05-12T10:01:14Z</time>
      </trkpt>
      <trkpt lat="36.998990960419178" lon="-3.073405008763075">
        <ele>915.30999999999995</ele>
        <time>2025-05-12T10:01:15Z</time>
      </trkpt>
      <trkpt lat="36.999083999544382" lon="-3.073311969637871">
        <ele>916.26999999999998</ele>
        <time>2025-05-12T10:01:16Z</time>
      </trkpt>
      <trkpt lat="36.999169997870922" lon="-3.073226977139711">
        <ele>917.72000000000003</ele>
        <time>2025-05-12T10:01:17Z</time>
      </trkpt>
      <trkpt lat="36.999270999804139" lon="-3.073137039318681">
        <ele>918.67999999999995</ele>
        <time>2025-05-12T10:01:18Z</time>
      </trkpt>
      <trkpt lat="36.99938097037375" lon="-3.073089011013508">
        <ele>919.15999999999997</ele>
        <time>2025-05-12T10:01:19Z</time>
      </trkpt>
      <trkpt lat="36.999490018934011" lon="-3.073040982708335">
        <ele>919.63999999999999</ele>
        <time>2025-05-12T10:01:20Z</time>
      </trkpt>
      <trkpt lat="36.999594960361719" lon="-3.072994966059923">
        <ele>920.60000000000002</ele>
        <time>2025-05-12T10:01:21Z</time>
      </trkpt>
      <trkpt lat="36.99970199726522" lon="-3.07292103767395">
        <ele>921.55999999999995</ele>
        <time>2025-05-12T10:01:22Z</time>
      </trkpt>
      <trkpt lat="36.999812973663211" lon="-3.072844007983804">
        <ele>922.51999999999998</ele>
        <time>2025-05-12T10:01:23Z</time>
      </trkpt>
      <trkpt lat="36.999925039708614" lon="-3.072765972465277">
        <ele>923</ele>
        <time>2025-05-12T10:01:24Z</time>
      </trkpt>
      <trkpt lat="37.000038027763367" lon="-3.072688020765781">
        <ele>923</ele>
        <time>2025-05-12T10:01:25Z</time>
      </trkpt>
      <trkpt lat="37.000151015818119" lon="-3.072609985247254">
        <ele>923.48000000000002</ele>
        <time>2025-05-12T10:01:26Z</time>
      </trkpt>
      <trkpt lat="37.000471958890557" lon="-3.072288958355784">
        <ele>924.45000000000005</ele>
        <time>2025-05-12T10:01:30Z</time>
      </trkpt>
      <trkpt lat="37.000558963045478" lon="-3.072202038019896">
        <ele>924.92999999999995</ele>
        <time>2025-05-12T10:01:31Z</time>
      </trkpt>
      <trkpt lat="37.000631969422102" lon="-3.072177981957793">
        <ele>924.92999999999995</ele>
        <time>2025-05-12T10:01:32Z</time>
      </trkpt>
      <trkpt lat="37.000687960535288" lon="-3.072159038856626">
        <ele>925.40999999999997</ele>
        <time>2025-05-12T10:01:33Z</time>
      </trkpt>
      <trkpt lat="37.000802960246801" lon="-3.072147974744439">
        <ele>925.40999999999997</ele>
        <time>2025-05-12T10:01:34Z</time>
      </trkpt>
      <trkpt lat="37.000869009643793" lon="-3.072141017764807">
        <ele>925.40999999999997</ele>
        <time>2025-05-12T10:01:35Z</time>
      </trkpt>
      <trkpt lat="37.000917959958315" lon="-3.072131965309382">
        <ele>925.40999999999997</ele>
        <time>2025-05-12T10:01:36Z</time>
      </trkpt>
      <trkpt lat="37.000961964949965" lon="-3.072116961702704">
        <ele>925.40999999999997</ele>
        <time>2025-05-12T10:01:37Z</time>
      </trkpt>
      <trkpt lat="37.001043017953634" lon="-3.072088966146112">
        <ele>925.88999999999999</ele>
        <time>2025-05-12T10:01:39Z</time>
      </trkpt>
      <trkpt lat="37.001088028773665" lon="-3.072073040530086">
        <ele>926.37</ele>
        <time>2025-05-12T10:01:40Z</time>
      </trkpt>
      <trkpt lat="37.001750031486154" lon="-3.071841029450297">
        <ele>932.13999999999999</ele>
        <time>2025-05-12T10:01:53Z</time>
      </trkpt>
      <trkpt lat="37.001848015934229" lon="-3.071775985881686">
        <ele>933.10000000000002</ele>
        <time>2025-05-12T10:01:55Z</time>
      </trkpt>
      <trkpt lat="37.00189596042037" lon="-3.07174296118319">
        <ele>933.58000000000004</ele>
        <time>2025-05-12T10:01:56Z</time>
      </trkpt>
      <trkpt lat="37.001950023695827" lon="-3.071704991161823">
        <ele>933.58000000000004</ele>
        <time>2025-05-12T10:01:57Z</time>
      </trkpt>
      <trkpt lat="37.001975001767278" lon="-3.071686970070005">
        <ele>934.53999999999996</ele>
        <time>2025-05-12T10:01:58Z</time>
      </trkpt>
      <trkpt lat="37.002004003152251" lon="-3.071594014763832">
        <ele>935.98000000000002</ele>
        <time>2025-05-12T10:01:59Z</time>
      </trkpt>
      <trkpt lat="37.002031998708844" lon="-3.071507010608912">
        <ele>936.46000000000004</ele>
        <time>2025-05-12T10:02:00Z</time>
      </trkpt>
      <trkpt lat="37.002058988437057" lon="-3.071422018110752">
        <ele>937.89999999999998</ele>
        <time>2025-05-12T10:02:01Z</time>
      </trkpt>
      <trkpt lat="37.002084972336888" lon="-3.071339037269354">
        <ele>938.86000000000001</ele>
        <time>2025-05-12T10:02:02Z</time>
      </trkpt>
      <trkpt lat="37.002111040055752" lon="-3.071262007579207">
        <ele>939.83000000000004</ele>
        <time>2025-05-12T10:02:03Z</time>
      </trkpt>
      <trkpt lat="37.002131994813681" lon="-3.071210961788893">
        <ele>940.30999999999995</ele>
        <time>2025-05-12T10:02:04Z</time>
      </trkpt>
      <trkpt lat="37.002152027562261" lon="-3.071163017302752">
        <ele>940.78999999999996</ele>
        <time>2025-05-12T10:02:05Z</time>
      </trkpt>
      <trkpt lat="37.002171976491809" lon="-3.07111700065434">
        <ele>941.75</ele>
        <time>2025-05-12T10:02:06Z</time>
      </trkpt>
      <trkpt lat="37.002271972596645" lon="-3.071022033691406">
        <ele>942.23000000000002</ele>
        <time>2025-05-12T10:02:07Z</time>
      </trkpt>
      <trkpt lat="37.002380015328526" lon="-3.071056986227632">
        <ele>942.71000000000004</ele>
        <time>2025-05-12T10:02:08Z</time>
      </trkpt>
      <trkpt lat="37.002443969249725" lon="-3.071111971512437">
        <ele>943.19000000000005</ele>
        <time>2025-05-12T10:02:09Z</time>
      </trkpt>
      <trkpt lat="37.002512030303478" lon="-3.071171985939145">
        <ele>944.14999999999998</ele>
        <time>2025-05-12T10:02:10Z</time>
      </trkpt>
      <trkpt lat="37.002579001709819" lon="-3.071228982880712">
        <ele>945.11000000000001</ele>
        <time>2025-05-12T10:02:11Z</time>
      </trkpt>
      <trkpt lat="37.002661982551217" lon="-3.071300983428955">
        <ele>945.59000000000003</ele>
        <time>2025-05-12T10:02:12Z</time>
      </trkpt>
      <trkpt lat="37.002711016684771" lon="-3.071319004520774">
        <ele>947.03999999999996</ele>
        <time>2025-05-12T10:02:14Z</time>
      </trkpt>
      <trkpt lat="37.002744963392615" lon="-3.07133199647069">
        <ele>947.51999999999998</ele>
        <time>2025-05-12T10:02:15Z</time>
      </trkpt>
      <trkpt lat="37.002772036939859" lon="-3.071341970935464">
        <ele>948.48000000000002</ele>
        <time>2025-05-12T10:02:16Z</time>
      </trkpt>
      <trkpt lat="37.002793997526169" lon="-3.071351023390889">
        <ele>949.44000000000005</ele>
        <time>2025-05-12T10:02:17Z</time>
      </trkpt>
      <trkpt lat="37.002793997526169" lon="-3.071351023390889">
        <ele>949.91999999999996</ele>
        <time>2025-05-12T10:02:30Z</time>
      </trkpt>
      <trkpt lat="37.002793997526169" lon="-3.071351023390889">
        <ele>951.36000000000001</ele>
        <time>2025-05-12T10:03:01Z</time>
      </trkpt>
      <trkpt lat="37.002793997526169" lon="-3.071351023390889">
        <ele>951.36000000000001</ele>
        <time>2025-05-12T10:03:02Z</time>
      </trkpt>
      <trkpt lat="37.002661982551217" lon="-3.071300983428955">
        <ele>952.32000000000005</ele>
        <time>2025-05-12T10:03:03Z</time>
      </trkpt>
      <trkpt lat="37.002711016684771" lon="-3.071320010349155">
        <ele>956.16999999999996</ele>
        <time>2025-05-12T10:03:08Z</time>
      </trkpt>
      <trkpt lat="37.002682015299797" lon="-3.071309030056">
        <ele>956.64999999999998</ele>
        <time>2025-05-12T10:03:09Z</time>
      </trkpt>
      <trkpt lat="37.002661982551217" lon="-3.071300983428955">
        <ele>959.52999999999997</ele>
        <time>2025-05-12T10:03:10Z</time>
      </trkpt>
      <trkpt lat="37.002279013395309" lon="-3.071022033691406">
        <ele>956.16999999999996</ele>
        <time>2025-05-12T10:03:22Z</time>
      </trkpt>
      <trkpt lat="37.002197038382292" lon="-3.07105497457087">
        <ele>955.69000000000005</ele>
        <time>2025-05-12T10:03:23Z</time>
      </trkpt>
      <trkpt lat="37.002180023118854" lon="-3.07109797373414">
        <ele>954.73000000000002</ele>
        <time>2025-05-12T10:03:24Z</time>
      </trkpt>
      <trkpt lat="37.002158984541893" lon="-3.071146002039313">
        <ele>954.25</ele>
        <time>2025-05-12T10:03:25Z</time>
      </trkpt>
      <trkpt lat="37.002136018127203" lon="-3.07120299898088">
        <ele>953.76999999999998</ele>
        <time>2025-05-12T10:03:26Z</time>
      </trkpt>
      <trkpt lat="37.001972990110517" lon="-3.071688981726766">
        <ele>949.91999999999996</ele>
        <time>2025-05-12T10:03:34Z</time>
      </trkpt>
      <trkpt lat="37.001938037574291" lon="-3.071713037788868">
        <ele>949.91999999999996</ele>
        <time>2025-05-12T10:03:35Z</time>
      </trkpt>
      <trkpt lat="37.001905012875795" lon="-3.071736004203558">
        <ele>949.44000000000005</ele>
        <time>2025-05-12T10:03:36Z</time>
      </trkpt>
      <trkpt lat="37.001819014549255" lon="-3.071796018630266">
        <ele>948.96000000000004</ele>
        <time>2025-05-12T10:03:38Z</time>
      </trkpt>
      <trkpt lat="37.001238986849785" lon="-3.07201998308301">
        <ele>945.11000000000001</ele>
        <time>2025-05-12T10:03:47Z</time>
      </trkpt>
      <trkpt lat="37.000850988551974" lon="-3.072143029421568">
        <ele>939.35000000000002</ele>
        <time>2025-05-12T10:03:56Z</time>
      </trkpt>
      <trkpt lat="37.000687960535288" lon="-3.072159038856626">
        <ele>937.89999999999998</ele>
        <time>2025-05-12T10:04:00Z</time>
      </trkpt>
      <trkpt lat="37.000607997179031" lon="-3.072186028584838">
        <ele>937.89999999999998</ele>
        <time>2025-05-12T10:04:01Z</time>
      </trkpt>
      <trkpt lat="37.000558963045478" lon="-3.072202038019896">
        <ele>937.41999999999996</ele>
        <time>2025-05-12T10:04:02Z</time>
      </trkpt>
      <trkpt lat="37.00049702078104" lon="-3.072263980284333">
        <ele>936.94000000000005</ele>
        <time>2025-05-12T10:04:03Z</time>
      </trkpt>
      <trkpt lat="37.000443963333964" lon="-3.072317037731409">
        <ele>936.46000000000004</ele>
        <time>2025-05-12T10:04:04Z</time>
      </trkpt>
      <trkpt lat="37.000380009412766" lon="-3.072380991652608">
        <ele>935.98000000000002</ele>
        <time>2025-05-12T10:04:05Z</time>
      </trkpt>
      <trkpt lat="37.000313960015774" lon="-3.0724470410496">
        <ele>935.5</ele>
        <time>2025-05-12T10:04:06Z</time>
      </trkpt>
      <trkpt lat="37.000011960044503" lon="-3.0727060418576">
        <ele>933.10000000000002</ele>
        <time>2025-05-12T10:04:10Z</time>
      </trkpt>
      <trkpt lat="36.99976603500545" lon="-3.0728770326823">
        <ele>932.13999999999999</ele>
        <time>2025-05-12T10:04:13Z</time>
      </trkpt>
      <trkpt lat="36.999677019193769" lon="-3.072937969118357">
        <ele>931.64999999999998</ele>
        <time>2025-05-12T10:04:14Z</time>
      </trkpt>
      <trkpt lat="36.99959303252399" lon="-3.072995971888304">
        <ele>931.64999999999998</ele>
        <time>2025-05-12T10:04:15Z</time>
      </trkpt>
      <trkpt lat="36.999496975913644" lon="-3.073037965223193">
        <ele>931.64999999999998</ele>
        <time>2025-05-12T10:04:16Z</time>
      </trkpt>
      <trkpt lat="36.999406032264233" lon="-3.073078030720353">
        <ele>931.16999999999996</ele>
        <time>2025-05-12T10:04:17Z</time>
      </trkpt>
      <trkpt lat="36.999317016452551" lon="-3.073117006570101">
        <ele>930.69000000000005</ele>
        <time>2025-05-12T10:04:18Z</time>
      </trkpt>
      <trkpt lat="36.99922900646925" lon="-3.073166962713003">
        <ele>929.73000000000002</ele>
        <time>2025-05-12T10:04:19Z</time>
      </trkpt>
      <trkpt lat="36.999063966795802" lon="-3.073332002386451">
        <ele>928.76999999999998</ele>
        <time>2025-05-12T10:04:21Z</time>
      </trkpt>
      <trkpt lat="36.998975034803152" lon="-3.073422024026513">
        <ele>928.28999999999996</ele>
        <time>2025-05-12T10:04:22Z</time>
      </trkpt>
      <trkpt lat="36.99888501316309" lon="-3.073511961847544">
        <ele>927.80999999999995</ele>
        <time>2025-05-12T10:04:23Z</time>
      </trkpt>
      <trkpt lat="36.998513024300337" lon="-3.073830977082253">
        <ele>924.45000000000005</ele>
        <time>2025-05-12T10:04:27Z</time>
      </trkpt>
      <trkpt lat="36.998433982953429" lon="-3.073897026479244">
        <ele>923.48000000000002</ele>
        <time>2025-05-12T10:04:28Z</time>
      </trkpt>
      <trkpt lat="36.99837002903223" lon="-3.073897026479244">
        <ele>922.51999999999998</ele>
        <time>2025-05-12T10:04:29Z</time>
      </trkpt>
      <trkpt lat="36.998308002948761" lon="-3.073827959597111">
        <ele>921.55999999999995</ele>
        <time>2025-05-12T10:04:30Z</time>
      </trkpt>
      <trkpt lat="36.998256035149097" lon="-3.073770962655544">
        <ele>920.60000000000002</ele>
        <time>2025-05-12T10:04:31Z</time>
      </trkpt>
      <trkpt lat="36.998202977702022" lon="-3.073712037876248">
        <ele>919.63999999999999</ele>
        <time>2025-05-12T10:04:32Z</time>
      </trkpt>
      <trkpt lat="36.99817699380219" lon="-3.073683036491275">
        <ele>918.67999999999995</ele>
        <time>2025-05-12T10:04:33Z</time>
      </trkpt>
      <trkpt lat="36.998057970777154" lon="-3.073638025671244">
        <ele>917.24000000000001</ele>
        <time>2025-05-12T10:04:34Z</time>
      </trkpt>
      <trkpt lat="36.997979013249278" lon="-3.073634002357721">
        <ele>916.75</ele>
        <time>2025-05-12T10:04:35Z</time>
      </trkpt>
      <trkpt lat="36.99789997190237" lon="-3.073682030662894">
        <ele>915.78999999999996</ele>
        <time>2025-05-12T10:04:36Z</time>
      </trkpt>
      <trkpt lat="36.99781003408134" lon="-3.0737370159477">
        <ele>914.83000000000004</ele>
        <time>2025-05-12T10:04:37Z</time>
      </trkpt>
      <trkpt lat="36.997711965814233" lon="-3.073797030374408">
        <ele>913.87</ele>
        <time>2025-05-12T10:04:38Z</time>
      </trkpt>
      <trkpt lat="36.997413989156485" lon="-3.073976989835501">
        <ele>910.02999999999997</ele>
        <time>2025-05-12T10:04:41Z</time>
      </trkpt>
      <trkpt lat="36.997359003871679" lon="-3.07408100925386">
        <ele>908.58000000000004</ele>
        <time>2025-05-12T10:04:42Z</time>
      </trkpt>
      <trkpt lat="36.997092962265015" lon="-3.074647961184382">
        <ele>900.40999999999997</ele>
        <time>2025-05-12T10:04:47Z</time>
      </trkpt>
      <trkpt lat="36.997084999457002" lon="-3.074750974774361">
        <ele>899.45000000000005</ele>
        <time>2025-05-12T10:04:48Z</time>
      </trkpt>
      <trkpt lat="36.997090028598905" lon="-3.074868991971016">
        <ele>898.00999999999999</ele>
        <time>2025-05-12T10:04:49Z</time>
      </trkpt>
      <trkpt lat="36.997097991406918" lon="-3.075124975293875">
        <ele>896.09000000000003</ele>
        <time>2025-05-12T10:04:51Z</time>
      </trkpt>
      <trkpt lat="36.99710201472044" lon="-3.075246009975672">
        <ele>895.12</ele>
        <time>2025-05-12T10:04:52Z</time>
      </trkpt>
      <trkpt lat="36.997052980586886" lon="-3.07537198998034">
        <ele>893.67999999999995</ele>
        <time>2025-05-12T10:04:53Z</time>
      </trkpt>
      <trkpt lat="36.996991038322449" lon="-3.075468968600035">
        <ele>892.24000000000001</ele>
        <time>2025-05-12T10:04:54Z</time>
      </trkpt>
      <trkpt lat="36.996919959783554" lon="-3.075580028817058">
        <ele>890.79999999999995</ele>
        <time>2025-05-12T10:04:55Z</time>
      </trkpt>
      <trkpt lat="36.996713010594249" lon="-3.075932990759611">
        <ele>887.42999999999995</ele>
        <time>2025-05-12T10:04:58Z</time>
      </trkpt>
      <trkpt lat="36.996656013652682" lon="-3.076056037098169">
        <ele>886.47000000000003</ele>
        <time>2025-05-12T10:04:59Z</time>
      </trkpt>
      <trkpt lat="36.996544031426311" lon="-3.076301962137222">
        <ele>884.07000000000005</ele>
        <time>2025-05-12T10:05:01Z</time>
      </trkpt>
      <trkpt lat="36.996463984251022" lon="-3.076388966292143">
        <ele>883.11000000000001</ele>
        <time>2025-05-12T10:05:02Z</time>
      </trkpt>
      <trkpt lat="36.996368011459708" lon="-3.076460966840386">
        <ele>882.14999999999998</ele>
        <time>2025-05-12T10:05:03Z</time>
      </trkpt>
      <trkpt lat="36.996080009266734" lon="-3.076700018718839">
        <ele>879.74000000000001</ele>
        <time>2025-05-12T10:05:06Z</time>
      </trkpt>
      <trkpt lat="36.996025023981929" lon="-3.076816024258733">
        <ele>878.77999999999997</ele>
        <time>2025-05-12T10:05:07Z</time>
      </trkpt>
      <trkpt lat="36.995970960706472" lon="-3.076930018141866">
        <ele>877.82000000000005</ele>
        <time>2025-05-12T10:05:08Z</time>
      </trkpt>
      <trkpt lat="36.995851015672088" lon="-3.077270993962884">
        <ele>876.38</ele>
        <time>2025-05-12T10:05:11Z</time>
      </trkpt>
      <trkpt lat="36.995772980153561" lon="-3.077528988942504">
        <ele>874.94000000000005</ele>
        <time>2025-05-12T10:05:14Z</time>
      </trkpt>
      <trkpt lat="36.995756970718503" lon="-3.077580034732819">
        <ele>874.46000000000004</ele>
        <time>2025-05-12T10:05:15Z</time>
      </trkpt>
      <trkpt lat="36.995748002082109" lon="-3.077612975612283">
        <ele>873.98000000000002</ele>
        <time>2025-05-12T10:05:16Z</time>
      </trkpt>
      <trkpt lat="36.995742972940207" lon="-3.07762898504734">
        <ele>873.98000000000002</ele>
        <time>2025-05-12T10:05:17Z</time>
      </trkpt>
      <trkpt lat="36.995667032897472" lon="-3.077696040272713">
        <ele>873.00999999999999</ele>
        <time>2025-05-12T10:05:18Z</time>
      </trkpt>
      <trkpt lat="36.995649011805654" lon="-3.077677013352513">
        <ele>873.5</ele>
        <time>2025-05-12T10:05:19Z</time>
      </trkpt>
      <trkpt lat="36.995610035955906" lon="-3.077638959512115">
        <ele>873.5</ele>
        <time>2025-05-12T10:05:20Z</time>
      </trkpt>
      <trkpt lat="36.995559995993972" lon="-3.077589003369212">
        <ele>873.00999999999999</ele>
        <time>2025-05-12T10:05:21Z</time>
      </trkpt>
      <trkpt lat="36.995495036244392" lon="-3.077523959800601">
        <ele>873.00999999999999</ele>
        <time>2025-05-12T10:05:22Z</time>
      </trkpt>
      <trkpt lat="36.995438961312175" lon="-3.077497975900769">
        <ele>872.52999999999997</ele>
        <time>2025-05-12T10:05:23Z</time>
      </trkpt>
      <trkpt lat="36.995266964659095" lon="-3.077419018372893">
        <ele>871.57000000000005</ele>
        <time>2025-05-12T10:05:25Z</time>
      </trkpt>
      <trkpt lat="36.995171997696161" lon="-3.077384987846017">
        <ele>871.57000000000005</ele>
        <time>2025-05-12T10:05:26Z</time>
      </trkpt>
      <trkpt lat="36.994973011314869" lon="-3.077338971197605">
        <ele>871.09000000000003</ele>
        <time>2025-05-12T10:05:28Z</time>
      </trkpt>
      <trkpt lat="36.994898999109864" lon="-3.077293038368225">
        <ele>871.09000000000003</ele>
        <time>2025-05-12T10:05:29Z</time>
      </trkpt>
      <trkpt lat="36.994850970804691" lon="-3.077222965657711">
        <ele>870.61000000000001</ele>
        <time>2025-05-12T10:05:30Z</time>
      </trkpt>
      <trkpt lat="36.994850970804691" lon="-3.077139984816313">
        <ele>870.13</ele>
        <time>2025-05-12T10:05:31Z</time>
      </trkpt>
      <trkpt lat="36.994906039908528" lon="-3.077082987874746">
        <ele>869.64999999999998</ele>
        <time>2025-05-12T10:05:32Z</time>
      </trkpt>
      <trkpt lat="36.994979968294501" lon="-3.077008975669742">
        <ele>869.64999999999998</ele>
        <time>2025-05-12T10:05:33Z</time>
      </trkpt>
      <trkpt lat="36.995052974671125" lon="-3.0769610311836">
        <ele>869.16999999999996</ele>
        <time>2025-05-12T10:05:34Z</time>
      </trkpt>
      <trkpt lat="36.995139978826046" lon="-3.076905040070415">
        <ele>869.16999999999996</ele>
        <time>2025-05-12T10:05:35Z</time>
      </trkpt>
      <trkpt lat="36.995309041813016" lon="-3.076795991510153">
        <ele>868.21000000000004</ele>
        <time>2025-05-12T10:05:37Z</time>
      </trkpt>
      <trkpt lat="36.995363021269441" lon="-3.076726002618671">
        <ele>868.21000000000004</ele>
        <time>2025-05-12T10:05:38Z</time>
      </trkpt>
      <trkpt lat="36.995382970198989" lon="-3.07663899846375">
        <ele>868.21000000000004</ele>
        <time>2025-05-12T10:05:39Z</time>
      </trkpt>
      <trkpt lat="36.995366038754582" lon="-3.076536990702152">
        <ele>867.73000000000002</ele>
        <time>2025-05-12T10:05:40Z</time>
      </trkpt>
      <trkpt lat="36.995303006842732" lon="-3.076468007639051">
        <ele>867.25</ele>
        <time>2025-05-12T10:05:41Z</time>
      </trkpt>
      <trkpt lat="36.995228994637728" lon="-3.076387038454413">
        <ele>867.25</ele>
        <time>2025-05-12T10:05:42Z</time>
      </trkpt>
      <trkpt lat="36.995001006871462" lon="-3.076149998232722">
        <ele>865.79999999999995</ele>
        <time>2025-05-12T10:05:45Z</time>
      </trkpt>
      <trkpt lat="36.994952978566289" lon="-3.076054025441408">
        <ele>865.32000000000005</ele>
        <time>2025-05-12T10:05:46Z</time>
      </trkpt>
      <trkpt lat="36.994922971352935" lon="-3.075957968831062">
        <ele>864.84000000000003</ele>
        <time>2025-05-12T10:05:47Z</time>
      </trkpt>
      <trkpt lat="36.994960019364953" lon="-3.075850009918213">
        <ele>863.88</ele>
        <time>2025-05-12T10:05:48Z</time>
      </trkpt>
      <trkpt lat="36.995002012699842" lon="-3.075730986893177">
        <ele>863.39999999999998</ele>
        <time>2025-05-12T10:05:49Z</time>
      </trkpt>
      <trkpt lat="36.995046017691493" lon="-3.07560701854527">
        <ele>862.44000000000005</ele>
        <time>2025-05-12T10:05:50Z</time>
      </trkpt>
      <trkpt lat="36.99506001546979" lon="-3.075484978035092">
        <ele>861.48000000000002</ele>
        <time>2025-05-12T10:05:51Z</time>
      </trkpt>
      <trkpt lat="36.995050963014364" lon="-3.075376013293862">
        <ele>860.51999999999998</ele>
        <time>2025-05-12T10:05:52Z</time>
      </trkpt>
      <trkpt lat="36.995016010478139" lon="-3.075271993875504">
        <ele>859.55999999999995</ele>
        <time>2025-05-12T10:05:53Z</time>
      </trkpt>
      <trkpt lat="36.99493202380836" lon="-3.075210973620415">
        <ele>858.11000000000001</ele>
        <time>2025-05-12T10:05:54Z</time>
      </trkpt>
      <trkpt lat="36.994833033531904" lon="-3.075139978900552">
        <ele>857.14999999999998</ele>
        <time>2025-05-12T10:05:55Z</time>
      </trkpt>
      <trkpt lat="36.994515024125576" lon="-3.074911991134286">
        <ele>853.78999999999996</ele>
        <time>2025-05-12T10:05:58Z</time>
      </trkpt>
      <trkpt lat="36.994466995820403" lon="-3.074804032221437">
        <ele>852.83000000000004</ele>
        <time>2025-05-12T10:05:59Z</time>
      </trkpt>
      <trkpt lat="36.994421985000372" lon="-3.074690960347652">
        <ele>851.38</ele>
        <time>2025-05-12T10:06:00Z</time>
      </trkpt>
      <trkpt lat="36.99437303468585" lon="-3.074396001175046">
        <ele>848.5</ele>
        <time>2025-05-12T10:06:02Z</time>
      </trkpt>
      <trkpt lat="36.994331041350961" lon="-3.07425300590694">
        <ele>847.05999999999995</ele>
        <time>2025-05-12T10:06:03Z</time>
      </trkpt>
      <trkpt lat="36.994258034974337" lon="-3.074116967618465">
        <ele>846.10000000000002</ele>
        <time>2025-05-12T10:06:04Z</time>
      </trkpt>
      <trkpt lat="36.994158960878849" lon="-3.07399501092732">
        <ele>845.13999999999999</ele>
        <time>2025-05-12T10:06:05Z</time>
      </trkpt>
      <trkpt lat="36.994061982259154" lon="-3.073875987902284">
        <ele>844.17999999999995</ele>
        <time>2025-05-12T10:06:06Z</time>
      </trkpt>
      <trkpt lat="36.993970032781363" lon="-3.073745984584093">
        <ele>843.69000000000005</ele>
        <time>2025-05-12T10:06:07Z</time>
      </trkpt>
      <trkpt lat="36.993899960070848" lon="-3.073603995144367">
        <ele>843.21000000000004</ele>
        <time>2025-05-12T10:06:08Z</time>
      </trkpt>
      <trkpt lat="36.993831982836127" lon="-3.073468040674925">
        <ele>842.73000000000002</ele>
        <time>2025-05-12T10:06:09Z</time>
      </trkpt>
      <trkpt lat="36.993732992559671" lon="-3.073375001549721">
        <ele>842.73000000000002</ele>
        <time>2025-05-12T10:06:10Z</time>
      </trkpt>
      <trkpt lat="36.993626039475203" lon="-3.07328699156642">
        <ele>841.76999999999998</ele>
        <time>2025-05-12T10:06:11Z</time>
      </trkpt>
      <trkpt lat="36.993540041148663" lon="-3.073197975754738">
        <ele>841.28999999999996</ele>
        <time>2025-05-12T10:06:12Z</time>
      </trkpt>
      <trkpt lat="36.993469968438148" lon="-3.073108959943056">
        <ele>841.28999999999996</ele>
        <time>2025-05-12T10:06:13Z</time>
      </trkpt>
      <trkpt lat="36.993412971496582" lon="-3.073034025728703">
        <ele>840.80999999999995</ele>
        <time>2025-05-12T10:06:14Z</time>
      </trkpt>
      <trkpt lat="36.993395034223795" lon="-3.072921959683299">
        <ele>840.80999999999995</ele>
        <time>2025-05-12T10:06:15Z</time>
      </trkpt>
      <trkpt lat="36.993377013131976" lon="-3.072802014648914">
        <ele>840.80999999999995</ele>
        <time>2025-05-12T10:06:16Z</time>
      </trkpt>
      <trkpt lat="36.993369972333312" lon="-3.072682991623879">
        <ele>840.80999999999995</ele>
        <time>2025-05-12T10:06:17Z</time>
      </trkpt>
      <trkpt lat="36.993402997031808" lon="-3.072573021054268">
        <ele>840.33000000000004</ele>
        <time>2025-05-12T10:06:18Z</time>
      </trkpt>
      <trkpt lat="36.993473991751671" lon="-3.072490962222219">
        <ele>840.33000000000004</ele>
        <time>2025-05-12T10:06:19Z</time>
      </trkpt>
      <trkpt lat="36.993560995906591" lon="-3.072420973330736">
        <ele>840.33000000000004</ele>
        <time>2025-05-12T10:06:20Z</time>
      </trkpt>
      <trkpt lat="36.993672978132963" lon="-3.072372023016214">
        <ele>839.85000000000002</ele>
        <time>2025-05-12T10:06:21Z</time>
      </trkpt>
      <trkpt lat="36.993795018643141" lon="-3.072318965569139">
        <ele>839.37</ele>
        <time>2025-05-12T10:06:22Z</time>
      </trkpt>
      <trkpt lat="36.994282007217407" lon="-3.07204102165997">
        <ele>836.96000000000004</ele>
        <time>2025-05-12T10:06:26Z</time>
      </trkpt>
      <trkpt lat="36.994368005543947" lon="-3.071956029161811">
        <ele>836</ele>
        <time>2025-05-12T10:06:27Z</time>
      </trkpt>
      <trkpt lat="36.994417039677501" lon="-3.071867013350129">
        <ele>835.51999999999998</ele>
        <time>2025-05-12T10:06:28Z</time>
      </trkpt>
      <trkpt lat="36.994403963908553" lon="-3.071765005588532">
        <ele>834.55999999999995</ele>
        <time>2025-05-12T10:06:29Z</time>
      </trkpt>
      <trkpt lat="36.994388960301876" lon="-3.07165302336216">
        <ele>833.60000000000002</ele>
        <time>2025-05-12T10:06:30Z</time>
      </trkpt>
      <trkpt lat="36.994348978623748" lon="-3.071532994508743">
        <ele>832.63999999999999</ele>
        <time>2025-05-12T10:06:31Z</time>
      </trkpt>
      <trkpt lat="36.994284018874168" lon="-3.071430986747146">
        <ele>831.67999999999995</ele>
        <time>2025-05-12T10:06:32Z</time>
      </trkpt>
      <trkpt lat="36.994211012497544" lon="-3.071336019784212">
        <ele>830.72000000000003</ele>
        <time>2025-05-12T10:06:33Z</time>
      </trkpt>
      <trkpt lat="36.994101963937283" lon="-3.071284973993897">
        <ele>830.24000000000001</ele>
        <time>2025-05-12T10:06:34Z</time>
      </trkpt>
      <trkpt lat="36.993811028078198" lon="-3.071093028411269">
        <ele>828.30999999999995</ele>
        <time>2025-05-12T10:06:37Z</time>
      </trkpt>
      <trkpt lat="36.993755036965013" lon="-3.07100904174149">
        <ele>827.83000000000004</ele>
        <time>2025-05-12T10:06:38Z</time>
      </trkpt>
      <trkpt lat="36.993757970631123" lon="-3.070942992344499">
        <ele>827.35000000000002</ele>
        <time>2025-05-12T10:06:39Z</time>
      </trkpt>
      <trkpt lat="36.993805998936296" lon="-3.070865962654352">
        <ele>826.87</ele>
        <time>2025-05-12T10:06:40Z</time>
      </trkpt>
      <trkpt lat="36.993853021413088" lon="-3.070805026218295">
        <ele>826.38999999999999</ele>
        <time>2025-05-12T10:06:41Z</time>
      </trkpt>
      <trkpt lat="36.993939019739628" lon="-3.070788010954857">
        <ele>826.38999999999999</ele>
        <time>2025-05-12T10:06:42Z</time>
      </trkpt>
      <trkpt lat="36.99403096921742" lon="-3.070769989863038">
        <ele>825.90999999999997</ele>
        <time>2025-05-12T10:06:43Z</time>
      </trkpt>
      <trkpt lat="36.994129959493876" lon="-3.07075004093349">
        <ele>825.42999999999995</ele>
        <time>2025-05-12T10:06:44Z</time>
      </trkpt>
      <trkpt lat="36.994213024154305" lon="-3.070679968222976">
        <ele>825.42999999999995</ele>
        <time>2025-05-12T10:06:45Z</time>
      </trkpt>
      <trkpt lat="36.994292987510562" lon="-3.070576032623649">
        <ele>824.47000000000003</ele>
        <time>2025-05-12T10:06:46Z</time>
      </trkpt>
      <trkpt lat="36.994378985837102" lon="-3.070463966578245">
        <ele>824.47000000000003</ele>
        <time>2025-05-12T10:06:47Z</time>
      </trkpt>
      <trkpt lat="36.994990026578307" lon="-3.069715965539217">
        <ele>818.22000000000003</ele>
        <time>2025-05-12T10:06:55Z</time>
      </trkpt>
      <trkpt lat="36.995038976892829" lon="-3.069660980254412">
        <ele>817.25999999999999</ele>
        <time>2025-05-12T10:06:56Z</time>
      </trkpt>
      <trkpt lat="36.995078036561608" lon="-3.069617981091142">
        <ele>816.29999999999995</ele>
        <time>2025-05-12T10:06:57Z</time>
      </trkpt>
      <trkpt lat="36.995153976604342" lon="-3.069626027718186">
        <ele>815.34000000000003</ele>
        <time>2025-05-12T10:06:58Z</time>
      </trkpt>
      <trkpt lat="36.995203010737896" lon="-3.069670032709837">
        <ele>814.37</ele>
        <time>2025-05-12T10:06:59Z</time>
      </trkpt>
      <trkpt lat="36.995260007679462" lon="-3.069722000509501">
        <ele>813.40999999999997</ele>
        <time>2025-05-12T10:07:00Z</time>
      </trkpt>
      <trkpt lat="36.99540501460433" lon="-3.069831971079111">
        <ele>812.92999999999995</ele>
        <time>2025-05-12T10:07:02Z</time>
      </trkpt>
      <trkpt lat="36.996082020923495" lon="-3.070194991305471">
        <ele>813.40999999999997</ele>
        <time>2025-05-12T10:07:09Z</time>
      </trkpt>
      <trkpt lat="36.996430037543178" lon="-3.070289958268404">
        <ele>813.40999999999997</ele>
        <time>2025-05-12T10:07:13Z</time>
      </trkpt>
      <trkpt lat="36.996480999514461" lon="-3.070284007117152">
        <ele>813.40999999999997</ele>
        <time>2025-05-12T10:07:14Z</time>
      </trkpt>
      <trkpt lat="36.996544031426311" lon="-3.07025701738894">
        <ele>813.40999999999997</ele>
        <time>2025-05-12T10:07:15Z</time>
      </trkpt>
      <trkpt lat="36.996611002832651" lon="-3.070228016003966">
        <ele>813.40999999999997</ele>
        <time>2025-05-12T10:07:16Z</time>
      </trkpt>
      <trkpt lat="36.996628018096089" lon="-3.070176970213652">
        <ele>813.40999999999997</ele>
        <time>2025-05-12T10:07:17Z</time>
      </trkpt>
      <trkpt lat="36.996654001995921" lon="-3.070099018514156">
        <ele>813.40999999999997</ele>
        <time>2025-05-12T10:07:18Z</time>
      </trkpt>
      <trkpt lat="36.996664982289076" lon="-3.070055013522506">
        <ele>813.40999999999997</ele>
        <time>2025-05-12T10:07:19Z</time>
      </trkpt>
      <trkpt lat="36.996678980067372" lon="-3.069981001317501">
        <ele>813.88999999999999</ele>
        <time>2025-05-12T10:07:20Z</time>
      </trkpt>
      <trkpt lat="36.996690966188908" lon="-3.069903971627355">
        <ele>813.88999999999999</ele>
        <time>2025-05-12T10:07:21Z</time>
      </trkpt>
      <trkpt lat="36.996707981452346" lon="-3.069828031584621">
        <ele>814.37</ele>
        <time>2025-05-12T10:07:22Z</time>
      </trkpt>
      <trkpt lat="36.996723990887403" lon="-3.069748990237713">
        <ele>814.37</ele>
        <time>2025-05-12T10:07:23Z</time>
      </trkpt>
      <trkpt lat="36.996850976720452" lon="-3.069363003596664">
        <ele>815.34000000000003</ele>
        <time>2025-05-12T10:07:28Z</time>
      </trkpt>
      <trkpt lat="36.99688701890409" lon="-3.069278011098504">
        <ele>815.82000000000005</ele>
        <time>2025-05-12T10:07:29Z</time>
      </trkpt>
      <trkpt lat="36.996924988925457" lon="-3.069188995286822">
        <ele>816.29999999999995</ele>
        <time>2025-05-12T10:07:30Z</time>
      </trkpt>
      <trkpt lat="36.996975028887391" lon="-3.069068966433406">
        <ele>816.77999999999997</ele>
        <time>2025-05-12T10:07:31Z</time>
      </trkpt>
      <trkpt lat="36.997033031657338" lon="-3.069011969491839">
        <ele>817.74000000000001</ele>
        <time>2025-05-12T10:07:32Z</time>
      </trkpt>
      <trkpt lat="36.997106038033962" lon="-3.068938963115215">
        <ele>818.22000000000003</ele>
        <time>2025-05-12T10:07:33Z</time>
      </trkpt>
      <trkpt lat="36.997186001390219" lon="-3.068885989487171">
        <ele>819.17999999999995</ele>
        <time>2025-05-12T10:07:34Z</time>
      </trkpt>
      <trkpt lat="36.997268982231617" lon="-3.068839972838759">
        <ele>819.65999999999997</ele>
        <time>2025-05-12T10:07:35Z</time>
      </trkpt>
      <trkpt lat="36.99736101552844" lon="-3.068808037787676">
        <ele>820.62</ele>
        <time>2025-05-12T10:07:36Z</time>
      </trkpt>
      <trkpt lat="36.997454976662993" lon="-3.06879797950387">
        <ele>821.58000000000004</ele>
        <time>2025-05-12T10:07:37Z</time>
      </trkpt>
      <trkpt lat="36.997541980817914" lon="-3.068790016695857">
        <ele>822.54999999999995</ele>
        <time>2025-05-12T10:07:38Z</time>
      </trkpt>
      <trkpt lat="36.997623033821583" lon="-3.068781970068812">
        <ele>823.50999999999999</ele>
        <time>2025-05-12T10:07:39Z</time>
      </trkpt>
      <trkpt lat="36.997707020491362" lon="-3.068773001432419">
        <ele>824.47000000000003</ele>
        <time>2025-05-12T10:07:40Z</time>
      </trkpt>
      <trkpt lat="36.997797964140773" lon="-3.068791022524238">
        <ele>825.42999999999995</ele>
        <time>2025-05-12T10:07:41Z</time>
      </trkpt>
      <trkpt lat="36.997870970517397" lon="-3.068823963403702">
        <ele>825.90999999999997</ele>
        <time>2025-05-12T10:07:42Z</time>
      </trkpt>
      <trkpt lat="36.99824103154242" lon="-3.069005012512207">
        <ele>828.30999999999995</ele>
        <time>2025-05-12T10:07:47Z</time>
      </trkpt>
      <trkpt lat="36.998333986848593" lon="-3.069048011675477">
        <ele>828.78999999999996</ele>
        <time>2025-05-12T10:07:48Z</time>
      </trkpt>
      <trkpt lat="36.99854495935142" lon="-3.069066032767296">
        <ele>829.26999999999998</ele>
        <time>2025-05-12T10:07:50Z</time>
      </trkpt>
      <trkpt lat="36.998740006238222" lon="-3.069035019725561">
        <ele>829.26999999999998</ele>
        <time>2025-05-12T10:07:52Z</time>
      </trkpt>
      <trkpt lat="36.998813012614846" lon="-3.068982968106866">
        <ele>828.78999999999996</ele>
        <time>2025-05-12T10:07:53Z</time>
      </trkpt>
      <trkpt lat="36.998866992071271" lon="-3.068907028064132">
        <ele>829.26999999999998</ele>
        <time>2025-05-12T10:07:54Z</time>
      </trkpt>
      <trkpt lat="36.998894987627864" lon="-3.068812983110547">
        <ele>829.26999999999998</ele>
        <time>2025-05-12T10:07:55Z</time>
      </trkpt>
      <trkpt lat="36.998926000669599" lon="-3.068710975348949">
        <ele>829.26999999999998</ele>
        <time>2025-05-12T10:07:56Z</time>
      </trkpt>
      <trkpt lat="36.998982997611165" lon="-3.068612990900874">
        <ele>828.78999999999996</ele>
        <time>2025-05-12T10:07:57Z</time>
      </trkpt>
      <trkpt lat="36.99905700981617" lon="-3.068490028381348">
        <ele>828.78999999999996</ele>
        <time>2025-05-12T10:07:58Z</time>
      </trkpt>
      <trkpt lat="36.999146025627851" lon="-3.068428002297878">
        <ele>828.30999999999995</ele>
        <time>2025-05-12T10:07:59Z</time>
      </trkpt>
      <trkpt lat="36.999247027561069" lon="-3.068357007578015">
        <ele>827.83000000000004</ele>
        <time>2025-05-12T10:08:00Z</time>
      </trkpt>
      <trkpt lat="36.999346017837524" lon="-3.068288024514914">
        <ele>827.83000000000004</ele>
        <time>2025-05-12T10:08:01Z</time>
      </trkpt>
      <trkpt lat="36.9994440022856" lon="-3.068219041451812">
        <ele>827.35000000000002</ele>
        <time>2025-05-12T10:08:02Z</time>
      </trkpt>
      <trkpt lat="36.999526983126998" lon="-3.068115022033453">
        <ele>827.35000000000002</ele>
        <time>2025-05-12T10:08:03Z</time>
      </trkpt>
      <trkpt lat="36.999594960361719" lon="-3.067993987351656">
        <ele>826.87</ele>
        <time>2025-05-12T10:08:04Z</time>
      </trkpt>
      <trkpt lat="36.999661009758711" lon="-3.06787496432662">
        <ele>826.87</ele>
        <time>2025-05-12T10:08:05Z</time>
      </trkpt>
      <trkpt lat="36.999729992821813" lon="-3.067778991535306">
        <ele>826.38999999999999</ele>
        <time>2025-05-12T10:08:06Z</time>
      </trkpt>
      <trkpt lat="36.99980802834034" lon="-3.067714031785727">
        <ele>826.38999999999999</ele>
        <time>2025-05-12T10:08:07Z</time>
      </trkpt>
      <trkpt lat="36.999901989474893" lon="-3.067691987380385">
        <ele>825.90999999999997</ele>
        <time>2025-05-12T10:08:08Z</time>
      </trkpt>
      <trkpt lat="37.000011960044503" lon="-3.067685030400753">
        <ele>825.42999999999995</ele>
        <time>2025-05-12T10:08:09Z</time>
      </trkpt>
      <trkpt lat="37.000128971412778" lon="-3.06767899543047">
        <ele>824.95000000000005</ele>
        <time>2025-05-12T10:08:10Z</time>
      </trkpt>
      <trkpt lat="37.000243971124291" lon="-3.067668015137315">
        <ele>824.47000000000003</ele>
        <time>2025-05-12T10:08:11Z</time>
      </trkpt>
      <trkpt lat="37.000353019684553" lon="-3.067652005702257">
        <ele>823.99000000000001</ele>
        <time>2025-05-12T10:08:12Z</time>
      </trkpt>
      <trkpt lat="37.000451004132628" lon="-3.067638007923961">
        <ele>823.50999999999999</ele>
        <time>2025-05-12T10:08:13Z</time>
      </trkpt>
      <trkpt lat="37.000527027994394" lon="-3.067582016810775">
        <ele>823.02999999999997</ele>
        <time>2025-05-12T10:08:14Z</time>
      </trkpt>
      <trkpt lat="37.000585030764341" lon="-3.067496018484235">
        <ele>822.05999999999995</ele>
        <time>2025-05-12T10:08:15Z</time>
      </trkpt>
      <trkpt lat="37.000618977472186" lon="-3.067416977137327">
        <ele>821.58000000000004</ele>
        <time>2025-05-12T10:08:16Z</time>
      </trkpt>
      <trkpt lat="37.000600034371018" lon="-3.067323016002774">
        <ele>821.10000000000002</ele>
        <time>2025-05-12T10:08:17Z</time>
      </trkpt>
      <trkpt lat="37.000572960823774" lon="-3.067218996584415">
        <ele>820.13999999999999</ele>
        <time>2025-05-12T10:08:18Z</time>
      </trkpt>
      <trkpt lat="37.000484028831124" lon="-3.067154958844185">
        <ele>820.13999999999999</ele>
        <time>2025-05-12T10:08:19Z</time>
      </trkpt>
      <trkpt lat="37.000382021069527" lon="-3.067082036286593">
        <ele>820.13999999999999</ele>
        <time>2025-05-12T10:08:20Z</time>
      </trkpt>
      <trkpt lat="37.000123020261526" lon="-3.066952032968402">
        <ele>820.62</ele>
        <time>2025-05-12T10:08:22Z</time>
      </trkpt>
      <trkpt lat="36.999978013336658" lon="-3.066920014098287">
        <ele>820.62</ele>
        <time>2025-05-12T10:08:23Z</time>
      </trkpt>
      <trkpt lat="36.99983099475503" lon="-3.066910039633513">
        <ele>820.62</ele>
        <time>2025-05-12T10:08:24Z</time>
      </trkpt>
      <trkpt lat="36.99968196451664" lon="-3.066901993006468">
        <ele>821.10000000000002</ele>
        <time>2025-05-12T10:08:25Z</time>
      </trkpt>
      <trkpt lat="36.999538969248533" lon="-3.066901993006468">
        <ele>821.10000000000002</ele>
        <time>2025-05-12T10:08:26Z</time>
      </trkpt>
      <trkpt lat="36.999413995072246" lon="-3.066901993006468">
        <ele>821.58000000000004</ele>
        <time>2025-05-12T10:08:27Z</time>
      </trkpt>
      <trkpt lat="36.999307963997126" lon="-3.066838961094618">
        <ele>822.05999999999995</ele>
        <time>2025-05-12T10:08:28Z</time>
      </trkpt>
      <trkpt lat="36.99920897372067" lon="-3.066752040758729">
        <ele>823.50999999999999</ele>
        <time>2025-05-12T10:08:29Z</time>
      </trkpt>
      <trkpt lat="36.999134961515665" lon="-3.066609967499971">
        <ele>824.47000000000003</ele>
        <time>2025-05-12T10:08:30Z</time>
      </trkpt>
      <trkpt lat="36.999077964574099" lon="-3.066473007202148">
        <ele>825.90999999999997</ele>
        <time>2025-05-12T10:08:31Z</time>
      </trkpt>
      <trkpt lat="36.999039994552732" lon="-3.066266980022192">
        <ele>826.87</ele>
        <time>2025-05-12T10:08:32Z</time>
      </trkpt>
      <trkpt lat="36.999003030359745" lon="-3.066066987812519">
        <ele>827.83000000000004</ele>
        <time>2025-05-12T10:08:33Z</time>
      </trkpt>
      <trkpt lat="36.99897101148963" lon="-3.065893985331059">
        <ele>828.78999999999996</ele>
        <time>2025-05-12T10:08:34Z</time>
      </trkpt>
      <trkpt lat="36.998893981799483" lon="-3.065692987293005">
        <ele>829.75999999999999</ele>
        <time>2025-05-12T10:08:35Z</time>
      </trkpt>
      <trkpt lat="36.998811000958085" lon="-3.065529959276319">
        <ele>830.72000000000003</ele>
        <time>2025-05-12T10:08:36Z</time>
      </trkpt>
      <trkpt lat="36.998726008459926" lon="-3.065376989543438">
        <ele>832.15999999999997</ele>
        <time>2025-05-12T10:08:37Z</time>
      </trkpt>
      <trkpt lat="36.998661970719695" lon="-3.065238017588854">
        <ele>833.12</ele>
        <time>2025-05-12T10:08:38Z</time>
      </trkpt>
      <trkpt lat="36.998616959899664" lon="-3.065092004835606">
        <ele>834.08000000000004</ele>
        <time>2025-05-12T10:08:39Z</time>
      </trkpt>
      <trkpt lat="36.998568009585142" lon="-3.064743988215923">
        <ele>836</ele>
        <time>2025-05-12T10:08:41Z</time>
      </trkpt>
      <trkpt lat="36.998545965179801" lon="-3.064574003219605">
        <ele>836.96000000000004</ele>
        <time>2025-05-12T10:08:42Z</time>
      </trkpt>
      <trkpt lat="36.998527022078633" lon="-3.064421033486724">
        <ele>837.92999999999995</ele>
        <time>2025-05-12T10:08:43Z</time>
      </trkpt>
      <trkpt lat="36.998507995158434" lon="-3.064269991591573">
        <ele>838.88999999999999</ele>
        <time>2025-05-12T10:08:44Z</time>
      </trkpt>
      <trkpt lat="36.998510006815195" lon="-3.064104029908776">
        <ele>839.85000000000002</ele>
        <time>2025-05-12T10:08:45Z</time>
      </trkpt>
      <trkpt lat="36.998531967401505" lon="-3.06391904130578">
        <ele>840.80999999999995</ele>
        <time>2025-05-12T10:08:46Z</time>
      </trkpt>
      <trkpt lat="36.998599022626877" lon="-3.063133992254734">
        <ele>843.21000000000004</ele>
        <time>2025-05-12T10:08:50Z</time>
      </trkpt>
      <trkpt lat="36.998574966564775" lon="-3.062941962853074">
        <ele>843.21000000000004</ele>
        <time>2025-05-12T10:08:51Z</time>
      </trkpt>
      <trkpt lat="36.998549988493323" lon="-3.06273995898664">
        <ele>843.69000000000005</ele>
        <time>2025-05-12T10:08:52Z</time>
      </trkpt>
      <trkpt lat="36.99834999628365" lon="-3.061946025118232">
        <ele>843.69000000000005</ele>
        <time>2025-05-12T10:08:56Z</time>
      </trkpt>
      <trkpt lat="36.99828403070569" lon="-3.061785008758307">
        <ele>843.69000000000005</ele>
        <time>2025-05-12T10:08:57Z</time>
      </trkpt>
      <trkpt lat="36.998186968266964" lon="-3.061689035966992">
        <ele>843.21000000000004</ele>
        <time>2025-05-12T10:08:58Z</time>
      </trkpt>
      <trkpt lat="36.998086972162127" lon="-3.061652993783355">
        <ele>843.21000000000004</ele>
        <time>2025-05-12T10:08:59Z</time>
      </trkpt>
      <trkpt lat="36.99798597022891" lon="-3.061615023761988">
        <ele>843.21000000000004</ele>
        <time>2025-05-12T10:09:00Z</time>
      </trkpt>
      <trkpt lat="36.997880022972822" lon="-3.061576969921589">
        <ele>843.69000000000005</ele>
        <time>2025-05-12T10:09:01Z</time>
      </trkpt>
      <trkpt lat="36.997785978019238" lon="-3.06151201017201">
        <ele>844.17999999999995</ele>
        <time>2025-05-12T10:09:02Z</time>
      </trkpt>
      <trkpt lat="36.997682964429259" lon="-3.061408996582031">
        <ele>844.65999999999997</ele>
        <time>2025-05-12T10:09:03Z</time>
      </trkpt>
      <trkpt lat="36.997603001073003" lon="-3.061287961900234">
        <ele>844.65999999999997</ele>
        <time>2025-05-12T10:09:04Z</time>
      </trkpt>
      <trkpt lat="36.997493030503392" lon="-3.061158964410424">
        <ele>845.62</ele>
        <time>2025-05-12T10:09:05Z</time>
      </trkpt>
      <trkpt lat="36.997364033013582" lon="-3.061038013547659">
        <ele>846.10000000000002</ele>
        <time>2025-05-12T10:09:06Z</time>
      </trkpt>
      <trkpt lat="36.997094973921776" lon="-3.060858976095915">
        <ele>846.58000000000004</ele>
        <time>2025-05-12T10:09:08Z</time>
      </trkpt>
      <trkpt lat="36.996968993917108" lon="-3.060807008296251">
        <ele>847.05999999999995</ele>
        <time>2025-05-12T10:09:09Z</time>
      </trkpt>
      <trkpt lat="36.99684401974082" lon="-3.060771971940994">
        <ele>847.53999999999996</ele>
        <time>2025-05-12T10:09:10Z</time>
      </trkpt>
      <trkpt lat="36.996703958138824" lon="-3.060812959447503">
        <ele>848.01999999999998</ele>
        <time>2025-05-12T10:09:11Z</time>
      </trkpt>
      <trkpt lat="36.996556017547846" lon="-3.060855958610773">
        <ele>848.5</ele>
        <time>2025-05-12T10:09:12Z</time>
      </trkpt>
      <trkpt lat="36.996405981481075" lon="-3.060899041593075">
        <ele>848.98000000000002</ele>
        <time>2025-05-12T10:09:13Z</time>
      </trkpt>
      <trkpt lat="36.996259968727827" lon="-3.060942040756345">
        <ele>849.46000000000004</ele>
        <time>2025-05-12T10:09:14Z</time>
      </trkpt>
      <trkpt lat="36.996122002601624" lon="-3.060957966372371">
        <ele>850.41999999999996</ele>
        <time>2025-05-12T10:09:15Z</time>
      </trkpt>
      <trkpt lat="36.995987975969911" lon="-3.060957966372371">
        <ele>850.89999999999998</ele>
        <time>2025-05-12T10:09:16Z</time>
      </trkpt>
      <trkpt lat="36.995886974036694" lon="-3.060898035764694">
        <ele>852.35000000000002</ele>
        <time>2025-05-12T10:09:17Z</time>
      </trkpt>
      <trkpt lat="36.995807010680437" lon="-3.060788987204433">
        <ele>853.78999999999996</ele>
        <time>2025-05-12T10:09:18Z</time>
      </trkpt>
      <trkpt lat="36.995730986818671" lon="-3.060679016634822">
        <ele>854.75</ele>
        <time>2025-05-12T10:09:19Z</time>
      </trkpt>
      <trkpt lat="36.995723024010658" lon="-3.06054599583149">
        <ele>855.71000000000004</ele>
        <time>2025-05-12T10:09:20Z</time>
      </trkpt>
      <trkpt lat="36.995713971555233" lon="-3.060408029705286">
        <ele>856.66999999999996</ele>
        <time>2025-05-12T10:09:21Z</time>
      </trkpt>
      <trkpt lat="36.995686981827021" lon="-3.060292024165392">
        <ele>857.63</ele>
        <time>2025-05-12T10:09:22Z</time>
      </trkpt>
      <trkpt lat="36.995647000148892" lon="-3.060210971161723">
        <ele>858.59000000000003</ele>
        <time>2025-05-12T10:09:23Z</time>
      </trkpt>
      <trkpt lat="36.995590003207326" lon="-3.060151962563396">
        <ele>859.55999999999995</ele>
        <time>2025-05-12T10:09:24Z</time>
      </trkpt>
      <trkpt lat="36.995507022365928" lon="-3.060121033340693">
        <ele>861</ele>
        <time>2025-05-12T10:09:25Z</time>
      </trkpt>
      <trkpt lat="36.995407026261091" lon="-3.060113992542028">
        <ele>861.96000000000004</ele>
        <time>2025-05-12T10:09:26Z</time>
      </trkpt>
      <trkpt lat="36.995300995185971" lon="-3.060146011412144">
        <ele>862.44000000000005</ele>
        <time>2025-05-12T10:09:27Z</time>
      </trkpt>
      <trkpt lat="36.995197981595993" lon="-3.060178030282259">
        <ele>863.39999999999998</ele>
        <time>2025-05-12T10:09:28Z</time>
      </trkpt>
      <trkpt lat="36.995110977441072" lon="-3.060177024453878">
        <ele>864.36000000000001</ele>
        <time>2025-05-12T10:09:29Z</time>
      </trkpt>
      <trkpt lat="36.995022967457771" lon="-3.060164032503963">
        <ele>865.32000000000005</ele>
        <time>2025-05-12T10:09:30Z</time>
      </trkpt>
      <trkpt lat="36.99497502297163" lon="-3.060056995600462">
        <ele>865.79999999999995</ele>
        <time>2025-05-12T10:09:31Z</time>
      </trkpt>
      <trkpt lat="36.994919031858444" lon="-3.059931015595794">
        <ele>867.25</ele>
        <time>2025-05-12T10:09:32Z</time>
      </trkpt>
      <trkpt lat="36.994859017431736" lon="-3.059796988964081">
        <ele>868.21000000000004</ele>
        <time>2025-05-12T10:09:33Z</time>
      </trkpt>
      <trkpt lat="36.994801014661789" lon="-3.059664973989129">
        <ele>869.16999999999996</ele>
        <time>2025-05-12T10:09:34Z</time>
      </trkpt>
      <trkpt lat="36.994764972478151" lon="-3.059547962620854">
        <ele>870.13</ele>
        <time>2025-05-12T10:09:35Z</time>
      </trkpt>
      <trkpt lat="36.994764972478151" lon="-3.059432040899992">
        <ele>871.09000000000003</ele>
        <time>2025-05-12T10:09:36Z</time>
      </trkpt>
      <trkpt lat="36.994764972478151" lon="-3.059328021481633">
        <ele>872.04999999999995</ele>
        <time>2025-05-12T10:09:37Z</time>
      </trkpt>
      <trkpt lat="36.994814006611705" lon="-3.059205980971456">
        <ele>872.52999999999997</ele>
        <time>2025-05-12T10:09:38Z</time>
      </trkpt>
      <trkpt lat="36.994850970804691" lon="-3.059113025665283">
        <ele>873.5</ele>
        <time>2025-05-12T10:09:39Z</time>
      </trkpt>
      <trkpt lat="36.994923977181315" lon="-3.059040019288659">
        <ele>873.98000000000002</ele>
        <time>2025-05-12T10:09:40Z</time>
      </trkpt>
      <trkpt lat="36.995021961629391" lon="-3.058942034840584">
        <ele>875.41999999999996</ele>
        <time>2025-05-12T10:09:41Z</time>
      </trkpt>
      <trkpt lat="36.995261013507843" lon="-3.058732990175486">
        <ele>876.86000000000001</ele>
        <time>2025-05-12T10:09:43Z</time>
      </trkpt>
      <trkpt lat="36.995511967688799" lon="-3.05859100073576">
        <ele>879.25999999999999</ele>
        <time>2025-05-12T10:09:45Z</time>
      </trkpt>
      <trkpt lat="36.995596038177609" lon="-3.058488992974162">
        <ele>880.22000000000003</ele>
        <time>2025-05-12T10:09:46Z</time>
      </trkpt>
      <trkpt lat="36.995670972391963" lon="-3.058361001312733">
        <ele>881.19000000000005</ele>
        <time>2025-05-12T10:09:47Z</time>
      </trkpt>
      <trkpt lat="36.995698967948556" lon="-3.05820400826633">
        <ele>882.14999999999998</ele>
        <time>2025-05-12T10:09:48Z</time>
      </trkpt>
      <trkpt lat="36.995696034282446" lon="-3.058056989684701">
        <ele>883.11000000000001</ele>
        <time>2025-05-12T10:09:49Z</time>
      </trkpt>
      <trkpt lat="36.995676001533866" lon="-3.057913994416595">
        <ele>884.07000000000005</ele>
        <time>2025-05-12T10:09:50Z</time>
      </trkpt>
      <trkpt lat="36.995638031512499" lon="-3.057802012190223">
        <ele>884.54999999999995</ele>
        <time>2025-05-12T10:09:51Z</time>
      </trkpt>
      <trkpt lat="36.995567036792636" lon="-3.057687012478709">
        <ele>885.02999999999997</ele>
        <time>2025-05-12T10:09:52Z</time>
      </trkpt>
      <trkpt lat="36.995493024587631" lon="-3.057566983625293">
        <ele>885.50999999999999</ele>
        <time>2025-05-12T10:09:53Z</time>
      </trkpt>
      <trkpt lat="36.995418006554246" lon="-3.057447038590908">
        <ele>885.99000000000001</ele>
        <time>2025-05-12T10:09:54Z</time>
      </trkpt>
      <trkpt lat="36.995348017662764" lon="-3.057333966717124">
        <ele>886.95000000000005</ele>
        <time>2025-05-12T10:09:55Z</time>
      </trkpt>
      <trkpt lat="36.995280040428042" lon="-3.0572160333395">
        <ele>887.42999999999995</ele>
        <time>2025-05-12T10:09:56Z</time>
      </trkpt>
      <trkpt lat="36.995266964659095" lon="-3.057055016979575">
        <ele>888.39999999999998</ele>
        <time>2025-05-12T10:09:57Z</time>
      </trkpt>
      <trkpt lat="36.995252966880798" lon="-3.056882014498115">
        <ele>888.88</ele>
        <time>2025-05-12T10:09:58Z</time>
      </trkpt>
      <trkpt lat="36.995237041264772" lon="-3.056687973439694">
        <ele>889.84000000000003</ele>
        <time>2025-05-12T10:09:59Z</time>
      </trkpt>
      <trkpt lat="36.995251961052418" lon="-3.05648404173553">
        <ele>890.79999999999995</ele>
        <time>2025-05-12T10:10:00Z</time>
      </trkpt>
      <trkpt lat="36.995395962148905" lon="-3.055212004110217">
        <ele>898.00999999999999</ele>
        <time>2025-05-12T10:10:06Z</time>
      </trkpt>
      <trkpt lat="36.995468968525529" lon="-3.055064985528588">
        <ele>898.97000000000003</ele>
        <time>2025-05-12T10:10:07Z</time>
      </trkpt>
      <trkpt lat="36.995539041236043" lon="-3.054927019402385">
        <ele>900.40999999999997</ele>
        <time>2025-05-12T10:10:08Z</time>
      </trkpt>
      <trkpt lat="36.995606012642384" lon="-3.054803973063827">
        <ele>901.85000000000002</ele>
        <time>2025-05-12T10:10:09Z</time>
      </trkpt>
      <trkpt lat="36.995666027069092" lon="-3.054688973352313">
        <ele>902.82000000000005</ele>
        <time>2025-05-12T10:10:10Z</time>
      </trkpt>
      <trkpt lat="36.995640965178609" lon="-3.054566010832787">
        <ele>903.77999999999997</ele>
        <time>2025-05-12T10:10:11Z</time>
      </trkpt>
      <trkpt lat="36.995614981278777" lon="-3.054433995857835">
        <ele>905.22000000000003</ele>
        <time>2025-05-12T10:10:12Z</time>
      </trkpt>
      <trkpt lat="36.995590003207326" lon="-3.054309021681547">
        <ele>906.17999999999995</ele>
        <time>2025-05-12T10:10:13Z</time>
      </trkpt>
      <trkpt lat="36.995591009035707" lon="-3.054188992828131">
        <ele>907.13999999999999</ele>
        <time>2025-05-12T10:10:14Z</time>
      </trkpt>
      <trkpt lat="36.995610035955906" lon="-3.054051026701927">
        <ele>908.10000000000002</ele>
        <time>2025-05-12T10:10:15Z</time>
      </trkpt>
      <trkpt lat="36.995628979057074" lon="-3.053905013948679">
        <ele>908.58000000000004</ele>
        <time>2025-05-12T10:10:16Z</time>
      </trkpt>
      <trkpt lat="36.99562001042068" lon="-3.053752966225147">
        <ele>909.05999999999995</ele>
        <time>2025-05-12T10:10:17Z</time>
      </trkpt>
      <trkpt lat="36.995545998215675" lon="-3.053637966513634">
        <ele>909.53999999999996</ele>
        <time>2025-05-12T10:10:18Z</time>
      </trkpt>
      <trkpt lat="36.995468968525529" lon="-3.053517015650868">
        <ele>910.50999999999999</ele>
        <time>2025-05-12T10:10:19Z</time>
      </trkpt>
      <trkpt lat="36.995337959378958" lon="-3.053459012880921">
        <ele>910.50999999999999</ele>
        <time>2025-05-12T10:10:20Z</time>
      </trkpt>
      <trkpt lat="36.995220026001334" lon="-3.053448032587767">
        <ele>910.50999999999999</ele>
        <time>2025-05-12T10:10:21Z</time>
      </trkpt>
      <trkpt lat="36.995113994926214" lon="-3.053448032587767">
        <ele>910.50999999999999</ele>
        <time>2025-05-12T10:10:22Z</time>
      </trkpt>
      <trkpt lat="36.995022967457771" lon="-3.053448032587767">
        <ele>910.99000000000001</ele>
        <time>2025-05-12T10:10:23Z</time>
      </trkpt>
      <trkpt lat="36.994963036850095" lon="-3.053388018161058">
        <ele>911.47000000000003</ele>
        <time>2025-05-12T10:10:24Z</time>
      </trkpt>
      <trkpt lat="36.99493202380836" lon="-3.053332027047873">
        <ele>911.47000000000003</ele>
        <time>2025-05-12T10:10:25Z</time>
      </trkpt>
      <trkpt lat="36.994916014373302" lon="-3.053233958780766">
        <ele>911.95000000000005</ele>
        <time>2025-05-12T10:10:26Z</time>
      </trkpt>
      <trkpt lat="36.994946021586657" lon="-3.053158018738031">
        <ele>912.42999999999995</ele>
        <time>2025-05-12T10:10:27Z</time>
      </trkpt>
      <trkpt lat="36.994987009093165" lon="-3.053116025403142">
        <ele>912.90999999999997</ele>
        <time>2025-05-12T10:10:28Z</time>
      </trkpt>
      <trkpt lat="36.995066972449422" lon="-3.053086018189788">
        <ele>913.38999999999999</ele>
        <time>2025-05-12T10:10:29Z</time>
      </trkpt>
      <trkpt lat="36.995145007967949" lon="-3.053073026239872">
        <ele>914.35000000000002</ele>
        <time>2025-05-12T10:10:30Z</time>
      </trkpt>
      <trkpt lat="36.99523301795125" lon="-3.053136980161071">
        <ele>914.83000000000004</ele>
        <time>2025-05-12T10:10:31Z</time>
      </trkpt>
      <trkpt lat="36.995328990742564" lon="-3.053206969052553">
        <ele>915.78999999999996</ele>
        <time>2025-05-12T10:10:32Z</time>
      </trkpt>
      <trkpt lat="36.995635014027357" lon="-3.05345700122416">
        <ele>918.67999999999995</ele>
        <time>2025-05-12T10:10:35Z</time>
      </trkpt>
      <trkpt lat="36.995708020403981" lon="-3.053569989278913">
        <ele>919.63999999999999</ele>
        <time>2025-05-12T10:10:36Z</time>
      </trkpt>
      <trkpt lat="36.995781026780605" lon="-3.053683983162046">
        <ele>920.60000000000002</ele>
        <time>2025-05-12T10:10:37Z</time>
      </trkpt>
      <trkpt lat="36.995815979316831" lon="-3.053815998136997">
        <ele>921.55999999999995</ele>
        <time>2025-05-12T10:10:38Z</time>
      </trkpt>
      <trkpt lat="36.995842969045043" lon="-3.053955975919962">
        <ele>922.51999999999998</ele>
        <time>2025-05-12T10:10:39Z</time>
      </trkpt>
      <trkpt lat="36.995868030935526" lon="-3.054085979238153">
        <ele>923.48000000000002</ele>
        <time>2025-05-12T10:10:40Z</time>
      </trkpt>
      <trkpt lat="36.995899965986609" lon="-3.054195027798414">
        <ele>924.45000000000005</ele>
        <time>2025-05-12T10:10:41Z</time>
      </trkpt>
      <trkpt lat="36.995951011776924" lon="-3.054296029731631">
        <ele>924.92999999999995</ele>
        <time>2025-05-12T10:10:42Z</time>
      </trkpt>
      <trkpt lat="36.996053019538522" lon="-3.054499961435795">
        <ele>926.37</ele>
        <time>2025-05-12T10:10:44Z</time>
      </trkpt>
      <trkpt lat="36.996071962639689" lon="-3.054632982239127">
        <ele>927.33000000000004</ele>
        <time>2025-05-12T10:10:45Z</time>
      </trkpt>
      <trkpt lat="36.996046984568238" lon="-3.05476700887084">
        <ele>927.80999999999995</ele>
        <time>2025-05-12T10:10:46Z</time>
      </trkpt>
      <trkpt lat="36.996012032032013" lon="-3.05491796694696">
        <ele>928.76999999999998</ele>
        <time>2025-05-12T10:10:47Z</time>
      </trkpt>
      <trkpt lat="36.995972972363234" lon="-3.055082000792027">
        <ele>929.73000000000002</ele>
        <time>2025-05-12T10:10:48Z</time>
      </trkpt>
      <trkpt lat="36.995933996513486" lon="-3.055249974131584">
        <ele>930.69000000000005</ele>
        <time>2025-05-12T10:10:49Z</time>
      </trkpt>
      <trkpt lat="36.995939025655389" lon="-3.055425994098187">
        <ele>931.64999999999998</ele>
        <time>2025-05-12T10:10:50Z</time>
      </trkpt>
      <trkpt lat="36.995956040918827" lon="-3.055586004629731">
        <ele>932.13999999999999</ele>
        <time>2025-05-12T10:10:51Z</time>
      </trkpt>
      <trkpt lat="36.995978001505136" lon="-3.055739980190992">
        <ele>933.10000000000002</ele>
        <time>2025-05-12T10:10:52Z</time>
      </trkpt>
      <trkpt lat="36.996004991233349" lon="-3.055888004601002">
        <ele>934.05999999999995</ele>
        <time>2025-05-12T10:10:53Z</time>
      </trkpt>
      <trkpt lat="36.995972972363234" lon="-3.056037034839392">
        <ele>935.01999999999998</ele>
        <time>2025-05-12T10:10:54Z</time>
      </trkpt>
      <trkpt lat="36.995928967371583" lon="-3.056180030107498">
        <ele>935.98000000000002</ele>
        <time>2025-05-12T10:10:55Z</time>
      </trkpt>
      <trkpt lat="36.995859984308481" lon="-3.056409023702145">
        <ele>937.41999999999996</ele>
        <time>2025-05-12T10:10:57Z</time>
      </trkpt>
      <trkpt lat="36.9958780054003" lon="-3.056538021191955">
        <ele>938.38</ele>
        <time>2025-05-12T10:10:58Z</time>
      </trkpt>
      <trkpt lat="36.99592100456357" lon="-3.056618990376592">
        <ele>938.86000000000001</ele>
        <time>2025-05-12T10:10:59Z</time>
      </trkpt>
      <trkpt lat="36.995987975969911" lon="-3.056696020066738">
        <ele>939.35000000000002</ele>
        <time>2025-05-12T10:11:00Z</time>
      </trkpt>
      <trkpt lat="36.996087972074747" lon="-3.056731978431344">
        <ele>940.30999999999995</ele>
        <time>2025-05-12T10:11:01Z</time>
      </trkpt>
      <trkpt lat="36.996188974007964" lon="-3.056769026443362">
        <ele>941.26999999999998</ele>
        <time>2025-05-12T10:11:02Z</time>
      </trkpt>
      <trkpt lat="36.996289975941181" lon="-3.056737007573247">
        <ele>941.75</ele>
        <time>2025-05-12T10:11:03Z</time>
      </trkpt>
      <trkpt lat="36.996402963995934" lon="-3.056689985096455">
        <ele>942.71000000000004</ele>
        <time>2025-05-12T10:11:04Z</time>
      </trkpt>
      <trkpt lat="36.996525004506111" lon="-3.056638017296791">
        <ele>943.19000000000005</ele>
        <time>2025-05-12T10:11:05Z</time>
      </trkpt>
      <trkpt lat="36.996785011142492" lon="-3.056518994271755">
        <ele>944.63</ele>
        <time>2025-05-12T10:11:07Z</time>
      </trkpt>
      <trkpt lat="36.996910991147161" lon="-3.056417992338538">
        <ele>945.59000000000003</ele>
        <time>2025-05-12T10:11:08Z</time>
      </trkpt>
      <trkpt lat="36.99703898280859" lon="-3.056315984576941">
        <ele>946.07000000000005</ele>
        <time>2025-05-12T10:11:09Z</time>
      </trkpt>
      <trkpt lat="36.997157000005245" lon="-3.056196961551905">
        <ele>946.55999999999995</ele>
        <time>2025-05-12T10:11:10Z</time>
      </trkpt>
      <trkpt lat="36.997264958918095" lon="-3.056075004860759">
        <ele>947.51999999999998</ele>
        <time>2025-05-12T10:11:11Z</time>
      </trkpt>
      <trkpt lat="36.997481966391206" lon="-3.055879035964608">
        <ele>948.96000000000004</ele>
        <time>2025-05-12T10:11:13Z</time>
      </trkpt>
      <trkpt lat="36.997604006901383" lon="-3.055843999609351">
        <ele>949.91999999999996</ele>
        <time>2025-05-12T10:11:14Z</time>
      </trkpt>
      <trkpt lat="36.997728981077671" lon="-3.055808041244745">
        <ele>950.88</ele>
        <time>2025-05-12T10:11:15Z</time>
      </trkpt>
      <trkpt lat="36.997839035466313" lon="-3.055777028203011">
        <ele>951.84000000000003</ele>
        <time>2025-05-12T10:11:16Z</time>
      </trkpt>
      <trkpt lat="36.997902989387512" lon="-3.055722964927554">
        <ele>952.32000000000005</ele>
        <time>2025-05-12T10:11:17Z</time>
      </trkpt>
      <trkpt lat="36.997951017692685" lon="-3.05564702488482">
        <ele>953.27999999999997</ele>
        <time>2025-05-12T10:11:18Z</time>
      </trkpt>
      <trkpt lat="36.997977001592517" lon="-3.055552979931235">
        <ele>954.25</ele>
        <time>2025-05-12T10:11:19Z</time>
      </trkpt>
      <trkpt lat="36.99794003739953" lon="-3.055448038503528">
        <ele>955.21000000000004</ele>
        <time>2025-05-12T10:11:20Z</time>
      </trkpt>
      <trkpt lat="36.997854961082339" lon="-3.055378971621394">
        <ele>956.16999999999996</ele>
        <time>2025-05-12T10:11:21Z</time>
      </trkpt>
      <trkpt lat="36.997749013826251" lon="-3.055354999378324">
        <ele>956.64999999999998</ele>
        <time>2025-05-12T10:11:22Z</time>
      </trkpt>
      <trkpt lat="36.997636025771499" lon="-3.055328009650111">
        <ele>957.13</ele>
        <time>2025-05-12T10:11:23Z</time>
      </trkpt>
      <trkpt lat="36.997251966968179" lon="-3.055281993001699">
        <ele>958.57000000000005</ele>
        <time>2025-05-12T10:11:26Z</time>
      </trkpt>
      <trkpt lat="36.997061027213931" lon="-3.055272018536925">
        <ele>959.52999999999997</ele>
        <time>2025-05-12T10:11:28Z</time>
      </trkpt>
      <trkpt lat="36.996971005573869" lon="-3.055200017988682">
        <ele>960.49000000000001</ele>
        <time>2025-05-12T10:11:29Z</time>
      </trkpt>
      <trkpt lat="36.996942004188895" lon="-3.055116031318903">
        <ele>961.46000000000004</ele>
        <time>2025-05-12T10:11:30Z</time>
      </trkpt>
      <trkpt lat="36.996944015845656" lon="-3.055021986365318">
        <ele>962.41999999999996</ele>
        <time>2025-05-12T10:11:31Z</time>
      </trkpt>
      <trkpt lat="36.996983997523785" lon="-3.05489600636065">
        <ele>963.38</ele>
        <time>2025-05-12T10:11:32Z</time>
      </trkpt>
      <trkpt lat="36.997030014172196" lon="-3.054753011092544">
        <ele>964.34000000000003</ele>
        <time>2025-05-12T10:11:33Z</time>
      </trkpt>
      <trkpt lat="36.997105032205582" lon="-3.054521000012755">
        <ele>966.25999999999999</ele>
        <time>2025-05-12T10:11:35Z</time>
      </trkpt>
      <trkpt lat="36.99718901887536" lon="-3.054470960050821">
        <ele>967.22000000000003</ele>
        <time>2025-05-12T10:11:36Z</time>
      </trkpt>
      <trkpt lat="36.997279962524772" lon="-3.054452016949654">
        <ele>968.17999999999995</ele>
        <time>2025-05-12T10:11:37Z</time>
      </trkpt>
      <trkpt lat="36.997391022741795" lon="-3.054443970322609">
        <ele>969.14999999999998</ele>
        <time>2025-05-12T10:11:38Z</time>
      </trkpt>
      <trkpt lat="36.997499987483025" lon="-3.054436007514596">
        <ele>970.11000000000001</ele>
        <time>2025-05-12T10:11:39Z</time>
      </trkpt>
      <trkpt lat="36.997578023001552" lon="-3.054491998627782">
        <ele>971.07000000000005</ele>
        <time>2025-05-12T10:11:40Z</time>
      </trkpt>
      <trkpt lat="36.997679024934769" lon="-3.054579002782702">
        <ele>972.02999999999997</ele>
        <time>2025-05-12T10:11:41Z</time>
      </trkpt>
      <trkpt lat="36.997786983847618" lon="-3.054672963917255">
        <ele>972.50999999999999</ele>
        <time>2025-05-12T10:11:42Z</time>
      </trkpt>
      <trkpt lat="36.998123014345765" lon="-3.05496197193861">
        <ele>974.90999999999997</ele>
        <time>2025-05-12T10:11:45Z</time>
      </trkpt>
      <trkpt lat="36.998224016278982" lon="-3.055049981921911">
        <ele>975.38999999999999</ele>
        <time>2025-05-12T10:11:46Z</time>
      </trkpt>
      <trkpt lat="36.99832602404058" lon="-3.055137991905212">
        <ele>976.36000000000001</ele>
        <time>2025-05-12T10:11:47Z</time>
      </trkpt>
      <trkpt lat="36.998425014317036" lon="-3.055223990231752">
        <ele>976.84000000000003</ele>
        <time>2025-05-12T10:11:48Z</time>
      </trkpt>
      <trkpt lat="36.99852199293673" lon="-3.055306971073151">
        <ele>977.79999999999995</ele>
        <time>2025-05-12T10:11:49Z</time>
      </trkpt>
      <trkpt lat="36.998610002920032" lon="-3.055380983278155">
        <ele>978.75999999999999</ele>
        <time>2025-05-12T10:11:50Z</time>
      </trkpt>
      <trkpt lat="36.99871402233839" lon="-3.055422976613045">
        <ele>979.72000000000003</ele>
        <time>2025-05-12T10:11:51Z</time>
      </trkpt>
      <trkpt lat="36.998805971816182" lon="-3.055459018796682">
        <ele>980.67999999999995</ele>
        <time>2025-05-12T10:11:52Z</time>
      </trkpt>
      <trkpt lat="36.99888501316309" lon="-3.055433034896851">
        <ele>981.15999999999997</ele>
        <time>2025-05-12T10:11:53Z</time>
      </trkpt>
      <trkpt lat="36.998961959034204" lon="-3.055394981056452">
        <ele>982.12</ele>
        <time>2025-05-12T10:11:54Z</time>
      </trkpt>
      <trkpt lat="36.999000012874603" lon="-3.055323986336589">
        <ele>983.09000000000003</ele>
        <time>2025-05-12T10:11:55Z</time>
      </trkpt>
      <trkpt lat="36.99901501648128" lon="-3.055207980796695">
        <ele>983.57000000000005</ele>
        <time>2025-05-12T10:11:56Z</time>
      </trkpt>
      <trkpt lat="36.999034965410829" lon="-3.055058028548956">
        <ele>984.52999999999997</ele>
        <time>2025-05-12T10:11:57Z</time>
      </trkpt>
      <trkpt lat="36.999004958197474" lon="-3.05491796694696">
        <ele>985.49000000000001</ele>
        <time>2025-05-12T10:11:58Z</time>
      </trkpt>
      <trkpt lat="36.998805971816182" lon="-3.054084973409772">
        <ele>987.88999999999999</ele>
        <time>2025-05-12T10:12:03Z</time>
      </trkpt>
      <trkpt lat="36.998739000409842" lon="-3.053969973698258">
        <ele>988.37</ele>
        <time>2025-05-12T10:12:04Z</time>
      </trkpt>
      <trkpt lat="36.998648978769779" lon="-3.053892021998763">
        <ele>988.37</ele>
        <time>2025-05-12T10:12:05Z</time>
      </trkpt>
      <trkpt lat="36.998462984338403" lon="-3.053729999810457">
        <ele>989.33000000000004</ele>
        <time>2025-05-12T10:12:07Z</time>
      </trkpt>
      <trkpt lat="36.998411016538739" lon="-3.053621035069227">
        <ele>990.29999999999995</ele>
        <time>2025-05-12T10:12:08Z</time>
      </trkpt>
      <trkpt lat="36.99836902320385" lon="-3.053465969860554">
        <ele>990.77999999999997</ele>
        <time>2025-05-12T10:12:09Z</time>
      </trkpt>
      <trkpt lat="36.99819803237915" lon="-3.05270497687161">
        <ele>994.13999999999999</ele>
        <time>2025-05-12T10:12:13Z</time>
      </trkpt>
      <trkpt lat="36.99819803237915" lon="-3.052500039339066">
        <ele>995.10000000000002</ele>
        <time>2025-05-12T10:12:14Z</time>
      </trkpt>
      <trkpt lat="36.998238014057279" lon="-3.05133000947535">
        <ele>1001.35</ele>
        <time>2025-05-12T10:12:21Z</time>
      </trkpt>
      <trkpt lat="36.998273972421885" lon="-3.051218027248979">
        <ele>1002.3099999999999</ele>
        <time>2025-05-12T10:12:22Z</time>
      </trkpt>
      <trkpt lat="36.99832702986896" lon="-3.051151977851987">
        <ele>1002.79</ele>
        <time>2025-05-12T10:12:23Z</time>
      </trkpt>
      <trkpt lat="36.99843599461019" lon="-3.051128005608916">
        <ele>1003.75</ele>
        <time>2025-05-12T10:12:24Z</time>
      </trkpt>
      <trkpt lat="36.998545965179801" lon="-3.051108978688717">
        <ele>1004.72</ele>
        <time>2025-05-12T10:12:25Z</time>
      </trkpt>
      <trkpt lat="36.998674962669611" lon="-3.051108978688717">
        <ele>1005.2</ele>
        <time>2025-05-12T10:12:26Z</time>
      </trkpt>
      <trkpt lat="36.998803038150072" lon="-3.051108978688717">
        <ele>1006.16</ele>
        <time>2025-05-12T10:12:27Z</time>
      </trkpt>
      <trkpt lat="36.998931029811502" lon="-3.051053993403912">
        <ele>1006.64</ele>
        <time>2025-05-12T10:12:28Z</time>
      </trkpt>
      <trkpt lat="36.999034965410829" lon="-3.051002025604248">
        <ele>1007.6</ele>
        <time>2025-05-12T10:12:29Z</time>
      </trkpt>
      <trkpt lat="36.999131022021174" lon="-3.050867998972535">
        <ele>1008.08</ele>
        <time>2025-05-12T10:12:30Z</time>
      </trkpt>
      <trkpt lat="36.999191958457232" lon="-3.050732966512442">
        <ele>1009.04</ele>
        <time>2025-05-12T10:12:31Z</time>
      </trkpt>
      <trkpt lat="36.99925297871232" lon="-3.050586031749845">
        <ele>1010</ele>
        <time>2025-05-12T10:12:32Z</time>
      </trkpt>
      <trkpt lat="36.999311987310648" lon="-3.050443036481738">
        <ele>1010.48</ele>
        <time>2025-05-12T10:12:33Z</time>
      </trkpt>
      <trkpt lat="36.999364960938692" lon="-3.050313033163548">
        <ele>1010.96</ele>
        <time>2025-05-12T10:12:34Z</time>
      </trkpt>
      <trkpt lat="36.99942204169929" lon="-3.050212031230331">
        <ele>1011.4400000000001</ele>
        <time>2025-05-12T10:12:35Z</time>
      </trkpt>
      <trkpt lat="36.999508962035179" lon="-3.050143970176578">
        <ele>1011.9299999999999</ele>
        <time>2025-05-12T10:12:36Z</time>
      </trkpt>
      <trkpt lat="36.999622033908963" lon="-3.050136007368565">
        <ele>1012.41</ele>
        <time>2025-05-12T10:12:37Z</time>
      </trkpt>
      <trkpt lat="36.999752959236503" lon="-3.050126032903791">
        <ele>1013.37</ele>
        <time>2025-05-12T10:12:38Z</time>
      </trkpt>
      <trkpt lat="36.99989402666688" lon="-3.050111029297113">
        <ele>1013.37</ele>
        <time>2025-05-12T10:12:39Z</time>
      </trkpt>
      <trkpt lat="37.000035010278225" lon="-3.050092002376914">
        <ele>1013.85</ele>
        <time>2025-05-12T10:12:40Z</time>
      </trkpt>
      <trkpt lat="37.000151015818119" lon="-3.050064006820321">
        <ele>1014.8099999999999</ele>
        <time>2025-05-12T10:12:41Z</time>
      </trkpt>
      <trkpt lat="37.000280013307929" lon="-3.049971973523498">
        <ele>1015.29</ele>
        <time>2025-05-12T10:12:42Z</time>
      </trkpt>
      <trkpt lat="37.000343967229128" lon="-3.049866026267409">
        <ele>1015.77</ele>
        <time>2025-05-12T10:12:43Z</time>
      </trkpt>
      <trkpt lat="37.000419991090894" lon="-3.049739040434361">
        <ele>1016.73</ele>
        <time>2025-05-12T10:12:44Z</time>
      </trkpt>
      <trkpt lat="37.000498026609421" lon="-3.049636026844382">
        <ele>1017.21</ele>
        <time>2025-05-12T10:12:45Z</time>
      </trkpt>
      <trkpt lat="37.000584024935961" lon="-3.049586992710829">
        <ele>1018.17</ele>
        <time>2025-05-12T10:12:46Z</time>
      </trkpt>
      <trkpt lat="37.000667005777359" lon="-3.049592021852732">
        <ele>1018.65</ele>
        <time>2025-05-12T10:12:47Z</time>
      </trkpt>
      <trkpt lat="37.000747974961996" lon="-3.049644995480776">
        <ele>1019.13</ele>
        <time>2025-05-12T10:12:48Z</time>
      </trkpt>
      <trkpt lat="37.000844031572342" lon="-3.049707021564245">
        <ele>1020.1</ele>
        <time>2025-05-12T10:12:49Z</time>
      </trkpt>
      <trkpt lat="37.000923994928598" lon="-3.049757983535528">
        <ele>1020.58</ele>
        <time>2025-05-12T10:12:50Z</time>
      </trkpt>
      <trkpt lat="37.00107797048986" lon="-3.049777010455728">
        <ele>1021.54</ele>
        <time>2025-05-12T10:12:51Z</time>
      </trkpt>
      <trkpt lat="37.00120696797967" lon="-3.049753960222006">
        <ele>1022.02</ele>
        <time>2025-05-12T10:12:52Z</time>
      </trkpt>
      <trkpt lat="37.001624973490834" lon="-3.049644995480776">
        <ele>1023.9400000000001</ele>
        <time>2025-05-12T10:12:55Z</time>
      </trkpt>
      <trkpt lat="37.001726981252432" lon="-3.049576012417674">
        <ele>1024.9000000000001</ele>
        <time>2025-05-12T10:12:56Z</time>
      </trkpt>
      <trkpt lat="37.001806022599339" lon="-3.049481967464089">
        <ele>1025.3800000000001</ele>
        <time>2025-05-12T10:12:57Z</time>
      </trkpt>
      <trkpt lat="37.001822032034397" lon="-3.049347018823028">
        <ele>1025.8599999999999</ele>
        <time>2025-05-12T10:12:58Z</time>
      </trkpt>
      <trkpt lat="37.001840975135565" lon="-3.049196982756257">
        <ele>1026.8299999999999</ele>
        <time>2025-05-12T10:12:59Z</time>
      </trkpt>
      <trkpt lat="37.001861007884145" lon="-3.049034960567951">
        <ele>1027.3099999999999</ele>
        <time>2025-05-12T10:13:00Z</time>
      </trkpt>
      <trkpt lat="37.001881040632725" lon="-3.04888098500669">
        <ele>1028.27</ele>
        <time>2025-05-12T10:13:01Z</time>
      </trkpt>
      <trkpt lat="37.001922028139234" lon="-3.04877202026546">
        <ele>1028.75</ele>
        <time>2025-05-12T10:13:02Z</time>
      </trkpt>
      <trkpt lat="37.001994028687477" lon="-3.048681998625398">
        <ele>1029.23</ele>
        <time>2025-05-12T10:13:03Z</time>
      </trkpt>
      <trkpt lat="37.002072986215353" lon="-3.048587031662464">
        <ele>1029.23</ele>
        <time>2025-05-12T10:13:04Z</time>
      </trkpt>
      <trkpt lat="37.002165019512177" lon="-3.048494998365641">
        <ele>1029.71</ele>
        <time>2025-05-12T10:13:05Z</time>
      </trkpt>
      <trkpt lat="37.002256968989968" lon="-3.048401959240437">
        <ele>1030.1900000000001</ele>
        <time>2025-05-12T10:13:06Z</time>
      </trkpt>
      <trkpt lat="37.002324024215341" lon="-3.048297017812729">
        <ele>1030.1900000000001</ele>
        <time>2025-05-12T10:13:07Z</time>
      </trkpt>
      <trkpt lat="37.002341039478779" lon="-3.048157962039113">
        <ele>1030.6700000000001</ele>
        <time>2025-05-12T10:13:08Z</time>
      </trkpt>
      <trkpt lat="37.002357970923185" lon="-3.048015972599387">
        <ele>1031.1500000000001</ele>
        <time>2025-05-12T10:13:09Z</time>
      </trkpt>
      <trkpt lat="37.002374986186624" lon="-3.047877000644803">
        <ele>1031.6300000000001</ele>
        <time>2025-05-12T10:13:10Z</time>
      </trkpt>
      <trkpt lat="37.002389989793301" lon="-3.047751020640135">
        <ele>1031.6300000000001</ele>
        <time>2025-05-12T10:13:11Z</time>
      </trkpt>
      <trkpt lat="37.002403987571597" lon="-3.04763300344348">
        <ele>1032.5899999999999</ele>
        <time>2025-05-12T10:13:12Z</time>
      </trkpt>
      <trkpt lat="37.002455033361912" lon="-3.047556979581714">
        <ele>1033.0699999999999</ele>
        <time>2025-05-12T10:13:13Z</time>
      </trkpt>
      <trkpt lat="37.002511024475098" lon="-3.047472992911935">
        <ele>1033.55</ele>
        <time>2025-05-12T10:13:14Z</time>
      </trkpt>
      <trkpt lat="37.002576990053058" lon="-3.047400992363691">
        <ele>1034.04</ele>
        <time>2025-05-12T10:13:15Z</time>
      </trkpt>
      <trkpt lat="37.00264697894454" lon="-3.047338966280222">
        <ele>1034.52</ele>
        <time>2025-05-12T10:13:16Z</time>
      </trkpt>
      <trkpt lat="37.002770025283098" lon="-3.047241987660527">
        <ele>1035.96</ele>
        <time>2025-05-12T10:13:18Z</time>
      </trkpt>
      <trkpt lat="37.002838002517819" lon="-3.047201000154018">
        <ele>1035.96</ele>
        <time>2025-05-12T10:13:19Z</time>
      </trkpt>
      <trkpt lat="37.002902962267399" lon="-3.047162024304271">
        <ele>1036.4400000000001</ele>
        <time>2025-05-12T10:13:20Z</time>
      </trkpt>
      <trkpt lat="37.002969011664391" lon="-3.047148026525974">
        <ele>1036.9200000000001</ele>
        <time>2025-05-12T10:13:21Z</time>
      </trkpt>
      <trkpt lat="37.003046041354537" lon="-3.047170992940664">
        <ele>1036.9200000000001</ele>
        <time>2025-05-12T10:13:22Z</time>
      </trkpt>
      <trkpt lat="37.003132039681077" lon="-3.047196976840496">
        <ele>1037.4000000000001</ele>
        <time>2025-05-12T10:13:23Z</time>
      </trkpt>
      <trkpt lat="37.003321973606944" lon="-3.047240981832147">
        <ele>1037.4000000000001</ele>
        <time>2025-05-12T10:13:25Z</time>
      </trkpt>
      <trkpt lat="37.0034209638834" lon="-3.047228995710611">
        <ele>1037.4000000000001</ele>
        <time>2025-05-12T10:13:26Z</time>
      </trkpt>
      <trkpt lat="37.003514003008604" lon="-3.047206029295921">
        <ele>1037.4000000000001</ele>
        <time>2025-05-12T10:13:27Z</time>
      </trkpt>
      <trkpt lat="37.003760011866689" lon="-3.047144003212452">
        <ele>1037.8800000000001</ele>
        <time>2025-05-12T10:13:30Z</time>
      </trkpt>
      <trkpt lat="37.003825977444649" lon="-3.047123970463872">
        <ele>1037.8800000000001</ele>
        <time>2025-05-12T10:13:31Z</time>
      </trkpt>
      <trkpt lat="37.00387098826468" lon="-3.047070996835828">
        <ele>1037.8800000000001</ele>
        <time>2025-05-12T10:13:32Z</time>
      </trkpt>
      <trkpt lat="37.003912981599569" lon="-3.047005031257868">
        <ele>1038.3599999999999</ele>
        <time>2025-05-12T10:13:33Z</time>
      </trkpt>
      <trkpt lat="37.003943994641304" lon="-3.046923978254199">
        <ele>1038.3599999999999</ele>
        <time>2025-05-12T10:13:34Z</time>
      </trkpt>
      <trkpt lat="37.003924967721105" lon="-3.04683999158442">
        <ele>1038.3599999999999</ele>
        <time>2025-05-12T10:13:35Z</time>
      </trkpt>
      <trkpt lat="37.003899989649653" lon="-3.046745024621487">
        <ele>1038.8399999999999</ele>
        <time>2025-05-12T10:13:36Z</time>
      </trkpt>
      <trkpt lat="37.003842992708087" lon="-3.046665983274579">
        <ele>1039.3199999999999</ele>
        <time>2025-05-12T10:13:37Z</time>
      </trkpt>
      <trkpt lat="37.003783984109759" lon="-3.046583002433181">
        <ele>1039.3199999999999</ele>
        <time>2025-05-12T10:13:38Z</time>
      </trkpt>
      <trkpt lat="37.00372003018856" lon="-3.04649499244988">
        <ele>1039.3199999999999</ele>
        <time>2025-05-12T10:13:39Z</time>
      </trkpt>
      <trkpt lat="37.003652974963188" lon="-3.046402037143707">
        <ele>1039.3199999999999</ele>
        <time>2025-05-12T10:13:40Z</time>
      </trkpt>
      <trkpt lat="37.003581980243325" lon="-3.04630296304822">
        <ele>1039.3199999999999</ele>
        <time>2025-05-12T10:13:41Z</time>
      </trkpt>
      <trkpt lat="37.003511991351843" lon="-3.046201039105654">
        <ele>1039.8</ele>
        <time>2025-05-12T10:13:42Z</time>
      </trkpt>
      <trkpt lat="37.003348041325808" lon="-3.0458739772439">
        <ele>1040.76</ele>
        <time>2025-05-12T10:13:45Z</time>
      </trkpt>
      <trkpt lat="37.003333037719131" lon="-3.04578797891736">
        <ele>1040.76</ele>
        <time>2025-05-12T10:13:46Z</time>
      </trkpt>
      <trkpt lat="37.003267994150519" lon="-3.045425964519382">
        <ele>1041.73</ele>
        <time>2025-05-12T10:13:49Z</time>
      </trkpt>
      <trkpt lat="37.003247039392591" lon="-3.045307025313377">
        <ele>1041.73</ele>
        <time>2025-05-12T10:13:50Z</time>
      </trkpt>
      <trkpt lat="37.003208985552192" lon="-3.045200994238257">
        <ele>1041.73</ele>
        <time>2025-05-12T10:13:51Z</time>
      </trkpt>
      <trkpt lat="37.003123993054032" lon="-3.044987004250288">
        <ele>1042.6900000000001</ele>
        <time>2025-05-12T10:13:53Z</time>
      </trkpt>
      <trkpt lat="37.003090968355536" lon="-3.044887008145452">
        <ele>1043.1700000000001</ele>
        <time>2025-05-12T10:13:54Z</time>
      </trkpt>
      <trkpt lat="37.003084011375904" lon="-3.044777037575841">
        <ele>1043.6500000000001</ele>
        <time>2025-05-12T10:13:55Z</time>
      </trkpt>
      <trkpt lat="37.00307697057724" lon="-3.044664971530438">
        <ele>1043.6500000000001</ele>
        <time>2025-05-12T10:13:56Z</time>
      </trkpt>
      <trkpt lat="37.003069007769227" lon="-3.044543014839292">
        <ele>1044.1300000000001</ele>
        <time>2025-05-12T10:13:57Z</time>
      </trkpt>
      <trkpt lat="37.003079988062382" lon="-3.0444320384413">
        <ele>1044.1300000000001</ele>
        <time>2025-05-12T10:13:58Z</time>
      </trkpt>
      <trkpt lat="37.003094991669059" lon="-3.043713038787246">
        <ele>1046.53</ele>
        <time>2025-05-12T10:14:05Z</time>
      </trkpt>
      <trkpt lat="37.00307697057724" lon="-3.043644977733493">
        <ele>1047.01</ele>
        <time>2025-05-12T10:14:06Z</time>
      </trkpt>
      <trkpt lat="37.002865998074412" lon="-3.043046006932855">
        <ele>1052.3</ele>
        <time>2025-05-12T10:14:16Z</time>
      </trkpt>
      <trkpt lat="37.002858035266399" lon="-3.042953973636031">
        <ele>1054.7</ele>
        <time>2025-05-12T10:14:23Z</time>
      </trkpt>
      <trkpt lat="37.002858035266399" lon="-3.042953973636031">
        <ele>1054.7</ele>
        <time>2025-05-12T10:14:52Z</time>
      </trkpt>
      <trkpt lat="37.002855017781258" lon="-3.042908040806651">
        <ele>1057.1099999999999</ele>
        <time>2025-05-12T10:15:27Z</time>
      </trkpt>
      <trkpt lat="37.002858035266399" lon="-3.042866969481111">
        <ele>1058.0699999999999</ele>
        <time>2025-05-12T10:15:28Z</time>
      </trkpt>
      <trkpt lat="37.00286197476089" lon="-3.04279999807477">
        <ele>1058.0699999999999</ele>
        <time>2025-05-12T10:15:29Z</time>
      </trkpt>
      <trkpt lat="37.002868009731174" lon="-3.04271399974823">
        <ele>1058.55</ele>
        <time>2025-05-12T10:15:30Z</time>
      </trkpt>
      <trkpt lat="37.002873960882425" lon="-3.042620038613677">
        <ele>1058.55</ele>
        <time>2025-05-12T10:15:31Z</time>
      </trkpt>
      <trkpt lat="37.002921989187598" lon="-3.042170014232397">
        <ele>1059.03</ele>
        <time>2025-05-12T10:15:35Z</time>
      </trkpt>
      <trkpt lat="37.003063978627324" lon="-3.041619993746281">
        <ele>1062.8699999999999</ele>
        <time>2025-05-12T10:15:39Z</time>
      </trkpt>
      <trkpt lat="37.003118963912129" lon="-3.041497031226754">
        <ele>1063.8399999999999</ele>
        <time>2025-05-12T10:15:40Z</time>
      </trkpt>
      <trkpt lat="37.003185013309121" lon="-3.041397035121918">
        <ele>1064.8</ele>
        <time>2025-05-12T10:15:41Z</time>
      </trkpt>
      <trkpt lat="37.003261959180236" lon="-3.041282035410404">
        <ele>1065.76</ele>
        <time>2025-05-12T10:15:42Z</time>
      </trkpt>
      <trkpt lat="37.003345023840666" lon="-3.041239958256483">
        <ele>1066.24</ele>
        <time>2025-05-12T10:15:43Z</time>
      </trkpt>
      <trkpt lat="37.003439990803599" lon="-3.041216991841793">
        <ele>1067.2</ele>
        <time>2025-05-12T10:15:44Z</time>
      </trkpt>
      <trkpt lat="37.003546021878719" lon="-3.041220009326935">
        <ele>1068.1600000000001</ele>
        <time>2025-05-12T10:15:45Z</time>
      </trkpt>
      <trkpt lat="37.003661021590233" lon="-3.041272982954979">
        <ele>1069.5999999999999</ele>
        <time>2025-05-12T10:15:46Z</time>
      </trkpt>
      <trkpt lat="37.003785995766521" lon="-3.041331991553307">
        <ele>1071.05</ele>
        <time>2025-05-12T10:15:47Z</time>
      </trkpt>
      <trkpt lat="37.00496600009501" lon="-3.041859967634082">
        <ele>1081.6199999999999</ele>
        <time>2025-05-12T10:15:55Z</time>
      </trkpt>
      <trkpt lat="37.005232041701674" lon="-3.041959041729569">
        <ele>1084.02</ele>
        <time>2025-05-12T10:15:57Z</time>
      </trkpt>
      <trkpt lat="37.005344023928046" lon="-3.041981002315879">
        <ele>1085.47</ele>
        <time>2025-05-12T10:15:58Z</time>
      </trkpt>
      <trkpt lat="37.005433961749077" lon="-3.04194001480937">
        <ele>1086.9100000000001</ele>
        <time>2025-05-12T10:15:59Z</time>
      </trkpt>
      <trkpt lat="37.005485007539392" lon="-3.04185401648283">
        <ele>1088.3499999999999</ele>
        <time>2025-05-12T10:16:00Z</time>
      </trkpt>
      <trkpt lat="37.005506968125701" lon="-3.041745973750949">
        <ele>1089.79</ele>
        <time>2025-05-12T10:16:01Z</time>
      </trkpt>
      <trkpt lat="37.005493976175785" lon="-3.041613958775997">
        <ele>1091.23</ele>
        <time>2025-05-12T10:16:02Z</time>
      </trkpt>
      <trkpt lat="37.00545902363956" lon="-3.04148898459971">
        <ele>1093.1600000000001</ele>
        <time>2025-05-12T10:16:03Z</time>
      </trkpt>
      <trkpt lat="37.005424993112683" lon="-3.041367027908564">
        <ele>1094.5999999999999</ele>
        <time>2025-05-12T10:16:04Z</time>
      </trkpt>
      <trkpt lat="37.005278980359435" lon="-3.040852965787053">
        <ele>1099.8900000000001</ele>
        <time>2025-05-12T10:16:10Z</time>
      </trkpt>
      <trkpt lat="37.005304964259267" lon="-3.040654985234141">
        <ele>1104.6900000000001</ele>
        <time>2025-05-12T10:16:18Z</time>
      </trkpt>
      <trkpt lat="37.005203040316701" lon="-3.040767973288894">
        <ele>1068.1600000000001</ele>
        <time>2025-05-12T10:30:24Z</time>
      </trkpt>
      <trkpt lat="37.005228018388152" lon="-3.040648028254509">
        <ele>1094.1199999999999</ele>
        <time>2025-05-12T10:30:39Z</time>
      </trkpt>
      <trkpt lat="37.005307981744409" lon="-3.040635036304593">
        <ele>1094.5999999999999</ele>
        <time>2025-05-12T10:30:41Z</time>
      </trkpt>
      <trkpt lat="37.005320973694324" lon="-3.040536968037486">
        <ele>1094.5999999999999</ele>
        <time>2025-05-12T10:30:43Z</time>
      </trkpt>
      <trkpt lat="37.005332037806511" lon="-3.040451975539327">
        <ele>1095.0799999999999</ele>
        <time>2025-05-12T10:30:44Z</time>
      </trkpt>
      <trkpt lat="37.005344023928046" lon="-3.040358014404774">
        <ele>1095.0799999999999</ele>
        <time>2025-05-12T10:30:45Z</time>
      </trkpt>
      <trkpt lat="37.005380988121033" lon="-3.039842024445534">
        <ele>1096.04</ele>
        <time>2025-05-12T10:30:50Z</time>
      </trkpt>
      <trkpt lat="37.005367996171117" lon="-3.03938303142786">
        <ele>1097</ele>
        <time>2025-05-12T10:30:54Z</time>
      </trkpt>
      <trkpt lat="37.005364978685975" lon="-3.039285968989134">
        <ele>1097</ele>
        <time>2025-05-12T10:30:55Z</time>
      </trkpt>
      <trkpt lat="37.005404960364103" lon="-3.039166023954749">
        <ele>1097.48</ele>
        <time>2025-05-12T10:30:56Z</time>
      </trkpt>
      <trkpt lat="37.005442008376122" lon="-3.039057981222868">
        <ele>1097.96</ele>
        <time>2025-05-12T10:30:57Z</time>
      </trkpt>
      <trkpt lat="37.005476960912347" lon="-3.038950022310019">
        <ele>1098.4400000000001</ele>
        <time>2025-05-12T10:30:58Z</time>
      </trkpt>
      <trkpt lat="37.005562037229538" lon="-3.038742989301682">
        <ele>1099.4000000000001</ele>
        <time>2025-05-12T10:31:00Z</time>
      </trkpt>
      <trkpt lat="37.005633031949401" lon="-3.038665959611535">
        <ele>1099.8900000000001</ele>
        <time>2025-05-12T10:31:01Z</time>
      </trkpt>
      <trkpt lat="37.00593201443553" lon="-3.038338981568813">
        <ele>1102.29</ele>
        <time>2025-05-12T10:31:05Z</time>
      </trkpt>
      <trkpt lat="37.006166037172079" lon="-3.038080986589193">
        <ele>1104.21</ele>
        <time>2025-05-12T10:31:08Z</time>
      </trkpt>
      <trkpt lat="37.006283970549703" lon="-3.037859033793211">
        <ele>1104.6900000000001</ele>
        <time>2025-05-12T10:31:10Z</time>
      </trkpt>
      <trkpt lat="37.006330993026495" lon="-3.037719978019595">
        <ele>1105.1700000000001</ele>
        <time>2025-05-12T10:31:11Z</time>
      </trkpt>
      <trkpt lat="37.006330993026495" lon="-3.03759902715683">
        <ele>1105.6500000000001</ele>
        <time>2025-05-12T10:31:12Z</time>
      </trkpt>
      <trkpt lat="37.006301991641521" lon="-3.037452008575201">
        <ele>1106.6099999999999</ele>
        <time>2025-05-12T10:31:13Z</time>
      </trkpt>
      <trkpt lat="37.006259998306632" lon="-3.037316976115108">
        <ele>1107.0999999999999</ele>
        <time>2025-05-12T10:31:14Z</time>
      </trkpt>
      <trkpt lat="37.006218004971743" lon="-3.037178004160523">
        <ele>1107.5799999999999</ele>
        <time>2025-05-12T10:31:15Z</time>
      </trkpt>
      <trkpt lat="37.006177017465234" lon="-3.037034003064036">
        <ele>1108.0599999999999</ele>
        <time>2025-05-12T10:31:16Z</time>
      </trkpt>
      <trkpt lat="37.006051959469914" lon="-3.036281978711486">
        <ele>1109.5</ele>
        <time>2025-05-12T10:31:21Z</time>
      </trkpt>
      <trkpt lat="37.006034022197127" lon="-3.036133032292128">
        <ele>1109.02</ele>
        <time>2025-05-12T10:31:22Z</time>
      </trkpt>
      <trkpt lat="37.006060006096959" lon="-3.035976039245725">
        <ele>1108.54</ele>
        <time>2025-05-12T10:31:23Z</time>
      </trkpt>
      <trkpt lat="37.006271984428167" lon="-3.034682041034102">
        <ele>1103.73</ele>
        <time>2025-05-12T10:31:30Z</time>
      </trkpt>
      <trkpt lat="37.006287993863225" lon="-3.034586990252137">
        <ele>1102.77</ele>
        <time>2025-05-12T10:31:31Z</time>
      </trkpt>
      <trkpt lat="37.006225967779756" lon="-3.034447012469173">
        <ele>1101.3299999999999</ele>
        <time>2025-05-12T10:31:32Z</time>
      </trkpt>
      <trkpt lat="37.006182968616486" lon="-3.034351039677858">
        <ele>1099.8900000000001</ele>
        <time>2025-05-12T10:31:33Z</time>
      </trkpt>
      <trkpt lat="37.006139969453216" lon="-3.034252971410751">
        <ele>1097.96</ele>
        <time>2025-05-12T10:31:34Z</time>
      </trkpt>
      <trkpt lat="37.006107028573751" lon="-3.034134032204747">
        <ele>1096.52</ele>
        <time>2025-05-12T10:31:35Z</time>
      </trkpt>
      <trkpt lat="37.006113985553384" lon="-3.034001011401415">
        <ele>1095.5599999999999</ele>
        <time>2025-05-12T10:31:36Z</time>
      </trkpt>
      <trkpt lat="37.006151033565402" lon="-3.03390403278172">
        <ele>1094.1199999999999</ele>
        <time>2025-05-12T10:31:37Z</time>
      </trkpt>
      <trkpt lat="37.00619000941515" lon="-3.033800013363361">
        <ele>1093.1600000000001</ele>
        <time>2025-05-12T10:31:38Z</time>
      </trkpt>
      <trkpt lat="37.006232002750039" lon="-3.033689958974719">
        <ele>1092.6800000000001</ele>
        <time>2025-05-12T10:31:39Z</time>
      </trkpt>
      <trkpt lat="37.006279025226831" lon="-3.033565990626812">
        <ele>1091.71</ele>
        <time>2025-05-12T10:31:40Z</time>
      </trkpt>
      <trkpt lat="37.006431994959712" lon="-3.033163994550705">
        <ele>1088.8299999999999</ele>
        <time>2025-05-12T10:31:43Z</time>
      </trkpt>
      <trkpt lat="37.006451021879911" lon="-3.033038014546037">
        <ele>1087.8699999999999</ele>
        <time>2025-05-12T10:31:44Z</time>
      </trkpt>
      <trkpt lat="37.006459990516305" lon="-3.032956039533019">
        <ele>1087.3900000000001</ele>
        <time>2025-05-12T10:31:45Z</time>
      </trkpt>
      <trkpt lat="37.006391007453203" lon="-3.032818995416164">
        <ele>1086.9100000000001</ele>
        <time>2025-05-12T10:31:46Z</time>
      </trkpt>
      <trkpt lat="37.006330993026495" lon="-3.032698966562748">
        <ele>1085.95</ele>
        <time>2025-05-12T10:31:47Z</time>
      </trkpt>
      <trkpt lat="37.006236026063561" lon="-3.032603999599814">
        <ele>1085.47</ele>
        <time>2025-05-12T10:31:48Z</time>
      </trkpt>
      <trkpt lat="37.006137035787106" lon="-3.032505009323359">
        <ele>1084.5</ele>
        <time>2025-05-12T10:31:49Z</time>
      </trkpt>
      <trkpt lat="37.006031004711986" lon="-3.032441977411509">
        <ele>1083.54</ele>
        <time>2025-05-12T10:31:50Z</time>
      </trkpt>
      <trkpt lat="37.005901001393795" lon="-3.032397972419858">
        <ele>1082.5799999999999</ele>
        <time>2025-05-12T10:31:51Z</time>
      </trkpt>
      <trkpt lat="37.005625991150737" lon="-3.032306022942066">
        <ele>1079.22</ele>
        <time>2025-05-12T10:31:53Z</time>
      </trkpt>
      <trkpt lat="37.005514008924365" lon="-3.032268974930048">
        <ele>1077.78</ele>
        <time>2025-05-12T10:31:54Z</time>
      </trkpt>
      <trkpt lat="37.005415018647909" lon="-3.032165039330721">
        <ele>1076.3299999999999</ele>
        <time>2025-05-12T10:31:55Z</time>
      </trkpt>
      <trkpt lat="37.005372019484639" lon="-3.032039981335402">
        <ele>1075.3699999999999</ele>
        <time>2025-05-12T10:31:56Z</time>
      </trkpt>
      <trkpt lat="37.005334971472621" lon="-3.031898997724056">
        <ele>1073.9300000000001</ele>
        <time>2025-05-12T10:31:57Z</time>
      </trkpt>
      <trkpt lat="37.005294989794493" lon="-3.031743010506034">
        <ele>1072.97</ele>
        <time>2025-05-12T10:31:58Z</time>
      </trkpt>
      <trkpt lat="37.005254002287984" lon="-3.031582999974489">
        <ele>1071.53</ele>
        <time>2025-05-12T10:31:59Z</time>
      </trkpt>
      <trkpt lat="37.005215026438236" lon="-3.031432963907719">
        <ele>1070.0799999999999</ele>
        <time>2025-05-12T10:32:00Z</time>
      </trkpt>
      <trkpt lat="37.00515802949667" lon="-3.031298015266657">
        <ele>1069.1199999999999</ele>
        <time>2025-05-12T10:32:01Z</time>
      </trkpt>
      <trkpt lat="37.005104972049594" lon="-3.031175974756479">
        <ele>1067.6800000000001</ele>
        <time>2025-05-12T10:32:02Z</time>
      </trkpt>
      <trkpt lat="37.005105977877975" lon="-3.031017975881696">
        <ele>1066.72</ele>
        <time>2025-05-12T10:32:03Z</time>
      </trkpt>
      <trkpt lat="37.005132967606187" lon="-3.030862994492054">
        <ele>1065.76</ele>
        <time>2025-05-12T10:32:04Z</time>
      </trkpt>
      <trkpt lat="37.00516096316278" lon="-3.03070398978889">
        <ele>1065.28</ele>
        <time>2025-05-12T10:32:05Z</time>
      </trkpt>
      <trkpt lat="37.00522399507463" lon="-3.03055202588439">
        <ele>1064.8</ele>
        <time>2025-05-12T10:32:06Z</time>
      </trkpt>
      <trkpt lat="37.00531099922955" lon="-3.030412970110774">
        <ele>1064.3199999999999</ele>
        <time>2025-05-12T10:32:07Z</time>
      </trkpt>
      <trkpt lat="37.00541602447629" lon="-3.030291013419628">
        <ele>1063.8399999999999</ele>
        <time>2025-05-12T10:32:08Z</time>
      </trkpt>
      <trkpt lat="37.005832018330693" lon="-3.029810981824994">
        <ele>1060.47</ele>
        <time>2025-05-12T10:32:12Z</time>
      </trkpt>
      <trkpt lat="37.005893960595131" lon="-3.029676033183932">
        <ele>1059.51</ele>
        <time>2025-05-12T10:32:13Z</time>
      </trkpt>
      <trkpt lat="37.005930002778769" lon="-3.029525997117162">
        <ele>1058.55</ele>
        <time>2025-05-12T10:32:14Z</time>
      </trkpt>
      <trkpt lat="37.005945006385446" lon="-3.02939398214221">
        <ele>1057.5899999999999</ele>
        <time>2025-05-12T10:32:15Z</time>
      </trkpt>
      <trkpt lat="37.005866970866919" lon="-3.029252998530865">
        <ele>1057.1099999999999</ele>
        <time>2025-05-12T10:32:16Z</time>
      </trkpt>
      <trkpt lat="37.005796981975436" lon="-3.029149984940887">
        <ele>1056.1500000000001</ele>
        <time>2025-05-12T10:32:17Z</time>
      </trkpt>
      <trkpt lat="37.005687011405826" lon="-3.029102962464094">
        <ele>1056.1500000000001</ele>
        <time>2025-05-12T10:32:18Z</time>
      </trkpt>
      <trkpt lat="37.00556798838079" lon="-3.029052000492811">
        <ele>1055.6700000000001</ele>
        <time>2025-05-12T10:32:19Z</time>
      </trkpt>
      <trkpt lat="37.00533002614975" lon="-3.028949992731214">
        <ele>1054.7</ele>
        <time>2025-05-12T10:32:21Z</time>
      </trkpt>
      <trkpt lat="37.005226006731391" lon="-3.028904981911182">
        <ele>1053.74</ele>
        <time>2025-05-12T10:32:22Z</time>
      </trkpt>
      <trkpt lat="37.00518200173974" lon="-3.028800962492824">
        <ele>1053.26</ele>
        <time>2025-05-12T10:32:23Z</time>
      </trkpt>
      <trkpt lat="37.005143025889993" lon="-3.028684034943581">
        <ele>1052.78</ele>
        <time>2025-05-12T10:32:24Z</time>
      </trkpt>
      <trkpt lat="37.005104972049594" lon="-3.028543973341584">
        <ele>1052.3</ele>
        <time>2025-05-12T10:32:25Z</time>
      </trkpt>
      <trkpt lat="37.005062978714705" lon="-3.02821297198534">
        <ele>1051.3399999999999</ele>
        <time>2025-05-12T10:32:27Z</time>
      </trkpt>
      <trkpt lat="37.005018973723054" lon="-3.028044998645783">
        <ele>1051.3399999999999</ele>
        <time>2025-05-12T10:32:28Z</time>
      </trkpt>
      <trkpt lat="37.004935992881656" lon="-3.027903009206057">
        <ele>1050.8599999999999</ele>
        <time>2025-05-12T10:32:29Z</time>
      </trkpt>
      <trkpt lat="37.004820993170142" lon="-3.02765398286283">
        <ele>1049.9000000000001</ele>
        <time>2025-05-12T10:32:31Z</time>
      </trkpt>
      <trkpt lat="37.004792997613549" lon="-3.027521967887878">
        <ele>1049.4200000000001</ele>
        <time>2025-05-12T10:32:32Z</time>
      </trkpt>
      <trkpt lat="37.004825016483665" lon="-3.027404034510255">
        <ele>1048.45</ele>
        <time>2025-05-12T10:32:33Z</time>
      </trkpt>
      <trkpt lat="37.00485804118216" lon="-3.027279982343316">
        <ele>1047.49</ele>
        <time>2025-05-12T10:32:34Z</time>
      </trkpt>
      <trkpt lat="37.004895005375147" lon="-3.027143022045493">
        <ele>1046.53</ele>
        <time>2025-05-12T10:32:35Z</time>
      </trkpt>
      <trkpt lat="37.004932975396514" lon="-3.027003966271877">
        <ele>1046.05</ele>
        <time>2025-05-12T10:32:36Z</time>
      </trkpt>
      <trkpt lat="37.005003970116377" lon="-3.026893995702267">
        <ele>1045.5699999999999</ele>
        <time>2025-05-12T10:32:37Z</time>
      </trkpt>
      <trkpt lat="37.005086028948426" lon="-3.026775978505611">
        <ele>1045.0899999999999</ele>
        <time>2025-05-12T10:32:38Z</time>
      </trkpt>
      <trkpt lat="37.005170015618205" lon="-3.026734990999103">
        <ele>1044.6099999999999</ele>
        <time>2025-05-12T10:32:39Z</time>
      </trkpt>
      <trkpt lat="37.005301024764776" lon="-3.026669025421143">
        <ele>1044.1300000000001</ele>
        <time>2025-05-12T10:32:40Z</time>
      </trkpt>
      <trkpt lat="37.005401020869613" lon="-3.026686040684581">
        <ele>1043.6500000000001</ele>
        <time>2025-05-12T10:32:41Z</time>
      </trkpt>
      <trkpt lat="37.00552498921752" lon="-3.026721999049187">
        <ele>1043.1700000000001</ele>
        <time>2025-05-12T10:32:42Z</time>
      </trkpt>
      <trkpt lat="37.005643006414175" lon="-3.026761980727315">
        <ele>1042.21</ele>
        <time>2025-05-12T10:32:43Z</time>
      </trkpt>
      <trkpt lat="37.005731016397476" lon="-3.026757035404444">
        <ele>1041.73</ele>
        <time>2025-05-12T10:32:44Z</time>
      </trkpt>
      <trkpt lat="37.005836041644216" lon="-3.026713030412793">
        <ele>1040.76</ele>
        <time>2025-05-12T10:32:45Z</time>
      </trkpt>
      <trkpt lat="37.005891026929021" lon="-3.026649998500943">
        <ele>1040.28</ele>
        <time>2025-05-12T10:32:46Z</time>
      </trkpt>
      <trkpt lat="37.005988005548716" lon="-3.026540027931333">
        <ele>1039.8</ele>
        <time>2025-05-12T10:32:47Z</time>
      </trkpt>
      <trkpt lat="37.006034022197127" lon="-3.026453023776412">
        <ele>1038.8399999999999</ele>
        <time>2025-05-12T10:32:48Z</time>
      </trkpt>
      <trkpt lat="37.006377009674907" lon="-3.025722038000822">
        <ele>1035</ele>
        <time>2025-05-12T10:32:53Z</time>
      </trkpt>
      <trkpt lat="37.006459990516305" lon="-3.025532020255923">
        <ele>1034.52</ele>
        <time>2025-05-12T10:32:54Z</time>
      </trkpt>
      <trkpt lat="37.006466025486588" lon="-3.025406040251255">
        <ele>1033.55</ele>
        <time>2025-05-12T10:32:55Z</time>
      </trkpt>
      <trkpt lat="37.006481029093266" lon="-3.025080990046263">
        <ele>1031.6300000000001</ele>
        <time>2025-05-12T10:32:57Z</time>
      </trkpt>
      <trkpt lat="37.006506007164717" lon="-3.024957021698356">
        <ele>1031.1500000000001</ele>
        <time>2025-05-12T10:32:58Z</time>
      </trkpt>
      <trkpt lat="37.006550012156367" lon="-3.024833975359798">
        <ele>1030.1900000000001</ele>
        <time>2025-05-12T10:32:59Z</time>
      </trkpt>
      <trkpt lat="37.006623018532991" lon="-3.024743031710386">
        <ele>1029.71</ele>
        <time>2025-05-12T10:33:00Z</time>
      </trkpt>
      <trkpt lat="37.00672603212297" lon="-3.024647980928421">
        <ele>1028.75</ele>
        <time>2025-05-12T10:33:01Z</time>
      </trkpt>
      <trkpt lat="37.006845977157354" lon="-3.024630965664983">
        <ele>1028.27</ele>
        <time>2025-05-12T10:33:02Z</time>
      </trkpt>
      <trkpt lat="37.006939016282558" lon="-3.024652004241943">
        <ele>1027.3099999999999</ele>
        <time>2025-05-12T10:33:03Z</time>
      </trkpt>
      <trkpt lat="37.007029037922621" lon="-3.024672958999872">
        <ele>1026.3399999999999</ele>
        <time>2025-05-12T10:33:04Z</time>
      </trkpt>
      <trkpt lat="37.007117969915271" lon="-3.024693997576833">
        <ele>1025.3800000000001</ele>
        <time>2025-05-12T10:33:05Z</time>
      </trkpt>
      <trkpt lat="37.007211009040475" lon="-3.024715958163142">
        <ele>1024.4200000000001</ele>
        <time>2025-05-12T10:33:06Z</time>
      </trkpt>
      <trkpt lat="37.007278986275196" lon="-3.024702966213226">
        <ele>1023.46</ele>
        <time>2025-05-12T10:33:07Z</time>
      </trkpt>
      <trkpt lat="37.007379988208413" lon="-3.024684023112059">
        <ele>1022.98</ele>
        <time>2025-05-12T10:33:08Z</time>
      </trkpt>
      <trkpt lat="37.007495993748307" lon="-3.024661978706718">
        <ele>1022.02</ele>
        <time>2025-05-12T10:33:09Z</time>
      </trkpt>
      <trkpt lat="37.007623985409737" lon="-3.024637000635266">
        <ele>1021.0599999999999</ele>
        <time>2025-05-12T10:33:10Z</time>
      </trkpt>
      <trkpt lat="37.00775801204145" lon="-3.024611016735435">
        <ele>1020.58</ele>
        <time>2025-05-12T10:33:11Z</time>
      </trkpt>
      <trkpt lat="37.00788801535964" lon="-3.024571035057306">
        <ele>1020.1</ele>
        <time>2025-05-12T10:33:12Z</time>
      </trkpt>
      <trkpt lat="37.008026987314224" lon="-3.024526024237275">
        <ele>1019.62</ele>
        <time>2025-05-12T10:33:13Z</time>
      </trkpt>
      <trkpt lat="37.008161013945937" lon="-3.024484030902386">
        <ele>1018.65</ele>
        <time>2025-05-12T10:33:14Z</time>
      </trkpt>
      <trkpt lat="37.008305015042424" lon="-3.024437008425593">
        <ele>1017.6900000000001</ele>
        <time>2025-05-12T10:33:15Z</time>
      </trkpt>
      <trkpt lat="37.008397970348597" lon="-3.024359978735447">
        <ele>1017.21</ele>
        <time>2025-05-12T10:33:16Z</time>
      </trkpt>
      <trkpt lat="37.008472988381982" lon="-3.024223018437624">
        <ele>1016.73</ele>
        <time>2025-05-12T10:33:17Z</time>
      </trkpt>
      <trkpt lat="37.008550018072128" lon="-3.024084968492389">
        <ele>1016.25</ele>
        <time>2025-05-12T10:33:18Z</time>
      </trkpt>
      <trkpt lat="37.008626963943243" lon="-3.023943984881043">
        <ele>1014.8099999999999</ele>
        <time>2025-05-12T10:33:19Z</time>
      </trkpt>
      <trkpt lat="37.008708016946912" lon="-3.023842982947826">
        <ele>1014.33</ele>
        <time>2025-05-12T10:33:20Z</time>
      </trkpt>
      <trkpt lat="37.008804995566607" lon="-3.023726977407932">
        <ele>1013.85</ele>
        <time>2025-05-12T10:33:21Z</time>
      </trkpt>
      <trkpt lat="37.008928963914514" lon="-3.023675009608269">
        <ele>1012.89</ele>
        <time>2025-05-12T10:33:22Z</time>
      </trkpt>
      <trkpt lat="37.009066008031368" lon="-3.023619018495083">
        <ele>1011.9299999999999</ele>
        <time>2025-05-12T10:33:23Z</time>
      </trkpt>
      <trkpt lat="37.009210009127855" lon="-3.023559004068375">
        <ele>1011.4400000000001</ele>
        <time>2025-05-12T10:33:24Z</time>
      </trkpt>
      <trkpt lat="37.009351998567581" lon="-3.023501001298428">
        <ele>1010.48</ele>
        <time>2025-05-12T10:33:25Z</time>
      </trkpt>
      <trkpt lat="37.009474961087108" lon="-3.023431012406945">
        <ele>1010</ele>
        <time>2025-05-12T10:33:26Z</time>
      </trkpt>
      <trkpt lat="37.009584009647369" lon="-3.023348031565547">
        <ele>1009.04</ele>
        <time>2025-05-12T10:33:27Z</time>
      </trkpt>
      <trkpt lat="37.009777966886759" lon="-3.023200007155538">
        <ele>1007.12</ele>
        <time>2025-05-12T10:33:29Z</time>
      </trkpt>
      <trkpt lat="37.009871006011963" lon="-3.023129012435675">
        <ele>1006.16</ele>
        <time>2025-05-12T10:33:30Z</time>
      </trkpt>
      <trkpt lat="37.009964967146516" lon="-3.023138986900449">
        <ele>1004.72</ele>
        <time>2025-05-12T10:33:31Z</time>
      </trkpt>
      <trkpt lat="37.010087007656693" lon="-3.0231639649719">
        <ele>1003.75</ele>
        <time>2025-05-12T10:33:32Z</time>
      </trkpt>
      <trkpt lat="37.010199995711446" lon="-3.023234959691763">
        <ele>1002.79</ele>
        <time>2025-05-12T10:33:33Z</time>
      </trkpt>
      <trkpt lat="37.010320024564862" lon="-3.023310983553529">
        <ele>1001.83</ele>
        <time>2025-05-12T10:33:34Z</time>
      </trkpt>
      <trkpt lat="37.010447010397911" lon="-3.023391030728817">
        <ele>1000.39</ele>
        <time>2025-05-12T10:33:35Z</time>
      </trkpt>
      <trkpt lat="37.011192999780178" lon="-3.023733012378216">
        <ele>994.62</ele>
        <time>2025-05-12T10:33:41Z</time>
      </trkpt>
      <trkpt lat="37.011452000588179" lon="-3.023733012378216">
        <ele>991.74000000000001</ele>
        <time>2025-05-12T10:33:44Z</time>
      </trkpt>
      <trkpt lat="37.011459963396192" lon="-3.023725971579552">
        <ele>991.25999999999999</ele>
        <time>2025-05-12T10:33:45Z</time>
      </trkpt>
      <trkpt lat="37.011479996144772" lon="-3.023636033758521">
        <ele>990.77999999999997</ele>
        <time>2025-05-12T10:33:46Z</time>
      </trkpt>
      <trkpt lat="37.011502040550113" lon="-3.023535031825304">
        <ele>990.77999999999997</ele>
        <time>2025-05-12T10:33:47Z</time>
      </trkpt>
      <trkpt lat="37.011493993923068" lon="-3.02341902628541">
        <ele>990.77999999999997</ele>
        <time>2025-05-12T10:33:48Z</time>
      </trkpt>
      <trkpt lat="37.011487036943436" lon="-3.02331299521029">
        <ele>990.77999999999997</ele>
        <time>2025-05-12T10:33:49Z</time>
      </trkpt>
      <trkpt lat="37.011490976437926" lon="-3.023193972185254">
        <ele>991.25999999999999</ele>
        <time>2025-05-12T10:33:50Z</time>
      </trkpt>
      <trkpt lat="37.011549985036254" lon="-3.023082995787263">
        <ele>990.77999999999997</ele>
        <time>2025-05-12T10:33:51Z</time>
      </trkpt>
      <trkpt lat="37.011628020554781" lon="-3.023035973310471">
        <ele>990.77999999999997</ele>
        <time>2025-05-12T10:33:52Z</time>
      </trkpt>
      <trkpt lat="37.01171301305294" lon="-3.022985011339188">
        <ele>991.25999999999999</ele>
        <time>2025-05-12T10:33:53Z</time>
      </trkpt>
      <trkpt lat="37.011802028864622" lon="-3.022932037711144">
        <ele>991.25999999999999</ele>
        <time>2025-05-12T10:33:54Z</time>
      </trkpt>
      <trkpt lat="37.012081984430552" lon="-3.022763980552554">
        <ele>991.25999999999999</ele>
        <time>2025-05-12T10:33:57Z</time>
      </trkpt>
      <trkpt lat="37.012296980246902" lon="-3.022590978071094">
        <ele>992.22000000000003</ele>
        <time>2025-05-12T10:34:00Z</time>
      </trkpt>
      <trkpt lat="37.012403011322021" lon="-3.022505985572934">
        <ele>992.22000000000003</ele>
        <time>2025-05-12T10:34:01Z</time>
      </trkpt>
      <trkpt lat="37.012461014091969" lon="-3.022505985572934">
        <ele>991.25999999999999</ele>
        <time>2025-05-12T10:34:02Z</time>
      </trkpt>
      <trkpt lat="37.012568973004818" lon="-3.022513026371598">
        <ele>990.77999999999997</ele>
        <time>2025-05-12T10:34:03Z</time>
      </trkpt>
      <trkpt lat="37.012673998251557" lon="-3.022556025534868">
        <ele>989.80999999999995</ele>
        <time>2025-05-12T10:34:04Z</time>
      </trkpt>
      <trkpt lat="37.012773994356394" lon="-3.022598018869758">
        <ele>988.85000000000002</ele>
        <time>2025-05-12T10:34:05Z</time>
      </trkpt>
      <trkpt lat="37.012843983247876" lon="-3.022597013041377">
        <ele>988.37</ele>
        <time>2025-05-12T10:34:06Z</time>
      </trkpt>
      <trkpt lat="37.012914977967739" lon="-3.022546973079443">
        <ele>987.88999999999999</ele>
        <time>2025-05-12T10:34:07Z</time>
      </trkpt>
      <trkpt lat="37.012982033193111" lon="-3.022458963096142">
        <ele>987.40999999999997</ele>
        <time>2025-05-12T10:34:08Z</time>
      </trkpt>
      <trkpt lat="37.013055039569736" lon="-3.022362990304828">
        <ele>987.40999999999997</ele>
        <time>2025-05-12T10:34:09Z</time>
      </trkpt>
      <trkpt lat="37.013199040666223" lon="-3.02217397838831">
        <ele>986.92999999999995</ele>
        <time>2025-05-12T10:34:11Z</time>
      </trkpt>
      <trkpt lat="37.013267017900944" lon="-3.022098038345575">
        <ele>986.45000000000005</ele>
        <time>2025-05-12T10:34:12Z</time>
      </trkpt>
      <trkpt lat="37.013347987085581" lon="-3.022034000605345">
        <ele>985.97000000000003</ele>
        <time>2025-05-12T10:34:13Z</time>
      </trkpt>
      <trkpt lat="37.013437002897263" lon="-3.022040035575628">
        <ele>985.00999999999999</ele>
        <time>2025-05-12T10:34:14Z</time>
      </trkpt>
      <trkpt lat="37.01353800483048" lon="-3.02204598672688">
        <ele>984.52999999999997</ele>
        <time>2025-05-12T10:34:15Z</time>
      </trkpt>
      <trkpt lat="37.01364504173398" lon="-3.022053027525544">
        <ele>984.04999999999995</ele>
        <time>2025-05-12T10:34:16Z</time>
      </trkpt>
      <trkpt lat="37.013755012303591" lon="-3.022059984505177">
        <ele>983.57000000000005</ele>
        <time>2025-05-12T10:34:17Z</time>
      </trkpt>
      <trkpt lat="37.013865988701582" lon="-3.022068031132221">
        <ele>983.09000000000003</ele>
        <time>2025-05-12T10:34:18Z</time>
      </trkpt>
      <trkpt lat="37.013978976756334" lon="-3.022074988111854">
        <ele>982.12</ele>
        <time>2025-05-12T10:34:19Z</time>
      </trkpt>
      <trkpt lat="37.014092970639467" lon="-3.022103989496827">
        <ele>981.63999999999999</ele>
        <time>2025-05-12T10:34:20Z</time>
      </trkpt>
      <trkpt lat="37.014688001945615" lon="-3.02221798337996">
        <ele>977.79999999999995</ele>
        <time>2025-05-12T10:34:25Z</time>
      </trkpt>
      <trkpt lat="37.014810964465141" lon="-3.022204991430044">
        <ele>977.32000000000005</ele>
        <time>2025-05-12T10:34:26Z</time>
      </trkpt>
      <trkpt lat="37.015241039916873" lon="-3.022162998095155">
        <ele>974.42999999999995</ele>
        <time>2025-05-12T10:34:30Z</time>
      </trkpt>
      <trkpt lat="37.015343969687819" lon="-3.022129973396659">
        <ele>973.47000000000003</ele>
        <time>2025-05-12T10:34:31Z</time>
      </trkpt>
      <trkpt lat="37.015410019084811" lon="-3.022026037797332">
        <ele>972.99000000000001</ele>
        <time>2025-05-12T10:34:32Z</time>
      </trkpt>
      <trkpt lat="37.015428962185979" lon="-3.021917995065451">
        <ele>972.02999999999997</ele>
        <time>2025-05-12T10:34:33Z</time>
      </trkpt>
      <trkpt lat="37.015428962185979" lon="-3.02183099091053">
        <ele>971.07000000000005</ele>
        <time>2025-05-12T10:34:34Z</time>
      </trkpt>
      <trkpt lat="37.015373976901174" lon="-3.021737029775977">
        <ele>970.11000000000001</ele>
        <time>2025-05-12T10:34:35Z</time>
      </trkpt>
      <trkpt lat="37.015313962474465" lon="-3.021675003692508">
        <ele>969.14999999999998</ele>
        <time>2025-05-12T10:34:36Z</time>
      </trkpt>
      <trkpt lat="37.015342963859439" lon="-3.021691013127565">
        <ele>967.70000000000005</ele>
        <time>2025-05-12T10:34:37Z</time>
      </trkpt>
      <trkpt lat="37.015163004398346" lon="-3.021594034507871">
        <ele>965.29999999999995</ele>
        <time>2025-05-12T10:34:38Z</time>
      </trkpt>
      <trkpt lat="37.015056973323226" lon="-3.021535025909543">
        <ele>963.86000000000001</ele>
        <time>2025-05-12T10:34:39Z</time>
      </trkpt>
      <trkpt lat="37.014968963339925" lon="-3.021461013704538">
        <ele>961.94000000000005</ele>
        <time>2025-05-12T10:34:40Z</time>
      </trkpt>
      <trkpt lat="37.014881959185004" lon="-3.021389013156295">
        <ele>960.00999999999999</ele>
        <time>2025-05-12T10:34:41Z</time>
      </trkpt>
      <trkpt lat="37.014683978632092" lon="-3.021189020946622">
        <ele>959.52999999999997</ele>
        <time>2025-05-12T10:34:43Z</time>
      </trkpt>
      <trkpt lat="37.014594040811062" lon="-3.021089024841785">
        <ele>960.49000000000001</ele>
        <time>2025-05-12T10:34:44Z</time>
      </trkpt>
      <trkpt lat="37.014506030827761" lon="-3.020991962403059">
        <ele>960.00999999999999</ele>
        <time>2025-05-12T10:34:45Z</time>
      </trkpt>
      <trkpt lat="37.01439899392426" lon="-3.020838992670178">
        <ele>960.00999999999999</ele>
        <time>2025-05-12T10:34:46Z</time>
      </trkpt>
      <trkpt lat="37.014350965619087" lon="-3.020708989351988">
        <ele>959.52999999999997</ele>
        <time>2025-05-12T10:34:47Z</time>
      </trkpt>
      <trkpt lat="37.014300003647804" lon="-3.020573034882546">
        <ele>960.49000000000001</ele>
        <time>2025-05-12T10:34:48Z</time>
      </trkpt>
      <trkpt lat="37.01420595869422" lon="-3.020317973569036">
        <ele>961.94000000000005</ele>
        <time>2025-05-12T10:34:50Z</time>
      </trkpt>
      <trkpt lat="37.014148039743304" lon="-3.020216971635819">
        <ele>962.41999999999996</ele>
        <time>2025-05-12T10:34:51Z</time>
      </trkpt>
      <trkpt lat="37.01411996036768" lon="-3.020167015492916">
        <ele>963.38</ele>
        <time>2025-05-12T10:34:52Z</time>
      </trkpt>
      <trkpt lat="37.014033040031791" lon="-3.020107001066208">
        <ele>964.34000000000003</ele>
        <time>2025-05-12T10:34:53Z</time>
      </trkpt>
      <trkpt lat="37.01394603587687" lon="-3.0200469866395">
        <ele>966.25999999999999</ele>
        <time>2025-05-12T10:34:54Z</time>
      </trkpt>
      <trkpt lat="37.01385903172195" lon="-3.019985966384411">
        <ele>967.70000000000005</ele>
        <time>2025-05-12T10:34:55Z</time>
      </trkpt>
      <trkpt lat="37.013768004253507" lon="-3.019924024119973">
        <ele>969.14999999999998</ele>
        <time>2025-05-12T10:34:56Z</time>
      </trkpt>
      <trkpt lat="37.01334597542882" lon="-3.019630992785096">
        <ele>974.90999999999997</ele>
        <time>2025-05-12T10:35:00Z</time>
      </trkpt>
      <trkpt lat="37.013233993202448" lon="-3.019490009173751">
        <ele>976.36000000000001</ele>
        <time>2025-05-12T10:35:01Z</time>
      </trkpt>
      <trkpt lat="37.013185964897275" lon="-3.019362017512322">
        <ele>977.79999999999995</ele>
        <time>2025-05-12T10:35:02Z</time>
      </trkpt>
      <trkpt lat="37.013162998482585" lon="-3.019245006144047">
        <ele>979.24000000000001</ele>
        <time>2025-05-12T10:35:03Z</time>
      </trkpt>
      <trkpt lat="37.013137014582753" lon="-3.019111985340715">
        <ele>980.67999999999995</ele>
        <time>2025-05-12T10:35:04Z</time>
      </trkpt>
      <trkpt lat="37.013084040954709" lon="-3.019040990620852">
        <ele>981.63999999999999</ele>
        <time>2025-05-12T10:35:05Z</time>
      </trkpt>
      <trkpt lat="37.012983961030841" lon="-3.018933031708002">
        <ele>983.09000000000003</ele>
        <time>2025-05-12T10:35:06Z</time>
      </trkpt>
      <trkpt lat="37.012876002117991" lon="-3.018816020339727">
        <ele>985.00999999999999</ele>
        <time>2025-05-12T10:35:07Z</time>
      </trkpt>
      <trkpt lat="37.011843016371131" lon="-3.017873978242278">
        <ele>994.62</ele>
        <time>2025-05-12T10:35:14Z</time>
      </trkpt>
      <trkpt lat="37.011539004743099" lon="-3.017709022387862">
        <ele>997.50999999999999</ele>
        <time>2025-05-12T10:35:16Z</time>
      </trkpt>
      <trkpt lat="37.011384023353457" lon="-3.017666023224592">
        <ele>998.95000000000005</ele>
        <time>2025-05-12T10:35:17Z</time>
      </trkpt>
      <trkpt lat="37.011232981458306" lon="-3.017642972990871">
        <ele>1000.87</ele>
        <time>2025-05-12T10:35:18Z</time>
      </trkpt>
      <trkpt lat="37.010958977043629" lon="-3.017565021291375">
        <ele>1003.75</ele>
        <time>2025-05-12T10:35:20Z</time>
      </trkpt>
      <trkpt lat="37.010851018130779" lon="-3.017507018521428">
        <ele>1005.2</ele>
        <time>2025-05-12T10:35:21Z</time>
      </trkpt>
      <trkpt lat="37.010673992335796" lon="-3.017392018809915">
        <ele>1008.5599999999999</ele>
        <time>2025-05-12T10:35:23Z</time>
      </trkpt>
      <trkpt lat="37.010539965704083" lon="-3.017270984128118">
        <ele>1010.96</ele>
        <time>2025-05-12T10:35:25Z</time>
      </trkpt>
      <trkpt lat="37.010497972369194" lon="-3.017209963873029">
        <ele>1012.41</ele>
        <time>2025-05-12T10:35:26Z</time>
      </trkpt>
      <trkpt lat="37.010461008176208" lon="-3.017128994688392">
        <ele>1013.37</ele>
        <time>2025-05-12T10:35:27Z</time>
      </trkpt>
      <trkpt lat="37.010423960164189" lon="-3.017049031332135">
        <ele>1014.8099999999999</ele>
        <time>2025-05-12T10:35:28Z</time>
      </trkpt>
      <trkpt lat="37.010396970435977" lon="-3.016978958621621">
        <ele>1015.77</ele>
        <time>2025-05-12T10:35:29Z</time>
      </trkpt>
      <trkpt lat="37.010320024564862" lon="-3.016732027754188">
        <ele>1020.58</ele>
        <time>2025-05-12T10:35:33Z</time>
      </trkpt>
      <trkpt lat="37.010286999866366" lon="-3.016614010557532">
        <ele>1023.46</ele>
        <time>2025-05-12T10:35:35Z</time>
      </trkpt>
      <trkpt lat="37.010221034288406" lon="-3.016403038054705">
        <ele>1026.3399999999999</ele>
        <time>2025-05-12T10:35:38Z</time>
      </trkpt>
      <trkpt lat="37.009910987690091" lon="-3.015667023137212">
        <ele>1033.55</ele>
        <time>2025-05-12T10:35:47Z</time>
      </trkpt>
      <trkpt lat="37.009871006011963" lon="-3.015574989840388">
        <ele>1034.52</ele>
        <time>2025-05-12T10:35:48Z</time>
      </trkpt>
      <trkpt lat="37.009738991037011" lon="-3.014992028474808">
        <ele>1035.96</ele>
        <time>2025-05-12T10:35:54Z</time>
      </trkpt>
      <trkpt lat="37.009717030450702" lon="-3.014870993793011">
        <ele>1035.96</ele>
        <time>2025-05-12T10:35:55Z</time>
      </trkpt>
      <trkpt lat="37.009687023237348" lon="-3.01476001739502">
        <ele>1035.96</ele>
        <time>2025-05-12T10:35:56Z</time>
      </trkpt>
      <trkpt lat="37.009658021852374" lon="-3.014652980491519">
        <ele>1035.96</ele>
        <time>2025-05-12T10:35:57Z</time>
      </trkpt>
      <trkpt lat="37.009634971618652" lon="-3.014566982164979">
        <ele>1036.4400000000001</ele>
        <time>2025-05-12T10:35:58Z</time>
      </trkpt>
      <trkpt lat="37.009454006329179" lon="-3.014007993042469">
        <ele>1039.3199999999999</ele>
        <time>2025-05-12T10:36:04Z</time>
      </trkpt>
      <trkpt lat="37.009361973032355" lon="-3.013950996100903">
        <ele>1039.8</ele>
        <time>2025-05-12T10:36:05Z</time>
      </trkpt>
      <trkpt lat="37.009080005809665" lon="-3.013380020856857">
        <ele>1041.73</ele>
        <time>2025-05-12T10:36:12Z</time>
      </trkpt>
      <trkpt lat="37.008884036913514" lon="-3.01312898285687">
        <ele>1041.25</ele>
        <time>2025-05-12T10:36:16Z</time>
      </trkpt>
      <trkpt lat="37.008826034143567" lon="-3.013038039207459">
        <ele>1040.76</ele>
        <time>2025-05-12T10:36:17Z</time>
      </trkpt>
      <trkpt lat="37.008784040808678" lon="-3.012972995638847">
        <ele>1040.28</ele>
        <time>2025-05-12T10:36:18Z</time>
      </trkpt>
      <trkpt lat="37.008744981139898" lon="-3.012911975383759">
        <ele>1039.8</ele>
        <time>2025-05-12T10:36:19Z</time>
      </trkpt>
      <trkpt lat="37.008702987805009" lon="-3.012847015634179">
        <ele>1039.3199999999999</ele>
        <time>2025-05-12T10:36:20Z</time>
      </trkpt>
      <trkpt lat="37.008683038875461" lon="-3.012779960408807">
        <ele>1038.8399999999999</ele>
        <time>2025-05-12T10:36:21Z</time>
      </trkpt>
      <trkpt lat="37.008668035268784" lon="-3.012692034244537">
        <ele>1037.8800000000001</ele>
        <time>2025-05-12T10:36:22Z</time>
      </trkpt>
      <trkpt lat="37.008654037490487" lon="-3.012603018432856">
        <ele>1037.4000000000001</ele>
        <time>2025-05-12T10:36:23Z</time>
      </trkpt>
      <trkpt lat="37.008658982813358" lon="-3.012524982914329">
        <ele>1036.9200000000001</ele>
        <time>2025-05-12T10:36:24Z</time>
      </trkpt>
      <trkpt lat="37.008675998076797" lon="-3.012447031214833">
        <ele>1036.9200000000001</ele>
        <time>2025-05-12T10:36:25Z</time>
      </trkpt>
      <trkpt lat="37.008695024996996" lon="-3.012365978211165">
        <ele>1036.4400000000001</ele>
        <time>2025-05-12T10:36:26Z</time>
      </trkpt>
      <trkpt lat="37.008749004453421" lon="-3.012185012921691">
        <ele>1036.4400000000001</ele>
        <time>2025-05-12T10:36:28Z</time>
      </trkpt>
      <trkpt lat="37.008749004453421" lon="-3.012185012921691">
        <ele>1036.4400000000001</ele>
        <time>2025-05-12T10:36:29Z</time>
      </trkpt>
      <trkpt lat="37.008771970868111" lon="-3.01169098354876">
        <ele>1035.96</ele>
        <time>2025-05-12T10:36:33Z</time>
      </trkpt>
      <trkpt lat="37.008773982524872" lon="-3.011635998263955">
        <ele>1035.96</ele>
        <time>2025-05-12T10:36:34Z</time>
      </trkpt>
      <trkpt lat="37.008775994181633" lon="-3.011597022414208">
        <ele>1035.96</ele>
        <time>2025-05-12T10:36:35Z</time>
      </trkpt>
      <trkpt lat="37.008777000010014" lon="-3.011566009372473">
        <ele>1035.96</ele>
        <time>2025-05-12T10:36:36Z</time>
      </trkpt>
      <trkpt lat="37.008777000010014" lon="-3.011528039351106">
        <ele>1035.96</ele>
        <time>2025-05-12T10:36:37Z</time>
      </trkpt>
      <trkpt lat="37.008777000010014" lon="-3.011433994397521">
        <ele>1036.4400000000001</ele>
        <time>2025-05-12T10:36:38Z</time>
      </trkpt>
      <trkpt lat="37.008823016658425" lon="-3.011411027982831">
        <ele>1036.4400000000001</ele>
        <time>2025-05-12T10:36:39Z</time>
      </trkpt>
      <trkpt lat="37.008867021650076" lon="-3.011385966092348">
        <ele>1036.4400000000001</ele>
        <time>2025-05-12T10:36:40Z</time>
      </trkpt>
      <trkpt lat="37.008913038298488" lon="-3.01132402382791">
        <ele>1036.4400000000001</ele>
        <time>2025-05-12T10:36:41Z</time>
      </trkpt>
      <trkpt lat="37.008991995826364" lon="-3.011220004409552">
        <ele>1036.9200000000001</ele>
        <time>2025-05-12T10:36:42Z</time>
      </trkpt>
      <trkpt lat="37.008999036625028" lon="-3.011154960840941">
        <ele>1037.4000000000001</ele>
        <time>2025-05-12T10:36:43Z</time>
      </trkpt>
      <trkpt lat="37.009014040231705" lon="-3.011034009978175">
        <ele>1037.8800000000001</ele>
        <time>2025-05-12T10:36:44Z</time>
      </trkpt>
      <trkpt lat="37.00902896001935" lon="-3.010907024145126">
        <ele>1038.8399999999999</ele>
        <time>2025-05-12T10:36:45Z</time>
      </trkpt>
      <trkpt lat="37.009043963626027" lon="-3.010779032483697">
        <ele>1038.8399999999999</ele>
        <time>2025-05-12T10:36:46Z</time>
      </trkpt>
      <trkpt lat="37.009071037173271" lon="-3.0106579978019">
        <ele>1039.3199999999999</ele>
        <time>2025-05-12T10:36:47Z</time>
      </trkpt>
      <trkpt lat="37.009133985266089" lon="-3.010553978383541">
        <ele>1039.8</ele>
        <time>2025-05-12T10:36:48Z</time>
      </trkpt>
      <trkpt lat="37.009201040491462" lon="-3.010449036955833">
        <ele>1040.76</ele>
        <time>2025-05-12T10:36:49Z</time>
      </trkpt>
      <trkpt lat="37.009270023554564" lon="-3.010338982567191">
        <ele>1041.25</ele>
        <time>2025-05-12T10:36:50Z</time>
      </trkpt>
      <trkpt lat="37.009433973580599" lon="-3.010124992579222">
        <ele>1043.1700000000001</ele>
        <time>2025-05-12T10:36:52Z</time>
      </trkpt>
      <trkpt lat="37.009525001049042" lon="-3.010053997859359">
        <ele>1044.1300000000001</ele>
        <time>2025-05-12T10:36:53Z</time>
      </trkpt>
      <trkpt lat="37.009635977447033" lon="-3.010029019787908">
        <ele>1045.0899999999999</ele>
        <time>2025-05-12T10:36:54Z</time>
      </trkpt>
      <trkpt lat="37.009734967723489" lon="-3.010082999244332">
        <ele>1046.05</ele>
        <time>2025-05-12T10:36:55Z</time>
      </trkpt>
      <trkpt lat="37.009786013513803" lon="-3.010147036984563">
        <ele>1047.01</ele>
        <time>2025-05-12T10:36:56Z</time>
      </trkpt>
      <trkpt lat="37.009804034605622" lon="-3.010291960090399">
        <ele>1048.9400000000001</ele>
        <time>2025-05-12T10:36:57Z</time>
      </trkpt>
      <trkpt lat="37.009780984371901" lon="-3.010387010872364">
        <ele>1050.3800000000001</ele>
        <time>2025-05-12T10:36:58Z</time>
      </trkpt>
      <trkpt lat="37.009735973551869" lon="-3.010504022240639">
        <ele>1051.8199999999999</ele>
        <time>2025-05-12T10:36:59Z</time>
      </trkpt>
      <trkpt lat="37.009686017408967" lon="-3.010633019730449">
        <ele>1053.74</ele>
        <time>2025-05-12T10:37:00Z</time>
      </trkpt>
      <trkpt lat="37.009632959961891" lon="-3.010771991685033">
        <ele>1055.1800000000001</ele>
        <time>2025-05-12T10:37:01Z</time>
      </trkpt>
      <trkpt lat="37.009605970233679" lon="-3.0109360255301">
        <ele>1056.6300000000001</ele>
        <time>2025-05-12T10:37:02Z</time>
      </trkpt>
      <trkpt lat="37.009643018245697" lon="-3.011096036061645">
        <ele>1058.0699999999999</ele>
        <time>2025-05-12T10:37:03Z</time>
      </trkpt>
      <trkpt lat="37.009702026844025" lon="-3.011245988309383">
        <ele>1059.03</ele>
        <time>2025-05-12T10:37:04Z</time>
      </trkpt>
      <trkpt lat="37.009778972715139" lon="-3.01138998940587">
        <ele>1060.47</ele>
        <time>2025-05-12T10:37:05Z</time>
      </trkpt>
      <trkpt lat="37.009879974648356" lon="-3.011524016037583">
        <ele>1061.4300000000001</ele>
        <time>2025-05-12T10:37:06Z</time>
      </trkpt>
      <trkpt lat="37.009978964924812" lon="-3.011663993820548">
        <ele>1062.8699999999999</ele>
        <time>2025-05-12T10:37:07Z</time>
      </trkpt>
      <trkpt lat="37.010418009012938" lon="-3.012405037879944">
        <ele>1072.01</ele>
        <time>2025-05-12T10:37:13Z</time>
      </trkpt>
      <trkpt lat="37.010716991499066" lon="-3.013224033638835">
        <ele>1081.1400000000001</ele>
        <time>2025-05-12T10:37:20Z</time>
      </trkpt>
      <trkpt lat="37.010740963742137" lon="-3.013374991714954">
        <ele>1082.0999999999999</ele>
        <time>2025-05-12T10:37:21Z</time>
      </trkpt>
      <trkpt lat="37.010785974562168" lon="-3.013656036928296">
        <ele>1083.54</ele>
        <time>2025-05-12T10:37:23Z</time>
      </trkpt>
      <trkpt lat="37.010828973725438" lon="-3.013784028589726">
        <ele>1084.5</ele>
        <time>2025-05-12T10:37:24Z</time>
      </trkpt>
      <trkpt lat="37.010888988152146" lon="-3.013911014422774">
        <ele>1085.95</ele>
        <time>2025-05-12T10:37:25Z</time>
      </trkpt>
      <trkpt lat="37.011316968128085" lon="-3.014698997139931">
        <ele>1092.6800000000001</ele>
        <time>2025-05-12T10:37:31Z</time>
      </trkpt>
      <trkpt lat="37.011415958404541" lon="-3.014781977981329">
        <ele>1093.6400000000001</ele>
        <time>2025-05-12T10:37:32Z</time>
      </trkpt>
      <trkpt lat="37.011473039165139" lon="-3.014799999073148">
        <ele>1094.5999999999999</ele>
        <time>2025-05-12T10:37:33Z</time>
      </trkpt>
      <trkpt lat="37.011545039713383" lon="-3.014738978818059">
        <ele>1095.5599999999999</ele>
        <time>2025-05-12T10:37:34Z</time>
      </trkpt>
      <trkpt lat="37.011612011119723" lon="-3.014672007411718">
        <ele>1096.52</ele>
        <time>2025-05-12T10:37:35Z</time>
      </trkpt>
      <trkpt lat="37.011643024161458" lon="-3.014538986608386">
        <ele>1097.48</ele>
        <time>2025-05-12T10:37:36Z</time>
      </trkpt>
      <trkpt lat="37.011619973927736" lon="-3.014398002997041">
        <ele>1098.9200000000001</ele>
        <time>2025-05-12T10:37:37Z</time>
      </trkpt>
      <trkpt lat="37.011553002521396" lon="-3.014283003285527">
        <ele>1100.3699999999999</ele>
        <time>2025-05-12T10:37:38Z</time>
      </trkpt>
      <trkpt lat="37.01147798448801" lon="-3.014152999967337">
        <ele>1101.3299999999999</ele>
        <time>2025-05-12T10:37:39Z</time>
      </trkpt>
      <trkpt lat="37.011400032788515" lon="-3.014017967507243">
        <ele>1102.77</ele>
        <time>2025-05-12T10:37:40Z</time>
      </trkpt>
      <trkpt lat="37.01136901974678" lon="-3.013868015259504">
        <ele>1104.21</ele>
        <time>2025-05-12T10:37:41Z</time>
      </trkpt>
      <trkpt lat="37.011362984776497" lon="-3.013739017769694">
        <ele>1105.1700000000001</ele>
        <time>2025-05-12T10:37:42Z</time>
      </trkpt>
      <trkpt lat="37.011403972283006" lon="-3.013615971431136">
        <ele>1106.6099999999999</ele>
        <time>2025-05-12T10:37:43Z</time>
      </trkpt>
      <trkpt lat="37.011470021679997" lon="-3.013517986983061">
        <ele>1107.5799999999999</ele>
        <time>2025-05-12T10:37:44Z</time>
      </trkpt>
      <trkpt lat="37.011560965329409" lon="-3.013411033898592">
        <ele>1109.02</ele>
        <time>2025-05-12T10:37:45Z</time>
      </trkpt>
      <trkpt lat="37.011746959760785" lon="-3.013143986463547">
        <ele>1111.4200000000001</ele>
        <time>2025-05-12T10:37:47Z</time>
      </trkpt>
      <trkpt lat="37.011823989450932" lon="-3.01300099119544">
        <ele>1112.3800000000001</ele>
        <time>2025-05-12T10:37:48Z</time>
      </trkpt>
      <trkpt lat="37.011875035241246" lon="-3.012809967622161">
        <ele>1113.3399999999999</ele>
        <time>2025-05-12T10:37:49Z</time>
      </trkpt>
      <trkpt lat="37.011919962242246" lon="-3.012639982625842">
        <ele>1114.79</ele>
        <time>2025-05-12T10:37:50Z</time>
      </trkpt>
      <trkpt lat="37.011960027739406" lon="-3.012491036206484">
        <ele>1115.75</ele>
        <time>2025-05-12T10:37:51Z</time>
      </trkpt>
      <trkpt lat="37.011995986104012" lon="-3.012357009574771">
        <ele>1116.71</ele>
        <time>2025-05-12T10:37:52Z</time>
      </trkpt>
      <trkpt lat="37.012065974995494" lon="-3.012233041226864">
        <ele>1117.6700000000001</ele>
        <time>2025-05-12T10:37:53Z</time>
      </trkpt>
      <trkpt lat="37.012161025777459" lon="-3.012137990444899">
        <ele>1118.6300000000001</ele>
        <time>2025-05-12T10:37:54Z</time>
      </trkpt>
      <trkpt lat="37.01227200217545" lon="-3.012042017653585">
        <ele>1119.5899999999999</ele>
        <time>2025-05-12T10:37:55Z</time>
      </trkpt>
      <trkpt lat="37.01238096691668" lon="-3.011946966871619">
        <ele>1120.55</ele>
        <time>2025-05-12T10:37:56Z</time>
      </trkpt>
      <trkpt lat="37.012451961636543" lon="-3.011801037937403">
        <ele>1122</ele>
        <time>2025-05-12T10:37:57Z</time>
      </trkpt>
      <trkpt lat="37.012510970234871" lon="-3.011641027405858">
        <ele>1123.4400000000001</ele>
        <time>2025-05-12T10:37:58Z</time>
      </trkpt>
      <trkpt lat="37.012506024912" lon="-3.011470958590508">
        <ele>1125.3599999999999</ele>
        <time>2025-05-12T10:37:59Z</time>
      </trkpt>
      <trkpt lat="37.012499989941716" lon="-3.011293010786176">
        <ele>1126.8</ele>
        <time>2025-05-12T10:38:00Z</time>
      </trkpt>
      <trkpt lat="37.012494960799813" lon="-3.011127971112728">
        <ele>1128.73</ele>
        <time>2025-05-12T10:38:01Z</time>
      </trkpt>
      <trkpt lat="37.012491021305323" lon="-3.01097902469337">
        <ele>1130.6500000000001</ele>
        <time>2025-05-12T10:38:02Z</time>
      </trkpt>
      <trkpt lat="37.012531002983451" lon="-3.010847009718418">
        <ele>1132.0899999999999</ele>
        <time>2025-05-12T10:38:03Z</time>
      </trkpt>
      <trkpt lat="37.012610966339707" lon="-3.010710971429944">
        <ele>1133.53</ele>
        <time>2025-05-12T10:38:04Z</time>
      </trkpt>
      <trkpt lat="37.012707022950053" lon="-3.010579040274024">
        <ele>1134.97</ele>
        <time>2025-05-12T10:38:05Z</time>
      </trkpt>
      <trkpt lat="37.012813976034522" lon="-3.010448031127453">
        <ele>1135.9400000000001</ele>
        <time>2025-05-12T10:38:06Z</time>
      </trkpt>
      <trkpt lat="37.012921012938023" lon="-3.010318027809262">
        <ele>1137.3800000000001</ele>
        <time>2025-05-12T10:38:07Z</time>
      </trkpt>
      <trkpt lat="37.013026038184762" lon="-3.010190036147833">
        <ele>1138.3399999999999</ele>
        <time>2025-05-12T10:38:08Z</time>
      </trkpt>
      <trkpt lat="37.013069037348032" lon="-3.010010998696089">
        <ele>1139.78</ele>
        <time>2025-05-12T10:38:09Z</time>
      </trkpt>
      <trkpt lat="37.013111030682921" lon="-3.009835984557867">
        <ele>1140.74</ele>
        <time>2025-05-12T10:38:10Z</time>
      </trkpt>
      <trkpt lat="37.013154029846191" lon="-3.009658036753535">
        <ele>1141.7</ele>
        <time>2025-05-12T10:38:11Z</time>
      </trkpt>
      <trkpt lat="37.013214966282248" lon="-3.009487967938185">
        <ele>1143.1400000000001</ele>
        <time>2025-05-12T10:38:12Z</time>
      </trkpt>
      <trkpt lat="37.013297025114298" lon="-3.00932502374053">
        <ele>1144.1099999999999</ele>
        <time>2025-05-12T10:38:13Z</time>
      </trkpt>
      <trkpt lat="37.013404984027147" lon="-3.009187979623675">
        <ele>1145.55</ele>
        <time>2025-05-12T10:38:14Z</time>
      </trkpt>
      <trkpt lat="37.013524007052183" lon="-3.009054036810994">
        <ele>1146.51</ele>
        <time>2025-05-12T10:38:15Z</time>
      </trkpt>
      <trkpt lat="37.013664990663528" lon="-3.008951023221016">
        <ele>1147.95</ele>
        <time>2025-05-12T10:38:16Z</time>
      </trkpt>
      <trkpt lat="37.013806980103254" lon="-3.008848009631038">
        <ele>1149.3900000000001</ele>
        <time>2025-05-12T10:38:17Z</time>
      </trkpt>
      <trkpt lat="37.013944024220109" lon="-3.008748013526201">
        <ele>1150.3499999999999</ele>
        <time>2025-05-12T10:38:18Z</time>
      </trkpt>
      <trkpt lat="37.014063969254494" lon="-3.00865899771452">
        <ele>1151.3199999999999</ele>
        <time>2025-05-12T10:38:19Z</time>
      </trkpt>
      <trkpt lat="37.014277037233114" lon="-3.008484989404678">
        <ele>1153.72</ele>
        <time>2025-05-12T10:38:21Z</time>
      </trkpt>
      <trkpt lat="37.014408968389034" lon="-3.00846403464675">
        <ele>1154.6800000000001</ele>
        <time>2025-05-12T10:38:22Z</time>
      </trkpt>
      <trkpt lat="37.014844994992018" lon="-3.008432015776634">
        <ele>1158.53</ele>
        <time>2025-05-12T10:38:25Z</time>
      </trkpt>
      <trkpt lat="37.01500098221004" lon="-3.008369989693165">
        <ele>1159.97</ele>
        <time>2025-05-12T10:38:26Z</time>
      </trkpt>
      <trkpt lat="37.015155041590333" lon="-3.008298994973302">
        <ele>1160.9300000000001</ele>
        <time>2025-05-12T10:38:27Z</time>
      </trkpt>
      <trkpt lat="37.015890972688794" lon="-3.00792801193893">
        <ele>1167.1800000000001</ele>
        <time>2025-05-12T10:38:32Z</time>
      </trkpt>
      <trkpt lat="37.016003038734198" lon="-3.007824998348951">
        <ele>1168.6199999999999</ele>
        <time>2025-05-12T10:38:33Z</time>
      </trkpt>
      <trkpt lat="37.016096999868751" lon="-3.007679991424084">
        <ele>1170.0599999999999</ele>
        <time>2025-05-12T10:38:34Z</time>
      </trkpt>
      <trkpt lat="37.016584994271398" lon="-3.006955040618777">
        <ele>1176.79</ele>
        <time>2025-05-12T10:38:39Z</time>
      </trkpt>
      <trkpt lat="37.017583027482033" lon="-3.006024984642863">
        <ele>1186.8800000000001</ele>
        <time>2025-05-12T10:38:47Z</time>
      </trkpt>
      <trkpt lat="37.017731973901391" lon="-3.005954995751381">
        <ele>1187.8499999999999</ele>
        <time>2025-05-12T10:38:48Z</time>
      </trkpt>
      <trkpt lat="37.017887961119413" lon="-3.005882995203137">
        <ele>1189.29</ele>
        <time>2025-05-12T10:38:49Z</time>
      </trkpt>
      <trkpt lat="37.018045037984848" lon="-3.005809988826513">
        <ele>1190.73</ele>
        <time>2025-05-12T10:38:50Z</time>
      </trkpt>
      <trkpt lat="37.018213011324406" lon="-3.005753997713327">
        <ele>1192.1700000000001</ele>
        <time>2025-05-12T10:38:51Z</time>
      </trkpt>
      <trkpt lat="37.019418999552727" lon="-3.005388965830207">
        <ele>1201.79</ele>
        <time>2025-05-12T10:38:58Z</time>
      </trkpt>
      <trkpt lat="37.019595019519329" lon="-3.005356024950743">
        <ele>1202.75</ele>
        <time>2025-05-12T10:38:59Z</time>
      </trkpt>
      <trkpt lat="37.019775984808803" lon="-3.005335992202163">
        <ele>1203.71</ele>
        <time>2025-05-12T10:39:00Z</time>
      </trkpt>
      <trkpt lat="37.020116960629821" lon="-3.005320988595486">
        <ele>1206.1099999999999</ele>
        <time>2025-05-12T10:39:02Z</time>
      </trkpt>
      <trkpt lat="37.020262973383069" lon="-3.00528796389699">
        <ele>1207.55</ele>
        <time>2025-05-12T10:39:03Z</time>
      </trkpt>
      <trkpt lat="37.020389037206769" lon="-3.005232978612185">
        <ele>1208.51</ele>
        <time>2025-05-12T10:39:04Z</time>
      </trkpt>
      <trkpt lat="37.020495990291238" lon="-3.005141029134393">
        <ele>1209.96</ele>
        <time>2025-05-12T10:39:05Z</time>
      </trkpt>
      <trkpt lat="37.020603027194738" lon="-3.00505000166595">
        <ele>1210.9200000000001</ele>
        <time>2025-05-12T10:39:06Z</time>
      </trkpt>
      <trkpt lat="37.020701011642814" lon="-3.00496500916779">
        <ele>1212.3599999999999</ele>
        <time>2025-05-12T10:39:07Z</time>
      </trkpt>
      <trkpt lat="37.020788015797734" lon="-3.004890996962786">
        <ele>1213.8</ele>
        <time>2025-05-12T10:39:08Z</time>
      </trkpt>
      <trkpt lat="37.020884994417429" lon="-3.004868030548096">
        <ele>1214.76</ele>
        <time>2025-05-12T10:39:09Z</time>
      </trkpt>
      <trkpt lat="37.020968981087208" lon="-3.004893008619547">
        <ele>1216.21</ele>
        <time>2025-05-12T10:39:10Z</time>
      </trkpt>
      <trkpt lat="37.02103896997869" lon="-3.004962997511029">
        <ele>1217.1700000000001</ele>
        <time>2025-05-12T10:39:11Z</time>
      </trkpt>
      <trkpt lat="37.021091021597385" lon="-3.005042038857937">
        <ele>1218.6099999999999</ele>
        <time>2025-05-12T10:39:12Z</time>
      </trkpt>
      <trkpt lat="37.021105019375682" lon="-3.005139017477632">
        <ele>1220.53</ele>
        <time>2025-05-12T10:39:13Z</time>
      </trkpt>
      <trkpt lat="37.021076017990708" lon="-3.005241025239229">
        <ele>1221.97</ele>
        <time>2025-05-12T10:39:14Z</time>
      </trkpt>
      <trkpt lat="37.021027989685535" lon="-3.005320988595486">
        <ele>1223.4200000000001</ele>
        <time>2025-05-12T10:39:15Z</time>
      </trkpt>
      <trkpt lat="37.020974010229111" lon="-3.005402041599155">
        <ele>1224.3800000000001</ele>
        <time>2025-05-12T10:39:16Z</time>
      </trkpt>
      <trkpt lat="37.020901003852487" lon="-3.005512012168765">
        <ele>1225.3399999999999</ele>
        <time>2025-05-12T10:39:17Z</time>
      </trkpt>
      <trkpt lat="37.020861022174358" lon="-3.005550988018513">
        <ele>1226.3</ele>
        <time>2025-05-12T10:39:18Z</time>
      </trkpt>
      <trkpt lat="37.020792961120605" lon="-3.005618965253234">
        <ele>1227.26</ele>
        <time>2025-05-12T10:39:19Z</time>
      </trkpt>
      <trkpt lat="37.020447961986065" lon="-3.005922976881266">
        <ele>1230.6199999999999</ele>
        <time>2025-05-12T10:39:24Z</time>
      </trkpt>
      <trkpt lat="37.019699960947037" lon="-3.006538040935993">
        <ele>1236.8699999999999</ele>
        <time>2025-05-12T10:39:33Z</time>
      </trkpt>
      <trkpt lat="37.018670998513699" lon="-3.007449992001057">
        <ele>1246.49</ele>
        <time>2025-05-12T10:39:42Z</time>
      </trkpt>
      <trkpt lat="37.018621964380145" lon="-3.007570020854473">
        <ele>1247.45</ele>
        <time>2025-05-12T10:39:43Z</time>
      </trkpt>
      <trkpt lat="37.018605032935739" lon="-3.007703041657805">
        <ele>1248.4100000000001</ele>
        <time>2025-05-12T10:39:44Z</time>
      </trkpt>
      <trkpt lat="37.018632022663951" lon="-3.007833966985345">
        <ele>1249.3699999999999</ele>
        <time>2025-05-12T10:39:45Z</time>
      </trkpt>
      <trkpt lat="37.018687007948756" lon="-3.007930023595691">
        <ele>1250.3299999999999</ele>
        <time>2025-05-12T10:39:46Z</time>
      </trkpt>
      <trkpt lat="37.018794966861606" lon="-3.007962964475155">
        <ele>1251.77</ele>
        <time>2025-05-12T10:39:47Z</time>
      </trkpt>
      <trkpt lat="37.018897980451584" lon="-3.007968999445438">
        <ele>1253.22</ele>
        <time>2025-05-12T10:39:48Z</time>
      </trkpt>
      <trkpt lat="37.019007029011846" lon="-3.007937986403704">
        <ele>1254.6600000000001</ele>
        <time>2025-05-12T10:39:49Z</time>
      </trkpt>
      <trkpt lat="37.01912697404623" lon="-3.007902028039098">
        <ele>1255.6199999999999</ele>
        <time>2025-05-12T10:39:50Z</time>
      </trkpt>
      <trkpt lat="37.019871035590768" lon="-3.007678985595703">
        <ele>1261.3900000000001</ele>
        <time>2025-05-12T10:39:55Z</time>
      </trkpt>
      <trkpt lat="37.020030040293932" lon="-3.007661970332265">
        <ele>1262.3499999999999</ele>
        <time>2025-05-12T10:39:56Z</time>
      </trkpt>
      <trkpt lat="37.020560028031468" lon="-3.00760698504746">
        <ele>1266.1900000000001</ele>
        <time>2025-05-12T10:39:59Z</time>
      </trkpt>
      <trkpt lat="37.020738981664181" lon="-3.007577983662486">
        <ele>1267.1600000000001</ele>
        <time>2025-05-12T10:40:00Z</time>
      </trkpt>
      <trkpt lat="37.021803986281157" lon="-3.007269026711583">
        <ele>1275.3299999999999</ele>
        <time>2025-05-12T10:40:06Z</time>
      </trkpt>
      <trkpt lat="37.021968020126224" lon="-3.007222004234791">
        <ele>1276.77</ele>
        <time>2025-05-12T10:40:07Z</time>
      </trkpt>
      <trkpt lat="37.022125013172626" lon="-3.007175987586379">
        <ele>1277.73</ele>
        <time>2025-05-12T10:40:08Z</time>
      </trkpt>
      <trkpt lat="37.022284017875791" lon="-3.007164001464844">
        <ele>1279.1700000000001</ele>
        <time>2025-05-12T10:40:09Z</time>
      </trkpt>
      <trkpt lat="37.022454002872109" lon="-3.007164001464844">
        <ele>1280.1300000000001</ele>
        <time>2025-05-12T10:40:10Z</time>
      </trkpt>
      <trkpt lat="37.022625999525189" lon="-3.007164001464844">
        <ele>1281.0899999999999</ele>
        <time>2025-05-12T10:40:11Z</time>
      </trkpt>
      <trkpt lat="37.022790033370256" lon="-3.007164001464844">
        <ele>1282.0599999999999</ele>
        <time>2025-05-12T10:40:12Z</time>
      </trkpt>
      <trkpt lat="37.022949038073421" lon="-3.007129970937967">
        <ele>1283.02</ele>
        <time>2025-05-12T10:40:13Z</time>
      </trkpt>
      <trkpt lat="37.023108964785933" lon="-3.007082026451826">
        <ele>1283.5</ele>
        <time>2025-05-12T10:40:14Z</time>
      </trkpt>
      <trkpt lat="37.023556977510452" lon="-3.006951017305255">
        <ele>1286.8599999999999</ele>
        <time>2025-05-12T10:40:17Z</time>
      </trkpt>
      <trkpt lat="37.023660996928811" lon="-3.006998961791396">
        <ele>1288.3</ele>
        <time>2025-05-12T10:40:18Z</time>
      </trkpt>
      <trkpt lat="37.023751018568873" lon="-3.007043972611427">
        <ele>1289.75</ele>
        <time>2025-05-12T10:40:19Z</time>
      </trkpt>
      <trkpt lat="37.023775996640325" lon="-3.007137011736631">
        <ele>1291.6700000000001</ele>
        <time>2025-05-12T10:40:20Z</time>
      </trkpt>
      <trkpt lat="37.023775996640325" lon="-3.007249999791384">
        <ele>1293.1099999999999</ele>
        <time>2025-05-12T10:40:21Z</time>
      </trkpt>
      <trkpt lat="37.023728974163532" lon="-3.007343038916588">
        <ele>1294.55</ele>
        <time>2025-05-12T10:40:22Z</time>
      </trkpt>
      <trkpt lat="37.023654039949179" lon="-3.007398024201393">
        <ele>1295.51</ele>
        <time>2025-05-12T10:40:23Z</time>
      </trkpt>
      <trkpt lat="37.023540968075395" lon="-3.00743498839438">
        <ele>1296.48</ele>
        <time>2025-05-12T10:40:24Z</time>
      </trkpt>
      <trkpt lat="37.023426974192262" lon="-3.007425013929606">
        <ele>1297.9200000000001</ele>
        <time>2025-05-12T10:40:25Z</time>
      </trkpt>
      <trkpt lat="37.023304011672735" lon="-3.007400035858154">
        <ele>1298.4000000000001</ele>
        <time>2025-05-12T10:40:26Z</time>
      </trkpt>
      <trkpt lat="37.023150958120823" lon="-3.007433982565999">
        <ele>1299.3599999999999</ele>
        <time>2025-05-12T10:40:27Z</time>
      </trkpt>
      <trkpt lat="37.023013997823" lon="-3.007512018084526">
        <ele>1300.3199999999999</ele>
        <time>2025-05-12T10:40:28Z</time>
      </trkpt>
      <trkpt lat="37.022918025031686" lon="-3.007634980604053">
        <ele>1301.76</ele>
        <time>2025-05-12T10:40:29Z</time>
      </trkpt>
      <trkpt lat="37.022845018655062" lon="-3.007781999185681">
        <ele>1302.72</ele>
        <time>2025-05-12T10:40:30Z</time>
      </trkpt>
      <trkpt lat="37.022777041420341" lon="-3.007946033030748">
        <ele>1304.1700000000001</ele>
        <time>2025-05-12T10:40:31Z</time>
      </trkpt>
      <trkpt lat="37.022684002295136" lon="-3.008085004985333">
        <ele>1305.6099999999999</ele>
        <time>2025-05-12T10:40:32Z</time>
      </trkpt>
      <trkpt lat="37.022571014240384" lon="-3.008171003311873">
        <ele>1306.5699999999999</ele>
        <time>2025-05-12T10:40:33Z</time>
      </trkpt>
      <trkpt lat="37.022438999265432" lon="-3.008228000253439">
        <ele>1307.53</ele>
        <time>2025-05-12T10:40:34Z</time>
      </trkpt>
      <trkpt lat="37.022185027599335" lon="-3.008336964994669">
        <ele>1308.97</ele>
        <time>2025-05-12T10:40:36Z</time>
      </trkpt>
      <trkpt lat="37.022125013172626" lon="-3.008436961099505">
        <ele>1309.9300000000001</ele>
        <time>2025-05-12T10:40:37Z</time>
      </trkpt>
      <trkpt lat="37.022081008180976" lon="-3.008537041023374">
        <ele>1310.4100000000001</ele>
        <time>2025-05-12T10:40:38Z</time>
      </trkpt>
      <trkpt lat="37.022081008180976" lon="-3.008633013814688">
        <ele>1311.8599999999999</ele>
        <time>2025-05-12T10:40:39Z</time>
      </trkpt>
      <trkpt lat="37.022138005122542" lon="-3.008710965514183">
        <ele>1312.8199999999999</ele>
        <time>2025-05-12T10:40:40Z</time>
      </trkpt>
      <trkpt lat="37.022229032590985" lon="-3.008758993819356">
        <ele>1313.78</ele>
        <time>2025-05-12T10:40:41Z</time>
      </trkpt>
      <trkpt lat="37.022339003160596" lon="-3.008779026567936">
        <ele>1315.22</ele>
        <time>2025-05-12T10:40:42Z</time>
      </trkpt>
      <trkpt lat="37.022460959851742" lon="-3.008799981325865">
        <ele>1315.7</ele>
        <time>2025-05-12T10:40:43Z</time>
      </trkpt>
      <trkpt lat="37.022886006161571" lon="-3.008858989924192">
        <ele>1319.55</ele>
        <time>2025-05-12T10:40:46Z</time>
      </trkpt>
      <trkpt lat="37.023045010864735" lon="-3.008834011852741">
        <ele>1320.99</ele>
        <time>2025-05-12T10:40:47Z</time>
      </trkpt>
      <trkpt lat="37.023205021396279" lon="-3.008771985769272">
        <ele>1322.4300000000001</ele>
        <time>2025-05-12T10:40:48Z</time>
      </trkpt>
      <trkpt lat="37.025262024253607" lon="-3.007922982797027">
        <ele>1339.25</ele>
        <time>2025-05-12T10:41:00Z</time>
      </trkpt>
      <trkpt lat="37.026890963315964" lon="-3.007299033924937">
        <ele>1351.75</ele>
        <time>2025-05-12T10:41:10Z</time>
      </trkpt>
      <trkpt lat="37.027006968855858" lon="-3.007325017824769">
        <ele>1352.71</ele>
        <time>2025-05-12T10:41:11Z</time>
      </trkpt>
      <trkpt lat="37.027082992717624" lon="-3.007411016151309">
        <ele>1353.6700000000001</ele>
        <time>2025-05-12T10:41:12Z</time>
      </trkpt>
      <trkpt lat="37.027110988274217" lon="-3.007527021691203">
        <ele>1354.6300000000001</ele>
        <time>2025-05-12T10:41:13Z</time>
      </trkpt>
      <trkpt lat="37.027122974395752" lon="-3.007635986432433">
        <ele>1356.0799999999999</ele>
        <time>2025-05-12T10:41:14Z</time>
      </trkpt>
      <trkpt lat="37.027079975232482" lon="-3.007764983922243">
        <ele>1357.52</ele>
        <time>2025-05-12T10:41:15Z</time>
      </trkpt>
      <trkpt lat="37.026998000219464" lon="-3.007809994742274">
        <ele>1358.48</ele>
        <time>2025-05-12T10:41:16Z</time>
      </trkpt>
      <trkpt lat="37.026887023821473" lon="-3.007872020825744">
        <ele>1359.4400000000001</ele>
        <time>2025-05-12T10:41:17Z</time>
      </trkpt>
      <trkpt lat="37.026764983311296" lon="-3.007876966148615">
        <ele>1360.4000000000001</ele>
        <time>2025-05-12T10:41:18Z</time>
      </trkpt>
      <trkpt lat="37.026611007750034" lon="-3.007884006947279">
        <ele>1361.3599999999999</ele>
        <time>2025-05-12T10:41:19Z</time>
      </trkpt>
      <trkpt lat="37.026455020532012" lon="-3.007889958098531">
        <ele>1362.8099999999999</ele>
        <time>2025-05-12T10:41:20Z</time>
      </trkpt>
      <trkpt lat="37.02632300555706" lon="-3.007933041080833">
        <ele>1364.25</ele>
        <time>2025-05-12T10:41:21Z</time>
      </trkpt>
      <trkpt lat="37.026212029159069" lon="-3.008021973073483">
        <ele>1365.6900000000001</ele>
        <time>2025-05-12T10:41:22Z</time>
      </trkpt>
      <trkpt lat="37.0261309761554" lon="-3.008137978613377">
        <ele>1367.1300000000001</ele>
        <time>2025-05-12T10:41:23Z</time>
      </trkpt>
      <trkpt lat="37.026070039719343" lon="-3.008307041600347">
        <ele>1368.5699999999999</ele>
        <time>2025-05-12T10:41:24Z</time>
      </trkpt>
      <trkpt lat="37.026004996150732" lon="-3.008485995233059">
        <ele>1369.54</ele>
        <time>2025-05-12T10:41:25Z</time>
      </trkpt>
      <trkpt lat="37.025956967845559" lon="-3.00868196412921">
        <ele>1370.98</ele>
        <time>2025-05-12T10:41:26Z</time>
      </trkpt>
      <trkpt lat="37.025913968682289" lon="-3.00889796577394">
        <ele>1372.4200000000001</ele>
        <time>2025-05-12T10:41:27Z</time>
      </trkpt>
      <trkpt lat="37.025879016146064" lon="-3.009073985740542">
        <ele>1373.8599999999999</ele>
        <time>2025-05-12T10:41:28Z</time>
      </trkpt>
      <trkpt lat="37.025798968970776" lon="-3.009280012920499">
        <ele>1375.78</ele>
        <time>2025-05-12T10:41:29Z</time>
      </trkpt>
      <trkpt lat="37.025702996179461" lon="-3.009401969611645">
        <ele>1377.23</ele>
        <time>2025-05-12T10:41:30Z</time>
      </trkpt>
      <trkpt lat="37.025582967326045" lon="-3.009489979594946">
        <ele>1378.1900000000001</ele>
        <time>2025-05-12T10:41:31Z</time>
      </trkpt>
      <trkpt lat="37.025447012856603" lon="-3.009550999850035">
        <ele>1379.1500000000001</ele>
        <time>2025-05-12T10:41:32Z</time>
      </trkpt>
      <trkpt lat="37.025321032851934" lon="-3.009588969871402">
        <ele>1380.5899999999999</ele>
        <time>2025-05-12T10:41:33Z</time>
      </trkpt>
      <trkpt lat="37.02520796097815" lon="-3.009676979854703">
        <ele>1381.55</ele>
        <time>2025-05-12T10:41:34Z</time>
      </trkpt>
      <trkpt lat="37.0251190289855" lon="-3.009759960696101">
        <ele>1382.51</ele>
        <time>2025-05-12T10:41:35Z</time>
      </trkpt>
      <trkpt lat="37.025064965710044" lon="-3.009885018691421">
        <ele>1383.47</ele>
        <time>2025-05-12T10:41:36Z</time>
      </trkpt>
      <trkpt lat="37.025078041478992" lon="-3.010003035888076">
        <ele>1383.96</ele>
        <time>2025-05-12T10:41:37Z</time>
      </trkpt>
      <trkpt lat="37.025117017328739" lon="-3.010108983144164">
        <ele>1384.4400000000001</ele>
        <time>2025-05-12T10:41:38Z</time>
      </trkpt>
      <trkpt lat="37.025186000391841" lon="-3.010211996734142">
        <ele>1384.9200000000001</ele>
        <time>2025-05-12T10:41:39Z</time>
      </trkpt>
      <trkpt lat="37.025285996496677" lon="-3.010253990069032">
        <ele>1385.4000000000001</ele>
        <time>2025-05-12T10:41:40Z</time>
      </trkpt>
      <trkpt lat="37.025427985936403" lon="-3.010253990069032">
        <ele>1385.8800000000001</ele>
        <time>2025-05-12T10:41:41Z</time>
      </trkpt>
      <trkpt lat="37.025535022839904" lon="-3.010187018662691">
        <ele>1386.3599999999999</ele>
        <time>2025-05-12T10:41:42Z</time>
      </trkpt>
      <trkpt lat="37.025668965652585" lon="-3.010104037821293">
        <ele>1386.3599999999999</ele>
        <time>2025-05-12T10:41:43Z</time>
      </trkpt>
      <trkpt lat="37.025808021426201" lon="-3.010016027837992">
        <ele>1386.8399999999999</ele>
        <time>2025-05-12T10:41:44Z</time>
      </trkpt>
      <trkpt lat="37.026981990784407" lon="-3.00923902541399">
        <ele>1393.5699999999999</ele>
        <time>2025-05-12T10:41:51Z</time>
      </trkpt>
      <trkpt lat="37.027178965508938" lon="-3.009145986288786">
        <ele>1394.53</ele>
        <time>2025-05-12T10:41:52Z</time>
      </trkpt>
      <trkpt lat="37.028489978983998" lon="-3.008603006601334">
        <ele>1404.6199999999999</ele>
        <time>2025-05-12T10:41:59Z</time>
      </trkpt>
      <trkpt lat="37.028646972030401" lon="-3.008569981902838">
        <ele>1406.0699999999999</ele>
        <time>2025-05-12T10:42:00Z</time>
      </trkpt>
      <trkpt lat="37.028810000047088" lon="-3.00857400521636">
        <ele>1407.51</ele>
        <time>2025-05-12T10:42:01Z</time>
      </trkpt>
      <trkpt lat="37.028979985043406" lon="-3.008619016036391">
        <ele>1408.95</ele>
        <time>2025-05-12T10:42:02Z</time>
      </trkpt>
      <trkpt lat="37.02915801666677" lon="-3.008666038513184">
        <ele>1410.3900000000001</ele>
        <time>2025-05-12T10:42:03Z</time>
      </trkpt>
      <trkpt lat="37.029513996094465" lon="-3.008751031011343">
        <ele>1413.28</ele>
        <time>2025-05-12T10:42:05Z</time>
      </trkpt>
      <trkpt lat="37.029694961383939" lon="-3.008743990212679">
        <ele>1414.72</ele>
        <time>2025-05-12T10:42:06Z</time>
      </trkpt>
      <trkpt lat="37.029879027977586" lon="-3.008737033233047">
        <ele>1416.1600000000001</ele>
        <time>2025-05-12T10:42:07Z</time>
      </trkpt>
      <trkpt lat="37.030269037932158" lon="-3.008713982999325">
        <ele>1419.52</ele>
        <time>2025-05-12T10:42:09Z</time>
      </trkpt>
      <trkpt lat="37.03046802431345" lon="-3.008741978555918">
        <ele>1420.97</ele>
        <time>2025-05-12T10:42:10Z</time>
      </trkpt>
      <trkpt lat="37.030671034008265" lon="-3.008769974112511">
        <ele>1422.4100000000001</ele>
        <time>2025-05-12T10:42:11Z</time>
      </trkpt>
      <trkpt lat="37.032108027487993" lon="-3.008828982710838">
        <ele>1433.46</ele>
        <time>2025-05-12T10:42:18Z</time>
      </trkpt>
      <trkpt lat="37.032852005213499" lon="-3.008609963580966">
        <ele>1439.71</ele>
        <time>2025-05-12T10:42:22Z</time>
      </trkpt>
      <trkpt lat="37.033045962452888" lon="-3.008580040186644">
        <ele>1441.6300000000001</ele>
        <time>2025-05-12T10:42:23Z</time>
      </trkpt>
      <trkpt lat="37.033224999904633" lon="-3.00859403796494">
        <ele>1443.0799999999999</ele>
        <time>2025-05-12T10:42:24Z</time>
      </trkpt>
      <trkpt lat="37.034666016697884" lon="-3.008662015199661">
        <ele>1453.6500000000001</ele>
        <time>2025-05-12T10:42:31Z</time>
      </trkpt>
      <trkpt lat="37.035241015255451" lon="-3.0086600035429">
        <ele>1458.46</ele>
        <time>2025-05-12T10:42:34Z</time>
      </trkpt>
      <trkpt lat="37.035415023565292" lon="-3.008713982999325">
        <ele>1459.9000000000001</ele>
        <time>2025-05-12T10:42:35Z</time>
      </trkpt>
      <trkpt lat="37.035580985248089" lon="-3.00878799520433">
        <ele>1461.3399999999999</ele>
        <time>2025-05-12T10:42:36Z</time>
      </trkpt>
      <trkpt lat="37.035726998001337" lon="-3.008902994915843">
        <ele>1463.26</ele>
        <time>2025-05-12T10:42:37Z</time>
      </trkpt>
      <trkpt lat="37.035866975784302" lon="-3.009028974920511">
        <ele>1464.71</ele>
        <time>2025-05-12T10:42:38Z</time>
      </trkpt>
      <trkpt lat="37.035993961617351" lon="-3.009193008765578">
        <ele>1466.1500000000001</ele>
        <time>2025-05-12T10:42:39Z</time>
      </trkpt>
      <trkpt lat="37.036127988249063" lon="-3.009366011247039">
        <ele>1468.0699999999999</ele>
        <time>2025-05-12T10:42:40Z</time>
      </trkpt>
      <trkpt lat="37.036269977688789" lon="-3.009548988193274">
        <ele>1469.51</ele>
        <time>2025-05-12T10:42:41Z</time>
      </trkpt>
      <trkpt lat="37.036425964906812" lon="-3.009724002331495">
        <ele>1470.95</ele>
        <time>2025-05-12T10:42:42Z</time>
      </trkpt>
      <trkpt lat="37.036924017593265" lon="-3.010094985365868">
        <ele>1475.28</ele>
        <time>2025-05-12T10:42:45Z</time>
      </trkpt>
      <trkpt lat="37.037077993154526" lon="-3.010147036984563">
        <ele>1476.72</ele>
        <time>2025-05-12T10:42:46Z</time>
      </trkpt>
      <trkpt lat="37.037235992029309" lon="-3.010147036984563">
        <ele>1478.6500000000001</ele>
        <time>2025-05-12T10:42:47Z</time>
      </trkpt>
      <trkpt lat="37.037380998954177" lon="-3.010067995637655">
        <ele>1480.0899999999999</ele>
        <time>2025-05-12T10:42:48Z</time>
      </trkpt>
      <trkpt lat="37.037532040849328" lon="-3.009976968169212">
        <ele>1481.53</ele>
        <time>2025-05-12T10:42:49Z</time>
      </trkpt>
      <trkpt lat="37.037690039724112" lon="-3.009882001206279">
        <ele>1482.97</ele>
        <time>2025-05-12T10:42:50Z</time>
      </trkpt>
      <trkpt lat="37.038339972496033" lon="-3.009488973766565">
        <ele>1488.26</ele>
        <time>2025-05-12T10:42:54Z</time>
      </trkpt>
      <trkpt lat="37.0385040063411" lon="-3.009452009573579">
        <ele>1489.7</ele>
        <time>2025-05-12T10:42:55Z</time>
      </trkpt>
      <trkpt lat="37.038666028529406" lon="-3.009442035108805">
        <ele>1491.1400000000001</ele>
        <time>2025-05-12T10:42:56Z</time>
      </trkpt>
      <trkpt lat="37.038821009919047" lon="-3.009481010958552">
        <ele>1492.0999999999999</ele>
        <time>2025-05-12T10:42:57Z</time>
      </trkpt>
      <trkpt lat="37.038988983258605" lon="-3.009545970708132">
        <ele>1493.0599999999999</ele>
        <time>2025-05-12T10:42:58Z</time>
      </trkpt>
      <trkpt lat="37.039146982133389" lon="-3.009650995954871">
        <ele>1494.51</ele>
        <time>2025-05-12T10:42:59Z</time>
      </trkpt>
      <trkpt lat="37.039317972958088" lon="-3.009765995666385">
        <ele>1495.47</ele>
        <time>2025-05-12T10:43:00Z</time>
      </trkpt>
      <trkpt lat="37.04069696366787" lon="-3.010501004755497">
        <ele>1505.0799999999999</ele>
        <time>2025-05-12T10:43:07Z</time>
      </trkpt>
      <trkpt lat="37.041024025529623" lon="-3.010695967823267">
        <ele>1507.97</ele>
        <time>2025-05-12T10:43:09Z</time>
      </trkpt>
      <trkpt lat="37.041178001090884" lon="-3.010811973363161">
        <ele>1509.4100000000001</ele>
        <time>2025-05-12T10:43:10Z</time>
      </trkpt>
      <trkpt lat="37.042072014883161" lon="-3.012091973796487">
        <ele>1521.4200000000001</ele>
        <time>2025-05-12T10:43:17Z</time>
      </trkpt>
      <trkpt lat="37.042647013440728" lon="-3.012877022847533">
        <ele>1527.1900000000001</ele>
        <time>2025-05-12T10:43:21Z</time>
      </trkpt>
      <trkpt lat="37.042795959860086" lon="-3.013013983145356">
        <ele>1528.6300000000001</ele>
        <time>2025-05-12T10:43:22Z</time>
      </trkpt>
      <trkpt lat="37.042966028675437" lon="-3.013083972036839">
        <ele>1529.5899999999999</ele>
        <time>2025-05-12T10:43:23Z</time>
      </trkpt>
      <trkpt lat="37.043146993964911" lon="-3.013113979250193">
        <ele>1530.5599999999999</ele>
        <time>2025-05-12T10:43:24Z</time>
      </trkpt>
      <trkpt lat="37.043332988396287" lon="-3.013134011998773">
        <ele>1532</ele>
        <time>2025-05-12T10:43:25Z</time>
      </trkpt>
      <trkpt lat="37.043520994484425" lon="-3.013142980635166">
        <ele>1533.4400000000001</ele>
        <time>2025-05-12T10:43:26Z</time>
      </trkpt>
      <trkpt lat="37.043688967823982" lon="-3.013151027262211">
        <ele>1534.8800000000001</ele>
        <time>2025-05-12T10:43:27Z</time>
      </trkpt>
      <trkpt lat="37.043891977518797" lon="-3.013217998668551">
        <ele>1535.8399999999999</ele>
        <time>2025-05-12T10:43:28Z</time>
      </trkpt>
      <trkpt lat="37.044074032455683" lon="-3.013285975903273">
        <ele>1536.8</ele>
        <time>2025-05-12T10:43:29Z</time>
      </trkpt>
      <trkpt lat="37.044249968603253" lon="-3.013380020856857">
        <ele>1537.29</ele>
        <time>2025-05-12T10:43:30Z</time>
      </trkpt>
      <trkpt lat="37.044421965256333" lon="-3.013514969497919">
        <ele>1538.25</ele>
        <time>2025-05-12T10:43:31Z</time>
      </trkpt>
      <trkpt lat="37.044597985222936" lon="-3.013653019443154">
        <ele>1539.21</ele>
        <time>2025-05-12T10:43:32Z</time>
      </trkpt>
      <trkpt lat="37.04477802850306" lon="-3.01379500888288">
        <ele>1540.1700000000001</ele>
        <time>2025-05-12T10:43:33Z</time>
      </trkpt>
      <trkpt lat="37.046160036697984" lon="-3.014918016269803">
        <ele>1546.9000000000001</ele>
        <time>2025-05-12T10:43:40Z</time>
      </trkpt>
      <trkpt lat="37.047961978241801" lon="-3.016101038083434">
        <ele>1555.55</ele>
        <time>2025-05-12T10:43:48Z</time>
      </trkpt>
      <trkpt lat="37.049599969759583" lon="-3.016742002218962">
        <ele>1566.1199999999999</ele>
        <time>2025-05-12T10:43:55Z</time>
      </trkpt>
      <trkpt lat="37.050026021897793" lon="-3.016878040507436">
        <ele>1569.01</ele>
        <time>2025-05-12T10:43:57Z</time>
      </trkpt>
      <trkpt lat="37.050233976915479" lon="-3.016907041892409">
        <ele>1570.9300000000001</ele>
        <time>2025-05-12T10:43:58Z</time>
      </trkpt>
      <trkpt lat="37.050448972731829" lon="-3.016921961680055">
        <ele>1572.8499999999999</ele>
        <time>2025-05-12T10:43:59Z</time>
      </trkpt>
      <trkpt lat="37.051295964047313" lon="-3.016891032457352">
        <ele>1579.5799999999999</ele>
        <time>2025-05-12T10:44:03Z</time>
      </trkpt>
      <trkpt lat="37.051476007327437" lon="-3.016943000257015">
        <ele>1581.03</ele>
        <time>2025-05-12T10:44:04Z</time>
      </trkpt>
      <trkpt lat="37.051841961219907" lon="-3.017104016616941">
        <ele>1583.4300000000001</ele>
        <time>2025-05-12T10:44:06Z</time>
      </trkpt>
      <trkpt lat="37.052025021985173" lon="-3.017159001901746">
        <ele>1584.3900000000001</ele>
        <time>2025-05-12T10:44:07Z</time>
      </trkpt>
      <trkpt lat="37.052215039730072" lon="-3.01716897636652">
        <ele>1585.8299999999999</ele>
        <time>2025-05-12T10:44:08Z</time>
      </trkpt>
      <trkpt lat="37.052402961999178" lon="-3.017110973596573">
        <ele>1586.79</ele>
        <time>2025-05-12T10:44:09Z</time>
      </trkpt>
      <trkpt lat="37.052603960037231" lon="-3.017049031332135">
        <ele>1588.72</ele>
        <time>2025-05-12T10:44:10Z</time>
      </trkpt>
      <trkpt lat="37.054096022620797" lon="-3.016641000285745">
        <ele>1600.73</ele>
        <time>2025-05-12T10:44:18Z</time>
      </trkpt>
      <trkpt lat="37.054290985688567" lon="-3.016636976972222">
        <ele>1602.1700000000001</ele>
        <time>2025-05-12T10:44:19Z</time>
      </trkpt>
      <trkpt lat="37.054486032575369" lon="-3.016664972528815">
        <ele>1603.6199999999999</ele>
        <time>2025-05-12T10:44:20Z</time>
      </trkpt>
      <trkpt lat="37.054687030613422" lon="-3.016694979742169">
        <ele>1605.0599999999999</ele>
        <time>2025-05-12T10:44:21Z</time>
      </trkpt>
      <trkpt lat="37.055496973916888" lon="-3.016862031072378">
        <ele>1609.8599999999999</ele>
        <time>2025-05-12T10:44:25Z</time>
      </trkpt>
      <trkpt lat="37.055701995268464" lon="-3.016839986667037">
        <ele>1611.3099999999999</ele>
        <time>2025-05-12T10:44:26Z</time>
      </trkpt>
      <trkpt lat="37.056503975763917" lon="-3.016800004988909">
        <ele>1617.5599999999999</ele>
        <time>2025-05-12T10:44:30Z</time>
      </trkpt>
      <trkpt lat="37.057074028998613" lon="-3.01682498306036">
        <ele>1622.3599999999999</ele>
        <time>2025-05-12T10:44:33Z</time>
      </trkpt>
      <trkpt lat="37.057247031480074" lon="-3.016807967796922">
        <ele>1624.28</ele>
        <time>2025-05-12T10:44:34Z</time>
      </trkpt>
      <trkpt lat="37.057418022304773" lon="-3.01678198389709">
        <ele>1625.73</ele>
        <time>2025-05-12T10:44:35Z</time>
      </trkpt>
      <trkpt lat="37.057592030614614" lon="-3.016763962805271">
        <ele>1627.6500000000001</ele>
        <time>2025-05-12T10:44:36Z</time>
      </trkpt>
      <trkpt lat="37.057770984247327" lon="-3.016797993332148">
        <ele>1629.5699999999999</ele>
        <time>2025-05-12T10:44:37Z</time>
      </trkpt>
      <trkpt lat="37.057952033355832" lon="-3.016833029687405">
        <ele>1631.01</ele>
        <time>2025-05-12T10:44:38Z</time>
      </trkpt>
      <trkpt lat="37.058129981160164" lon="-3.01686798222363">
        <ele>1632.46</ele>
        <time>2025-05-12T10:44:39Z</time>
      </trkpt>
      <trkpt lat="37.058300971984863" lon="-3.016944006085396">
        <ele>1633.9000000000001</ele>
        <time>2025-05-12T10:44:40Z</time>
      </trkpt>
      <trkpt lat="37.05846500582993" lon="-3.01706001162529">
        <ele>1635.8199999999999</ele>
        <time>2025-05-12T10:44:41Z</time>
      </trkpt>
      <trkpt lat="37.058776980265975" lon="-3.017280036583543">
        <ele>1639.1900000000001</ele>
        <time>2025-05-12T10:44:43Z</time>
      </trkpt>
      <trkpt lat="37.058933973312378" lon="-3.017353964969516">
        <ele>1640.6300000000001</ele>
        <time>2025-05-12T10:44:44Z</time>
      </trkpt>
      <trkpt lat="37.059099012985826" lon="-3.017399981617928">
        <ele>1642.0699999999999</ele>
        <time>2025-05-12T10:44:45Z</time>
      </trkpt>
      <trkpt lat="37.059448035433888" lon="-3.01746997050941">
        <ele>1645.4300000000001</ele>
        <time>2025-05-12T10:44:47Z</time>
      </trkpt>
      <trkpt lat="37.059626989066601" lon="-3.017528979107738">
        <ele>1646.8800000000001</ele>
        <time>2025-05-12T10:44:48Z</time>
      </trkpt>
      <trkpt lat="37.059997972100973" lon="-3.017650013789535">
        <ele>1649.76</ele>
        <time>2025-05-12T10:44:50Z</time>
      </trkpt>
      <trkpt lat="37.060190001502633" lon="-3.017697036266327">
        <ele>1650.72</ele>
        <time>2025-05-12T10:44:51Z</time>
      </trkpt>
      <trkpt lat="37.061118967831135" lon="-3.017908008769155">
        <ele>1657.9300000000001</ele>
        <time>2025-05-12T10:44:56Z</time>
      </trkpt>
      <trkpt lat="37.061301022768021" lon="-3.017870960757136">
        <ele>1659.8499999999999</ele>
        <time>2025-05-12T10:44:57Z</time>
      </trkpt>
      <trkpt lat="37.062863996252418" lon="-3.017513975501061">
        <ele>1668.51</ele>
        <time>2025-05-12T10:45:05Z</time>
      </trkpt>
      <trkpt lat="37.063029035925865" lon="-3.017399981617928">
        <ele>1669.47</ele>
        <time>2025-05-12T10:45:06Z</time>
      </trkpt>
      <trkpt lat="37.063186028972268" lon="-3.01727500744164">
        <ele>1670.4300000000001</ele>
        <time>2025-05-12T10:45:07Z</time>
      </trkpt>
      <trkpt lat="37.063345033675432" lon="-3.017149027436972">
        <ele>1670.9100000000001</ele>
        <time>2025-05-12T10:45:08Z</time>
      </trkpt>
      <trkpt lat="37.063501020893455" lon="-3.017024975270033">
        <ele>1671.3900000000001</ele>
        <time>2025-05-12T10:45:09Z</time>
      </trkpt>
      <trkpt lat="37.0636229775846" lon="-3.016926990821958">
        <ele>1672.3499999999999</ele>
        <time>2025-05-12T10:45:10Z</time>
      </trkpt>
      <trkpt lat="37.063788017258048" lon="-3.016872005537152">
        <ele>1672.8299999999999</ele>
        <time>2025-05-12T10:45:11Z</time>
      </trkpt>
      <trkpt lat="37.063921960070729" lon="-3.016881980001926">
        <ele>1673.3099999999999</ele>
        <time>2025-05-12T10:45:12Z</time>
      </trkpt>
      <trkpt lat="37.064081970602274" lon="-3.0169109813869">
        <ele>1673.79</ele>
        <time>2025-05-12T10:45:13Z</time>
      </trkpt>
      <trkpt lat="37.064253967255354" lon="-3.016943000257015">
        <ele>1674.27</ele>
        <time>2025-05-12T10:45:14Z</time>
      </trkpt>
      <trkpt lat="37.064431998878717" lon="-3.017006032168865">
        <ele>1674.75</ele>
        <time>2025-05-12T10:45:15Z</time>
      </trkpt>
      <trkpt lat="37.065158039331436" lon="-3.017313983291388">
        <ele>1676.2</ele>
        <time>2025-05-12T10:45:19Z</time>
      </trkpt>
      <trkpt lat="37.065324001014233" lon="-3.01740400493145">
        <ele>1676.2</ele>
        <time>2025-05-12T10:45:20Z</time>
      </trkpt>
      <trkpt lat="37.065476970747113" lon="-3.017487991601229">
        <ele>1676.6800000000001</ele>
        <time>2025-05-12T10:45:21Z</time>
      </trkpt>
      <trkpt lat="37.065618960186839" lon="-3.017534008249641">
        <ele>1677.1600000000001</ele>
        <time>2025-05-12T10:45:22Z</time>
      </trkpt>
      <trkpt lat="37.065759021788836" lon="-3.017517998814583">
        <ele>1677.6400000000001</ele>
        <time>2025-05-12T10:45:23Z</time>
      </trkpt>
      <trkpt lat="37.0658989995718" lon="-3.017459996044636">
        <ele>1677.6400000000001</ele>
        <time>2025-05-12T10:45:24Z</time>
      </trkpt>
      <trkpt lat="37.066043000668287" lon="-3.017379026859999">
        <ele>1678.5999999999999</ele>
        <time>2025-05-12T10:45:25Z</time>
      </trkpt>
      <trkpt lat="37.066192030906677" lon="-3.017286993563175">
        <ele>1679.0799999999999</ele>
        <time>2025-05-12T10:45:26Z</time>
      </trkpt>
      <trkpt lat="37.066794019192457" lon="-3.016970995813608">
        <ele>1681.96</ele>
        <time>2025-05-12T10:45:30Z</time>
      </trkpt>
      <trkpt lat="37.066936008632183" lon="-3.016966972500086">
        <ele>1682.4400000000001</ele>
        <time>2025-05-12T10:45:31Z</time>
      </trkpt>
      <trkpt lat="37.067085038870573" lon="-3.016994968056679">
        <ele>1683.4100000000001</ele>
        <time>2025-05-12T10:45:32Z</time>
      </trkpt>
      <trkpt lat="37.067245971411467" lon="-3.017025981098414">
        <ele>1683.8900000000001</ele>
        <time>2025-05-12T10:45:33Z</time>
      </trkpt>
      <trkpt lat="37.067412016913295" lon="-3.017079038545489">
        <ele>1684.8499999999999</ele>
        <time>2025-05-12T10:45:34Z</time>
      </trkpt>
      <trkpt lat="37.068943977355957" lon="-3.01742697134614">
        <ele>1693.5</ele>
        <time>2025-05-12T10:45:43Z</time>
      </trkpt>
      <trkpt lat="37.070274017751217" lon="-3.017544988542795">
        <ele>1702.6300000000001</ele>
        <time>2025-05-12T10:45:51Z</time>
      </trkpt>
      <trkpt lat="37.070446014404297" lon="-3.017570972442627">
        <ele>1703.5899999999999</ele>
        <time>2025-05-12T10:45:52Z</time>
      </trkpt>
      <trkpt lat="37.07088396884501" lon="-3.017772976309061">
        <ele>1706</ele>
        <time>2025-05-12T10:45:55Z</time>
      </trkpt>
      <trkpt lat="37.070992011576891" lon="-3.017881019040942">
        <ele>1706.48</ele>
        <time>2025-05-12T10:45:56Z</time>
      </trkpt>
      <trkpt lat="37.071106005460024" lon="-3.017994007095695">
        <ele>1706.96</ele>
        <time>2025-05-12T10:45:57Z</time>
      </trkpt>
      <trkpt lat="37.071344973519444" lon="-3.018233980983496">
        <ele>1707.9200000000001</ele>
        <time>2025-05-12T10:45:59Z</time>
      </trkpt>
      <trkpt lat="37.071490986272693" lon="-3.018311010673642">
        <ele>1708.4000000000001</ele>
        <time>2025-05-12T10:46:00Z</time>
      </trkpt>
      <trkpt lat="37.071650996804237" lon="-3.018360966816545">
        <ele>1708.8800000000001</ele>
        <time>2025-05-12T10:46:01Z</time>
      </trkpt>
      <trkpt lat="37.071963977068663" lon="-3.018460040912032">
        <ele>1709.3599999999999</ele>
        <time>2025-05-12T10:46:03Z</time>
      </trkpt>
      <trkpt lat="37.072121975943446" lon="-3.018509997054935">
        <ele>1710.3199999999999</ele>
        <time>2025-05-12T10:46:04Z</time>
      </trkpt>
      <trkpt lat="37.072276035323739" lon="-3.018594989553094">
        <ele>1710.3199999999999</ele>
        <time>2025-05-12T10:46:05Z</time>
      </trkpt>
      <trkpt lat="37.072425987571478" lon="-3.018719041720033">
        <ele>1710.8</ele>
        <time>2025-05-12T10:46:06Z</time>
      </trkpt>
      <trkpt lat="37.07258096896112" lon="-3.018847033381462">
        <ele>1711.28</ele>
        <time>2025-05-12T10:46:07Z</time>
      </trkpt>
      <trkpt lat="37.073088996112347" lon="-3.019366040825844">
        <ele>1713.21</ele>
        <time>2025-05-12T10:46:11Z</time>
      </trkpt>
      <trkpt lat="37.073129983618855" lon="-3.019520016387105">
        <ele>1714.6500000000001</ele>
        <time>2025-05-12T10:46:12Z</time>
      </trkpt>
      <trkpt lat="37.073163008317351" lon="-3.019701987504959">
        <ele>1715.6099999999999</ele>
        <time>2025-05-12T10:46:13Z</time>
      </trkpt>
      <trkpt lat="37.073336010798812" lon="-3.020650986582041">
        <ele>1719.9400000000001</ele>
        <time>2025-05-12T10:46:18Z</time>
      </trkpt>
      <trkpt lat="37.073359983041883" lon="-3.020784007385373">
        <ele>1720.9000000000001</ele>
        <time>2025-05-12T10:46:19Z</time>
      </trkpt>
      <trkpt lat="37.073427038267255" lon="-3.020846033468843">
        <ele>1722.3399999999999</ele>
        <time>2025-05-12T10:46:20Z</time>
      </trkpt>
      <trkpt lat="37.073497027158737" lon="-3.02088500931859">
        <ele>1722.8199999999999</ele>
        <time>2025-05-12T10:46:21Z</time>
      </trkpt>
      <trkpt lat="37.0735680218786" lon="-3.020913004875183">
        <ele>1723.78</ele>
        <time>2025-05-12T10:46:22Z</time>
      </trkpt>
      <trkpt lat="37.073635999113321" lon="-3.020875034853816">
        <ele>1724.74</ele>
        <time>2025-05-12T10:46:23Z</time>
      </trkpt>
      <trkpt lat="37.073700036853552" lon="-3.020838992670178">
        <ele>1725.7</ele>
        <time>2025-05-12T10:46:24Z</time>
      </trkpt>
      <trkpt lat="37.07376197911799" lon="-3.020804962143302">
        <ele>1726.6700000000001</ele>
        <time>2025-05-12T10:46:25Z</time>
      </trkpt>
      <trkpt lat="37.073814030736685" lon="-3.02077503874898">
        <ele>1727.6300000000001</ele>
        <time>2025-05-12T10:46:26Z</time>
      </trkpt>
      <trkpt lat="37.073958031833172" lon="-3.020709995180368">
        <ele>1731.47</ele>
        <time>2025-05-12T10:46:34Z</time>
      </trkpt>
      <trkpt lat="37.07402097992599" lon="-3.02069297991693">
        <ele>1732.4300000000001</ele>
        <time>2025-05-12T10:47:09Z</time>
      </trkpt>
      <trkpt lat="37.074136985465884" lon="-3.020660961046815">
        <ele>1733.3900000000001</ele>
        <time>2025-05-12T10:47:10Z</time>
      </trkpt>
      <trkpt lat="37.07419197075069" lon="-3.020666996017098">
        <ele>1734.3599999999999</ele>
        <time>2025-05-12T10:47:11Z</time>
      </trkpt>
      <trkpt lat="37.074330020695925" lon="-3.020681999623776">
        <ele>1734.8399999999999</ele>
        <time>2025-05-12T10:47:12Z</time>
      </trkpt>
      <trkpt lat="37.074461029842496" lon="-3.020732961595058">
        <ele>1735.8</ele>
        <time>2025-05-12T10:47:13Z</time>
      </trkpt>
      <trkpt lat="37.075613038614392" lon="-3.021137975156307">
        <ele>1740.5999999999999</ele>
        <time>2025-05-12T10:47:19Z</time>
      </trkpt>
      <trkpt lat="37.075805990025401" lon="-3.021145015954971">
        <ele>1741.5699999999999</ele>
        <time>2025-05-12T10:47:20Z</time>
      </trkpt>
      <trkpt lat="37.075987039133906" lon="-3.021151972934604">
        <ele>1742.53</ele>
        <time>2025-05-12T10:47:21Z</time>
      </trkpt>
      <trkpt lat="37.076149983331561" lon="-3.0211849976331">
        <ele>1743.01</ele>
        <time>2025-05-12T10:47:22Z</time>
      </trkpt>
      <trkpt lat="37.076292978599668" lon="-3.021240988746285">
        <ele>1744.45</ele>
        <time>2025-05-12T10:47:23Z</time>
      </trkpt>
      <trkpt lat="37.076420970261097" lon="-3.021338973194361">
        <ele>1744.9300000000001</ele>
        <time>2025-05-12T10:47:24Z</time>
      </trkpt>
      <trkpt lat="37.076519038528204" lon="-3.021468976512551">
        <ele>1746.3699999999999</ele>
        <time>2025-05-12T10:47:25Z</time>
      </trkpt>
      <trkpt lat="37.076609982177615" lon="-3.021590011194348">
        <ele>1747.3299999999999</ele>
        <time>2025-05-12T10:47:26Z</time>
      </trkpt>
      <trkpt lat="37.076689023524523" lon="-3.021685983985663">
        <ele>1748.29</ele>
        <time>2025-05-12T10:47:27Z</time>
      </trkpt>
      <trkpt lat="37.076777033507824" lon="-3.021758990362287">
        <ele>1748.78</ele>
        <time>2025-05-12T10:47:28Z</time>
      </trkpt>
      <trkpt lat="37.076864959672093" lon="-3.021757984533906">
        <ele>1749.74</ele>
        <time>2025-05-12T10:47:29Z</time>
      </trkpt>
      <trkpt lat="37.076969984918833" lon="-3.021727977320552">
        <ele>1750.7</ele>
        <time>2025-05-12T10:47:30Z</time>
      </trkpt>
      <trkpt lat="37.077097976580262" lon="-3.021691013127565">
        <ele>1751.6600000000001</ele>
        <time>2025-05-12T10:47:31Z</time>
      </trkpt>
      <trkpt lat="37.077201995998621" lon="-3.021655976772308">
        <ele>1752.6199999999999</ele>
        <time>2025-05-12T10:47:32Z</time>
      </trkpt>
      <trkpt lat="37.077312972396612" lon="-3.021620018407702">
        <ele>1754.0599999999999</ele>
        <time>2025-05-12T10:47:33Z</time>
      </trkpt>
      <trkpt lat="37.077431995421648" lon="-3.02163502201438">
        <ele>1755.02</ele>
        <time>2025-05-12T10:47:34Z</time>
      </trkpt>
      <trkpt lat="37.077542971819639" lon="-3.021680032834411">
        <ele>1755.99</ele>
        <time>2025-05-12T10:47:35Z</time>
      </trkpt>
      <trkpt lat="37.077636010944843" lon="-3.021783968433738">
        <ele>1756.95</ele>
        <time>2025-05-12T10:47:36Z</time>
      </trkpt>
      <trkpt lat="37.077722009271383" lon="-3.021910032257438">
        <ele>1757.9100000000001</ele>
        <time>2025-05-12T10:47:37Z</time>
      </trkpt>
      <trkpt lat="37.077766014263034" lon="-3.022068031132221">
        <ele>1758.8699999999999</ele>
        <time>2025-05-12T10:47:38Z</time>
      </trkpt>
      <trkpt lat="37.077807001769543" lon="-3.022214965894818">
        <ele>1760.3099999999999</ele>
        <time>2025-05-12T10:47:39Z</time>
      </trkpt>
      <trkpt lat="37.07786601036787" lon="-3.022323008626699">
        <ele>1760.79</ele>
        <time>2025-05-12T10:47:40Z</time>
      </trkpt>
      <trkpt lat="37.07795200869441" lon="-3.022395009174943">
        <ele>1761.75</ele>
        <time>2025-05-12T10:47:41Z</time>
      </trkpt>
      <trkpt lat="37.078040018677711" lon="-3.022368019446731">
        <ele>1762.71</ele>
        <time>2025-05-12T10:47:42Z</time>
      </trkpt>
      <trkpt lat="37.078128028661013" lon="-3.022334994748235">
        <ele>1763.6800000000001</ele>
        <time>2025-05-12T10:47:43Z</time>
      </trkpt>
      <trkpt lat="37.07820899784565" lon="-3.022233992815018">
        <ele>1764.6400000000001</ele>
        <time>2025-05-12T10:47:44Z</time>
      </trkpt>
      <trkpt lat="37.078293990343809" lon="-3.022127039730549">
        <ele>1765.1199999999999</ele>
        <time>2025-05-12T10:47:45Z</time>
      </trkpt>
      <trkpt lat="37.0784049667418" lon="-3.022059984505177">
        <ele>1765.5999999999999</ele>
        <time>2025-05-12T10:47:46Z</time>
      </trkpt>
      <trkpt lat="37.078527007251978" lon="-3.022058978676796">
        <ele>1766.0799999999999</ele>
        <time>2025-05-12T10:47:47Z</time>
      </trkpt>
      <trkpt lat="37.078656004741788" lon="-3.022100972011685">
        <ele>1766.0799999999999</ele>
        <time>2025-05-12T10:47:48Z</time>
      </trkpt>
      <trkpt lat="37.078801011666656" lon="-3.022147994488478">
        <ele>1766.5599999999999</ele>
        <time>2025-05-12T10:47:49Z</time>
      </trkpt>
      <trkpt lat="37.079130001366138" lon="-3.022255031391978">
        <ele>1767.52</ele>
        <time>2025-05-12T10:47:51Z</time>
      </trkpt>
      <trkpt lat="37.079308032989502" lon="-3.022313034161925">
        <ele>1768</ele>
        <time>2025-05-12T10:47:52Z</time>
      </trkpt>
      <trkpt lat="37.080923980101943" lon="-3.022603970021009">
        <ele>1776.6500000000001</ele>
        <time>2025-05-12T10:48:00Z</time>
      </trkpt>
      <trkpt lat="37.083049966022372" lon="-3.023189026862383">
        <ele>1791.0699999999999</ele>
        <time>2025-05-12T10:48:10Z</time>
      </trkpt>
      <trkpt lat="37.08366603590548" lon="-3.023473005741835">
        <ele>1796.3599999999999</ele>
        <time>2025-05-12T10:48:13Z</time>
      </trkpt>
      <trkpt lat="37.08385999314487" lon="-3.023602003231645">
        <ele>1797.8</ele>
        <time>2025-05-12T10:48:14Z</time>
      </trkpt>
      <trkpt lat="37.084055040031672" lon="-3.023732006549835">
        <ele>1799.24</ele>
        <time>2025-05-12T10:48:15Z</time>
      </trkpt>
      <trkpt lat="37.084808992221951" lon="-3.024285966530442">
        <ele>1805.49</ele>
        <time>2025-05-12T10:48:19Z</time>
      </trkpt>
      <trkpt lat="37.0855369605124" lon="-3.02464697510004">
        <ele>1811.74</ele>
        <time>2025-05-12T10:48:23Z</time>
      </trkpt>
      <trkpt lat="37.085694037377834" lon="-3.024672958999872">
        <ele>1812.7</ele>
        <time>2025-05-12T10:48:24Z</time>
      </trkpt>
      <trkpt lat="37.085852958261967" lon="-3.024668013677001">
        <ele>1814.1500000000001</ele>
        <time>2025-05-12T10:48:25Z</time>
      </trkpt>
      <trkpt lat="37.086572963744402" lon="-3.024600958451629">
        <ele>1818.95</ele>
        <time>2025-05-12T10:48:29Z</time>
      </trkpt>
      <trkpt lat="37.086755018681288" lon="-3.02460397593677">
        <ele>1820.3900000000001</ele>
        <time>2025-05-12T10:48:30Z</time>
      </trkpt>
      <trkpt lat="37.086933972314" lon="-3.024672036990523">
        <ele>1821.3499999999999</ele>
        <time>2025-05-12T10:48:31Z</time>
      </trkpt>
      <trkpt lat="37.087114015594125" lon="-3.024740014225245">
        <ele>1822.8</ele>
        <time>2025-05-12T10:48:32Z</time>
      </trkpt>
      <trkpt lat="37.087295986711979" lon="-3.024808997288346">
        <ele>1824.24</ele>
        <time>2025-05-12T10:48:33Z</time>
      </trkpt>
      <trkpt lat="37.087616007775068" lon="-3.024978982284665">
        <ele>1826.6400000000001</ele>
        <time>2025-05-12T10:48:35Z</time>
      </trkpt>
      <trkpt lat="37.087751962244511" lon="-3.02509599365294">
        <ele>1828.0799999999999</ele>
        <time>2025-05-12T10:48:36Z</time>
      </trkpt>
      <trkpt lat="37.087862016633153" lon="-3.025259021669626">
        <ele>1830.01</ele>
        <time>2025-05-12T10:48:37Z</time>
      </trkpt>
      <trkpt lat="37.088093021884561" lon="-3.025597985833883">
        <ele>1832.8900000000001</ele>
        <time>2025-05-12T10:48:39Z</time>
      </trkpt>
      <trkpt lat="37.089238995686173" lon="-3.026929032057524">
        <ele>1845.8699999999999</ele>
        <time>2025-05-12T10:48:47Z</time>
      </trkpt>
      <trkpt lat="37.089463965967298" lon="-3.027220973744988">
        <ele>1848.75</ele>
        <time>2025-05-12T10:48:49Z</time>
      </trkpt>
      <trkpt lat="37.089552981778979" lon="-3.027386013418436">
        <ele>1850.6800000000001</ele>
        <time>2025-05-12T10:48:50Z</time>
      </trkpt>
      <trkpt lat="37.090296037495136" lon="-3.02859602496028">
        <ele>1861.25</ele>
        <time>2025-05-12T10:48:57Z</time>
      </trkpt>
      <trkpt lat="37.090738015249372" lon="-3.029022999107838">
        <ele>1867.02</ele>
        <time>2025-05-12T10:49:01Z</time>
      </trkpt>
      <trkpt lat="37.090809009969234" lon="-3.029067004099488">
        <ele>1867.98</ele>
        <time>2025-05-12T10:49:02Z</time>
      </trkpt>
      <trkpt lat="37.090872963890433" lon="-3.029050994664431">
        <ele>1869.4200000000001</ele>
        <time>2025-05-12T10:49:03Z</time>
      </trkpt>
      <trkpt lat="37.090915041044354" lon="-3.028955021873117">
        <ele>1870.8599999999999</ele>
        <time>2025-05-12T10:49:04Z</time>
      </trkpt>
      <trkpt lat="37.090931972488761" lon="-3.028851002454758">
        <ele>1871.8199999999999</ele>
        <time>2025-05-12T10:49:05Z</time>
      </trkpt>
      <trkpt lat="37.090915041044354" lon="-3.028723010793328">
        <ele>1872.3</ele>
        <time>2025-05-12T10:49:06Z</time>
      </trkpt>
      <trkpt lat="37.090858966112137" lon="-3.028598036617041">
        <ele>1872.79</ele>
        <time>2025-05-12T10:49:07Z</time>
      </trkpt>
      <trkpt lat="37.090791994705796" lon="-3.028449006378651">
        <ele>1872.79</ele>
        <time>2025-05-12T10:49:08Z</time>
      </trkpt>
      <trkpt lat="37.090638019144535" lon="-3.028107024729252">
        <ele>1874.23</ele>
        <time>2025-05-12T10:49:10Z</time>
      </trkpt>
      <trkpt lat="37.090590996667743" lon="-3.027918012812734">
        <ele>1874.71</ele>
        <time>2025-05-12T10:49:11Z</time>
      </trkpt>
      <trkpt lat="37.090544980019331" lon="-3.027706034481525">
        <ele>1876.1500000000001</ele>
        <time>2025-05-12T10:49:12Z</time>
      </trkpt>
      <trkpt lat="37.090401984751225" lon="-3.026475990191102">
        <ele>1883.8399999999999</ele>
        <time>2025-05-12T10:49:18Z</time>
      </trkpt>
      <trkpt lat="37.09041497670114" lon="-3.026315979659557">
        <ele>1885.28</ele>
        <time>2025-05-12T10:49:19Z</time>
      </trkpt>
      <trkpt lat="37.090438026934862" lon="-3.026196034625173">
        <ele>1886.24</ele>
        <time>2025-05-12T10:49:20Z</time>
      </trkpt>
      <trkpt lat="37.090509021654725" lon="-3.026090003550053">
        <ele>1887.6900000000001</ele>
        <time>2025-05-12T10:49:21Z</time>
      </trkpt>
      <trkpt lat="37.090612035244703" lon="-3.026012973859906">
        <ele>1889.1300000000001</ele>
        <time>2025-05-12T10:49:22Z</time>
      </trkpt>
      <trkpt lat="37.090727034956217" lon="-3.025925969704986">
        <ele>1890.0899999999999</ele>
        <time>2025-05-12T10:49:23Z</time>
      </trkpt>
      <trkpt lat="37.091592969372869" lon="-3.02524896338582">
        <ele>1897.3</ele>
        <time>2025-05-12T10:49:29Z</time>
      </trkpt>
      <trkpt lat="37.091729007661343" lon="-3.0251170322299">
        <ele>1898.74</ele>
        <time>2025-05-12T10:49:30Z</time>
      </trkpt>
      <trkpt lat="37.091835038736463" lon="-3.024948975071311">
        <ele>1899.7</ele>
        <time>2025-05-12T10:49:31Z</time>
      </trkpt>
      <trkpt lat="37.091942997649312" lon="-3.024778990074992">
        <ele>1901.6300000000001</ele>
        <time>2025-05-12T10:49:32Z</time>
      </trkpt>
      <trkpt lat="37.092040982097387" lon="-3.024592995643616">
        <ele>1902.5899999999999</ele>
        <time>2025-05-12T10:49:33Z</time>
      </trkpt>
      <trkpt lat="37.092285985127091" lon="-3.024006010964513">
        <ele>1906.9100000000001</ele>
        <time>2025-05-12T10:49:36Z</time>
      </trkpt>
      <trkpt lat="37.092396039515734" lon="-3.023827979341149">
        <ele>1908.3499999999999</ele>
        <time>2025-05-12T10:49:37Z</time>
      </trkpt>
      <trkpt lat="37.092516990378499" lon="-3.023661011829972">
        <ele>1909.8</ele>
        <time>2025-05-12T10:49:38Z</time>
      </trkpt>
      <trkpt lat="37.092640958726406" lon="-3.02350795827806">
        <ele>1911.24</ele>
        <time>2025-05-12T10:49:39Z</time>
      </trkpt>
      <trkpt lat="37.092771967872977" lon="-3.02337602712214">
        <ele>1912.6800000000001</ele>
        <time>2025-05-12T10:49:40Z</time>
      </trkpt>
      <trkpt lat="37.092912029474974" lon="-3.023272007703781">
        <ele>1914.1199999999999</ele>
        <time>2025-05-12T10:49:41Z</time>
      </trkpt>
      <trkpt lat="37.093069022521377" lon="-3.023201012983918">
        <ele>1915.5599999999999</ele>
        <time>2025-05-12T10:49:42Z</time>
      </trkpt>
      <trkpt lat="37.09322601556778" lon="-3.023130018264055">
        <ele>1917.01</ele>
        <time>2025-05-12T10:49:43Z</time>
      </trkpt>
      <trkpt lat="37.093388037756085" lon="-3.023079978302121">
        <ele>1918.45</ele>
        <time>2025-05-12T10:49:44Z</time>
      </trkpt>
      <trkpt lat="37.093561040237546" lon="-3.023044019937515">
        <ele>1919.8900000000001</ele>
        <time>2025-05-12T10:49:45Z</time>
      </trkpt>
      <trkpt lat="37.0937430113554" lon="-3.023056006059051">
        <ele>1921.3299999999999</ele>
        <time>2025-05-12T10:49:46Z</time>
      </trkpt>
      <trkpt lat="37.093931017443538" lon="-3.023067992180586">
        <ele>1922.77</ele>
        <time>2025-05-12T10:49:47Z</time>
      </trkpt>
      <trkpt lat="37.09449402987957" lon="-3.023117026314139">
        <ele>1927.0999999999999</ele>
        <time>2025-05-12T10:49:50Z</time>
      </trkpt>
      <trkpt lat="37.094679018482566" lon="-3.023175029084086">
        <ele>1928.0599999999999</ele>
        <time>2025-05-12T10:49:51Z</time>
      </trkpt>
      <trkpt lat="37.09486098960042" lon="-3.023251974955201">
        <ele>1929.5</ele>
        <time>2025-05-12T10:49:52Z</time>
      </trkpt>
      <trkpt lat="37.095967987552285" lon="-3.023765031248331">
        <ele>1939.5999999999999</ele>
        <time>2025-05-12T10:49:58Z</time>
      </trkpt>
      <trkpt lat="37.096158005297184" lon="-3.023800989612937">
        <ele>1941.52</ele>
        <time>2025-05-12T10:49:59Z</time>
      </trkpt>
      <trkpt lat="37.09634399972856" lon="-3.023837031796575">
        <ele>1942.96</ele>
        <time>2025-05-12T10:50:00Z</time>
      </trkpt>
      <trkpt lat="37.096530999988317" lon="-3.023837031796575">
        <ele>1944.8800000000001</ele>
        <time>2025-05-12T10:50:01Z</time>
      </trkpt>
      <trkpt lat="37.096712971106172" lon="-3.023786991834641">
        <ele>1946.3299999999999</ele>
        <time>2025-05-12T10:50:02Z</time>
      </trkpt>
      <trkpt lat="37.096892008557916" lon="-3.023738041520119">
        <ele>1948.25</ele>
        <time>2025-05-12T10:50:03Z</time>
      </trkpt>
      <trkpt lat="37.097066016867757" lon="-3.023649025708437">
        <ele>1949.6900000000001</ele>
        <time>2025-05-12T10:50:04Z</time>
      </trkpt>
      <trkpt lat="37.097239019349217" lon="-3.023550035431981">
        <ele>1951.6099999999999</ele>
        <time>2025-05-12T10:50:05Z</time>
      </trkpt>
      <trkpt lat="37.098767962306738" lon="-3.022774960845709">
        <ele>1962.1900000000001</ele>
        <time>2025-05-12T10:50:14Z</time>
      </trkpt>
      <trkpt lat="37.099154032766819" lon="-3.022710001096129">
        <ele>1965.0699999999999</ele>
        <time>2025-05-12T10:50:17Z</time>
      </trkpt>
      <trkpt lat="37.099268026649952" lon="-3.022741014137864">
        <ele>1966.03</ele>
        <time>2025-05-12T10:50:18Z</time>
      </trkpt>
      <trkpt lat="37.099385960027575" lon="-3.022795999422669">
        <ele>1967.48</ele>
        <time>2025-05-12T10:50:19Z</time>
      </trkpt>
      <trkpt lat="37.099497020244598" lon="-3.022897001355887">
        <ele>1968.4400000000001</ele>
        <time>2025-05-12T10:50:20Z</time>
      </trkpt>
      <trkpt lat="37.099618976935744" lon="-3.023006971925497">
        <ele>1969.8800000000001</ele>
        <time>2025-05-12T10:50:21Z</time>
      </trkpt>
      <trkpt lat="37.100850027054548" lon="-3.024022020399571">
        <ele>1978.53</ele>
        <time>2025-05-12T10:50:29Z</time>
      </trkpt>
      <trkpt lat="37.101133000105619" lon="-3.024254031479359">
        <ele>1980.45</ele>
        <time>2025-05-12T10:50:31Z</time>
      </trkpt>
      <trkpt lat="37.101249005645514" lon="-3.024381017312408">
        <ele>1981.9000000000001</ele>
        <time>2025-05-12T10:50:32Z</time>
      </trkpt>
      <trkpt lat="37.101341960951686" lon="-3.024530969560146">
        <ele>1983.3399999999999</ele>
        <time>2025-05-12T10:50:33Z</time>
      </trkpt>
      <trkpt lat="37.101623006165028" lon="-3.025059029459953">
        <ele>1988.1400000000001</ele>
        <time>2025-05-12T10:50:37Z</time>
      </trkpt>
      <trkpt lat="37.101700035855174" lon="-3.025156008079648">
        <ele>1989.0999999999999</ele>
        <time>2025-05-12T10:50:38Z</time>
      </trkpt>
      <trkpt lat="37.101786034181714" lon="-3.025242006406188">
        <ele>1990.0699999999999</ele>
        <time>2025-05-12T10:50:39Z</time>
      </trkpt>
      <trkpt lat="37.102587008848786" lon="-3.025958994403482">
        <ele>1997.76</ele>
        <time>2025-05-12T10:50:46Z</time>
      </trkpt>
      <trkpt lat="37.102741990238428" lon="-3.026033006608486">
        <ele>1999.2</ele>
        <time>2025-05-12T10:50:47Z</time>
      </trkpt>
      <trkpt lat="37.102900994941592" lon="-3.026108024641872">
        <ele>2000.1600000000001</ele>
        <time>2025-05-12T10:50:48Z</time>
      </trkpt>
      <trkpt lat="37.103357976302505" lon="-3.026258982717991">
        <ele>2003.52</ele>
        <time>2025-05-12T10:50:51Z</time>
      </trkpt>
      <trkpt lat="37.103508012369275" lon="-3.026251019909978">
        <ele>2004.49</ele>
        <time>2025-05-12T10:50:52Z</time>
      </trkpt>
      <trkpt lat="37.103662993758917" lon="-3.026241967454553">
        <ele>2005.45</ele>
        <time>2025-05-12T10:50:53Z</time>
      </trkpt>
      <trkpt lat="37.1038209926337" lon="-3.026209026575089">
        <ele>2006.8900000000001</ele>
        <time>2025-05-12T10:50:54Z</time>
      </trkpt>
      <trkpt lat="37.103984020650387" lon="-3.026166027411819">
        <ele>2008.3299999999999</ele>
        <time>2025-05-12T10:50:55Z</time>
      </trkpt>
      <trkpt lat="37.10504500195384" lon="-3.025904009118676">
        <ele>2016.5</ele>
        <time>2025-05-12T10:51:01Z</time>
      </trkpt>
      <trkpt lat="37.105213981121778" lon="-3.025926975533366">
        <ele>2017.46</ele>
        <time>2025-05-12T10:51:02Z</time>
      </trkpt>
      <trkpt lat="37.105382038280368" lon="-3.025949019938707">
        <ele>2018.4300000000001</ele>
        <time>2025-05-12T10:51:03Z</time>
      </trkpt>
      <trkpt lat="37.105546994134784" lon="-3.026002999395132">
        <ele>2019.3900000000001</ele>
        <time>2025-05-12T10:51:04Z</time>
      </trkpt>
      <trkpt lat="37.105713039636612" lon="-3.026091009378433">
        <ele>2020.3499999999999</ele>
        <time>2025-05-12T10:51:05Z</time>
      </trkpt>
      <trkpt lat="37.107428982853889" lon="-3.026839010417461">
        <ele>2028.52</ele>
        <time>2025-05-12T10:51:14Z</time>
      </trkpt>
      <trkpt lat="37.108604041859508" lon="-3.027522973716259">
        <ele>2034.77</ele>
        <time>2025-05-12T10:51:21Z</time>
      </trkpt>
      <trkpt lat="37.109242994338274" lon="-3.027903009206057">
        <ele>2040.05</ele>
        <time>2025-05-12T10:51:28Z</time>
      </trkpt>
      <trkpt lat="37.109334021806717" lon="-3.027956988662481">
        <ele>2041.98</ele>
        <time>2025-05-12T10:51:31Z</time>
      </trkpt>
      <trkpt lat="37.109461007639766" lon="-3.028033012524247">
        <ele>2045.8199999999999</ele>
        <time>2025-05-12T10:51:39Z</time>
      </trkpt>
      <trkpt lat="37.109504006803036" lon="-3.028057990595698">
        <ele>2047.75</ele>
        <time>2025-05-12T10:51:53Z</time>
      </trkpt>
      <trkpt lat="37.109564021229744" lon="-3.028094032779336">
        <ele>2048.71</ele>
        <time>2025-05-12T10:51:55Z</time>
      </trkpt>
      <trkpt lat="37.10962101817131" lon="-3.028133008629084">
        <ele>2049.6700000000001</ele>
        <time>2025-05-12T10:51:56Z</time>
      </trkpt>
      <trkpt lat="37.109696036204696" lon="-3.02819000557065">
        <ele>2050.1500000000001</ele>
        <time>2025-05-12T10:51:57Z</time>
      </trkpt>
      <trkpt lat="37.110442025586963" lon="-3.028580015525222">
        <ele>2052.0700000000002</ele>
        <time>2025-05-12T10:52:03Z</time>
      </trkpt>
      <trkpt lat="37.112039029598236" lon="-3.02928501740098">
        <ele>2051.5900000000001</ele>
        <time>2025-05-12T10:52:12Z</time>
      </trkpt>
      <trkpt lat="37.113055000081658" lon="-3.029706040397286">
        <ele>2050.6300000000001</ele>
        <time>2025-05-12T10:52:20Z</time>
      </trkpt>
      <trkpt lat="37.113304026424885" lon="-3.029807964339852">
        <ele>2048.71</ele>
        <time>2025-05-12T10:52:26Z</time>
      </trkpt>
      <trkpt lat="37.113492032513022" lon="-3.029891029000282">
        <ele>2046.78</ele>
        <time>2025-05-12T10:52:37Z</time>
      </trkpt>
      <trkpt lat="37.113522961735725" lon="-3.029905026778579">
        <ele>2046.3</ele>
        <time>2025-05-12T10:52:46Z</time>
      </trkpt>
      <trkpt lat="37.113537965342402" lon="-3.029910977929831">
        <ele>2046.3</ele>
        <time>2025-05-12T10:52:47Z</time>
      </trkpt>
      <trkpt lat="37.11355104111135" lon="-3.029917012900114">
        <ele>2045.8199999999999</ele>
        <time>2025-05-12T10:52:48Z</time>
      </trkpt>
      <trkpt lat="37.11355104111135" lon="-3.029917012900114">
        <ele>2045.8199999999999</ele>
        <time>2025-05-12T10:52:49Z</time>
      </trkpt>
      <trkpt lat="37.11355104111135" lon="-3.029917012900114">
        <ele>2045.8199999999999</ele>
        <time>2025-05-12T10:52:51Z</time>
      </trkpt>
      <trkpt lat="37.113547017797828" lon="-3.029915001243353">
        <ele>2045.8199999999999</ele>
        <time>2025-05-12T10:52:52Z</time>
      </trkpt>
      <trkpt lat="37.113530002534389" lon="-3.029907960444689">
        <ele>2045.8199999999999</ele>
        <time>2025-05-12T10:52:53Z</time>
      </trkpt>
      <trkpt lat="37.113505024462938" lon="-3.029896980151534">
        <ele>2045.8199999999999</ele>
        <time>2025-05-12T10:52:54Z</time>
      </trkpt>
      <trkpt lat="37.113468982279301" lon="-3.029880970716476">
        <ele>2045.8199999999999</ele>
        <time>2025-05-12T10:52:55Z</time>
      </trkpt>
      <trkpt lat="37.113432018086314" lon="-3.02986403927207">
        <ele>2045.8199999999999</ele>
        <time>2025-05-12T10:52:56Z</time>
      </trkpt>
      <trkpt lat="37.113399999216199" lon="-3.029850041493774">
        <ele>2045.8199999999999</ele>
        <time>2025-05-12T10:52:57Z</time>
      </trkpt>
      <trkpt lat="37.113372003659606" lon="-3.029836965724826">
        <ele>2045.8199999999999</ele>
        <time>2025-05-12T10:52:58Z</time>
      </trkpt>
      <trkpt lat="37.113349959254265" lon="-3.029827997088432">
        <ele>2045.8199999999999</ele>
        <time>2025-05-12T10:52:59Z</time>
      </trkpt>
      <trkpt lat="37.113339984789491" lon="-3.029822967946529">
        <ele>2045.8199999999999</ele>
        <time>2025-05-12T10:53:00Z</time>
      </trkpt>
      <trkpt lat="37.113339984789491" lon="-3.029822967946529">
        <ele>2045.3399999999999</ele>
        <time>2025-05-12T10:53:13Z</time>
      </trkpt>
      <trkpt lat="37.113339984789491" lon="-3.029822967946529">
        <ele>2045.3399999999999</ele>
        <time>2025-05-12T10:53:38Z</time>
      </trkpt>
      <trkpt lat="37.113339984789491" lon="-3.029822967946529">
        <ele>2045.3399999999999</ele>
        <time>2025-05-12T10:53:55Z</time>
      </trkpt>
      <trkpt lat="37.113505024462938" lon="-3.029804024845362">
        <ele>2049.6700000000001</ele>
        <time>2025-05-12T10:56:03Z</time>
      </trkpt>
      <trkpt lat="37.113397987559438" lon="-3.029835037887096">
        <ele>2044.3800000000001</ele>
        <time>2025-05-12T10:56:48Z</time>
      </trkpt>
      <trkpt lat="37.113399999216199" lon="-3.029843000695109">
        <ele>2049.6700000000001</ele>
        <time>2025-05-12T10:57:36Z</time>
      </trkpt>
      <trkpt lat="37.113399999216199" lon="-3.029850963503122">
        <ele>2049.1900000000001</ele>
        <time>2025-05-12T10:58:24Z</time>
      </trkpt>
      <trkpt lat="37.113394970074296" lon="-3.029848029837012">
        <ele>2048.71</ele>
        <time>2025-05-12T10:59:16Z</time>
      </trkpt>
      <trkpt lat="37.113393964245915" lon="-3.02984400652349">
        <ele>2048.23</ele>
        <time>2025-05-12T10:59:48Z</time>
      </trkpt>
      <trkpt lat="37.113393964245915" lon="-3.02984400652349">
        <ele>2048.23</ele>
        <time>2025-05-12T10:59:54Z</time>
      </trkpt>
      <trkpt lat="37.113436041399837" lon="-3.029865967109799">
        <ele>2047.26</ele>
        <time>2025-05-12T10:59:57Z</time>
      </trkpt>
      <trkpt lat="37.113460013642907" lon="-3.029877031221986">
        <ele>2047.26</ele>
        <time>2025-05-12T10:59:58Z</time>
      </trkpt>
      <trkpt lat="37.113490020856261" lon="-3.029890023171902">
        <ele>2046.78</ele>
        <time>2025-05-12T10:59:59Z</time>
      </trkpt>
      <trkpt lat="37.113516004756093" lon="-3.029901003465056">
        <ele>2046.78</ele>
        <time>2025-05-12T11:00:00Z</time>
      </trkpt>
      <trkpt lat="37.113536959514022" lon="-3.029910977929831">
        <ele>2046.3</ele>
        <time>2025-05-12T11:00:01Z</time>
      </trkpt>
      <trkpt lat="37.113536959514022" lon="-3.029910977929831">
        <ele>2046.3</ele>
        <time>2025-05-12T11:00:02Z</time>
      </trkpt>
      <trkpt lat="37.113536959514022" lon="-3.029910977929831">
        <ele>2045.8199999999999</ele>
        <time>2025-05-12T11:00:05Z</time>
      </trkpt>
      <trkpt lat="37.113540982827544" lon="-3.029912989586592">
        <ele>2045.3399999999999</ele>
        <time>2025-05-12T11:00:06Z</time>
      </trkpt>
      <trkpt lat="37.113512987270951" lon="-3.029899997636676">
        <ele>2045.3399999999999</ele>
        <time>2025-05-12T11:00:07Z</time>
      </trkpt>
      <trkpt lat="37.113459007814527" lon="-3.029876025393605">
        <ele>2045.8199999999999</ele>
        <time>2025-05-12T11:00:08Z</time>
      </trkpt>
      <trkpt lat="37.113379966467619" lon="-3.029840989038348">
        <ele>2045.8199999999999</ele>
        <time>2025-05-12T11:00:09Z</time>
      </trkpt>
      <trkpt lat="37.112641017884016" lon="-3.029521973803639">
        <ele>2045.3399999999999</ele>
        <time>2025-05-12T11:00:15Z</time>
      </trkpt>
      <trkpt lat="37.110957009717822" lon="-3.028809009119868">
        <ele>2041.98</ele>
        <time>2025-05-12T11:00:25Z</time>
      </trkpt>
      <trkpt lat="37.109887981787324" lon="-3.028309028595686">
        <ele>2040.05</ele>
        <time>2025-05-12T11:00:31Z</time>
      </trkpt>
      <trkpt lat="37.108330959454179" lon="-3.027360029518604">
        <ele>2035.73</ele>
        <time>2025-05-12T11:00:40Z</time>
      </trkpt>
      <trkpt lat="37.106713000684977" lon="-3.026524018496275">
        <ele>2028.04</ele>
        <time>2025-05-12T11:00:48Z</time>
      </trkpt>
      <trkpt lat="37.104854984208941" lon="-3.02593301050365">
        <ele>2016.02</ele>
        <time>2025-05-12T11:00:57Z</time>
      </trkpt>
      <trkpt lat="37.104214020073414" lon="-3.025566972792149">
        <ele>2012.6600000000001</ele>
        <time>2025-05-12T11:01:00Z</time>
      </trkpt>
      <trkpt lat="37.103308020159602" lon="-3.025703011080623">
        <ele>2006.8900000000001</ele>
        <time>2025-05-12T11:01:05Z</time>
      </trkpt>
      <trkpt lat="37.102033970877528" lon="-3.025491032749414">
        <ele>1996.3199999999999</ele>
        <time>2025-05-12T11:01:12Z</time>
      </trkpt>
      <trkpt lat="37.101645972579718" lon="-3.025103034451604">
        <ele>1991.99</ele>
        <time>2025-05-12T11:01:15Z</time>
      </trkpt>
      <trkpt lat="37.10154103115201" lon="-3.02490497007966">
        <ele>1991.99</ele>
        <time>2025-05-12T11:01:16Z</time>
      </trkpt>
      <trkpt lat="37.101450003683567" lon="-3.02473297342658">
        <ele>1991.03</ele>
        <time>2025-05-12T11:01:17Z</time>
      </trkpt>
      <trkpt lat="37.10124003700912" lon="-3.024370959028602">
        <ele>1987.6600000000001</ele>
        <time>2025-05-12T11:01:19Z</time>
      </trkpt>
      <trkpt lat="37.101112967357039" lon="-3.024231987074018">
        <ele>1986.22</ele>
        <time>2025-05-12T11:01:20Z</time>
      </trkpt>
      <trkpt lat="37.100981958210468" lon="-3.024114975705743">
        <ele>1984.78</ele>
        <time>2025-05-12T11:01:21Z</time>
      </trkpt>
      <trkpt lat="37.100838040933013" lon="-3.024013973772526">
        <ele>1983.8199999999999</ele>
        <time>2025-05-12T11:01:22Z</time>
      </trkpt>
      <trkpt lat="37.100689010694623" lon="-3.023910038173199">
        <ele>1982.3800000000001</ele>
        <time>2025-05-12T11:01:23Z</time>
      </trkpt>
      <trkpt lat="37.099935980513692" lon="-3.023296985775232">
        <ele>1974.2</ele>
        <time>2025-05-12T11:01:29Z</time>
      </trkpt>
      <trkpt lat="37.099618976935744" lon="-3.023006971925497">
        <ele>1967.96</ele>
        <time>2025-05-12T11:01:36Z</time>
      </trkpt>
      <trkpt lat="37.099483022466302" lon="-3.022884009405971">
        <ele>1964.1099999999999</ele>
        <time>2025-05-12T11:01:44Z</time>
      </trkpt>
      <trkpt lat="37.099483022466302" lon="-3.022884009405971">
        <ele>1963.6300000000001</ele>
        <time>2025-05-12T11:02:26Z</time>
      </trkpt>
      <trkpt lat="37.099444968625903" lon="-3.022849978879094">
        <ele>1964.1099999999999</ele>
        <time>2025-05-12T11:02:31Z</time>
      </trkpt>
      <trkpt lat="37.099402975291014" lon="-3.022812008857727">
        <ele>1964.5899999999999</ele>
        <time>2025-05-12T11:02:32Z</time>
      </trkpt>
      <trkpt lat="37.099354024976492" lon="-3.022768003866077">
        <ele>1965.0699999999999</ele>
        <time>2025-05-12T11:02:33Z</time>
      </trkpt>
      <trkpt lat="37.099276995286345" lon="-3.022744031623006">
        <ele>1965.55</ele>
        <time>2025-05-12T11:02:34Z</time>
      </trkpt>
      <trkpt lat="37.099213963374496" lon="-3.022727016359568">
        <ele>1965.55</ele>
        <time>2025-05-12T11:02:35Z</time>
      </trkpt>
      <trkpt lat="37.099152021110058" lon="-3.022710001096129">
        <ele>1965.55</ele>
        <time>2025-05-12T11:02:36Z</time>
      </trkpt>
      <trkpt lat="37.099078008905053" lon="-3.022706983610988">
        <ele>1965.55</ele>
        <time>2025-05-12T11:02:37Z</time>
      </trkpt>
      <trkpt lat="37.099012965336442" lon="-3.022718969732523">
        <ele>1965.0699999999999</ele>
        <time>2025-05-12T11:02:38Z</time>
      </trkpt>
      <trkpt lat="37.098939958959818" lon="-3.0227339733392">
        <ele>1964.5899999999999</ele>
        <time>2025-05-12T11:02:39Z</time>
      </trkpt>
      <trkpt lat="37.098270999267697" lon="-3.022996997460723">
        <ele>1962.1900000000001</ele>
        <time>2025-05-12T11:02:45Z</time>
      </trkpt>
      <trkpt lat="37.097126031294465" lon="-3.023614995181561">
        <ele>1956.4200000000001</ele>
        <time>2025-05-12T11:02:52Z</time>
      </trkpt>
      <trkpt lat="37.096756976097822" lon="-3.023775005713105">
        <ele>1953.54</ele>
        <time>2025-05-12T11:02:54Z</time>
      </trkpt>
      <trkpt lat="37.096563018858433" lon="-3.023827979341149">
        <ele>1952.0899999999999</ele>
        <time>2025-05-12T11:02:55Z</time>
      </trkpt>
      <trkpt lat="37.09636596031487" lon="-3.023840971291065">
        <ele>1950.6500000000001</ele>
        <time>2025-05-12T11:02:56Z</time>
      </trkpt>
      <trkpt lat="37.096166973933578" lon="-3.023803001269698">
        <ele>1949.21</ele>
        <time>2025-05-12T11:02:57Z</time>
      </trkpt>
      <trkpt lat="37.095964970067143" lon="-3.023764025419951">
        <ele>1947.29</ele>
        <time>2025-05-12T11:02:58Z</time>
      </trkpt>
      <trkpt lat="37.095770006999373" lon="-3.023690013214946">
        <ele>1945.8499999999999</ele>
        <time>2025-05-12T11:02:59Z</time>
      </trkpt>
      <trkpt lat="37.095574960112572" lon="-3.023595968261361">
        <ele>1943.9200000000001</ele>
        <time>2025-05-12T11:03:00Z</time>
      </trkpt>
      <trkpt lat="37.095372034236789" lon="-3.023497983813286">
        <ele>1941.52</ele>
        <time>2025-05-12T11:03:01Z</time>
      </trkpt>
      <trkpt lat="37.09436503238976" lon="-3.023086013272405">
        <ele>1930.46</ele>
        <time>2025-05-12T11:03:06Z</time>
      </trkpt>
      <trkpt lat="37.094166968017817" lon="-3.023084001615644">
        <ele>1928.0599999999999</ele>
        <time>2025-05-12T11:03:07Z</time>
      </trkpt>
      <trkpt lat="37.093963958323002" lon="-3.023071009665728">
        <ele>1925.6600000000001</ele>
        <time>2025-05-12T11:03:08Z</time>
      </trkpt>
      <trkpt lat="37.093756003305316" lon="-3.023057011887431">
        <ele>1923.25</ele>
        <time>2025-05-12T11:03:09Z</time>
      </trkpt>
      <trkpt lat="37.093548970296979" lon="-3.023044019937515">
        <ele>1920.8499999999999</ele>
        <time>2025-05-12T11:03:10Z</time>
      </trkpt>
      <trkpt lat="37.093359958380461" lon="-3.023086013272405">
        <ele>1918.9300000000001</ele>
        <time>2025-05-12T11:03:11Z</time>
      </trkpt>
      <trkpt lat="37.09318402223289" lon="-3.023148961365223">
        <ele>1916.53</ele>
        <time>2025-05-12T11:03:12Z</time>
      </trkpt>
      <trkpt lat="37.093002973124385" lon="-3.023230014368892">
        <ele>1914.5999999999999</ele>
        <time>2025-05-12T11:03:13Z</time>
      </trkpt>
      <trkpt lat="37.092832988128066" lon="-3.023316012695432">
        <ele>1912.6800000000001</ele>
        <time>2025-05-12T11:03:14Z</time>
      </trkpt>
      <trkpt lat="37.092686975374818" lon="-3.023461019620299">
        <ele>1910.76</ele>
        <time>2025-05-12T11:03:15Z</time>
      </trkpt>
      <trkpt lat="37.092552026733756" lon="-3.023610971868038">
        <ele>1908.8299999999999</ele>
        <time>2025-05-12T11:03:16Z</time>
      </trkpt>
      <trkpt lat="37.092429986223578" lon="-3.023781040683389">
        <ele>1906.9100000000001</ele>
        <time>2025-05-12T11:03:17Z</time>
      </trkpt>
      <trkpt lat="37.092310041189194" lon="-3.023948008194566">
        <ele>1904.99</ele>
        <time>2025-05-12T11:03:18Z</time>
      </trkpt>
      <trkpt lat="37.092225970700383" lon="-3.024155041202903">
        <ele>1903.55</ele>
        <time>2025-05-12T11:03:19Z</time>
      </trkpt>
      <trkpt lat="37.091662036255002" lon="-3.025188026949763">
        <ele>1894.9000000000001</ele>
        <time>2025-05-12T11:03:24Z</time>
      </trkpt>
      <trkpt lat="37.091500014066696" lon="-3.025329010561109">
        <ele>1892.97</ele>
        <time>2025-05-12T11:03:25Z</time>
      </trkpt>
      <trkpt lat="37.091338997706771" lon="-3.025468988344073">
        <ele>1891.05</ele>
        <time>2025-05-12T11:03:26Z</time>
      </trkpt>
      <trkpt lat="37.090580016374588" lon="-3.026036024093628">
        <ele>1884.3199999999999</ele>
        <time>2025-05-12T11:03:31Z</time>
      </trkpt>
      <trkpt lat="37.090480020269752" lon="-3.026133002713323">
        <ele>1882.8800000000001</ele>
        <time>2025-05-12T11:03:32Z</time>
      </trkpt>
      <trkpt lat="37.090421011671424" lon="-3.026251019909978">
        <ele>1881.4400000000001</ele>
        <time>2025-05-12T11:03:33Z</time>
      </trkpt>
      <trkpt lat="37.090410031378269" lon="-3.026379011571407">
        <ele>1880</ele>
        <time>2025-05-12T11:03:34Z</time>
      </trkpt>
      <trkpt lat="37.090407013893127" lon="-3.026525024324656">
        <ele>1879.03</ele>
        <time>2025-05-12T11:03:35Z</time>
      </trkpt>
      <trkpt lat="37.090421011671424" lon="-3.026678999885917">
        <ele>1877.5899999999999</ele>
        <time>2025-05-12T11:03:36Z</time>
      </trkpt>
      <trkpt lat="37.090619998052716" lon="-3.028032006695867">
        <ele>1869.9000000000001</ele>
        <time>2025-05-12T11:03:43Z</time>
      </trkpt>
      <trkpt lat="37.090694010257721" lon="-3.02823199890554">
        <ele>1868.9400000000001</ele>
        <time>2025-05-12T11:03:44Z</time>
      </trkpt>
      <trkpt lat="37.0907779969275" lon="-3.028418999165297">
        <ele>1867.5</ele>
        <time>2025-05-12T11:03:45Z</time>
      </trkpt>
      <trkpt lat="37.090855026617646" lon="-3.028590995818377">
        <ele>1865.5799999999999</ele>
        <time>2025-05-12T11:03:46Z</time>
      </trkpt>
      <trkpt lat="37.090916968882084" lon="-3.02872896194458">
        <ele>1863.6500000000001</ele>
        <time>2025-05-12T11:03:47Z</time>
      </trkpt>
      <trkpt lat="37.090932978317142" lon="-3.02885795943439">
        <ele>1862.21</ele>
        <time>2025-05-12T11:03:48Z</time>
      </trkpt>
      <trkpt lat="37.090920992195606" lon="-3.028942029923201">
        <ele>1860.29</ele>
        <time>2025-05-12T11:03:49Z</time>
      </trkpt>
      <trkpt lat="37.09088696166873" lon="-3.029021993279457">
        <ele>1858.8499999999999</ele>
        <time>2025-05-12T11:03:50Z</time>
      </trkpt>
      <trkpt lat="37.090829964727163" lon="-3.029061974957585">
        <ele>1856.4400000000001</ele>
        <time>2025-05-12T11:03:51Z</time>
      </trkpt>
      <trkpt lat="37.09075603634119" lon="-3.029041020199657">
        <ele>1855</ele>
        <time>2025-05-12T11:03:52Z</time>
      </trkpt>
      <trkpt lat="37.090675989165902" lon="-3.02896399050951">
        <ele>1853.0799999999999</ele>
        <time>2025-05-12T11:03:53Z</time>
      </trkpt>
      <trkpt lat="37.090579010546207" lon="-3.028870029374957">
        <ele>1851.6400000000001</ele>
        <time>2025-05-12T11:03:54Z</time>
      </trkpt>
      <trkpt lat="37.090469961985946" lon="-3.028763998299837">
        <ele>1850.1900000000001</ele>
        <time>2025-05-12T11:03:55Z</time>
      </trkpt>
      <trkpt lat="37.089878031983972" lon="-3.028067965060473">
        <ele>1843.95</ele>
        <time>2025-05-12T11:04:00Z</time>
      </trkpt>
      <trkpt lat="37.089456003159285" lon="-3.027209993451834">
        <ele>1837.7</ele>
        <time>2025-05-12T11:04:05Z</time>
      </trkpt>
      <trkpt lat="37.089347038418055" lon="-3.027064986526966">
        <ele>1836.26</ele>
        <time>2025-05-12T11:04:06Z</time>
      </trkpt>
      <trkpt lat="37.088857032358646" lon="-3.026461992412806">
        <ele>1828.5599999999999</ele>
        <time>2025-05-12T11:04:12Z</time>
      </trkpt>
      <trkpt lat="37.088154964148998" lon="-3.025668980553746">
        <ele>1821.3499999999999</ele>
        <time>2025-05-12T11:04:20Z</time>
      </trkpt>
      <trkpt lat="37.088044993579388" lon="-3.02552699111402">
        <ele>1820.8699999999999</ele>
        <time>2025-05-12T11:04:21Z</time>
      </trkpt>
      <trkpt lat="37.087936028838158" lon="-3.025367986410856">
        <ele>1820.3900000000001</ele>
        <time>2025-05-12T11:04:22Z</time>
      </trkpt>
      <trkpt lat="37.087716003879905" lon="-3.025061041116715">
        <ele>1818.95</ele>
        <time>2025-05-12T11:04:24Z</time>
      </trkpt>
      <trkpt lat="37.08757895976305" lon="-3.024948975071311">
        <ele>1817.99</ele>
        <time>2025-05-12T11:04:25Z</time>
      </trkpt>
      <trkpt lat="37.087415009737015" lon="-3.024854008108378">
        <ele>1817.03</ele>
        <time>2025-05-12T11:04:26Z</time>
      </trkpt>
      <trkpt lat="37.087242007255554" lon="-3.024787958711386">
        <ele>1816.55</ele>
        <time>2025-05-12T11:04:27Z</time>
      </trkpt>
      <trkpt lat="37.087059030309319" lon="-3.024719981476665">
        <ele>1815.5899999999999</ele>
        <time>2025-05-12T11:04:28Z</time>
      </trkpt>
      <trkpt lat="37.086871024221182" lon="-3.024647980928421">
        <ele>1814.1500000000001</ele>
        <time>2025-05-12T11:04:29Z</time>
      </trkpt>
      <trkpt lat="37.086663991212845" lon="-3.024591989815235">
        <ele>1812.7</ele>
        <time>2025-05-12T11:04:30Z</time>
      </trkpt>
      <trkpt lat="37.086458969861269" lon="-3.024611016735435">
        <ele>1811.26</ele>
        <time>2025-05-12T11:04:31Z</time>
      </trkpt>
      <trkpt lat="37.086249003186822" lon="-3.024630965664983">
        <ele>1810.3</ele>
        <time>2025-05-12T11:04:32Z</time>
      </trkpt>
      <trkpt lat="37.086046999320388" lon="-3.024648986756802">
        <ele>1808.8599999999999</ele>
        <time>2025-05-12T11:04:33Z</time>
      </trkpt>
      <trkpt lat="37.085852958261967" lon="-3.02466700784862">
        <ele>1807.9000000000001</ele>
        <time>2025-05-12T11:04:34Z</time>
      </trkpt>
      <trkpt lat="37.085680961608887" lon="-3.024672958999872">
        <ele>1806.45</ele>
        <time>2025-05-12T11:04:35Z</time>
      </trkpt>
      <trkpt lat="37.085533021017909" lon="-3.024644963443279">
        <ele>1805.97</ele>
        <time>2025-05-12T11:04:36Z</time>
      </trkpt>
      <trkpt lat="37.08538600243628" lon="-3.024575980380178">
        <ele>1805.01</ele>
        <time>2025-05-12T11:04:37Z</time>
      </trkpt>
      <trkpt lat="37.085219034925103" lon="-3.024499034509063">
        <ele>1804.05</ele>
        <time>2025-05-12T11:04:38Z</time>
      </trkpt>
      <trkpt lat="37.085034968331456" lon="-3.024413036182523">
        <ele>1803.0899999999999</ele>
        <time>2025-05-12T11:04:39Z</time>
      </trkpt>
      <trkpt lat="37.084659961983562" lon="-3.024198962375522">
        <ele>1801.1700000000001</ele>
        <time>2025-05-12T11:04:41Z</time>
      </trkpt>
      <trkpt lat="37.08446298725903" lon="-3.024080023169518">
        <ele>1800.21</ele>
        <time>2025-05-12T11:04:42Z</time>
      </trkpt>
      <trkpt lat="37.083074022084475" lon="-3.023199001327157">
        <ele>1791.0699999999999</ele>
        <time>2025-05-12T11:04:49Z</time>
      </trkpt>
      <trkpt lat="37.081322036683559" lon="-3.02268804050982">
        <ele>1777.1300000000001</ele>
        <time>2025-05-12T11:04:57Z</time>
      </trkpt>
      <trkpt lat="37.079410962760448" lon="-3.022317979484797">
        <ele>1761.27</ele>
        <time>2025-05-12T11:05:06Z</time>
      </trkpt>
      <trkpt lat="37.079079961404204" lon="-3.022239021956921">
        <ele>1758.3900000000001</ele>
        <time>2025-05-12T11:05:08Z</time>
      </trkpt>
      <trkpt lat="37.078922968357801" lon="-3.022187976166606">
        <ele>1756.95</ele>
        <time>2025-05-12T11:05:09Z</time>
      </trkpt>
      <trkpt lat="37.078630020841956" lon="-3.022093009203672">
        <ele>1755.02</ele>
        <time>2025-05-12T11:05:11Z</time>
      </trkpt>
      <trkpt lat="37.078498005867004" lon="-3.022050010040402">
        <ele>1754.0599999999999</ele>
        <time>2025-05-12T11:05:12Z</time>
      </trkpt>
      <trkpt lat="37.078377977013588" lon="-3.022074988111854">
        <ele>1753.5799999999999</ele>
        <time>2025-05-12T11:05:13Z</time>
      </trkpt>
      <trkpt lat="37.078287033364177" lon="-3.022136008366942">
        <ele>1752.6199999999999</ele>
        <time>2025-05-12T11:05:14Z</time>
      </trkpt>
      <trkpt lat="37.078219978138804" lon="-3.022219995036721">
        <ele>1752.1400000000001</ele>
        <time>2025-05-12T11:05:15Z</time>
      </trkpt>
      <trkpt lat="37.078152000904083" lon="-3.022304987534881">
        <ele>1751.6600000000001</ele>
        <time>2025-05-12T11:05:16Z</time>
      </trkpt>
      <trkpt lat="37.078076982870698" lon="-3.022354021668434">
        <ele>1751.1800000000001</ele>
        <time>2025-05-12T11:05:17Z</time>
      </trkpt>
      <trkpt lat="37.07799500785768" lon="-3.022384028881788">
        <ele>1750.22</ele>
        <time>2025-05-12T11:05:18Z</time>
      </trkpt>
      <trkpt lat="37.077902974560857" lon="-3.022355027496815">
        <ele>1749.74</ele>
        <time>2025-05-12T11:05:19Z</time>
      </trkpt>
      <trkpt lat="37.077825022861362" lon="-3.022282021120191">
        <ele>1749.26</ele>
        <time>2025-05-12T11:05:20Z</time>
      </trkpt>
      <trkpt lat="37.077797027304769" lon="-3.022179007530212">
        <ele>1748.78</ele>
        <time>2025-05-12T11:05:21Z</time>
      </trkpt>
      <trkpt lat="37.077764002606273" lon="-3.022061996161938">
        <ele>1747.8099999999999</ele>
        <time>2025-05-12T11:05:22Z</time>
      </trkpt>
      <trkpt lat="37.077721003443003" lon="-3.021905003115535">
        <ele>1746.8499999999999</ele>
        <time>2025-05-12T11:05:23Z</time>
      </trkpt>
      <trkpt lat="37.07765000872314" lon="-3.021805007010698">
        <ele>1745.4100000000001</ele>
        <time>2025-05-12T11:05:24Z</time>
      </trkpt>
      <trkpt lat="37.077569961547852" lon="-3.021691013127565">
        <ele>1743.97</ele>
        <time>2025-05-12T11:05:25Z</time>
      </trkpt>
      <trkpt lat="37.077444987371564" lon="-3.021640973165631">
        <ele>1743.01</ele>
        <time>2025-05-12T11:05:26Z</time>
      </trkpt>
      <trkpt lat="37.077320013195276" lon="-3.021617000922561">
        <ele>1741.5699999999999</ele>
        <time>2025-05-12T11:05:27Z</time>
      </trkpt>
      <trkpt lat="37.07720099017024" lon="-3.021656982600689">
        <ele>1740.5999999999999</ele>
        <time>2025-05-12T11:05:28Z</time>
      </trkpt>
      <trkpt lat="37.077097976580262" lon="-3.021691013127565">
        <ele>1739.1600000000001</ele>
        <time>2025-05-12T11:05:29Z</time>
      </trkpt>
      <trkpt lat="37.076968979090452" lon="-3.021727977320552">
        <ele>1738.2</ele>
        <time>2025-05-12T11:05:30Z</time>
      </trkpt>
      <trkpt lat="37.076861020177603" lon="-3.021758990362287">
        <ele>1737.72</ele>
        <time>2025-05-12T11:05:31Z</time>
      </trkpt>
      <trkpt lat="37.076757000759244" lon="-3.021742980927229">
        <ele>1736.76</ele>
        <time>2025-05-12T11:05:32Z</time>
      </trkpt>
      <trkpt lat="37.076668990775943" lon="-3.021668968722224">
        <ele>1736.28</ele>
        <time>2025-05-12T11:05:33Z</time>
      </trkpt>
      <trkpt lat="37.076587015762925" lon="-3.021560003980994">
        <ele>1735.8</ele>
        <time>2025-05-12T11:05:34Z</time>
      </trkpt>
      <trkpt lat="37.076496994122863" lon="-3.021438969299197">
        <ele>1734.8399999999999</ele>
        <time>2025-05-12T11:05:35Z</time>
      </trkpt>
      <trkpt lat="37.076402027159929" lon="-3.021319024264813">
        <ele>1733.8800000000001</ele>
        <time>2025-05-12T11:05:36Z</time>
      </trkpt>
      <trkpt lat="37.076283004134893" lon="-3.021234031766653">
        <ele>1732.9100000000001</ele>
        <time>2025-05-12T11:05:37Z</time>
      </trkpt>
      <trkpt lat="37.076146965846419" lon="-3.0211849976331">
        <ele>1731.95</ele>
        <time>2025-05-12T11:05:38Z</time>
      </trkpt>
      <trkpt lat="37.076000031083822" lon="-3.021152978762984">
        <ele>1730.51</ele>
        <time>2025-05-12T11:05:39Z</time>
      </trkpt>
      <trkpt lat="37.075844965875149" lon="-3.021147027611733">
        <ele>1729.55</ele>
        <time>2025-05-12T11:05:40Z</time>
      </trkpt>
      <trkpt lat="37.075684033334255" lon="-3.021140992641449">
        <ele>1728.5899999999999</ele>
        <time>2025-05-12T11:05:41Z</time>
      </trkpt>
      <trkpt lat="37.075367029756308" lon="-3.021094975993037">
        <ele>1726.6700000000001</ele>
        <time>2025-05-12T11:05:43Z</time>
      </trkpt>
      <trkpt lat="37.075221017003059" lon="-3.021038984879851">
        <ele>1726.1800000000001</ele>
        <time>2025-05-12T11:05:44Z</time>
      </trkpt>
      <trkpt lat="37.074287021532655" lon="-3.020677976310253">
        <ele>1719.46</ele>
        <time>2025-05-12T11:05:51Z</time>
      </trkpt>
      <trkpt lat="37.074176967144012" lon="-3.020665990188718">
        <ele>1718.49</ele>
        <time>2025-05-12T11:05:52Z</time>
      </trkpt>
      <trkpt lat="37.074013017117977" lon="-3.020694991573691">
        <ele>1716.0899999999999</ele>
        <time>2025-05-12T11:05:54Z</time>
      </trkpt>
      <trkpt lat="37.073967000469565" lon="-3.020706977695227">
        <ele>1715.1300000000001</ele>
        <time>2025-05-12T11:05:55Z</time>
      </trkpt>
      <trkpt lat="37.073916960507631" lon="-3.020642017945647">
        <ele>1715.1300000000001</ele>
        <time>2025-05-12T11:05:56Z</time>
      </trkpt>
      <trkpt lat="37.073927018791437" lon="-3.020588038489223">
        <ele>1714.6500000000001</ele>
        <time>2025-05-12T11:05:57Z</time>
      </trkpt>
      <trkpt lat="37.073940010741353" lon="-3.020517965778709">
        <ele>1714.1700000000001</ele>
        <time>2025-05-12T11:05:58Z</time>
      </trkpt>
      <trkpt lat="37.07395501434803" lon="-3.020435990765691">
        <ele>1713.6900000000001</ele>
        <time>2025-05-12T11:05:59Z</time>
      </trkpt>
      <trkpt lat="37.074003964662552" lon="-3.020371031016111">
        <ele>1712.73</ele>
        <time>2025-05-12T11:06:00Z</time>
      </trkpt>
      <trkpt lat="37.074070014059544" lon="-3.020352004095912">
        <ele>1712.73</ele>
        <time>2025-05-12T11:06:01Z</time>
      </trkpt>
      <trkpt lat="37.074152994900942" lon="-3.020357033237815">
        <ele>1712.25</ele>
        <time>2025-05-12T11:06:02Z</time>
      </trkpt>
      <trkpt lat="37.074246034026146" lon="-3.020401038229466">
        <ele>1711.76</ele>
        <time>2025-05-12T11:06:03Z</time>
      </trkpt>
      <trkpt lat="37.074348963797092" lon="-3.020449988543987">
        <ele>1711.76</ele>
        <time>2025-05-12T11:06:04Z</time>
      </trkpt>
      <trkpt lat="37.074590027332306" lon="-3.020557025447488">
        <ele>1710.8</ele>
        <time>2025-05-12T11:06:06Z</time>
      </trkpt>
      <trkpt lat="37.07472899928689" lon="-3.020578986033797">
        <ele>1710.8</ele>
        <time>2025-05-12T11:06:07Z</time>
      </trkpt>
      <trkpt lat="37.075983015820384" lon="-3.020617961883545">
        <ele>1706</ele>
        <time>2025-05-12T11:06:15Z</time>
      </trkpt>
      <trkpt lat="37.076844004914165" lon="-3.020539004355669">
        <ele>1702.6300000000001</ele>
        <time>2025-05-12T11:06:23Z</time>
      </trkpt>
      <trkpt lat="37.07692002877593" lon="-3.020532969385386">
        <ele>1702.1500000000001</ele>
        <time>2025-05-12T11:06:24Z</time>
      </trkpt>
      <trkpt lat="37.077311966568232" lon="-3.020468009635806">
        <ele>1700.23</ele>
        <time>2025-05-12T11:06:29Z</time>
      </trkpt>
      <trkpt lat="37.07739201374352" lon="-3.020442025735974">
        <ele>1699.75</ele>
        <time>2025-05-12T11:06:30Z</time>
      </trkpt>
      <trkpt lat="37.07745797932148" lon="-3.020375976338983">
        <ele>1699.27</ele>
        <time>2025-05-12T11:06:31Z</time>
      </trkpt>
      <trkpt lat="37.077485974878073" lon="-3.020292995497584">
        <ele>1698.79</ele>
        <time>2025-05-12T11:06:32Z</time>
      </trkpt>
      <trkpt lat="37.077514976263046" lon="-3.020205991342664">
        <ele>1698.3099999999999</ele>
        <time>2025-05-12T11:06:33Z</time>
      </trkpt>
      <trkpt lat="37.07750198431313" lon="-3.020101971924305">
        <ele>1697.8299999999999</ele>
        <time>2025-05-12T11:06:34Z</time>
      </trkpt>
      <trkpt lat="37.077467031776905" lon="-3.020011028274894">
        <ele>1697.8299999999999</ele>
        <time>2025-05-12T11:06:35Z</time>
      </trkpt>
      <trkpt lat="37.077426966279745" lon="-3.019907008856535">
        <ele>1697.8299999999999</ele>
        <time>2025-05-12T11:06:36Z</time>
      </trkpt>
      <trkpt lat="37.077353959903121" lon="-3.019851017743349">
        <ele>1697.8299999999999</ele>
        <time>2025-05-12T11:06:37Z</time>
      </trkpt>
      <trkpt lat="37.077244995161891" lon="-3.01978999748826">
        <ele>1698.3099999999999</ele>
        <time>2025-05-12T11:06:38Z</time>
      </trkpt>
      <trkpt lat="37.077122032642365" lon="-3.019722020253539">
        <ele>1698.3099999999999</ele>
        <time>2025-05-12T11:06:39Z</time>
      </trkpt>
      <trkpt lat="37.076989011839032" lon="-3.019647002220154">
        <ele>1698.79</ele>
        <time>2025-05-12T11:06:40Z</time>
      </trkpt>
      <trkpt lat="37.076854985207319" lon="-3.019582964479923">
        <ele>1699.27</ele>
        <time>2025-05-12T11:06:41Z</time>
      </trkpt>
      <trkpt lat="37.076696986332536" lon="-3.019556980580092">
        <ele>1699.27</ele>
        <time>2025-05-12T11:06:42Z</time>
      </trkpt>
      <trkpt lat="37.076548039913177" lon="-3.01953200250864">
        <ele>1699.75</ele>
        <time>2025-05-12T11:06:43Z</time>
      </trkpt>
      <trkpt lat="37.075295029208064" lon="-3.019248023629189">
        <ele>1700.71</ele>
        <time>2025-05-12T11:06:51Z</time>
      </trkpt>
      <trkpt lat="37.074894960969687" lon="-3.019181974232197">
        <ele>1699.75</ele>
        <time>2025-05-12T11:06:54Z</time>
      </trkpt>
      <trkpt lat="37.074759006500244" lon="-3.019159007817507">
        <ele>1699.27</ele>
        <time>2025-05-12T11:06:55Z</time>
      </trkpt>
      <trkpt lat="37.074681976810098" lon="-3.01908197812736">
        <ele>1698.3099999999999</ele>
        <time>2025-05-12T11:06:56Z</time>
      </trkpt>
      <trkpt lat="37.074576029554009" lon="-3.018975025042892">
        <ele>1697.8299999999999</ele>
        <time>2025-05-12T11:06:57Z</time>
      </trkpt>
      <trkpt lat="37.074459018185735" lon="-3.018859019502997">
        <ele>1696.8599999999999</ele>
        <time>2025-05-12T11:06:58Z</time>
      </trkpt>
      <trkpt lat="37.074361033737659" lon="-3.018701020628214">
        <ele>1696.3800000000001</ele>
        <time>2025-05-12T11:06:59Z</time>
      </trkpt>
      <trkpt lat="37.074258020147681" lon="-3.018535980954766">
        <ele>1695.4200000000001</ele>
        <time>2025-05-12T11:07:00Z</time>
      </trkpt>
      <trkpt lat="37.07395400851965" lon="-3.018047986552119">
        <ele>1693.5</ele>
        <time>2025-05-12T11:07:03Z</time>
      </trkpt>
      <trkpt lat="37.073858035728335" lon="-3.017891999334097">
        <ele>1693.02</ele>
        <time>2025-05-12T11:07:04Z</time>
      </trkpt>
      <trkpt lat="37.073371969163418" lon="-3.017392018809915">
        <ele>1691.5799999999999</ele>
        <time>2025-05-12T11:07:10Z</time>
      </trkpt>
      <trkpt lat="37.073347996920347" lon="-3.017366034910083">
        <ele>1691.5799999999999</ele>
        <time>2025-05-12T11:07:16Z</time>
      </trkpt>
      <trkpt lat="37.073347996920347" lon="-3.017366034910083">
        <ele>1692.0599999999999</ele>
        <time>2025-05-12T11:07:59Z</time>
      </trkpt>
      <trkpt lat="37.073235008865595" lon="-3.017250029370189">
        <ele>1692.54</ele>
        <time>2025-05-12T11:08:08Z</time>
      </trkpt>
      <trkpt lat="37.073156973347068" lon="-3.017175011336803">
        <ele>1692.54</ele>
        <time>2025-05-12T11:08:09Z</time>
      </trkpt>
      <trkpt lat="37.07305203191936" lon="-3.017096975818276">
        <ele>1692.54</ele>
        <time>2025-05-12T11:08:10Z</time>
      </trkpt>
      <trkpt lat="37.072435040026903" lon="-3.016581991687417">
        <ele>1692.54</ele>
        <time>2025-05-12T11:08:15Z</time>
      </trkpt>
      <trkpt lat="37.072340995073318" lon="-3.016456011682749">
        <ele>1692.54</ele>
        <time>2025-05-12T11:08:16Z</time>
      </trkpt>
      <trkpt lat="37.072254996746778" lon="-3.016309998929501">
        <ele>1692.54</ele>
        <time>2025-05-12T11:08:17Z</time>
      </trkpt>
      <trkpt lat="37.072175033390522" lon="-3.016172032803297">
        <ele>1692.54</ele>
        <time>2025-05-12T11:08:18Z</time>
      </trkpt>
      <trkpt lat="37.072106972336769" lon="-3.016056027263403">
        <ele>1692.0599999999999</ele>
        <time>2025-05-12T11:08:19Z</time>
      </trkpt>
      <trkpt lat="37.072040000930429" lon="-3.015989977866411">
        <ele>1691.5799999999999</ele>
        <time>2025-05-12T11:08:20Z</time>
      </trkpt>
      <trkpt lat="37.071958025917411" lon="-3.015963993966579">
        <ele>1691.5799999999999</ele>
        <time>2025-05-12T11:08:21Z</time>
      </trkpt>
      <trkpt lat="37.071863980963826" lon="-3.015981009230018">
        <ele>1692.0599999999999</ele>
        <time>2025-05-12T11:08:22Z</time>
      </trkpt>
      <trkpt lat="37.07176499068737" lon="-3.015999030321837">
        <ele>1692.54</ele>
        <time>2025-05-12T11:08:23Z</time>
      </trkpt>
      <trkpt lat="37.071660971269011" lon="-3.015983020886779">
        <ele>1692.54</ele>
        <time>2025-05-12T11:08:24Z</time>
      </trkpt>
      <trkpt lat="37.071518981829286" lon="-3.015940021723509">
        <ele>1693.02</ele>
        <time>2025-05-12T11:08:25Z</time>
      </trkpt>
      <trkpt lat="37.071409011259675" lon="-3.01587900146842">
        <ele>1692.54</ele>
        <time>2025-05-12T11:08:26Z</time>
      </trkpt>
      <trkpt lat="37.07083904184401" lon="-3.015545988455415">
        <ele>1690.6199999999999</ele>
        <time>2025-05-12T11:08:30Z</time>
      </trkpt>
      <trkpt lat="37.07070903852582" lon="-3.015430988743901">
        <ele>1689.6500000000001</ele>
        <time>2025-05-12T11:08:31Z</time>
      </trkpt>
      <trkpt lat="37.070450959727168" lon="-3.015204006806016">
        <ele>1688.6900000000001</ele>
        <time>2025-05-12T11:08:33Z</time>
      </trkpt>
      <trkpt lat="37.070322968065739" lon="-3.015118008479476">
        <ele>1688.21</ele>
        <time>2025-05-12T11:08:34Z</time>
      </trkpt>
      <trkpt lat="37.070175027474761" lon="-3.015093030408025">
        <ele>1687.25</ele>
        <time>2025-05-12T11:08:35Z</time>
      </trkpt>
      <trkpt lat="37.069693990051746" lon="-3.01501801237464">
        <ele>1685.8099999999999</ele>
        <time>2025-05-12T11:08:38Z</time>
      </trkpt>
      <trkpt lat="37.069543031975627" lon="-3.01501801237464">
        <ele>1685.3299999999999</ele>
        <time>2025-05-12T11:08:39Z</time>
      </trkpt>
      <trkpt lat="37.069280007854104" lon="-3.01501801237464">
        <ele>1684.8499999999999</ele>
        <time>2025-05-12T11:08:41Z</time>
      </trkpt>
      <trkpt lat="37.069154027849436" lon="-3.015016000717878">
        <ele>1684.8499999999999</ele>
        <time>2025-05-12T11:08:42Z</time>
      </trkpt>
      <trkpt lat="37.068929979577661" lon="-3.0149320140481">
        <ele>1684.8499999999999</ele>
        <time>2025-05-12T11:08:44Z</time>
      </trkpt>
      <trkpt lat="37.068828977644444" lon="-3.014893960207701">
        <ele>1684.3699999999999</ele>
        <time>2025-05-12T11:08:45Z</time>
      </trkpt>
      <trkpt lat="37.068753959611058" lon="-3.014807039871812">
        <ele>1683.8900000000001</ele>
        <time>2025-05-12T11:08:46Z</time>
      </trkpt>
      <trkpt lat="37.068687994033098" lon="-3.01471802406013">
        <ele>1683.4100000000001</ele>
        <time>2025-05-12T11:08:47Z</time>
      </trkpt>
      <trkpt lat="37.068642983213067" lon="-3.014608975499868">
        <ele>1683.4100000000001</ele>
        <time>2025-05-12T11:08:48Z</time>
      </trkpt>
      <trkpt lat="37.068594032898545" lon="-3.014489030465484">
        <ele>1682.9300000000001</ele>
        <time>2025-05-12T11:08:49Z</time>
      </trkpt>
      <trkpt lat="37.06854198127985" lon="-3.014361960813403">
        <ele>1682.4400000000001</ele>
        <time>2025-05-12T11:08:50Z</time>
      </trkpt>
      <trkpt lat="37.068338971585035" lon="-3.014026014134288">
        <ele>1681.48</ele>
        <time>2025-05-12T11:08:53Z</time>
      </trkpt>
      <trkpt lat="37.068264037370682" lon="-3.013964993879199">
        <ele>1681</ele>
        <time>2025-05-12T11:08:54Z</time>
      </trkpt>
      <trkpt lat="37.068145014345646" lon="-3.013954013586044">
        <ele>1680.52</ele>
        <time>2025-05-12T11:08:55Z</time>
      </trkpt>
      <trkpt lat="37.067156033590436" lon="-3.01385996863246">
        <ele>1681</ele>
        <time>2025-05-12T11:09:00Z</time>
      </trkpt>
      <trkpt lat="37.066170992329717" lon="-3.013712028041482">
        <ele>1682.9300000000001</ele>
        <time>2025-05-12T11:09:05Z</time>
      </trkpt>
      <trkpt lat="37.06600402481854" lon="-3.013720996677876">
        <ele>1683.4100000000001</ele>
        <time>2025-05-12T11:09:06Z</time>
      </trkpt>
      <trkpt lat="37.065360965207219" lon="-3.013772964477539">
        <ele>1683.4100000000001</ele>
        <time>2025-05-12T11:09:10Z</time>
      </trkpt>
      <trkpt lat="37.065244037657976" lon="-3.013740023598075">
        <ele>1683.4100000000001</ele>
        <time>2025-05-12T11:09:11Z</time>
      </trkpt>
      <trkpt lat="37.065119985491037" lon="-3.013639021664858">
        <ele>1682.9300000000001</ele>
        <time>2025-05-12T11:09:12Z</time>
      </trkpt>
      <trkpt lat="37.064817985519767" lon="-3.0133640114218">
        <ele>1681.96</ele>
        <time>2025-05-12T11:09:14Z</time>
      </trkpt>
      <trkpt lat="37.064634002745152" lon="-3.013216992840171">
        <ele>1681.48</ele>
        <time>2025-05-12T11:09:15Z</time>
      </trkpt>
      <trkpt lat="37.064083982259035" lon="-3.012851038947702">
        <ele>1678.1199999999999</ele>
        <time>2025-05-12T11:09:18Z</time>
      </trkpt>
      <trkpt lat="37.063931012526155" lon="-3.012787001207471">
        <ele>1677.1600000000001</ele>
        <time>2025-05-12T11:09:19Z</time>
      </trkpt>
      <trkpt lat="37.063786005601287" lon="-3.012802004814148">
        <ele>1675.72</ele>
        <time>2025-05-12T11:09:20Z</time>
      </trkpt>
      <trkpt lat="37.063646027818322" lon="-3.012856990098953">
        <ele>1674.27</ele>
        <time>2025-05-12T11:09:21Z</time>
      </trkpt>
      <trkpt lat="37.063498003408313" lon="-3.012945000082254">
        <ele>1673.3099999999999</ele>
        <time>2025-05-12T11:09:22Z</time>
      </trkpt>
      <trkpt lat="37.063355008140206" lon="-3.013029992580414">
        <ele>1672.3499999999999</ele>
        <time>2025-05-12T11:09:23Z</time>
      </trkpt>
      <trkpt lat="37.063227016478777" lon="-3.01310601644218">
        <ele>1670.9100000000001</ele>
        <time>2025-05-12T11:09:24Z</time>
      </trkpt>
      <trkpt lat="37.063098018988967" lon="-3.013139041140676">
        <ele>1669.95</ele>
        <time>2025-05-12T11:09:25Z</time>
      </trkpt>
      <trkpt lat="37.062948988750577" lon="-3.01310601644218">
        <ele>1668.51</ele>
        <time>2025-05-12T11:09:26Z</time>
      </trkpt>
      <trkpt lat="37.06261295825243" lon="-3.013030998408794">
        <ele>1666.0999999999999</ele>
        <time>2025-05-12T11:09:28Z</time>
      </trkpt>
      <trkpt lat="37.062440039590001" lon="-3.01304399035871">
        <ele>1664.6600000000001</ele>
        <time>2025-05-12T11:09:29Z</time>
      </trkpt>
      <trkpt lat="37.062274999916553" lon="-3.013070980086923">
        <ele>1663.22</ele>
        <time>2025-05-12T11:09:30Z</time>
      </trkpt>
      <trkpt lat="37.062115995213389" lon="-3.013097969815135">
        <ele>1661.78</ele>
        <time>2025-05-12T11:09:31Z</time>
      </trkpt>
      <trkpt lat="37.061963025480509" lon="-3.013123031705618">
        <ele>1660.8099999999999</ele>
        <time>2025-05-12T11:09:32Z</time>
      </trkpt>
      <trkpt lat="37.061826987192035" lon="-3.013081960380077">
        <ele>1659.3699999999999</ele>
        <time>2025-05-12T11:09:33Z</time>
      </trkpt>
      <trkpt lat="37.061678040772676" lon="-3.013012977316976">
        <ele>1657.9300000000001</ele>
        <time>2025-05-12T11:09:34Z</time>
      </trkpt>
      <trkpt lat="37.061518030241132" lon="-3.012937037274241">
        <ele>1656.49</ele>
        <time>2025-05-12T11:09:35Z</time>
      </trkpt>
      <trkpt lat="37.061040010303259" lon="-3.012713994830847">
        <ele>1652.6400000000001</ele>
        <time>2025-05-12T11:09:38Z</time>
      </trkpt>
      <trkpt lat="37.060877988114953" lon="-3.012622967362404">
        <ele>1651.2</ele>
        <time>2025-05-12T11:09:39Z</time>
      </trkpt>
      <trkpt lat="37.060722000896931" lon="-3.012494975700975">
        <ele>1650.24</ele>
        <time>2025-05-12T11:09:40Z</time>
      </trkpt>
      <trkpt lat="37.060567019507289" lon="-3.012366984039545">
        <ele>1649.28</ele>
        <time>2025-05-12T11:09:41Z</time>
      </trkpt>
      <trkpt lat="37.060452019795775" lon="-3.012190964072943">
        <ele>1648.3199999999999</ele>
        <time>2025-05-12T11:09:42Z</time>
      </trkpt>
      <trkpt lat="37.06035302951932" lon="-3.012007987126708">
        <ele>1647.3599999999999</ele>
        <time>2025-05-12T11:09:43Z</time>
      </trkpt>
      <trkpt lat="37.06027097068727" lon="-3.011816963553429">
        <ele>1646.4000000000001</ele>
        <time>2025-05-12T11:09:44Z</time>
      </trkpt>
      <trkpt lat="37.060222020372748" lon="-3.011628035455942">
        <ele>1645.9100000000001</ele>
        <time>2025-05-12T11:09:45Z</time>
      </trkpt>
      <trkpt lat="37.060180027037859" lon="-3.011430976912379">
        <ele>1645.4300000000001</ele>
        <time>2025-05-12T11:09:46Z</time>
      </trkpt>
      <trkpt lat="37.06014096736908" lon="-3.011247999966145">
        <ele>1644.47</ele>
        <time>2025-05-12T11:09:47Z</time>
      </trkpt>
      <trkpt lat="37.060064021497965" lon="-3.01106502301991">
        <ele>1643.51</ele>
        <time>2025-05-12T11:09:48Z</time>
      </trkpt>
      <trkpt lat="37.059751963242888" lon="-3.010503016412258">
        <ele>1639.1900000000001</ele>
        <time>2025-05-12T11:09:51Z</time>
      </trkpt>
      <trkpt lat="37.059593964368105" lon="-3.010351974517107">
        <ele>1637.74</ele>
        <time>2025-05-12T11:09:52Z</time>
      </trkpt>
      <trkpt lat="37.059072023257613" lon="-3.009934974834323">
        <ele>1632.9400000000001</ele>
        <time>2025-05-12T11:09:55Z</time>
      </trkpt>
      <trkpt lat="37.057766038924456" lon="-3.009130982682109">
        <ele>1622.3599999999999</ele>
        <time>2025-05-12T11:10:03Z</time>
      </trkpt>
      <trkpt lat="37.057665959000587" lon="-3.009021012112498">
        <ele>1621.8800000000001</ele>
        <time>2025-05-12T11:10:04Z</time>
      </trkpt>
      <trkpt lat="37.057590018957853" lon="-3.008870976045728">
        <ele>1620.4400000000001</ele>
        <time>2025-05-12T11:10:05Z</time>
      </trkpt>
      <trkpt lat="37.057441994547844" lon="-3.008522959426045">
        <ele>1619</ele>
        <time>2025-05-12T11:10:07Z</time>
      </trkpt>
      <trkpt lat="37.057338980957866" lon="-3.008364960551262">
        <ele>1618.04</ele>
        <time>2025-05-12T11:10:08Z</time>
      </trkpt>
      <trkpt lat="37.057237979024649" lon="-3.00820897333324">
        <ele>1617.5599999999999</ele>
        <time>2025-05-12T11:10:09Z</time>
      </trkpt>
      <trkpt lat="37.057104958221316" lon="-3.008081987500191">
        <ele>1617.0699999999999</ele>
        <time>2025-05-12T11:10:10Z</time>
      </trkpt>
      <trkpt lat="37.056970009580255" lon="-3.007964976131916">
        <ele>1616.5899999999999</ele>
        <time>2025-05-12T11:10:11Z</time>
      </trkpt>
      <trkpt lat="37.056812010705471" lon="-3.007862968370318">
        <ele>1615.6300000000001</ele>
        <time>2025-05-12T11:10:12Z</time>
      </trkpt>
      <trkpt lat="37.056634984910488" lon="-3.007747968658805">
        <ele>1615.1500000000001</ele>
        <time>2025-05-12T11:10:13Z</time>
      </trkpt>
      <trkpt lat="37.055704006925225" lon="-3.007187973707914">
        <ele>1611.3099999999999</ele>
        <time>2025-05-12T11:10:18Z</time>
      </trkpt>
      <trkpt lat="37.055363031104207" lon="-3.007041960954666">
        <ele>1608.9000000000001</ele>
        <time>2025-05-12T11:10:20Z</time>
      </trkpt>
      <trkpt lat="37.055190028622746" lon="-3.006968032568693">
        <ele>1607.9400000000001</ele>
        <time>2025-05-12T11:10:21Z</time>
      </trkpt>
      <trkpt lat="37.055023983120918" lon="-3.006854960694909">
        <ele>1606.98</ele>
        <time>2025-05-12T11:10:22Z</time>
      </trkpt>
      <trkpt lat="37.054399028420448" lon="-3.006378030404449">
        <ele>1602.1700000000001</ele>
        <time>2025-05-12T11:10:26Z</time>
      </trkpt>
      <trkpt lat="37.054289979860187" lon="-3.006248027086258">
        <ele>1600.73</ele>
        <time>2025-05-12T11:10:27Z</time>
      </trkpt>
      <trkpt lat="37.054201969876885" lon="-3.006083993241191">
        <ele>1599.77</ele>
        <time>2025-05-12T11:10:28Z</time>
      </trkpt>
      <trkpt lat="37.054113037884235" lon="-3.005915014073253">
        <ele>1598.8099999999999</ele>
        <time>2025-05-12T11:10:29Z</time>
      </trkpt>
      <trkpt lat="37.054027039557695" lon="-3.005753997713327">
        <ele>1597.3699999999999</ele>
        <time>2025-05-12T11:10:30Z</time>
      </trkpt>
      <trkpt lat="37.053926959633827" lon="-3.005611002445221">
        <ele>1596.4100000000001</ele>
        <time>2025-05-12T11:10:31Z</time>
      </trkpt>
      <trkpt lat="37.053800979629159" lon="-3.005517963320017">
        <ele>1595.9300000000001</ele>
        <time>2025-05-12T11:10:32Z</time>
      </trkpt>
      <trkpt lat="37.053676005452871" lon="-3.005426013842225">
        <ele>1594.96</ele>
        <time>2025-05-12T11:10:33Z</time>
      </trkpt>
      <trkpt lat="37.053558994084597" lon="-3.005340015515685">
        <ele>1594</ele>
        <time>2025-05-12T11:10:34Z</time>
      </trkpt>
      <trkpt lat="37.05347802489996" lon="-3.0052459705621">
        <ele>1593.04</ele>
        <time>2025-05-12T11:10:35Z</time>
      </trkpt>
      <trkpt lat="37.053434019908309" lon="-3.005152009427548">
        <ele>1592.0799999999999</ele>
        <time>2025-05-12T11:10:36Z</time>
      </trkpt>
      <trkpt lat="37.053446006029844" lon="-3.005022006109357">
        <ele>1591.5999999999999</ele>
        <time>2025-05-12T11:10:37Z</time>
      </trkpt>
      <trkpt lat="37.053475007414818" lon="-3.004872975870967">
        <ele>1590.6400000000001</ele>
        <time>2025-05-12T11:10:38Z</time>
      </trkpt>
      <trkpt lat="37.053525969386101" lon="-3.004694022238255">
        <ele>1589.2</ele>
        <time>2025-05-12T11:10:39Z</time>
      </trkpt>
      <trkpt lat="37.053653039038181" lon="-3.004251038655639">
        <ele>1586.79</ele>
        <time>2025-05-12T11:10:41Z</time>
      </trkpt>
      <trkpt lat="37.053697966039181" lon="-3.004001006484032">
        <ele>1585.3499999999999</ele>
        <time>2025-05-12T11:10:42Z</time>
      </trkpt>
      <trkpt lat="37.053816989064217" lon="-3.003325005993247">
        <ele>1582.47</ele>
        <time>2025-05-12T11:10:45Z</time>
      </trkpt>
      <trkpt lat="37.053889995440841" lon="-3.003114033490419">
        <ele>1581.51</ele>
        <time>2025-05-12T11:10:46Z</time>
      </trkpt>
      <trkpt lat="37.054129969328642" lon="-3.002425041049719">
        <ele>1579.5799999999999</ele>
        <time>2025-05-12T11:10:49Z</time>
      </trkpt>
      <trkpt lat="37.054185960441828" lon="-3.002190012484789">
        <ele>1578.6199999999999</ele>
        <time>2025-05-12T11:10:50Z</time>
      </trkpt>
      <trkpt lat="37.054300960153341" lon="-3.00152599811554">
        <ele>1576.7</ele>
        <time>2025-05-12T11:10:53Z</time>
      </trkpt>
      <trkpt lat="37.054300960153341" lon="-3.001330029219389">
        <ele>1576.22</ele>
        <time>2025-05-12T11:10:54Z</time>
      </trkpt>
      <trkpt lat="37.054289979860187" lon="-3.001151997596026">
        <ele>1575.74</ele>
        <time>2025-05-12T11:10:55Z</time>
      </trkpt>
      <trkpt lat="37.054300038143992" lon="-3.00098997540772">
        <ele>1575.26</ele>
        <time>2025-05-12T11:10:56Z</time>
      </trkpt>
      <trkpt lat="37.054311018437147" lon="-3.000831976532936">
        <ele>1575.26</ele>
        <time>2025-05-12T11:10:57Z</time>
      </trkpt>
      <trkpt lat="37.054353011772037" lon="-3.000691998749971">
        <ele>1574.78</ele>
        <time>2025-05-12T11:10:58Z</time>
      </trkpt>
      <trkpt lat="37.054419983178377" lon="-3.000558977946639">
        <ele>1574.3</ele>
        <time>2025-05-12T11:10:59Z</time>
      </trkpt>
      <trkpt lat="37.054508998990059" lon="-3.000438027083874">
        <ele>1573.8199999999999</ele>
        <time>2025-05-12T11:11:00Z</time>
      </trkpt>
      <trkpt lat="37.054603965952992" lon="-3.000310035422444">
        <ele>1573.3299999999999</ele>
        <time>2025-05-12T11:11:01Z</time>
      </trkpt>
      <trkpt lat="37.054774034768343" lon="-3.000080035999417">
        <ele>1572.3699999999999</ele>
        <time>2025-05-12T11:11:03Z</time>
      </trkpt>
      <trkpt lat="37.054865984246135" lon="-3.000023039057851">
        <ele>1572.3699999999999</ele>
        <time>2025-05-12T11:11:04Z</time>
      </trkpt>
      <trkpt lat="37.054976960644126" lon="-2.999993031844497">
        <ele>1571.8900000000001</ele>
        <time>2025-05-12T11:11:05Z</time>
      </trkpt>
      <trkpt lat="37.055383985862136" lon="-2.999882977455854">
        <ele>1571.4100000000001</ele>
        <time>2025-05-12T11:11:08Z</time>
      </trkpt>
      <trkpt lat="37.056021010503173" lon="-2.999709974974394">
        <ele>1569.49</ele>
        <time>2025-05-12T11:11:12Z</time>
      </trkpt>
      <trkpt lat="37.056136010214686" lon="-2.999624982476234">
        <ele>1569.01</ele>
        <time>2025-05-12T11:11:13Z</time>
      </trkpt>
      <trkpt lat="37.056242963299155" lon="-2.99950897693634">
        <ele>1568.53</ele>
        <time>2025-05-12T11:11:14Z</time>
      </trkpt>
      <trkpt lat="37.056459970772266" lon="-2.999275038018823">
        <ele>1567.0899999999999</ele>
        <time>2025-05-12T11:11:16Z</time>
      </trkpt>
      <trkpt lat="37.056557033210993" lon="-2.999170012772083">
        <ele>1566.1199999999999</ele>
        <time>2025-05-12T11:11:17Z</time>
      </trkpt>
      <trkpt lat="37.056674966588616" lon="-2.999118966981769">
        <ele>1565.1600000000001</ele>
        <time>2025-05-12T11:11:18Z</time>
      </trkpt>
      <trkpt lat="37.056805975735188" lon="-2.999090971425176">
        <ele>1564.2</ele>
        <time>2025-05-12T11:11:19Z</time>
      </trkpt>
      <trkpt lat="37.056947965174913" lon="-2.999059036374092">
        <ele>1563.24</ele>
        <time>2025-05-12T11:11:20Z</time>
      </trkpt>
      <trkpt lat="37.057248959317803" lon="-2.998993992805481">
        <ele>1562.28</ele>
        <time>2025-05-12T11:11:22Z</time>
      </trkpt>
      <trkpt lat="37.057386003434658" lon="-2.998898020014167">
        <ele>1561.3199999999999</ele>
        <time>2025-05-12T11:11:23Z</time>
      </trkpt>
      <trkpt lat="37.058182032778859" lon="-2.998137027025223">
        <ele>1557.95</ele>
        <time>2025-05-12T11:11:30Z</time>
      </trkpt>
      <trkpt lat="37.058200975880027" lon="-2.99802403897047">
        <ele>1557.95</ele>
        <time>2025-05-12T11:11:31Z</time>
      </trkpt>
      <trkpt lat="37.058199970051646" lon="-2.997901998460293">
        <ele>1557.47</ele>
        <time>2025-05-12T11:11:32Z</time>
      </trkpt>
      <trkpt lat="37.058137021958828" lon="-2.997777024284005">
        <ele>1556.99</ele>
        <time>2025-05-12T11:11:33Z</time>
      </trkpt>
      <trkpt lat="37.05803501419723" lon="-2.997709969058633">
        <ele>1556.99</ele>
        <time>2025-05-12T11:11:34Z</time>
      </trkpt>
      <trkpt lat="37.057901993393898" lon="-2.997687002643943">
        <ele>1556.51</ele>
        <time>2025-05-12T11:11:35Z</time>
      </trkpt>
      <trkpt lat="37.057752041146159" lon="-2.997668981552124">
        <ele>1556.51</ele>
        <time>2025-05-12T11:11:36Z</time>
      </trkpt>
      <trkpt lat="37.057589013129473" lon="-2.997650038450956">
        <ele>1556.51</ele>
        <time>2025-05-12T11:11:37Z</time>
      </trkpt>
      <trkpt lat="37.057100012898445" lon="-2.997581977397203">
        <ele>1555.55</ele>
        <time>2025-05-12T11:11:40Z</time>
      </trkpt>
      <trkpt lat="37.056950982660055" lon="-2.997501008212566">
        <ele>1555.0699999999999</ele>
        <time>2025-05-12T11:11:41Z</time>
      </trkpt>
      <trkpt lat="37.0567880384624" lon="-2.997411992400885">
        <ele>1554.1099999999999</ele>
        <time>2025-05-12T11:11:42Z</time>
      </trkpt>
      <trkpt lat="37.056472040712833" lon="-2.997296992689371">
        <ele>1552.6700000000001</ele>
        <time>2025-05-12T11:11:44Z</time>
      </trkpt>
      <trkpt lat="37.056034002453089" lon="-2.997178975492716">
        <ele>1550.26</ele>
        <time>2025-05-12T11:11:47Z</time>
      </trkpt>
      <trkpt lat="37.055925959721208" lon="-2.997090965509415">
        <ele>1549.3</ele>
        <time>2025-05-12T11:11:48Z</time>
      </trkpt>
      <trkpt lat="37.055822024121881" lon="-2.997005973011255">
        <ele>1548.3399999999999</ele>
        <time>2025-05-12T11:11:49Z</time>
      </trkpt>
      <trkpt lat="37.055533016100526" lon="-2.99677899107337">
        <ele>1545.9400000000001</ele>
        <time>2025-05-12T11:11:52Z</time>
      </trkpt>
      <trkpt lat="37.055414998903871" lon="-2.996752001345158">
        <ele>1544.5</ele>
        <time>2025-05-12T11:11:53Z</time>
      </trkpt>
      <trkpt lat="37.055338975042105" lon="-2.996736997738481">
        <ele>1543.53</ele>
        <time>2025-05-12T11:11:54Z</time>
      </trkpt>
      <trkpt lat="37.055252976715565" lon="-2.996816961094737">
        <ele>1542.5699999999999</ele>
        <time>2025-05-12T11:11:55Z</time>
      </trkpt>
      <trkpt lat="37.055150968953967" lon="-2.996911006048322">
        <ele>1541.6099999999999</ele>
        <time>2025-05-12T11:11:56Z</time>
      </trkpt>
      <trkpt lat="37.055042004212737" lon="-2.997013013809919">
        <ele>1540.6500000000001</ele>
        <time>2025-05-12T11:11:57Z</time>
      </trkpt>
      <trkpt lat="37.054709997028112" lon="-2.997318031266332">
        <ele>1537.77</ele>
        <time>2025-05-12T11:12:00Z</time>
      </trkpt>
      <trkpt lat="37.054587034508586" lon="-2.997371004894376">
        <ele>1536.8</ele>
        <time>2025-05-12T11:12:01Z</time>
      </trkpt>
      <trkpt lat="37.054429035633802" lon="-2.997378967702389">
        <ele>1535.3599999999999</ele>
        <time>2025-05-12T11:12:02Z</time>
      </trkpt>
      <trkpt lat="37.054254021495581" lon="-2.997378967702389">
        <ele>1534.4000000000001</ele>
        <time>2025-05-12T11:12:03Z</time>
      </trkpt>
      <trkpt lat="37.054055035114288" lon="-2.997365975752473">
        <ele>1532.48</ele>
        <time>2025-05-12T11:12:04Z</time>
      </trkpt>
      <trkpt lat="37.053235033527017" lon="-2.997292969375849">
        <ele>1525.75</ele>
        <time>2025-05-12T11:12:08Z</time>
      </trkpt>
      <trkpt lat="37.053054990246892" lon="-2.997247958555818">
        <ele>1524.3099999999999</ele>
        <time>2025-05-12T11:12:09Z</time>
      </trkpt>
      <trkpt lat="37.052718959748745" lon="-2.997163971886039">
        <ele>1520.9400000000001</ele>
        <time>2025-05-12T11:12:11Z</time>
      </trkpt>
      <trkpt lat="37.052550986409187" lon="-2.997121978551149">
        <ele>1519.5</ele>
        <time>2025-05-12T11:12:12Z</time>
      </trkpt>
      <trkpt lat="37.052402039989829" lon="-2.997153997421265">
        <ele>1518.54</ele>
        <time>2025-05-12T11:12:13Z</time>
      </trkpt>
      <trkpt lat="37.051740037277341" lon="-2.997392965480685">
        <ele>1514.6900000000001</ele>
        <time>2025-05-12T11:12:17Z</time>
      </trkpt>
      <trkpt lat="37.05160902813077" lon="-2.997519029304385">
        <ele>1513.73</ele>
        <time>2025-05-12T11:12:18Z</time>
      </trkpt>
      <trkpt lat="37.051314990967512" lon="-2.997794961556792">
        <ele>1511.3299999999999</ele>
        <time>2025-05-12T11:12:20Z</time>
      </trkpt>
      <trkpt lat="37.050268007442355" lon="-2.998452018946409">
        <ele>1503.1600000000001</ele>
        <time>2025-05-12T11:12:26Z</time>
      </trkpt>
      <trkpt lat="37.050114031881094" lon="-2.998498035594821">
        <ele>1501.72</ele>
        <time>2025-05-12T11:12:27Z</time>
      </trkpt>
      <trkpt lat="37.048897985368967" lon="-2.998642036691308">
        <ele>1494.51</ele>
        <time>2025-05-12T11:12:33Z</time>
      </trkpt>
      <trkpt lat="37.048336984589696" lon="-2.998661985620856">
        <ele>1491.1400000000001</ele>
        <time>2025-05-12T11:12:36Z</time>
      </trkpt>
      <trkpt lat="37.048168005421758" lon="-2.998569030314684">
        <ele>1490.6600000000001</ele>
        <time>2025-05-12T11:12:37Z</time>
      </trkpt>
      <trkpt lat="37.047987962141633" lon="-2.998470040038228">
        <ele>1490.1800000000001</ele>
        <time>2025-05-12T11:12:38Z</time>
      </trkpt>
      <trkpt lat="37.047152034938335" lon="-2.998082963749766">
        <ele>1485.8499999999999</ele>
        <time>2025-05-12T11:12:43Z</time>
      </trkpt>
      <trkpt lat="37.047031000256538" lon="-2.997986990958452">
        <ele>1484.8900000000001</ele>
        <time>2025-05-12T11:12:44Z</time>
      </trkpt>
      <trkpt lat="37.046922035515308" lon="-2.997862016782165">
        <ele>1483.9300000000001</ele>
        <time>2025-05-12T11:12:45Z</time>
      </trkpt>
      <trkpt lat="37.046817010268569" lon="-2.997741987928748">
        <ele>1482.97</ele>
        <time>2025-05-12T11:12:46Z</time>
      </trkpt>
      <trkpt lat="37.046691030263901" lon="-2.997706029564142">
        <ele>1482.01</ele>
        <time>2025-05-12T11:12:47Z</time>
      </trkpt>
      <trkpt lat="37.046559015288949" lon="-2.997684990987182">
        <ele>1481.05</ele>
        <time>2025-05-12T11:12:48Z</time>
      </trkpt>
      <trkpt lat="37.04639196395874" lon="-2.997658001258969">
        <ele>1480.0899999999999</ele>
        <time>2025-05-12T11:12:49Z</time>
      </trkpt>
      <trkpt lat="37.04628199338913" lon="-2.997658001258969">
        <ele>1478.6500000000001</ele>
        <time>2025-05-12T11:12:50Z</time>
      </trkpt>
      <trkpt lat="37.04615299589932" lon="-2.997692031785846">
        <ele>1477.2</ele>
        <time>2025-05-12T11:12:51Z</time>
      </trkpt>
      <trkpt lat="37.046056017279625" lon="-2.997765960171819">
        <ele>1476.24</ele>
        <time>2025-05-12T11:12:52Z</time>
      </trkpt>
      <trkpt lat="37.045983010903001" lon="-2.997855981811881">
        <ele>1475.28</ele>
        <time>2025-05-12T11:12:53Z</time>
      </trkpt>
      <trkpt lat="37.045933976769447" lon="-2.997971987351775">
        <ele>1474.8</ele>
        <time>2025-05-12T11:12:54Z</time>
      </trkpt>
      <trkpt lat="37.045885026454926" lon="-2.998091010376811">
        <ele>1474.3199999999999</ele>
        <time>2025-05-12T11:12:55Z</time>
      </trkpt>
      <trkpt lat="37.045803973451257" lon="-2.998172985389829">
        <ele>1473.3599999999999</ele>
        <time>2025-05-12T11:12:56Z</time>
      </trkpt>
      <trkpt lat="37.045705989003181" lon="-2.998258983716369">
        <ele>1472.8800000000001</ele>
        <time>2025-05-12T11:12:57Z</time>
      </trkpt>
      <trkpt lat="37.045600963756442" lon="-2.998294020071626">
        <ele>1471.9200000000001</ele>
        <time>2025-05-12T11:12:58Z</time>
      </trkpt>
      <trkpt lat="37.045476995408535" lon="-2.998335007578135">
        <ele>1470.95</ele>
        <time>2025-05-12T11:12:59Z</time>
      </trkpt>
      <trkpt lat="37.045352021232247" lon="-2.998366020619869">
        <ele>1469.99</ele>
        <time>2025-05-12T11:13:00Z</time>
      </trkpt>
      <trkpt lat="37.045226041227579" lon="-2.998366020619869">
        <ele>1469.03</ele>
        <time>2025-05-12T11:13:01Z</time>
      </trkpt>
      <trkpt lat="37.045125961303711" lon="-2.998334001749754">
        <ele>1468.0699999999999</ele>
        <time>2025-05-12T11:13:02Z</time>
      </trkpt>
      <trkpt lat="37.045023031532764" lon="-2.998283039778471">
        <ele>1467.1099999999999</ele>
        <time>2025-05-12T11:13:03Z</time>
      </trkpt>
      <trkpt lat="37.044921023771167" lon="-2.998211039230228">
        <ele>1466.6300000000001</ele>
        <time>2025-05-12T11:13:04Z</time>
      </trkpt>
      <trkpt lat="37.044807029888034" lon="-2.998112970963121">
        <ele>1465.6700000000001</ele>
        <time>2025-05-12T11:13:05Z</time>
      </trkpt>
      <trkpt lat="37.04469102434814" lon="-2.998011969029903">
        <ele>1465.1900000000001</ele>
        <time>2025-05-12T11:13:06Z</time>
      </trkpt>
      <trkpt lat="37.044617012143135" lon="-2.997897975146771">
        <ele>1464.23</ele>
        <time>2025-05-12T11:13:07Z</time>
      </trkpt>
      <trkpt lat="37.044552974402905" lon="-2.997759003192186">
        <ele>1463.26</ele>
        <time>2025-05-12T11:13:08Z</time>
      </trkpt>
      <trkpt lat="37.044418025761843" lon="-2.997464966028929">
        <ele>1461.3399999999999</ele>
        <time>2025-05-12T11:13:10Z</time>
      </trkpt>
      <trkpt lat="37.04430403187871" lon="-2.997325994074345">
        <ele>1460.3800000000001</ele>
        <time>2025-05-12T11:13:11Z</time>
      </trkpt>
      <trkpt lat="37.044224990531802" lon="-2.99722901545465">
        <ele>1458.9400000000001</ele>
        <time>2025-05-12T11:13:12Z</time>
      </trkpt>
      <trkpt lat="37.044072020798922" lon="-2.997164977714419">
        <ele>1457.98</ele>
        <time>2025-05-12T11:13:13Z</time>
      </trkpt>
      <trkpt lat="37.043946040794253" lon="-2.997112004086375">
        <ele>1456.53</ele>
        <time>2025-05-12T11:13:14Z</time>
      </trkpt>
      <trkpt lat="37.043827017769217" lon="-2.997061964124441">
        <ele>1455.0899999999999</ele>
        <time>2025-05-12T11:13:15Z</time>
      </trkpt>
      <trkpt lat="37.043717969208956" lon="-2.997016031295061">
        <ele>1453.6500000000001</ele>
        <time>2025-05-12T11:13:16Z</time>
      </trkpt>
      <trkpt lat="37.043615039438009" lon="-2.996974037960172">
        <ele>1452.6900000000001</ele>
        <time>2025-05-12T11:13:17Z</time>
      </trkpt>
      <trkpt lat="37.043531974777579" lon="-2.996908994391561">
        <ele>1451.73</ele>
        <time>2025-05-12T11:13:18Z</time>
      </trkpt>
      <trkpt lat="37.043457962572575" lon="-2.996797012165189">
        <ele>1450.77</ele>
        <time>2025-05-12T11:13:19Z</time>
      </trkpt>
      <trkpt lat="37.043373975902796" lon="-2.996671032160521">
        <ele>1449.8099999999999</ele>
        <time>2025-05-12T11:13:20Z</time>
      </trkpt>
      <trkpt lat="37.043284960091114" lon="-2.996538011357188">
        <ele>1448.8399999999999</ele>
        <time>2025-05-12T11:13:21Z</time>
      </trkpt>
      <trkpt lat="37.043168032541871" lon="-2.996444972231984">
        <ele>1447.8800000000001</ele>
        <time>2025-05-12T11:13:22Z</time>
      </trkpt>
      <trkpt lat="37.043025037273765" lon="-2.996402978897095">
        <ele>1446.4400000000001</ele>
        <time>2025-05-12T11:13:23Z</time>
      </trkpt>
      <trkpt lat="37.042870977893472" lon="-2.996365008875728">
        <ele>1445</ele>
        <time>2025-05-12T11:13:24Z</time>
      </trkpt>
      <trkpt lat="37.042723037302494" lon="-2.996327960863709">
        <ele>1444.04</ele>
        <time>2025-05-12T11:13:25Z</time>
      </trkpt>
      <trkpt lat="37.042596973478794" lon="-2.996280016377568">
        <ele>1443.0799999999999</ele>
        <time>2025-05-12T11:13:26Z</time>
      </trkpt>
      <trkpt lat="37.042508963495493" lon="-2.996221007779241">
        <ele>1442.1099999999999</ele>
        <time>2025-05-12T11:13:27Z</time>
      </trkpt>
      <trkpt lat="37.042448027059436" lon="-2.996099973097444">
        <ele>1441.1500000000001</ele>
        <time>2025-05-12T11:13:28Z</time>
      </trkpt>
      <trkpt lat="37.042413996532559" lon="-2.995977010577917">
        <ele>1440.6700000000001</ele>
        <time>2025-05-12T11:13:29Z</time>
      </trkpt>
      <trkpt lat="37.042393041774631" lon="-2.995813982561231">
        <ele>1439.71</ele>
        <time>2025-05-12T11:13:30Z</time>
      </trkpt>
      <trkpt lat="37.04237200319767" lon="-2.995641985908151">
        <ele>1438.75</ele>
        <time>2025-05-12T11:13:31Z</time>
      </trkpt>
      <trkpt lat="37.04235197044909" lon="-2.995480969548225">
        <ele>1438.27</ele>
        <time>2025-05-12T11:13:32Z</time>
      </trkpt>
      <trkpt lat="37.042310982942581" lon="-2.995329005643725">
        <ele>1437.3099999999999</ele>
        <time>2025-05-12T11:13:33Z</time>
      </trkpt>
      <trkpt lat="37.042238982394338" lon="-2.995236972346902">
        <ele>1436.3499999999999</ele>
        <time>2025-05-12T11:13:34Z</time>
      </trkpt>
      <trkpt lat="37.042154995724559" lon="-2.995172012597323">
        <ele>1434.9100000000001</ele>
        <time>2025-05-12T11:13:35Z</time>
      </trkpt>
      <trkpt lat="37.042053993791342" lon="-2.995180981233716">
        <ele>1433.9400000000001</ele>
        <time>2025-05-12T11:13:36Z</time>
      </trkpt>
      <trkpt lat="37.041932037100196" lon="-2.995202019810677">
        <ele>1432.5</ele>
        <time>2025-05-12T11:13:37Z</time>
      </trkpt>
      <trkpt lat="37.041808990761638" lon="-2.995279971510172">
        <ele>1432.02</ele>
        <time>2025-05-12T11:13:38Z</time>
      </trkpt>
      <trkpt lat="37.041674964129925" lon="-2.995363958179951">
        <ele>1431.0599999999999</ele>
        <time>2025-05-12T11:13:39Z</time>
      </trkpt>
      <trkpt lat="37.041539009660482" lon="-2.995450040325522">
        <ele>1430.0999999999999</ele>
        <time>2025-05-12T11:13:40Z</time>
      </trkpt>
      <trkpt lat="37.041403977200389" lon="-2.995535032823682">
        <ele>1429.6199999999999</ele>
        <time>2025-05-12T11:13:41Z</time>
      </trkpt>
      <trkpt lat="37.041123015806079" lon="-2.995686996728182">
        <ele>1427.21</ele>
        <time>2025-05-12T11:13:43Z</time>
      </trkpt>
      <trkpt lat="37.041003992781043" lon="-2.995753968134522">
        <ele>1426.25</ele>
        <time>2025-05-12T11:13:44Z</time>
      </trkpt>
      <trkpt lat="37.040936015546322" lon="-2.9958760086447">
        <ele>1424.8099999999999</ele>
        <time>2025-05-12T11:13:45Z</time>
      </trkpt>
      <trkpt lat="37.040883963927627" lon="-2.996007017791271">
        <ele>1423.8499999999999</ele>
        <time>2025-05-12T11:13:46Z</time>
      </trkpt>
      <trkpt lat="37.040853034704924" lon="-2.996143978089094">
        <ele>1422.8900000000001</ele>
        <time>2025-05-12T11:13:47Z</time>
      </trkpt>
      <trkpt lat="37.040810035541654" lon="-2.996257971972227">
        <ele>1421.9300000000001</ele>
        <time>2025-05-12T11:13:48Z</time>
      </trkpt>
      <trkpt lat="37.040736023336649" lon="-2.996354028582573">
        <ele>1420.97</ele>
        <time>2025-05-12T11:13:49Z</time>
      </trkpt>
      <trkpt lat="37.040614988654852" lon="-2.996401973068714">
        <ele>1420</ele>
        <time>2025-05-12T11:13:50Z</time>
      </trkpt>
      <trkpt lat="37.040467970073223" lon="-2.996459975838661">
        <ele>1419.04</ele>
        <time>2025-05-12T11:13:51Z</time>
      </trkpt>
      <trkpt lat="37.039268016815186" lon="-2.99675895832479">
        <ele>1411.3499999999999</ele>
        <time>2025-05-12T11:13:58Z</time>
      </trkpt>
      <trkpt lat="37.039114041253924" lon="-2.996786031872034">
        <ele>1409.9100000000001</ele>
        <time>2025-05-12T11:13:59Z</time>
      </trkpt>
      <trkpt lat="37.038971967995167" lon="-2.996845040470362">
        <ele>1408.95</ele>
        <time>2025-05-12T11:14:00Z</time>
      </trkpt>
      <trkpt lat="37.038850011304021" lon="-2.996937995776534">
        <ele>1407.51</ele>
        <time>2025-05-12T11:14:01Z</time>
      </trkpt>
      <trkpt lat="37.03872000798583" lon="-2.99703698605299">
        <ele>1406.55</ele>
        <time>2025-05-12T11:14:02Z</time>
      </trkpt>
      <trkpt lat="37.038584975525737" lon="-2.997138993814588">
        <ele>1405.0999999999999</ele>
        <time>2025-05-12T11:14:03Z</time>
      </trkpt>
      <trkpt lat="37.038456983864307" lon="-2.997235972434282">
        <ele>1403.6600000000001</ele>
        <time>2025-05-12T11:14:04Z</time>
      </trkpt>
      <trkpt lat="37.038320023566484" lon="-2.997307972982526">
        <ele>1402.22</ele>
        <time>2025-05-12T11:14:05Z</time>
      </trkpt>
      <trkpt lat="37.038167975842953" lon="-2.99735801294446">
        <ele>1401.26</ele>
        <time>2025-05-12T11:14:06Z</time>
      </trkpt>
      <trkpt lat="37.038016011938453" lon="-2.99735801294446">
        <ele>1399.8199999999999</ele>
        <time>2025-05-12T11:14:07Z</time>
      </trkpt>
      <trkpt lat="37.037867987528443" lon="-2.997356001287699">
        <ele>1398.3699999999999</ele>
        <time>2025-05-12T11:14:08Z</time>
      </trkpt>
      <trkpt lat="37.037718035280704" lon="-2.997303027659655">
        <ele>1396.9300000000001</ele>
        <time>2025-05-12T11:14:09Z</time>
      </trkpt>
      <trkpt lat="37.037565987557173" lon="-2.997248964384198">
        <ele>1395.49</ele>
        <time>2025-05-12T11:14:10Z</time>
      </trkpt>
      <trkpt lat="37.037427015602589" lon="-2.997170006856322">
        <ele>1394.05</ele>
        <time>2025-05-12T11:14:11Z</time>
      </trkpt>
      <trkpt lat="37.037306986749172" lon="-2.997081996873021">
        <ele>1392.6099999999999</ele>
        <time>2025-05-12T11:14:12Z</time>
      </trkpt>
      <trkpt lat="37.037214031443" lon="-2.996961968019605">
        <ele>1391.1700000000001</ele>
        <time>2025-05-12T11:14:13Z</time>
      </trkpt>
      <trkpt lat="37.037100959569216" lon="-2.99677899107337">
        <ele>1390.2</ele>
        <time>2025-05-12T11:14:14Z</time>
      </trkpt>
      <trkpt lat="37.037047985941172" lon="-2.996639013290405">
        <ele>1389.24</ele>
        <time>2025-05-12T11:14:15Z</time>
      </trkpt>
      <trkpt lat="37.036981014534831" lon="-2.996462993323803">
        <ele>1387.8</ele>
        <time>2025-05-12T11:14:16Z</time>
      </trkpt>
      <trkpt lat="37.036921000108123" lon="-2.996302982792258">
        <ele>1386.8399999999999</ele>
        <time>2025-05-12T11:14:17Z</time>
      </trkpt>
      <trkpt lat="37.036869032308459" lon="-2.996166022494435">
        <ele>1385.8800000000001</ele>
        <time>2025-05-12T11:14:18Z</time>
      </trkpt>
      <trkpt lat="37.036778004840016" lon="-2.996119000017643">
        <ele>1384.4400000000001</ele>
        <time>2025-05-12T11:14:19Z</time>
      </trkpt>
      <trkpt lat="37.036693012341857" lon="-2.996106008067727">
        <ele>1383.47</ele>
        <time>2025-05-12T11:14:20Z</time>
      </trkpt>
      <trkpt lat="37.036598967388272" lon="-2.996165016666055">
        <ele>1382.03</ele>
        <time>2025-05-12T11:14:21Z</time>
      </trkpt>
      <trkpt lat="37.036516992375255" lon="-2.996267024427652">
        <ele>1380.5899999999999</ele>
        <time>2025-05-12T11:14:22Z</time>
      </trkpt>
      <trkpt lat="37.036465024575591" lon="-2.996403984725475">
        <ele>1379.1500000000001</ele>
        <time>2025-05-12T11:14:23Z</time>
      </trkpt>
      <trkpt lat="37.036440968513489" lon="-2.996559971943498">
        <ele>1378.1900000000001</ele>
        <time>2025-05-12T11:14:24Z</time>
      </trkpt>
      <trkpt lat="37.036450020968914" lon="-2.996709002181888">
        <ele>1377.23</ele>
        <time>2025-05-12T11:14:25Z</time>
      </trkpt>
      <trkpt lat="37.036478016525507" lon="-2.996850991621614">
        <ele>1375.78</ele>
        <time>2025-05-12T11:14:26Z</time>
      </trkpt>
      <trkpt lat="37.036551022902131" lon="-2.99695098772645">
        <ele>1374.8199999999999</ele>
        <time>2025-05-12T11:14:27Z</time>
      </trkpt>
      <trkpt lat="37.036638027057052" lon="-2.997072022408247">
        <ele>1373.8599999999999</ele>
        <time>2025-05-12T11:14:28Z</time>
      </trkpt>
      <trkpt lat="37.037293994799256" lon="-2.9979810398072">
        <ele>1368.5699999999999</ele>
        <time>2025-05-12T11:14:34Z</time>
      </trkpt>
      <trkpt lat="37.037401031702757" lon="-2.998128980398178">
        <ele>1367.6099999999999</ele>
        <time>2025-05-12T11:14:35Z</time>
      </trkpt>
      <trkpt lat="37.037546960636973" lon="-2.998211961239576">
        <ele>1366.1700000000001</ele>
        <time>2025-05-12T11:14:36Z</time>
      </trkpt>
      <trkpt lat="37.037676963955164" lon="-2.9982849676162">
        <ele>1364.73</ele>
        <time>2025-05-12T11:14:37Z</time>
      </trkpt>
      <trkpt lat="37.037813002243638" lon="-2.998332995921373">
        <ele>1363.29</ele>
        <time>2025-05-12T11:14:38Z</time>
      </trkpt>
      <trkpt lat="37.037957003340125" lon="-2.998352022841573">
        <ele>1361.8399999999999</ele>
        <time>2025-05-12T11:14:39Z</time>
      </trkpt>
      <trkpt lat="37.038107961416245" lon="-2.998372977599502">
        <ele>1360.8800000000001</ele>
        <time>2025-05-12T11:14:40Z</time>
      </trkpt>
      <trkpt lat="37.038260009139776" lon="-2.998408013954759">
        <ele>1359.9200000000001</ele>
        <time>2025-05-12T11:14:41Z</time>
      </trkpt>
      <trkpt lat="37.038407027721405" lon="-2.99847699701786">
        <ele>1358.96</ele>
        <time>2025-05-12T11:14:42Z</time>
      </trkpt>
      <trkpt lat="37.038668040186167" lon="-2.998559977859259">
        <ele>1357.52</ele>
        <time>2025-05-12T11:14:44Z</time>
      </trkpt>
      <trkpt lat="37.038772981613874" lon="-2.998527958989143">
        <ele>1356.5599999999999</ele>
        <time>2025-05-12T11:14:45Z</time>
      </trkpt>
      <trkpt lat="37.038872977718711" lon="-2.998478002846241">
        <ele>1356.0799999999999</ele>
        <time>2025-05-12T11:14:46Z</time>
      </trkpt>
      <trkpt lat="37.038964005187154" lon="-2.99843299202621">
        <ele>1355.5999999999999</ele>
        <time>2025-05-12T11:14:47Z</time>
      </trkpt>
      <trkpt lat="37.039023013785481" lon="-2.998468028381467">
        <ele>1355.1199999999999</ele>
        <time>2025-05-12T11:14:48Z</time>
      </trkpt>
      <trkpt lat="37.039076993241906" lon="-2.998502980917692">
        <ele>1354.6300000000001</ele>
        <time>2025-05-12T11:14:49Z</time>
      </trkpt>
      <trkpt lat="37.039073975756764" lon="-2.998551009222865">
        <ele>1354.1500000000001</ele>
        <time>2025-05-12T11:14:50Z</time>
      </trkpt>
      <trkpt lat="37.039025025442243" lon="-2.99862502142787">
        <ele>1353.6700000000001</ele>
        <time>2025-05-12T11:14:51Z</time>
      </trkpt>
      <trkpt lat="37.038947995752096" lon="-2.998662991449237">
        <ele>1352.71</ele>
        <time>2025-05-12T11:14:52Z</time>
      </trkpt>
      <trkpt lat="37.03882897272706" lon="-2.998695010319352">
        <ele>1351.27</ele>
        <time>2025-05-12T11:14:53Z</time>
      </trkpt>
      <trkpt lat="37.038695029914379" lon="-2.998704984784126">
        <ele>1350.3099999999999</ele>
        <time>2025-05-12T11:14:54Z</time>
      </trkpt>
      <trkpt lat="37.038550022989511" lon="-2.998695010319352">
        <ele>1349.3499999999999</ele>
        <time>2025-05-12T11:14:55Z</time>
      </trkpt>
      <trkpt lat="37.038410967215896" lon="-2.998686041682959">
        <ele>1348.3900000000001</ele>
        <time>2025-05-12T11:14:56Z</time>
      </trkpt>
      <trkpt lat="37.038279036059976" lon="-2.998676989227533">
        <ele>1347.4300000000001</ele>
        <time>2025-05-12T11:14:57Z</time>
      </trkpt>
      <trkpt lat="37.038158001378179" lon="-2.99866902641952">
        <ele>1345.98</ele>
        <time>2025-05-12T11:14:58Z</time>
      </trkpt>
      <trkpt lat="37.038070997223258" lon="-2.998749995604157">
        <ele>1345.02</ele>
        <time>2025-05-12T11:14:59Z</time>
      </trkpt>
      <trkpt lat="37.038006037473679" lon="-2.99884001724422">
        <ele>1344.0599999999999</ele>
        <time>2025-05-12T11:15:00Z</time>
      </trkpt>
      <trkpt lat="37.037944011390209" lon="-2.99892702139914">
        <ele>1343.0999999999999</ele>
        <time>2025-05-12T11:15:01Z</time>
      </trkpt>
      <trkpt lat="37.037875028327107" lon="-2.999020982533693">
        <ele>1342.6199999999999</ele>
        <time>2025-05-12T11:15:02Z</time>
      </trkpt>
      <trkpt lat="37.037784000858665" lon="-2.999102035537362">
        <ele>1342.1400000000001</ele>
        <time>2025-05-12T11:15:03Z</time>
      </trkpt>
      <trkpt lat="37.037674030289054" lon="-2.999180993065238">
        <ele>1341.1800000000001</ele>
        <time>2025-05-12T11:15:04Z</time>
      </trkpt>
      <trkpt lat="37.037551989778876" lon="-2.999267997220159">
        <ele>1340.22</ele>
        <time>2025-05-12T11:15:05Z</time>
      </trkpt>
      <trkpt lat="37.037442019209266" lon="-2.999267997220159">
        <ele>1339.25</ele>
        <time>2025-05-12T11:15:06Z</time>
      </trkpt>
      <trkpt lat="37.037321990355849" lon="-2.999241007491946">
        <ele>1338.77</ele>
        <time>2025-05-12T11:15:07Z</time>
      </trkpt>
      <trkpt lat="37.037200033664703" lon="-2.999201025813818">
        <ele>1337.8099999999999</ele>
        <time>2025-05-12T11:15:08Z</time>
      </trkpt>
      <trkpt lat="37.037075981497765" lon="-2.999159032478929">
        <ele>1337.3299999999999</ele>
        <time>2025-05-12T11:15:09Z</time>
      </trkpt>
      <trkpt lat="37.03695897012949" lon="-2.999155009165406">
        <ele>1335.8900000000001</ele>
        <time>2025-05-12T11:15:10Z</time>
      </trkpt>
      <trkpt lat="37.036865008994937" lon="-2.999181998893619">
        <ele>1334.9300000000001</ele>
        <time>2025-05-12T11:15:11Z</time>
      </trkpt>
      <trkpt lat="37.036847993731499" lon="-2.99927000887692">
        <ele>1333.49</ele>
        <time>2025-05-12T11:15:12Z</time>
      </trkpt>
      <trkpt lat="37.036831984296441" lon="-2.999347038567066">
        <ele>1332.52</ele>
        <time>2025-05-12T11:15:13Z</time>
      </trkpt>
      <trkpt lat="37.036852017045021" lon="-2.999425996094942">
        <ele>1331.5599999999999</ele>
        <time>2025-05-12T11:15:14Z</time>
      </trkpt>
      <trkpt lat="37.036940027028322" lon="-2.99950797110796">
        <ele>1330.5999999999999</ele>
        <time>2025-05-12T11:15:15Z</time>
      </trkpt>
      <trkpt lat="37.037059972062707" lon="-2.999562034383416">
        <ele>1330.1199999999999</ele>
        <time>2025-05-12T11:15:16Z</time>
      </trkpt>
      <trkpt lat="37.03719399869442" lon="-2.999604027718306">
        <ele>1329.1600000000001</ele>
        <time>2025-05-12T11:15:17Z</time>
      </trkpt>
      <trkpt lat="37.037331964820623" lon="-2.999631017446518">
        <ele>1328.6800000000001</ele>
        <time>2025-05-12T11:15:18Z</time>
      </trkpt>
      <trkpt lat="37.037445036694407" lon="-2.999653983861208">
        <ele>1327.72</ele>
        <time>2025-05-12T11:15:19Z</time>
      </trkpt>
      <trkpt lat="37.037588031962514" lon="-2.999618025496602">
        <ele>1327.24</ele>
        <time>2025-05-12T11:15:20Z</time>
      </trkpt>
      <trkpt lat="37.037702025845647" lon="-2.999589024111629">
        <ele>1326.28</ele>
        <time>2025-05-12T11:15:21Z</time>
      </trkpt>
      <trkpt lat="37.037778971716762" lon="-2.999502019956708">
        <ele>1325.3099999999999</ele>
        <time>2025-05-12T11:15:22Z</time>
      </trkpt>
      <trkpt lat="37.037852983921766" lon="-2.999417027458549">
        <ele>1324.8299999999999</ele>
        <time>2025-05-12T11:15:23Z</time>
      </trkpt>
      <trkpt lat="37.03792498447001" lon="-2.999334968626499">
        <ele>1324.3499999999999</ele>
        <time>2025-05-12T11:15:24Z</time>
      </trkpt>
      <trkpt lat="37.037987010553479" lon="-2.999263973906636">
        <ele>1323.8699999999999</ele>
        <time>2025-05-12T11:15:25Z</time>
      </trkpt>
      <trkpt lat="37.0380549877882" lon="-2.999263973906636">
        <ele>1323.3900000000001</ele>
        <time>2025-05-12T11:15:26Z</time>
      </trkpt>
      <trkpt lat="37.038119025528431" lon="-2.999285012483597">
        <ele>1322.9100000000001</ele>
        <time>2025-05-12T11:15:27Z</time>
      </trkpt>
      <trkpt lat="37.038131011649966" lon="-2.999353995546699">
        <ele>1322.4300000000001</ele>
        <time>2025-05-12T11:15:28Z</time>
      </trkpt>
      <trkpt lat="37.038131011649966" lon="-2.999438988044858">
        <ele>1321.95</ele>
        <time>2025-05-12T11:15:29Z</time>
      </trkpt>
      <trkpt lat="37.0380740147084" lon="-2.999510988593102">
        <ele>1321.47</ele>
        <time>2025-05-12T11:15:30Z</time>
      </trkpt>
      <trkpt lat="37.037993967533112" lon="-2.999587012454867">
        <ele>1320.51</ele>
        <time>2025-05-12T11:15:31Z</time>
      </trkpt>
      <trkpt lat="37.037899000570178" lon="-2.999663036316633">
        <ele>1319.55</ele>
        <time>2025-05-12T11:15:32Z</time>
      </trkpt>
      <trkpt lat="37.037330036982894" lon="-3.00008699297905">
        <ele>1315.7</ele>
        <time>2025-05-12T11:15:37Z</time>
      </trkpt>
      <trkpt lat="37.037250995635986" lon="-3.000125968828797">
        <ele>1314.74</ele>
        <time>2025-05-12T11:15:38Z</time>
      </trkpt>
      <trkpt lat="37.037098025903106" lon="-3.000096967443824">
        <ele>1313.78</ele>
        <time>2025-05-12T11:15:39Z</time>
      </trkpt>
      <trkpt lat="37.036974979564548" lon="-3.000072995200753">
        <ele>1313.3</ele>
        <time>2025-05-12T11:15:40Z</time>
      </trkpt>
      <trkpt lat="37.036855034530163" lon="-3.000050028786063">
        <ele>1312.3399999999999</ele>
        <time>2025-05-12T11:15:41Z</time>
      </trkpt>
      <trkpt lat="37.036404004320502" lon="-2.999848024919629">
        <ele>1309.45</ele>
        <time>2025-05-12T11:15:45Z</time>
      </trkpt>
      <trkpt lat="37.036305014044046" lon="-2.999773006886244">
        <ele>1308.49</ele>
        <time>2025-05-12T11:15:46Z</time>
      </trkpt>
      <trkpt lat="37.036222033202648" lon="-2.999662030488253">
        <ele>1308.01</ele>
        <time>2025-05-12T11:15:47Z</time>
      </trkpt>
      <trkpt lat="37.036136034876108" lon="-2.999547030776739">
        <ele>1307.05</ele>
        <time>2025-05-12T11:15:48Z</time>
      </trkpt>
      <trkpt lat="37.036064034327865" lon="-2.999387020245194">
        <ele>1306.0899999999999</ele>
        <time>2025-05-12T11:15:49Z</time>
      </trkpt>
      <trkpt lat="37.035869993269444" lon="-2.999111004173756">
        <ele>1304.6500000000001</ele>
        <time>2025-05-12T11:15:51Z</time>
      </trkpt>
      <trkpt lat="37.035753987729549" lon="-2.998975971713662">
        <ele>1303.2</ele>
        <time>2025-05-12T11:15:52Z</time>
      </trkpt>
      <trkpt lat="37.035498004406691" lon="-2.99873499199748">
        <ele>1301.28</ele>
        <time>2025-05-12T11:15:54Z</time>
      </trkpt>
      <trkpt lat="37.035369006916881" lon="-2.998615968972445">
        <ele>1300.3199999999999</ele>
        <time>2025-05-12T11:15:55Z</time>
      </trkpt>
      <trkpt lat="37.035245960578322" lon="-2.99849996343255">
        <ele>1299.3599999999999</ele>
        <time>2025-05-12T11:15:56Z</time>
      </trkpt>
      <trkpt lat="37.035134984180331" lon="-2.998374989256263">
        <ele>1298.4000000000001</ele>
        <time>2025-05-12T11:15:57Z</time>
      </trkpt>
      <trkpt lat="37.035066001117229" lon="-2.99819796346128">
        <ele>1297.4400000000001</ele>
        <time>2025-05-12T11:15:58Z</time>
      </trkpt>
      <trkpt lat="37.034995006397367" lon="-2.998018004000187">
        <ele>1296.48</ele>
        <time>2025-05-12T11:15:59Z</time>
      </trkpt>
      <trkpt lat="37.034927029162645" lon="-2.997846007347107">
        <ele>1295.51</ele>
        <time>2025-05-12T11:16:00Z</time>
      </trkpt>
      <trkpt lat="37.034870032221079" lon="-2.997701000422239">
        <ele>1294.55</ele>
        <time>2025-05-12T11:16:01Z</time>
      </trkpt>
      <trkpt lat="37.034783028066158" lon="-2.997599998489022">
        <ele>1293.5899999999999</ele>
        <time>2025-05-12T11:16:02Z</time>
      </trkpt>
      <trkpt lat="37.034707004204392" lon="-2.997555993497372">
        <ele>1293.1099999999999</ele>
        <time>2025-05-12T11:16:03Z</time>
      </trkpt>
      <trkpt lat="37.034590998664498" lon="-2.997572002932429">
        <ele>1293.1099999999999</ele>
        <time>2025-05-12T11:16:04Z</time>
      </trkpt>
      <trkpt lat="37.034518998116255" lon="-2.997631011530757">
        <ele>1292.6300000000001</ele>
        <time>2025-05-12T11:16:05Z</time>
      </trkpt>
      <trkpt lat="37.034410033375025" lon="-2.997720027342439">
        <ele>1292.6300000000001</ele>
        <time>2025-05-12T11:16:06Z</time>
      </trkpt>
      <trkpt lat="37.033806033432484" lon="-2.998138032853603">
        <ele>1291.6700000000001</ele>
        <time>2025-05-12T11:16:11Z</time>
      </trkpt>
      <trkpt lat="37.033681981265545" lon="-2.998147001489997">
        <ele>1291.1900000000001</ele>
        <time>2025-05-12T11:16:12Z</time>
      </trkpt>
      <trkpt lat="37.033531023189425" lon="-2.998139038681984">
        <ele>1290.23</ele>
        <time>2025-05-12T11:16:13Z</time>
      </trkpt>
      <trkpt lat="37.032372979447246" lon="-2.998069971799851">
        <ele>1283.98</ele>
        <time>2025-05-12T11:16:20Z</time>
      </trkpt>
      <trkpt lat="37.032270971685648" lon="-2.998032001778483">
        <ele>1283.02</ele>
        <time>2025-05-12T11:16:21Z</time>
      </trkpt>
      <trkpt lat="37.032194025814533" lon="-2.997973999008536">
        <ele>1283.02</ele>
        <time>2025-05-12T11:16:22Z</time>
      </trkpt>
      <trkpt lat="37.032133005559444" lon="-2.997909961268306">
        <ele>1282.54</ele>
        <time>2025-05-12T11:16:23Z</time>
      </trkpt>
      <trkpt lat="37.032096963375807" lon="-2.997826980426908">
        <ele>1282.0599999999999</ele>
        <time>2025-05-12T11:16:24Z</time>
      </trkpt>
      <trkpt lat="37.0320800319314" lon="-2.997786998748779">
        <ele>1282.0599999999999</ele>
        <time>2025-05-12T11:16:25Z</time>
      </trkpt>
      <trkpt lat="37.032094029709697" lon="-2.997678034007549">
        <ele>1281.5699999999999</ele>
        <time>2025-05-12T11:16:26Z</time>
      </trkpt>
      <trkpt lat="37.03210299834609" lon="-2.997602010145783">
        <ele>1281.5699999999999</ele>
        <time>2025-05-12T11:16:27Z</time>
      </trkpt>
      <trkpt lat="37.032111966982484" lon="-2.997527997940779">
        <ele>1281.5699999999999</ele>
        <time>2025-05-12T11:16:28Z</time>
      </trkpt>
      <trkpt lat="37.03212202526629" lon="-2.997454991564155">
        <ele>1281.5699999999999</ele>
        <time>2025-05-12T11:16:29Z</time>
      </trkpt>
      <trkpt lat="37.032139962539077" lon="-2.997309984639287">
        <ele>1281.0899999999999</ele>
        <time>2025-05-12T11:16:31Z</time>
      </trkpt>
      <trkpt lat="37.032115990296006" lon="-2.997225997969508">
        <ele>1281.0899999999999</ele>
        <time>2025-05-12T11:16:32Z</time>
      </trkpt>
      <trkpt lat="37.032078020274639" lon="-2.997164977714419">
        <ele>1280.6099999999999</ele>
        <time>2025-05-12T11:16:33Z</time>
      </trkpt>
      <trkpt lat="37.032024040818214" lon="-2.997103035449982">
        <ele>1280.1300000000001</ele>
        <time>2025-05-12T11:16:34Z</time>
      </trkpt>
      <trkpt lat="37.031966038048267" lon="-2.997116027399898">
        <ele>1279.6500000000001</ele>
        <time>2025-05-12T11:16:35Z</time>
      </trkpt>
      <trkpt lat="37.031905017793179" lon="-2.997129019349814">
        <ele>1279.1700000000001</ele>
        <time>2025-05-12T11:16:36Z</time>
      </trkpt>
      <trkpt lat="37.031838968396187" lon="-2.99714301712811">
        <ele>1279.1700000000001</ele>
        <time>2025-05-12T11:16:37Z</time>
      </trkpt>
      <trkpt lat="37.031767973676324" lon="-2.997158020734787">
        <ele>1278.6900000000001</ele>
        <time>2025-05-12T11:16:38Z</time>
      </trkpt>
      <trkpt lat="37.031697984784842" lon="-2.997157014906406">
        <ele>1278.21</ele>
        <time>2025-05-12T11:16:39Z</time>
      </trkpt>
      <trkpt lat="37.03156596980989" lon="-2.997128013521433">
        <ele>1277.25</ele>
        <time>2025-05-12T11:16:41Z</time>
      </trkpt>
      <trkpt lat="37.031435966491699" lon="-2.99710001796484">
        <ele>1275.8099999999999</ele>
        <time>2025-05-12T11:16:43Z</time>
      </trkpt>
      <trkpt lat="37.031400008127093" lon="-2.997063975781202">
        <ele>1275.3299999999999</ele>
        <time>2025-05-12T11:16:44Z</time>
      </trkpt>
      <trkpt lat="37.03135097399354" lon="-2.997015025466681">
        <ele>1274.8499999999999</ele>
        <time>2025-05-12T11:16:45Z</time>
      </trkpt>
      <trkpt lat="37.031330019235611" lon="-2.996951993554831">
        <ele>1273.8800000000001</ele>
        <time>2025-05-12T11:16:46Z</time>
      </trkpt>
      <trkpt lat="37.03130504116416" lon="-2.996873036026955">
        <ele>1273.4000000000001</ele>
        <time>2025-05-12T11:16:47Z</time>
      </trkpt>
      <trkpt lat="37.031278973445296" lon="-2.996793994680047">
        <ele>1272.9200000000001</ele>
        <time>2025-05-12T11:16:48Z</time>
      </trkpt>
      <trkpt lat="37.031230023130774" lon="-2.996640019118786">
        <ele>1271.48</ele>
        <time>2025-05-12T11:16:50Z</time>
      </trkpt>
      <trkpt lat="37.031107982620597" lon="-2.996299965307117">
        <ele>1269.0799999999999</ele>
        <time>2025-05-12T11:16:55Z</time>
      </trkpt>
      <trkpt lat="37.031075041741133" lon="-2.99624196253717">
        <ele>1268.1199999999999</ele>
        <time>2025-05-12T11:16:56Z</time>
      </trkpt>
      <trkpt lat="37.03096398152411" lon="-2.996049011126161">
        <ele>1265.23</ele>
        <time>2025-05-12T11:17:00Z</time>
      </trkpt>
      <trkpt lat="37.03096398152411" lon="-2.995991008356214">
        <ele>1264.75</ele>
        <time>2025-05-12T11:17:01Z</time>
      </trkpt>
      <trkpt lat="37.03096398152411" lon="-2.995926970615983">
        <ele>1264.27</ele>
        <time>2025-05-12T11:17:02Z</time>
      </trkpt>
      <trkpt lat="37.03096398152411" lon="-2.995863016694784">
        <ele>1263.3099999999999</ele>
        <time>2025-05-12T11:17:03Z</time>
      </trkpt>
      <trkpt lat="37.03096398152411" lon="-2.995798978954554">
        <ele>1262.3499999999999</ele>
        <time>2025-05-12T11:17:04Z</time>
      </trkpt>
      <trkpt lat="37.03096398152411" lon="-2.995734019204974">
        <ele>1261.3900000000001</ele>
        <time>2025-05-12T11:17:05Z</time>
      </trkpt>
      <trkpt lat="37.030974961817265" lon="-2.995659001171589">
        <ele>1260.9100000000001</ele>
        <time>2025-05-12T11:17:06Z</time>
      </trkpt>
      <trkpt lat="37.030994994565845" lon="-2.995606027543545">
        <ele>1260.4300000000001</ele>
        <time>2025-05-12T11:17:07Z</time>
      </trkpt>
      <trkpt lat="37.031075041741133" lon="-2.995407041162252">
        <ele>1258.98</ele>
        <time>2025-05-12T11:17:10Z</time>
      </trkpt>
      <trkpt lat="37.031090967357159" lon="-2.995344009250403">
        <ele>1258.5</ele>
        <time>2025-05-12T11:17:11Z</time>
      </trkpt>
      <trkpt lat="37.031084010377526" lon="-2.995277037844062">
        <ele>1258.02</ele>
        <time>2025-05-12T11:17:12Z</time>
      </trkpt>
      <trkpt lat="37.031077975407243" lon="-2.995222974568605">
        <ele>1257.54</ele>
        <time>2025-05-12T11:17:13Z</time>
      </trkpt>
      <trkpt lat="37.031045034527779" lon="-2.995159020647407">
        <ele>1257.0599999999999</ele>
        <time>2025-05-12T11:17:14Z</time>
      </trkpt>
      <trkpt lat="37.03096398152411" lon="-2.995125995948911">
        <ele>1256.5799999999999</ele>
        <time>2025-05-12T11:17:15Z</time>
      </trkpt>
      <trkpt lat="37.030923999845982" lon="-2.995138987898827">
        <ele>1256.0999999999999</ele>
        <time>2025-05-12T11:17:16Z</time>
      </trkpt>
      <trkpt lat="37.030860967934132" lon="-2.995158014819026">
        <ele>1255.6199999999999</ele>
        <time>2025-05-12T11:17:17Z</time>
      </trkpt>
      <trkpt lat="37.030793996527791" lon="-2.995178969576955">
        <ele>1255.1400000000001</ele>
        <time>2025-05-12T11:17:18Z</time>
      </trkpt>
      <trkpt lat="37.030465006828308" lon="-2.995259016752243">
        <ele>1253.7</ele>
        <time>2025-05-12T11:17:23Z</time>
      </trkpt>
      <trkpt lat="37.030413961037993" lon="-2.995267985388637">
        <ele>1253.22</ele>
        <time>2025-05-12T11:17:24Z</time>
      </trkpt>
      <trkpt lat="37.030355958268046" lon="-2.995277959853411">
        <ele>1252.74</ele>
        <time>2025-05-12T11:17:25Z</time>
      </trkpt>
      <trkpt lat="37.030298039317131" lon="-2.995287012308836">
        <ele>1252.25</ele>
        <time>2025-05-12T11:17:26Z</time>
      </trkpt>
      <trkpt lat="37.030228972434998" lon="-2.995294975116849">
        <ele>1251.77</ele>
        <time>2025-05-12T11:17:27Z</time>
      </trkpt>
      <trkpt lat="37.030179016292095" lon="-2.995269997045398">
        <ele>1251.29</ele>
        <time>2025-05-12T11:17:28Z</time>
      </trkpt>
      <trkpt lat="37.030050018802285" lon="-2.995207970961928">
        <ele>1250.3299999999999</ele>
        <time>2025-05-12T11:17:31Z</time>
      </trkpt>
      <trkpt lat="37.030008025467396" lon="-2.995193973183632">
        <ele>1249.8499999999999</ele>
        <time>2025-05-12T11:17:32Z</time>
      </trkpt>
      <trkpt lat="37.029967959970236" lon="-2.995179975405335">
        <ele>1249.3699999999999</ele>
        <time>2025-05-12T11:17:33Z</time>
      </trkpt>
      <trkpt lat="37.029924960806966" lon="-2.995165977627039">
        <ele>1248.4100000000001</ele>
        <time>2025-05-12T11:17:34Z</time>
      </trkpt>
      <trkpt lat="37.029869975522161" lon="-2.995148040354252">
        <ele>1247.9300000000001</ele>
        <time>2025-05-12T11:17:35Z</time>
      </trkpt>
      <trkpt lat="37.029840974137187" lon="-2.995139993727207">
        <ele>1247.9300000000001</ele>
        <time>2025-05-12T11:17:36Z</time>
      </trkpt>
      <trkpt lat="37.029798980802298" lon="-2.995128007605672">
        <ele>1246.97</ele>
        <time>2025-05-12T11:17:37Z</time>
      </trkpt>
      <trkpt lat="37.02976000495255" lon="-2.995116021484137">
        <ele>1246.97</ele>
        <time>2025-05-12T11:17:38Z</time>
      </trkpt>
      <trkpt lat="37.029720023274422" lon="-2.995105041190982">
        <ele>1246.49</ele>
        <time>2025-05-12T11:17:39Z</time>
      </trkpt>
      <trkpt lat="37.029622960835695" lon="-2.995060030370951">
        <ele>1245.53</ele>
        <time>2025-05-12T11:17:41Z</time>
      </trkpt>
      <trkpt lat="37.029510978609324" lon="-2.995008984580636">
        <ele>1245.04</ele>
        <time>2025-05-12T11:17:43Z</time>
      </trkpt>
      <trkpt lat="37.02939597889781" lon="-2.994933966547251">
        <ele>1245.04</ele>
        <time>2025-05-12T11:17:45Z</time>
      </trkpt>
      <trkpt lat="37.029347028583288" lon="-2.994889039546251">
        <ele>1244.5599999999999</ele>
        <time>2025-05-12T11:17:46Z</time>
      </trkpt>
      <trkpt lat="37.029210990294814" lon="-2.994762975722551">
        <ele>1245.04</ele>
        <time>2025-05-12T11:17:49Z</time>
      </trkpt>
      <trkpt lat="37.029139995574951" lon="-2.994697010144591">
        <ele>1244.5599999999999</ele>
        <time>2025-05-12T11:17:50Z</time>
      </trkpt>
      <trkpt lat="37.029125997796655" lon="-2.994696004316211">
        <ele>1244.5599999999999</ele>
        <time>2025-05-12T11:17:51Z</time>
      </trkpt>
      <trkpt lat="37.029060032218695" lon="-2.994691981002688">
        <ele>1245.04</ele>
        <time>2025-05-12T11:17:52Z</time>
      </trkpt>
      <trkpt lat="37.028997000306845" lon="-2.994687035679817">
        <ele>1245.04</ele>
        <time>2025-05-12T11:17:53Z</time>
      </trkpt>
      <trkpt lat="37.028933968394995" lon="-2.994682006537914">
        <ele>1245.04</ele>
        <time>2025-05-12T11:17:54Z</time>
      </trkpt>
      <trkpt lat="37.028873031958938" lon="-2.994677983224392">
        <ele>1245.04</ele>
        <time>2025-05-12T11:17:55Z</time>
      </trkpt>
      <trkpt lat="37.028840007260442" lon="-2.994675971567631">
        <ele>1245.04</ele>
        <time>2025-05-12T11:17:56Z</time>
      </trkpt>
      <trkpt lat="37.028777981176972" lon="-2.994649987667799">
        <ele>1245.04</ele>
        <time>2025-05-12T11:17:57Z</time>
      </trkpt>
      <trkpt lat="37.028733976185322" lon="-2.99463196657598">
        <ele>1245.53</ele>
        <time>2025-05-12T11:17:58Z</time>
      </trkpt>
      <trkpt lat="37.028687037527561" lon="-2.994612017646432">
        <ele>1245.53</ele>
        <time>2025-05-12T11:17:59Z</time>
      </trkpt>
      <trkpt lat="37.028635991737247" lon="-2.994590979069471">
        <ele>1246.01</ele>
        <time>2025-05-12T11:18:00Z</time>
      </trkpt>
      <trkpt lat="37.028582012280822" lon="-2.994568012654781">
        <ele>1246.01</ele>
        <time>2025-05-12T11:18:01Z</time>
      </trkpt>
      <trkpt lat="37.028534989804029" lon="-2.994525013491511">
        <ele>1246.01</ele>
        <time>2025-05-12T11:18:02Z</time>
      </trkpt>
      <trkpt lat="37.028331980109215" lon="-2.994360979646444">
        <ele>1246.97</ele>
        <time>2025-05-12T11:18:06Z</time>
      </trkpt>
      <trkpt lat="37.02821203507483" lon="-2.994310017675161">
        <ele>1246.97</ele>
        <time>2025-05-12T11:18:08Z</time>
      </trkpt>
      <trkpt lat="37.028150008991361" lon="-2.99428503960371">
        <ele>1246.97</ele>
        <time>2025-05-12T11:18:09Z</time>
      </trkpt>
      <trkpt lat="37.02808496542275" lon="-2.994262995198369">
        <ele>1246.97</ele>
        <time>2025-05-12T11:18:10Z</time>
      </trkpt>
      <trkpt lat="37.027951022610068" lon="-2.994233993813396">
        <ele>1246.97</ele>
        <time>2025-05-12T11:18:12Z</time>
      </trkpt>
      <trkpt lat="37.027350040152669" lon="-2.994124023243785">
        <ele>1247.45</ele>
        <time>2025-05-12T11:18:20Z</time>
      </trkpt>
      <trkpt lat="37.027270998805761" lon="-2.994086975231767">
        <ele>1246.97</ele>
        <time>2025-05-12T11:18:21Z</time>
      </trkpt>
      <trkpt lat="37.027009986341" lon="-2.993908021599054">
        <ele>1245.53</ele>
        <time>2025-05-12T11:18:25Z</time>
      </trkpt>
      <trkpt lat="37.026951983571053" lon="-2.993868961930275">
        <ele>1245.04</ele>
        <time>2025-05-12T11:18:26Z</time>
      </trkpt>
      <trkpt lat="37.026879983022809" lon="-2.993848007172346">
        <ele>1245.04</ele>
        <time>2025-05-12T11:18:27Z</time>
      </trkpt>
      <trkpt lat="37.026808988302946" lon="-2.993871979415417">
        <ele>1244.5599999999999</ele>
        <time>2025-05-12T11:18:28Z</time>
      </trkpt>
      <trkpt lat="37.026733970269561" lon="-2.993930988013744">
        <ele>1244.0799999999999</ele>
        <time>2025-05-12T11:18:29Z</time>
      </trkpt>
      <trkpt lat="37.026662975549698" lon="-2.994008017703891">
        <ele>1243.1199999999999</ele>
        <time>2025-05-12T11:18:30Z</time>
      </trkpt>
      <trkpt lat="37.026587035506964" lon="-2.994089992716909">
        <ele>1242.6400000000001</ele>
        <time>2025-05-12T11:18:31Z</time>
      </trkpt>
      <trkpt lat="37.026415960863233" lon="-2.99424204044044">
        <ele>1242.1600000000001</ele>
        <time>2025-05-12T11:18:33Z</time>
      </trkpt>
      <trkpt lat="37.026324011385441" lon="-2.994305994361639">
        <ele>1241.6800000000001</ele>
        <time>2025-05-12T11:18:34Z</time>
      </trkpt>
      <trkpt lat="37.026233989745378" lon="-2.994341030716896">
        <ele>1241.6800000000001</ele>
        <time>2025-05-12T11:18:35Z</time>
      </trkpt>
      <trkpt lat="37.026141034439206" lon="-2.994356034323573">
        <ele>1241.2</ele>
        <time>2025-05-12T11:18:36Z</time>
      </trkpt>
      <trkpt lat="37.026028968393803" lon="-2.994374977424741">
        <ele>1240.72</ele>
        <time>2025-05-12T11:18:37Z</time>
      </trkpt>
      <trkpt lat="37.025952022522688" lon="-2.994358967989683">
        <ele>1240.24</ele>
        <time>2025-05-12T11:18:38Z</time>
      </trkpt>
      <trkpt lat="37.025854960083961" lon="-2.994339019060135">
        <ele>1239.76</ele>
        <time>2025-05-12T11:18:39Z</time>
      </trkpt>
      <trkpt lat="37.025492023676634" lon="-2.994219996035099">
        <ele>1237.8299999999999</ele>
        <time>2025-05-12T11:18:43Z</time>
      </trkpt>
      <trkpt lat="37.025404013693333" lon="-2.994172973558307">
        <ele>1237.8299999999999</ele>
        <time>2025-05-12T11:18:44Z</time>
      </trkpt>
      <trkpt lat="37.025319021195173" lon="-2.994109019637108">
        <ele>1237.8299999999999</ele>
        <time>2025-05-12T11:18:45Z</time>
      </trkpt>
      <trkpt lat="37.025244003161788" lon="-2.994008017703891">
        <ele>1238.3199999999999</ele>
        <time>2025-05-12T11:18:46Z</time>
      </trkpt>
      <trkpt lat="37.025167979300022" lon="-2.993906009942293">
        <ele>1238.3199999999999</ele>
        <time>2025-05-12T11:18:47Z</time>
      </trkpt>
      <trkpt lat="37.024848964065313" lon="-2.993438970297575">
        <ele>1238.3199999999999</ele>
        <time>2025-05-12T11:18:51Z</time>
      </trkpt>
      <trkpt lat="37.024787021800876" lon="-2.993294969201088">
        <ele>1238.8</ele>
        <time>2025-05-12T11:18:52Z</time>
      </trkpt>
      <trkpt lat="37.024664981290698" lon="-2.993009984493256">
        <ele>1239.28</ele>
        <time>2025-05-12T11:18:54Z</time>
      </trkpt>
      <trkpt lat="37.024584012106061" lon="-2.992904037237167">
        <ele>1239.28</ele>
        <time>2025-05-12T11:18:55Z</time>
      </trkpt>
      <trkpt lat="37.024491978809237" lon="-2.992843016982079">
        <ele>1239.28</ele>
        <time>2025-05-12T11:18:56Z</time>
      </trkpt>
      <trkpt lat="37.024393994361162" lon="-2.99282600171864">
        <ele>1239.76</ele>
        <time>2025-05-12T11:18:57Z</time>
      </trkpt>
      <trkpt lat="37.024286035448313" lon="-2.992865983396769">
        <ele>1239.76</ele>
        <time>2025-05-12T11:18:58Z</time>
      </trkpt>
      <trkpt lat="37.024165000766516" lon="-2.9929109942168">
        <ele>1239.76</ele>
        <time>2025-05-12T11:18:59Z</time>
      </trkpt>
      <trkpt lat="37.024033991619945" lon="-2.992959022521973">
        <ele>1239.76</ele>
        <time>2025-05-12T11:19:00Z</time>
      </trkpt>
      <trkpt lat="37.023886973038316" lon="-2.992951981723309">
        <ele>1240.24</ele>
        <time>2025-05-12T11:19:01Z</time>
      </trkpt>
      <trkpt lat="37.023730985820293" lon="-2.992945024743676">
        <ele>1240.24</ele>
        <time>2025-05-12T11:19:02Z</time>
      </trkpt>
      <trkpt lat="37.023231005296111" lon="-2.99284896813333">
        <ele>1239.76</ele>
        <time>2025-05-12T11:19:05Z</time>
      </trkpt>
      <trkpt lat="37.023064959794283" lon="-2.992785014212132">
        <ele>1239.28</ele>
        <time>2025-05-12T11:19:06Z</time>
      </trkpt>
      <trkpt lat="37.022895980626345" lon="-2.992724999785423">
        <ele>1238.3199999999999</ele>
        <time>2025-05-12T11:19:07Z</time>
      </trkpt>
      <trkpt lat="37.022728007286787" lon="-2.99267303198576">
        <ele>1237.8299999999999</ele>
        <time>2025-05-12T11:19:08Z</time>
      </trkpt>
      <trkpt lat="37.022556010633707" lon="-2.992643024772406">
        <ele>1237.3499999999999</ele>
        <time>2025-05-12T11:19:09Z</time>
      </trkpt>
      <trkpt lat="37.022377979010344" lon="-2.992636989802122">
        <ele>1236.3900000000001</ele>
        <time>2025-05-12T11:19:10Z</time>
      </trkpt>
      <trkpt lat="37.022195002064109" lon="-2.992636989802122">
        <ele>1235.9100000000001</ele>
        <time>2025-05-12T11:19:11Z</time>
      </trkpt>
      <trkpt lat="37.02099597081542" lon="-2.992617040872574">
        <ele>1232.55</ele>
        <time>2025-05-12T11:19:18Z</time>
      </trkpt>
      <trkpt lat="37.020850041881204" lon="-2.992570018395782">
        <ele>1232.0699999999999</ele>
        <time>2025-05-12T11:19:19Z</time>
      </trkpt>
      <trkpt lat="37.020706962794065" lon="-2.99250396899879">
        <ele>1232.55</ele>
        <time>2025-05-12T11:19:20Z</time>
      </trkpt>
      <trkpt lat="37.020567990839481" lon="-2.99241797067225">
        <ele>1232.55</ele>
        <time>2025-05-12T11:19:21Z</time>
      </trkpt>
      <trkpt lat="37.020424995571375" lon="-2.992330966517329">
        <ele>1233.03</ele>
        <time>2025-05-12T11:19:22Z</time>
      </trkpt>
      <trkpt lat="37.019633995369077" lon="-2.991849007084966">
        <ele>1233.99</ele>
        <time>2025-05-12T11:19:27Z</time>
      </trkpt>
      <trkpt lat="37.019326966255903" lon="-2.991598974913359">
        <ele>1233.51</ele>
        <time>2025-05-12T11:19:29Z</time>
      </trkpt>
      <trkpt lat="37.019151030108333" lon="-2.991524040699005">
        <ele>1233.51</ele>
        <time>2025-05-12T11:19:30Z</time>
      </trkpt>
      <trkpt lat="37.018807958811522" lon="-2.991366963833571">
        <ele>1233.99</ele>
        <time>2025-05-12T11:19:32Z</time>
      </trkpt>
      <trkpt lat="37.018667981028557" lon="-2.991254981607199">
        <ele>1234.47</ele>
        <time>2025-05-12T11:19:33Z</time>
      </trkpt>
      <trkpt lat="37.018563039600849" lon="-2.991122966632247">
        <ele>1234.47</ele>
        <time>2025-05-12T11:19:34Z</time>
      </trkpt>
      <trkpt lat="37.018464971333742" lon="-2.990971002727747">
        <ele>1235.4300000000001</ele>
        <time>2025-05-12T11:19:35Z</time>
      </trkpt>
      <trkpt lat="37.018377967178822" lon="-2.990805041044951">
        <ele>1236.3900000000001</ele>
        <time>2025-05-12T11:19:36Z</time>
      </trkpt>
      <trkpt lat="37.018331028521061" lon="-2.990601025521755">
        <ele>1237.8299999999999</ele>
        <time>2025-05-12T11:19:37Z</time>
      </trkpt>
      <trkpt lat="37.018284006044269" lon="-2.990400027483702">
        <ele>1238.8</ele>
        <time>2025-05-12T11:19:38Z</time>
      </trkpt>
      <trkpt lat="37.018241006880999" lon="-2.990217972546816">
        <ele>1240.24</ele>
        <time>2025-05-12T11:19:39Z</time>
      </trkpt>
      <trkpt lat="37.01816095970571" lon="-2.990068020299077">
        <ele>1241.2</ele>
        <time>2025-05-12T11:19:40Z</time>
      </trkpt>
      <trkpt lat="37.018058029934764" lon="-2.989944973960519">
        <ele>1242.1600000000001</ele>
        <time>2025-05-12T11:19:41Z</time>
      </trkpt>
      <trkpt lat="37.017917968332767" lon="-2.989861993119121">
        <ele>1243.1199999999999</ele>
        <time>2025-05-12T11:19:42Z</time>
      </trkpt>
      <trkpt lat="37.017767010256648" lon="-2.989771971479058">
        <ele>1244.0799999999999</ele>
        <time>2025-05-12T11:19:43Z</time>
      </trkpt>
      <trkpt lat="37.017605993896723" lon="-2.989677004516125">
        <ele>1245.04</ele>
        <time>2025-05-12T11:19:44Z</time>
      </trkpt>
      <trkpt lat="37.01729997061193" lon="-2.989423032850027">
        <ele>1246.97</ele>
        <time>2025-05-12T11:19:46Z</time>
      </trkpt>
      <trkpt lat="37.017178013920784" lon="-2.98927903175354">
        <ele>1247.9300000000001</ele>
        <time>2025-05-12T11:19:47Z</time>
      </trkpt>
      <trkpt lat="37.016967041417956" lon="-2.989032017067075">
        <ele>1249.3699999999999</ele>
        <time>2025-05-12T11:19:49Z</time>
      </trkpt>
      <trkpt lat="37.016837960109115" lon="-2.988973008468747">
        <ele>1250.3299999999999</ele>
        <time>2025-05-12T11:19:50Z</time>
      </trkpt>
      <trkpt lat="37.016694964841008" lon="-2.988948030397296">
        <ele>1250.3299999999999</ele>
        <time>2025-05-12T11:19:51Z</time>
      </trkpt>
      <trkpt lat="37.016565967351198" lon="-2.988924980163574">
        <ele>1250.8099999999999</ele>
        <time>2025-05-12T11:19:52Z</time>
      </trkpt>
      <trkpt lat="37.016400005668402" lon="-2.988835964351893">
        <ele>1251.29</ele>
        <time>2025-05-12T11:19:53Z</time>
      </trkpt>
      <trkpt lat="37.016260027885437" lon="-2.98876203596592">
        <ele>1251.77</ele>
        <time>2025-05-12T11:19:54Z</time>
      </trkpt>
      <trkpt lat="37.016173023730516" lon="-2.988650975748897">
        <ele>1252.25</ele>
        <time>2025-05-12T11:19:55Z</time>
      </trkpt>
      <trkpt lat="37.016093982383609" lon="-2.988538993522525">
        <ele>1252.74</ele>
        <time>2025-05-12T11:19:56Z</time>
      </trkpt>
      <trkpt lat="37.016049977391958" lon="-2.988373031839728">
        <ele>1253.22</ele>
        <time>2025-05-12T11:19:57Z</time>
      </trkpt>
      <trkpt lat="37.015999015420675" lon="-2.988195000216365">
        <ele>1253.7</ele>
        <time>2025-05-12T11:19:58Z</time>
      </trkpt>
      <trkpt lat="37.015921985730529" lon="-2.988015040755272">
        <ele>1253.7</ele>
        <time>2025-05-12T11:19:59Z</time>
      </trkpt>
      <trkpt lat="37.015836993232369" lon="-2.987817982211709">
        <ele>1254.6600000000001</ele>
        <time>2025-05-12T11:20:00Z</time>
      </trkpt>
      <trkpt lat="37.015710007399321" lon="-2.987636011093855">
        <ele>1254.6600000000001</ele>
        <time>2025-05-12T11:20:01Z</time>
      </trkpt>
      <trkpt lat="37.015567012131214" lon="-2.987458985298872">
        <ele>1255.1400000000001</ele>
        <time>2025-05-12T11:20:02Z</time>
      </trkpt>
      <trkpt lat="37.015418987721205" lon="-2.987275002524257">
        <ele>1255.1400000000001</ele>
        <time>2025-05-12T11:20:03Z</time>
      </trkpt>
      <trkpt lat="37.014723038300872" lon="-2.986369002610445">
        <ele>1258.02</ele>
        <time>2025-05-12T11:20:08Z</time>
      </trkpt>
      <trkpt lat="37.014646008610725" lon="-2.98618895933032">
        <ele>1258.98</ele>
        <time>2025-05-12T11:20:09Z</time>
      </trkpt>
      <trkpt lat="37.01457099057734" lon="-2.985963989049196">
        <ele>1259.46</ele>
        <time>2025-05-12T11:20:10Z</time>
      </trkpt>
      <trkpt lat="37.01457099057734" lon="-2.985794004052877">
        <ele>1259.9400000000001</ele>
        <time>2025-05-12T11:20:11Z</time>
      </trkpt>
      <trkpt lat="37.01457099057734" lon="-2.985600968822837">
        <ele>1259.9400000000001</ele>
        <time>2025-05-12T11:20:12Z</time>
      </trkpt>
      <trkpt lat="37.01457099057734" lon="-2.985444981604815">
        <ele>1259.9400000000001</ele>
        <time>2025-05-12T11:20:13Z</time>
      </trkpt>
      <trkpt lat="37.014513993635774" lon="-2.98532897606492">
        <ele>1259.9400000000001</ele>
        <time>2025-05-12T11:20:14Z</time>
      </trkpt>
      <trkpt lat="37.014415003359318" lon="-2.985260998830199">
        <ele>1259.9400000000001</ele>
        <time>2025-05-12T11:20:15Z</time>
      </trkpt>
      <trkpt lat="37.01429002918303" lon="-2.985231997445226">
        <ele>1259.9400000000001</ele>
        <time>2025-05-12T11:20:16Z</time>
      </trkpt>
      <trkpt lat="37.014143010601401" lon="-2.985227974131703">
        <ele>1259.9400000000001</ele>
        <time>2025-05-12T11:20:17Z</time>
      </trkpt>
      <trkpt lat="37.01399196870625" lon="-2.98526301048696">
        <ele>1259.9400000000001</ele>
        <time>2025-05-12T11:20:18Z</time>
      </trkpt>
      <trkpt lat="37.013841010630131" lon="-2.985298968851566">
        <ele>1259.46</ele>
        <time>2025-05-12T11:20:19Z</time>
      </trkpt>
      <trkpt lat="37.013702038675547" lon="-2.985298968851566">
        <ele>1258.98</ele>
        <time>2025-05-12T11:20:20Z</time>
      </trkpt>
      <trkpt lat="37.013566000387073" lon="-2.98526200465858">
        <ele>1258.5</ele>
        <time>2025-05-12T11:20:21Z</time>
      </trkpt>
      <trkpt lat="37.013419987633824" lon="-2.985175000503659">
        <ele>1258.02</ele>
        <time>2025-05-12T11:20:22Z</time>
      </trkpt>
      <trkpt lat="37.013273974880576" lon="-2.985065029934049">
        <ele>1258.02</ele>
        <time>2025-05-12T11:20:23Z</time>
      </trkpt>
      <trkpt lat="37.013155035674572" lon="-2.984910970553756">
        <ele>1258.5</ele>
        <time>2025-05-12T11:20:24Z</time>
      </trkpt>
      <trkpt lat="37.013041041791439" lon="-2.984761018306017">
        <ele>1258.98</ele>
        <time>2025-05-12T11:20:25Z</time>
      </trkpt>
      <trkpt lat="37.012985972687602" lon="-2.984575023874641">
        <ele>1258.98</ele>
        <time>2025-05-12T11:20:26Z</time>
      </trkpt>
      <trkpt lat="37.012941967695951" lon="-2.984391041100025">
        <ele>1259.9400000000001</ele>
        <time>2025-05-12T11:20:27Z</time>
      </trkpt>
      <trkpt lat="37.012911038473248" lon="-2.984199011698365">
        <ele>1260.9100000000001</ele>
        <time>2025-05-12T11:20:28Z</time>
      </trkpt>
      <trkpt lat="37.012895029038191" lon="-2.984006982296705">
        <ele>1262.3499999999999</ele>
        <time>2025-05-12T11:20:29Z</time>
      </trkpt>
      <trkpt lat="37.012835014611483" lon="-2.983478000387549">
        <ele>1265.23</ele>
        <time>2025-05-12T11:20:32Z</time>
      </trkpt>
      <trkpt lat="37.012762008234859" lon="-2.983324024826288">
        <ele>1265.71</ele>
        <time>2025-05-12T11:20:33Z</time>
      </trkpt>
      <trkpt lat="37.012482974678278" lon="-2.982714995741844">
        <ele>1269.0799999999999</ele>
        <time>2025-05-12T11:20:37Z</time>
      </trkpt>
      <trkpt lat="37.012454979121685" lon="-2.982574012130499">
        <ele>1270.04</ele>
        <time>2025-05-12T11:20:38Z</time>
      </trkpt>
      <trkpt lat="37.012481968849897" lon="-2.982423976063728">
        <ele>1270.52</ele>
        <time>2025-05-12T11:20:39Z</time>
      </trkpt>
      <trkpt lat="37.012535026296973" lon="-2.982263965532184">
        <ele>1271</ele>
        <time>2025-05-12T11:20:40Z</time>
      </trkpt>
      <trkpt lat="37.012629993259907" lon="-2.982123987749219">
        <ele>1271.48</ele>
        <time>2025-05-12T11:20:41Z</time>
      </trkpt>
      <trkpt lat="37.01274499297142" lon="-2.98199599608779">
        <ele>1271.96</ele>
        <time>2025-05-12T11:20:42Z</time>
      </trkpt>
      <trkpt lat="37.012854041531682" lon="-2.981874039396644">
        <ele>1272.4400000000001</ele>
        <time>2025-05-12T11:20:43Z</time>
      </trkpt>
      <trkpt lat="37.013038024306297" lon="-2.981669018045068">
        <ele>1273.4000000000001</ele>
        <time>2025-05-12T11:20:45Z</time>
      </trkpt>
      <trkpt lat="37.013112036511302" lon="-2.98158603720367">
        <ele>1273.8800000000001</ele>
        <time>2025-05-12T11:20:46Z</time>
      </trkpt>
      <trkpt lat="37.013121005147696" lon="-2.981456033885479">
        <ele>1274.3599999999999</ele>
        <time>2025-05-12T11:20:47Z</time>
      </trkpt>
      <trkpt lat="37.013132991269231" lon="-2.981285965070128">
        <ele>1274.8499999999999</ele>
        <time>2025-05-12T11:20:48Z</time>
      </trkpt>
      <trkpt lat="37.013054033741355" lon="-2.981175994500518">
        <ele>1275.3299999999999</ele>
        <time>2025-05-12T11:20:49Z</time>
      </trkpt>
      <trkpt lat="37.012940961867571" lon="-2.981087984517217">
        <ele>1275.8099999999999</ele>
        <time>2025-05-12T11:20:50Z</time>
      </trkpt>
      <trkpt lat="37.012804001569748" lon="-2.981045991182327">
        <ele>1276.29</ele>
        <time>2025-05-12T11:20:51Z</time>
      </trkpt>
      <trkpt lat="37.0126579888165" lon="-2.981037022545934">
        <ele>1277.25</ele>
        <time>2025-05-12T11:20:52Z</time>
      </trkpt>
      <trkpt lat="37.012508036568761" lon="-2.981017995625734">
        <ele>1277.73</ele>
        <time>2025-05-12T11:20:53Z</time>
      </trkpt>
      <trkpt lat="37.012367974966764" lon="-2.980954041704536">
        <ele>1278.21</ele>
        <time>2025-05-12T11:20:54Z</time>
      </trkpt>
      <trkpt lat="37.012244006618857" lon="-2.980868965387344">
        <ele>1278.6900000000001</ele>
        <time>2025-05-12T11:20:55Z</time>
      </trkpt>
      <trkpt lat="37.01214199885726" lon="-2.980754971504211">
        <ele>1279.1700000000001</ele>
        <time>2025-05-12T11:20:56Z</time>
      </trkpt>
      <trkpt lat="37.012104028835893" lon="-2.980589009821415">
        <ele>1279.6500000000001</ele>
        <time>2025-05-12T11:20:57Z</time>
      </trkpt>
      <trkpt lat="37.012094976380467" lon="-2.980413995683193">
        <ele>1280.1300000000001</ele>
        <time>2025-05-12T11:20:58Z</time>
      </trkpt>
      <trkpt lat="37.012131018564105" lon="-2.98021400347352">
        <ele>1280.1300000000001</ele>
        <time>2025-05-12T11:20:59Z</time>
      </trkpt>
      <trkpt lat="37.012195978313684" lon="-2.980015017092228">
        <ele>1280.6099999999999</ele>
        <time>2025-05-12T11:21:00Z</time>
      </trkpt>
      <trkpt lat="37.012284994125366" lon="-2.979815024882555">
        <ele>1281.0899999999999</ele>
        <time>2025-05-12T11:21:01Z</time>
      </trkpt>
      <trkpt lat="37.012373004108667" lon="-2.979616960510612">
        <ele>1282.0599999999999</ele>
        <time>2025-05-12T11:21:02Z</time>
      </trkpt>
      <trkpt lat="37.012454979121685" lon="-2.979430966079235">
        <ele>1282.54</ele>
        <time>2025-05-12T11:21:03Z</time>
      </trkpt>
      <trkpt lat="37.012498984113336" lon="-2.979255029931665">
        <ele>1282.54</ele>
        <time>2025-05-12T11:21:04Z</time>
      </trkpt>
      <trkpt lat="37.012506024912" lon="-2.979100970551372">
        <ele>1283.02</ele>
        <time>2025-05-12T11:21:05Z</time>
      </trkpt>
      <trkpt lat="37.0124869979918" lon="-2.978963004425168">
        <ele>1283.02</ele>
        <time>2025-05-12T11:21:06Z</time>
      </trkpt>
      <trkpt lat="37.012425977736712" lon="-2.978826966136694">
        <ele>1283.5</ele>
        <time>2025-05-12T11:21:07Z</time>
      </trkpt>
      <trkpt lat="37.012361017987132" lon="-2.978681037202478">
        <ele>1283.5</ele>
        <time>2025-05-12T11:21:08Z</time>
      </trkpt>
      <trkpt lat="37.012293040752411" lon="-2.978527983650565">
        <ele>1283.98</ele>
        <time>2025-05-12T11:21:09Z</time>
      </trkpt>
      <trkpt lat="37.012232020497322" lon="-2.978371996432543">
        <ele>1283.98</ele>
        <time>2025-05-12T11:21:10Z</time>
      </trkpt>
      <trkpt lat="37.012232020497322" lon="-2.978178961202502">
        <ele>1283.98</ele>
        <time>2025-05-12T11:21:11Z</time>
      </trkpt>
      <trkpt lat="37.012258004397154" lon="-2.977985003963113">
        <ele>1284.46</ele>
        <time>2025-05-12T11:21:12Z</time>
      </trkpt>
      <trkpt lat="37.012307960540056" lon="-2.977781994268298">
        <ele>1284.46</ele>
        <time>2025-05-12T11:21:13Z</time>
      </trkpt>
      <trkpt lat="37.012361017987132" lon="-2.977574039250612">
        <ele>1284.46</ele>
        <time>2025-05-12T11:21:14Z</time>
      </trkpt>
      <trkpt lat="37.012418014928699" lon="-2.977347979322076">
        <ele>1284.9400000000001</ele>
        <time>2025-05-12T11:21:15Z</time>
      </trkpt>
      <trkpt lat="37.012478029355407" lon="-2.977117979899049">
        <ele>1284.9400000000001</ele>
        <time>2025-05-12T11:21:16Z</time>
      </trkpt>
      <trkpt lat="37.012618007138371" lon="-2.976446002721787">
        <ele>1285.9000000000001</ele>
        <time>2025-05-12T11:21:19Z</time>
      </trkpt>
      <trkpt lat="37.01261599548161" lon="-2.976257996633649">
        <ele>1285.4200000000001</ele>
        <time>2025-05-12T11:21:20Z</time>
      </trkpt>
      <trkpt lat="37.012537959963083" lon="-2.976133022457361">
        <ele>1284.9400000000001</ele>
        <time>2025-05-12T11:21:21Z</time>
      </trkpt>
      <trkpt lat="37.012450033798814" lon="-2.976032020524144">
        <ele>1284.46</ele>
        <time>2025-05-12T11:21:22Z</time>
      </trkpt>
      <trkpt lat="37.012351965531707" lon="-2.975920038297772">
        <ele>1284.46</ele>
        <time>2025-05-12T11:21:23Z</time>
      </trkpt>
      <trkpt lat="37.012241994962096" lon="-2.975793974474073">
        <ele>1283.98</ele>
        <time>2025-05-12T11:21:24Z</time>
      </trkpt>
      <trkpt lat="37.012140993028879" lon="-2.97563698142767">
        <ele>1283.98</ele>
        <time>2025-05-12T11:21:25Z</time>
      </trkpt>
      <trkpt lat="37.012066980823874" lon="-2.975433971732855">
        <ele>1284.46</ele>
        <time>2025-05-12T11:21:26Z</time>
      </trkpt>
      <trkpt lat="37.012001015245914" lon="-2.975211013108492">
        <ele>1284.46</ele>
        <time>2025-05-12T11:21:27Z</time>
      </trkpt>
      <trkpt lat="37.011957010254264" lon="-2.97497003339231">
        <ele>1285.4200000000001</ele>
        <time>2025-05-12T11:21:28Z</time>
      </trkpt>
      <trkpt lat="37.011919040232897" lon="-2.97471103258431">
        <ele>1285.9000000000001</ele>
        <time>2025-05-12T11:21:29Z</time>
      </trkpt>
      <trkpt lat="37.011890038847923" lon="-2.974440967664123">
        <ele>1286.8599999999999</ele>
        <time>2025-05-12T11:21:30Z</time>
      </trkpt>
      <trkpt lat="37.011847961694002" lon="-2.973691038787365">
        <ele>1290.23</ele>
        <time>2025-05-12T11:21:33Z</time>
      </trkpt>
      <trkpt lat="37.011880986392498" lon="-2.973482999950647">
        <ele>1291.1900000000001</ele>
        <time>2025-05-12T11:21:34Z</time>
      </trkpt>
      <trkpt lat="37.01194703578949" lon="-2.973317038267851">
        <ele>1292.6300000000001</ele>
        <time>2025-05-12T11:21:35Z</time>
      </trkpt>
      <trkpt lat="37.012054994702339" lon="-2.973172031342983">
        <ele>1293.5899999999999</ele>
        <time>2025-05-12T11:21:36Z</time>
      </trkpt>
      <trkpt lat="37.012169994413853" lon="-2.97301503829658">
        <ele>1295.03</ele>
        <time>2025-05-12T11:21:37Z</time>
      </trkpt>
      <trkpt lat="37.012317012995481" lon="-2.97288503497839">
        <ele>1296.96</ele>
        <time>2025-05-12T11:21:38Z</time>
      </trkpt>
      <trkpt lat="37.012478029355407" lon="-2.972771041095257">
        <ele>1298.8800000000001</ele>
        <time>2025-05-12T11:21:39Z</time>
      </trkpt>
      <trkpt lat="37.012647008523345" lon="-2.972684036940336">
        <ele>1300.3199999999999</ele>
        <time>2025-05-12T11:21:40Z</time>
      </trkpt>
      <trkpt lat="37.01281095854938" lon="-2.972639026120305">
        <ele>1302.24</ele>
        <time>2025-05-12T11:21:41Z</time>
      </trkpt>
      <trkpt lat="37.012960994616151" lon="-2.972639026120305">
        <ele>1304.1700000000001</ele>
        <time>2025-05-12T11:21:42Z</time>
      </trkpt>
      <trkpt lat="37.0130879804492" lon="-2.972711026668549">
        <ele>1304.6500000000001</ele>
        <time>2025-05-12T11:21:43Z</time>
      </trkpt>
      <trkpt lat="37.013213038444519" lon="-2.972813034430146">
        <ele>1305.6099999999999</ele>
        <time>2025-05-12T11:21:44Z</time>
      </trkpt>
      <trkpt lat="37.013355027884245" lon="-2.972935996949673">
        <ele>1306.5699999999999</ele>
        <time>2025-05-12T11:21:45Z</time>
      </trkpt>
      <trkpt lat="37.013503974303603" lon="-2.973066000267863">
        <ele>1307.53</ele>
        <time>2025-05-12T11:21:46Z</time>
      </trkpt>
      <trkpt lat="37.01366700232029" lon="-2.973161973059177">
        <ele>1308.49</ele>
        <time>2025-05-12T11:21:47Z</time>
      </trkpt>
      <trkpt lat="37.013842016458511" lon="-2.97318703494966">
        <ele>1309.45</ele>
        <time>2025-05-12T11:21:48Z</time>
      </trkpt>
      <trkpt lat="37.014030022546649" lon="-2.973172031342983">
        <ele>1310.4100000000001</ele>
        <time>2025-05-12T11:21:49Z</time>
      </trkpt>
      <trkpt lat="37.014219034463167" lon="-2.97312299720943">
        <ele>1311.3800000000001</ele>
        <time>2025-05-12T11:21:50Z</time>
      </trkpt>
      <trkpt lat="37.014394970610738" lon="-2.973069017753005">
        <ele>1311.8599999999999</ele>
        <time>2025-05-12T11:21:51Z</time>
      </trkpt>
      <trkpt lat="37.014553975313902" lon="-2.973068011924624">
        <ele>1312.3399999999999</ele>
        <time>2025-05-12T11:21:52Z</time>
      </trkpt>
      <trkpt lat="37.014808030799031" lon="-2.973010009154677">
        <ele>1312.3399999999999</ele>
        <time>2025-05-12T11:21:54Z</time>
      </trkpt>
      <trkpt lat="37.014905009418726" lon="-2.972923004999757">
        <ele>1312.3399999999999</ele>
        <time>2025-05-12T11:21:55Z</time>
      </trkpt>
      <trkpt lat="37.01495798304677" lon="-2.97279903665185">
        <ele>1312.3399999999999</ele>
        <time>2025-05-12T11:21:56Z</time>
      </trkpt>
      <trkpt lat="37.014997964724898" lon="-2.972627962008119">
        <ele>1311.8599999999999</ele>
        <time>2025-05-12T11:21:57Z</time>
      </trkpt>
      <trkpt lat="37.015041969716549" lon="-2.972442973405123">
        <ele>1311.3800000000001</ele>
        <time>2025-05-12T11:21:58Z</time>
      </trkpt>
      <trkpt lat="37.0150859747082" lon="-2.972253039479256">
        <ele>1310.9000000000001</ele>
        <time>2025-05-12T11:21:59Z</time>
      </trkpt>
      <trkpt lat="37.015177002176642" lon="-2.9718760214746">
        <ele>1310.4100000000001</ele>
        <time>2025-05-12T11:22:01Z</time>
      </trkpt>
      <trkpt lat="37.01523601077497" lon="-2.971736965700984">
        <ele>1309.9300000000001</ele>
        <time>2025-05-12T11:22:02Z</time>
      </trkpt>
      <trkpt lat="37.015380011871457" lon="-2.971611991524696">
        <ele>1309.9300000000001</ele>
        <time>2025-05-12T11:22:03Z</time>
      </trkpt>
      <trkpt lat="37.01551697216928" lon="-2.97149196267128">
        <ele>1309.45</ele>
        <time>2025-05-12T11:22:04Z</time>
      </trkpt>
      <trkpt lat="37.015658961609006" lon="-2.971366988494992">
        <ele>1308.97</ele>
        <time>2025-05-12T11:22:05Z</time>
      </trkpt>
      <trkpt lat="37.015793994069099" lon="-2.971248971298337">
        <ele>1308.49</ele>
        <time>2025-05-12T11:22:06Z</time>
      </trkpt>
      <trkpt lat="37.015904970467091" lon="-2.971151992678642">
        <ele>1308.49</ele>
        <time>2025-05-12T11:22:07Z</time>
      </trkpt>
      <trkpt lat="37.015934977680445" lon="-2.971051996573806">
        <ele>1308.01</ele>
        <time>2025-05-12T11:22:08Z</time>
      </trkpt>
      <trkpt lat="37.015936989337206" lon="-2.970946971327066">
        <ele>1307.53</ele>
        <time>2025-05-12T11:22:09Z</time>
      </trkpt>
      <trkpt lat="37.015913017094135" lon="-2.970825014635921">
        <ele>1306.5699999999999</ele>
        <time>2025-05-12T11:22:10Z</time>
      </trkpt>
      <trkpt lat="37.015886027365923" lon="-2.970681013539434">
        <ele>1305.6099999999999</ele>
        <time>2025-05-12T11:22:11Z</time>
      </trkpt>
      <trkpt lat="37.015861971303821" lon="-2.970518991351128">
        <ele>1305.1300000000001</ele>
        <time>2025-05-12T11:22:12Z</time>
      </trkpt>
      <trkpt lat="37.0159010309726" lon="-2.970335008576512">
        <ele>1304.1700000000001</ele>
        <time>2025-05-12T11:22:13Z</time>
      </trkpt>
      <trkpt lat="37.015988035127521" lon="-2.96992102637887">
        <ele>1302.24</ele>
        <time>2025-05-12T11:22:15Z</time>
      </trkpt>
      <trkpt lat="37.015995997935534" lon="-2.96970896422863">
        <ele>1301.28</ele>
        <time>2025-05-12T11:22:16Z</time>
      </trkpt>
      <trkpt lat="37.015974959358573" lon="-2.96951299533248">
        <ele>1300.3199999999999</ele>
        <time>2025-05-12T11:22:17Z</time>
      </trkpt>
      <trkpt lat="37.015955010429025" lon="-2.969325995072722">
        <ele>1299.8399999999999</ele>
        <time>2025-05-12T11:22:18Z</time>
      </trkpt>
      <trkpt lat="37.01596699655056" lon="-2.969158021733165">
        <ele>1298.8800000000001</ele>
        <time>2025-05-12T11:22:19Z</time>
      </trkpt>
      <trkpt lat="37.016031034290791" lon="-2.969004968181253">
        <ele>1297.9200000000001</ele>
        <time>2025-05-12T11:22:20Z</time>
      </trkpt>
      <trkpt lat="37.016137987375259" lon="-2.968865996226668">
        <ele>1297.4400000000001</ele>
        <time>2025-05-12T11:22:21Z</time>
      </trkpt>
      <trkpt lat="37.016257010400295" lon="-2.968729035928845">
        <ele>1296.48</ele>
        <time>2025-05-12T11:22:22Z</time>
      </trkpt>
      <trkpt lat="37.016394976526499" lon="-2.968626022338867">
        <ele>1295.99</ele>
        <time>2025-05-12T11:22:23Z</time>
      </trkpt>
      <trkpt lat="37.016551969572902" lon="-2.968573970720172">
        <ele>1295.03</ele>
        <time>2025-05-12T11:22:24Z</time>
      </trkpt>
      <trkpt lat="37.016708040609956" lon="-2.968522002920508">
        <ele>1294.0699999999999</ele>
        <time>2025-05-12T11:22:25Z</time>
      </trkpt>
      <trkpt lat="37.016852041706443" lon="-2.968473974615336">
        <ele>1293.5899999999999</ele>
        <time>2025-05-12T11:22:26Z</time>
      </trkpt>
      <trkpt lat="37.016954971477389" lon="-2.968391999602318">
        <ele>1292.6300000000001</ele>
        <time>2025-05-12T11:22:27Z</time>
      </trkpt>
      <trkpt lat="37.017036024481058" lon="-2.968281023204327">
        <ele>1291.6700000000001</ele>
        <time>2025-05-12T11:22:28Z</time>
      </trkpt>
      <trkpt lat="37.01706301420927" lon="-2.96814096160233">
        <ele>1291.1900000000001</ele>
        <time>2025-05-12T11:22:29Z</time>
      </trkpt>
      <trkpt lat="37.017030995339155" lon="-2.967998972162604">
        <ele>1290.23</ele>
        <time>2025-05-12T11:22:30Z</time>
      </trkpt>
      <trkpt lat="37.016965029761195" lon="-2.967887995764613">
        <ele>1289.75</ele>
        <time>2025-05-12T11:22:31Z</time>
      </trkpt>
      <trkpt lat="37.016867967322469" lon="-2.967791017144918">
        <ele>1289.27</ele>
        <time>2025-05-12T11:22:32Z</time>
      </trkpt>
      <trkpt lat="37.016765037551522" lon="-2.967681968584657">
        <ele>1289.27</ele>
        <time>2025-05-12T11:22:33Z</time>
      </trkpt>
      <trkpt lat="37.016663029789925" lon="-2.967541990801692">
        <ele>1289.27</ele>
        <time>2025-05-12T11:22:34Z</time>
      </trkpt>
      <trkpt lat="37.016206970438361" lon="-2.966916030272842">
        <ele>1289.27</ele>
        <time>2025-05-12T11:22:38Z</time>
      </trkpt>
      <trkpt lat="37.016126001253724" lon="-2.966731963679195">
        <ele>1289.27</ele>
        <time>2025-05-12T11:22:39Z</time>
      </trkpt>
      <trkpt lat="37.016043020412326" lon="-2.966537000611424">
        <ele>1289.27</ele>
        <time>2025-05-12T11:22:40Z</time>
      </trkpt>
      <trkpt lat="37.015484031289816" lon="-2.965329000726342">
        <ele>1290.23</ele>
        <time>2025-05-12T11:22:46Z</time>
      </trkpt>
      <trkpt lat="37.015342963859439" lon="-2.965177958831191">
        <ele>1290.23</ele>
        <time>2025-05-12T11:22:47Z</time>
      </trkpt>
      <trkpt lat="37.015200974419713" lon="-2.965024989098311">
        <ele>1290.23</ele>
        <time>2025-05-12T11:22:48Z</time>
      </trkpt>
      <trkpt lat="37.014787998050451" lon="-2.964578988030553">
        <ele>1289.27</ele>
        <time>2025-05-12T11:22:51Z</time>
      </trkpt>
      <trkpt lat="37.014686996117234" lon="-2.964429035782814">
        <ele>1289.27</ele>
        <time>2025-05-12T11:22:52Z</time>
      </trkpt>
      <trkpt lat="37.01463301666081" lon="-2.964263996109366">
        <ele>1288.78</ele>
        <time>2025-05-12T11:22:53Z</time>
      </trkpt>
      <trkpt lat="37.014622958377004" lon="-2.964068027213216">
        <ele>1288.3</ele>
        <time>2025-05-12T11:22:54Z</time>
      </trkpt>
      <trkpt lat="37.01461398974061" lon="-2.963857976719737">
        <ele>1287.8199999999999</ele>
        <time>2025-05-12T11:22:55Z</time>
      </trkpt>
      <trkpt lat="37.014622958377004" lon="-2.963625965639949">
        <ele>1286.8599999999999</ele>
        <time>2025-05-12T11:22:56Z</time>
      </trkpt>
      <trkpt lat="37.014818005263805" lon="-2.961710030212998">
        <ele>1276.77</ele>
        <time>2025-05-12T11:23:04Z</time>
      </trkpt>
      <trkpt lat="37.014884976670146" lon="-2.961511965841055">
        <ele>1275.3299999999999</ele>
        <time>2025-05-12T11:23:05Z</time>
      </trkpt>
      <trkpt lat="37.014977009966969" lon="-2.961317002773285">
        <ele>1273.8800000000001</ele>
        <time>2025-05-12T11:23:06Z</time>
      </trkpt>
      <trkpt lat="37.015072982758284" lon="-2.961126985028386">
        <ele>1272.9200000000001</ele>
        <time>2025-05-12T11:23:07Z</time>
      </trkpt>
      <trkpt lat="37.015174990519881" lon="-2.960937973111868">
        <ele>1271</ele>
        <time>2025-05-12T11:23:08Z</time>
      </trkpt>
      <trkpt lat="37.015352016314864" lon="-2.960560033097863">
        <ele>1268.1199999999999</ele>
        <time>2025-05-12T11:23:10Z</time>
      </trkpt>
      <trkpt lat="37.01540800742805" lon="-2.960363980382681">
        <ele>1266.6700000000001</ele>
        <time>2025-05-12T11:23:11Z</time>
      </trkpt>
      <trkpt lat="37.015453018248081" lon="-2.960171028971672">
        <ele>1264.75</ele>
        <time>2025-05-12T11:23:12Z</time>
      </trkpt>
      <trkpt lat="37.015468021854758" lon="-2.9599520098418">
        <ele>1263.79</ele>
        <time>2025-05-12T11:23:13Z</time>
      </trkpt>
      <trkpt lat="37.015484031289816" lon="-2.959728967398405">
        <ele>1262.3499999999999</ele>
        <time>2025-05-12T11:23:14Z</time>
      </trkpt>
      <trkpt lat="37.015499034896493" lon="-2.959503997117281">
        <ele>1261.3900000000001</ele>
        <time>2025-05-12T11:23:15Z</time>
      </trkpt>
      <trkpt lat="37.015514960512519" lon="-2.959270980209112">
        <ele>1259.9400000000001</ele>
        <time>2025-05-12T11:23:16Z</time>
      </trkpt>
      <trkpt lat="37.015571035444736" lon="-2.959069982171059">
        <ele>1258.5</ele>
        <time>2025-05-12T11:23:17Z</time>
      </trkpt>
      <trkpt lat="37.01568603515625" lon="-2.958660023286939">
        <ele>1255.1400000000001</ele>
        <time>2025-05-12T11:23:19Z</time>
      </trkpt>
      <trkpt lat="37.015757029876113" lon="-2.95847000554204">
        <ele>1253.7</ele>
        <time>2025-05-12T11:23:20Z</time>
      </trkpt>
      <trkpt lat="37.015940006822348" lon="-2.958128023892641">
        <ele>1251.29</ele>
        <time>2025-05-12T11:23:22Z</time>
      </trkpt>
      <trkpt lat="37.016042014583945" lon="-2.957975976169109">
        <ele>1249.8499999999999</ele>
        <time>2025-05-12T11:23:23Z</time>
      </trkpt>
      <trkpt lat="37.016173023730516" lon="-2.957866005599499">
        <ele>1248.4100000000001</ele>
        <time>2025-05-12T11:23:24Z</time>
      </trkpt>
      <trkpt lat="37.016313001513481" lon="-2.957756035029888">
        <ele>1246.97</ele>
        <time>2025-05-12T11:23:25Z</time>
      </trkpt>
      <trkpt lat="37.01646002009511" lon="-2.957650003954768">
        <ele>1245.53</ele>
        <time>2025-05-12T11:23:26Z</time>
      </trkpt>
      <trkpt lat="37.017273986712098" lon="-2.957104006782174">
        <ele>1239.28</ele>
        <time>2025-05-12T11:23:32Z</time>
      </trkpt>
      <trkpt lat="37.017309023067355" lon="-2.957011973485351">
        <ele>1238.3199999999999</ele>
        <time>2025-05-12T11:23:33Z</time>
      </trkpt>
      <trkpt lat="37.017339030280709" lon="-2.956931004300714">
        <ele>1237.3499999999999</ele>
        <time>2025-05-12T11:23:34Z</time>
      </trkpt>
      <trkpt lat="37.017354033887386" lon="-2.956706034019589">
        <ele>1236.3900000000001</ele>
        <time>2025-05-12T11:23:36Z</time>
      </trkpt>
      <trkpt lat="37.017379011958838" lon="-2.956576030701399">
        <ele>1235.4300000000001</ele>
        <time>2025-05-12T11:23:37Z</time>
      </trkpt>
      <trkpt lat="37.017441038042307" lon="-2.956462036818266">
        <ele>1234.95</ele>
        <time>2025-05-12T11:23:38Z</time>
      </trkpt>
      <trkpt lat="37.017527036368847" lon="-2.956350976601243">
        <ele>1233.99</ele>
        <time>2025-05-12T11:23:39Z</time>
      </trkpt>
      <trkpt lat="37.01764103025198" lon="-2.956281993538141">
        <ele>1233.51</ele>
        <time>2025-05-12T11:23:40Z</time>
      </trkpt>
      <trkpt lat="37.017757035791874" lon="-2.956247041001916">
        <ele>1233.03</ele>
        <time>2025-05-12T11:23:41Z</time>
      </trkpt>
      <trkpt lat="37.01787899248302" lon="-2.956252992153168">
        <ele>1232.0699999999999</ele>
        <time>2025-05-12T11:23:42Z</time>
      </trkpt>
      <trkpt lat="37.018013019114733" lon="-2.956260032951832">
        <ele>1231.1099999999999</ele>
        <time>2025-05-12T11:23:43Z</time>
      </trkpt>
      <trkpt lat="37.018154002726078" lon="-2.956265984103084">
        <ele>1230.1400000000001</ele>
        <time>2025-05-12T11:23:44Z</time>
      </trkpt>
      <trkpt lat="37.018296997994184" lon="-2.95621301047504">
        <ele>1229.1800000000001</ele>
        <time>2025-05-12T11:23:45Z</time>
      </trkpt>
      <trkpt lat="37.018403029069304" lon="-2.956112008541822">
        <ele>1228.22</ele>
        <time>2025-05-12T11:23:46Z</time>
      </trkpt>
      <trkpt lat="37.018488021567464" lon="-2.955989968031645">
        <ele>1227.74</ele>
        <time>2025-05-12T11:23:47Z</time>
      </trkpt>
      <trkpt lat="37.018560022115707" lon="-2.955852001905441">
        <ele>1227.26</ele>
        <time>2025-05-12T11:23:48Z</time>
      </trkpt>
      <trkpt lat="37.018632022663951" lon="-2.955716969445348">
        <ele>1226.3</ele>
        <time>2025-05-12T11:23:49Z</time>
      </trkpt>
      <trkpt lat="37.018744004890323" lon="-2.955603981390595">
        <ele>1225.8199999999999</ele>
        <time>2025-05-12T11:23:50Z</time>
      </trkpt>
      <trkpt lat="37.01886503957212" lon="-2.955500967800617">
        <ele>1224.8599999999999</ele>
        <time>2025-05-12T11:23:51Z</time>
      </trkpt>
      <trkpt lat="37.019011974334717" lon="-2.955408012494445">
        <ele>1224.3800000000001</ele>
        <time>2025-05-12T11:23:52Z</time>
      </trkpt>
      <trkpt lat="37.019837005063891" lon="-2.954750033095479">
        <ele>1220.53</ele>
        <time>2025-05-12T11:24:00Z</time>
      </trkpt>
      <trkpt lat="37.020620964467525" lon="-2.95402298681438">
        <ele>1216.6900000000001</ele>
        <time>2025-05-12T11:24:11Z</time>
      </trkpt>
      <trkpt lat="37.020850963890553" lon="-2.953856019303203">
        <ele>1214.28</ele>
        <time>2025-05-12T11:24:15Z</time>
      </trkpt>
      <trkpt lat="37.020901003852487" lon="-2.953849984332919">
        <ele>1213.8</ele>
        <time>2025-05-12T11:24:16Z</time>
      </trkpt>
      <trkpt lat="37.020965963602066" lon="-2.953875968232751">
        <ele>1213.3199999999999</ele>
        <time>2025-05-12T11:24:17Z</time>
      </trkpt>
      <trkpt lat="37.021047016605735" lon="-2.953885020688176">
        <ele>1212.8399999999999</ele>
        <time>2025-05-12T11:24:18Z</time>
      </trkpt>
      <trkpt lat="37.021107031032443" lon="-2.953885020688176">
        <ele>1212.3599999999999</ele>
        <time>2025-05-12T11:24:19Z</time>
      </trkpt>
      <trkpt lat="37.021158998832107" lon="-2.953885020688176">
        <ele>1211.8800000000001</ele>
        <time>2025-05-12T11:24:20Z</time>
      </trkpt>
      <trkpt lat="37.021223036572337" lon="-2.95385199598968">
        <ele>1211.4000000000001</ele>
        <time>2025-05-12T11:24:21Z</time>
      </trkpt>
      <trkpt lat="37.021278021857142" lon="-2.953811008483172">
        <ele>1210.9200000000001</ele>
        <time>2025-05-12T11:24:22Z</time>
      </trkpt>
      <trkpt lat="37.021443983539939" lon="-2.9536799993366">
        <ele>1209.48</ele>
        <time>2025-05-12T11:24:25Z</time>
      </trkpt>
      <trkpt lat="37.021482037380338" lon="-2.95361696742475">
        <ele>1209</ele>
        <time>2025-05-12T11:24:26Z</time>
      </trkpt>
      <trkpt lat="37.021584967151284" lon="-2.95333600603044">
        <ele>1206.5899999999999</ele>
        <time>2025-05-12T11:24:30Z</time>
      </trkpt>
      <trkpt lat="37.02161799184978" lon="-2.953222012147307">
        <ele>1205.6300000000001</ele>
        <time>2025-05-12T11:24:32Z</time>
      </trkpt>
      <trkpt lat="37.021652022376657" lon="-2.953155040740967">
        <ele>1205.1500000000001</ele>
        <time>2025-05-12T11:24:33Z</time>
      </trkpt>
      <trkpt lat="37.021694015711546" lon="-2.953125033527613">
        <ele>1204.6700000000001</ele>
        <time>2025-05-12T11:24:34Z</time>
      </trkpt>
      <trkpt lat="37.021742966026068" lon="-2.953089997172356">
        <ele>1204.1900000000001</ele>
        <time>2025-05-12T11:24:35Z</time>
      </trkpt>
      <trkpt lat="37.021790994331241" lon="-2.953055966645479">
        <ele>1203.71</ele>
        <time>2025-05-12T11:24:36Z</time>
      </trkpt>
      <trkpt lat="37.021833993494511" lon="-2.953027971088886">
        <ele>1203.23</ele>
        <time>2025-05-12T11:24:37Z</time>
      </trkpt>
      <trkpt lat="37.021973971277475" lon="-2.952939961105585">
        <ele>1201.79</ele>
        <time>2025-05-12T11:24:40Z</time>
      </trkpt>
      <trkpt lat="37.022386025637388" lon="-2.952919006347656">
        <ele>1199.8599999999999</ele>
        <time>2025-05-12T11:24:48Z</time>
      </trkpt>
      <trkpt lat="37.022536983713508" lon="-2.952893022447825">
        <ele>1198.9000000000001</ele>
        <time>2025-05-12T11:24:50Z</time>
      </trkpt>
      <trkpt lat="37.022601021453738" lon="-2.952888999134302">
        <ele>1198.4200000000001</ele>
        <time>2025-05-12T11:24:51Z</time>
      </trkpt>
      <trkpt lat="37.022664975374937" lon="-2.95288497582078">
        <ele>1197.9400000000001</ele>
        <time>2025-05-12T11:24:52Z</time>
      </trkpt>
      <trkpt lat="37.022809982299805" lon="-2.952876007184386">
        <ele>1196.5</ele>
        <time>2025-05-12T11:24:54Z</time>
      </trkpt>
      <trkpt lat="37.022880977019668" lon="-2.952881036326289">
        <ele>1196.02</ele>
        <time>2025-05-12T11:24:55Z</time>
      </trkpt>
      <trkpt lat="37.023101001977921" lon="-2.952895034104586">
        <ele>1196.5</ele>
        <time>2025-05-12T11:24:58Z</time>
      </trkpt>
      <trkpt lat="37.023247014731169" lon="-2.952868966385722">
        <ele>1198.4200000000001</ele>
        <time>2025-05-12T11:25:00Z</time>
      </trkpt>
      <trkpt lat="37.023321026936173" lon="-2.952851029112935">
        <ele>1199.8599999999999</ele>
        <time>2025-05-12T11:25:01Z</time>
      </trkpt>
      <trkpt lat="37.023403001949191" lon="-2.952834013849497">
        <ele>1200.8199999999999</ele>
        <time>2025-05-12T11:25:02Z</time>
      </trkpt>
      <trkpt lat="37.023639036342502" lon="-2.952854968607426">
        <ele>1204.1900000000001</ele>
        <time>2025-05-12T11:25:05Z</time>
      </trkpt>
      <trkpt lat="37.023703996092081" lon="-2.952859997749329">
        <ele>1204.6700000000001</ele>
        <time>2025-05-12T11:25:06Z</time>
      </trkpt>
      <trkpt lat="37.023984035477042" lon="-2.952849017456174">
        <ele>1208.03</ele>
        <time>2025-05-12T11:25:10Z</time>
      </trkpt>
      <trkpt lat="37.024226021021605" lon="-2.952748015522957">
        <ele>1208.51</ele>
        <time>2025-05-12T11:25:13Z</time>
      </trkpt>
      <trkpt lat="37.02453900128603" lon="-2.952560009434819">
        <ele>1208.51</ele>
        <time>2025-05-12T11:25:17Z</time>
      </trkpt>
      <trkpt lat="37.024614019319415" lon="-2.952514998614788">
        <ele>1208.03</ele>
        <time>2025-05-12T11:25:18Z</time>
      </trkpt>
      <trkpt lat="37.024656012654305" lon="-2.952490020543337">
        <ele>1207.55</ele>
        <time>2025-05-12T11:25:19Z</time>
      </trkpt>
      <trkpt lat="37.024724995717406" lon="-2.952405028045178">
        <ele>1207.0699999999999</ele>
        <time>2025-05-12T11:25:20Z</time>
      </trkpt>
      <trkpt lat="37.024785010144114" lon="-2.952331015840173">
        <ele>1206.5899999999999</ele>
        <time>2025-05-12T11:25:21Z</time>
      </trkpt>
      <trkpt lat="37.024897998198867" lon="-2.952191038057208">
        <ele>1205.6300000000001</ele>
        <time>2025-05-12T11:25:23Z</time>
      </trkpt>
      <trkpt lat="37.024943009018898" lon="-2.952128006145358">
        <ele>1205.1500000000001</ele>
        <time>2025-05-12T11:25:24Z</time>
      </trkpt>
      <trkpt lat="37.024982990697026" lon="-2.952043013647199">
        <ele>1204.6700000000001</ele>
        <time>2025-05-12T11:25:25Z</time>
      </trkpt>
      <trkpt lat="37.025062032043934" lon="-2.951875040307641">
        <ele>1204.1900000000001</ele>
        <time>2025-05-12T11:25:27Z</time>
      </trkpt>
      <trkpt lat="37.025106037035584" lon="-2.951794993132353">
        <ele>1203.71</ele>
        <time>2025-05-12T11:25:28Z</time>
      </trkpt>
      <trkpt lat="37.0252900198102" lon="-2.951536998152733">
        <ele>1201.79</ele>
        <time>2025-05-12T11:25:31Z</time>
      </trkpt>
      <trkpt lat="37.025341987609863" lon="-2.951439013704658">
        <ele>1201.3</ele>
        <time>2025-05-12T11:25:32Z</time>
      </trkpt>
      <trkpt lat="37.025960991159081" lon="-2.950287004932761">
        <ele>1193.1300000000001</ele>
        <time>2025-05-12T11:25:43Z</time>
      </trkpt>
      <trkpt lat="37.02600197866559" lon="-2.950161024928093">
        <ele>1192.6500000000001</ele>
        <time>2025-05-12T11:25:44Z</time>
      </trkpt>
      <trkpt lat="37.026031985878944" lon="-2.950017023831606">
        <ele>1191.6900000000001</ele>
        <time>2025-05-12T11:25:45Z</time>
      </trkpt>
      <trkpt lat="37.026252010837197" lon="-2.948989989235997">
        <ele>1188.8099999999999</ele>
        <time>2025-05-12T11:25:51Z</time>
      </trkpt>
      <trkpt lat="37.026308001950383" lon="-2.948821010068059">
        <ele>1189.29</ele>
        <time>2025-05-12T11:25:52Z</time>
      </trkpt>
      <trkpt lat="37.026403974741697" lon="-2.948702992871404">
        <ele>1189.77</ele>
        <time>2025-05-12T11:25:53Z</time>
      </trkpt>
      <trkpt lat="37.026508999988437" lon="-2.948573995381594">
        <ele>1190.25</ele>
        <time>2025-05-12T11:25:54Z</time>
      </trkpt>
      <trkpt lat="37.026610001921654" lon="-2.948434017598629">
        <ele>1190.73</ele>
        <time>2025-05-12T11:25:55Z</time>
      </trkpt>
      <trkpt lat="37.026693988591433" lon="-2.948271995410323">
        <ele>1191.6900000000001</ele>
        <time>2025-05-12T11:25:56Z</time>
      </trkpt>
      <trkpt lat="37.026777975261211" lon="-2.948108967393637">
        <ele>1192.6500000000001</ele>
        <time>2025-05-12T11:25:57Z</time>
      </trkpt>
      <trkpt lat="37.026865985244513" lon="-2.947940994054079">
        <ele>1193.6099999999999</ele>
        <time>2025-05-12T11:25:58Z</time>
      </trkpt>
      <trkpt lat="37.026981990784407" lon="-2.947824988514185">
        <ele>1194.5799999999999</ele>
        <time>2025-05-12T11:25:59Z</time>
      </trkpt>
      <trkpt lat="37.027106964960694" lon="-2.947718035429716">
        <ele>1195.0599999999999</ele>
        <time>2025-05-12T11:26:00Z</time>
      </trkpt>
      <trkpt lat="37.027241997420788" lon="-2.947632959112525">
        <ele>1196.02</ele>
        <time>2025-05-12T11:26:01Z</time>
      </trkpt>
      <trkpt lat="37.027670983225107" lon="-2.94740698300302">
        <ele>1196.98</ele>
        <time>2025-05-12T11:26:04Z</time>
      </trkpt>
      <trkpt lat="37.027836022898555" lon="-2.947373958304524">
        <ele>1196.98</ele>
        <time>2025-05-12T11:26:05Z</time>
      </trkpt>
      <trkpt lat="37.028003996238112" lon="-2.94734001159668">
        <ele>1196.5</ele>
        <time>2025-05-12T11:26:06Z</time>
      </trkpt>
      <trkpt lat="37.028538007289171" lon="-2.947301035746932">
        <ele>1194.5799999999999</ele>
        <time>2025-05-12T11:26:09Z</time>
      </trkpt>
      <trkpt lat="37.028861967846751" lon="-2.94727697968483">
        <ele>1192.6500000000001</ele>
        <time>2025-05-12T11:26:11Z</time>
      </trkpt>
      <trkpt lat="37.029004963114858" lon="-2.947332970798016">
        <ele>1191.6900000000001</ele>
        <time>2025-05-12T11:26:12Z</time>
      </trkpt>
      <trkpt lat="37.029291037470102" lon="-2.94746900908649">
        <ele>1189.29</ele>
        <time>2025-05-12T11:26:14Z</time>
      </trkpt>
      <trkpt lat="37.029472002759576" lon="-2.94746900908649">
        <ele>1187.8499999999999</ele>
        <time>2025-05-12T11:26:15Z</time>
      </trkpt>
      <trkpt lat="37.029634024947882" lon="-2.947451993823052">
        <ele>1186.4000000000001</ele>
        <time>2025-05-12T11:26:16Z</time>
      </trkpt>
      <trkpt lat="37.029797974973917" lon="-2.947389967739582">
        <ele>1185.4400000000001</ele>
        <time>2025-05-12T11:26:17Z</time>
      </trkpt>
      <trkpt lat="37.029966032132506" lon="-2.947326013818383">
        <ele>1184</ele>
        <time>2025-05-12T11:26:18Z</time>
      </trkpt>
      <trkpt lat="37.03029703348875" lon="-2.947199027985334">
        <ele>1182.0799999999999</ele>
        <time>2025-05-12T11:26:20Z</time>
      </trkpt>
      <trkpt lat="37.030460983514786" lon="-2.947137001901865">
        <ele>1181.1199999999999</ele>
        <time>2025-05-12T11:26:21Z</time>
      </trkpt>
      <trkpt lat="37.030627029016614" lon="-2.947072964161634">
        <ele>1180.1600000000001</ele>
        <time>2025-05-12T11:26:22Z</time>
      </trkpt>
      <trkpt lat="37.031102031469345" lon="-2.946844976395369">
        <ele>1176.3099999999999</ele>
        <time>2025-05-12T11:26:25Z</time>
      </trkpt>
      <trkpt lat="37.031249972060323" lon="-2.946754032745957">
        <ele>1175.3499999999999</ele>
        <time>2025-05-12T11:26:26Z</time>
      </trkpt>
      <trkpt lat="37.031375030055642" lon="-2.946628974750638">
        <ele>1173.9100000000001</ele>
        <time>2025-05-12T11:26:27Z</time>
      </trkpt>
      <trkpt lat="37.031482988968492" lon="-2.946493020281196">
        <ele>1172.95</ele>
        <time>2025-05-12T11:26:28Z</time>
      </trkpt>
      <trkpt lat="37.031560018658638" lon="-2.94633200392127">
        <ele>1171.5</ele>
        <time>2025-05-12T11:26:29Z</time>
      </trkpt>
      <trkpt lat="37.031632019206882" lon="-2.94617903418839">
        <ele>1170.0599999999999</ele>
        <time>2025-05-12T11:26:30Z</time>
      </trkpt>
      <trkpt lat="37.031717011705041" lon="-2.946063028648496">
        <ele>1168.6199999999999</ele>
        <time>2025-05-12T11:26:31Z</time>
      </trkpt>
      <trkpt lat="37.031817007809877" lon="-2.945991028100252">
        <ele>1167.1800000000001</ele>
        <time>2025-05-12T11:26:32Z</time>
      </trkpt>
      <trkpt lat="37.03191096894443" lon="-2.945922967046499">
        <ele>1165.74</ele>
        <time>2025-05-12T11:26:33Z</time>
      </trkpt>
      <trkpt lat="37.03199596144259" lon="-2.945862030610442">
        <ele>1164.29</ele>
        <time>2025-05-12T11:26:34Z</time>
      </trkpt>
      <trkpt lat="37.03205899335444" lon="-2.945817019790411">
        <ele>1163.3299999999999</ele>
        <time>2025-05-12T11:26:35Z</time>
      </trkpt>
      <trkpt lat="37.032067961990833" lon="-2.9457519762218">
        <ele>1161.8900000000001</ele>
        <time>2025-05-12T11:26:36Z</time>
      </trkpt>
      <trkpt lat="37.03207902610302" lon="-2.945663966238499">
        <ele>1160.9300000000001</ele>
        <time>2025-05-12T11:26:37Z</time>
      </trkpt>
      <trkpt lat="37.03203703276813" lon="-2.945537986233831">
        <ele>1159.97</ele>
        <time>2025-05-12T11:26:38Z</time>
      </trkpt>
      <trkpt lat="37.031924966722727" lon="-2.94547101482749">
        <ele>1159.01</ele>
        <time>2025-05-12T11:26:39Z</time>
      </trkpt>
      <trkpt lat="37.031808039173484" lon="-2.945462968200445">
        <ele>1158.05</ele>
        <time>2025-05-12T11:26:40Z</time>
      </trkpt>
      <trkpt lat="37.031666971743107" lon="-2.945452993735671">
        <ele>1157.5599999999999</ele>
        <time>2025-05-12T11:26:41Z</time>
      </trkpt>
      <trkpt lat="37.031518025323749" lon="-2.945442013442516">
        <ele>1157.5599999999999</ele>
        <time>2025-05-12T11:26:42Z</time>
      </trkpt>
      <trkpt lat="37.031364971771836" lon="-2.945431033149362">
        <ele>1157.5599999999999</ele>
        <time>2025-05-12T11:26:43Z</time>
      </trkpt>
      <trkpt lat="37.031204039230943" lon="-2.945474032312632">
        <ele>1157.5599999999999</ele>
        <time>2025-05-12T11:26:44Z</time>
      </trkpt>
      <trkpt lat="37.030528960749507" lon="-2.945602023974061">
        <ele>1159.49</ele>
        <time>2025-05-12T11:26:48Z</time>
      </trkpt>
      <trkpt lat="37.030365010723472" lon="-2.945602023974061">
        <ele>1160.45</ele>
        <time>2025-05-12T11:26:49Z</time>
      </trkpt>
      <trkpt lat="37.03019100241363" lon="-2.945576040074229">
        <ele>1161.4100000000001</ele>
        <time>2025-05-12T11:26:50Z</time>
      </trkpt>
      <trkpt lat="37.029477031901479" lon="-2.945325002074242">
        <ele>1165.74</ele>
        <time>2025-05-12T11:26:54Z</time>
      </trkpt>
      <trkpt lat="37.029297994449735" lon="-2.945331037044525">
        <ele>1166.7</ele>
        <time>2025-05-12T11:26:55Z</time>
      </trkpt>
      <trkpt lat="37.028975961729884" lon="-2.945341011509299">
        <ele>1169.0999999999999</ele>
        <time>2025-05-12T11:26:57Z</time>
      </trkpt>
      <trkpt lat="37.028833972290158" lon="-2.9453219845891">
        <ele>1170.0599999999999</ele>
        <time>2025-05-12T11:26:58Z</time>
      </trkpt>
      <trkpt lat="37.028718972578645" lon="-2.945226011797786">
        <ele>1171.02</ele>
        <time>2025-05-12T11:26:59Z</time>
      </trkpt>
      <trkpt lat="37.028319993987679" lon="-2.944905990734696">
        <ele>1175.3499999999999</ele>
        <time>2025-05-12T11:27:02Z</time>
      </trkpt>
      <trkpt lat="37.028183033689857" lon="-2.944854022935033">
        <ele>1176.3099999999999</ele>
        <time>2025-05-12T11:27:03Z</time>
      </trkpt>
      <trkpt lat="37.028074990957975" lon="-2.944884030148387">
        <ele>1177.75</ele>
        <time>2025-05-12T11:27:04Z</time>
      </trkpt>
      <trkpt lat="37.027960997074842" lon="-2.944931974634528">
        <ele>1178.71</ele>
        <time>2025-05-12T11:27:05Z</time>
      </trkpt>
      <trkpt lat="37.027836022898555" lon="-2.945030964910984">
        <ele>1179.6700000000001</ele>
        <time>2025-05-12T11:27:06Z</time>
      </trkpt>
      <trkpt lat="37.0276989787817" lon="-2.945140013471246">
        <ele>1180.6400000000001</ele>
        <time>2025-05-12T11:27:07Z</time>
      </trkpt>
      <trkpt lat="37.027405025437474" lon="-2.945373030379415">
        <ele>1182.5599999999999</ele>
        <time>2025-05-12T11:27:09Z</time>
      </trkpt>
      <trkpt lat="37.027247026562691" lon="-2.945420974865556">
        <ele>1183.52</ele>
        <time>2025-05-12T11:27:10Z</time>
      </trkpt>
      <trkpt lat="37.027102019637823" lon="-2.945416029542685">
        <ele>1184.48</ele>
        <time>2025-05-12T11:27:11Z</time>
      </trkpt>
      <trkpt lat="37.026930022984743" lon="-2.945344028994441">
        <ele>1184.96</ele>
        <time>2025-05-12T11:27:12Z</time>
      </trkpt>
      <trkpt lat="37.02681502327323" lon="-2.945260964334011">
        <ele>1185.4400000000001</ele>
        <time>2025-05-12T11:27:13Z</time>
      </trkpt>
      <trkpt lat="37.026658030226827" lon="-2.945147976279259">
        <ele>1184.96</ele>
        <time>2025-05-12T11:27:14Z</time>
      </trkpt>
      <trkpt lat="37.025641975924373" lon="-2.944268966093659">
        <ele>1182.5599999999999</ele>
        <time>2025-05-12T11:27:20Z</time>
      </trkpt>
      <trkpt lat="37.025451036170125" lon="-2.944165030494332">
        <ele>1181.5999999999999</ele>
        <time>2025-05-12T11:27:21Z</time>
      </trkpt>
      <trkpt lat="37.025255989283323" lon="-2.944094035774469">
        <ele>1181.1199999999999</ele>
        <time>2025-05-12T11:27:22Z</time>
      </trkpt>
      <trkpt lat="37.024913001805544" lon="-2.943950034677982">
        <ele>1179.6700000000001</ele>
        <time>2025-05-12T11:27:24Z</time>
      </trkpt>
      <trkpt lat="37.024771012365818" lon="-2.943807961419225">
        <ele>1179.1900000000001</ele>
        <time>2025-05-12T11:27:25Z</time>
      </trkpt>
      <trkpt lat="37.024632040411234" lon="-2.943665971979499">
        <ele>1178.23</ele>
        <time>2025-05-12T11:27:26Z</time>
      </trkpt>
      <trkpt lat="37.023348016664386" lon="-2.942384965717793">
        <ele>1172.47</ele>
        <time>2025-05-12T11:27:34Z</time>
      </trkpt>
      <trkpt lat="37.022196007892489" lon="-2.941515007987618">
        <ele>1170.0599999999999</ele>
        <time>2025-05-12T11:27:41Z</time>
      </trkpt>
      <trkpt lat="37.022041026502848" lon="-2.941458011046052">
        <ele>1169.5799999999999</ele>
        <time>2025-05-12T11:27:42Z</time>
      </trkpt>
      <trkpt lat="37.021597037091851" lon="-2.941292971372604">
        <ele>1169.0999999999999</ele>
        <time>2025-05-12T11:27:45Z</time>
      </trkpt>
      <trkpt lat="37.021448006853461" lon="-2.94119599275291">
        <ele>1169.0999999999999</ele>
        <time>2025-05-12T11:27:46Z</time>
      </trkpt>
      <trkpt lat="37.020825985819101" lon="-2.940804976969957">
        <ele>1169.0999999999999</ele>
        <time>2025-05-12T11:27:50Z</time>
      </trkpt>
      <trkpt lat="37.020669998601079" lon="-2.940730964764953">
        <ele>1169.0999999999999</ele>
        <time>2025-05-12T11:27:51Z</time>
      </trkpt>
      <trkpt lat="37.020502025261521" lon="-2.940675979480147">
        <ele>1169.0999999999999</ele>
        <time>2025-05-12T11:27:52Z</time>
      </trkpt>
      <trkpt lat="37.020323993638158" lon="-2.940645972266793">
        <ele>1168.6199999999999</ele>
        <time>2025-05-12T11:27:53Z</time>
      </trkpt>
      <trkpt lat="37.02013598755002" lon="-2.94065703637898">
        <ele>1168.6199999999999</ele>
        <time>2025-05-12T11:27:54Z</time>
      </trkpt>
      <trkpt lat="37.019943036139011" lon="-2.940669022500515">
        <ele>1168.1400000000001</ele>
        <time>2025-05-12T11:27:55Z</time>
      </trkpt>
      <trkpt lat="37.019085986539721" lon="-2.940644966438413">
        <ele>1163.8099999999999</ele>
        <time>2025-05-12T11:28:00Z</time>
      </trkpt>
      <trkpt lat="37.018965035676956" lon="-2.940571960061789">
        <ele>1163.3299999999999</ele>
        <time>2025-05-12T11:28:01Z</time>
      </trkpt>
      <trkpt lat="37.018841989338398" lon="-2.940438017249107">
        <ele>1163.3299999999999</ele>
        <time>2025-05-12T11:28:02Z</time>
      </trkpt>
      <trkpt lat="37.017764998599887" lon="-2.939368989318609">
        <ele>1163.3299999999999</ele>
        <time>2025-05-12T11:28:09Z</time>
      </trkpt>
      <trkpt lat="37.016845000907779" lon="-2.938400963321328">
        <ele>1159.01</ele>
        <time>2025-05-12T11:28:15Z</time>
      </trkpt>
      <trkpt lat="37.016429007053375" lon="-2.937956973910332">
        <ele>1156.1199999999999</ele>
        <time>2025-05-12T11:28:18Z</time>
      </trkpt>
      <trkpt lat="37.016266984865069" lon="-2.937874998897314">
        <ele>1154.6800000000001</ele>
        <time>2025-05-12T11:28:19Z</time>
      </trkpt>
      <trkpt lat="37.016090964898467" lon="-2.937824036926031">
        <ele>1153.72</ele>
        <time>2025-05-12T11:28:20Z</time>
      </trkpt>
      <trkpt lat="37.01590396463871" lon="-2.937831999734044">
        <ele>1152.28</ele>
        <time>2025-05-12T11:28:21Z</time>
      </trkpt>
      <trkpt lat="37.015707995742559" lon="-2.937858989462256">
        <ele>1151.8</ele>
        <time>2025-05-12T11:28:22Z</time>
      </trkpt>
      <trkpt lat="37.015500962734222" lon="-2.937885979190469">
        <ele>1150.8399999999999</ele>
        <time>2025-05-12T11:28:23Z</time>
      </trkpt>
      <trkpt lat="37.013138020411134" lon="-2.938327034935355">
        <ele>1157.0799999999999</ele>
        <time>2025-05-12T11:28:34Z</time>
      </trkpt>
      <trkpt lat="37.012974992394447" lon="-2.938328040763736">
        <ele>1158.53</ele>
        <time>2025-05-12T11:28:35Z</time>
      </trkpt>
      <trkpt lat="37.012840965762734" lon="-2.938291998580098">
        <ele>1159.97</ele>
        <time>2025-05-12T11:28:36Z</time>
      </trkpt>
      <trkpt lat="37.012720014899969" lon="-2.938214968889952">
        <ele>1161.4100000000001</ele>
        <time>2025-05-12T11:28:37Z</time>
      </trkpt>
      <trkpt lat="37.012626975774765" lon="-2.938098041340709">
        <ele>1162.3699999999999</ele>
        <time>2025-05-12T11:28:38Z</time>
      </trkpt>
      <trkpt lat="37.01255002990365" lon="-2.937920009717345">
        <ele>1163.3299999999999</ele>
        <time>2025-05-12T11:28:39Z</time>
      </trkpt>
      <trkpt lat="37.012484986335039" lon="-2.937717000022531">
        <ele>1164.29</ele>
        <time>2025-05-12T11:28:40Z</time>
      </trkpt>
      <trkpt lat="37.012422038242221" lon="-2.937499992549419">
        <ele>1165.26</ele>
        <time>2025-05-12T11:28:41Z</time>
      </trkpt>
      <trkpt lat="37.0123799610883" lon="-2.937282985076308">
        <ele>1166.22</ele>
        <time>2025-05-12T11:28:42Z</time>
      </trkpt>
      <trkpt lat="37.012376021593809" lon="-2.937036976218224">
        <ele>1166.7</ele>
        <time>2025-05-12T11:28:43Z</time>
      </trkpt>
      <trkpt lat="37.012361017987132" lon="-2.935134032741189">
        <ele>1173.9100000000001</ele>
        <time>2025-05-12T11:28:50Z</time>
      </trkpt>
      <trkpt lat="37.012342996895313" lon="-2.934919958934188">
        <ele>1174.8699999999999</ele>
        <time>2025-05-12T11:28:51Z</time>
      </trkpt>
      <trkpt lat="37.012304021045566" lon="-2.934738993644714">
        <ele>1175.8299999999999</ele>
        <time>2025-05-12T11:28:52Z</time>
      </trkpt>
      <trkpt lat="37.012226991355419" lon="-2.934590969234705">
        <ele>1176.3099999999999</ele>
        <time>2025-05-12T11:28:53Z</time>
      </trkpt>
      <trkpt lat="37.012112997472286" lon="-2.934454008936882">
        <ele>1177.75</ele>
        <time>2025-05-12T11:28:54Z</time>
      </trkpt>
      <trkpt lat="37.011974025517702" lon="-2.934315036982298">
        <ele>1178.23</ele>
        <time>2025-05-12T11:28:55Z</time>
      </trkpt>
      <trkpt lat="37.011827006936073" lon="-2.934156032279134">
        <ele>1179.1900000000001</ele>
        <time>2025-05-12T11:28:56Z</time>
      </trkpt>
      <trkpt lat="37.011389974504709" lon="-2.933736015111208">
        <ele>1182.0799999999999</ele>
        <time>2025-05-12T11:28:59Z</time>
      </trkpt>
      <trkpt lat="37.011260977014899" lon="-2.93357097543776">
        <ele>1183.04</ele>
        <time>2025-05-12T11:29:00Z</time>
      </trkpt>
      <trkpt lat="37.01113298535347" lon="-2.933384981006384">
        <ele>1184</ele>
        <time>2025-05-12T11:29:01Z</time>
      </trkpt>
      <trkpt lat="37.010877002030611" lon="-2.932991031557322">
        <ele>1185.4400000000001</ele>
        <time>2025-05-12T11:29:03Z</time>
      </trkpt>
      <trkpt lat="37.010784968733788" lon="-2.932768994942308">
        <ele>1186.4000000000001</ele>
        <time>2025-05-12T11:29:04Z</time>
      </trkpt>
      <trkpt lat="37.010537032037973" lon="-2.932169018313289">
        <ele>1188.8099999999999</ele>
        <time>2025-05-12T11:29:07Z</time>
      </trkpt>
      <trkpt lat="37.010505013167858" lon="-2.931966008618474">
        <ele>1189.77</ele>
        <time>2025-05-12T11:29:08Z</time>
      </trkpt>
      <trkpt lat="37.010471988469362" lon="-2.931761993095279">
        <ele>1190.73</ele>
        <time>2025-05-12T11:29:09Z</time>
      </trkpt>
      <trkpt lat="37.010419014841318" lon="-2.930611995980144">
        <ele>1193.1300000000001</ele>
        <time>2025-05-12T11:29:15Z</time>
      </trkpt>
      <trkpt lat="37.010369980707765" lon="-2.930494984611869">
        <ele>1192.6500000000001</ele>
        <time>2025-05-12T11:29:16Z</time>
      </trkpt>
      <trkpt lat="37.010285994037986" lon="-2.930417032912374">
        <ele>1192.1700000000001</ele>
        <time>2025-05-12T11:29:17Z</time>
      </trkpt>
      <trkpt lat="37.010198989883065" lon="-2.930421978235245">
        <ele>1191.6900000000001</ele>
        <time>2025-05-12T11:29:18Z</time>
      </trkpt>
      <trkpt lat="37.010133024305105" lon="-2.930476041510701">
        <ele>1190.73</ele>
        <time>2025-05-12T11:29:19Z</time>
      </trkpt>
      <trkpt lat="37.010089019313455" lon="-2.930586012080312">
        <ele>1190.25</ele>
        <time>2025-05-12T11:29:20Z</time>
      </trkpt>
      <trkpt lat="37.010051971301436" lon="-2.930716015398502">
        <ele>1189.29</ele>
        <time>2025-05-12T11:29:21Z</time>
      </trkpt>
      <trkpt lat="37.010024981573224" lon="-2.930864039808512">
        <ele>1188.3299999999999</ele>
        <time>2025-05-12T11:29:22Z</time>
      </trkpt>
      <trkpt lat="37.00999497435987" lon="-2.931028995662928">
        <ele>1187.3699999999999</ele>
        <time>2025-05-12T11:29:23Z</time>
      </trkpt>
      <trkpt lat="37.009926997125149" lon="-2.931168973445892">
        <ele>1186.4000000000001</ele>
        <time>2025-05-12T11:29:24Z</time>
      </trkpt>
      <trkpt lat="37.009820966050029" lon="-2.931276010349393">
        <ele>1185.4400000000001</ele>
        <time>2025-05-12T11:29:25Z</time>
      </trkpt>
      <trkpt lat="37.009701021015644" lon="-2.931342981755734">
        <ele>1184.48</ele>
        <time>2025-05-12T11:29:26Z</time>
      </trkpt>
      <trkpt lat="37.009575041010976" lon="-2.931370977312326">
        <ele>1183.52</ele>
        <time>2025-05-12T11:29:27Z</time>
      </trkpt>
      <trkpt lat="37.009442020207644" lon="-2.931353962048888">
        <ele>1182.5599999999999</ele>
        <time>2025-05-12T11:29:28Z</time>
      </trkpt>
      <trkpt lat="37.009321991354227" lon="-2.931285984814167">
        <ele>1181.5999999999999</ele>
        <time>2025-05-12T11:29:29Z</time>
      </trkpt>
      <trkpt lat="37.009231969714165" lon="-2.931178025901318">
        <ele>1181.5999999999999</ele>
        <time>2025-05-12T11:29:30Z</time>
      </trkpt>
      <trkpt lat="37.009133985266089" lon="-2.931032013148069">
        <ele>1181.1199999999999</ele>
        <time>2025-05-12T11:29:31Z</time>
      </trkpt>
      <trkpt lat="37.009041029959917" lon="-2.930874014273286">
        <ele>1181.1199999999999</ele>
        <time>2025-05-12T11:29:32Z</time>
      </trkpt>
      <trkpt lat="37.008605003356934" lon="-2.93023799546063">
        <ele>1180.6400000000001</ele>
        <time>2025-05-12T11:29:36Z</time>
      </trkpt>
      <trkpt lat="37.00767301954329" lon="-2.929561994969845">
        <ele>1177.75</ele>
        <time>2025-05-12T11:29:42Z</time>
      </trkpt>
      <trkpt lat="37.007485013455153" lon="-2.929510027170181">
        <ele>1176.3099999999999</ele>
        <time>2025-05-12T11:29:43Z</time>
      </trkpt>
      <trkpt lat="37.007294995710254" lon="-2.929481025785208">
        <ele>1174.8699999999999</ele>
        <time>2025-05-12T11:29:44Z</time>
      </trkpt>
      <trkpt lat="37.006947984918952" lon="-2.929492006078363">
        <ele>1172.47</ele>
        <time>2025-05-12T11:29:46Z</time>
      </trkpt>
      <trkpt lat="37.006803983822465" lon="-2.929554032161832">
        <ele>1171.5</ele>
        <time>2025-05-12T11:29:47Z</time>
      </trkpt>
      <trkpt lat="37.006675992161036" lon="-2.929647993296385">
        <ele>1170.0599999999999</ele>
        <time>2025-05-12T11:29:48Z</time>
      </trkpt>
      <trkpt lat="37.006398970261216" lon="-2.929896013811231">
        <ele>1167.6600000000001</ele>
        <time>2025-05-12T11:29:50Z</time>
      </trkpt>
      <trkpt lat="37.006230996921659" lon="-2.929999027401209">
        <ele>1166.7</ele>
        <time>2025-05-12T11:29:51Z</time>
      </trkpt>
      <trkpt lat="37.006051959469914" lon="-2.930087959393859">
        <ele>1165.26</ele>
        <time>2025-05-12T11:29:52Z</time>
      </trkpt>
      <trkpt lat="37.00571802444756" lon="-2.930255010724068">
        <ele>1162.3699999999999</ele>
        <time>2025-05-12T11:29:54Z</time>
      </trkpt>
      <trkpt lat="37.005581986159086" lon="-2.930360035970807">
        <ele>1160.45</ele>
        <time>2025-05-12T11:29:55Z</time>
      </trkpt>
      <trkpt lat="37.00550302863121" lon="-2.930498002097011">
        <ele>1158.53</ele>
        <time>2025-05-12T11:29:56Z</time>
      </trkpt>
      <trkpt lat="37.005455000326037" lon="-2.930663963779807">
        <ele>1157.0799999999999</ele>
        <time>2025-05-12T11:29:57Z</time>
      </trkpt>
      <trkpt lat="37.005433961749077" lon="-2.930849958211184">
        <ele>1155.1600000000001</ele>
        <time>2025-05-12T11:29:58Z</time>
      </trkpt>
      <trkpt lat="37.005442008376122" lon="-2.931056991219521">
        <ele>1153.72</ele>
        <time>2025-05-12T11:29:59Z</time>
      </trkpt>
      <trkpt lat="37.005452988669276" lon="-2.931276010349393">
        <ele>1152.28</ele>
        <time>2025-05-12T11:30:00Z</time>
      </trkpt>
      <trkpt lat="37.005500011146069" lon="-2.931498968973756">
        <ele>1151.3199999999999</ele>
        <time>2025-05-12T11:30:01Z</time>
      </trkpt>
      <trkpt lat="37.005554996430874" lon="-2.931733997538686">
        <ele>1150.3499999999999</ele>
        <time>2025-05-12T11:30:02Z</time>
      </trkpt>
      <trkpt lat="37.005629008635879" lon="-2.931971959769726">
        <ele>1149.3900000000001</ele>
        <time>2025-05-12T11:30:03Z</time>
      </trkpt>
      <trkpt lat="37.005792036652565" lon="-2.932425001636148">
        <ele>1147.95</ele>
        <time>2025-05-12T11:30:05Z</time>
      </trkpt>
      <trkpt lat="37.005914999172091" lon="-2.932612001895905">
        <ele>1146.51</ele>
        <time>2025-05-12T11:30:06Z</time>
      </trkpt>
      <trkpt lat="37.006045002490282" lon="-2.932811994105578">
        <ele>1145.55</ele>
        <time>2025-05-12T11:30:07Z</time>
      </trkpt>
      <trkpt lat="37.006496032699943" lon="-2.933346005156636">
        <ele>1140.74</ele>
        <time>2025-05-12T11:30:10Z</time>
      </trkpt>
      <trkpt lat="37.006660988554358" lon="-2.933428985998035">
        <ele>1139.3</ele>
        <time>2025-05-12T11:30:11Z</time>
      </trkpt>
      <trkpt lat="37.006816975772381" lon="-2.933507021516562">
        <ele>1137.8599999999999</ele>
        <time>2025-05-12T11:30:12Z</time>
      </trkpt>
      <trkpt lat="37.00709299184382" lon="-2.933644987642765">
        <ele>1135.45</ele>
        <time>2025-05-12T11:30:14Z</time>
      </trkpt>
      <trkpt lat="37.007145965471864" lon="-2.933671977370977">
        <ele>1134.49</ele>
        <time>2025-05-12T11:30:15Z</time>
      </trkpt>
      <trkpt lat="37.007186030969024" lon="-2.933817990124226">
        <ele>1133.05</ele>
        <time>2025-05-12T11:30:16Z</time>
      </trkpt>
      <trkpt lat="37.007211009040475" lon="-2.933908011764288">
        <ele>1132.0899999999999</ele>
        <time>2025-05-12T11:30:17Z</time>
      </trkpt>
      <trkpt lat="37.007190976291895" lon="-2.933981018140912">
        <ele>1130.6500000000001</ele>
        <time>2025-05-12T11:30:18Z</time>
      </trkpt>
      <trkpt lat="37.007159041240811" lon="-2.934097023680806">
        <ele>1129.21</ele>
        <time>2025-05-12T11:30:19Z</time>
      </trkpt>
      <trkpt lat="37.007095003500581" lon="-2.934184027835727">
        <ele>1128.24</ele>
        <time>2025-05-12T11:30:20Z</time>
      </trkpt>
      <trkpt lat="37.00698503293097" lon="-2.934238007292152">
        <ele>1126.8</ele>
        <time>2025-05-12T11:30:21Z</time>
      </trkpt>
      <trkpt lat="37.006862992420793" lon="-2.93423498980701">
        <ele>1125.8399999999999</ele>
        <time>2025-05-12T11:30:22Z</time>
      </trkpt>
      <trkpt lat="37.006741035729647" lon="-2.934171035885811">
        <ele>1124.4000000000001</ele>
        <time>2025-05-12T11:30:23Z</time>
      </trkpt>
      <trkpt lat="37.00662000104785" lon="-2.934081014245749">
        <ele>1122.96</ele>
        <time>2025-05-12T11:30:24Z</time>
      </trkpt>
      <trkpt lat="37.006512964144349" lon="-2.933945981785655">
        <ele>1122</ele>
        <time>2025-05-12T11:30:25Z</time>
      </trkpt>
      <trkpt lat="37.006266033276916" lon="-2.933717994019389">
        <ele>1120.55</ele>
        <time>2025-05-12T11:30:27Z</time>
      </trkpt>
      <trkpt lat="37.006109040230513" lon="-2.93365596793592">
        <ele>1119.5899999999999</ele>
        <time>2025-05-12T11:30:28Z</time>
      </trkpt>
      <trkpt lat="37.005940983071923" lon="-2.933587990701199">
        <ele>1119.1099999999999</ele>
        <time>2025-05-12T11:30:29Z</time>
      </trkpt>
      <trkpt lat="37.005212008953094" lon="-2.933364026248455">
        <ele>1114.3099999999999</ele>
        <time>2025-05-12T11:30:33Z</time>
      </trkpt>
      <trkpt lat="37.005040012300014" lon="-2.93326897546649">
        <ele>1113.3399999999999</ele>
        <time>2025-05-12T11:30:34Z</time>
      </trkpt>
      <trkpt lat="37.004877990111709" lon="-2.933136960491538">
        <ele>1112.3800000000001</ele>
        <time>2025-05-12T11:30:35Z</time>
      </trkpt>
      <trkpt lat="37.004722002893686" lon="-2.933002011850476">
        <ele>1110.9400000000001</ele>
        <time>2025-05-12T11:30:36Z</time>
      </trkpt>
      <trkpt lat="37.004585964605212" lon="-2.932835966348648">
        <ele>1109.5</ele>
        <time>2025-05-12T11:30:37Z</time>
      </trkpt>
      <trkpt lat="37.004467025399208" lon="-2.93266698718071">
        <ele>1108.54</ele>
        <time>2025-05-12T11:30:38Z</time>
      </trkpt>
      <trkpt lat="37.004385972395539" lon="-2.93247202411294">
        <ele>1107.5799999999999</ele>
        <time>2025-05-12T11:30:39Z</time>
      </trkpt>
      <trkpt lat="37.004323024302721" lon="-2.932246970012784">
        <ele>1107.0999999999999</ele>
        <time>2025-05-12T11:30:40Z</time>
      </trkpt>
      <trkpt lat="37.004255969077349" lon="-2.932009007781744">
        <ele>1106.1300000000001</ele>
        <time>2025-05-12T11:30:41Z</time>
      </trkpt>
      <trkpt lat="37.003764035180211" lon="-2.930021993815899">
        <ele>1097</ele>
        <time>2025-05-12T11:30:49Z</time>
      </trkpt>
      <trkpt lat="37.003588015213609" lon="-2.929428974166513">
        <ele>1094.1199999999999</ele>
        <time>2025-05-12T11:30:52Z</time>
      </trkpt>
      <trkpt lat="37.003528000786901" lon="-2.929253960028291">
        <ele>1093.1600000000001</ele>
        <time>2025-05-12T11:30:53Z</time>
      </trkpt>
      <trkpt lat="37.003430016338825" lon="-2.929124962538481">
        <ele>1092.2</ele>
        <time>2025-05-12T11:30:54Z</time>
      </trkpt>
      <trkpt lat="37.003296995535493" lon="-2.929042987525463">
        <ele>1091.23</ele>
        <time>2025-05-12T11:30:55Z</time>
      </trkpt>
      <trkpt lat="37.003134973347187" lon="-2.92901499196887">
        <ele>1089.79</ele>
        <time>2025-05-12T11:30:56Z</time>
      </trkpt>
      <trkpt lat="37.002950990572572" lon="-2.929041981697083">
        <ele>1088.8299999999999</ele>
        <time>2025-05-12T11:30:57Z</time>
      </trkpt>
      <trkpt lat="37.002771031111479" lon="-2.929138038307428">
        <ele>1087.3900000000001</ele>
        <time>2025-05-12T11:30:58Z</time>
      </trkpt>
      <trkpt lat="37.002600962296128" lon="-2.929279021918774">
        <ele>1085.95</ele>
        <time>2025-05-12T11:30:59Z</time>
      </trkpt>
      <trkpt lat="37.002417985349894" lon="-2.929430985823274">
        <ele>1084.5</ele>
        <time>2025-05-12T11:31:00Z</time>
      </trkpt>
      <trkpt lat="37.001668978482485" lon="-2.929964996874332">
        <ele>1079.22</ele>
        <time>2025-05-12T11:31:04Z</time>
      </trkpt>
      <trkpt lat="37.001482984051108" lon="-2.930061975494027">
        <ele>1077.78</ele>
        <time>2025-05-12T11:31:05Z</time>
      </trkpt>
      <trkpt lat="37.001273017376661" lon="-2.930118972435594">
        <ele>1076.3299999999999</ele>
        <time>2025-05-12T11:31:06Z</time>
      </trkpt>
      <trkpt lat="37.001058021560311" lon="-2.93017496354878">
        <ele>1074.8900000000001</ele>
        <time>2025-05-12T11:31:07Z</time>
      </trkpt>
      <trkpt lat="37.000830033794045" lon="-2.930190972983837">
        <ele>1073.9300000000001</ele>
        <time>2025-05-12T11:31:08Z</time>
      </trkpt>
      <trkpt lat="37.000600034371018" lon="-2.930207988247275">
        <ele>1072.49</ele>
        <time>2025-05-12T11:31:09Z</time>
      </trkpt>
      <trkpt lat="36.999783972278237" lon="-2.930184016004205">
        <ele>1067.6800000000001</ele>
        <time>2025-05-12T11:31:13Z</time>
      </trkpt>
      <trkpt lat="36.99967903085053" lon="-2.9301100037992">
        <ele>1066.72</ele>
        <time>2025-05-12T11:31:14Z</time>
      </trkpt>
      <trkpt lat="36.999569982290268" lon="-2.929972959682345">
        <ele>1066.24</ele>
        <time>2025-05-12T11:31:15Z</time>
      </trkpt>
      <trkpt lat="36.999369990080595" lon="-2.929657967761159">
        <ele>1064.3199999999999</ele>
        <time>2025-05-12T11:31:17Z</time>
      </trkpt>
      <trkpt lat="36.999289020895958" lon="-2.929456969723105">
        <ele>1063.3599999999999</ele>
        <time>2025-05-12T11:31:18Z</time>
      </trkpt>
      <trkpt lat="36.999247027561069" lon="-2.929239040240645">
        <ele>1062.3900000000001</ele>
        <time>2025-05-12T11:31:19Z</time>
      </trkpt>
      <trkpt lat="36.999239986762404" lon="-2.928985990583897">
        <ele>1061.4300000000001</ele>
        <time>2025-05-12T11:31:20Z</time>
      </trkpt>
      <trkpt lat="36.999232023954391" lon="-2.928731013089418">
        <ele>1060.47</ele>
        <time>2025-05-12T11:31:21Z</time>
      </trkpt>
      <trkpt lat="36.999191958457232" lon="-2.928485004231334">
        <ele>1059.51</ele>
        <time>2025-05-12T11:31:22Z</time>
      </trkpt>
      <trkpt lat="36.999109983444214" lon="-2.928288029506803">
        <ele>1058.55</ele>
        <time>2025-05-12T11:31:23Z</time>
      </trkpt>
      <trkpt lat="36.99901501648128" lon="-2.92811100371182">
        <ele>1057.1099999999999</ele>
        <time>2025-05-12T11:31:24Z</time>
      </trkpt>
      <trkpt lat="36.998893981799483" lon="-2.927955016493797">
        <ele>1056.1500000000001</ele>
        <time>2025-05-12T11:31:25Z</time>
      </trkpt>
      <trkpt lat="36.998745035380125" lon="-2.927814032882452">
        <ele>1054.7</ele>
        <time>2025-05-12T11:31:26Z</time>
      </trkpt>
      <trkpt lat="36.998602962121367" lon="-2.927680006250739">
        <ele>1053.26</ele>
        <time>2025-05-12T11:31:27Z</time>
      </trkpt>
      <trkpt lat="36.998505983501673" lon="-2.927518989890814">
        <ele>1051.8199999999999</ele>
        <time>2025-05-12T11:31:28Z</time>
      </trkpt>
      <trkpt lat="36.998429959639907" lon="-2.927355961874127">
        <ele>1050.8599999999999</ele>
        <time>2025-05-12T11:31:29Z</time>
      </trkpt>
      <trkpt lat="36.9984130281955" lon="-2.927194023504853">
        <ele>1049.4200000000001</ele>
        <time>2025-05-12T11:31:30Z</time>
      </trkpt>
      <trkpt lat="36.998428031802177" lon="-2.92703895829618">
        <ele>1047.97</ele>
        <time>2025-05-12T11:31:31Z</time>
      </trkpt>
      <trkpt lat="36.998484022915363" lon="-2.926869979128242">
        <ele>1047.01</ele>
        <time>2025-05-12T11:31:32Z</time>
      </trkpt>
      <trkpt lat="36.99854495935142" lon="-2.926689013838768">
        <ele>1046.05</ele>
        <time>2025-05-12T11:31:33Z</time>
      </trkpt>
      <trkpt lat="36.998745035380125" lon="-2.926087025552988">
        <ele>1042.21</ele>
        <time>2025-05-12T11:31:36Z</time>
      </trkpt>
      <trkpt lat="36.998777976259589" lon="-2.925897007808089">
        <ele>1041.25</ele>
        <time>2025-05-12T11:31:37Z</time>
      </trkpt>
      <trkpt lat="36.998772025108337" lon="-2.925699027255178">
        <ele>1040.28</ele>
        <time>2025-05-12T11:31:38Z</time>
      </trkpt>
      <trkpt lat="36.998732965439558" lon="-2.925491994246841">
        <ele>1039.8</ele>
        <time>2025-05-12T11:31:39Z</time>
      </trkpt>
      <trkpt lat="36.998702958226204" lon="-2.925270041450858">
        <ele>1039.3199999999999</ele>
        <time>2025-05-12T11:31:40Z</time>
      </trkpt>
      <trkpt lat="36.998680997639894" lon="-2.925036018714309">
        <ele>1038.3599999999999</ele>
        <time>2025-05-12T11:31:41Z</time>
      </trkpt>
      <trkpt lat="36.998665994033217" lon="-2.924795038998127">
        <ele>1037.8800000000001</ele>
        <time>2025-05-12T11:31:42Z</time>
      </trkpt>
      <trkpt lat="36.998574966564775" lon="-2.923692986369133">
        <ele>1033.0699999999999</ele>
        <time>2025-05-12T11:31:47Z</time>
      </trkpt>
      <trkpt lat="36.99854202568531" lon="-2.923586033284664">
        <ele>1031.6300000000001</ele>
        <time>2025-05-12T11:31:48Z</time>
      </trkpt>
      <trkpt lat="36.998426020145416" lon="-2.923503974452615">
        <ele>1030.6700000000001</ele>
        <time>2025-05-12T11:31:49Z</time>
      </trkpt>
      <trkpt lat="36.998337004333735" lon="-2.923478996381164">
        <ele>1029.23</ele>
        <time>2025-05-12T11:31:50Z</time>
      </trkpt>
      <trkpt lat="36.998236002400517" lon="-2.923516966402531">
        <ele>1027.79</ele>
        <time>2025-05-12T11:31:51Z</time>
      </trkpt>
      <trkpt lat="36.99815503321588" lon="-2.923630960285664">
        <ele>1026.3399999999999</ele>
        <time>2025-05-12T11:31:52Z</time>
      </trkpt>
      <trkpt lat="36.998123014345765" lon="-2.923783008009195">
        <ele>1024.9000000000001</ele>
        <time>2025-05-12T11:31:53Z</time>
      </trkpt>
      <trkpt lat="36.998085966333747" lon="-2.923957016319037">
        <ele>1023.46</ele>
        <time>2025-05-12T11:31:54Z</time>
      </trkpt>
      <trkpt lat="36.99804900214076" lon="-2.924152985215187">
        <ele>1022.5</ele>
        <time>2025-05-12T11:31:55Z</time>
      </trkpt>
      <trkpt lat="36.997915981337428" lon="-2.92480300180614">
        <ele>1018.65</ele>
        <time>2025-05-12T11:31:58Z</time>
      </trkpt>
      <trkpt lat="36.997854961082339" lon="-2.925002994015813">
        <ele>1017.21</ele>
        <time>2025-05-12T11:31:59Z</time>
      </trkpt>
      <trkpt lat="36.997741973027587" lon="-2.925171973183751">
        <ele>1015.77</ele>
        <time>2025-05-12T11:32:00Z</time>
      </trkpt>
      <trkpt lat="36.99764097109437" lon="-2.925324020907283">
        <ele>1014.8099999999999</ele>
        <time>2025-05-12T11:32:01Z</time>
      </trkpt>
      <trkpt lat="36.997500993311405" lon="-2.925376994535327">
        <ele>1013.85</ele>
        <time>2025-05-12T11:32:02Z</time>
      </trkpt>
      <trkpt lat="36.997351041063666" lon="-2.92540499009192">
        <ele>1012.41</ele>
        <time>2025-05-12T11:32:03Z</time>
      </trkpt>
      <trkpt lat="36.997192958369851" lon="-2.925426028668881">
        <ele>1011.4400000000001</ele>
        <time>2025-05-12T11:32:04Z</time>
      </trkpt>
      <trkpt lat="36.996066011488438" lon="-2.925477996468544">
        <ele>1002.79</ele>
        <time>2025-05-12T11:32:11Z</time>
      </trkpt>
      <trkpt lat="36.995915975421667" lon="-2.925441032275558">
        <ele>1001.35</ele>
        <time>2025-05-12T11:32:12Z</time>
      </trkpt>
      <trkpt lat="36.995774991810322" lon="-2.925389986485243">
        <ele>999.90999999999997</ele>
        <time>2025-05-12T11:32:13Z</time>
      </trkpt>
      <trkpt lat="36.995657980442047" lon="-2.925272975116968">
        <ele>998.47000000000003</ele>
        <time>2025-05-12T11:32:14Z</time>
      </trkpt>
      <trkpt lat="36.995562007650733" lon="-2.925123022869229">
        <ele>997.50999999999999</ele>
        <time>2025-05-12T11:32:15Z</time>
      </trkpt>
      <trkpt lat="36.995467962697148" lon="-2.924943985417485">
        <ele>996.05999999999995</ele>
        <time>2025-05-12T11:32:16Z</time>
      </trkpt>
      <trkpt lat="36.995380036532879" lon="-2.924741981551051">
        <ele>995.10000000000002</ele>
        <time>2025-05-12T11:32:17Z</time>
      </trkpt>
      <trkpt lat="36.995294038206339" lon="-2.924517011269927">
        <ele>993.65999999999997</ele>
        <time>2025-05-12T11:32:18Z</time>
      </trkpt>
      <trkpt lat="36.994758015498519" lon="-2.922551035881043">
        <ele>983.57000000000005</ele>
        <time>2025-05-12T11:32:25Z</time>
      </trkpt>
      <trkpt lat="36.994343027472496" lon="-2.91969096288085">
        <ele>969.63</ele>
        <time>2025-05-12T11:32:34Z</time>
      </trkpt>
      <trkpt lat="36.994263986125588" lon="-2.917678970843554">
        <ele>960.98000000000002</ele>
        <time>2025-05-12T11:32:41Z</time>
      </trkpt>
      <trkpt lat="36.994345039129257" lon="-2.915180996060371">
        <ele>955.21000000000004</ele>
        <time>2025-05-12T11:32:49Z</time>
      </trkpt>
      <trkpt lat="36.994403041899204" lon="-2.914038961753249">
        <ele>953.27999999999997</ele>
        <time>2025-05-12T11:32:53Z</time>
      </trkpt>
      <trkpt lat="36.994668999686837" lon="-2.912169964984059">
        <ele>952.32000000000005</ele>
        <time>2025-05-12T11:33:00Z</time>
      </trkpt>
      <trkpt lat="36.994678974151611" lon="-2.911938037723303">
        <ele>952.32000000000005</ele>
        <time>2025-05-12T11:33:01Z</time>
      </trkpt>
      <trkpt lat="36.994685009121895" lon="-2.911204034462571">
        <ele>951.36000000000001</ele>
        <time>2025-05-12T11:33:04Z</time>
      </trkpt>
      <trkpt lat="36.994730019941926" lon="-2.910938998684287">
        <ele>950.39999999999998</ele>
        <time>2025-05-12T11:33:05Z</time>
      </trkpt>
      <trkpt lat="36.994800008833408" lon="-2.910679997876287">
        <ele>949.91999999999996</ele>
        <time>2025-05-12T11:33:06Z</time>
      </trkpt>
      <trkpt lat="36.995200999081135" lon="-2.908740006387234">
        <ele>948</ele>
        <time>2025-05-12T11:33:13Z</time>
      </trkpt>
      <trkpt lat="36.99531901627779" lon="-2.907653963193297">
        <ele>945.11000000000001</ele>
        <time>2025-05-12T11:33:17Z</time>
      </trkpt>
      <trkpt lat="36.995310969650745" lon="-2.907408960163593">
        <ele>944.63</ele>
        <time>2025-05-12T11:33:18Z</time>
      </trkpt>
      <trkpt lat="36.995271993800998" lon="-2.90716596879065">
        <ele>944.14999999999998</ele>
        <time>2025-05-12T11:33:19Z</time>
      </trkpt>
      <trkpt lat="36.995208039879799" lon="-2.906919037923217">
        <ele>944.14999999999998</ele>
        <time>2025-05-12T11:33:20Z</time>
      </trkpt>
      <trkpt lat="36.995150959119201" lon="-2.906634975224733">
        <ele>943.66999999999996</ele>
        <time>2025-05-12T11:33:21Z</time>
      </trkpt>
      <trkpt lat="36.99484501965344" lon="-2.905386993661523">
        <ele>941.26999999999998</ele>
        <time>2025-05-12T11:33:27Z</time>
      </trkpt>
      <trkpt lat="36.994691966101527" lon="-2.904444029554725">
        <ele>939.83000000000004</ele>
        <time>2025-05-12T11:33:33Z</time>
      </trkpt>
      <trkpt lat="36.994661958888173" lon="-2.904289970174432">
        <ele>939.35000000000002</ele>
        <time>2025-05-12T11:33:34Z</time>
      </trkpt>
      <trkpt lat="36.994177987799048" lon="-2.902573021128774">
        <ele>939.35000000000002</ele>
        <time>2025-05-12T11:33:46Z</time>
      </trkpt>
      <trkpt lat="36.994121996685863" lon="-2.902126014232636">
        <ele>939.83000000000004</ele>
        <time>2025-05-12T11:33:50Z</time>
      </trkpt>
      <trkpt lat="36.993825025856495" lon="-2.901089005172253">
        <ele>935.98000000000002</ele>
        <time>2025-05-12T11:33:59Z</time>
      </trkpt>
      <trkpt lat="36.993538029491901" lon="-2.900007991120219">
        <ele>929.25</ele>
        <time>2025-05-12T11:34:09Z</time>
      </trkpt>
      <trkpt lat="36.993521014228463" lon="-2.899918975308538">
        <ele>928.76999999999998</ele>
        <time>2025-05-12T11:34:10Z</time>
      </trkpt>
      <trkpt lat="36.993425041437149" lon="-2.899823002517223">
        <ele>928.28999999999996</ele>
        <time>2025-05-12T11:34:11Z</time>
      </trkpt>
      <trkpt lat="36.993388999253511" lon="-2.899703979492188">
        <ele>927.80999999999995</ele>
        <time>2025-05-12T11:34:12Z</time>
      </trkpt>
      <trkpt lat="36.993318004533648" lon="-2.899642959237099">
        <ele>927.33000000000004</ele>
        <time>2025-05-12T11:34:13Z</time>
      </trkpt>
      <trkpt lat="36.993248015642166" lon="-2.899582022801042">
        <ele>926.85000000000002</ele>
        <time>2025-05-12T11:34:14Z</time>
      </trkpt>
      <trkpt lat="36.992607973515987" lon="-2.899040970951319">
        <ele>920.60000000000002</ele>
        <time>2025-05-12T11:34:24Z</time>
      </trkpt>
      <trkpt lat="36.992520969361067" lon="-2.899021022021771">
        <ele>919.63999999999999</ele>
        <time>2025-05-12T11:34:25Z</time>
      </trkpt>
      <trkpt lat="36.992469001561403" lon="-2.899059997871518">
        <ele>918.67999999999995</ele>
        <time>2025-05-12T11:34:26Z</time>
      </trkpt>
      <trkpt lat="36.992437988519669" lon="-2.899028984829783">
        <ele>918.20000000000005</ele>
        <time>2025-05-12T11:34:27Z</time>
      </trkpt>
      <trkpt lat="36.99239800684154" lon="-2.898989003151655">
        <ele>917.24000000000001</ele>
        <time>2025-05-12T11:34:28Z</time>
      </trkpt>
      <trkpt lat="36.992408987134695" lon="-2.898923959583044">
        <ele>916.75</ele>
        <time>2025-05-12T11:34:29Z</time>
      </trkpt>
      <trkpt lat="36.992447962984443" lon="-2.898831004276872">
        <ele>915.78999999999996</ele>
        <time>2025-05-12T11:34:30Z</time>
      </trkpt>
      <trkpt lat="36.992447962984443" lon="-2.898756992071867">
        <ele>915.30999999999995</ele>
        <time>2025-05-12T11:34:31Z</time>
      </trkpt>
      <trkpt lat="36.992447962984443" lon="-2.898682979866862">
        <ele>914.35000000000002</ele>
        <time>2025-05-12T11:34:32Z</time>
      </trkpt>
      <trkpt lat="36.992447962984443" lon="-2.898607039824128">
        <ele>913.87</ele>
        <time>2025-05-12T11:34:33Z</time>
      </trkpt>
      <trkpt lat="36.99244000017643" lon="-2.898537972941995">
        <ele>913.38999999999999</ele>
        <time>2025-05-12T11:34:34Z</time>
      </trkpt>
      <trkpt lat="36.992426002398133" lon="-2.898058025166392">
        <ele>909.05999999999995</ele>
        <time>2025-05-12T11:34:43Z</time>
      </trkpt>
      <trkpt lat="36.99244100600481" lon="-2.897878987714648">
        <ele>908.58000000000004</ele>
        <time>2025-05-12T11:34:46Z</time>
      </trkpt>
      <trkpt lat="36.992490040138364" lon="-2.897502975538373">
        <ele>906.65999999999997</ele>
        <time>2025-05-12T11:34:52Z</time>
      </trkpt>
      <trkpt lat="36.992498002946377" lon="-2.897444972768426">
        <ele>906.17999999999995</ele>
        <time>2025-05-12T11:34:53Z</time>
      </trkpt>
      <trkpt lat="36.992618031799793" lon="-2.896606028079987">
        <ele>905.22000000000003</ele>
        <time>2025-05-12T11:35:04Z</time>
      </trkpt>
      <trkpt lat="36.992755997925997" lon="-2.89551998488605">
        <ele>905.70000000000005</ele>
        <time>2025-05-12T11:35:17Z</time>
      </trkpt>
      <trkpt lat="36.992922965437174" lon="-2.89440200664103">
        <ele>908.58000000000004</ele>
        <time>2025-05-12T11:35:30Z</time>
      </trkpt>
      <trkpt lat="36.992988009005785" lon="-2.893946031108499">
        <ele>909.53999999999996</ele>
        <time>2025-05-12T11:35:35Z</time>
      </trkpt>
      <trkpt lat="36.993011981248856" lon="-2.893777973949909">
        <ele>910.50999999999999</ele>
        <time>2025-05-12T11:35:37Z</time>
      </trkpt>
      <trkpt lat="36.993024973198771" lon="-2.893688958138228">
        <ele>910.99000000000001</ele>
        <time>2025-05-12T11:35:38Z</time>
      </trkpt>
      <trkpt lat="36.993121029809117" lon="-2.89328696206212">
        <ele>914.35000000000002</ele>
        <time>2025-05-12T11:35:43Z</time>
      </trkpt>
      <trkpt lat="36.99338598176837" lon="-2.892541978508234">
        <ele>920.12</ele>
        <time>2025-05-12T11:35:52Z</time>
      </trkpt>
      <trkpt lat="36.993486983701587" lon="-2.892289012670517">
        <ele>921.55999999999995</ele>
        <time>2025-05-12T11:35:55Z</time>
      </trkpt>
      <trkpt lat="36.993628973141313" lon="-2.891932027414441">
        <ele>923.48000000000002</ele>
        <time>2025-05-12T11:36:01Z</time>
      </trkpt>
      <trkpt lat="36.993698040023446" lon="-2.891736980527639">
        <ele>923.96000000000004</ele>
        <time>2025-05-12T11:36:05Z</time>
      </trkpt>
      <trkpt lat="36.993715977296233" lon="-2.891685012727976">
        <ele>924.45000000000005</ele>
        <time>2025-05-12T11:36:06Z</time>
      </trkpt>
      <trkpt lat="36.993735004216433" lon="-2.891632961109281">
        <ele>924.45000000000005</ele>
        <time>2025-05-12T11:36:07Z</time>
      </trkpt>
      <trkpt lat="36.993770962581038" lon="-2.891528019681573">
        <ele>924.92999999999995</ele>
        <time>2025-05-12T11:36:09Z</time>
      </trkpt>
      <trkpt lat="36.993789989501238" lon="-2.891475968062878">
        <ele>924.92999999999995</ele>
        <time>2025-05-12T11:36:10Z</time>
      </trkpt>
      <trkpt lat="36.993807004764676" lon="-2.891428023576737">
        <ele>925.40999999999997</ele>
        <time>2025-05-12T11:36:11Z</time>
      </trkpt>
      <trkpt lat="36.993823014199734" lon="-2.891379995271564">
        <ele>925.40999999999997</ele>
        <time>2025-05-12T11:36:12Z</time>
      </trkpt>
      <trkpt lat="36.993841035291553" lon="-2.891329033300281">
        <ele>925.40999999999997</ele>
        <time>2025-05-12T11:36:13Z</time>
      </trkpt>
      <trkpt lat="36.993907000869513" lon="-2.891142033040524">
        <ele>925.88999999999999</ele>
        <time>2025-05-12T11:36:16Z</time>
      </trkpt>
      <trkpt lat="36.993907000869513" lon="-2.891094004735351">
        <ele>926.37</ele>
        <time>2025-05-12T11:36:17Z</time>
      </trkpt>
      <trkpt lat="36.993907000869513" lon="-2.89102703332901">
        <ele>925.88999999999999</ele>
        <time>2025-05-12T11:36:18Z</time>
      </trkpt>
      <trkpt lat="36.993907000869513" lon="-2.890822011977434">
        <ele>925.88999999999999</ele>
        <time>2025-05-12T11:36:21Z</time>
      </trkpt>
      <trkpt lat="36.993907000869513" lon="-2.890735007822514">
        <ele>926.37</ele>
        <time>2025-05-12T11:36:22Z</time>
      </trkpt>
      <trkpt lat="36.993926027789712" lon="-2.890566028654575">
        <ele>926.37</ele>
        <time>2025-05-12T11:36:25Z</time>
      </trkpt>
      <trkpt lat="36.993939019739628" lon="-2.890444993972778">
        <ele>926.85000000000002</ele>
        <time>2025-05-12T11:36:27Z</time>
      </trkpt>
      <trkpt lat="36.993950000032783" lon="-2.890323959290981">
        <ele>926.85000000000002</ele>
        <time>2025-05-12T11:36:29Z</time>
      </trkpt>
      <trkpt lat="36.993950000032783" lon="-2.890251958742738">
        <ele>927.33000000000004</ele>
        <time>2025-05-12T11:36:30Z</time>
      </trkpt>
      <trkpt lat="36.993950000032783" lon="-2.890128996223211">
        <ele>927.33000000000004</ele>
        <time>2025-05-12T11:36:32Z</time>
      </trkpt>
      <trkpt lat="36.993950000032783" lon="-2.890048027038574">
        <ele>927.80999999999995</ele>
        <time>2025-05-12T11:36:33Z</time>
      </trkpt>
      <trkpt lat="36.993939019739628" lon="-2.890016008168459">
        <ele>927.80999999999995</ele>
        <time>2025-05-12T11:36:34Z</time>
      </trkpt>
      <trkpt lat="36.993897026404738" lon="-2.889893967658281">
        <ele>928.76999999999998</ele>
        <time>2025-05-12T11:36:36Z</time>
      </trkpt>
      <trkpt lat="36.993872970342636" lon="-2.889834959059954">
        <ele>929.25</ele>
        <time>2025-05-12T11:36:37Z</time>
      </trkpt>
      <trkpt lat="36.993864001706243" lon="-2.889811992645264">
        <ele>929.25</ele>
        <time>2025-05-12T11:36:38Z</time>
      </trkpt>
      <trkpt lat="36.993868025019765" lon="-2.889721971005201">
        <ele>929.73000000000002</ele>
        <time>2025-05-12T11:36:39Z</time>
      </trkpt>
      <trkpt lat="36.993870958685875" lon="-2.889650976285338">
        <ele>929.73000000000002</ele>
        <time>2025-05-12T11:36:40Z</time>
      </trkpt>
      <trkpt lat="36.993876993656158" lon="-2.889512004330754">
        <ele>929.73000000000002</ele>
        <time>2025-05-12T11:36:42Z</time>
      </trkpt>
      <trkpt lat="36.9938800111413" lon="-2.889435980468988">
        <ele>929.73000000000002</ele>
        <time>2025-05-12T11:36:43Z</time>
      </trkpt>
      <trkpt lat="36.993884034454823" lon="-2.889359034597874">
        <ele>929.73000000000002</ele>
        <time>2025-05-12T11:36:44Z</time>
      </trkpt>
      <trkpt lat="36.993887973949313" lon="-2.889282004907727">
        <ele>929.25</ele>
        <time>2025-05-12T11:36:45Z</time>
      </trkpt>
      <trkpt lat="36.993895014747977" lon="-2.889202041551471">
        <ele>929.25</ele>
        <time>2025-05-12T11:36:46Z</time>
      </trkpt>
      <trkpt lat="36.99390297755599" lon="-2.88911797106266">
        <ele>929.25</ele>
        <time>2025-05-12T11:36:47Z</time>
      </trkpt>
      <trkpt lat="36.993909012526274" lon="-2.889039013534784">
        <ele>929.73000000000002</ele>
        <time>2025-05-12T11:36:48Z</time>
      </trkpt>
      <trkpt lat="36.993915969505906" lon="-2.888960978016257">
        <ele>929.25</ele>
        <time>2025-05-12T11:36:49Z</time>
      </trkpt>
      <trkpt lat="36.99392301030457" lon="-2.88887900300324">
        <ele>928.76999999999998</ele>
        <time>2025-05-12T11:36:50Z</time>
      </trkpt>
      <trkpt lat="36.993928961455822" lon="-2.888804990798235">
        <ele>928.28999999999996</ele>
        <time>2025-05-12T11:36:51Z</time>
      </trkpt>
      <trkpt lat="36.993933990597725" lon="-2.888747993856669">
        <ele>927.80999999999995</ele>
        <time>2025-05-12T11:36:52Z</time>
      </trkpt>
      <trkpt lat="36.993948994204402" lon="-2.888560993596911">
        <ele>925.40999999999997</ele>
        <time>2025-05-12T11:36:55Z</time>
      </trkpt>
      <trkpt lat="36.993943965062499" lon="-2.888494022190571">
        <ele>925.40999999999997</ele>
        <time>2025-05-12T11:36:56Z</time>
      </trkpt>
      <trkpt lat="36.993939019739628" lon="-2.888427972793579">
        <ele>924.92999999999995</ele>
        <time>2025-05-12T11:36:57Z</time>
      </trkpt>
      <trkpt lat="36.993932984769344" lon="-2.888352032750845">
        <ele>924.45000000000005</ele>
        <time>2025-05-12T11:36:58Z</time>
      </trkpt>
      <trkpt lat="36.993911024183035" lon="-2.888251030817628">
        <ele>924.45000000000005</ele>
        <time>2025-05-12T11:36:59Z</time>
      </trkpt>
      <trkpt lat="36.993873976171017" lon="-2.888174001127482">
        <ele>924.45000000000005</ele>
        <time>2025-05-12T11:37:00Z</time>
      </trkpt>
      <trkpt lat="36.993835000321269" lon="-2.888091020286083">
        <ele>923.96000000000004</ele>
        <time>2025-05-12T11:37:01Z</time>
      </trkpt>
      <trkpt lat="36.993796024471521" lon="-2.888008961454034">
        <ele>923.48000000000002</ele>
        <time>2025-05-12T11:37:02Z</time>
      </trkpt>
      <trkpt lat="36.993294032290578" lon="-2.886995002627373">
        <ele>919.15999999999997</ele>
        <time>2025-05-12T11:37:13Z</time>
      </trkpt>
      <trkpt lat="36.992704030126333" lon="-2.886312967166305">
        <ele>911.47000000000003</ele>
        <time>2025-05-12T11:37:22Z</time>
      </trkpt>
      <trkpt lat="36.992168007418513" lon="-2.885734029114246">
        <ele>907.13999999999999</ele>
        <time>2025-05-12T11:37:29Z</time>
      </trkpt>
      <trkpt lat="36.992088966071606" lon="-2.885647024959326">
        <ele>906.65999999999997</ele>
        <time>2025-05-12T11:37:30Z</time>
      </trkpt>
      <trkpt lat="36.991393016651273" lon="-2.884875973686576">
        <ele>900.88999999999999</ele>
        <time>2025-05-12T11:37:37Z</time>
      </trkpt>
      <trkpt lat="36.991181960329413" lon="-2.884641028940678">
        <ele>898.97000000000003</ele>
        <time>2025-05-12T11:37:39Z</time>
      </trkpt>
      <trkpt lat="36.990288030356169" lon="-2.883665040135384">
        <ele>890.32000000000005</ele>
        <time>2025-05-12T11:37:48Z</time>
      </trkpt>
      <trkpt lat="36.988970981910825" lon="-2.882221005856991">
        <ele>882.14999999999998</ele>
        <time>2025-05-12T11:38:01Z</time>
      </trkpt>
      <trkpt lat="36.987738003954291" lon="-2.880881996825337">
        <ele>876.38</ele>
        <time>2025-05-12T11:38:14Z</time>
      </trkpt>
      <trkpt lat="36.986785987392068" lon="-2.879796959459782">
        <ele>870.13</ele>
        <time>2025-05-12T11:38:24Z</time>
      </trkpt>
      <trkpt lat="36.986501002684236" lon="-2.879439974203706">
        <ele>870.13</ele>
        <time>2025-05-12T11:38:27Z</time>
      </trkpt>
      <trkpt lat="36.986430007964373" lon="-2.879290021955967">
        <ele>869.64999999999998</ele>
        <time>2025-05-12T11:38:28Z</time>
      </trkpt>
      <trkpt lat="36.986357001587749" lon="-2.879136968404055">
        <ele>869.64999999999998</ele>
        <time>2025-05-12T11:38:29Z</time>
      </trkpt>
      <trkpt lat="36.986290030181408" lon="-2.878990033641458">
        <ele>869.64999999999998</ele>
        <time>2025-05-12T11:38:30Z</time>
      </trkpt>
      <trkpt lat="36.9862300157547" lon="-2.878846032544971">
        <ele>869.64999999999998</ele>
        <time>2025-05-12T11:38:31Z</time>
      </trkpt>
      <trkpt lat="36.985937990248203" lon="-2.878052014857531">
        <ele>870.13</ele>
        <time>2025-05-12T11:38:38Z</time>
      </trkpt>
      <trkpt lat="36.985904965549707" lon="-2.877961993217468">
        <ele>870.13</ele>
        <time>2025-05-12T11:38:39Z</time>
      </trkpt>
      <trkpt lat="36.985748978331685" lon="-2.877489002421498">
        <ele>870.61000000000001</ele>
        <time>2025-05-12T11:38:44Z</time>
      </trkpt>
      <trkpt lat="36.98571796528995" lon="-2.877394035458565">
        <ele>870.13</ele>
        <time>2025-05-12T11:38:45Z</time>
      </trkpt>
      <trkpt lat="36.98532703332603" lon="-2.876160973683">
        <ele>870.61000000000001</ele>
        <time>2025-05-12T11:38:57Z</time>
      </trkpt>
      <trkpt lat="36.985296020284295" lon="-2.876061983406544">
        <ele>870.61000000000001</ele>
        <time>2025-05-12T11:38:58Z</time>
      </trkpt>
      <trkpt lat="36.985267018899322" lon="-2.875963998958468">
        <ele>870.61000000000001</ele>
        <time>2025-05-12T11:38:59Z</time>
      </trkpt>
      <trkpt lat="36.985240029171109" lon="-2.875866014510393">
        <ele>870.61000000000001</ele>
        <time>2025-05-12T11:39:00Z</time>
      </trkpt>
      <trkpt lat="36.985211027786136" lon="-2.875764006748796">
        <ele>871.09000000000003</ele>
        <time>2025-05-12T11:39:01Z</time>
      </trkpt>
      <trkpt lat="36.985061997547746" lon="-2.875329991802573">
        <ele>870.61000000000001</ele>
        <time>2025-05-12T11:39:05Z</time>
      </trkpt>
      <trkpt lat="36.985025033354759" lon="-2.875223038718104">
        <ele>870.61000000000001</ele>
        <time>2025-05-12T11:39:06Z</time>
      </trkpt>
      <trkpt lat="36.985001983121037" lon="-2.875155983492732">
        <ele>870.13</ele>
        <time>2025-05-12T11:39:07Z</time>
      </trkpt>
      <trkpt lat="36.984951021149755" lon="-2.874995972961187">
        <ele>869.64999999999998</ele>
        <time>2025-05-12T11:39:08Z</time>
      </trkpt>
      <trkpt lat="36.98489704169333" lon="-2.874895976856351">
        <ele>869.16999999999996</ele>
        <time>2025-05-12T11:39:09Z</time>
      </trkpt>
      <trkpt lat="36.98440502397716" lon="-2.873849999159575">
        <ele>868.69000000000005</ele>
        <time>2025-05-12T11:39:19Z</time>
      </trkpt>
      <trkpt lat="36.983973020687699" lon="-2.872468996793032">
        <ele>865.79999999999995</ele>
        <time>2025-05-12T11:39:27Z</time>
      </trkpt>
      <trkpt lat="36.983370026573539" lon="-2.870535040274262">
        <ele>861</ele>
        <time>2025-05-12T11:39:37Z</time>
      </trkpt>
      <trkpt lat="36.982993008568883" lon="-2.868933007121086">
        <ele>854.75</ele>
        <time>2025-05-12T11:39:45Z</time>
      </trkpt>
      <trkpt lat="36.982676004990935" lon="-2.867600033059716">
        <ele>851.38</ele>
        <time>2025-05-12T11:39:52Z</time>
      </trkpt>
      <trkpt lat="36.98219102807343" lon="-2.865546969696879">
        <ele>849.94000000000005</ele>
        <time>2025-05-12T11:40:03Z</time>
      </trkpt>
      <trkpt lat="36.981838988140225" lon="-2.864121040329337">
        <ele>849.46000000000004</ele>
        <time>2025-05-12T11:40:11Z</time>
      </trkpt>
      <trkpt lat="36.981647964566946" lon="-2.863461971282959">
        <ele>847.53999999999996</ele>
        <time>2025-05-12T11:40:15Z</time>
      </trkpt>
      <trkpt lat="36.981579987332225" lon="-2.86331201903522">
        <ele>847.05999999999995</ele>
        <time>2025-05-12T11:40:16Z</time>
      </trkpt>
      <trkpt lat="36.981043964624405" lon="-2.862376011908054">
        <ele>845.62</ele>
        <time>2025-05-12T11:40:24Z</time>
      </trkpt>
      <trkpt lat="36.980840032920241" lon="-2.862050039693713">
        <ele>846.10000000000002</ele>
        <time>2025-05-12T11:40:28Z</time>
      </trkpt>
      <trkpt lat="36.980799967423081" lon="-2.861974015831947">
        <ele>846.58000000000004</ele>
        <time>2025-05-12T11:40:29Z</time>
      </trkpt>
      <trkpt lat="36.980663007125258" lon="-2.861711997538805">
        <ele>848.01999999999998</ele>
        <time>2025-05-12T11:40:32Z</time>
      </trkpt>
      <trkpt lat="36.980616990476847" lon="-2.861627005040646">
        <ele>848.01999999999998</ele>
        <time>2025-05-12T11:40:33Z</time>
      </trkpt>
      <trkpt lat="36.980405012145638" lon="-2.861296003684402">
        <ele>848.98000000000002</ele>
        <time>2025-05-12T11:40:37Z</time>
      </trkpt>
      <trkpt lat="36.98019596748054" lon="-2.860896019265056">
        <ele>848.98000000000002</ele>
        <time>2025-05-12T11:40:41Z</time>
      </trkpt>
      <trkpt lat="36.980165038257837" lon="-2.860794011503458">
        <ele>848.98000000000002</ele>
        <time>2025-05-12T11:40:42Z</time>
      </trkpt>
      <trkpt lat="36.980135031044483" lon="-2.86069200374186">
        <ele>848.5</ele>
        <time>2025-05-12T11:40:43Z</time>
      </trkpt>
      <trkpt lat="36.98002397082746" lon="-2.860285984352231">
        <ele>849.46000000000004</ele>
        <time>2025-05-12T11:40:47Z</time>
      </trkpt>
      <trkpt lat="36.980028999969363" lon="-2.860214989632368">
        <ele>849.94000000000005</ele>
        <time>2025-05-12T11:40:48Z</time>
      </trkpt>
      <trkpt lat="36.980036040768027" lon="-2.860112981870771">
        <ele>849.94000000000005</ele>
        <time>2025-05-12T11:40:49Z</time>
      </trkpt>
      <trkpt lat="36.98004299774766" lon="-2.860020026564598">
        <ele>850.41999999999996</ele>
        <time>2025-05-12T11:40:50Z</time>
      </trkpt>
      <trkpt lat="36.980053978040814" lon="-2.859959006309509">
        <ele>850.89999999999998</ele>
        <time>2025-05-12T11:40:51Z</time>
      </trkpt>
      <trkpt lat="36.98006696999073" lon="-2.859856998547912">
        <ele>850.89999999999998</ele>
        <time>2025-05-12T11:40:52Z</time>
      </trkpt>
      <trkpt lat="36.980084991082549" lon="-2.859801007434726">
        <ele>851.38</ele>
        <time>2025-05-12T11:40:53Z</time>
      </trkpt>
      <trkpt lat="36.980088008567691" lon="-2.859710985794663">
        <ele>851.87</ele>
        <time>2025-05-12T11:40:54Z</time>
      </trkpt>
      <trkpt lat="36.980088008567691" lon="-2.859623981639743">
        <ele>852.35000000000002</ele>
        <time>2025-05-12T11:40:55Z</time>
      </trkpt>
      <trkpt lat="36.980082979425788" lon="-2.859537983313203">
        <ele>852.35000000000002</ele>
        <time>2025-05-12T11:40:56Z</time>
      </trkpt>
      <trkpt lat="36.980073004961014" lon="-2.859452990815043">
        <ele>852.83000000000004</ele>
        <time>2025-05-12T11:40:57Z</time>
      </trkpt>
      <trkpt lat="36.980035034939647" lon="-2.859202958643436">
        <ele>854.26999999999998</ele>
        <time>2025-05-12T11:41:00Z</time>
      </trkpt>
      <trkpt lat="36.980024976655841" lon="-2.859112014994025">
        <ele>854.75</ele>
        <time>2025-05-12T11:41:01Z</time>
      </trkpt>
      <trkpt lat="36.980028999969363" lon="-2.859029034152627">
        <ele>855.71000000000004</ele>
        <time>2025-05-12T11:41:02Z</time>
      </trkpt>
      <trkpt lat="36.980041991919279" lon="-2.858777996152639">
        <ele>856.66999999999996</ele>
        <time>2025-05-12T11:41:05Z</time>
      </trkpt>
      <trkpt lat="36.980045009404421" lon="-2.858698032796383">
        <ele>857.14999999999998</ele>
        <time>2025-05-12T11:41:06Z</time>
      </trkpt>
      <trkpt lat="36.980045009404421" lon="-2.858618991449475">
        <ele>857.14999999999998</ele>
        <time>2025-05-12T11:41:07Z</time>
      </trkpt>
      <trkpt lat="36.980045009404421" lon="-2.858542967587709">
        <ele>857.63</ele>
        <time>2025-05-12T11:41:08Z</time>
      </trkpt>
      <trkpt lat="36.980050038546324" lon="-2.858455963432789">
        <ele>857.63</ele>
        <time>2025-05-12T11:41:09Z</time>
      </trkpt>
      <trkpt lat="36.98006696999073" lon="-2.858354961499572">
        <ele>858.11000000000001</ele>
        <time>2025-05-12T11:41:10Z</time>
      </trkpt>
      <trkpt lat="36.980071999132633" lon="-2.858282038941979">
        <ele>858.11000000000001</ele>
        <time>2025-05-12T11:41:11Z</time>
      </trkpt>
      <trkpt lat="36.980079961940646" lon="-2.858186988160014">
        <ele>858.11000000000001</ele>
        <time>2025-05-12T11:41:12Z</time>
      </trkpt>
      <trkpt lat="36.98008599691093" lon="-2.858101995661855">
        <ele>858.59000000000003</ele>
        <time>2025-05-12T11:41:13Z</time>
      </trkpt>
      <trkpt lat="36.980095971375704" lon="-2.858021026477218">
        <ele>858.59000000000003</ele>
        <time>2025-05-12T11:41:14Z</time>
      </trkpt>
      <trkpt lat="36.98010896332562" lon="-2.857921030372381">
        <ele>859.08000000000004</ele>
        <time>2025-05-12T11:41:15Z</time>
      </trkpt>
      <trkpt lat="36.980095971375704" lon="-2.857817010954022">
        <ele>859.55999999999995</ele>
        <time>2025-05-12T11:41:16Z</time>
      </trkpt>
      <trkpt lat="36.980093959718943" lon="-2.857608972117305">
        <ele>860.03999999999996</ele>
        <time>2025-05-12T11:41:18Z</time>
      </trkpt>
      <trkpt lat="36.98010703548789" lon="-2.857298003509641">
        <ele>861.96000000000004</ele>
        <time>2025-05-12T11:41:21Z</time>
      </trkpt>
      <trkpt lat="36.980122039094567" lon="-2.857194989919663">
        <ele>862.44000000000005</ele>
        <time>2025-05-12T11:41:22Z</time>
      </trkpt>
      <trkpt lat="36.98015296831727" lon="-2.857088036835194">
        <ele>863.39999999999998</ele>
        <time>2025-05-12T11:41:23Z</time>
      </trkpt>
      <trkpt lat="36.980679016560316" lon="-2.855723965913057">
        <ele>864.84000000000003</ele>
        <time>2025-05-12T11:41:36Z</time>
      </trkpt>
      <trkpt lat="36.98094698600471" lon="-2.854972025379539">
        <ele>862.44000000000005</ele>
        <time>2025-05-12T11:41:43Z</time>
      </trkpt>
      <trkpt lat="36.980984034016728" lon="-2.854863982647657">
        <ele>862.44000000000005</ele>
        <time>2025-05-12T11:41:44Z</time>
      </trkpt>
      <trkpt lat="36.981195006519556" lon="-2.854339024052024">
        <ele>861.96000000000004</ele>
        <time>2025-05-12T11:41:49Z</time>
      </trkpt>
      <trkpt lat="36.98124697431922" lon="-2.854235004633665">
        <ele>861.96000000000004</ele>
        <time>2025-05-12T11:41:50Z</time>
      </trkpt>
      <trkpt lat="36.98204099200666" lon="-2.853334033861756">
        <ele>857.63</ele>
        <time>2025-05-12T11:42:02Z</time>
      </trkpt>
      <trkpt lat="36.982172001153231" lon="-2.853203024715185">
        <ele>856.66999999999996</ele>
        <time>2025-05-12T11:42:05Z</time>
      </trkpt>
      <trkpt lat="36.982279038056731" lon="-2.853108979761601">
        <ele>855.23000000000002</ele>
        <time>2025-05-12T11:42:08Z</time>
      </trkpt>
      <trkpt lat="36.982321031391621" lon="-2.853075033053756">
        <ele>855.23000000000002</ele>
        <time>2025-05-12T11:42:09Z</time>
      </trkpt>
      <trkpt lat="36.982369981706142" lon="-2.853025998920202">
        <ele>854.75</ele>
        <time>2025-05-12T11:42:10Z</time>
      </trkpt>
      <trkpt lat="36.983033996075392" lon="-2.852351004257798">
        <ele>850.89999999999998</ele>
        <time>2025-05-12T11:42:19Z</time>
      </trkpt>
      <trkpt lat="36.98386799544096" lon="-2.851627981290221">
        <ele>846.10000000000002</ele>
        <time>2025-05-12T11:42:29Z</time>
      </trkpt>
      <trkpt lat="36.984843984246254" lon="-2.850735979154706">
        <ele>841.28999999999996</ele>
        <time>2025-05-12T11:42:40Z</time>
      </trkpt>
      <trkpt lat="36.984925959259272" lon="-2.850620979443193">
        <ele>840.80999999999995</ele>
        <time>2025-05-12T11:42:41Z</time>
      </trkpt>
      <trkpt lat="36.984997037798166" lon="-2.850503968074918">
        <ele>840.33000000000004</ele>
        <time>2025-05-12T11:42:42Z</time>
      </trkpt>
      <trkpt lat="36.98505001142621" lon="-2.850370025262237">
        <ele>839.37</ele>
        <time>2025-05-12T11:42:43Z</time>
      </trkpt>
      <trkpt lat="36.9850729778409" lon="-2.850230969488621">
        <ele>838.88999999999999</ele>
        <time>2025-05-12T11:42:44Z</time>
      </trkpt>
      <trkpt lat="36.985083036124706" lon="-2.850085962563753">
        <ele>838.40999999999997</ele>
        <time>2025-05-12T11:42:45Z</time>
      </trkpt>
      <trkpt lat="36.985090998932719" lon="-2.849943973124027">
        <ele>837.92999999999995</ele>
        <time>2025-05-12T11:42:46Z</time>
      </trkpt>
      <trkpt lat="36.985109020024538" lon="-2.849506018683314">
        <ele>837.45000000000005</ele>
        <time>2025-05-12T11:42:50Z</time>
      </trkpt>
      <trkpt lat="36.985109020024538" lon="-2.849436029791832">
        <ele>837.45000000000005</ele>
        <time>2025-05-12T11:42:51Z</time>
      </trkpt>
      <trkpt lat="36.985109020024538" lon="-2.84936998039484">
        <ele>836.96000000000004</ele>
        <time>2025-05-12T11:42:52Z</time>
      </trkpt>
      <trkpt lat="36.985153025016189" lon="-2.849248023703694">
        <ele>836.48000000000002</ele>
        <time>2025-05-12T11:42:53Z</time>
      </trkpt>
      <trkpt lat="36.985230976715684" lon="-2.849233020097017">
        <ele>836</ele>
        <time>2025-05-12T11:42:54Z</time>
      </trkpt>
      <trkpt lat="36.985325021669269" lon="-2.849213993176818">
        <ele>835.51999999999998</ele>
        <time>2025-05-12T11:42:55Z</time>
      </trkpt>
      <trkpt lat="36.985423006117344" lon="-2.849193960428238">
        <ele>835.03999999999996</ele>
        <time>2025-05-12T11:42:56Z</time>
      </trkpt>
      <trkpt lat="36.985538005828857" lon="-2.849170994013548">
        <ele>834.55999999999995</ele>
        <time>2025-05-12T11:42:57Z</time>
      </trkpt>
      <trkpt lat="36.985632972791791" lon="-2.849123971536756">
        <ele>834.08000000000004</ele>
        <time>2025-05-12T11:42:58Z</time>
      </trkpt>
      <trkpt lat="36.985747972503304" lon="-2.849066974595189">
        <ele>833.60000000000002</ele>
        <time>2025-05-12T11:42:59Z</time>
      </trkpt>
      <trkpt lat="36.98584402911365" lon="-2.848962033167481">
        <ele>833.12</ele>
        <time>2025-05-12T11:43:00Z</time>
      </trkpt>
      <trkpt lat="36.985946036875248" lon="-2.848848039284349">
        <ele>832.15999999999997</ele>
        <time>2025-05-12T11:43:01Z</time>
      </trkpt>
      <trkpt lat="36.986050978302956" lon="-2.848731027916074">
        <ele>831.67999999999995</ele>
        <time>2025-05-12T11:43:02Z</time>
      </trkpt>
      <trkpt lat="36.986136976629496" lon="-2.848597001284361">
        <ele>830.72000000000003</ele>
        <time>2025-05-12T11:43:03Z</time>
      </trkpt>
      <trkpt lat="36.986193973571062" lon="-2.848417041823268">
        <ele>830.24000000000001</ele>
        <time>2025-05-12T11:43:04Z</time>
      </trkpt>
      <trkpt lat="36.98625398799777" lon="-2.84823196940124">
        <ele>829.75999999999999</ele>
        <time>2025-05-12T11:43:05Z</time>
      </trkpt>
      <trkpt lat="36.986314002424479" lon="-2.84803600050509">
        <ele>828.78999999999996</ele>
        <time>2025-05-12T11:43:06Z</time>
      </trkpt>
      <trkpt lat="36.986349960789084" lon="-2.847818993031979">
        <ele>827.83000000000004</ele>
        <time>2025-05-12T11:43:07Z</time>
      </trkpt>
      <trkpt lat="36.98672597296536" lon="-2.845574989914894">
        <ele>816.77999999999997</ele>
        <time>2025-05-12T11:43:16Z</time>
      </trkpt>
      <trkpt lat="36.987241040915251" lon="-2.842723969370127">
        <ele>811.00999999999999</ele>
        <time>2025-05-12T11:43:27Z</time>
      </trkpt>
      <trkpt lat="36.987324021756649" lon="-2.842510985210538">
        <ele>811.97000000000003</ele>
        <time>2025-05-12T11:43:28Z</time>
      </trkpt>
      <trkpt lat="36.98741203173995" lon="-2.842296995222569">
        <ele>813.40999999999997</ele>
        <time>2025-05-12T11:43:29Z</time>
      </trkpt>
      <trkpt lat="36.987529965117574" lon="-2.842103959992528">
        <ele>814.37</ele>
        <time>2025-05-12T11:43:30Z</time>
      </trkpt>
      <trkpt lat="36.987668015062809" lon="-2.84193498082459">
        <ele>815.34000000000003</ele>
        <time>2025-05-12T11:43:31Z</time>
      </trkpt>
      <trkpt lat="36.987826013937593" lon="-2.841788968071342">
        <ele>816.77999999999997</ele>
        <time>2025-05-12T11:43:32Z</time>
      </trkpt>
      <trkpt lat="36.988003961741924" lon="-2.841673968359828">
        <ele>818.22000000000003</ele>
        <time>2025-05-12T11:43:33Z</time>
      </trkpt>
      <trkpt lat="36.988184005022049" lon="-2.841561986133456">
        <ele>819.65999999999997</ele>
        <time>2025-05-12T11:43:34Z</time>
      </trkpt>
      <trkpt lat="36.98837704025209" lon="-2.841470036655664">
        <ele>821.10000000000002</ele>
        <time>2025-05-12T11:43:35Z</time>
      </trkpt>
      <trkpt lat="36.988765960559249" lon="-2.841271972283721">
        <ele>823.99000000000001</ele>
        <time>2025-05-12T11:43:37Z</time>
      </trkpt>
      <trkpt lat="36.988944998010993" lon="-2.841128977015615">
        <ele>824.95000000000005</ele>
        <time>2025-05-12T11:43:38Z</time>
      </trkpt>
      <trkpt lat="36.989114983007312" lon="-2.840981036424637">
        <ele>825.90999999999997</ele>
        <time>2025-05-12T11:43:39Z</time>
      </trkpt>
      <trkpt lat="36.989278011023998" lon="-2.84081800840795">
        <ele>827.35000000000002</ele>
        <time>2025-05-12T11:43:40Z</time>
      </trkpt>
      <trkpt lat="36.989444978535175" lon="-2.840659003704786">
        <ele>828.78999999999996</ele>
        <time>2025-05-12T11:43:41Z</time>
      </trkpt>
      <trkpt lat="36.989613035693765" lon="-2.840520031750202">
        <ele>830.24000000000001</ele>
        <time>2025-05-12T11:43:42Z</time>
      </trkpt>
      <trkpt lat="36.989780003204942" lon="-2.840381981804967">
        <ele>831.67999999999995</ele>
        <time>2025-05-12T11:43:43Z</time>
      </trkpt>
      <trkpt lat="36.989960968494415" lon="-2.840264970436692">
        <ele>833.12</ele>
        <time>2025-05-12T11:43:44Z</time>
      </trkpt>
      <trkpt lat="36.990158027037978" lon="-2.840201016515493">
        <ele>834.55999999999995</ele>
        <time>2025-05-12T11:43:45Z</time>
      </trkpt>
      <trkpt lat="36.990359025076032" lon="-2.840171009302139">
        <ele>836</ele>
        <time>2025-05-12T11:43:46Z</time>
      </trkpt>
      <trkpt lat="36.990559017285705" lon="-2.840142007917166">
        <ele>837.45000000000005</ele>
        <time>2025-05-12T11:43:47Z</time>
      </trkpt>
      <trkpt lat="36.990738976746798" lon="-2.840112000703812">
        <ele>838.88999999999999</ele>
        <time>2025-05-12T11:43:48Z</time>
      </trkpt>
      <trkpt lat="36.990899993106723" lon="-2.840023990720511">
        <ele>840.33000000000004</ele>
        <time>2025-05-12T11:43:49Z</time>
      </trkpt>
      <trkpt lat="36.991015998646617" lon="-2.839900022372603">
        <ele>841.76999999999998</ele>
        <time>2025-05-12T11:43:50Z</time>
      </trkpt>
      <trkpt lat="36.99111096560955" lon="-2.839730959385634">
        <ele>843.69000000000005</ele>
        <time>2025-05-12T11:43:51Z</time>
      </trkpt>
      <trkpt lat="36.991177015006542" lon="-2.839543037116528">
        <ele>845.13999999999999</ele>
        <time>2025-05-12T11:43:52Z</time>
      </trkpt>
      <trkpt lat="36.99121599085629" lon="-2.839309014379978">
        <ele>846.58000000000004</ele>
        <time>2025-05-12T11:43:53Z</time>
      </trkpt>
      <trkpt lat="36.991250021383166" lon="-2.839063005521894">
        <ele>848.01999999999998</ele>
        <time>2025-05-12T11:43:54Z</time>
      </trkpt>
      <trkpt lat="36.991282040253282" lon="-2.838814985007048">
        <ele>849.46000000000004</ele>
        <time>2025-05-12T11:43:55Z</time>
      </trkpt>
      <trkpt lat="36.991347000002861" lon="-2.838592026382685">
        <ele>850.89999999999998</ele>
        <time>2025-05-12T11:43:56Z</time>
      </trkpt>
      <trkpt lat="36.991442972794175" lon="-2.838395973667502">
        <ele>852.35000000000002</ele>
        <time>2025-05-12T11:43:57Z</time>
      </trkpt>
      <trkpt lat="36.991592003032565" lon="-2.838247027248144">
        <ele>853.78999999999996</ele>
        <time>2025-05-12T11:43:58Z</time>
      </trkpt>
      <trkpt lat="36.991760982200503" lon="-2.838108977302909">
        <ele>855.23000000000002</ele>
        <time>2025-05-12T11:43:59Z</time>
      </trkpt>
      <trkpt lat="36.991952005773783" lon="-2.837988026440144">
        <ele>856.66999999999996</ele>
        <time>2025-05-12T11:44:00Z</time>
      </trkpt>
      <trkpt lat="36.992543013766408" lon="-2.837592987343669">
        <ele>860.51999999999998</ele>
        <time>2025-05-12T11:44:03Z</time>
      </trkpt>
      <trkpt lat="36.992714004591107" lon="-2.837412022054195">
        <ele>861.48000000000002</ele>
        <time>2025-05-12T11:44:04Z</time>
      </trkpt>
      <trkpt lat="36.992855994030833" lon="-2.837218986824155">
        <ele>862.91999999999996</ele>
        <time>2025-05-12T11:44:05Z</time>
      </trkpt>
      <trkpt lat="36.992964036762714" lon="-2.836953029036522">
        <ele>863.88</ele>
        <time>2025-05-12T11:44:06Z</time>
      </trkpt>
      <trkpt lat="36.993064032867551" lon="-2.836705008521676">
        <ele>865.32000000000005</ele>
        <time>2025-05-12T11:44:07Z</time>
      </trkpt>
      <trkpt lat="36.993163023144007" lon="-2.836461011320353">
        <ele>866.76999999999998</ele>
        <time>2025-05-12T11:44:08Z</time>
      </trkpt>
      <trkpt lat="36.993280034512281" lon="-2.836233023554087">
        <ele>868.21000000000004</ele>
        <time>2025-05-12T11:44:09Z</time>
      </trkpt>
      <trkpt lat="36.993411965668201" lon="-2.836016016080976">
        <ele>870.13</ele>
        <time>2025-05-12T11:44:10Z</time>
      </trkpt>
      <trkpt lat="36.993553033098578" lon="-2.835822980850935">
        <ele>872.52999999999997</ele>
        <time>2025-05-12T11:44:11Z</time>
      </trkpt>
      <trkpt lat="36.993682030588388" lon="-2.835643021389842">
        <ele>874.46000000000004</ele>
        <time>2025-05-12T11:44:12Z</time>
      </trkpt>
      <trkpt lat="36.993799963966012" lon="-2.835480999201536">
        <ele>875.41999999999996</ele>
        <time>2025-05-12T11:44:13Z</time>
      </trkpt>
      <trkpt lat="36.993877999484539" lon="-2.835290981456637">
        <ele>876.86000000000001</ele>
        <time>2025-05-12T11:44:14Z</time>
      </trkpt>
      <trkpt lat="36.993936002254486" lon="-2.8351029753685">
        <ele>878.29999999999995</ele>
        <time>2025-05-12T11:44:15Z</time>
      </trkpt>
      <trkpt lat="36.993938013911247" lon="-2.834900971502066">
        <ele>879.25999999999999</ele>
        <time>2025-05-12T11:44:16Z</time>
      </trkpt>
      <trkpt lat="36.99390297755599" lon="-2.834697961807251">
        <ele>880.71000000000004</ele>
        <time>2025-05-12T11:44:17Z</time>
      </trkpt>
      <trkpt lat="36.993844974786043" lon="-2.83450098708272">
        <ele>882.14999999999998</ele>
        <time>2025-05-12T11:44:18Z</time>
      </trkpt>
      <trkpt lat="36.993716983124614" lon="-2.834333013743162">
        <ele>883.11000000000001</ele>
        <time>2025-05-12T11:44:19Z</time>
      </trkpt>
      <trkpt lat="36.993583040311933" lon="-2.834161017090082">
        <ele>885.02999999999997</ele>
        <time>2025-05-12T11:44:20Z</time>
      </trkpt>
      <trkpt lat="36.993453036993742" lon="-2.833992959931493">
        <ele>886.47000000000003</ele>
        <time>2025-05-12T11:44:21Z</time>
      </trkpt>
      <trkpt lat="36.993350023403764" lon="-2.833805959671736">
        <ele>887.90999999999997</ele>
        <time>2025-05-12T11:44:22Z</time>
      </trkpt>
      <trkpt lat="36.993282968178391" lon="-2.833603033795953">
        <ele>889.84000000000003</ele>
        <time>2025-05-12T11:44:23Z</time>
      </trkpt>
      <trkpt lat="36.993269976228476" lon="-2.833402035757899">
        <ele>891.27999999999997</ele>
        <time>2025-05-12T11:44:24Z</time>
      </trkpt>
      <trkpt lat="36.993281040340662" lon="-2.833201037719846">
        <ele>892.72000000000003</ele>
        <time>2025-05-12T11:44:25Z</time>
      </trkpt>
      <trkpt lat="36.9933429826051" lon="-2.833013031631708">
        <ele>894.63999999999999</ele>
        <time>2025-05-12T11:44:26Z</time>
      </trkpt>
      <trkpt lat="36.993439961224794" lon="-2.832842962816358">
        <ele>896.57000000000005</ele>
        <time>2025-05-12T11:44:27Z</time>
      </trkpt>
      <trkpt lat="36.993560995906591" lon="-2.832699967548251">
        <ele>898.00999999999999</ele>
        <time>2025-05-12T11:44:28Z</time>
      </trkpt>
      <trkpt lat="36.993711031973362" lon="-2.832559989765286">
        <ele>899.92999999999995</ele>
        <time>2025-05-12T11:44:29Z</time>
      </trkpt>
      <trkpt lat="36.99385997839272" lon="-2.832420011982322">
        <ele>901.37</ele>
        <time>2025-05-12T11:44:30Z</time>
      </trkpt>
      <trkpt lat="36.994000039994717" lon="-2.832289002835751">
        <ele>903.29999999999995</ele>
        <time>2025-05-12T11:44:31Z</time>
      </trkpt>
      <trkpt lat="36.994143035262823" lon="-2.832154976204038">
        <ele>904.25999999999999</ele>
        <time>2025-05-12T11:44:32Z</time>
      </trkpt>
      <trkpt lat="36.994219981133938" lon="-2.832002006471157">
        <ele>905.70000000000005</ele>
        <time>2025-05-12T11:44:33Z</time>
      </trkpt>
      <trkpt lat="36.994269015267491" lon="-2.831810982897878">
        <ele>907.13999999999999</ele>
        <time>2025-05-12T11:44:34Z</time>
      </trkpt>
      <trkpt lat="36.99428603053093" lon="-2.831605961546302">
        <ele>908.58000000000004</ele>
        <time>2025-05-12T11:44:35Z</time>
      </trkpt>
      <trkpt lat="36.994242025539279" lon="-2.831399012356997">
        <ele>909.53999999999996</ele>
        <time>2025-05-12T11:44:36Z</time>
      </trkpt>
      <trkpt lat="36.994153009727597" lon="-2.83121301792562">
        <ele>910.50999999999999</ele>
        <time>2025-05-12T11:44:37Z</time>
      </trkpt>
      <trkpt lat="36.994043039157987" lon="-2.831029035151005">
        <ele>911.95000000000005</ele>
        <time>2025-05-12T11:44:38Z</time>
      </trkpt>
      <trkpt lat="36.993928039446473" lon="-2.830838011577725">
        <ele>913.87</ele>
        <time>2025-05-12T11:44:39Z</time>
      </trkpt>
      <trkpt lat="36.993817985057831" lon="-2.830655034631491">
        <ele>915.30999999999995</ele>
        <time>2025-05-12T11:44:40Z</time>
      </trkpt>
      <trkpt lat="36.993728969246149" lon="-2.830470968037844">
        <ele>916.75</ele>
        <time>2025-05-12T11:44:41Z</time>
      </trkpt>
      <trkpt lat="36.993666021153331" lon="-2.830272987484932">
        <ele>918.20000000000005</ele>
        <time>2025-05-12T11:44:42Z</time>
      </trkpt>
      <trkpt lat="36.993653029203415" lon="-2.830056985840201">
        <ele>920.12</ele>
        <time>2025-05-12T11:44:43Z</time>
      </trkpt>
      <trkpt lat="36.993690999224782" lon="-2.829844001680613">
        <ele>922.03999999999996</ele>
        <time>2025-05-12T11:44:44Z</time>
      </trkpt>
      <trkpt lat="36.99379300698638" lon="-2.829670999199152">
        <ele>923.96000000000004</ele>
        <time>2025-05-12T11:44:45Z</time>
      </trkpt>
      <trkpt lat="36.993913035839796" lon="-2.829520041123033">
        <ele>925.40999999999997</ele>
        <time>2025-05-12T11:44:46Z</time>
      </trkpt>
      <trkpt lat="36.994060976430774" lon="-2.829401018097997">
        <ele>926.85000000000002</ele>
        <time>2025-05-12T11:44:47Z</time>
      </trkpt>
      <trkpt lat="36.994240013882518" lon="-2.82932398840785">
        <ele>928.28999999999996</ele>
        <time>2025-05-12T11:44:48Z</time>
      </trkpt>
      <trkpt lat="36.994423996657133" lon="-2.829245030879974">
        <ele>929.73000000000002</ele>
        <time>2025-05-12T11:44:49Z</time>
      </trkpt>
      <trkpt lat="36.994787016883492" lon="-2.82904302701354">
        <ele>933.10000000000002</ele>
        <time>2025-05-12T11:44:51Z</time>
      </trkpt>
      <trkpt lat="36.994963036850095" lon="-2.828926015645266">
        <ele>934.53999999999996</ele>
        <time>2025-05-12T11:44:52Z</time>
      </trkpt>
      <trkpt lat="36.995122963562608" lon="-2.828781008720398">
        <ele>936.46000000000004</ele>
        <time>2025-05-12T11:44:53Z</time>
      </trkpt>
      <trkpt lat="36.995271993800998" lon="-2.828607000410557">
        <ele>937.41999999999996</ele>
        <time>2025-05-12T11:44:54Z</time>
      </trkpt>
      <trkpt lat="36.995381964370608" lon="-2.82839703373611">
        <ele>938.86000000000001</ele>
        <time>2025-05-12T11:44:55Z</time>
      </trkpt>
      <trkpt lat="36.995482966303825" lon="-2.828178014606237">
        <ele>940.30999999999995</ele>
        <time>2025-05-12T11:44:56Z</time>
      </trkpt>
      <trkpt lat="36.995585979893804" lon="-2.827954972162843">
        <ele>941.26999999999998</ele>
        <time>2025-05-12T11:44:57Z</time>
      </trkpt>
      <trkpt lat="36.995821008458734" lon="-2.827547024935484">
        <ele>944.14999999999998</ele>
        <time>2025-05-12T11:44:59Z</time>
      </trkpt>
      <trkpt lat="36.995944976806641" lon="-2.827369999140501">
        <ele>945.11000000000001</ele>
        <time>2025-05-12T11:45:00Z</time>
      </trkpt>
      <trkpt lat="36.996125020086765" lon="-2.827275032177568">
        <ele>946.07000000000005</ele>
        <time>2025-05-12T11:45:01Z</time>
      </trkpt>
      <trkpt lat="36.996310008689761" lon="-2.827176963910461">
        <ele>947.51999999999998</ele>
        <time>2025-05-12T11:45:02Z</time>
      </trkpt>
      <trkpt lat="36.996488040313125" lon="-2.827169001102448">
        <ele>948.48000000000002</ele>
        <time>2025-05-12T11:45:03Z</time>
      </trkpt>
      <trkpt lat="36.996683003380895" lon="-2.827160032466054">
        <ele>949.91999999999996</ele>
        <time>2025-05-12T11:45:04Z</time>
      </trkpt>
      <trkpt lat="36.996879978105426" lon="-2.827156009152532">
        <ele>951.36000000000001</ele>
        <time>2025-05-12T11:45:05Z</time>
      </trkpt>
      <trkpt lat="36.9974460080266" lon="-2.827114015817642">
        <ele>955.21000000000004</ele>
        <time>2025-05-12T11:45:08Z</time>
      </trkpt>
      <trkpt lat="36.997601995244622" lon="-2.827074034139514">
        <ele>956.16999999999996</ele>
        <time>2025-05-12T11:45:09Z</time>
      </trkpt>
      <trkpt lat="36.997741973027587" lon="-2.826975965872407">
        <ele>958.09000000000003</ele>
        <time>2025-05-12T11:45:10Z</time>
      </trkpt>
      <trkpt lat="36.997864013537765" lon="-2.826875969767571">
        <ele>959.52999999999997</ele>
        <time>2025-05-12T11:45:11Z</time>
      </trkpt>
      <trkpt lat="36.997934002429247" lon="-2.82670003362">
        <ele>960.98000000000002</ele>
        <time>2025-05-12T11:45:12Z</time>
      </trkpt>
      <trkpt lat="36.998008014634252" lon="-2.826516972854734">
        <ele>961.94000000000005</ele>
        <time>2025-05-12T11:45:13Z</time>
      </trkpt>
      <trkpt lat="36.998041961342096" lon="-2.826324021443725">
        <ele>963.86000000000001</ele>
        <time>2025-05-12T11:45:14Z</time>
      </trkpt>
      <trkpt lat="36.998062999919057" lon="-2.826116988435388">
        <ele>966.25999999999999</ele>
        <time>2025-05-12T11:45:15Z</time>
      </trkpt>
      <trkpt lat="36.998084960505366" lon="-2.82590601593256">
        <ele>968.66999999999996</ele>
        <time>2025-05-12T11:45:16Z</time>
      </trkpt>
      <trkpt lat="36.998152015730739" lon="-2.825707029551268">
        <ele>971.07000000000005</ele>
        <time>2025-05-12T11:45:17Z</time>
      </trkpt>
      <trkpt lat="36.998234996572137" lon="-2.825518017634749">
        <ele>972.50999999999999</ele>
        <time>2025-05-12T11:45:18Z</time>
      </trkpt>
      <trkpt lat="36.998362988233566" lon="-2.82539002597332">
        <ele>973.47000000000003</ele>
        <time>2025-05-12T11:45:19Z</time>
      </trkpt>
      <trkpt lat="36.99849902652204" lon="-2.82526396214962">
        <ele>974.90999999999997</ele>
        <time>2025-05-12T11:45:20Z</time>
      </trkpt>
      <trkpt lat="36.998658031225204" lon="-2.825191039592028">
        <ele>975.88</ele>
        <time>2025-05-12T11:45:21Z</time>
      </trkpt>
      <trkpt lat="36.998832039535046" lon="-2.825139993801713">
        <ele>976.84000000000003</ele>
        <time>2025-05-12T11:45:22Z</time>
      </trkpt>
      <trkpt lat="36.999010993167758" lon="-2.825088026002049">
        <ele>978.27999999999997</ele>
        <time>2025-05-12T11:45:23Z</time>
      </trkpt>
      <trkpt lat="36.999172009527683" lon="-2.824996998533607">
        <ele>979.24000000000001</ele>
        <time>2025-05-12T11:45:24Z</time>
      </trkpt>
      <trkpt lat="36.999321961775422" lon="-2.824898008257151">
        <ele>980.67999999999995</ele>
        <time>2025-05-12T11:45:25Z</time>
      </trkpt>
      <trkpt lat="36.999428998678923" lon="-2.824739003553987">
        <ele>982.12</ele>
        <time>2025-05-12T11:45:26Z</time>
      </trkpt>
      <trkpt lat="36.99950804002583" lon="-2.82455300912261">
        <ele>984.04999999999995</ele>
        <time>2025-05-12T11:45:27Z</time>
      </trkpt>
      <trkpt lat="36.999557996168733" lon="-2.824343964457512">
        <ele>985.49000000000001</ele>
        <time>2025-05-12T11:45:28Z</time>
      </trkpt>
      <trkpt lat="36.999570988118649" lon="-2.824113965034485">
        <ele>987.40999999999997</ele>
        <time>2025-05-12T11:45:29Z</time>
      </trkpt>
      <trkpt lat="36.999563025310636" lon="-2.823871979489923">
        <ele>988.85000000000002</ele>
        <time>2025-05-12T11:45:30Z</time>
      </trkpt>
      <trkpt lat="36.999436039477587" lon="-2.821784969419241">
        <ele>1003.27</ele>
        <time>2025-05-12T11:45:38Z</time>
      </trkpt>
      <trkpt lat="36.999459005892277" lon="-2.821142999455333">
        <ele>1007.6</ele>
        <time>2025-05-12T11:45:41Z</time>
      </trkpt>
      <trkpt lat="36.99950996786356" lon="-2.820951975882053">
        <ele>1008.08</ele>
        <time>2025-05-12T11:45:42Z</time>
      </trkpt>
      <trkpt lat="36.999603006988764" lon="-2.82079397700727">
        <ele>1008.5599999999999</ele>
        <time>2025-05-12T11:45:43Z</time>
      </trkpt>
      <trkpt lat="36.999718006700277" lon="-2.820644024759531">
        <ele>1009.04</ele>
        <time>2025-05-12T11:45:44Z</time>
      </trkpt>
      <trkpt lat="36.999856978654861" lon="-2.820563977584243">
        <ele>1009.04</ele>
        <time>2025-05-12T11:45:45Z</time>
      </trkpt>
      <trkpt lat="37.00000399723649" lon="-2.820503963157535">
        <ele>1009.04</ele>
        <time>2025-05-12T11:45:46Z</time>
      </trkpt>
      <trkpt lat="37.000164007768035" lon="-2.820517038926482">
        <ele>1009.04</ele>
        <time>2025-05-12T11:45:47Z</time>
      </trkpt>
      <trkpt lat="37.000313038006425" lon="-2.820565989241004">
        <ele>1008.5599999999999</ele>
        <time>2025-05-12T11:45:48Z</time>
      </trkpt>
      <trkpt lat="37.000447986647487" lon="-2.820683000609279">
        <ele>1008.08</ele>
        <time>2025-05-12T11:45:49Z</time>
      </trkpt>
      <trkpt lat="37.000580001622438" lon="-2.820818033069372">
        <ele>1008.08</ele>
        <time>2025-05-12T11:45:50Z</time>
      </trkpt>
      <trkpt lat="37.000689972192049" lon="-2.82100603915751">
        <ele>1008.08</ele>
        <time>2025-05-12T11:45:51Z</time>
      </trkpt>
      <trkpt lat="37.000812012702227" lon="-2.821194967254996">
        <ele>1007.6</ele>
        <time>2025-05-12T11:45:52Z</time>
      </trkpt>
      <trkpt lat="37.00094603933394" lon="-2.821364030241966">
        <ele>1007.12</ele>
        <time>2025-05-12T11:45:53Z</time>
      </trkpt>
      <trkpt lat="37.001089034602046" lon="-2.821504008024931">
        <ele>1006.64</ele>
        <time>2025-05-12T11:45:54Z</time>
      </trkpt>
      <trkpt lat="37.001253990456462" lon="-2.821598974987865">
        <ele>1006.16</ele>
        <time>2025-05-12T11:45:55Z</time>
      </trkpt>
      <trkpt lat="37.001432022079825" lon="-2.821616996079683">
        <ele>1005.2</ele>
        <time>2025-05-12T11:45:56Z</time>
      </trkpt>
      <trkpt lat="37.001601001247764" lon="-2.82158799469471">
        <ele>1004.23</ele>
        <time>2025-05-12T11:45:57Z</time>
      </trkpt>
      <trkpt lat="37.001753970980644" lon="-2.821511970832944">
        <ele>1002.79</ele>
        <time>2025-05-12T11:45:58Z</time>
      </trkpt>
      <trkpt lat="37.001906018704176" lon="-2.821403006091714">
        <ele>1001.35</ele>
        <time>2025-05-12T11:45:59Z</time>
      </trkpt>
      <trkpt lat="37.002019006758928" lon="-2.821225980296731">
        <ele>999.90999999999997</ele>
        <time>2025-05-12T11:46:00Z</time>
      </trkpt>
      <trkpt lat="37.002111040055752" lon="-2.821024982258678">
        <ele>998.95000000000005</ele>
        <time>2025-05-12T11:46:01Z</time>
      </trkpt>
      <trkpt lat="37.002207012847066" lon="-2.820818033069372">
        <ele>997.50999999999999</ele>
        <time>2025-05-12T11:46:02Z</time>
      </trkpt>
      <trkpt lat="37.002416979521513" lon="-2.820385023951531">
        <ele>995.10000000000002</ele>
        <time>2025-05-12T11:46:04Z</time>
      </trkpt>
      <trkpt lat="37.002557041123509" lon="-2.820181008428335">
        <ele>993.17999999999995</ele>
        <time>2025-05-12T11:46:05Z</time>
      </trkpt>
      <trkpt lat="37.002712022513151" lon="-2.819983027875423">
        <ele>991.74000000000001</ele>
        <time>2025-05-12T11:46:06Z</time>
      </trkpt>
      <trkpt lat="37.002870021387935" lon="-2.819780018180609">
        <ele>989.80999999999995</ele>
        <time>2025-05-12T11:46:07Z</time>
      </trkpt>
      <trkpt lat="37.00303397141397" lon="-2.819576002657414">
        <ele>987.88999999999999</ele>
        <time>2025-05-12T11:46:08Z</time>
      </trkpt>
      <trkpt lat="37.003884986042976" lon="-2.818198017776012">
        <ele>982.60000000000002</ele>
        <time>2025-05-12T11:46:14Z</time>
      </trkpt>
      <trkpt lat="37.004667017608881" lon="-2.815729966387153">
        <ele>973.95000000000005</ele>
        <time>2025-05-12T11:46:23Z</time>
      </trkpt>
      <trkpt lat="37.00472803786397" lon="-2.815445987507701">
        <ele>972.02999999999997</ele>
        <time>2025-05-12T11:46:24Z</time>
      </trkpt>
      <trkpt lat="37.00473197735846" lon="-2.815144993364811">
        <ele>970.59000000000003</ele>
        <time>2025-05-12T11:46:25Z</time>
      </trkpt>
      <trkpt lat="37.004717979580164" lon="-2.81484198756516">
        <ele>968.66999999999996</ele>
        <time>2025-05-12T11:46:26Z</time>
      </trkpt>
      <trkpt lat="37.004702975973487" lon="-2.814535964280367">
        <ele>967.22000000000003</ele>
        <time>2025-05-12T11:46:27Z</time>
      </trkpt>
      <trkpt lat="37.004641033709049" lon="-2.812717007473111">
        <ele>955.21000000000004</ele>
        <time>2025-05-12T11:46:33Z</time>
      </trkpt>
      <trkpt lat="37.004667017608881" lon="-2.812416013330221">
        <ele>953.27999999999997</ele>
        <time>2025-05-12T11:46:34Z</time>
      </trkpt>
      <trkpt lat="37.004720997065306" lon="-2.812124993652105">
        <ele>950.88</ele>
        <time>2025-05-12T11:46:35Z</time>
      </trkpt>
      <trkpt lat="37.004891987890005" lon="-2.811555024236441">
        <ele>947.51999999999998</ele>
        <time>2025-05-12T11:46:37Z</time>
      </trkpt>
      <trkpt lat="37.005016040056944" lon="-2.811299040913582">
        <ele>945.59000000000003</ele>
        <time>2025-05-12T11:46:38Z</time>
      </trkpt>
      <trkpt lat="37.005143025889993" lon="-2.811044985428453">
        <ele>944.14999999999998</ele>
        <time>2025-05-12T11:46:39Z</time>
      </trkpt>
      <trkpt lat="37.00531099922955" lon="-2.810838958248496">
        <ele>942.23000000000002</ele>
        <time>2025-05-12T11:46:40Z</time>
      </trkpt>
      <trkpt lat="37.005479978397489" lon="-2.810642989352346">
        <ele>941.26999999999998</ele>
        <time>2025-05-12T11:46:41Z</time>
      </trkpt>
      <trkpt lat="37.005658010020852" lon="-2.810454983264208">
        <ele>940.30999999999995</ele>
        <time>2025-05-12T11:46:42Z</time>
      </trkpt>
      <trkpt lat="37.005834029987454" lon="-2.810268988832831">
        <ele>939.83000000000004</ele>
        <time>2025-05-12T11:46:43Z</time>
      </trkpt>
      <trkpt lat="37.00677003711462" lon="-2.80912896618247">
        <ele>938.86000000000001</ele>
        <time>2025-05-12T11:46:49Z</time>
      </trkpt>
      <trkpt lat="37.006876990199089" lon="-2.808908019214869">
        <ele>939.35000000000002</ele>
        <time>2025-05-12T11:46:50Z</time>
      </trkpt>
      <trkpt lat="37.006957037374377" lon="-2.808658992871642">
        <ele>939.83000000000004</ele>
        <time>2025-05-12T11:46:51Z</time>
      </trkpt>
      <trkpt lat="37.007038006559014" lon="-2.808409966528416">
        <ele>940.30999999999995</ele>
        <time>2025-05-12T11:46:52Z</time>
      </trkpt>
      <trkpt lat="37.007099026814103" lon="-2.808158006519079">
        <ele>940.30999999999995</ele>
        <time>2025-05-12T11:46:53Z</time>
      </trkpt>
      <trkpt lat="37.007139008492231" lon="-2.807890037074685">
        <ele>940.78999999999996</ele>
        <time>2025-05-12T11:46:54Z</time>
      </trkpt>
      <trkpt lat="37.007168009877205" lon="-2.807620977982879">
        <ele>941.26999999999998</ele>
        <time>2025-05-12T11:46:55Z</time>
      </trkpt>
      <trkpt lat="37.007168009877205" lon="-2.807346973568201">
        <ele>941.75</ele>
        <time>2025-05-12T11:46:56Z</time>
      </trkpt>
      <trkpt lat="37.007168009877205" lon="-2.807071041315794">
        <ele>942.23000000000002</ele>
        <time>2025-05-12T11:46:57Z</time>
      </trkpt>
      <trkpt lat="37.007300024852157" lon="-2.805440006777644">
        <ele>945.59000000000003</ele>
        <time>2025-05-12T11:47:03Z</time>
      </trkpt>
      <trkpt lat="37.007363978773355" lon="-2.805187962949276">
        <ele>946.55999999999995</ele>
        <time>2025-05-12T11:47:04Z</time>
      </trkpt>
      <trkpt lat="37.007459029555321" lon="-2.804955029860139">
        <ele>947.51999999999998</ele>
        <time>2025-05-12T11:47:05Z</time>
      </trkpt>
      <trkpt lat="37.007555002346635" lon="-2.804720001295209">
        <ele>948.48000000000002</ele>
        <time>2025-05-12T11:47:06Z</time>
      </trkpt>
      <trkpt lat="37.007685005664825" lon="-2.804496958851814">
        <ele>948.96000000000004</ele>
        <time>2025-05-12T11:47:07Z</time>
      </trkpt>
      <trkpt lat="37.007820960134268" lon="-2.804285986348987">
        <ele>949.44000000000005</ele>
        <time>2025-05-12T11:47:08Z</time>
      </trkpt>
      <trkpt lat="37.008611038327217" lon="-2.802652018144727">
        <ele>944.63</ele>
        <time>2025-05-12T11:47:15Z</time>
      </trkpt>
      <trkpt lat="37.008702987805009" lon="-2.801821958273649">
        <ele>940.30999999999995</ele>
        <time>2025-05-12T11:47:18Z</time>
      </trkpt>
      <trkpt lat="37.008712962269783" lon="-2.801534961909056">
        <ele>938.86000000000001</ele>
        <time>2025-05-12T11:47:19Z</time>
      </trkpt>
      <trkpt lat="37.008697036653757" lon="-2.801248971372843">
        <ele>937.41999999999996</ele>
        <time>2025-05-12T11:47:20Z</time>
      </trkpt>
      <trkpt lat="37.008654959499836" lon="-2.800959041342139">
        <ele>935.98000000000002</ele>
        <time>2025-05-12T11:47:21Z</time>
      </trkpt>
      <trkpt lat="37.008599974215031" lon="-2.800672966986895">
        <ele>934.53999999999996</ele>
        <time>2025-05-12T11:47:22Z</time>
      </trkpt>
      <trkpt lat="37.008513975888491" lon="-2.800388988107443">
        <ele>933.10000000000002</ele>
        <time>2025-05-12T11:47:23Z</time>
      </trkpt>
      <trkpt lat="37.007754994556308" lon="-2.798639014363289">
        <ele>919.15999999999997</ele>
        <time>2025-05-12T11:47:30Z</time>
      </trkpt>
      <trkpt lat="37.007381999865174" lon="-2.797714993357658">
        <ele>912.90999999999997</ele>
        <time>2025-05-12T11:47:34Z</time>
      </trkpt>
      <trkpt lat="37.007335983216763" lon="-2.797466972842813">
        <ele>910.99000000000001</ele>
        <time>2025-05-12T11:47:35Z</time>
      </trkpt>
      <trkpt lat="37.007317962124944" lon="-2.797230016440153">
        <ele>909.53999999999996</ele>
        <time>2025-05-12T11:47:36Z</time>
      </trkpt>
      <trkpt lat="37.00732902623713" lon="-2.796991970390081">
        <ele>907.62</ele>
        <time>2025-05-12T11:47:37Z</time>
      </trkpt>
      <trkpt lat="37.007369007915258" lon="-2.796759037300944">
        <ele>906.17999999999995</ele>
        <time>2025-05-12T11:47:38Z</time>
      </trkpt>
      <trkpt lat="37.007417036220431" lon="-2.796529959887266">
        <ele>904.25999999999999</ele>
        <time>2025-05-12T11:47:39Z</time>
      </trkpt>
      <trkpt lat="37.007463974878192" lon="-2.796311024576426">
        <ele>902.82000000000005</ele>
        <time>2025-05-12T11:47:40Z</time>
      </trkpt>
      <trkpt lat="37.007505968213081" lon="-2.796108014881611">
        <ele>901.37</ele>
        <time>2025-05-12T11:47:41Z</time>
      </trkpt>
      <trkpt lat="37.007546033710241" lon="-2.795921014621854">
        <ele>900.40999999999997</ele>
        <time>2025-05-12T11:47:42Z</time>
      </trkpt>
      <trkpt lat="37.00767201371491" lon="-2.795377029106021">
        <ele>897.04999999999995</ele>
        <time>2025-05-12T11:47:46Z</time>
      </trkpt>
      <trkpt lat="37.007809979841113" lon="-2.795287007465959">
        <ele>896.57000000000005</ele>
        <time>2025-05-12T11:47:47Z</time>
      </trkpt>
      <trkpt lat="37.007896983996034" lon="-2.79526999220252">
        <ele>896.09000000000003</ele>
        <time>2025-05-12T11:47:48Z</time>
      </trkpt>
      <trkpt lat="37.008007038384676" lon="-2.79526999220252">
        <ele>896.09000000000003</ele>
        <time>2025-05-12T11:47:49Z</time>
      </trkpt>
      <trkpt lat="37.008087001740932" lon="-2.795201009139419">
        <ele>896.09000000000003</ele>
        <time>2025-05-12T11:47:50Z</time>
      </trkpt>
      <trkpt lat="37.008135030046105" lon="-2.795094978064299">
        <ele>895.61000000000001</ele>
        <time>2025-05-12T11:47:51Z</time>
      </trkpt>
      <trkpt lat="37.008143998682499" lon="-2.794943014159799">
        <ele>895.61000000000001</ele>
        <time>2025-05-12T11:47:52Z</time>
      </trkpt>
      <trkpt lat="37.008154978975654" lon="-2.794755008071661">
        <ele>895.61000000000001</ele>
        <time>2025-05-12T11:47:53Z</time>
      </trkpt>
      <trkpt lat="37.008140981197357" lon="-2.794594997540116">
        <ele>896.09000000000003</ele>
        <time>2025-05-12T11:47:54Z</time>
      </trkpt>
      <trkpt lat="37.008148021996021" lon="-2.794415960088372">
        <ele>896.57000000000005</ele>
        <time>2025-05-12T11:47:55Z</time>
      </trkpt>
      <trkpt lat="37.008178029209375" lon="-2.794246980920434">
        <ele>897.52999999999997</ele>
        <time>2025-05-12T11:47:56Z</time>
      </trkpt>
      <trkpt lat="37.0082320086658" lon="-2.794066015630961">
        <ele>898.49000000000001</ele>
        <time>2025-05-12T11:47:57Z</time>
      </trkpt>
      <trkpt lat="37.008313983678818" lon="-2.793907010927796">
        <ele>898.97000000000003</ele>
        <time>2025-05-12T11:47:58Z</time>
      </trkpt>
      <trkpt lat="37.008396964520216" lon="-2.79374398291111">
        <ele>899.92999999999995</ele>
        <time>2025-05-12T11:47:59Z</time>
      </trkpt>
      <trkpt lat="37.009152006357908" lon="-2.792537994682789">
        <ele>903.29999999999995</ele>
        <time>2025-05-12T11:48:07Z</time>
      </trkpt>
      <trkpt lat="37.009286032989621" lon="-2.792463982477784">
        <ele>903.29999999999995</ele>
        <time>2025-05-12T11:48:08Z</time>
      </trkpt>
      <trkpt lat="37.009429028257728" lon="-2.792396005243063">
        <ele>903.77999999999997</ele>
        <time>2025-05-12T11:48:09Z</time>
      </trkpt>
      <trkpt lat="37.010222962126136" lon="-2.79200398363173">
        <ele>905.70000000000005</ele>
        <time>2025-05-12T11:48:14Z</time>
      </trkpt>
      <trkpt lat="37.010375009849668" lon="-2.791927959769964">
        <ele>906.17999999999995</ele>
        <time>2025-05-12T11:48:15Z</time>
      </trkpt>
      <trkpt lat="37.01050903648138" lon="-2.79180902056396">
        <ele>906.65999999999997</ele>
        <time>2025-05-12T11:48:16Z</time>
      </trkpt>
      <trkpt lat="37.011386035010219" lon="-2.790992958471179">
        <ele>913.38999999999999</ele>
        <time>2025-05-12T11:48:24Z</time>
      </trkpt>
      <trkpt lat="37.011456023901701" lon="-2.790941996499896">
        <ele>914.35000000000002</ele>
        <time>2025-05-12T11:48:25Z</time>
      </trkpt>
      <trkpt lat="37.011708989739418" lon="-2.790661035105586">
        <ele>916.26999999999998</ele>
        <time>2025-05-12T11:48:29Z</time>
      </trkpt>
      <trkpt lat="37.011760035529733" lon="-2.790565984323621">
        <ele>916.75</ele>
        <time>2025-05-12T11:48:30Z</time>
      </trkpt>
      <trkpt lat="37.011787025257945" lon="-2.790454002097249">
        <ele>917.24000000000001</ele>
        <time>2025-05-12T11:48:31Z</time>
      </trkpt>
      <trkpt lat="37.0117980055511" lon="-2.790328022092581">
        <ele>917.72000000000003</ele>
        <time>2025-05-12T11:48:32Z</time>
      </trkpt>
      <trkpt lat="37.011787025257945" lon="-2.790202964097261">
        <ele>918.20000000000005</ele>
        <time>2025-05-12T11:48:33Z</time>
      </trkpt>
      <trkpt lat="37.01175601221621" lon="-2.79006902128458">
        <ele>918.67999999999995</ele>
        <time>2025-05-12T11:48:34Z</time>
      </trkpt>
      <trkpt lat="37.011701026931405" lon="-2.789932982996106">
        <ele>919.15999999999997</ele>
        <time>2025-05-12T11:48:35Z</time>
      </trkpt>
      <trkpt lat="37.01162600889802" lon="-2.789815971627832">
        <ele>919.15999999999997</ele>
        <time>2025-05-12T11:48:36Z</time>
      </trkpt>
      <trkpt lat="37.011409001424909" lon="-2.789476001635194">
        <ele>920.12</ele>
        <time>2025-05-12T11:48:39Z</time>
      </trkpt>
      <trkpt lat="37.011317973956466" lon="-2.78938296250999">
        <ele>920.12</ele>
        <time>2025-05-12T11:48:40Z</time>
      </trkpt>
      <trkpt lat="37.011229963973165" lon="-2.789300987496972">
        <ele>920.60000000000002</ele>
        <time>2025-05-12T11:48:41Z</time>
      </trkpt>
      <trkpt lat="37.011142959818244" lon="-2.789220018312335">
        <ele>921.08000000000004</ele>
        <time>2025-05-12T11:48:42Z</time>
      </trkpt>
      <trkpt lat="37.011080011725426" lon="-2.78912597335875">
        <ele>921.55999999999995</ele>
        <time>2025-05-12T11:48:43Z</time>
      </trkpt>
      <trkpt lat="37.011041035875678" lon="-2.788997981697321">
        <ele>922.51999999999998</ele>
        <time>2025-05-12T11:48:44Z</time>
      </trkpt>
      <trkpt lat="37.011002982035279" lon="-2.788868984207511">
        <ele>923.48000000000002</ele>
        <time>2025-05-12T11:48:45Z</time>
      </trkpt>
      <trkpt lat="37.010966017842293" lon="-2.788747027516365">
        <ele>924.45000000000005</ele>
        <time>2025-05-12T11:48:46Z</time>
      </trkpt>
      <trkpt lat="37.010973980650306" lon="-2.78862901031971">
        <ele>925.40999999999997</ele>
        <time>2025-05-12T11:48:47Z</time>
      </trkpt>
      <trkpt lat="37.010983033105731" lon="-2.788508981466293">
        <ele>926.37</ele>
        <time>2025-05-12T11:48:48Z</time>
      </trkpt>
      <trkpt lat="37.011008011177182" lon="-2.788412002846599">
        <ele>926.85000000000002</ele>
        <time>2025-05-12T11:48:49Z</time>
      </trkpt>
      <trkpt lat="37.011069031432271" lon="-2.788315024226904">
        <ele>927.80999999999995</ele>
        <time>2025-05-12T11:48:50Z</time>
      </trkpt>
      <trkpt lat="37.011143965646625" lon="-2.788237994536758">
        <ele>928.76999999999998</ele>
        <time>2025-05-12T11:48:51Z</time>
      </trkpt>
      <trkpt lat="37.011235998943448" lon="-2.788165993988514">
        <ele>929.25</ele>
        <time>2025-05-12T11:48:52Z</time>
      </trkpt>
      <trkpt lat="37.011329960078001" lon="-2.788089970126748">
        <ele>930.21000000000004</ele>
        <time>2025-05-12T11:48:53Z</time>
      </trkpt>
      <trkpt lat="37.012441987171769" lon="-2.787280026823282">
        <ele>939.35000000000002</ele>
        <time>2025-05-12T11:49:03Z</time>
      </trkpt>
      <trkpt lat="37.012521028518677" lon="-2.787176007404923">
        <ele>939.83000000000004</ele>
        <time>2025-05-12T11:49:04Z</time>
      </trkpt>
      <trkpt lat="37.012570984661579" lon="-2.787050027400255">
        <ele>940.78999999999996</ele>
        <time>2025-05-12T11:49:05Z</time>
      </trkpt>
      <trkpt lat="37.012610966339707" lon="-2.786907032132149">
        <ele>941.75</ele>
        <time>2025-05-12T11:49:06Z</time>
      </trkpt>
      <trkpt lat="37.012639967724681" lon="-2.786747021600604">
        <ele>942.71000000000004</ele>
        <time>2025-05-12T11:49:07Z</time>
      </trkpt>
      <trkpt lat="37.012670980766416" lon="-2.786577958613634">
        <ele>943.66999999999996</ele>
        <time>2025-05-12T11:49:08Z</time>
      </trkpt>
      <trkpt lat="37.01270199380815" lon="-2.786408979445696">
        <ele>944.63</ele>
        <time>2025-05-12T11:49:09Z</time>
      </trkpt>
      <trkpt lat="37.012740969657898" lon="-2.786243017762899">
        <ele>945.59000000000003</ele>
        <time>2025-05-12T11:49:10Z</time>
      </trkpt>
      <trkpt lat="37.01281095854938" lon="-2.786089964210987">
        <ele>947.03999999999996</ele>
        <time>2025-05-12T11:49:11Z</time>
      </trkpt>
      <trkpt lat="37.012912966310978" lon="-2.785949986428022">
        <ele>948.48000000000002</ele>
        <time>2025-05-12T11:49:12Z</time>
      </trkpt>
      <trkpt lat="37.01302201487124" lon="-2.785823000594974">
        <ele>949.44000000000005</ele>
        <time>2025-05-12T11:49:13Z</time>
      </trkpt>
      <trkpt lat="37.01332401484251" lon="-2.785427961498499">
        <ele>953.76999999999998</ele>
        <time>2025-05-12T11:49:16Z</time>
      </trkpt>
      <trkpt lat="37.013394003733993" lon="-2.78527700342238">
        <ele>955.21000000000004</ele>
        <time>2025-05-12T11:49:17Z</time>
      </trkpt>
      <trkpt lat="37.01341001316905" lon="-2.785104000940919">
        <ele>956.64999999999998</ele>
        <time>2025-05-12T11:49:18Z</time>
      </trkpt>
      <trkpt lat="37.013392997905612" lon="-2.784935021772981">
        <ele>957.61000000000001</ele>
        <time>2025-05-12T11:49:19Z</time>
      </trkpt>
      <trkpt lat="37.013318985700607" lon="-2.784766964614391">
        <ele>959.04999999999995</ele>
        <time>2025-05-12T11:49:20Z</time>
      </trkpt>
      <trkpt lat="37.013234999030828" lon="-2.784605026245117">
        <ele>960.98000000000002</ele>
        <time>2025-05-12T11:49:21Z</time>
      </trkpt>
      <trkpt lat="37.01278698630631" lon="-2.783820983022451">
        <ele>968.17999999999995</ele>
        <time>2025-05-12T11:49:26Z</time>
      </trkpt>
      <trkpt lat="37.012756979092956" lon="-2.783681005239487">
        <ele>969.14999999999998</ele>
        <time>2025-05-12T11:49:27Z</time>
      </trkpt>
      <trkpt lat="37.012747004628181" lon="-2.783574974164367">
        <ele>970.11000000000001</ele>
        <time>2025-05-12T11:49:28Z</time>
      </trkpt>
      <trkpt lat="37.012798972427845" lon="-2.783399960026145">
        <ele>971.54999999999995</ele>
        <time>2025-05-12T11:49:29Z</time>
      </trkpt>
      <trkpt lat="37.012871978804469" lon="-2.783289989456534">
        <ele>972.50999999999999</ele>
        <time>2025-05-12T11:49:30Z</time>
      </trkpt>
      <trkpt lat="37.012977004051208" lon="-2.783189993351698">
        <ele>972.99000000000001</ele>
        <time>2025-05-12T11:49:31Z</time>
      </trkpt>
      <trkpt lat="37.013113964349031" lon="-2.783115981146693">
        <ele>973.95000000000005</ele>
        <time>2025-05-12T11:49:32Z</time>
      </trkpt>
      <trkpt lat="37.013251008465886" lon="-2.783082034438849">
        <ele>974.90999999999997</ele>
        <time>2025-05-12T11:49:33Z</time>
      </trkpt>
      <trkpt lat="37.013394003733993" lon="-2.783097960054874">
        <ele>975.38999999999999</ele>
        <time>2025-05-12T11:49:34Z</time>
      </trkpt>
      <trkpt lat="37.013544961810112" lon="-2.78315001167357">
        <ele>975.88</ele>
        <time>2025-05-12T11:49:35Z</time>
      </trkpt>
      <trkpt lat="37.013702038675547" lon="-2.783204996958375">
        <ele>976.36000000000001</ele>
        <time>2025-05-12T11:49:36Z</time>
      </trkpt>
      <trkpt lat="37.013849979266524" lon="-2.783252019435167">
        <ele>976.84000000000003</ele>
        <time>2025-05-12T11:49:37Z</time>
      </trkpt>
      <trkpt lat="37.013984005898237" lon="-2.78323601000011">
        <ele>976.84000000000003</ele>
        <time>2025-05-12T11:49:38Z</time>
      </trkpt>
      <trkpt lat="37.014103028923273" lon="-2.783156968653202">
        <ele>976.84000000000003</ele>
        <time>2025-05-12T11:49:39Z</time>
      </trkpt>
      <trkpt lat="37.014177041128278" lon="-2.783040041103959">
        <ele>977.32000000000005</ele>
        <time>2025-05-12T11:49:40Z</time>
      </trkpt>
      <trkpt lat="37.014233032241464" lon="-2.782905008643866">
        <ele>977.79999999999995</ele>
        <time>2025-05-12T11:49:41Z</time>
      </trkpt>
      <trkpt lat="37.014234960079193" lon="-2.782749021425843">
        <ele>978.27999999999997</ele>
        <time>2025-05-12T11:49:42Z</time>
      </trkpt>
      <trkpt lat="37.014216016978025" lon="-2.782581970095635">
        <ele>979.24000000000001</ele>
        <time>2025-05-12T11:49:43Z</time>
      </trkpt>
      <trkpt lat="37.014195984229445" lon="-2.782402010634542">
        <ele>980.20000000000005</ele>
        <time>2025-05-12T11:49:44Z</time>
      </trkpt>
      <trkpt lat="37.014154996722937" lon="-2.782044019550085">
        <ele>981.63999999999999</ele>
        <time>2025-05-12T11:49:46Z</time>
      </trkpt>
      <trkpt lat="37.014119038358331" lon="-2.78188300319016">
        <ele>982.60000000000002</ele>
        <time>2025-05-12T11:49:47Z</time>
      </trkpt>
      <trkpt lat="37.014037985354662" lon="-2.781737996265292">
        <ele>983.57000000000005</ele>
        <time>2025-05-12T11:49:48Z</time>
      </trkpt>
      <trkpt lat="37.013938995078206" lon="-2.781570022925735">
        <ele>984.52999999999997</ele>
        <time>2025-05-12T11:49:49Z</time>
      </trkpt>
      <trkpt lat="37.013803040608764" lon="-2.781434990465641">
        <ele>985.00999999999999</ele>
        <time>2025-05-12T11:49:50Z</time>
      </trkpt>
      <trkpt lat="37.013659039512277" lon="-2.781291995197535">
        <ele>985.97000000000003</ele>
        <time>2025-05-12T11:49:51Z</time>
      </trkpt>
      <trkpt lat="37.01351503841579" lon="-2.781166015192866">
        <ele>986.45000000000005</ele>
        <time>2025-05-12T11:49:52Z</time>
      </trkpt>
      <trkpt lat="37.013175990432501" lon="-2.780870972201228">
        <ele>988.37</ele>
        <time>2025-05-12T11:49:55Z</time>
      </trkpt>
      <trkpt lat="37.013095021247864" lon="-2.780729988589883">
        <ele>988.85000000000002</ele>
        <time>2025-05-12T11:49:56Z</time>
      </trkpt>
      <trkpt lat="37.013003993779421" lon="-2.780570983886719">
        <ele>989.33000000000004</ele>
        <time>2025-05-12T11:49:57Z</time>
      </trkpt>
      <trkpt lat="37.012981027364731" lon="-2.780409967526794">
        <ele>989.80999999999995</ele>
        <time>2025-05-12T11:49:58Z</time>
      </trkpt>
      <trkpt lat="37.012954037636518" lon="-2.780221961438656">
        <ele>990.77999999999997</ele>
        <time>2025-05-12T11:49:59Z</time>
      </trkpt>
      <trkpt lat="37.012927969917655" lon="-2.780034961178899">
        <ele>991.74000000000001</ele>
        <time>2025-05-12T11:50:00Z</time>
      </trkpt>
      <trkpt lat="37.012901986017823" lon="-2.779857013374567">
        <ele>992.22000000000003</ele>
        <time>2025-05-12T11:50:01Z</time>
      </trkpt>
      <trkpt lat="37.012939034029841" lon="-2.779675964266062">
        <ele>993.17999999999995</ele>
        <time>2025-05-12T11:50:02Z</time>
      </trkpt>
      <trkpt lat="37.012995025143027" lon="-2.779484018683434">
        <ele>993.65999999999997</ele>
        <time>2025-05-12T11:50:03Z</time>
      </trkpt>
      <trkpt lat="37.013053027912974" lon="-2.779286038130522">
        <ele>994.62</ele>
        <time>2025-05-12T11:50:04Z</time>
      </trkpt>
      <trkpt lat="37.013415964320302" lon="-2.778224973008037">
        <ele>998.47000000000003</ele>
        <time>2025-05-12T11:50:09Z</time>
      </trkpt>
      <trkpt lat="37.0135179720819" lon="-2.778049958869815">
        <ele>998.95000000000005</ele>
        <time>2025-05-12T11:50:10Z</time>
      </trkpt>
      <trkpt lat="37.013639006763697" lon="-2.777890032157302">
        <ele>999.90999999999997</ele>
        <time>2025-05-12T11:50:11Z</time>
      </trkpt>
      <trkpt lat="37.014172011986375" lon="-2.777305981144309">
        <ele>1004.72</ele>
        <time>2025-05-12T11:50:15Z</time>
      </trkpt>
      <trkpt lat="37.014303021132946" lon="-2.777206990867853">
        <ele>1005.6799999999999</ele>
        <time>2025-05-12T11:50:16Z</time>
      </trkpt>
      <trkpt lat="37.01444199308753" lon="-2.777138007804751">
        <ele>1006.64</ele>
        <time>2025-05-12T11:50:17Z</time>
      </trkpt>
      <trkpt lat="37.014597980305552" lon="-2.777138007804751">
        <ele>1007.6</ele>
        <time>2025-05-12T11:50:18Z</time>
      </trkpt>
      <trkpt lat="37.014766959473491" lon="-2.777138007804751">
        <ele>1008.5599999999999</ele>
        <time>2025-05-12T11:50:19Z</time>
      </trkpt>
      <trkpt lat="37.014947002753615" lon="-2.777138007804751">
        <ele>1009.04</ele>
        <time>2025-05-12T11:50:20Z</time>
      </trkpt>
      <trkpt lat="37.015130985528231" lon="-2.777082016691566">
        <ele>1010</ele>
        <time>2025-05-12T11:50:21Z</time>
      </trkpt>
      <trkpt lat="37.015829030424356" lon="-2.776715978980064">
        <ele>1014.33</ele>
        <time>2025-05-12T11:50:25Z</time>
      </trkpt>
      <trkpt lat="37.01594403013587" lon="-2.776600979268551">
        <ele>1015.29</ele>
        <time>2025-05-12T11:50:26Z</time>
      </trkpt>
      <trkpt lat="37.016044026240706" lon="-2.7764240372926">
        <ele>1016.73</ele>
        <time>2025-05-12T11:50:27Z</time>
      </trkpt>
      <trkpt lat="37.016249969601631" lon="-2.776111979037523">
        <ele>1019.13</ele>
        <time>2025-05-12T11:50:29Z</time>
      </trkpt>
      <trkpt lat="37.016368992626667" lon="-2.775967977941036">
        <ele>1020.58</ele>
        <time>2025-05-12T11:50:30Z</time>
      </trkpt>
      <trkpt lat="37.016507964581251" lon="-2.775878962129355">
        <ele>1022.02</ele>
        <time>2025-05-12T11:50:31Z</time>
      </trkpt>
      <trkpt lat="37.016661018133163" lon="-2.775829005986452">
        <ele>1022.98</ele>
        <time>2025-05-12T11:50:32Z</time>
      </trkpt>
      <trkpt lat="37.016827985644341" lon="-2.775829005986452">
        <ele>1023.9400000000001</ele>
        <time>2025-05-12T11:50:33Z</time>
      </trkpt>
      <trkpt lat="37.017005011439323" lon="-2.775829005986452">
        <ele>1025.3800000000001</ele>
        <time>2025-05-12T11:50:34Z</time>
      </trkpt>
      <trkpt lat="37.0171910058707" lon="-2.775834035128355">
        <ele>1026.3399999999999</ele>
        <time>2025-05-12T11:50:35Z</time>
      </trkpt>
      <trkpt lat="37.018104968592525" lon="-2.775820037350059">
        <ele>1032.1099999999999</ele>
        <time>2025-05-12T11:50:40Z</time>
      </trkpt>
      <trkpt lat="37.018250981345773" lon="-2.775715012103319">
        <ele>1033.0699999999999</ele>
        <time>2025-05-12T11:50:41Z</time>
      </trkpt>
      <trkpt lat="37.01839498244226" lon="-2.77558802627027">
        <ele>1034.04</ele>
        <time>2025-05-12T11:50:42Z</time>
      </trkpt>
      <trkpt lat="37.019366025924683" lon="-2.774495026096702">
        <ele>1039.3199999999999</ele>
        <time>2025-05-12T11:50:49Z</time>
      </trkpt>
      <trkpt lat="37.019455963745713" lon="-2.774306014180183">
        <ele>1040.28</ele>
        <time>2025-05-12T11:50:50Z</time>
      </trkpt>
      <trkpt lat="37.019547997042537" lon="-2.774110967293382">
        <ele>1041.25</ele>
        <time>2025-05-12T11:50:51Z</time>
      </trkpt>
      <trkpt lat="37.020011013373733" lon="-2.773240003734827">
        <ele>1047.01</ele>
        <time>2025-05-12T11:50:56Z</time>
      </trkpt>
      <trkpt lat="37.020106986165047" lon="-2.773125004023314">
        <ele>1047.97</ele>
        <time>2025-05-12T11:50:57Z</time>
      </trkpt>
      <trkpt lat="37.020244030281901" lon="-2.773083010688424">
        <ele>1048.9400000000001</ele>
        <time>2025-05-12T11:50:58Z</time>
      </trkpt>
      <trkpt lat="37.020386019721627" lon="-2.773039005696774">
        <ele>1049.9000000000001</ele>
        <time>2025-05-12T11:50:59Z</time>
      </trkpt>
      <trkpt lat="37.020528009161353" lon="-2.773039005696774">
        <ele>1050.8599999999999</ele>
        <time>2025-05-12T11:51:00Z</time>
      </trkpt>
      <trkpt lat="37.020639991387725" lon="-2.773073958232999">
        <ele>1051.8199999999999</ele>
        <time>2025-05-12T11:51:01Z</time>
      </trkpt>
      <trkpt lat="37.020763037726283" lon="-2.773144030943513">
        <ele>1052.78</ele>
        <time>2025-05-12T11:51:02Z</time>
      </trkpt>
      <trkpt lat="37.020894968882203" lon="-2.773218965157867">
        <ele>1053.26</ele>
        <time>2025-05-12T11:51:03Z</time>
      </trkpt>
      <trkpt lat="37.021032012999058" lon="-2.773295994848013">
        <ele>1054.22</ele>
        <time>2025-05-12T11:51:04Z</time>
      </trkpt>
      <trkpt lat="37.021169979125261" lon="-2.77337403036654">
        <ele>1054.7</ele>
        <time>2025-05-12T11:51:05Z</time>
      </trkpt>
      <trkpt lat="37.021327978000045" lon="-2.773422980681062">
        <ele>1055.6700000000001</ele>
        <time>2025-05-12T11:51:06Z</time>
      </trkpt>
      <trkpt lat="37.021618997678161" lon="-2.773476038128138">
        <ele>1057.5899999999999</ele>
        <time>2025-05-12T11:51:08Z</time>
      </trkpt>
      <trkpt lat="37.021752018481493" lon="-2.773464974015951">
        <ele>1058.55</ele>
        <time>2025-05-12T11:51:09Z</time>
      </trkpt>
      <trkpt lat="37.0218759868294" lon="-2.773412000387907">
        <ele>1059.51</ele>
        <time>2025-05-12T11:51:10Z</time>
      </trkpt>
      <trkpt lat="37.022003978490829" lon="-2.773358020931482">
        <ele>1060.47</ele>
        <time>2025-05-12T11:51:11Z</time>
      </trkpt>
      <trkpt lat="37.022144962102175" lon="-2.773297000676394">
        <ele>1060.95</ele>
        <time>2025-05-12T11:51:12Z</time>
      </trkpt>
      <trkpt lat="37.022263985127211" lon="-2.77320496737957">
        <ele>1061.4300000000001</ele>
        <time>2025-05-12T11:51:13Z</time>
      </trkpt>
      <trkpt lat="37.022380996495485" lon="-2.773089967668057">
        <ele>1062.3900000000001</ele>
        <time>2025-05-12T11:51:14Z</time>
      </trkpt>
      <trkpt lat="37.022483004257083" lon="-2.772953007370234">
        <ele>1062.8699999999999</ele>
        <time>2025-05-12T11:51:15Z</time>
      </trkpt>
      <trkpt lat="37.022560033947229" lon="-2.772789979353547">
        <ele>1062.8699999999999</ele>
        <time>2025-05-12T11:51:16Z</time>
      </trkpt>
      <trkpt lat="37.022618036717176" lon="-2.772591998800635">
        <ele>1063.8399999999999</ele>
        <time>2025-05-12T11:51:17Z</time>
      </trkpt>
      <trkpt lat="37.022676961496472" lon="-2.772391000762582">
        <ele>1064.8</ele>
        <time>2025-05-12T11:51:18Z</time>
      </trkpt>
      <trkpt lat="37.022789027541876" lon="-2.772009037435055">
        <ele>1066.24</ele>
        <time>2025-05-12T11:51:20Z</time>
      </trkpt>
      <trkpt lat="37.022891035303473" lon="-2.771851038560271">
        <ele>1066.72</ele>
        <time>2025-05-12T11:51:21Z</time>
      </trkpt>
      <trkpt lat="37.023538034409285" lon="-2.770812017843127">
        <ele>1071.05</ele>
        <time>2025-05-12T11:51:27Z</time>
      </trkpt>
      <trkpt lat="37.023626966401935" lon="-2.770600039511919">
        <ele>1071.05</ele>
        <time>2025-05-12T11:51:28Z</time>
      </trkpt>
      <trkpt lat="37.023695027455688" lon="-2.770360987633467">
        <ele>1070.5699999999999</ele>
        <time>2025-05-12T11:51:29Z</time>
      </trkpt>
      <trkpt lat="37.023746995255351" lon="-2.770107015967369">
        <ele>1070.0799999999999</ele>
        <time>2025-05-12T11:51:30Z</time>
      </trkpt>
      <trkpt lat="37.023777002468705" lon="-2.76982999406755">
        <ele>1069.5999999999999</ele>
        <time>2025-05-12T11:51:31Z</time>
      </trkpt>
      <trkpt lat="37.023797035217285" lon="-2.769540986046195">
        <ele>1069.1199999999999</ele>
        <time>2025-05-12T11:51:32Z</time>
      </trkpt>
      <trkpt lat="37.023794017732143" lon="-2.769240997731686">
        <ele>1068.1600000000001</ele>
        <time>2025-05-12T11:51:33Z</time>
      </trkpt>
      <trkpt lat="37.023763004690409" lon="-2.766614025458694">
        <ele>1061.4300000000001</ele>
        <time>2025-05-12T11:51:42Z</time>
      </trkpt>
      <trkpt lat="37.023755041882396" lon="-2.765989992767572">
        <ele>1059.03</ele>
        <time>2025-05-12T11:51:46Z</time>
      </trkpt>
      <trkpt lat="37.023755041882396" lon="-2.765600988641381">
        <ele>1055.6700000000001</ele>
        <time>2025-05-12T11:51:53Z</time>
      </trkpt>
      <trkpt lat="37.023792006075382" lon="-2.765337964519858">
        <ele>1051.8199999999999</ele>
        <time>2025-05-12T11:52:07Z</time>
      </trkpt>
      <trkpt lat="37.023796029388905" lon="-2.765321033075452">
        <ele>1051.3399999999999</ele>
        <time>2025-05-12T11:52:21Z</time>
      </trkpt>
      <trkpt lat="37.023796029388905" lon="-2.765321033075452">
        <ele>1051.3399999999999</ele>
        <time>2025-05-12T11:53:05Z</time>
      </trkpt>
      <trkpt lat="37.023796029388905" lon="-2.765321033075452">
        <ele>1051.8199999999999</ele>
        <time>2025-05-12T11:53:55Z</time>
      </trkpt>
      <trkpt lat="37.023822013288736" lon="-2.765206033363938">
        <ele>1051.8199999999999</ele>
        <time>2025-05-12T11:54:23Z</time>
      </trkpt>
      <trkpt lat="37.024018988013268" lon="-2.764770006760955">
        <ele>1049.9000000000001</ele>
        <time>2025-05-12T11:54:28Z</time>
      </trkpt>
      <trkpt lat="37.024085037410259" lon="-2.76469498872757">
        <ele>1049.4200000000001</ele>
        <time>2025-05-12T11:54:29Z</time>
      </trkpt>
      <trkpt lat="37.024290980771184" lon="-2.764456020668149">
        <ele>1047.49</ele>
        <time>2025-05-12T11:54:32Z</time>
      </trkpt>
      <trkpt lat="37.024393994361162" lon="-2.7643739618361">
        <ele>1047.01</ele>
        <time>2025-05-12T11:54:33Z</time>
      </trkpt>
      <trkpt lat="37.024479992687702" lon="-2.764304978772998">
        <ele>1046.05</ele>
        <time>2025-05-12T11:54:34Z</time>
      </trkpt>
      <trkpt lat="37.024564985185862" lon="-2.764301961287856">
        <ele>1045.5699999999999</ele>
        <time>2025-05-12T11:54:35Z</time>
      </trkpt>
      <trkpt lat="37.024651989340782" lon="-2.7643290348351">
        <ele>1045.0899999999999</ele>
        <time>2025-05-12T11:54:36Z</time>
      </trkpt>
      <trkpt lat="37.02473497018218" lon="-2.764359964057803">
        <ele>1044.6099999999999</ele>
        <time>2025-05-12T11:54:37Z</time>
      </trkpt>
      <trkpt lat="37.024814011529088" lon="-2.76441796682775">
        <ele>1044.6099999999999</ele>
        <time>2025-05-12T11:54:38Z</time>
      </trkpt>
      <trkpt lat="37.025086004287004" lon="-2.764618964865804">
        <ele>1045.0899999999999</ele>
        <time>2025-05-12T11:54:41Z</time>
      </trkpt>
      <trkpt lat="37.025190023705363" lon="-2.76469599455595">
        <ele>1045.0899999999999</ele>
        <time>2025-05-12T11:54:42Z</time>
      </trkpt>
      <trkpt lat="37.025310974568129" lon="-2.764742011204362">
        <ele>1045.5699999999999</ele>
        <time>2025-05-12T11:54:43Z</time>
      </trkpt>
      <trkpt lat="37.025436032563448" lon="-2.764776963740587">
        <ele>1046.05</ele>
        <time>2025-05-12T11:54:44Z</time>
      </trkpt>
      <trkpt lat="37.025553965941072" lon="-2.764810994267464">
        <ele>1047.01</ele>
        <time>2025-05-12T11:54:45Z</time>
      </trkpt>
      <trkpt lat="37.025664020329714" lon="-2.764842007309198">
        <ele>1047.97</ele>
        <time>2025-05-12T11:54:46Z</time>
      </trkpt>
      <trkpt lat="37.025730991736054" lon="-2.764949966222048">
        <ele>1048.45</ele>
        <time>2025-05-12T11:54:47Z</time>
      </trkpt>
      <trkpt lat="37.025802992284298" lon="-2.765066977590323">
        <ele>1048.9400000000001</ele>
        <time>2025-05-12T11:54:48Z</time>
      </trkpt>
      <trkpt lat="37.025877004489303" lon="-2.765186000615358">
        <ele>1049.9000000000001</ele>
        <time>2025-05-12T11:54:49Z</time>
      </trkpt>
      <trkpt lat="37.025941964238882" lon="-2.765291025862098">
        <ele>1050.3800000000001</ele>
        <time>2025-05-12T11:54:50Z</time>
      </trkpt>
      <trkpt lat="37.026027040556073" lon="-2.765349028632045">
        <ele>1050.8599999999999</ele>
        <time>2025-05-12T11:54:51Z</time>
      </trkpt>
      <trkpt lat="37.026101974770427" lon="-2.765367971733213">
        <ele>1050.8599999999999</ele>
        <time>2025-05-12T11:54:52Z</time>
      </trkpt>
      <trkpt lat="37.026177998632193" lon="-2.765338970348239">
        <ele>1050.8599999999999</ele>
        <time>2025-05-12T11:54:53Z</time>
      </trkpt>
      <trkpt lat="37.026249999180436" lon="-2.765292031690478">
        <ele>1050.8599999999999</ele>
        <time>2025-05-12T11:54:54Z</time>
      </trkpt>
      <trkpt lat="37.02628000639379" lon="-2.76518801227212">
        <ele>1051.3399999999999</ele>
        <time>2025-05-12T11:54:55Z</time>
      </trkpt>
      <trkpt lat="37.02627900056541" lon="-2.765068989247084">
        <ele>1051.3399999999999</ele>
        <time>2025-05-12T11:54:56Z</time>
      </trkpt>
      <trkpt lat="37.026267014443874" lon="-2.764925993978977">
        <ele>1051.3399999999999</ele>
        <time>2025-05-12T11:54:57Z</time>
      </trkpt>
      <trkpt lat="37.026199959218502" lon="-2.764408998191357">
        <ele>1051.8199999999999</ele>
        <time>2025-05-12T11:55:00Z</time>
      </trkpt>
      <trkpt lat="37.025942970067263" lon="-2.763419011607766">
        <ele>1049.4200000000001</ele>
        <time>2025-05-12T11:55:05Z</time>
      </trkpt>
      <trkpt lat="37.025855965912342" lon="-2.763266041874886">
        <ele>1048.45</ele>
        <time>2025-05-12T11:55:06Z</time>
      </trkpt>
      <trkpt lat="37.025696961209178" lon="-2.762986002489924">
        <ele>1046.53</ele>
        <time>2025-05-12T11:55:08Z</time>
      </trkpt>
      <trkpt lat="37.02563401311636" lon="-2.762843007221818">
        <ele>1045.5699999999999</ele>
        <time>2025-05-12T11:55:09Z</time>
      </trkpt>
      <trkpt lat="37.025600988417864" lon="-2.762660030275583">
        <ele>1044.6099999999999</ele>
        <time>2025-05-12T11:55:10Z</time>
      </trkpt>
      <trkpt lat="37.025474002584815" lon="-2.761871963739395">
        <ele>1041.25</ele>
        <time>2025-05-12T11:55:14Z</time>
      </trkpt>
      <trkpt lat="37.025481965392828" lon="-2.761669959872961">
        <ele>1040.28</ele>
        <time>2025-05-12T11:55:15Z</time>
      </trkpt>
      <trkpt lat="37.025489006191492" lon="-2.761470973491669">
        <ele>1039.3199999999999</ele>
        <time>2025-05-12T11:55:16Z</time>
      </trkpt>
      <trkpt lat="37.025521025061607" lon="-2.761291014030576">
        <ele>1038.3599999999999</ele>
        <time>2025-05-12T11:55:17Z</time>
      </trkpt>
      <trkpt lat="37.025573998689651" lon="-2.761107031255961">
        <ele>1036.9200000000001</ele>
        <time>2025-05-12T11:55:18Z</time>
      </trkpt>
      <trkpt lat="37.025627978146076" lon="-2.760922964662314">
        <ele>1035.48</ele>
        <time>2025-05-12T11:55:19Z</time>
      </trkpt>
      <trkpt lat="37.02567801810801" lon="-2.760750968009234">
        <ele>1034.04</ele>
        <time>2025-05-12T11:55:20Z</time>
      </trkpt>
      <trkpt lat="37.025639964267612" lon="-2.76059003546834">
        <ele>1032.5899999999999</ele>
        <time>2025-05-12T11:55:21Z</time>
      </trkpt>
      <trkpt lat="37.025581039488316" lon="-2.760419966652989">
        <ele>1031.1500000000001</ele>
        <time>2025-05-12T11:55:22Z</time>
      </trkpt>
      <trkpt lat="37.025521025061607" lon="-2.760244030505419">
        <ele>1029.71</ele>
        <time>2025-05-12T11:55:23Z</time>
      </trkpt>
      <trkpt lat="37.025450030341744" lon="-2.759917974472046">
        <ele>1027.3099999999999</ele>
        <time>2025-05-12T11:55:25Z</time>
      </trkpt>
      <trkpt lat="37.025433015078306" lon="-2.75977598503232">
        <ele>1025.8599999999999</ele>
        <time>2025-05-12T11:55:26Z</time>
      </trkpt>
      <trkpt lat="37.025454975664616" lon="-2.759644975885749">
        <ele>1023.9400000000001</ele>
        <time>2025-05-12T11:55:27Z</time>
      </trkpt>
      <trkpt lat="37.025498980656266" lon="-2.759492006152868">
        <ele>1022.98</ele>
        <time>2025-05-12T11:55:28Z</time>
      </trkpt>
      <trkpt lat="37.025547008961439" lon="-2.759325038641691">
        <ele>1021.54</ele>
        <time>2025-05-12T11:55:29Z</time>
      </trkpt>
      <trkpt lat="37.025598976761103" lon="-2.759146001189947">
        <ele>1020.1</ele>
        <time>2025-05-12T11:55:30Z</time>
      </trkpt>
      <trkpt lat="37.025630995631218" lon="-2.758949026465416">
        <ele>1019.13</ele>
        <time>2025-05-12T11:55:31Z</time>
      </trkpt>
      <trkpt lat="37.025648010894656" lon="-2.758750040084124">
        <ele>1018.17</ele>
        <time>2025-05-12T11:55:32Z</time>
      </trkpt>
      <trkpt lat="37.025667037814856" lon="-2.758546024560928">
        <ele>1016.73</ele>
        <time>2025-05-12T11:55:33Z</time>
      </trkpt>
      <trkpt lat="37.025729985907674" lon="-2.758364975452423">
        <ele>1015.29</ele>
        <time>2025-05-12T11:55:34Z</time>
      </trkpt>
      <trkpt lat="37.025853032246232" lon="-2.758007990196347">
        <ele>1012.41</ele>
        <time>2025-05-12T11:55:36Z</time>
      </trkpt>
      <trkpt lat="37.025887984782457" lon="-2.757805986329913">
        <ele>1010.48</ele>
        <time>2025-05-12T11:55:37Z</time>
      </trkpt>
      <trkpt lat="37.02591497451067" lon="-2.757440032437444">
        <ele>1007.6</ele>
        <time>2025-05-12T11:55:39Z</time>
      </trkpt>
      <trkpt lat="37.025946993380785" lon="-2.757308017462492">
        <ele>1006.64</ele>
        <time>2025-05-12T11:55:40Z</time>
      </trkpt>
      <trkpt lat="37.026028968393803" lon="-2.757160998880863">
        <ele>1004.72</ele>
        <time>2025-05-12T11:55:41Z</time>
      </trkpt>
      <trkpt lat="37.026080014184117" lon="-2.75711003690958">
        <ele>1003.27</ele>
        <time>2025-05-12T11:55:42Z</time>
      </trkpt>
      <trkpt lat="37.02617397531867" lon="-2.757015991955996">
        <ele>1002.3099999999999</ele>
        <time>2025-05-12T11:55:43Z</time>
      </trkpt>
      <trkpt lat="37.026285035535693" lon="-2.756905015558004">
        <ele>1000.87</ele>
        <time>2025-05-12T11:55:44Z</time>
      </trkpt>
      <trkpt lat="37.026404980570078" lon="-2.756783980876207">
        <ele>999.90999999999997</ele>
        <time>2025-05-12T11:55:45Z</time>
      </trkpt>
      <trkpt lat="37.026513023301959" lon="-2.756642997264862">
        <ele>998.95000000000005</ele>
        <time>2025-05-12T11:55:46Z</time>
      </trkpt>
      <trkpt lat="37.026587035506964" lon="-2.756495978683233">
        <ele>997.50999999999999</ele>
        <time>2025-05-12T11:55:47Z</time>
      </trkpt>
      <trkpt lat="37.026597009971738" lon="-2.756278971210122">
        <ele>996.53999999999996</ele>
        <time>2025-05-12T11:55:48Z</time>
      </trkpt>
      <trkpt lat="37.026605978608131" lon="-2.756066992878914">
        <ele>995.58000000000004</ele>
        <time>2025-05-12T11:55:49Z</time>
      </trkpt>
      <trkpt lat="37.026616036891937" lon="-2.755845040082932">
        <ele>995.10000000000002</ele>
        <time>2025-05-12T11:55:50Z</time>
      </trkpt>
      <trkpt lat="37.026696000248194" lon="-2.754734018817544">
        <ele>994.13999999999999</ele>
        <time>2025-05-12T11:55:56Z</time>
      </trkpt>
      <trkpt lat="37.026712009683251" lon="-2.754612984135747">
        <ele>993.65999999999997</ele>
        <time>2025-05-12T11:55:57Z</time>
      </trkpt>
      <trkpt lat="37.026748973876238" lon="-2.754534026607871">
        <ele>993.17999999999995</ele>
        <time>2025-05-12T11:55:58Z</time>
      </trkpt>
      <trkpt lat="37.026778981089592" lon="-2.754487004131079">
        <ele>992.22000000000003</ele>
        <time>2025-05-12T11:55:59Z</time>
      </trkpt>
      <trkpt lat="37.026803037151694" lon="-2.754448028281331">
        <ele>991.25999999999999</ele>
        <time>2025-05-12T11:56:00Z</time>
      </trkpt>
      <trkpt lat="37.026821980252862" lon="-2.754419026896358">
        <ele>990.77999999999997</ele>
        <time>2025-05-12T11:56:01Z</time>
      </trkpt>
      <trkpt lat="37.026821980252862" lon="-2.754419026896358">
        <ele>989.80999999999995</ele>
        <time>2025-05-12T11:56:11Z</time>
      </trkpt>
      <trkpt lat="37.026821980252862" lon="-2.754419026896358">
        <ele>989.33000000000004</ele>
        <time>2025-05-12T11:56:57Z</time>
      </trkpt>
      <trkpt lat="37.026900015771389" lon="-2.754346020519733">
        <ele>988.37</ele>
        <time>2025-05-12T11:57:03Z</time>
      </trkpt>
      <trkpt lat="37.026977967470884" lon="-2.754338979721069">
        <ele>987.40999999999997</ele>
        <time>2025-05-12T11:57:04Z</time>
      </trkpt>
      <trkpt lat="37.02707402408123" lon="-2.754329005256295">
        <ele>986.92999999999995</ele>
        <time>2025-05-12T11:57:05Z</time>
      </trkpt>
      <trkpt lat="37.027169996872544" lon="-2.754377033561468">
        <ele>985.97000000000003</ele>
        <time>2025-05-12T11:57:06Z</time>
      </trkpt>
      <trkpt lat="37.02728901989758" lon="-2.754442999139428">
        <ele>985.00999999999999</ele>
        <time>2025-05-12T11:57:07Z</time>
      </trkpt>
      <trkpt lat="37.027414999902248" lon="-2.75451198220253">
        <ele>984.52999999999997</ele>
        <time>2025-05-12T11:57:08Z</time>
      </trkpt>
      <trkpt lat="37.027533017098904" lon="-2.754583982750773">
        <ele>983.57000000000005</ele>
        <time>2025-05-12T11:57:09Z</time>
      </trkpt>
      <trkpt lat="37.027644999325275" lon="-2.754681967198849">
        <ele>983.09000000000003</ele>
        <time>2025-05-12T11:57:10Z</time>
      </trkpt>
      <trkpt lat="37.02774197794497" lon="-2.754819011315703">
        <ele>983.09000000000003</ele>
        <time>2025-05-12T11:57:11Z</time>
      </trkpt>
      <trkpt lat="37.027831999585032" lon="-2.754970975220203">
        <ele>983.09000000000003</ele>
        <time>2025-05-12T11:57:12Z</time>
      </trkpt>
      <trkpt lat="37.027920009568334" lon="-2.755140960216522">
        <ele>982.60000000000002</ele>
        <time>2025-05-12T11:57:13Z</time>
      </trkpt>
      <trkpt lat="37.027996033430099" lon="-2.755330977961421">
        <ele>982.60000000000002</ele>
        <time>2025-05-12T11:57:14Z</time>
      </trkpt>
      <trkpt lat="37.028073985129595" lon="-2.755525019019842">
        <ele>983.09000000000003</ele>
        <time>2025-05-12T11:57:15Z</time>
      </trkpt>
      <trkpt lat="37.028330974280834" lon="-2.75614402256906">
        <ele>984.52999999999997</ele>
        <time>2025-05-12T11:57:19Z</time>
      </trkpt>
      <trkpt lat="37.028402974829078" lon="-2.756219040602446">
        <ele>984.52999999999997</ele>
        <time>2025-05-12T11:57:20Z</time>
      </trkpt>
      <trkpt lat="37.02847296372056" lon="-2.756243012845516">
        <ele>985.00999999999999</ele>
        <time>2025-05-12T11:57:21Z</time>
      </trkpt>
      <trkpt lat="37.028529038652778" lon="-2.756194984540343">
        <ele>985.00999999999999</ele>
        <time>2025-05-12T11:57:22Z</time>
      </trkpt>
      <trkpt lat="37.028603972867131" lon="-2.756131030619144">
        <ele>984.52999999999997</ele>
        <time>2025-05-12T11:57:23Z</time>
      </trkpt>
      <trkpt lat="37.028670022264123" lon="-2.756055006757379">
        <ele>984.52999999999997</ele>
        <time>2025-05-12T11:57:24Z</time>
      </trkpt>
      <trkpt lat="37.028758032247424" lon="-2.755955010652542">
        <ele>985.00999999999999</ele>
        <time>2025-05-12T11:57:25Z</time>
      </trkpt>
      <trkpt lat="37.028856016695499" lon="-2.75584202259779">
        <ele>985.00999999999999</ele>
        <time>2025-05-12T11:57:26Z</time>
      </trkpt>
      <trkpt lat="37.028949977830052" lon="-2.755700033158064">
        <ele>984.52999999999997</ele>
        <time>2025-05-12T11:57:27Z</time>
      </trkpt>
      <trkpt lat="37.029261030256748" lon="-2.755194017663598">
        <ele>984.04999999999995</ele>
        <time>2025-05-12T11:57:31Z</time>
      </trkpt>
      <trkpt lat="37.029344011098146" lon="-2.755155963823199">
        <ele>983.57000000000005</ele>
        <time>2025-05-12T11:57:32Z</time>
      </trkpt>
      <trkpt lat="37.029437972232699" lon="-2.75515403598547">
        <ele>982.60000000000002</ele>
        <time>2025-05-12T11:57:33Z</time>
      </trkpt>
      <trkpt lat="37.0295450091362" lon="-2.755210027098656">
        <ele>981.63999999999999</ele>
        <time>2025-05-12T11:57:34Z</time>
      </trkpt>
      <trkpt lat="37.029661014676094" lon="-2.755272975191474">
        <ele>980.67999999999995</ele>
        <time>2025-05-12T11:57:35Z</time>
      </trkpt>
      <trkpt lat="37.029768973588943" lon="-2.755314968526363">
        <ele>979.72000000000003</ele>
        <time>2025-05-12T11:57:36Z</time>
      </trkpt>
      <trkpt lat="37.029855977743864" lon="-2.755314968526363">
        <ele>978.27999999999997</ele>
        <time>2025-05-12T11:57:37Z</time>
      </trkpt>
      <trkpt lat="37.029903000220656" lon="-2.755260989069939">
        <ele>977.32000000000005</ele>
        <time>2025-05-12T11:57:38Z</time>
      </trkpt>
      <trkpt lat="37.029938036575913" lon="-2.755171973258257">
        <ele>976.36000000000001</ele>
        <time>2025-05-12T11:57:39Z</time>
      </trkpt>
      <trkpt lat="37.02995203435421" lon="-2.755042975768447">
        <ele>975.88</ele>
        <time>2025-05-12T11:57:40Z</time>
      </trkpt>
      <trkpt lat="37.029965026304126" lon="-2.754911966621876">
        <ele>974.90999999999997</ele>
        <time>2025-05-12T11:57:41Z</time>
      </trkpt>
      <trkpt lat="37.029999978840351" lon="-2.754781963303685">
        <ele>974.42999999999995</ele>
        <time>2025-05-12T11:57:42Z</time>
      </trkpt>
      <trkpt lat="37.030082959681749" lon="-2.754715997725725">
        <ele>973.95000000000005</ele>
        <time>2025-05-12T11:57:43Z</time>
      </trkpt>
      <trkpt lat="37.030192008242011" lon="-2.754628993570805">
        <ele>973.95000000000005</ele>
        <time>2025-05-12T11:57:44Z</time>
      </trkpt>
      <trkpt lat="37.03029602766037" lon="-2.754590017721057">
        <ele>973.47000000000003</ele>
        <time>2025-05-12T11:57:45Z</time>
      </trkpt>
      <trkpt lat="37.030401974916458" lon="-2.754550036042929">
        <ele>972.99000000000001</ele>
        <time>2025-05-12T11:57:46Z</time>
      </trkpt>
      <trkpt lat="37.030496019870043" lon="-2.754514999687672">
        <ele>972.50999999999999</ele>
        <time>2025-05-12T11:57:47Z</time>
      </trkpt>
      <trkpt lat="37.030585035681725" lon="-2.754524974152446">
        <ele>972.02999999999997</ele>
        <time>2025-05-12T11:57:48Z</time>
      </trkpt>
      <trkpt lat="37.030647983774543" lon="-2.754605021327734">
        <ele>971.54999999999995</ele>
        <time>2025-05-12T11:57:49Z</time>
      </trkpt>
      <trkpt lat="37.030695006251335" lon="-2.754710968583822">
        <ele>970.59000000000003</ele>
        <time>2025-05-12T11:57:50Z</time>
      </trkpt>
      <trkpt lat="37.030740017071366" lon="-2.754815993830562">
        <ele>969.14999999999998</ele>
        <time>2025-05-12T11:57:51Z</time>
      </trkpt>
      <trkpt lat="37.030783016234636" lon="-2.754885982722044">
        <ele>968.17999999999995</ele>
        <time>2025-05-12T11:57:52Z</time>
      </trkpt>
      <trkpt lat="37.030862979590893" lon="-2.754885982722044">
        <ele>967.22000000000003</ele>
        <time>2025-05-12T11:57:53Z</time>
      </trkpt>
      <trkpt lat="37.030951995402575" lon="-2.75485304184258">
        <ele>966.25999999999999</ele>
        <time>2025-05-12T11:57:54Z</time>
      </trkpt>
      <trkpt lat="37.031040005385876" lon="-2.75481297634542">
        <ele>965.77999999999997</ele>
        <time>2025-05-12T11:57:55Z</time>
      </trkpt>
      <trkpt lat="37.031141007319093" lon="-2.754798978567123">
        <ele>965.29999999999995</ele>
        <time>2025-05-12T11:57:56Z</time>
      </trkpt>
      <trkpt lat="37.031237985938787" lon="-2.754870979115367">
        <ele>965.29999999999995</ele>
        <time>2025-05-12T11:57:57Z</time>
      </trkpt>
      <trkpt lat="37.031343011185527" lon="-2.754950020462275">
        <ele>965.29999999999995</ele>
        <time>2025-05-12T11:57:58Z</time>
      </trkpt>
      <trkpt lat="37.031442001461983" lon="-2.75502503849566">
        <ele>965.29999999999995</ele>
        <time>2025-05-12T11:57:59Z</time>
      </trkpt>
      <trkpt lat="37.031532023102045" lon="-2.755092009902">
        <ele>965.29999999999995</ele>
        <time>2025-05-12T11:58:00Z</time>
      </trkpt>
      <trkpt lat="37.031615003943443" lon="-2.755072982981801">
        <ele>965.29999999999995</ele>
        <time>2025-05-12T11:58:01Z</time>
      </trkpt>
      <trkpt lat="37.031678035855293" lon="-2.755019003525376">
        <ele>964.82000000000005</ele>
        <time>2025-05-12T11:58:02Z</time>
      </trkpt>
      <trkpt lat="37.031739978119731" lon="-2.754929987713695">
        <ele>964.34000000000003</ele>
        <time>2025-05-12T11:58:03Z</time>
      </trkpt>
      <trkpt lat="37.0318020042032" lon="-2.754840971902013">
        <ele>963.86000000000001</ele>
        <time>2025-05-12T11:58:04Z</time>
      </trkpt>
      <trkpt lat="37.031870987266302" lon="-2.754777017980814">
        <ele>963.38</ele>
        <time>2025-05-12T11:58:05Z</time>
      </trkpt>
      <trkpt lat="37.031963020563126" lon="-2.75476997718215">
        <ele>962.89999999999998</ele>
        <time>2025-05-12T11:58:06Z</time>
      </trkpt>
      <trkpt lat="37.032072991132736" lon="-2.754761008545756">
        <ele>962.41999999999996</ele>
        <time>2025-05-12T11:58:07Z</time>
      </trkpt>
      <trkpt lat="37.032179022207856" lon="-2.754721026867628">
        <ele>961.94000000000005</ele>
        <time>2025-05-12T11:58:08Z</time>
      </trkpt>
      <trkpt lat="37.032272983342409" lon="-2.754641985520721">
        <ele>962.41999999999996</ele>
        <time>2025-05-12T11:58:09Z</time>
      </trkpt>
      <trkpt lat="37.032354036346078" lon="-2.75453201495111">
        <ele>962.41999999999996</ele>
        <time>2025-05-12T11:58:10Z</time>
      </trkpt>
      <trkpt lat="37.03242402523756" lon="-2.754432018846273">
        <ele>962.41999999999996</ele>
        <time>2025-05-12T11:58:11Z</time>
      </trkpt>
      <trkpt lat="37.032441040500998" lon="-2.754287011921406">
        <ele>961.94000000000005</ele>
        <time>2025-05-12T11:58:12Z</time>
      </trkpt>
      <trkpt lat="37.032459983602166" lon="-2.754123983904719">
        <ele>961.94000000000005</ele>
        <time>2025-05-12T11:58:13Z</time>
      </trkpt>
      <trkpt lat="37.03248999081552" lon="-2.753947963938117">
        <ele>960.98000000000002</ele>
        <time>2025-05-12T11:58:14Z</time>
      </trkpt>
      <trkpt lat="37.03255201689899" lon="-2.753619980067015">
        <ele>959.52999999999997</ele>
        <time>2025-05-12T11:58:16Z</time>
      </trkpt>
      <trkpt lat="37.032626029103994" lon="-2.753462987020612">
        <ele>959.04999999999995</ele>
        <time>2025-05-12T11:58:17Z</time>
      </trkpt>
      <trkpt lat="37.032686965540051" lon="-2.753333989530802">
        <ele>959.04999999999995</ele>
        <time>2025-05-12T11:58:18Z</time>
      </trkpt>
      <trkpt lat="37.032772041857243" lon="-2.753221001476049">
        <ele>958.57000000000005</ele>
        <time>2025-05-12T11:58:19Z</time>
      </trkpt>
      <trkpt lat="37.03287698328495" lon="-2.753145983442664">
        <ele>958.09000000000003</ele>
        <time>2025-05-12T11:58:20Z</time>
      </trkpt>
      <trkpt lat="37.032985026016831" lon="-2.753069037571549">
        <ele>957.61000000000001</ele>
        <time>2025-05-12T11:58:21Z</time>
      </trkpt>
      <trkpt lat="37.033085022121668" lon="-2.752997959032655">
        <ele>957.61000000000001</ele>
        <time>2025-05-12T11:58:22Z</time>
      </trkpt>
      <trkpt lat="37.03328300267458" lon="-2.752913972362876">
        <ele>956.16999999999996</ele>
        <time>2025-05-12T11:58:24Z</time>
      </trkpt>
      <trkpt lat="37.033381992951035" lon="-2.752897040918469">
        <ele>955.21000000000004</ele>
        <time>2025-05-12T11:58:25Z</time>
      </trkpt>
      <trkpt lat="37.03356103040278" lon="-2.752855969592929">
        <ele>953.27999999999997</ele>
        <time>2025-05-12T11:58:27Z</time>
      </trkpt>
      <trkpt lat="37.03364702872932" lon="-2.752805007621646">
        <ele>952.32000000000005</ele>
        <time>2025-05-12T11:58:28Z</time>
      </trkpt>
      <trkpt lat="37.033710982650518" lon="-2.752676010131836">
        <ele>951.84000000000003</ele>
        <time>2025-05-12T11:58:29Z</time>
      </trkpt>
      <trkpt lat="37.033718023449183" lon="-2.752567967399955">
        <ele>950.88</ele>
        <time>2025-05-12T11:58:30Z</time>
      </trkpt>
      <trkpt lat="37.033729003742337" lon="-2.752420026808977">
        <ele>950.39999999999998</ele>
        <time>2025-05-12T11:58:31Z</time>
      </trkpt>
      <trkpt lat="37.033747024834156" lon="-2.752151973545551">
        <ele>949.91999999999996</ele>
        <time>2025-05-12T11:58:33Z</time>
      </trkpt>
      <trkpt lat="37.033769991248846" lon="-2.752025993540883">
        <ele>950.39999999999998</ele>
        <time>2025-05-12T11:58:34Z</time>
      </trkpt>
      <trkpt lat="37.033816007897258" lon="-2.751950975507498">
        <ele>949.91999999999996</ele>
        <time>2025-05-12T11:58:35Z</time>
      </trkpt>
      <trkpt lat="37.03390896320343" lon="-2.751939995214343">
        <ele>950.39999999999998</ele>
        <time>2025-05-12T11:58:36Z</time>
      </trkpt>
      <trkpt lat="37.03399496152997" lon="-2.751933038234711">
        <ele>949.91999999999996</ele>
        <time>2025-05-12T11:58:37Z</time>
      </trkpt>
      <trkpt lat="37.034096969291568" lon="-2.751924991607666">
        <ele>949.44000000000005</ele>
        <time>2025-05-12T11:58:38Z</time>
      </trkpt>
      <trkpt lat="37.03502400778234" lon="-2.751841004937887">
        <ele>941.26999999999998</ele>
        <time>2025-05-12T11:58:45Z</time>
      </trkpt>
      <trkpt lat="37.035159962251782" lon="-2.751873023808003">
        <ele>940.30999999999995</ele>
        <time>2025-05-12T11:58:46Z</time>
      </trkpt>
      <trkpt lat="37.035292983055115" lon="-2.751909988000989">
        <ele>939.35000000000002</ele>
        <time>2025-05-12T11:58:47Z</time>
      </trkpt>
      <trkpt lat="37.035415023565292" lon="-2.751944018527865">
        <ele>938.38</ele>
        <time>2025-05-12T11:58:48Z</time>
      </trkpt>
      <trkpt lat="37.035532034933567" lon="-2.751976037397981">
        <ele>937.89999999999998</ele>
        <time>2025-05-12T11:58:49Z</time>
      </trkpt>
      <trkpt lat="37.035644017159939" lon="-2.75197695940733">
        <ele>937.41999999999996</ele>
        <time>2025-05-12T11:58:50Z</time>
      </trkpt>
      <trkpt lat="37.035759016871452" lon="-2.751956004649401">
        <ele>937.41999999999996</ele>
        <time>2025-05-12T11:58:51Z</time>
      </trkpt>
      <trkpt lat="37.035864964127541" lon="-2.751935971900821">
        <ele>937.41999999999996</ele>
        <time>2025-05-12T11:58:52Z</time>
      </trkpt>
      <trkpt lat="37.035968983545899" lon="-2.751946030184627">
        <ele>937.41999999999996</ele>
        <time>2025-05-12T11:58:53Z</time>
      </trkpt>
      <trkpt lat="37.036064034327865" lon="-2.751987017691135">
        <ele>937.41999999999996</ele>
        <time>2025-05-12T11:58:54Z</time>
      </trkpt>
      <trkpt lat="37.036166964098811" lon="-2.752032028511167">
        <ele>937.41999999999996</ele>
        <time>2025-05-12T11:58:55Z</time>
      </trkpt>
      <trkpt lat="37.036264026537538" lon="-2.752075027674437">
        <ele>937.41999999999996</ele>
        <time>2025-05-12T11:58:56Z</time>
      </trkpt>
      <trkpt lat="37.036400986835361" lon="-2.75210402905941">
        <ele>937.89999999999998</ele>
        <time>2025-05-12T11:58:57Z</time>
      </trkpt>
      <trkpt lat="37.036529984325171" lon="-2.752131018787623">
        <ele>937.89999999999998</ele>
        <time>2025-05-12T11:58:58Z</time>
      </trkpt>
      <trkpt lat="37.036654036492109" lon="-2.752157002687454">
        <ele>938.38</ele>
        <time>2025-05-12T11:58:59Z</time>
      </trkpt>
      <trkpt lat="37.036766018718481" lon="-2.752134958282113">
        <ele>938.86000000000001</ele>
        <time>2025-05-12T11:59:00Z</time>
      </trkpt>
      <trkpt lat="37.036908008158207" lon="-2.752096988260746">
        <ele>939.35000000000002</ele>
        <time>2025-05-12T11:59:01Z</time>
      </trkpt>
      <trkpt lat="37.036971962079406" lon="-2.752050971612334">
        <ele>940.30999999999995</ele>
        <time>2025-05-12T11:59:02Z</time>
      </trkpt>
      <trkpt lat="37.037055026739836" lon="-2.751990035176277">
        <ele>940.30999999999995</ele>
        <time>2025-05-12T11:59:03Z</time>
      </trkpt>
      <trkpt lat="37.037144964560866" lon="-2.751924991607666">
        <ele>941.26999999999998</ele>
        <time>2025-05-12T11:59:04Z</time>
      </trkpt>
      <trkpt lat="37.037242026999593" lon="-2.751951981335878">
        <ele>941.75</ele>
        <time>2025-05-12T11:59:05Z</time>
      </trkpt>
      <trkpt lat="37.037349985912442" lon="-2.751980982720852">
        <ele>941.75</ele>
        <time>2025-05-12T11:59:06Z</time>
      </trkpt>
      <trkpt lat="37.037463979795575" lon="-2.752030016854405">
        <ele>942.23000000000002</ele>
        <time>2025-05-12T11:59:07Z</time>
      </trkpt>
      <trkpt lat="37.03758099116385" lon="-2.752087013795972">
        <ele>942.71000000000004</ele>
        <time>2025-05-12T11:59:08Z</time>
      </trkpt>
      <trkpt lat="37.038125982508063" lon="-2.752350959926844">
        <ele>946.07000000000005</ele>
        <time>2025-05-12T11:59:13Z</time>
      </trkpt>
      <trkpt lat="37.038178034126759" lon="-2.752437964081764">
        <ele>946.07000000000005</ele>
        <time>2025-05-12T11:59:14Z</time>
      </trkpt>
      <trkpt lat="37.038293033838272" lon="-2.752648014575243">
        <ele>946.55999999999995</ele>
        <time>2025-05-12T11:59:16Z</time>
      </trkpt>
      <trkpt lat="37.038366962224245" lon="-2.752782963216305">
        <ele>946.55999999999995</ele>
        <time>2025-05-12T11:59:17Z</time>
      </trkpt>
      <trkpt lat="37.038479028269649" lon="-2.752854041755199">
        <ele>946.07000000000005</ele>
        <time>2025-05-12T11:59:18Z</time>
      </trkpt>
      <trkpt lat="37.03859101049602" lon="-2.752924030646682">
        <ele>946.07000000000005</ele>
        <time>2025-05-12T11:59:19Z</time>
      </trkpt>
      <trkpt lat="37.038701986894011" lon="-2.752995025366545">
        <ele>946.55999999999995</ele>
        <time>2025-05-12T11:59:20Z</time>
      </trkpt>
      <trkpt lat="37.038799971342087" lon="-2.753069959580898">
        <ele>947.03999999999996</ele>
        <time>2025-05-12T11:59:21Z</time>
      </trkpt>
      <trkpt lat="37.038888987153769" lon="-2.753173978999257">
        <ele>947.03999999999996</ele>
        <time>2025-05-12T11:59:22Z</time>
      </trkpt>
      <trkpt lat="37.038987977430224" lon="-2.753289984539151">
        <ele>947.03999999999996</ele>
        <time>2025-05-12T11:59:23Z</time>
      </trkpt>
      <trkpt lat="37.039203979074955" lon="-2.753525013104081">
        <ele>948.48000000000002</ele>
        <time>2025-05-12T11:59:25Z</time>
      </trkpt>
      <trkpt lat="37.039318978786469" lon="-2.753613023087382">
        <ele>948.96000000000004</ele>
        <time>2025-05-12T11:59:26Z</time>
      </trkpt>
      <trkpt lat="37.03942702151835" lon="-2.753696003928781">
        <ele>948.96000000000004</ele>
        <time>2025-05-12T11:59:27Z</time>
      </trkpt>
      <trkpt lat="37.039545960724354" lon="-2.753705978393555">
        <ele>949.44000000000005</ele>
        <time>2025-05-12T11:59:28Z</time>
      </trkpt>
      <trkpt lat="37.039647968485951" lon="-2.753689968958497">
        <ele>949.91999999999996</ele>
        <time>2025-05-12T11:59:29Z</time>
      </trkpt>
      <trkpt lat="37.039753999561071" lon="-2.753644036129117">
        <ele>950.88</ele>
        <time>2025-05-12T11:59:30Z</time>
      </trkpt>
      <trkpt lat="37.039864975959063" lon="-2.753596007823944">
        <ele>951.84000000000003</ele>
        <time>2025-05-12T11:59:31Z</time>
      </trkpt>
      <trkpt lat="37.039983998984098" lon="-2.753544040024281">
        <ele>953.27999999999997</ele>
        <time>2025-05-12T11:59:32Z</time>
      </trkpt>
      <trkpt lat="37.040102016180754" lon="-2.753492994233966">
        <ele>954.25</ele>
        <time>2025-05-12T11:59:33Z</time>
      </trkpt>
      <trkpt lat="37.04022497870028" lon="-2.753514032810926">
        <ele>954.73000000000002</ele>
        <time>2025-05-12T11:59:34Z</time>
      </trkpt>
      <trkpt lat="37.04035297036171" lon="-2.753539010882378">
        <ele>955.69000000000005</ele>
        <time>2025-05-12T11:59:35Z</time>
      </trkpt>
      <trkpt lat="37.04047903418541" lon="-2.753562983125448">
        <ele>956.64999999999998</ele>
        <time>2025-05-12T11:59:36Z</time>
      </trkpt>
      <trkpt lat="37.040600990876555" lon="-2.753561977297068">
        <ele>957.61000000000001</ele>
        <time>2025-05-12T11:59:37Z</time>
      </trkpt>
      <trkpt lat="37.040719008073211" lon="-2.753519983962178">
        <ele>958.57000000000005</ele>
        <time>2025-05-12T11:59:38Z</time>
      </trkpt>
      <trkpt lat="37.040831996127963" lon="-2.75348000228405">
        <ele>959.52999999999997</ele>
        <time>2025-05-12T11:59:39Z</time>
      </trkpt>
      <trkpt lat="37.040940960869193" lon="-2.753444965928793">
        <ele>960.49000000000001</ele>
        <time>2025-05-12T11:59:40Z</time>
      </trkpt>
      <trkpt lat="37.041172971948981" lon="-2.753409007564187">
        <ele>961.94000000000005</ele>
        <time>2025-05-12T11:59:42Z</time>
      </trkpt>
      <trkpt lat="37.041328037157655" lon="-2.753384029492736">
        <ele>962.89999999999998</ele>
        <time>2025-05-12T11:59:44Z</time>
      </trkpt>
      <trkpt lat="37.041419986635447" lon="-2.753434991464019">
        <ele>963.38</ele>
        <time>2025-05-12T11:59:45Z</time>
      </trkpt>
      <trkpt lat="37.041493998840451" lon="-2.753475978970528">
        <ele>963.86000000000001</ele>
        <time>2025-05-12T11:59:46Z</time>
      </trkpt>
      <trkpt lat="37.041572034358978" lon="-2.753519983962178">
        <ele>963.86000000000001</ele>
        <time>2025-05-12T11:59:47Z</time>
      </trkpt>
      <trkpt lat="37.041660966351628" lon="-2.753569018095732">
        <ele>963.86000000000001</ele>
        <time>2025-05-12T11:59:48Z</time>
      </trkpt>
      <trkpt lat="37.041760962456465" lon="-2.753610005602241">
        <ele>963.86000000000001</ele>
        <time>2025-05-12T11:59:49Z</time>
      </trkpt>
      <trkpt lat="37.041861964389682" lon="-2.753635989502072">
        <ele>964.34000000000003</ele>
        <time>2025-05-12T11:59:50Z</time>
      </trkpt>
      <trkpt lat="37.041969001293182" lon="-2.753600031137466">
        <ele>964.82000000000005</ele>
        <time>2025-05-12T11:59:51Z</time>
      </trkpt>
      <trkpt lat="37.042082995176315" lon="-2.7535430341959">
        <ele>964.82000000000005</ele>
        <time>2025-05-12T11:59:52Z</time>
      </trkpt>
      <trkpt lat="37.04220000654459" lon="-2.753485031425953">
        <ele>965.29999999999995</ele>
        <time>2025-05-12T11:59:53Z</time>
      </trkpt>
      <trkpt lat="37.042310982942581" lon="-2.753449995070696">
        <ele>965.29999999999995</ele>
        <time>2025-05-12T11:59:54Z</time>
      </trkpt>
      <trkpt lat="37.042420031502843" lon="-2.753423005342484">
        <ele>964.34000000000003</ele>
        <time>2025-05-12T11:59:55Z</time>
      </trkpt>
      <trkpt lat="37.042519021779299" lon="-2.753398027271032">
        <ele>963.86000000000001</ele>
        <time>2025-05-12T11:59:56Z</time>
      </trkpt>
      <trkpt lat="37.042608959600329" lon="-2.753348993137479">
        <ele>963.38</ele>
        <time>2025-05-12T11:59:57Z</time>
      </trkpt>
      <trkpt lat="37.042669979855418" lon="-2.753286967054009">
        <ele>962.89999999999998</ele>
        <time>2025-05-12T11:59:58Z</time>
      </trkpt>
      <trkpt lat="37.042696969583631" lon="-2.753221001476049">
        <ele>962.89999999999998</ele>
        <time>2025-05-12T11:59:59Z</time>
      </trkpt>
      <trkpt lat="37.042688000947237" lon="-2.753142965957522">
        <ele>962.41999999999996</ele>
        <time>2025-05-12T12:00:00Z</time>
      </trkpt>
      <trkpt lat="37.042646007612348" lon="-2.753056967630982">
        <ele>961.94000000000005</ele>
        <time>2025-05-12T12:00:01Z</time>
      </trkpt>
      <trkpt lat="37.04256696626544" lon="-2.752994019538164">
        <ele>961.46000000000004</ele>
        <time>2025-05-12T12:00:02Z</time>
      </trkpt>
      <trkpt lat="37.042468981817365" lon="-2.752916989848018">
        <ele>961.94000000000005</ele>
        <time>2025-05-12T12:00:03Z</time>
      </trkpt>
      <trkpt lat="37.04209104180336" lon="-2.752617001533508">
        <ele>964.82000000000005</ele>
        <time>2025-05-12T12:00:07Z</time>
      </trkpt>
      <trkpt lat="37.042019041255116" lon="-2.752535026520491">
        <ele>965.77999999999997</ele>
        <time>2025-05-12T12:00:08Z</time>
      </trkpt>
      <trkpt lat="37.041889959946275" lon="-2.75236101821065">
        <ele>967.70000000000005</ele>
        <time>2025-05-12T12:00:10Z</time>
      </trkpt>
      <trkpt lat="37.041807984933257" lon="-2.752290023490787">
        <ele>968.17999999999995</ele>
        <time>2025-05-12T12:00:11Z</time>
      </trkpt>
      <trkpt lat="37.041730033233762" lon="-2.752222968265414">
        <ele>968.66999999999996</ele>
        <time>2025-05-12T12:00:12Z</time>
      </trkpt>
      <trkpt lat="37.041659960523248" lon="-2.752163037657738">
        <ele>969.14999999999998</ele>
        <time>2025-05-12T12:00:13Z</time>
      </trkpt>
      <trkpt lat="37.041600029915571" lon="-2.752101011574268">
        <ele>969.63</ele>
        <time>2025-05-12T12:00:14Z</time>
      </trkpt>
      <trkpt lat="37.041571028530598" lon="-2.752028005197644">
        <ele>969.63</ele>
        <time>2025-05-12T12:00:15Z</time>
      </trkpt>
      <trkpt lat="37.041556024923921" lon="-2.751946030184627">
        <ele>970.11000000000001</ele>
        <time>2025-05-12T12:00:16Z</time>
      </trkpt>
      <trkpt lat="37.041544038802385" lon="-2.751850979402661">
        <ele>971.07000000000005</ele>
        <time>2025-05-12T12:00:17Z</time>
      </trkpt>
      <trkpt lat="37.041531968861818" lon="-2.751758024096489">
        <ele>971.54999999999995</ele>
        <time>2025-05-12T12:00:18Z</time>
      </trkpt>
      <trkpt lat="37.041519982740283" lon="-2.751664984971285">
        <ele>971.54999999999995</ele>
        <time>2025-05-12T12:00:19Z</time>
      </trkpt>
      <trkpt lat="37.041474971920252" lon="-2.751339012756944">
        <ele>969.63</ele>
        <time>2025-05-12T12:00:25Z</time>
      </trkpt>
      <trkpt lat="37.041420992463827" lon="-2.751241028308868">
        <ele>968.17999999999995</ele>
        <time>2025-05-12T12:00:27Z</time>
      </trkpt>
      <trkpt lat="37.041269028559327" lon="-2.750986972823739">
        <ele>966.74000000000001</ele>
        <time>2025-05-12T12:00:31Z</time>
      </trkpt>
      <trkpt lat="37.040874995291233" lon="-2.750391019508243">
        <ele>964.82000000000005</ele>
        <time>2025-05-12T12:00:40Z</time>
      </trkpt>
      <trkpt lat="37.040834007784724" lon="-2.750327987596393">
        <ele>964.34000000000003</ele>
        <time>2025-05-12T12:00:41Z</time>
      </trkpt>
      <trkpt lat="37.04050300642848" lon="-2.749771010130644">
        <ele>958.09000000000003</ele>
        <time>2025-05-12T12:00:50Z</time>
      </trkpt>
      <trkpt lat="37.040443997830153" lon="-2.749646035954356">
        <ele>957.61000000000001</ele>
        <time>2025-05-12T12:00:52Z</time>
      </trkpt>
      <trkpt lat="37.040412984788418" lon="-2.749581998214126">
        <ele>956.64999999999998</ele>
        <time>2025-05-12T12:00:53Z</time>
      </trkpt>
      <trkpt lat="37.040289016440511" lon="-2.749426010996103">
        <ele>955.69000000000005</ele>
        <time>2025-05-12T12:00:56Z</time>
      </trkpt>
      <trkpt lat="37.040187008678913" lon="-2.749241022393107">
        <ele>954.73000000000002</ele>
        <time>2025-05-12T12:00:59Z</time>
      </trkpt>
      <trkpt lat="37.039976958185434" lon="-2.748448010534048">
        <ele>955.21000000000004</ele>
        <time>2025-05-12T12:01:11Z</time>
      </trkpt>
      <trkpt lat="37.039942005649209" lon="-2.748114997521043">
        <ele>957.13</ele>
        <time>2025-05-12T12:01:16Z</time>
      </trkpt>
      <trkpt lat="37.039933959022164" lon="-2.748040985316038">
        <ele>957.61000000000001</ele>
        <time>2025-05-12T12:01:17Z</time>
      </trkpt>
      <trkpt lat="37.039884002879262" lon="-2.747924979776144">
        <ele>957.61000000000001</ele>
        <time>2025-05-12T12:01:19Z</time>
      </trkpt>
      <trkpt lat="37.039861036464572" lon="-2.747873011976481">
        <ele>957.61000000000001</ele>
        <time>2025-05-12T12:01:20Z</time>
      </trkpt>
      <trkpt lat="37.039835974574089" lon="-2.747815009206533">
        <ele>958.09000000000003</ele>
        <time>2025-05-12T12:01:21Z</time>
      </trkpt>
      <trkpt lat="37.039796998724341" lon="-2.747734962031245">
        <ele>957.61000000000001</ele>
        <time>2025-05-12T12:01:22Z</time>
      </trkpt>
      <trkpt lat="37.039742013439536" lon="-2.747693974524736">
        <ele>957.61000000000001</ele>
        <time>2025-05-12T12:01:23Z</time>
      </trkpt>
      <trkpt lat="37.039684010669589" lon="-2.747649969533086">
        <ele>958.09000000000003</ele>
        <time>2025-05-12T12:01:24Z</time>
      </trkpt>
      <trkpt lat="37.039623996242881" lon="-2.747606970369816">
        <ele>958.09000000000003</ele>
        <time>2025-05-12T12:01:25Z</time>
      </trkpt>
      <trkpt lat="37.039568005129695" lon="-2.747576963156462">
        <ele>958.09000000000003</ele>
        <time>2025-05-12T12:01:26Z</time>
      </trkpt>
      <trkpt lat="37.03951402567327" lon="-2.747548967599869">
        <ele>958.09000000000003</ele>
        <time>2025-05-12T12:01:27Z</time>
      </trkpt>
      <trkpt lat="37.039358960464597" lon="-2.747465986758471">
        <ele>958.57000000000005</ele>
        <time>2025-05-12T12:01:30Z</time>
      </trkpt>
      <trkpt lat="37.039309004321694" lon="-2.747438997030258">
        <ele>958.57000000000005</ele>
        <time>2025-05-12T12:01:31Z</time>
      </trkpt>
      <trkpt lat="37.039260976016521" lon="-2.747405972331762">
        <ele>959.04999999999995</ele>
        <time>2025-05-12T12:01:32Z</time>
      </trkpt>
      <trkpt lat="37.039217976853251" lon="-2.747375965118408">
        <ele>959.04999999999995</ele>
        <time>2025-05-12T12:01:33Z</time>
      </trkpt>
      <trkpt lat="37.039175983518362" lon="-2.747347969561815">
        <ele>959.04999999999995</ele>
        <time>2025-05-12T12:01:34Z</time>
      </trkpt>
      <trkpt lat="37.039133990183473" lon="-2.747317962348461">
        <ele>959.04999999999995</ele>
        <time>2025-05-12T12:01:35Z</time>
      </trkpt>
      <trkpt lat="37.03904396854341" lon="-2.747257025912404">
        <ele>959.04999999999995</ele>
        <time>2025-05-12T12:01:37Z</time>
      </trkpt>
      <trkpt lat="37.038955958560109" lon="-2.747187037020922">
        <ele>959.04999999999995</ele>
        <time>2025-05-12T12:01:39Z</time>
      </trkpt>
      <trkpt lat="37.038923017680645" lon="-2.747136997058988">
        <ele>958.57000000000005</ele>
        <time>2025-05-12T12:01:40Z</time>
      </trkpt>
      <trkpt lat="37.03889200463891" lon="-2.747090980410576">
        <ele>958.57000000000005</ele>
        <time>2025-05-12T12:01:41Z</time>
      </trkpt>
      <trkpt lat="37.038882030174136" lon="-2.747075976803899">
        <ele>958.09000000000003</ele>
        <time>2025-05-12T12:01:42Z</time>
      </trkpt>
      <trkpt lat="37.038860991597176" lon="-2.747011017054319">
        <ele>958.09000000000003</ele>
        <time>2025-05-12T12:01:43Z</time>
      </trkpt>
      <trkpt lat="37.038841964676976" lon="-2.746954020112753">
        <ele>957.61000000000001</ele>
        <time>2025-05-12T12:01:44Z</time>
      </trkpt>
      <trkpt lat="37.038823021575809" lon="-2.746897023171186">
        <ele>957.61000000000001</ele>
        <time>2025-05-12T12:01:45Z</time>
      </trkpt>
      <trkpt lat="37.038791002705693" lon="-2.746833991259337">
        <ele>957.61000000000001</ele>
        <time>2025-05-12T12:01:46Z</time>
      </trkpt>
      <trkpt lat="37.038756972178817" lon="-2.746772971004248">
        <ele>957.61000000000001</ele>
        <time>2025-05-12T12:01:47Z</time>
      </trkpt>
      <trkpt lat="37.038724031299353" lon="-2.74671102873981">
        <ele>957.13</ele>
        <time>2025-05-12T12:01:48Z</time>
      </trkpt>
      <trkpt lat="37.038691006600857" lon="-2.746652020141482">
        <ele>957.13</ele>
        <time>2025-05-12T12:01:49Z</time>
      </trkpt>
      <trkpt lat="37.038558991625905" lon="-2.746356977149844">
        <ele>955.21000000000004</ele>
        <time>2025-05-12T12:01:55Z</time>
      </trkpt>
      <trkpt lat="37.038545999675989" lon="-2.74628103710711">
        <ele>954.73000000000002</ele>
        <time>2025-05-12T12:01:56Z</time>
      </trkpt>
      <trkpt lat="37.03852797858417" lon="-2.746206019073725">
        <ele>954.73000000000002</ele>
        <time>2025-05-12T12:01:57Z</time>
      </trkpt>
      <trkpt lat="37.038478022441268" lon="-2.746054977178574">
        <ele>953.76999999999998</ele>
        <time>2025-05-12T12:01:59Z</time>
      </trkpt>
      <trkpt lat="37.038456983864307" lon="-2.745996974408627">
        <ele>953.27999999999997</ele>
        <time>2025-05-12T12:02:00Z</time>
      </trkpt>
      <trkpt lat="37.038437034934759" lon="-2.745941989123821">
        <ele>952.79999999999995</ele>
        <time>2025-05-12T12:02:01Z</time>
      </trkpt>
      <trkpt lat="37.038389006629586" lon="-2.74580997414887">
        <ele>951.84000000000003</ele>
        <time>2025-05-12T12:02:03Z</time>
      </trkpt>
      <trkpt lat="37.038382971659303" lon="-2.74574501439929">
        <ele>951.84000000000003</ele>
        <time>2025-05-12T12:02:04Z</time>
      </trkpt>
      <trkpt lat="37.038378026336432" lon="-2.745690029114485">
        <ele>951.84000000000003</ele>
        <time>2025-05-12T12:02:05Z</time>
      </trkpt>
      <trkpt lat="37.03837500885129" lon="-2.745653986930847">
        <ele>952.32000000000005</ele>
        <time>2025-05-12T12:02:06Z</time>
      </trkpt>
      <trkpt lat="37.038366962224245" lon="-2.745574023574591">
        <ele>953.27999999999997</ele>
        <time>2025-05-12T12:02:07Z</time>
      </trkpt>
      <trkpt lat="37.038367968052626" lon="-2.745563965290785">
        <ele>953.76999999999998</ele>
        <time>2025-05-12T12:02:08Z</time>
      </trkpt>
      <trkpt lat="37.038371991366148" lon="-2.745524989441037">
        <ele>954.25</ele>
        <time>2025-05-12T12:02:09Z</time>
      </trkpt>
      <trkpt lat="37.038377020508051" lon="-2.745478972792625">
        <ele>953.76999999999998</ele>
        <time>2025-05-12T12:02:10Z</time>
      </trkpt>
      <trkpt lat="37.038380960002542" lon="-2.745431028306484">
        <ele>953.27999999999997</ele>
        <time>2025-05-12T12:02:11Z</time>
      </trkpt>
      <trkpt lat="37.038384983316064" lon="-2.745390962809324">
        <ele>952.32000000000005</ele>
        <time>2025-05-12T12:02:12Z</time>
      </trkpt>
      <trkpt lat="37.038389006629586" lon="-2.745359027758241">
        <ele>951.84000000000003</ele>
        <time>2025-05-12T12:02:13Z</time>
      </trkpt>
      <trkpt lat="37.038389006629586" lon="-2.745359027758241">
        <ele>950.88</ele>
        <time>2025-05-12T12:02:14Z</time>
      </trkpt>
      <trkpt lat="37.038378026336432" lon="-2.745349975302815">
        <ele>949.91999999999996</ele>
        <time>2025-05-12T12:02:15Z</time>
      </trkpt>
      <trkpt lat="37.038356987759471" lon="-2.745333965867758">
        <ele>948.96000000000004</ele>
        <time>2025-05-12T12:02:16Z</time>
      </trkpt>
      <trkpt lat="37.038329998031259" lon="-2.745312005281448">
        <ele>948</ele>
        <time>2025-05-12T12:02:17Z</time>
      </trkpt>
      <trkpt lat="37.038307031616569" lon="-2.74529398418963">
        <ele>947.03999999999996</ele>
        <time>2025-05-12T12:02:18Z</time>
      </trkpt>
      <trkpt lat="37.038288004696369" lon="-2.745277974754572">
        <ele>946.07000000000005</ele>
        <time>2025-05-12T12:02:19Z</time>
      </trkpt>
      <trkpt lat="37.038262020796537" lon="-2.745240004733205">
        <ele>945.59000000000003</ele>
        <time>2025-05-12T12:02:20Z</time>
      </trkpt>
      <trkpt lat="37.03824701718986" lon="-2.745217038318515">
        <ele>945.11000000000001</ele>
        <time>2025-05-12T12:02:21Z</time>
      </trkpt>
      <trkpt lat="37.038236958906054" lon="-2.745199017226696">
        <ele>944.14999999999998</ele>
        <time>2025-05-12T12:02:22Z</time>
      </trkpt>
      <trkpt lat="37.038222039118409" lon="-2.745173033326864">
        <ele>943.66999999999996</ele>
        <time>2025-05-12T12:02:23Z</time>
      </trkpt>
      <trkpt lat="37.038205023854971" lon="-2.74514595977962">
        <ele>942.71000000000004</ele>
        <time>2025-05-12T12:02:24Z</time>
      </trkpt>
      <trkpt lat="37.038179961964488" lon="-2.74510296061635">
        <ele>942.71000000000004</ele>
        <time>2025-05-12T12:02:25Z</time>
      </trkpt>
      <trkpt lat="37.038153978064656" lon="-2.745060967281461">
        <ele>941.75</ele>
        <time>2025-05-12T12:02:26Z</time>
      </trkpt>
      <trkpt lat="37.038152972236276" lon="-2.745059039443731">
        <ele>940.78999999999996</ele>
        <time>2025-05-12T12:02:27Z</time>
      </trkpt>
      <trkpt lat="37.038108967244625" lon="-2.744966000318527">
        <ele>940.30999999999995</ele>
        <time>2025-05-12T12:02:28Z</time>
      </trkpt>
      <trkpt lat="37.038045013323426" lon="-2.744947979226708">
        <ele>940.30999999999995</ele>
        <time>2025-05-12T12:02:29Z</time>
      </trkpt>
      <trkpt lat="37.037992039695382" lon="-2.744932975620031">
        <ele>940.30999999999995</ele>
        <time>2025-05-12T12:02:30Z</time>
      </trkpt>
      <trkpt lat="37.037895983085036" lon="-2.744921995326877">
        <ele>939.83000000000004</ele>
        <time>2025-05-12T12:02:32Z</time>
      </trkpt>
      <trkpt lat="37.037854995578527" lon="-2.744904980063438">
        <ele>939.35000000000002</ele>
        <time>2025-05-12T12:02:33Z</time>
      </trkpt>
      <trkpt lat="37.037808978930116" lon="-2.74488695897162">
        <ele>938.86000000000001</ele>
        <time>2025-05-12T12:02:34Z</time>
      </trkpt>
      <trkpt lat="37.03777302056551" lon="-2.744862986728549">
        <ele>938.38</ele>
        <time>2025-05-12T12:02:35Z</time>
      </trkpt>
      <trkpt lat="37.03773102723062" lon="-2.744834991171956">
        <ele>937.89999999999998</ele>
        <time>2025-05-12T12:02:36Z</time>
      </trkpt>
      <trkpt lat="37.037680987268686" lon="-2.74480096064508">
        <ele>937.41999999999996</ele>
        <time>2025-05-12T12:02:37Z</time>
      </trkpt>
      <trkpt lat="37.037647040560842" lon="-2.744768019765616">
        <ele>937.41999999999996</ele>
        <time>2025-05-12T12:02:38Z</time>
      </trkpt>
      <trkpt lat="37.037609992548823" lon="-2.744729965925217">
        <ele>936.94000000000005</ele>
        <time>2025-05-12T12:02:39Z</time>
      </trkpt>
      <trkpt lat="37.037574034184217" lon="-2.744695013388991">
        <ele>936.94000000000005</ele>
        <time>2025-05-12T12:02:40Z</time>
      </trkpt>
      <trkpt lat="37.037541009485722" lon="-2.744660982862115">
        <ele>936.94000000000005</ele>
        <time>2025-05-12T12:02:41Z</time>
      </trkpt>
      <trkpt lat="37.037474038079381" lon="-2.744568027555943">
        <ele>937.41999999999996</ele>
        <time>2025-05-12T12:02:43Z</time>
      </trkpt>
      <trkpt lat="37.037445036694407" lon="-2.744517987594008">
        <ele>937.41999999999996</ele>
        <time>2025-05-12T12:02:44Z</time>
      </trkpt>
      <trkpt lat="37.037422992289066" lon="-2.744479011744261">
        <ele>937.89999999999998</ele>
        <time>2025-05-12T12:02:45Z</time>
      </trkpt>
      <trkpt lat="37.037286031991243" lon="-2.744320007041097">
        <ele>937.89999999999998</ele>
        <time>2025-05-12T12:02:48Z</time>
      </trkpt>
      <trkpt lat="37.037250995635986" lon="-2.74424297735095">
        <ele>937.89999999999998</ele>
        <time>2025-05-12T12:02:49Z</time>
      </trkpt>
      <trkpt lat="37.03723800368607" lon="-2.744183968752623">
        <ele>937.89999999999998</ele>
        <time>2025-05-12T12:02:50Z</time>
      </trkpt>
      <trkpt lat="37.037224005907774" lon="-2.744125965982676">
        <ele>938.38</ele>
        <time>2025-05-12T12:02:51Z</time>
      </trkpt>
      <trkpt lat="37.037212019786239" lon="-2.74407098069787">
        <ele>938.86000000000001</ele>
        <time>2025-05-12T12:02:52Z</time>
      </trkpt>
      <trkpt lat="37.037198022007942" lon="-2.744009038433433">
        <ele>939.83000000000004</ele>
        <time>2025-05-12T12:02:53Z</time>
      </trkpt>
      <trkpt lat="37.037187041714787" lon="-2.743964027613401">
        <ele>940.78999999999996</ele>
        <time>2025-05-12T12:02:54Z</time>
      </trkpt>
      <trkpt lat="37.037156028673053" lon="-2.743908958509564">
        <ele>941.26999999999998</ele>
        <time>2025-05-12T12:02:55Z</time>
      </trkpt>
      <trkpt lat="37.037120992317796" lon="-2.743846010416746">
        <ele>942.23000000000002</ele>
        <time>2025-05-12T12:02:56Z</time>
      </trkpt>
      <trkpt lat="37.036869032308459" lon="-2.743447031825781">
        <ele>951.84000000000003</ele>
        <time>2025-05-12T12:03:03Z</time>
      </trkpt>
      <trkpt lat="37.036836007609963" lon="-2.743396991863847">
        <ele>952.32000000000005</ele>
        <time>2025-05-12T12:03:04Z</time>
      </trkpt>
      <trkpt lat="37.036800971254706" lon="-2.743342006579042">
        <ele>952.79999999999995</ele>
        <time>2025-05-12T12:03:05Z</time>
      </trkpt>
      <trkpt lat="37.036761995404959" lon="-2.743331026285887">
        <ele>953.76999999999998</ele>
        <time>2025-05-12T12:03:06Z</time>
      </trkpt>
      <trkpt lat="37.036697035655379" lon="-2.743311999365687">
        <ele>954.73000000000002</ele>
        <time>2025-05-12T12:03:07Z</time>
      </trkpt>
      <trkpt lat="37.035921039059758" lon="-2.743148971349001">
        <ele>957.61000000000001</ele>
        <time>2025-05-12T12:03:16Z</time>
      </trkpt>
      <trkpt lat="37.035826994106174" lon="-2.743163974955678">
        <ele>957.61000000000001</ele>
        <time>2025-05-12T12:03:17Z</time>
      </trkpt>
      <trkpt lat="37.035557013005018" lon="-2.743178978562355">
        <ele>958.09000000000003</ele>
        <time>2025-05-12T12:03:20Z</time>
      </trkpt>
      <trkpt lat="37.035135990008712" lon="-2.743164980784059">
        <ele>958.09000000000003</ele>
        <time>2025-05-12T12:03:25Z</time>
      </trkpt>
      <trkpt lat="37.035056026652455" lon="-2.743173027411103">
        <ele>958.09000000000003</ele>
        <time>2025-05-12T12:03:26Z</time>
      </trkpt>
      <trkpt lat="37.034982014447451" lon="-2.743180990219116">
        <ele>957.61000000000001</ele>
        <time>2025-05-12T12:03:27Z</time>
      </trkpt>
      <trkpt lat="37.034909008070827" lon="-2.74318803101778">
        <ele>957.61000000000001</ele>
        <time>2025-05-12T12:03:28Z</time>
      </trkpt>
      <trkpt lat="37.034841030836105" lon="-2.743183001875877">
        <ele>958.09000000000003</ele>
        <time>2025-05-12T12:03:29Z</time>
      </trkpt>
      <trkpt lat="37.034777998924255" lon="-2.743163974955678">
        <ele>958.57000000000005</ele>
        <time>2025-05-12T12:03:30Z</time>
      </trkpt>
      <trkpt lat="37.034722007811069" lon="-2.74314796552062">
        <ele>958.09000000000003</ele>
        <time>2025-05-12T12:03:31Z</time>
      </trkpt>
      <trkpt lat="37.034360999241471" lon="-2.742948979139328">
        <ele>962.89999999999998</ele>
        <time>2025-05-12T12:03:39Z</time>
      </trkpt>
      <trkpt lat="37.034313976764679" lon="-2.742935987189412">
        <ele>963.38</ele>
        <time>2025-05-12T12:03:40Z</time>
      </trkpt>
      <trkpt lat="37.034267960116267" lon="-2.742924001067877">
        <ele>964.34000000000003</ele>
        <time>2025-05-12T12:03:45Z</time>
      </trkpt>
      <trkpt lat="37.034182967618108" lon="-2.742891982197762">
        <ele>964.82000000000005</ele>
        <time>2025-05-12T12:03:47Z</time>
      </trkpt>
      <trkpt lat="37.034096969291568" lon="-2.742847977206111">
        <ele>965.29999999999995</ele>
        <time>2025-05-12T12:03:48Z</time>
      </trkpt>
      <trkpt lat="37.03407702036202" lon="-2.742821993306279">
        <ele>965.29999999999995</ele>
        <time>2025-05-12T12:03:49Z</time>
      </trkpt>
      <trkpt lat="37.033611992374063" lon="-2.742279013618827">
        <ele>965.29999999999995</ele>
        <time>2025-05-12T12:03:55Z</time>
      </trkpt>
      <trkpt lat="37.033513002097607" lon="-2.742191003635526">
        <ele>965.29999999999995</ele>
        <time>2025-05-12T12:03:56Z</time>
      </trkpt>
      <trkpt lat="37.033157022669911" lon="-2.741872994229198">
        <ele>964.82000000000005</ele>
        <time>2025-05-12T12:03:59Z</time>
      </trkpt>
      <trkpt lat="37.033024001866579" lon="-2.741753971204162">
        <ele>964.82000000000005</ele>
        <time>2025-05-12T12:04:00Z</time>
      </trkpt>
      <trkpt lat="37.032945966348052" lon="-2.741596978157759">
        <ele>964.34000000000003</ele>
        <time>2025-05-12T12:04:01Z</time>
      </trkpt>
      <trkpt lat="37.032856028527021" lon="-2.741418024525046">
        <ele>964.34000000000003</ele>
        <time>2025-05-12T12:04:02Z</time>
      </trkpt>
      <trkpt lat="37.032762989401817" lon="-2.74123203009367">
        <ele>963.86000000000001</ele>
        <time>2025-05-12T12:04:03Z</time>
      </trkpt>
      <trkpt lat="37.032353030517697" lon="-2.740476988255978">
        <ele>960.98000000000002</ele>
        <time>2025-05-12T12:04:07Z</time>
      </trkpt>
      <trkpt lat="37.031645011156797" lon="-2.739591021090746">
        <ele>953.76999999999998</ele>
        <time>2025-05-12T12:04:13Z</time>
      </trkpt>
      <trkpt lat="37.03066298738122" lon="-2.73893304169178">
        <ele>944.63</ele>
        <time>2025-05-12T12:04:20Z</time>
      </trkpt>
      <trkpt lat="37.029934013262391" lon="-2.738514030352235">
        <ele>940.78999999999996</ele>
        <time>2025-05-12T12:04:25Z</time>
      </trkpt>
      <trkpt lat="37.029834017157555" lon="-2.738413028419018">
        <ele>940.30999999999995</ele>
        <time>2025-05-12T12:04:26Z</time>
      </trkpt>
      <trkpt lat="37.029723962768912" lon="-2.738294005393982">
        <ele>939.35000000000002</ele>
        <time>2025-05-12T12:04:27Z</time>
      </trkpt>
      <trkpt lat="37.029062965884805" lon="-2.73738699965179">
        <ele>933.10000000000002</ele>
        <time>2025-05-12T12:04:33Z</time>
      </trkpt>
      <trkpt lat="37.028923993930221" lon="-2.737306030467153">
        <ele>932.13999999999999</ele>
        <time>2025-05-12T12:04:34Z</time>
      </trkpt>
      <trkpt lat="37.028767000883818" lon="-2.737268982455134">
        <ele>931.64999999999998</ele>
        <time>2025-05-12T12:04:35Z</time>
      </trkpt>
      <trkpt lat="37.028603972867131" lon="-2.737268982455134">
        <ele>930.69000000000005</ele>
        <time>2025-05-12T12:04:36Z</time>
      </trkpt>
      <trkpt lat="37.028440022841096" lon="-2.737268982455134">
        <ele>928.76999999999998</ele>
        <time>2025-05-12T12:04:37Z</time>
      </trkpt>
      <trkpt lat="37.02778397127986" lon="-2.737293038517237">
        <ele>923</ele>
        <time>2025-05-12T12:04:41Z</time>
      </trkpt>
      <trkpt lat="37.027622032910585" lon="-2.737322961911559">
        <ele>921.55999999999995</ele>
        <time>2025-05-12T12:04:42Z</time>
      </trkpt>
      <trkpt lat="37.027154993265867" lon="-2.737456988543272">
        <ele>917.72000000000003</ele>
        <time>2025-05-12T12:04:45Z</time>
      </trkpt>
      <trkpt lat="37.027000011876225" lon="-2.73747400380671">
        <ele>916.75</ele>
        <time>2025-05-12T12:04:46Z</time>
      </trkpt>
      <trkpt lat="37.026841007173061" lon="-2.737447014078498">
        <ele>915.78999999999996</ele>
        <time>2025-05-12T12:04:47Z</time>
      </trkpt>
      <trkpt lat="37.026372961699963" lon="-2.7373450063169">
        <ele>912.42999999999995</ele>
        <time>2025-05-12T12:04:50Z</time>
      </trkpt>
      <trkpt lat="37.026222003623843" lon="-2.737268982455134">
        <ele>911.47000000000003</ele>
        <time>2025-05-12T12:04:51Z</time>
      </trkpt>
      <trkpt lat="37.026103986427188" lon="-2.737165968865156">
        <ele>910.50999999999999</ele>
        <time>2025-05-12T12:04:52Z</time>
      </trkpt>
      <trkpt lat="37.025989992544055" lon="-2.737028002738953">
        <ele>909.05999999999995</ele>
        <time>2025-05-12T12:04:53Z</time>
      </trkpt>
      <trkpt lat="37.025891002267599" lon="-2.736880984157324">
        <ele>908.10000000000002</ele>
        <time>2025-05-12T12:04:54Z</time>
      </trkpt>
      <trkpt lat="37.0257200114429" lon="-2.736623995006084">
        <ele>906.17999999999995</ele>
        <time>2025-05-12T12:04:56Z</time>
      </trkpt>
      <trkpt lat="37.025707019492984" lon="-2.736492985859513">
        <ele>905.22000000000003</ele>
        <time>2025-05-12T12:04:57Z</time>
      </trkpt>
      <trkpt lat="37.025739960372448" lon="-2.7363589592278">
        <ele>904.74000000000001</ele>
        <time>2025-05-12T12:04:58Z</time>
      </trkpt>
      <trkpt lat="37.025956967845559" lon="-2.735720006749034">
        <ele>903.77999999999997</ele>
        <time>2025-05-12T12:05:02Z</time>
      </trkpt>
      <trkpt lat="37.026051012799144" lon="-2.735553039237857">
        <ele>903.29999999999995</ele>
        <time>2025-05-12T12:05:03Z</time>
      </trkpt>
      <trkpt lat="37.026152014732361" lon="-2.735434016212821">
        <ele>902.33000000000004</ele>
        <time>2025-05-12T12:05:04Z</time>
      </trkpt>
      <trkpt lat="37.026397017762065" lon="-2.735150037333369">
        <ele>900.88999999999999</ele>
        <time>2025-05-12T12:05:06Z</time>
      </trkpt>
      <trkpt lat="37.02664696611464" lon="-2.734859017655253">
        <ele>899.45000000000005</ele>
        <time>2025-05-12T12:05:08Z</time>
      </trkpt>
      <trkpt lat="37.026768000796437" lon="-2.734718034043908">
        <ele>898.49000000000001</ele>
        <time>2025-05-12T12:05:09Z</time>
      </trkpt>
      <trkpt lat="37.026970004662871" lon="-2.734484011307359">
        <ele>896.57000000000005</ele>
        <time>2025-05-12T12:05:11Z</time>
      </trkpt>
      <trkpt lat="37.026964975520968" lon="-2.734417961910367">
        <ele>895.12</ele>
        <time>2025-05-12T12:05:12Z</time>
      </trkpt>
      <trkpt lat="37.026951983571053" lon="-2.734307991340756">
        <ele>893.67999999999995</ele>
        <time>2025-05-12T12:05:13Z</time>
      </trkpt>
      <trkpt lat="37.026914013549685" lon="-2.734264992177486">
        <ele>892.72000000000003</ele>
        <time>2025-05-12T12:05:14Z</time>
      </trkpt>
      <trkpt lat="37.026841007173061" lon="-2.734182011336088">
        <ele>891.75999999999999</ele>
        <time>2025-05-12T12:05:15Z</time>
      </trkpt>
      <trkpt lat="37.026743022724986" lon="-2.734115039929748">
        <ele>891.27999999999997</ele>
        <time>2025-05-12T12:05:16Z</time>
      </trkpt>
      <trkpt lat="37.026594998314977" lon="-2.734077991917729">
        <ele>890.79999999999995</ele>
        <time>2025-05-12T12:05:17Z</time>
      </trkpt>
      <trkpt lat="37.026436999440193" lon="-2.734103975817561">
        <ele>890.32000000000005</ele>
        <time>2025-05-12T12:05:18Z</time>
      </trkpt>
      <trkpt lat="37.026273971423507" lon="-2.734135994687676">
        <ele>889.36000000000001</ele>
        <time>2025-05-12T12:05:19Z</time>
      </trkpt>
      <trkpt lat="37.026112033054233" lon="-2.734170025214553">
        <ele>888.88</ele>
        <time>2025-05-12T12:05:20Z</time>
      </trkpt>
      <trkpt lat="37.02595897950232" lon="-2.734199026599526">
        <ele>887.42999999999995</ele>
        <time>2025-05-12T12:05:21Z</time>
      </trkpt>
      <trkpt lat="37.025826964527369" lon="-2.734148986637592">
        <ele>886.47000000000003</ele>
        <time>2025-05-12T12:05:22Z</time>
      </trkpt>
      <trkpt lat="37.025724034756422" lon="-2.73405603133142">
        <ele>885.50999999999999</ele>
        <time>2025-05-12T12:05:23Z</time>
      </trkpt>
      <trkpt lat="37.025629989802837" lon="-2.733924016356468">
        <ele>884.54999999999995</ele>
        <time>2025-05-12T12:05:24Z</time>
      </trkpt>
      <trkpt lat="37.025538040325046" lon="-2.73375503718853">
        <ele>883.11000000000001</ele>
        <time>2025-05-12T12:05:25Z</time>
      </trkpt>
      <trkpt lat="37.02479800209403" lon="-2.732640998438001">
        <ele>870.61000000000001</ele>
        <time>2025-05-12T12:05:31Z</time>
      </trkpt>
      <trkpt lat="37.024651989340782" lon="-2.732489034533501">
        <ele>868.69000000000005</ele>
        <time>2025-05-12T12:05:32Z</time>
      </trkpt>
      <trkpt lat="37.024515029042959" lon="-2.732346039265394">
        <ele>866.28999999999996</ele>
        <time>2025-05-12T12:05:33Z</time>
      </trkpt>
      <trkpt lat="37.024408997967839" lon="-2.732205977663398">
        <ele>863.88</ele>
        <time>2025-05-12T12:05:34Z</time>
      </trkpt>
      <trkpt lat="37.024342026561499" lon="-2.732072034850717">
        <ele>861.96000000000004</ele>
        <time>2025-05-12T12:05:35Z</time>
      </trkpt>
      <trkpt lat="37.024321993812919" lon="-2.731929961591959">
        <ele>861</ele>
        <time>2025-05-12T12:05:36Z</time>
      </trkpt>
      <trkpt lat="37.024359963834286" lon="-2.731768023222685">
        <ele>859.55999999999995</ele>
        <time>2025-05-12T12:05:37Z</time>
      </trkpt>
      <trkpt lat="37.024403968825936" lon="-2.731585968285799">
        <ele>858.59000000000003</ele>
        <time>2025-05-12T12:05:38Z</time>
      </trkpt>
      <trkpt lat="37.024419978260994" lon="-2.731396034359932">
        <ele>857.14999999999998</ele>
        <time>2025-05-12T12:05:39Z</time>
      </trkpt>
      <trkpt lat="37.024416038766503" lon="-2.731205010786653">
        <ele>855.71000000000004</ele>
        <time>2025-05-12T12:05:40Z</time>
      </trkpt>
      <trkpt lat="37.024364992976189" lon="-2.731018010526896">
        <ele>854.26999999999998</ele>
        <time>2025-05-12T12:05:41Z</time>
      </trkpt>
      <trkpt lat="37.024277988821268" lon="-2.730851965025067">
        <ele>852.83000000000004</ele>
        <time>2025-05-12T12:05:42Z</time>
      </trkpt>
      <trkpt lat="37.024186961352825" lon="-2.730696983635426">
        <ele>851.87</ele>
        <time>2025-05-12T12:05:43Z</time>
      </trkpt>
      <trkpt lat="37.024103980511427" lon="-2.730558011680841">
        <ele>850.41999999999996</ele>
        <time>2025-05-12T12:05:44Z</time>
      </trkpt>
      <trkpt lat="37.024084031581879" lon="-2.730431025847793">
        <ele>848.98000000000002</ele>
        <time>2025-05-12T12:05:45Z</time>
      </trkpt>
      <trkpt lat="37.024096017703414" lon="-2.730318959802389">
        <ele>848.01999999999998</ele>
        <time>2025-05-12T12:05:46Z</time>
      </trkpt>
      <trkpt lat="37.024156032130122" lon="-2.730236984789372">
        <ele>846.58000000000004</ele>
        <time>2025-05-12T12:05:47Z</time>
      </trkpt>
      <trkpt lat="37.024249993264675" lon="-2.730201026424766">
        <ele>845.62</ele>
        <time>2025-05-12T12:05:48Z</time>
      </trkpt>
      <trkpt lat="37.024362981319427" lon="-2.730201026424766">
        <ele>844.65999999999997</ele>
        <time>2025-05-12T12:05:49Z</time>
      </trkpt>
      <trkpt lat="37.02449700795114" lon="-2.730258023366332">
        <ele>843.69000000000005</ele>
        <time>2025-05-12T12:05:50Z</time>
      </trkpt>
      <trkpt lat="37.024641009047627" lon="-2.73031996563077">
        <ele>843.21000000000004</ele>
        <time>2025-05-12T12:05:51Z</time>
      </trkpt>
      <trkpt lat="37.024781992658973" lon="-2.730379980057478">
        <ele>842.25</ele>
        <time>2025-05-12T12:05:52Z</time>
      </trkpt>
      <trkpt lat="37.024914007633924" lon="-2.730366988107562">
        <ele>841.76999999999998</ele>
        <time>2025-05-12T12:05:53Z</time>
      </trkpt>
      <trkpt lat="37.025006040930748" lon="-2.730324994772673">
        <ele>840.80999999999995</ele>
        <time>2025-05-12T12:05:54Z</time>
      </trkpt>
      <trkpt lat="37.025087010115385" lon="-2.730228016152978">
        <ele>839.85000000000002</ele>
        <time>2025-05-12T12:05:55Z</time>
      </trkpt>
      <trkpt lat="37.025158004835248" lon="-2.730085020884872">
        <ele>838.88999999999999</ele>
        <time>2025-05-12T12:05:56Z</time>
      </trkpt>
      <trkpt lat="37.025237968191504" lon="-2.729925010353327">
        <ele>837.92999999999995</ele>
        <time>2025-05-12T12:05:57Z</time>
      </trkpt>
      <trkpt lat="37.025326984003186" lon="-2.729769023135305">
        <ele>836.96000000000004</ele>
        <time>2025-05-12T12:05:58Z</time>
      </trkpt>
      <trkpt lat="37.025436032563448" lon="-2.729637008160353">
        <ele>835.51999999999998</ele>
        <time>2025-05-12T12:05:59Z</time>
      </trkpt>
      <trkpt lat="37.025535022839904" lon="-2.729516979306936">
        <ele>834.55999999999995</ele>
        <time>2025-05-12T12:06:00Z</time>
      </trkpt>
      <trkpt lat="37.025597970932722" lon="-2.729418994858861">
        <ele>833.12</ele>
        <time>2025-05-12T12:06:01Z</time>
      </trkpt>
      <trkpt lat="37.025585984811187" lon="-2.729326039552689">
        <ele>831.67999999999995</ele>
        <time>2025-05-12T12:06:02Z</time>
      </trkpt>
      <trkpt lat="37.025550026446581" lon="-2.729246998205781">
        <ele>830.72000000000003</ele>
        <time>2025-05-12T12:06:03Z</time>
      </trkpt>
      <trkpt lat="37.025452964007854" lon="-2.729235012084246">
        <ele>829.26999999999998</ele>
        <time>2025-05-12T12:06:04Z</time>
      </trkpt>
      <trkpt lat="37.025340981781483" lon="-2.729256972670555">
        <ele>828.30999999999995</ele>
        <time>2025-05-12T12:06:05Z</time>
      </trkpt>
      <trkpt lat="37.025217013433576" lon="-2.729339031502605">
        <ele>827.35000000000002</ele>
        <time>2025-05-12T12:06:06Z</time>
      </trkpt>
      <trkpt lat="37.025095978751779" lon="-2.729455037042499">
        <ele>826.38999999999999</ele>
        <time>2025-05-12T12:06:07Z</time>
      </trkpt>
      <trkpt lat="37.025011992082" lon="-2.729605995118618">
        <ele>824.95000000000005</ele>
        <time>2025-05-12T12:06:08Z</time>
      </trkpt>
      <trkpt lat="37.024932028725743" lon="-2.729746978729963">
        <ele>823.50999999999999</ele>
        <time>2025-05-12T12:06:09Z</time>
      </trkpt>
      <trkpt lat="37.024827003479004" lon="-2.72982400842011">
        <ele>822.54999999999995</ele>
        <time>2025-05-12T12:06:10Z</time>
      </trkpt>
      <trkpt lat="37.024722984060645" lon="-2.729828031733632">
        <ele>822.05999999999995</ele>
        <time>2025-05-12T12:06:11Z</time>
      </trkpt>
      <trkpt lat="37.024633968248963" lon="-2.729800958186388">
        <ele>821.58000000000004</ele>
        <time>2025-05-12T12:06:12Z</time>
      </trkpt>
      <trkpt lat="37.024590969085693" lon="-2.72973801009357">
        <ele>821.10000000000002</ele>
        <time>2025-05-12T12:06:13Z</time>
      </trkpt>
      <trkpt lat="37.024590969085693" lon="-2.729596020653844">
        <ele>820.62</ele>
        <time>2025-05-12T12:06:14Z</time>
      </trkpt>
      <trkpt lat="37.024630028754473" lon="-2.729482026770711">
        <ele>820.13999999999999</ele>
        <time>2025-05-12T12:06:15Z</time>
      </trkpt>
      <trkpt lat="37.024700017645955" lon="-2.729326039552689">
        <ele>819.65999999999997</ele>
        <time>2025-05-12T12:06:16Z</time>
      </trkpt>
      <trkpt lat="37.024779981002212" lon="-2.729151025414467">
        <ele>818.70000000000005</ele>
        <time>2025-05-12T12:06:17Z</time>
      </trkpt>
      <trkpt lat="37.025285996496677" lon="-2.728144023567438">
        <ele>814.37</ele>
        <time>2025-05-12T12:06:22Z</time>
      </trkpt>
      <trkpt lat="37.025322038680315" lon="-2.727921986952424">
        <ele>813.40999999999997</ele>
        <time>2025-05-12T12:06:23Z</time>
      </trkpt>
      <trkpt lat="37.025359002873302" lon="-2.727690981701016">
        <ele>811.97000000000003</ele>
        <time>2025-05-12T12:06:24Z</time>
      </trkpt>
      <trkpt lat="37.025452964007854" lon="-2.726767966523767">
        <ele>806.67999999999995</ele>
        <time>2025-05-12T12:06:29Z</time>
      </trkpt>
      <trkpt lat="37.025455981492996" lon="-2.726705018430948">
        <ele>802.84000000000003</ele>
        <time>2025-05-12T12:06:36Z</time>
      </trkpt>
      <trkpt lat="37.025455981492996" lon="-2.726705018430948">
        <ele>802.36000000000001</ele>
        <time>2025-05-12T12:07:14Z</time>
      </trkpt>
      <trkpt lat="37.025455981492996" lon="-2.726705018430948">
        <ele>801.88</ele>
        <time>2025-05-12T12:08:07Z</time>
      </trkpt>
      <trkpt lat="37.025455981492996" lon="-2.726705018430948">
        <ele>801.88</ele>
        <time>2025-05-12T12:08:34Z</time>
      </trkpt>
      <trkpt lat="37.02539898455143" lon="-2.726649027317762">
        <ele>822.05999999999995</ele>
        <time>2025-05-12T12:11:15Z</time>
      </trkpt>
      <trkpt lat="37.025466039776802" lon="-2.726727984845638">
        <ele>803.79999999999995</ele>
        <time>2025-05-12T12:11:53Z</time>
      </trkpt>
      <trkpt lat="37.025427985936403" lon="-2.726697977632284">
        <ele>810.52999999999997</ele>
        <time>2025-05-12T12:12:38Z</time>
      </trkpt>
      <trkpt lat="37.02546201646328" lon="-2.726705018430948">
        <ele>805.24000000000001</ele>
        <time>2025-05-12T12:13:22Z</time>
      </trkpt>
      <trkpt lat="37.025466039776802" lon="-2.726474013179541">
        <ele>805.72000000000003</ele>
        <time>2025-05-12T12:13:40Z</time>
      </trkpt>
      <trkpt lat="37.025489006191492" lon="-2.725989036262035">
        <ele>804.27999999999997</ele>
        <time>2025-05-12T12:13:44Z</time>
      </trkpt>
      <trkpt lat="37.025478025898337" lon="-2.725869007408619">
        <ele>803.79999999999995</ele>
        <time>2025-05-12T12:13:45Z</time>
      </trkpt>
      <trkpt lat="37.025448018684983" lon="-2.725744033232331">
        <ele>803.32000000000005</ele>
        <time>2025-05-12T12:13:46Z</time>
      </trkpt>
      <trkpt lat="37.025392027571797" lon="-2.725630961358547">
        <ele>802.84000000000003</ele>
        <time>2025-05-12T12:13:47Z</time>
      </trkpt>
      <trkpt lat="37.025322960689664" lon="-2.725519984960556">
        <ele>802.36000000000001</ele>
        <time>2025-05-12T12:13:48Z</time>
      </trkpt>
      <trkpt lat="37.025250038132071" lon="-2.725417977198958">
        <ele>802.36000000000001</ele>
        <time>2025-05-12T12:13:49Z</time>
      </trkpt>
      <trkpt lat="37.025164039805532" lon="-2.725324016064405">
        <ele>801.88</ele>
        <time>2025-05-12T12:13:50Z</time>
      </trkpt>
      <trkpt lat="37.025057002902031" lon="-2.72526802495122">
        <ele>801.88</ele>
        <time>2025-05-12T12:13:51Z</time>
      </trkpt>
      <trkpt lat="37.024693982675672" lon="-2.725074989721179">
        <ele>800.44000000000005</ele>
        <time>2025-05-12T12:13:54Z</time>
      </trkpt>
      <trkpt lat="37.024470018222928" lon="-2.724956972524524">
        <ele>799.47000000000003</ele>
        <time>2025-05-12T12:13:56Z</time>
      </trkpt>
      <trkpt lat="37.024370022118092" lon="-2.724915985018015">
        <ele>798.50999999999999</ele>
        <time>2025-05-12T12:13:57Z</time>
      </trkpt>
      <trkpt lat="37.024263991042972" lon="-2.724978011101484">
        <ele>797.54999999999995</ele>
        <time>2025-05-12T12:13:58Z</time>
      </trkpt>
      <trkpt lat="37.024177992716432" lon="-2.725055040791631">
        <ele>796.59000000000003</ele>
        <time>2025-05-12T12:13:59Z</time>
      </trkpt>
      <trkpt lat="37.02413197606802" lon="-2.72518303245306">
        <ele>795.63</ele>
        <time>2025-05-12T12:14:00Z</time>
      </trkpt>
      <trkpt lat="37.024081014096737" lon="-2.725326027721167">
        <ele>794.66999999999996</ele>
        <time>2025-05-12T12:14:01Z</time>
      </trkpt>
      <trkpt lat="37.024044971913099" lon="-2.72548696026206">
        <ele>793.71000000000004</ele>
        <time>2025-05-12T12:14:02Z</time>
      </trkpt>
      <trkpt lat="37.024012031033635" lon="-2.725639007985592">
        <ele>792.74000000000001</ele>
        <time>2025-05-12T12:14:03Z</time>
      </trkpt>
      <trkpt lat="37.024038014933467" lon="-2.725821984931827">
        <ele>791.29999999999995</ele>
        <time>2025-05-12T12:14:04Z</time>
      </trkpt>
      <trkpt lat="37.024062993004918" lon="-2.725994987413287">
        <ele>790.34000000000003</ele>
        <time>2025-05-12T12:14:05Z</time>
      </trkpt>
      <trkpt lat="37.024086965247989" lon="-2.726165978237987">
        <ele>789.38</ele>
        <time>2025-05-12T12:14:06Z</time>
      </trkpt>
      <trkpt lat="37.024134993553162" lon="-2.726287012919784">
        <ele>788.41999999999996</ele>
        <time>2025-05-12T12:14:07Z</time>
      </trkpt>
      <trkpt lat="37.024206994101405" lon="-2.726377034559846">
        <ele>787.46000000000004</ele>
        <time>2025-05-12T12:14:08Z</time>
      </trkpt>
      <trkpt lat="37.024270026013255" lon="-2.726454986259341">
        <ele>786.5</ele>
        <time>2025-05-12T12:14:09Z</time>
      </trkpt>
      <trkpt lat="37.024364992976189" lon="-2.726490022614598">
        <ele>786.01999999999998</ele>
        <time>2025-05-12T12:14:10Z</time>
      </trkpt>
      <trkpt lat="37.024478986859322" lon="-2.726533021777868">
        <ele>785.52999999999997</ele>
        <time>2025-05-12T12:14:11Z</time>
      </trkpt>
      <trkpt lat="37.024603961035609" lon="-2.726579960435629">
        <ele>785.04999999999995</ele>
        <time>2025-05-12T12:14:12Z</time>
      </trkpt>
      <trkpt lat="37.02473203651607" lon="-2.726627988740802">
        <ele>784.09000000000003</ele>
        <time>2025-05-12T12:14:13Z</time>
      </trkpt>
      <trkpt lat="37.024824991822243" lon="-2.726722033694387">
        <ele>783.61000000000001</ele>
        <time>2025-05-12T12:14:14Z</time>
      </trkpt>
      <trkpt lat="37.024885006248951" lon="-2.726833010092378">
        <ele>783.13</ele>
        <time>2025-05-12T12:14:15Z</time>
      </trkpt>
      <trkpt lat="37.024891041219234" lon="-2.726973993703723">
        <ele>782.16999999999996</ele>
        <time>2025-05-12T12:14:16Z</time>
      </trkpt>
      <trkpt lat="37.024834966287017" lon="-2.727091005071998">
        <ele>781.69000000000005</ele>
        <time>2025-05-12T12:14:17Z</time>
      </trkpt>
      <trkpt lat="37.024762965738773" lon="-2.727163005620241">
        <ele>780.73000000000002</ele>
        <time>2025-05-12T12:14:18Z</time>
      </trkpt>
      <trkpt lat="37.024620976299047" lon="-2.727179015055299">
        <ele>779.76999999999998</ele>
        <time>2025-05-12T12:14:19Z</time>
      </trkpt>
      <trkpt lat="37.024474963545799" lon="-2.727195024490356">
        <ele>778.80999999999995</ele>
        <time>2025-05-12T12:14:20Z</time>
      </trkpt>
      <trkpt lat="37.024315958842635" lon="-2.727220002561808">
        <ele>778.32000000000005</ele>
        <time>2025-05-12T12:14:21Z</time>
      </trkpt>
      <trkpt lat="37.024158965796232" lon="-2.727257972583175">
        <ele>777.36000000000001</ele>
        <time>2025-05-12T12:14:22Z</time>
      </trkpt>
      <trkpt lat="37.023856965824962" lon="-2.727330978959799">
        <ele>775.91999999999996</ele>
        <time>2025-05-12T12:14:24Z</time>
      </trkpt>
      <trkpt lat="37.023132015019655" lon="-2.727591991424561">
        <ele>772.08000000000004</ele>
        <time>2025-05-12T12:14:29Z</time>
      </trkpt>
      <trkpt lat="37.022989019751549" lon="-2.727551003918052">
        <ele>771.11000000000001</ele>
        <time>2025-05-12T12:14:30Z</time>
      </trkpt>
      <trkpt lat="37.022912995889783" lon="-2.727468023076654">
        <ele>769.66999999999996</ele>
        <time>2025-05-12T12:14:31Z</time>
      </trkpt>
      <trkpt lat="37.022822974249721" lon="-2.727355035021901">
        <ele>767.75</ele>
        <time>2025-05-12T12:14:32Z</time>
      </trkpt>
      <trkpt lat="37.022731024771929" lon="-2.727222014218569">
        <ele>766.30999999999995</ele>
        <time>2025-05-12T12:14:33Z</time>
      </trkpt>
      <trkpt lat="37.022650977596641" lon="-2.727103997021914">
        <ele>764.87</ele>
        <time>2025-05-12T12:14:34Z</time>
      </trkpt>
      <trkpt lat="37.022544024512172" lon="-2.727068038657308">
        <ele>763.89999999999998</ele>
        <time>2025-05-12T12:14:35Z</time>
      </trkpt>
      <trkpt lat="37.022489039227366" lon="-2.727077007293701">
        <ele>762.46000000000004</ele>
        <time>2025-05-12T12:14:36Z</time>
      </trkpt>
      <trkpt lat="37.022426007315516" lon="-2.727169962599874">
        <ele>761.01999999999998</ele>
        <time>2025-05-12T12:14:37Z</time>
      </trkpt>
      <trkpt lat="37.022392982617021" lon="-2.727280016988516">
        <ele>759.58000000000004</ele>
        <time>2025-05-12T12:14:38Z</time>
      </trkpt>
      <trkpt lat="37.022374039515853" lon="-2.727425023913384">
        <ele>758.13999999999999</ele>
        <time>2025-05-12T12:14:39Z</time>
      </trkpt>
      <trkpt lat="37.022239007055759" lon="-2.728115022182465">
        <ele>754.28999999999996</ele>
        <time>2025-05-12T12:14:43Z</time>
      </trkpt>
      <trkpt lat="37.022184021770954" lon="-2.728238990530372">
        <ele>753.80999999999995</ele>
        <time>2025-05-12T12:14:44Z</time>
      </trkpt>
      <trkpt lat="37.022101040929556" lon="-2.728304034098983">
        <ele>752.85000000000002</ele>
        <time>2025-05-12T12:14:45Z</time>
      </trkpt>
      <trkpt lat="37.021995009854436" lon="-2.72832197137177">
        <ele>752.37</ele>
        <time>2025-05-12T12:14:46Z</time>
      </trkpt>
      <trkpt lat="37.021890990436077" lon="-2.728279978036881">
        <ele>751.40999999999997</ele>
        <time>2025-05-12T12:14:47Z</time>
      </trkpt>
      <trkpt lat="37.021821001544595" lon="-2.728162966668606">
        <ele>750.45000000000005</ele>
        <time>2025-05-12T12:14:48Z</time>
      </trkpt>
      <trkpt lat="37.021775990724564" lon="-2.728011002764106">
        <ele>749</ele>
        <time>2025-05-12T12:14:49Z</time>
      </trkpt>
      <trkpt lat="37.021738020703197" lon="-2.727840011939406">
        <ele>747.55999999999995</ele>
        <time>2025-05-12T12:14:50Z</time>
      </trkpt>
      <trkpt lat="37.02161799184978" lon="-2.727476991713047">
        <ele>746.12</ele>
        <time>2025-05-12T12:14:52Z</time>
      </trkpt>
      <trkpt lat="37.021542973816395" lon="-2.727287979796529">
        <ele>745.63999999999999</ele>
        <time>2025-05-12T12:14:53Z</time>
      </trkpt>
      <trkpt lat="37.021458987146616" lon="-2.727120006456971">
        <ele>744.67999999999995</ele>
        <time>2025-05-12T12:14:54Z</time>
      </trkpt>
      <trkpt lat="37.021324038505554" lon="-2.72700903005898">
        <ele>744.20000000000005</ele>
        <time>2025-05-12T12:14:55Z</time>
      </trkpt>
      <trkpt lat="37.02118800021708" lon="-2.726896964013577">
        <ele>743.24000000000001</ele>
        <time>2025-05-12T12:14:56Z</time>
      </trkpt>
      <trkpt lat="37.021036958321929" lon="-2.726793028414249">
        <ele>742.75999999999999</ele>
        <time>2025-05-12T12:14:57Z</time>
      </trkpt>
      <trkpt lat="37.020867979153991" lon="-2.726713987067342">
        <ele>741.78999999999996</ele>
        <time>2025-05-12T12:14:58Z</time>
      </trkpt>
      <trkpt lat="37.020692965015769" lon="-2.726656990125775">
        <ele>740.83000000000004</ele>
        <time>2025-05-12T12:14:59Z</time>
      </trkpt>
      <trkpt lat="37.020516023039818" lon="-2.726630000397563">
        <ele>739.87</ele>
        <time>2025-05-12T12:15:00Z</time>
      </trkpt>
      <trkpt lat="37.020346960052848" lon="-2.726640980690718">
        <ele>738.42999999999995</ele>
        <time>2025-05-12T12:15:01Z</time>
      </trkpt>
      <trkpt lat="37.020191978663206" lon="-2.726655984297395">
        <ele>736.50999999999999</ele>
        <time>2025-05-12T12:15:02Z</time>
      </trkpt>
      <trkpt lat="37.020046971738338" lon="-2.72666696459055">
        <ele>734.58000000000004</ele>
        <time>2025-05-12T12:15:03Z</time>
      </trkpt>
      <trkpt lat="37.019934989511967" lon="-2.726648021489382">
        <ele>732.65999999999997</ele>
        <time>2025-05-12T12:15:04Z</time>
      </trkpt>
      <trkpt lat="37.019848991185427" lon="-2.726540984585881">
        <ele>731.22000000000003</ele>
        <time>2025-05-12T12:15:05Z</time>
      </trkpt>
      <trkpt lat="37.01981202699244" lon="-2.726426990702748">
        <ele>729.29999999999995</ele>
        <time>2025-05-12T12:15:06Z</time>
      </trkpt>
      <trkpt lat="37.019831975921988" lon="-2.726309979334474">
        <ele>727.86000000000001</ele>
        <time>2025-05-12T12:15:07Z</time>
      </trkpt>
      <trkpt lat="37.019889978691936" lon="-2.726180981844664">
        <ele>726.88999999999999</ele>
        <time>2025-05-12T12:15:08Z</time>
      </trkpt>
      <trkpt lat="37.01998402364552" lon="-2.72604200989008">
        <ele>725.45000000000005</ele>
        <time>2025-05-12T12:15:09Z</time>
      </trkpt>
      <trkpt lat="37.020171023905277" lon="-2.725768005475402">
        <ele>723.04999999999995</ele>
        <time>2025-05-12T12:15:11Z</time>
      </trkpt>
      <trkpt lat="37.020303038880229" lon="-2.725686030462384">
        <ele>721.61000000000001</ele>
        <time>2025-05-12T12:15:12Z</time>
      </trkpt>
      <trkpt lat="37.020387025550008" lon="-2.725683012977243">
        <ele>720.15999999999997</ele>
        <time>2025-05-12T12:15:13Z</time>
      </trkpt>
      <trkpt lat="37.020496996119618" lon="-2.725737998262048">
        <ele>719.20000000000005</ele>
        <time>2025-05-12T12:15:14Z</time>
      </trkpt>
      <trkpt lat="37.0205860119313" lon="-2.725844029337168">
        <ele>717.75999999999999</ele>
        <time>2025-05-12T12:15:15Z</time>
      </trkpt>
      <trkpt lat="37.020688019692898" lon="-2.725984007120132">
        <ele>716.79999999999995</ele>
        <time>2025-05-12T12:15:16Z</time>
      </trkpt>
      <trkpt lat="37.02080000191927" lon="-2.726136976853013">
        <ele>715.36000000000001</ele>
        <time>2025-05-12T12:15:17Z</time>
      </trkpt>
      <trkpt lat="37.020917013287544" lon="-2.726297993212938">
        <ele>714.88</ele>
        <time>2025-05-12T12:15:18Z</time>
      </trkpt>
      <trkpt lat="37.02107903547585" lon="-2.726404024288058">
        <ele>713.44000000000005</ele>
        <time>2025-05-12T12:15:19Z</time>
      </trkpt>
      <trkpt lat="37.021235022693872" lon="-2.726503014564514">
        <ele>712.47000000000003</ele>
        <time>2025-05-12T12:15:20Z</time>
      </trkpt>
      <trkpt lat="37.021382041275501" lon="-2.726596975699067">
        <ele>711.50999999999999</ele>
        <time>2025-05-12T12:15:21Z</time>
      </trkpt>
      <trkpt lat="37.021538028493524" lon="-2.726605022326112">
        <ele>710.54999999999995</ele>
        <time>2025-05-12T12:15:22Z</time>
      </trkpt>
      <trkpt lat="37.021669959649444" lon="-2.726605022326112">
        <ele>709.59000000000003</ele>
        <time>2025-05-12T12:15:23Z</time>
      </trkpt>
      <trkpt lat="37.021741960197687" lon="-2.726508965715766">
        <ele>709.11000000000001</ele>
        <time>2025-05-12T12:15:24Z</time>
      </trkpt>
      <trkpt lat="37.021780014038086" lon="-2.726431014016271">
        <ele>708.14999999999998</ele>
        <time>2025-05-12T12:15:25Z</time>
      </trkpt>
      <trkpt lat="37.021780014038086" lon="-2.726315008476377">
        <ele>707.66999999999996</ele>
        <time>2025-05-12T12:15:26Z</time>
      </trkpt>
      <trkpt lat="37.0217240229249" lon="-2.72621501237154">
        <ele>707.19000000000005</ele>
        <time>2025-05-12T12:15:27Z</time>
      </trkpt>
      <trkpt lat="37.021615980193019" lon="-2.726125996559858">
        <ele>706.71000000000004</ele>
        <time>2025-05-12T12:15:28Z</time>
      </trkpt>
      <trkpt lat="37.021494023501873" lon="-2.726026000455022">
        <ele>706.71000000000004</ele>
        <time>2025-05-12T12:15:29Z</time>
      </trkpt>
      <trkpt lat="37.021371982991695" lon="-2.725909994915128">
        <ele>705.75</ele>
        <time>2025-05-12T12:15:30Z</time>
      </trkpt>
      <trkpt lat="37.021267963573337" lon="-2.725755013525486">
        <ele>705.25999999999999</ele>
        <time>2025-05-12T12:15:31Z</time>
      </trkpt>
      <trkpt lat="37.02121096663177" lon="-2.725558960810304">
        <ele>704.77999999999997</ele>
        <time>2025-05-12T12:15:32Z</time>
      </trkpt>
      <trkpt lat="37.021155981346965" lon="-2.725357040762901">
        <ele>704.29999999999995</ele>
        <time>2025-05-12T12:15:33Z</time>
      </trkpt>
      <trkpt lat="37.021094039082527" lon="-2.725124023854733">
        <ele>703.82000000000005</ele>
        <time>2025-05-12T12:15:34Z</time>
      </trkpt>
      <trkpt lat="37.021013991907239" lon="-2.724984968081117">
        <ele>703.34000000000003</ele>
        <time>2025-05-12T12:15:35Z</time>
      </trkpt>
      <trkpt lat="37.020889017730951" lon="-2.724872985854745">
        <ele>702.86000000000001</ele>
        <time>2025-05-12T12:15:36Z</time>
      </trkpt>
      <trkpt lat="37.020748034119606" lon="-2.724796961992979">
        <ele>702.38</ele>
        <time>2025-05-12T12:15:37Z</time>
      </trkpt>
      <trkpt lat="37.020592968910933" lon="-2.724728984758258">
        <ele>700.94000000000005</ele>
        <time>2025-05-12T12:15:38Z</time>
      </trkpt>
      <trkpt lat="37.020432036370039" lon="-2.724657990038395">
        <ele>699.98000000000002</ele>
        <time>2025-05-12T12:15:39Z</time>
      </trkpt>
      <trkpt lat="37.020283006131649" lon="-2.724578026682138">
        <ele>699.01999999999998</ele>
        <time>2025-05-12T12:15:40Z</time>
      </trkpt>
      <trkpt lat="37.020147973671556" lon="-2.724466966465116">
        <ele>698.52999999999997</ele>
        <time>2025-05-12T12:15:41Z</time>
      </trkpt>
      <trkpt lat="37.020020987838507" lon="-2.724362025037408">
        <ele>698.04999999999995</ele>
        <time>2025-05-12T12:15:42Z</time>
      </trkpt>
      <trkpt lat="37.019891990348697" lon="-2.724299998953939">
        <ele>698.04999999999995</ele>
        <time>2025-05-12T12:15:43Z</time>
      </trkpt>
      <trkpt lat="37.01976802200079" lon="-2.724297987297177">
        <ele>697.57000000000005</ele>
        <time>2025-05-12T12:15:44Z</time>
      </trkpt>
      <trkpt lat="37.019643969833851" lon="-2.724332017824054">
        <ele>696.61000000000001</ele>
        <time>2025-05-12T12:15:45Z</time>
      </trkpt>
      <trkpt lat="37.019522013142705" lon="-2.724421033635736">
        <ele>695.64999999999998</ele>
        <time>2025-05-12T12:15:46Z</time>
      </trkpt>
      <trkpt lat="37.019420005381107" lon="-2.724566040560603">
        <ele>695.16999999999996</ele>
        <time>2025-05-12T12:15:47Z</time>
      </trkpt>
      <trkpt lat="37.019354039803147" lon="-2.72471196949482">
        <ele>693.73000000000002</ele>
        <time>2025-05-12T12:15:48Z</time>
      </trkpt>
      <trkpt lat="37.019280027598143" lon="-2.724842978641391">
        <ele>692.28999999999996</ele>
        <time>2025-05-12T12:15:49Z</time>
      </trkpt>
      <trkpt lat="37.0191890001297" lon="-2.724956972524524">
        <ele>691.33000000000004</ele>
        <time>2025-05-12T12:15:50Z</time>
      </trkpt>
      <trkpt lat="37.019090009853244" lon="-2.725029978901148">
        <ele>690.36000000000001</ele>
        <time>2025-05-12T12:15:51Z</time>
      </trkpt>
      <trkpt lat="37.018952965736389" lon="-2.725064009428024">
        <ele>689.39999999999998</ele>
        <time>2025-05-12T12:15:52Z</time>
      </trkpt>
      <trkpt lat="37.018806030973792" lon="-2.725100973621011">
        <ele>688.44000000000005</ele>
        <time>2025-05-12T12:15:53Z</time>
      </trkpt>
      <trkpt lat="37.018550969660282" lon="-2.725121006369591">
        <ele>687</ele>
        <time>2025-05-12T12:15:55Z</time>
      </trkpt>
      <trkpt lat="37.0184809807688" lon="-2.725073983892798">
        <ele>686.03999999999996</ele>
        <time>2025-05-12T12:15:56Z</time>
      </trkpt>
      <trkpt lat="37.018429012969136" lon="-2.724983962252736">
        <ele>685.08000000000004</ele>
        <time>2025-05-12T12:15:57Z</time>
      </trkpt>
      <trkpt lat="37.018433958292007" lon="-2.724868962541223">
        <ele>684.12</ele>
        <time>2025-05-12T12:15:58Z</time>
      </trkpt>
      <trkpt lat="37.018475029617548" lon="-2.72471004165709">
        <ele>683.63</ele>
        <time>2025-05-12T12:15:59Z</time>
      </trkpt>
      <trkpt lat="37.01852397993207" lon="-2.724524969235063">
        <ele>682.66999999999996</ele>
        <time>2025-05-12T12:16:00Z</time>
      </trkpt>
      <trkpt lat="37.018733024597168" lon="-2.723730029538274">
        <ele>679.30999999999995</ele>
        <time>2025-05-12T12:16:04Z</time>
      </trkpt>
      <trkpt lat="37.018819022923708" lon="-2.723601032048464">
        <ele>678.35000000000002</ele>
        <time>2025-05-12T12:16:05Z</time>
      </trkpt>
      <trkpt lat="37.018909966573119" lon="-2.723583010956645">
        <ele>677.38999999999999</ele>
        <time>2025-05-12T12:16:06Z</time>
      </trkpt>
      <trkpt lat="37.018980039283633" lon="-2.723610000684857">
        <ele>676.90999999999997</ele>
        <time>2025-05-12T12:16:07Z</time>
      </trkpt>
      <trkpt lat="37.019075006246567" lon="-2.723664985969663">
        <ele>675.94000000000005</ele>
        <time>2025-05-12T12:16:08Z</time>
      </trkpt>
      <trkpt lat="37.019183970987797" lon="-2.723728017881513">
        <ele>674.98000000000002</ele>
        <time>2025-05-12T12:16:09Z</time>
      </trkpt>
      <trkpt lat="37.019300982356071" lon="-2.723795995116234">
        <ele>674.5</ele>
        <time>2025-05-12T12:16:10Z</time>
      </trkpt>
      <trkpt lat="37.019443977624178" lon="-2.723799012601376">
        <ele>673.53999999999996</ele>
        <time>2025-05-12T12:16:11Z</time>
      </trkpt>
      <trkpt lat="37.019581021741033" lon="-2.723777974024415">
        <ele>672.58000000000004</ele>
        <time>2025-05-12T12:16:12Z</time>
      </trkpt>
      <trkpt lat="37.019723011180758" lon="-2.723756013438106">
        <ele>671.13999999999999</ele>
        <time>2025-05-12T12:16:13Z</time>
      </trkpt>
      <trkpt lat="37.019865000620484" lon="-2.723733969032764">
        <ele>670.17999999999995</ele>
        <time>2025-05-12T12:16:14Z</time>
      </trkpt>
      <trkpt lat="37.019995003938675" lon="-2.723699016496539">
        <ele>669.22000000000003</ele>
        <time>2025-05-12T12:16:15Z</time>
      </trkpt>
      <trkpt lat="37.020098017528653" lon="-2.723668003454804">
        <ele>668.73000000000002</ele>
        <time>2025-05-12T12:16:16Z</time>
      </trkpt>
      <trkpt lat="37.020118972286582" lon="-2.723602959886193">
        <ele>668.25</ele>
        <time>2025-05-12T12:16:17Z</time>
      </trkpt>
      <trkpt lat="37.020149985328317" lon="-2.723450995981693">
        <ele>667.76999999999998</ele>
        <time>2025-05-12T12:16:18Z</time>
      </trkpt>
      <trkpt lat="37.020149985328317" lon="-2.723412020131946">
        <ele>667.28999999999996</ele>
        <time>2025-05-12T12:16:19Z</time>
      </trkpt>
      <trkpt lat="37.020149985328317" lon="-2.723286962136626">
        <ele>666.33000000000004</ele>
        <time>2025-05-12T12:16:20Z</time>
      </trkpt>
      <trkpt lat="37.020205976441503" lon="-2.723167017102242">
        <ele>665.85000000000002</ele>
        <time>2025-05-12T12:16:21Z</time>
      </trkpt>
      <trkpt lat="37.02028401196003" lon="-2.723042964935303">
        <ele>665.37</ele>
        <time>2025-05-12T12:16:22Z</time>
      </trkpt>
      <trkpt lat="37.020362969487906" lon="-2.722915979102254">
        <ele>664.88999999999999</ele>
        <time>2025-05-12T12:16:23Z</time>
      </trkpt>
      <trkpt lat="37.020374033600092" lon="-2.72275404073298">
        <ele>664.88999999999999</ele>
        <time>2025-05-12T12:16:24Z</time>
      </trkpt>
      <trkpt lat="37.020386019721627" lon="-2.722549019381404">
        <ele>664.40999999999997</ele>
        <time>2025-05-12T12:16:25Z</time>
      </trkpt>
      <trkpt lat="37.020359029993415" lon="-2.722382973879576">
        <ele>664.40999999999997</ele>
        <time>2025-05-12T12:16:26Z</time>
      </trkpt>
      <trkpt lat="37.020332040265203" lon="-2.722207037732005">
        <ele>663.92999999999995</ele>
        <time>2025-05-12T12:16:27Z</time>
      </trkpt>
      <trkpt lat="37.02034997753799" lon="-2.722055995836854">
        <ele>663.45000000000005</ele>
        <time>2025-05-12T12:16:28Z</time>
      </trkpt>
      <trkpt lat="37.020410997793078" lon="-2.721965974196792">
        <ele>662.97000000000003</ele>
        <time>2025-05-12T12:16:29Z</time>
      </trkpt>
      <trkpt lat="37.020502025261521" lon="-2.721915012225509">
        <ele>662.00999999999999</ele>
        <time>2025-05-12T12:16:30Z</time>
      </trkpt>
      <trkpt lat="37.020622976124287" lon="-2.721887016668916">
        <ele>661.03999999999996</ele>
        <time>2025-05-12T12:16:31Z</time>
      </trkpt>
      <trkpt lat="37.020747028291225" lon="-2.721858015283942">
        <ele>660.08000000000004</ele>
        <time>2025-05-12T12:16:32Z</time>
      </trkpt>
      <trkpt lat="37.020841995254159" lon="-2.721814010292292">
        <ele>659.12</ele>
        <time>2025-05-12T12:16:33Z</time>
      </trkpt>
      <trkpt lat="37.020896980538964" lon="-2.721759025007486">
        <ele>658.15999999999997</ele>
        <time>2025-05-12T12:16:34Z</time>
      </trkpt>
      <trkpt lat="37.02088600024581" lon="-2.72168199531734">
        <ele>656.72000000000003</ele>
        <time>2025-05-12T12:16:35Z</time>
      </trkpt>
      <trkpt lat="37.020845012739301" lon="-2.721634972840548">
        <ele>656.24000000000001</ele>
        <time>2025-05-12T12:16:36Z</time>
      </trkpt>
      <trkpt lat="37.020766977220774" lon="-2.721605971455574">
        <ele>654.79999999999995</ele>
        <time>2025-05-12T12:16:37Z</time>
      </trkpt>
      <trkpt lat="37.020666981115937" lon="-2.721589962020516">
        <ele>653.83000000000004</ele>
        <time>2025-05-12T12:16:38Z</time>
      </trkpt>
      <trkpt lat="37.020547036081553" lon="-2.721606977283955">
        <ele>652.87</ele>
        <time>2025-05-12T12:16:39Z</time>
      </trkpt>
      <trkpt lat="37.020161971449852" lon="-2.721689036116004">
        <ele>650.47000000000003</ele>
        <time>2025-05-12T12:16:42Z</time>
      </trkpt>
      <trkpt lat="37.020085025578737" lon="-2.721771011129022">
        <ele>649.99000000000001</ele>
        <time>2025-05-12T12:16:43Z</time>
      </trkpt>
      <trkpt lat="37.020042026415467" lon="-2.721890034154058">
        <ele>649.50999999999999</ele>
        <time>2025-05-12T12:16:44Z</time>
      </trkpt>
      <trkpt lat="37.020036997273564" lon="-2.722033029422164">
        <ele>649.02999999999997</ele>
        <time>2025-05-12T12:16:45Z</time>
      </trkpt>
      <trkpt lat="37.020031968131661" lon="-2.722194967791438">
        <ele>648.54999999999995</ele>
        <time>2025-05-12T12:16:46Z</time>
      </trkpt>
      <trkpt lat="37.02002601698041" lon="-2.722359001636505">
        <ele>648.54999999999995</ele>
        <time>2025-05-12T12:16:47Z</time>
      </trkpt>
      <trkpt lat="37.020020987838507" lon="-2.722507026046515">
        <ele>648.07000000000005</ele>
        <time>2025-05-12T12:16:48Z</time>
      </trkpt>
      <trkpt lat="37.019949993118644" lon="-2.722577014937997">
        <ele>648.07000000000005</ele>
        <time>2025-05-12T12:16:49Z</time>
      </trkpt>
      <trkpt lat="37.01985402032733" lon="-2.722592018544674">
        <ele>648.07000000000005</ele>
        <time>2025-05-12T12:16:50Z</time>
      </trkpt>
      <trkpt lat="37.019739020615816" lon="-2.722592018544674">
        <ele>648.07000000000005</ele>
        <time>2025-05-12T12:16:51Z</time>
      </trkpt>
      <trkpt lat="37.019628966227174" lon="-2.722609033808112">
        <ele>647.59000000000003</ele>
        <time>2025-05-12T12:16:52Z</time>
      </trkpt>
      <trkpt lat="37.019549002870917" lon="-2.722656978294253">
        <ele>647.10000000000002</ele>
        <time>2025-05-12T12:16:53Z</time>
      </trkpt>
      <trkpt lat="37.019526036456227" lon="-2.722786981612444">
        <ele>646.62</ele>
        <time>2025-05-12T12:16:54Z</time>
      </trkpt>
      <trkpt lat="37.019501980394125" lon="-2.722922014072537">
        <ele>645.65999999999997</ele>
        <time>2025-05-12T12:16:55Z</time>
      </trkpt>
      <trkpt lat="37.0194670278579" lon="-2.723047994077206">
        <ele>645.17999999999995</ele>
        <time>2025-05-12T12:16:56Z</time>
      </trkpt>
      <trkpt lat="37.019409025087953" lon="-2.723133992403746">
        <ele>644.70000000000005</ele>
        <time>2025-05-12T12:16:57Z</time>
      </trkpt>
      <trkpt lat="37.019320009276271" lon="-2.723150001838803">
        <ele>644.70000000000005</ele>
        <time>2025-05-12T12:16:58Z</time>
      </trkpt>
      <trkpt lat="37.019239040091634" lon="-2.723104991018772">
        <ele>644.70000000000005</ele>
        <time>2025-05-12T12:16:59Z</time>
      </trkpt>
      <trkpt lat="37.019141977652907" lon="-2.723019998520613">
        <ele>644.70000000000005</ele>
        <time>2025-05-12T12:17:00Z</time>
      </trkpt>
      <trkpt lat="37.019058996811509" lon="-2.722888989374042">
        <ele>644.70000000000005</ele>
        <time>2025-05-12T12:17:01Z</time>
      </trkpt>
      <trkpt lat="37.018982972949743" lon="-2.722727973014116">
        <ele>644.70000000000005</ele>
        <time>2025-05-12T12:17:02Z</time>
      </trkpt>
      <trkpt lat="37.018943997099996" lon="-2.722538961097598">
        <ele>644.22000000000003</ele>
        <time>2025-05-12T12:17:03Z</time>
      </trkpt>
      <trkpt lat="37.018905021250248" lon="-2.722355984151363">
        <ele>643.74000000000001</ele>
        <time>2025-05-12T12:17:04Z</time>
      </trkpt>
      <trkpt lat="37.018831009045243" lon="-2.722191028296948">
        <ele>642.77999999999997</ele>
        <time>2025-05-12T12:17:05Z</time>
      </trkpt>
      <trkpt lat="37.018721038475633" lon="-2.722064964473248">
        <ele>641.82000000000005</ele>
        <time>2025-05-12T12:17:06Z</time>
      </trkpt>
      <trkpt lat="37.018593968823552" lon="-2.721937978640199">
        <ele>641.34000000000003</ele>
        <time>2025-05-12T12:17:07Z</time>
      </trkpt>
      <trkpt lat="37.018472012132406" lon="-2.721872013062239">
        <ele>640.38</ele>
        <time>2025-05-12T12:17:08Z</time>
      </trkpt>
      <trkpt lat="37.018362041562796" lon="-2.721851980313659">
        <ele>639.88999999999999</ele>
        <time>2025-05-12T12:17:09Z</time>
      </trkpt>
      <trkpt lat="37.018283000215888" lon="-2.721857009455562">
        <ele>638.92999999999995</ele>
        <time>2025-05-12T12:17:10Z</time>
      </trkpt>
      <trkpt lat="37.018181998282671" lon="-2.721931021660566">
        <ele>637.97000000000003</ele>
        <time>2025-05-12T12:17:11Z</time>
      </trkpt>
      <trkpt lat="37.018068004399538" lon="-2.722012996673584">
        <ele>636.52999999999997</ele>
        <time>2025-05-12T12:17:12Z</time>
      </trkpt>
      <trkpt lat="37.017955016344786" lon="-2.722094971686602">
        <ele>635.57000000000005</ele>
        <time>2025-05-12T12:17:13Z</time>
      </trkpt>
      <trkpt lat="37.01785895973444" lon="-2.722164960578084">
        <ele>635.09000000000003</ele>
        <time>2025-05-12T12:17:14Z</time>
      </trkpt>
      <trkpt lat="37.017818978056312" lon="-2.722302004694939">
        <ele>634.13</ele>
        <time>2025-05-12T12:17:15Z</time>
      </trkpt>
      <trkpt lat="37.017811015248299" lon="-2.7224559802562">
        <ele>633.16999999999996</ele>
        <time>2025-05-12T12:17:16Z</time>
      </trkpt>
      <trkpt lat="37.017811015248299" lon="-2.722630994394422">
        <ele>632.20000000000005</ele>
        <time>2025-05-12T12:17:17Z</time>
      </trkpt>
      <trkpt lat="37.017811015248299" lon="-2.722803996875882">
        <ele>630.75999999999999</ele>
        <time>2025-05-12T12:17:18Z</time>
      </trkpt>
      <trkpt lat="37.017790982499719" lon="-2.72295000962913">
        <ele>629.79999999999995</ele>
        <time>2025-05-12T12:17:19Z</time>
      </trkpt>
      <trkpt lat="37.017735997214913" lon="-2.723052017390728">
        <ele>629.32000000000005</ele>
        <time>2025-05-12T12:17:20Z</time>
      </trkpt>
      <trkpt lat="37.01764203608036" lon="-2.72307900711894">
        <ele>628.36000000000001</ele>
        <time>2025-05-12T12:17:21Z</time>
      </trkpt>
      <trkpt lat="37.017575986683369" lon="-2.723047994077206">
        <ele>626.91999999999996</ele>
        <time>2025-05-12T12:17:22Z</time>
      </trkpt>
      <trkpt lat="37.017482025548816" lon="-2.722963001579046">
        <ele>625.96000000000004</ele>
        <time>2025-05-12T12:17:23Z</time>
      </trkpt>
      <trkpt lat="37.017379011958838" lon="-2.722867028787732">
        <ele>624.50999999999999</ele>
        <time>2025-05-12T12:17:24Z</time>
      </trkpt>
      <trkpt lat="37.017289996147156" lon="-2.72271397523582">
        <ele>623.07000000000005</ele>
        <time>2025-05-12T12:17:25Z</time>
      </trkpt>
      <trkpt lat="37.017190000042319" lon="-2.722566034644842">
        <ele>622.11000000000001</ele>
        <time>2025-05-12T12:17:26Z</time>
      </trkpt>
      <trkpt lat="37.01708204112947" lon="-2.722441982477903">
        <ele>620.66999999999996</ele>
        <time>2025-05-12T12:17:27Z</time>
      </trkpt>
      <trkpt lat="37.016979027539492" lon="-2.722322959452868">
        <ele>619.71000000000004</ele>
        <time>2025-05-12T12:17:28Z</time>
      </trkpt>
      <trkpt lat="37.016837038099766" lon="-2.722268979996443">
        <ele>618.75</ele>
        <time>2025-05-12T12:17:29Z</time>
      </trkpt>
      <trkpt lat="37.016682978719473" lon="-2.722237966954708">
        <ele>617.77999999999997</ele>
        <time>2025-05-12T12:17:30Z</time>
      </trkpt>
      <trkpt lat="37.016523974016309" lon="-2.722206031903625">
        <ele>616.82000000000005</ele>
        <time>2025-05-12T12:17:31Z</time>
      </trkpt>
      <trkpt lat="37.016229014843702" lon="-2.722147023305297">
        <ele>614.89999999999998</ele>
        <time>2025-05-12T12:17:33Z</time>
      </trkpt>
      <trkpt lat="37.016104962676764" lon="-2.722194967791438">
        <ele>613.94000000000005</ele>
        <time>2025-05-12T12:17:34Z</time>
      </trkpt>
      <trkpt lat="37.016013013198972" lon="-2.722247019410133">
        <ele>612.98000000000002</ele>
        <time>2025-05-12T12:17:35Z</time>
      </trkpt>
      <trkpt lat="37.01598996296525" lon="-2.722337963059545">
        <ele>612.01999999999998</ele>
        <time>2025-05-12T12:17:36Z</time>
      </trkpt>
      <trkpt lat="37.015968002378941" lon="-2.722440976649523">
        <ele>611.05999999999995</ele>
        <time>2025-05-12T12:17:37Z</time>
      </trkpt>
      <trkpt lat="37.015945035964251" lon="-2.722551031038165">
        <ele>610.57000000000005</ele>
        <time>2025-05-12T12:17:38Z</time>
      </trkpt>
      <trkpt lat="37.015925003215671" lon="-2.72264800965786">
        <ele>610.09000000000003</ele>
        <time>2025-05-12T12:17:39Z</time>
      </trkpt>
      <trkpt lat="37.015867000445724" lon="-2.722674999386072">
        <ele>609.61000000000001</ele>
        <time>2025-05-12T12:17:40Z</time>
      </trkpt>
      <trkpt lat="37.015802040696144" lon="-2.72264800965786">
        <ele>608.64999999999998</ele>
        <time>2025-05-12T12:17:41Z</time>
      </trkpt>
      <trkpt lat="37.015714030712843" lon="-2.722600987181068">
        <ele>608.16999999999996</ele>
        <time>2025-05-12T12:17:42Z</time>
      </trkpt>
      <trkpt lat="37.015614034608006" lon="-2.722547007724643">
        <ele>607.21000000000004</ele>
        <time>2025-05-12T12:17:43Z</time>
      </trkpt>
      <trkpt lat="37.015499034896493" lon="-2.722548013553023">
        <ele>606.25</ele>
        <time>2025-05-12T12:17:44Z</time>
      </trkpt>
      <trkpt lat="37.015412030741572" lon="-2.722569974139333">
        <ele>605.28999999999996</ele>
        <time>2025-05-12T12:17:45Z</time>
      </trkpt>
      <trkpt lat="37.015368025749922" lon="-2.722650021314621">
        <ele>603.85000000000002</ele>
        <time>2025-05-12T12:17:46Z</time>
      </trkpt>
      <trkpt lat="37.015348998829722" lon="-2.722763009369373">
        <ele>603.36000000000001</ele>
        <time>2025-05-12T12:17:47Z</time>
      </trkpt>
      <trkpt lat="37.015362996608019" lon="-2.722908016294241">
        <ele>602.39999999999998</ele>
        <time>2025-05-12T12:17:48Z</time>
      </trkpt>
      <trkpt lat="37.015376994386315" lon="-2.723054029047489">
        <ele>601.91999999999996</ele>
        <time>2025-05-12T12:17:49Z</time>
      </trkpt>
      <trkpt lat="37.015370959416032" lon="-2.723174979910255">
        <ele>600.96000000000004</ele>
        <time>2025-05-12T12:17:50Z</time>
      </trkpt>
      <trkpt lat="37.01532200910151" lon="-2.723257960751653">
        <ele>600</ele>
        <time>2025-05-12T12:17:51Z</time>
      </trkpt>
      <trkpt lat="37.015240034088492" lon="-2.723237005993724">
        <ele>599.51999999999998</ele>
        <time>2025-05-12T12:17:52Z</time>
      </trkpt>
      <trkpt lat="37.01515001244843" lon="-2.723214961588383">
        <ele>598.55999999999995</ele>
        <time>2025-05-12T12:17:53Z</time>
      </trkpt>
      <trkpt lat="37.015063008293509" lon="-2.723132986575365">
        <ele>598.08000000000004</ele>
        <time>2025-05-12T12:17:54Z</time>
      </trkpt>
      <trkpt lat="37.014952031895518" lon="-2.723028967157006">
        <ele>597.12</ele>
        <time>2025-05-12T12:17:55Z</time>
      </trkpt>
      <trkpt lat="37.014833008870482" lon="-2.722915979102254">
        <ele>596.63999999999999</ele>
        <time>2025-05-12T12:17:56Z</time>
      </trkpt>
      <trkpt lat="37.014715997502208" lon="-2.722793016582727">
        <ele>596.14999999999998</ele>
        <time>2025-05-12T12:17:57Z</time>
      </trkpt>
      <trkpt lat="37.01461298391223" lon="-2.722653038799763">
        <ele>595.19000000000005</ele>
        <time>2025-05-12T12:17:58Z</time>
      </trkpt>
      <trkpt lat="37.014536038041115" lon="-2.722492022439838">
        <ele>594.71000000000004</ele>
        <time>2025-05-12T12:17:59Z</time>
      </trkpt>
      <trkpt lat="37.014466971158981" lon="-2.722345003858209">
        <ele>594.23000000000002</ele>
        <time>2025-05-12T12:18:00Z</time>
      </trkpt>
      <trkpt lat="37.014388013631105" lon="-2.722249031066895">
        <ele>593.75</ele>
        <time>2025-05-12T12:18:01Z</time>
      </trkpt>
      <trkpt lat="37.014301009476185" lon="-2.722217012196779">
        <ele>592.78999999999996</ele>
        <time>2025-05-12T12:18:02Z</time>
      </trkpt>
      <trkpt lat="37.014207970350981" lon="-2.722248025238514">
        <ele>591.83000000000004</ele>
        <time>2025-05-12T12:18:03Z</time>
      </trkpt>
      <trkpt lat="37.014130018651485" lon="-2.722293036058545">
        <ele>590.87</ele>
        <time>2025-05-12T12:18:04Z</time>
      </trkpt>
      <trkpt lat="37.014068998396397" lon="-2.722406024113298">
        <ele>589.90999999999997</ele>
        <time>2025-05-12T12:18:05Z</time>
      </trkpt>
      <trkpt lat="37.01401099562645" lon="-2.722513983026147">
        <ele>588.95000000000005</ele>
        <time>2025-05-12T12:18:06Z</time>
      </trkpt>
      <trkpt lat="37.013944024220109" lon="-2.722567962482572">
        <ele>588.46000000000004</ele>
        <time>2025-05-12T12:18:07Z</time>
      </trkpt>
      <trkpt lat="37.01386196538806" lon="-2.722581960260868">
        <ele>588.46000000000004</ele>
        <time>2025-05-12T12:18:08Z</time>
      </trkpt>
      <trkpt lat="37.013770015910268" lon="-2.722522029653192">
        <ele>588.46000000000004</ele>
        <time>2025-05-12T12:18:09Z</time>
      </trkpt>
      <trkpt lat="37.01366700232029" lon="-2.722419016063213">
        <ele>587.98000000000002</ele>
        <time>2025-05-12T12:18:10Z</time>
      </trkpt>
      <trkpt lat="37.013555020093918" lon="-2.722306028008461">
        <ele>587.98000000000002</ele>
        <time>2025-05-12T12:18:11Z</time>
      </trkpt>
      <trkpt lat="37.013455023989081" lon="-2.722206031903625">
        <ele>587.01999999999998</ele>
        <time>2025-05-12T12:18:12Z</time>
      </trkpt>
      <trkpt lat="37.013442032039165" lon="-2.72209002636373">
        <ele>586.53999999999996</ele>
        <time>2025-05-12T12:18:13Z</time>
      </trkpt>
      <trkpt lat="37.013428034260869" lon="-2.721964968368411">
        <ele>585.58000000000004</ele>
        <time>2025-05-12T12:18:14Z</time>
      </trkpt>
      <trkpt lat="37.013414958491921" lon="-2.721843011677265">
        <ele>584.62</ele>
        <time>2025-05-12T12:18:15Z</time>
      </trkpt>
      <trkpt lat="37.013356033712626" lon="-2.721746033057571">
        <ele>583.17999999999995</ele>
        <time>2025-05-12T12:18:16Z</time>
      </trkpt>
      <trkpt lat="37.013277998194098" lon="-2.721742009744048">
        <ele>581.73000000000002</ele>
        <time>2025-05-12T12:18:17Z</time>
      </trkpt>
      <trkpt lat="37.013154029846191" lon="-2.721756007522345">
        <ele>580.76999999999998</ele>
        <time>2025-05-12T12:18:18Z</time>
      </trkpt>
      <trkpt lat="37.01306501403451" lon="-2.721809986978769">
        <ele>579.80999999999995</ele>
        <time>2025-05-12T12:18:19Z</time>
      </trkpt>
      <trkpt lat="37.012950014322996" lon="-2.721881987527013">
        <ele>579.33000000000004</ele>
        <time>2025-05-12T12:18:20Z</time>
      </trkpt>
      <trkpt lat="37.012837026268244" lon="-2.721921969205141">
        <ele>578.37</ele>
        <time>2025-05-12T12:18:21Z</time>
      </trkpt>
      <trkpt lat="37.012733006849885" lon="-2.721906965598464">
        <ele>577.88999999999999</ele>
        <time>2025-05-12T12:18:22Z</time>
      </trkpt>
      <trkpt lat="37.012696964666247" lon="-2.72183102555573">
        <ele>576.92999999999995</ele>
        <time>2025-05-12T12:18:23Z</time>
      </trkpt>
      <trkpt lat="37.012661006301641" lon="-2.721733963117003">
        <ele>575.49000000000001</ele>
        <time>2025-05-12T12:18:24Z</time>
      </trkpt>
      <trkpt lat="37.012668969109654" lon="-2.721605971455574">
        <ele>575.00999999999999</ele>
        <time>2025-05-12T12:18:25Z</time>
      </trkpt>
      <trkpt lat="37.01267902739346" lon="-2.721469011157751">
        <ele>574.03999999999996</ele>
        <time>2025-05-12T12:18:26Z</time>
      </trkpt>
      <trkpt lat="37.012648014351726" lon="-2.721369015052915">
        <ele>573.08000000000004</ele>
        <time>2025-05-12T12:18:27Z</time>
      </trkpt>
      <trkpt lat="37.012596968561411" lon="-2.721304977312684">
        <ele>572.60000000000002</ele>
        <time>2025-05-12T12:18:28Z</time>
      </trkpt>
      <trkpt lat="37.012484986335039" lon="-2.721282010897994">
        <ele>571.63999999999999</ele>
        <time>2025-05-12T12:18:29Z</time>
      </trkpt>
      <trkpt lat="37.012351965531707" lon="-2.721254015341401">
        <ele>570.67999999999995</ele>
        <time>2025-05-12T12:18:30Z</time>
      </trkpt>
      <trkpt lat="37.012192038819194" lon="-2.721220990642905">
        <ele>569.72000000000003</ele>
        <time>2025-05-12T12:18:31Z</time>
      </trkpt>
      <trkpt lat="37.010837020352483" lon="-2.720898035913706">
        <ele>559.13999999999999</ele>
        <time>2025-05-12T12:18:38Z</time>
      </trkpt>
      <trkpt lat="37.009837981313467" lon="-2.720545995980501">
        <ele>550.49000000000001</ele>
        <time>2025-05-12T12:18:44Z</time>
      </trkpt>
      <trkpt lat="37.009704960510135" lon="-2.720450023189187">
        <ele>549.04999999999995</ele>
        <time>2025-05-12T12:18:45Z</time>
      </trkpt>
      <trkpt lat="37.009589038789272" lon="-2.720367964357138">
        <ele>547.13</ele>
        <time>2025-05-12T12:18:46Z</time>
      </trkpt>
      <trkpt lat="37.009492982178926" lon="-2.720338962972164">
        <ele>545.69000000000005</ele>
        <time>2025-05-12T12:18:47Z</time>
      </trkpt>
      <trkpt lat="37.009414024651051" lon="-2.720352960750461">
        <ele>544.24000000000001</ele>
        <time>2025-05-12T12:18:48Z</time>
      </trkpt>
      <trkpt lat="37.009377982467413" lon="-2.720424961298704">
        <ele>542.79999999999995</ele>
        <time>2025-05-12T12:18:49Z</time>
      </trkpt>
      <trkpt lat="37.009377982467413" lon="-2.720531998202205">
        <ele>541.36000000000001</ele>
        <time>2025-05-12T12:18:50Z</time>
      </trkpt>
      <trkpt lat="37.009444031864405" lon="-2.720649009570479">
        <ele>540.39999999999998</ele>
        <time>2025-05-12T12:18:51Z</time>
      </trkpt>
      <trkpt lat="37.009544027969241" lon="-2.7207360137254">
        <ele>539.44000000000005</ele>
        <time>2025-05-12T12:18:52Z</time>
      </trkpt>
      <trkpt lat="37.00965098105371" lon="-2.720820000395179">
        <ele>538.48000000000002</ele>
        <time>2025-05-12T12:18:53Z</time>
      </trkpt>
      <trkpt lat="37.009742008522153" lon="-2.720899041742086">
        <ele>537.99000000000001</ele>
        <time>2025-05-12T12:18:54Z</time>
      </trkpt>
      <trkpt lat="37.009763969108462" lon="-2.720971964299679">
        <ele>537.50999999999999</ele>
        <time>2025-05-12T12:18:55Z</time>
      </trkpt>
      <trkpt lat="37.009763969108462" lon="-2.721063997596502">
        <ele>536.54999999999995</ele>
        <time>2025-05-12T12:18:56Z</time>
      </trkpt>
      <trkpt lat="37.009743014350533" lon="-2.721100961789489">
        <ele>535.59000000000003</ele>
        <time>2025-05-12T12:18:57Z</time>
      </trkpt>
      <trkpt lat="37.009677970781922" lon="-2.721132980659604">
        <ele>535.11000000000001</ele>
        <time>2025-05-12T12:18:58Z</time>
      </trkpt>
      <trkpt lat="37.009588032960892" lon="-2.721083024516702">
        <ele>534.14999999999998</ele>
        <time>2025-05-12T12:18:59Z</time>
      </trkpt>
      <trkpt lat="37.009480996057391" lon="-2.721019992604852">
        <ele>533.66999999999996</ele>
        <time>2025-05-12T12:19:00Z</time>
      </trkpt>
      <trkpt lat="37.009379994124174" lon="-2.720885965973139">
        <ele>533.19000000000005</ele>
        <time>2025-05-12T12:19:01Z</time>
      </trkpt>
      <trkpt lat="37.009266000241041" lon="-2.720734002068639">
        <ele>532.23000000000002</ele>
        <time>2025-05-12T12:19:02Z</time>
      </trkpt>
      <trkpt lat="37.009149994701147" lon="-2.720567034557462">
        <ele>531.75</ele>
        <time>2025-05-12T12:19:03Z</time>
      </trkpt>
      <trkpt lat="37.009060978889465" lon="-2.720364024862647">
        <ele>530.78999999999996</ele>
        <time>2025-05-12T12:19:04Z</time>
      </trkpt>
      <trkpt lat="37.008975986391306" lon="-2.720171995460987">
        <ele>529.82000000000005</ele>
        <time>2025-05-12T12:19:05Z</time>
      </trkpt>
      <trkpt lat="37.008921001106501" lon="-2.719993963837624">
        <ele>529.34000000000003</ele>
        <time>2025-05-12T12:19:06Z</time>
      </trkpt>
      <trkpt lat="37.008904991671443" lon="-2.719810986891389">
        <ele>528.86000000000001</ele>
        <time>2025-05-12T12:19:07Z</time>
      </trkpt>
      <trkpt lat="37.008889988064766" lon="-2.719647036865354">
        <ele>528.38</ele>
        <time>2025-05-12T12:19:08Z</time>
      </trkpt>
      <trkpt lat="37.008861992508173" lon="-2.719519967213273">
        <ele>526.94000000000005</ele>
        <time>2025-05-12T12:19:09Z</time>
      </trkpt>
      <trkpt lat="37.008813964203" lon="-2.719432041049004">
        <ele>525.98000000000002</ele>
        <time>2025-05-12T12:19:10Z</time>
      </trkpt>
      <trkpt lat="37.008734000846744" lon="-2.719394993036985">
        <ele>525.01999999999998</ele>
        <time>2025-05-12T12:19:11Z</time>
      </trkpt>
      <trkpt lat="37.008638028055429" lon="-2.71940496750176">
        <ele>524.53999999999996</ele>
        <time>2025-05-12T12:19:12Z</time>
      </trkpt>
      <trkpt lat="37.008568961173296" lon="-2.719474034383893">
        <ele>523.58000000000004</ele>
        <time>2025-05-12T12:19:13Z</time>
      </trkpt>
      <trkpt lat="37.008520010858774" lon="-2.719588028267026">
        <ele>522.61000000000001</ele>
        <time>2025-05-12T12:19:14Z</time>
      </trkpt>
      <trkpt lat="37.008510036394" lon="-2.719729011878371">
        <ele>522.13</ele>
        <time>2025-05-12T12:19:15Z</time>
      </trkpt>
      <trkpt lat="37.008542977273464" lon="-2.719871001318097">
        <ele>521.16999999999996</ele>
        <time>2025-05-12T12:19:16Z</time>
      </trkpt>
      <trkpt lat="37.008601985871792" lon="-2.720015002414584">
        <ele>520.69000000000005</ele>
        <time>2025-05-12T12:19:17Z</time>
      </trkpt>
      <trkpt lat="37.008669041097164" lon="-2.720176018774509">
        <ele>519.73000000000002</ele>
        <time>2025-05-12T12:19:18Z</time>
      </trkpt>
      <trkpt lat="37.008741963654757" lon="-2.720352960750461">
        <ele>519.25</ele>
        <time>2025-05-12T12:19:19Z</time>
      </trkpt>
      <trkpt lat="37.008816981688142" lon="-2.720536021515727">
        <ele>518.28999999999996</ele>
        <time>2025-05-12T12:19:20Z</time>
      </trkpt>
      <trkpt lat="37.008968023583293" lon="-2.720886971801519">
        <ele>516.37</ele>
        <time>2025-05-12T12:19:22Z</time>
      </trkpt>
      <trkpt lat="37.009051004424691" lon="-2.721028039231896">
        <ele>515.39999999999998</ele>
        <time>2025-05-12T12:19:23Z</time>
      </trkpt>
      <trkpt lat="37.009127028286457" lon="-2.721157036721706">
        <ele>514.44000000000005</ele>
        <time>2025-05-12T12:19:24Z</time>
      </trkpt>
      <trkpt lat="37.009172039106488" lon="-2.721272958442569">
        <ele>513.48000000000002</ele>
        <time>2025-05-12T12:19:25Z</time>
      </trkpt>
      <trkpt lat="37.009175978600979" lon="-2.721369015052915">
        <ele>512.51999999999998</ele>
        <time>2025-05-12T12:19:26Z</time>
      </trkpt>
      <trkpt lat="37.009133985266089" lon="-2.721465993672609">
        <ele>511.07999999999998</ele>
        <time>2025-05-12T12:19:27Z</time>
      </trkpt>
      <trkpt lat="37.009073970839381" lon="-2.721517961472273">
        <ele>509.63999999999999</ele>
        <time>2025-05-12T12:19:28Z</time>
      </trkpt>
      <trkpt lat="37.008970035240054" lon="-2.721561966463924">
        <ele>508.19</ele>
        <time>2025-05-12T12:19:29Z</time>
      </trkpt>
      <trkpt lat="37.008888982236385" lon="-2.721539000049233">
        <ele>506.75</ele>
        <time>2025-05-12T12:19:30Z</time>
      </trkpt>
      <trkpt lat="37.00876803137362" lon="-2.721483008936048">
        <ele>505.79000000000002</ele>
        <time>2025-05-12T12:19:31Z</time>
      </trkpt>
      <trkpt lat="37.008632998913527" lon="-2.721386030316353">
        <ele>504.82999999999998</ele>
        <time>2025-05-12T12:19:32Z</time>
      </trkpt>
      <trkpt lat="37.008479023352265" lon="-2.721272958442569">
        <ele>504.35000000000002</ele>
        <time>2025-05-12T12:19:33Z</time>
      </trkpt>
      <trkpt lat="37.007403038442135" lon="-2.720325971022248">
        <ele>496.66000000000003</ele>
        <time>2025-05-12T12:19:40Z</time>
      </trkpt>
      <trkpt lat="37.007241016253829" lon="-2.720277020707727">
        <ele>495.69999999999999</ele>
        <time>2025-05-12T12:19:41Z</time>
      </trkpt>
      <trkpt lat="37.00689903460443" lon="-2.720174007117748">
        <ele>493.76999999999998</ele>
        <time>2025-05-12T12:19:43Z</time>
      </trkpt>
      <trkpt lat="37.00672896578908" lon="-2.720114998519421">
        <ele>492.81</ele>
        <time>2025-05-12T12:19:44Z</time>
      </trkpt>
      <trkpt lat="37.006596028804779" lon="-2.719987006857991">
        <ele>491.85000000000002</ele>
        <time>2025-05-12T12:19:45Z</time>
      </trkpt>
      <trkpt lat="37.006465019658208" lon="-2.719862032681704">
        <ele>490.41000000000003</ele>
        <time>2025-05-12T12:19:46Z</time>
      </trkpt>
      <trkpt lat="37.00633903965354" lon="-2.719740997999907">
        <ele>489.44999999999999</ele>
        <time>2025-05-12T12:19:47Z</time>
      </trkpt>
      <trkpt lat="37.006201995536685" lon="-2.719609988853335">
        <ele>488.49000000000001</ele>
        <time>2025-05-12T12:19:48Z</time>
      </trkpt>
      <trkpt lat="37.00608397834003" lon="-2.719550980255008">
        <ele>487.52999999999997</ele>
        <time>2025-05-12T12:19:49Z</time>
      </trkpt>
      <trkpt lat="37.005953975021839" lon="-2.719486020505428">
        <ele>486.56</ele>
        <time>2025-05-12T12:19:50Z</time>
      </trkpt>
      <trkpt lat="37.005865965038538" lon="-2.719374038279057">
        <ele>485.60000000000002</ele>
        <time>2025-05-12T12:19:51Z</time>
      </trkpt>
      <trkpt lat="37.005806034430861" lon="-2.71923297084868">
        <ele>484.63999999999999</ele>
        <time>2025-05-12T12:19:52Z</time>
      </trkpt>
      <trkpt lat="37.005746020004153" lon="-2.719089975580573">
        <ele>484.16000000000003</ele>
        <time>2025-05-12T12:19:53Z</time>
      </trkpt>
      <trkpt lat="37.005659015849233" lon="-2.718969024717808">
        <ele>483.19999999999999</ele>
        <time>2025-05-12T12:19:54Z</time>
      </trkpt>
      <trkpt lat="37.005556002259254" lon="-2.718897024169564">
        <ele>482.24000000000001</ele>
        <time>2025-05-12T12:19:55Z</time>
      </trkpt>
      <trkpt lat="37.005442008376122" lon="-2.718885960057378">
        <ele>481.75999999999999</ele>
        <time>2025-05-12T12:19:56Z</time>
      </trkpt>
      <trkpt lat="37.005347963422537" lon="-2.718905992805958">
        <ele>480.80000000000001</ele>
        <time>2025-05-12T12:19:57Z</time>
      </trkpt>
      <trkpt lat="37.00524503365159" lon="-2.718973970040679">
        <ele>479.83999999999997</ele>
        <time>2025-05-12T12:19:58Z</time>
      </trkpt>
      <trkpt lat="37.005156017839909" lon="-2.719077989459038">
        <ele>479.35000000000002</ele>
        <time>2025-05-12T12:19:59Z</time>
      </trkpt>
      <trkpt lat="37.005089968442917" lon="-2.719195000827313">
        <ele>478.87</ele>
        <time>2025-05-12T12:20:00Z</time>
      </trkpt>
      <trkpt lat="37.005049986764789" lon="-2.719303965568543">
        <ele>478.38999999999999</ele>
        <time>2025-05-12T12:20:01Z</time>
      </trkpt>
      <trkpt lat="37.005018973723054" lon="-2.719391975551844">
        <ele>477.91000000000003</ele>
        <time>2025-05-12T12:20:02Z</time>
      </trkpt>
      <trkpt lat="37.004999024793506" lon="-2.719449978321791">
        <ele>477.43000000000001</ele>
        <time>2025-05-12T12:20:03Z</time>
      </trkpt>
      <trkpt lat="37.004876984283328" lon="-2.719500018283725">
        <ele>477.43000000000001</ele>
        <time>2025-05-12T12:20:04Z</time>
      </trkpt>
      <trkpt lat="37.004846977069974" lon="-2.719475040212274">
        <ele>476.94999999999999</ele>
        <time>2025-05-12T12:20:05Z</time>
      </trkpt>
      <trkpt lat="37.004786040633917" lon="-2.719417037442327">
        <ele>476.47000000000003</ele>
        <time>2025-05-12T12:20:06Z</time>
      </trkpt>
      <trkpt lat="37.004704987630248" lon="-2.719335984438658">
        <ele>476.47000000000003</ele>
        <time>2025-05-12T12:20:07Z</time>
      </trkpt>
      <trkpt lat="37.003987999632955" lon="-2.718599969521165">
        <ele>475.99000000000001</ele>
        <time>2025-05-12T12:20:13Z</time>
      </trkpt>
      <trkpt lat="37.003883980214596" lon="-2.718438031151891">
        <ele>475.99000000000001</ele>
        <time>2025-05-12T12:20:14Z</time>
      </trkpt>
      <trkpt lat="37.003790019080043" lon="-2.718255976215005">
        <ele>475.50999999999999</ele>
        <time>2025-05-12T12:20:15Z</time>
      </trkpt>
      <trkpt lat="37.003709971904755" lon="-2.718055984005332">
        <ele>475.02999999999997</ele>
        <time>2025-05-12T12:20:16Z</time>
      </trkpt>
      <trkpt lat="37.003626991063356" lon="-2.717850040644407">
        <ele>475.02999999999997</ele>
        <time>2025-05-12T12:20:17Z</time>
      </trkpt>
      <trkpt lat="37.003586003556848" lon="-2.717636972665787">
        <ele>474.55000000000001</ele>
        <time>2025-05-12T12:20:18Z</time>
      </trkpt>
      <trkpt lat="37.003541998565197" lon="-2.717410996556282">
        <ele>474.06999999999999</ele>
        <time>2025-05-12T12:20:19Z</time>
      </trkpt>
      <trkpt lat="37.003497993573546" lon="-2.717182002961636">
        <ele>473.58999999999997</ele>
        <time>2025-05-12T12:20:20Z</time>
      </trkpt>
      <trkpt lat="37.003476032987237" lon="-2.716939011588693">
        <ele>473.58999999999997</ele>
        <time>2025-05-12T12:20:21Z</time>
      </trkpt>
      <trkpt lat="37.003310993313789" lon="-2.715717013925314">
        <ele>470.69999999999999</ele>
        <time>2025-05-12T12:20:26Z</time>
      </trkpt>
      <trkpt lat="37.003218960016966" lon="-2.715485002845526">
        <ele>470.22000000000003</ele>
        <time>2025-05-12T12:20:27Z</time>
      </trkpt>
      <trkpt lat="37.003112006932497" lon="-2.715258020907641">
        <ele>469.74000000000001</ele>
        <time>2025-05-12T12:20:28Z</time>
      </trkpt>
      <trkpt lat="37.002978986129165" lon="-2.715046964585781">
        <ele>469.25999999999999</ele>
        <time>2025-05-12T12:20:29Z</time>
      </trkpt>
      <trkpt lat="37.002831967547536" lon="-2.714852001518011">
        <ele>468.77999999999997</ele>
        <time>2025-05-12T12:20:30Z</time>
      </trkpt>
      <trkpt lat="37.002681009471416" lon="-2.714659972116351">
        <ele>468.30000000000001</ele>
        <time>2025-05-12T12:20:31Z</time>
      </trkpt>
      <trkpt lat="37.001649029552937" lon="-2.713057016953826">
        <ele>463.49000000000001</ele>
        <time>2025-05-12T12:20:39Z</time>
      </trkpt>
      <trkpt lat="37.00054001994431" lon="-2.711125994101167">
        <ele>460.61000000000001</ele>
        <time>2025-05-12T12:20:48Z</time>
      </trkpt>
      <trkpt lat="37.000412028282881" lon="-2.7109170332551">
        <ele>460.13</ele>
        <time>2025-05-12T12:20:49Z</time>
      </trkpt>
      <trkpt lat="37.000331981107593" lon="-2.710679993033409">
        <ele>459.64999999999998</ele>
        <time>2025-05-12T12:20:50Z</time>
      </trkpt>
      <trkpt lat="37.000259980559349" lon="-2.710426021367312">
        <ele>459.17000000000002</ele>
        <time>2025-05-12T12:20:51Z</time>
      </trkpt>
      <trkpt lat="37.000186974182725" lon="-2.710168026387692">
        <ele>459.17000000000002</ele>
        <time>2025-05-12T12:20:52Z</time>
      </trkpt>
      <trkpt lat="37.000143975019455" lon="-2.709902990609407">
        <ele>459.17000000000002</ele>
        <time>2025-05-12T12:20:53Z</time>
      </trkpt>
      <trkpt lat="37.00013198889792" lon="-2.709636026993394">
        <ele>459.17000000000002</ele>
        <time>2025-05-12T12:20:54Z</time>
      </trkpt>
      <trkpt lat="37.000118996948004" lon="-2.709368979558349">
        <ele>458.69</ele>
        <time>2025-05-12T12:20:55Z</time>
      </trkpt>
      <trkpt lat="37.00002302415669" lon="-2.708277991041541">
        <ele>457.24000000000001</ele>
        <time>2025-05-12T12:20:59Z</time>
      </trkpt>
      <trkpt lat="36.999954041093588" lon="-2.708013039082289">
        <ele>457.24000000000001</ele>
        <time>2025-05-12T12:21:00Z</time>
      </trkpt>
      <trkpt lat="36.99985203333199" lon="-2.707757977768779">
        <ele>457.24000000000001</ele>
        <time>2025-05-12T12:21:01Z</time>
      </trkpt>
      <trkpt lat="36.999748013913631" lon="-2.707497971132398">
        <ele>457.24000000000001</ele>
        <time>2025-05-12T12:21:02Z</time>
      </trkpt>
      <trkpt lat="36.99963896535337" lon="-2.707240981981158">
        <ele>457.24000000000001</ele>
        <time>2025-05-12T12:21:03Z</time>
      </trkpt>
      <trkpt lat="36.999491024762392" lon="-2.707018023356795">
        <ele>457.24000000000001</ele>
        <time>2025-05-12T12:21:04Z</time>
      </trkpt>
      <trkpt lat="36.999340988695621" lon="-2.706789029762149">
        <ele>457.24000000000001</ele>
        <time>2025-05-12T12:21:05Z</time>
      </trkpt>
      <trkpt lat="36.999048963189125" lon="-2.706330036744475">
        <ele>457.24000000000001</ele>
        <time>2025-05-12T12:21:07Z</time>
      </trkpt>
      <trkpt lat="36.998902028426528" lon="-2.706100037321448">
        <ele>457.24000000000001</ele>
        <time>2025-05-12T12:21:08Z</time>
      </trkpt>
      <trkpt lat="36.998784011229873" lon="-2.705848999321461">
        <ele>456.75999999999999</ele>
        <time>2025-05-12T12:21:09Z</time>
      </trkpt>
      <trkpt lat="36.998683009296656" lon="-2.705581029877067">
        <ele>456.75999999999999</ele>
        <time>2025-05-12T12:21:10Z</time>
      </trkpt>
      <trkpt lat="36.99858502484858" lon="-2.705319011583924">
        <ele>456.75999999999999</ele>
        <time>2025-05-12T12:21:11Z</time>
      </trkpt>
      <trkpt lat="36.99854495935142" lon="-2.705021034926176">
        <ele>456.75999999999999</ele>
        <time>2025-05-12T12:21:12Z</time>
      </trkpt>
      <trkpt lat="36.998504977673292" lon="-2.704722974449396">
        <ele>456.27999999999997</ele>
        <time>2025-05-12T12:21:13Z</time>
      </trkpt>
      <trkpt lat="36.998464995995164" lon="-2.704422986134887">
        <ele>455.80000000000001</ele>
        <time>2025-05-12T12:21:14Z</time>
      </trkpt>
      <trkpt lat="36.998156039044261" lon="-2.702004974707961">
        <ele>452.44</ele>
        <time>2025-05-12T12:21:22Z</time>
      </trkpt>
      <trkpt lat="36.998082026839256" lon="-2.701716972514987">
        <ele>451.95999999999998</ele>
        <time>2025-05-12T12:21:23Z</time>
      </trkpt>
      <trkpt lat="36.99796300381422" lon="-2.701456965878606">
        <ele>451.95999999999998</ele>
        <time>2025-05-12T12:21:24Z</time>
      </trkpt>
      <trkpt lat="36.99783400632441" lon="-2.701198970898986">
        <ele>451.48000000000002</ele>
        <time>2025-05-12T12:21:25Z</time>
      </trkpt>
      <trkpt lat="36.997695034369826" lon="-2.700952040031552">
        <ele>451.48000000000002</ele>
        <time>2025-05-12T12:21:26Z</time>
      </trkpt>
      <trkpt lat="36.996071040630341" lon="-2.697796002030373">
        <ele>438.5</ele>
        <time>2025-05-12T12:21:38Z</time>
      </trkpt>
      <trkpt lat="36.995746996253729" lon="-2.695950977504253">
        <ele>433.20999999999998</ele>
        <time>2025-05-12T12:21:44Z</time>
      </trkpt>
      <trkpt lat="36.995933996513486" lon="-2.693884000182152">
        <ele>430.32999999999998</ele>
        <time>2025-05-12T12:21:51Z</time>
      </trkpt>
      <trkpt lat="36.995984958484769" lon="-2.693318976089358">
        <ele>429.37</ele>
        <time>2025-05-12T12:21:53Z</time>
      </trkpt>
      <trkpt lat="36.995960986241698" lon="-2.6930439658463">
        <ele>428.88999999999999</ele>
        <time>2025-05-12T12:21:54Z</time>
      </trkpt>
      <trkpt lat="36.995927039533854" lon="-2.692769961431623">
        <ele>428.39999999999998</ele>
        <time>2025-05-12T12:21:55Z</time>
      </trkpt>
      <trkpt lat="36.995516996830702" lon="-2.690923009067774">
        <ele>426.95999999999998</ele>
        <time>2025-05-12T12:22:03Z</time>
      </trkpt>
      <trkpt lat="36.99497401714325" lon="-2.689096005633473">
        <ele>422.16000000000003</ele>
        <time>2025-05-12T12:22:10Z</time>
      </trkpt>
      <trkpt lat="36.994464984163642" lon="-2.68754200078547">
        <ele>416.38999999999999</ele>
        <time>2025-05-12T12:22:16Z</time>
      </trkpt>
      <trkpt lat="36.994464984163642" lon="-2.687317030504346">
        <ele>415.43000000000001</ele>
        <time>2025-05-12T12:22:17Z</time>
      </trkpt>
      <trkpt lat="36.994464984163642" lon="-2.687103962525725">
        <ele>414.94999999999999</ele>
        <time>2025-05-12T12:22:18Z</time>
      </trkpt>
      <trkpt lat="36.994464984163642" lon="-2.686864994466305">
        <ele>414.47000000000003</ele>
        <time>2025-05-12T12:22:19Z</time>
      </trkpt>
      <trkpt lat="36.994489040225744" lon="-2.686689980328083">
        <ele>413.98000000000002</ele>
        <time>2025-05-12T12:22:20Z</time>
      </trkpt>
      <trkpt lat="36.994776036590338" lon="-2.684902958571911">
        <ele>408.69999999999999</ele>
        <time>2025-05-12T12:22:30Z</time>
      </trkpt>
      <trkpt lat="36.995326979085803" lon="-2.683766959235072">
        <ele>406.76999999999998</ele>
        <time>2025-05-12T12:22:39Z</time>
      </trkpt>
      <trkpt lat="36.995523031800985" lon="-2.683376027271152">
        <ele>404.85000000000002</ele>
        <time>2025-05-12T12:22:42Z</time>
      </trkpt>
      <trkpt lat="36.996154021471739" lon="-2.681603003293276">
        <ele>401.49000000000001</ele>
        <time>2025-05-12T12:22:55Z</time>
      </trkpt>
      <trkpt lat="36.996482005342841" lon="-2.680191993713379">
        <ele>401.00999999999999</ele>
        <time>2025-05-12T12:23:05Z</time>
      </trkpt>
      <trkpt lat="36.996496003121138" lon="-2.680029971525073">
        <ele>401.00999999999999</ele>
        <time>2025-05-12T12:23:06Z</time>
      </trkpt>
      <trkpt lat="36.996475970372558" lon="-2.679880019277334">
        <ele>400.52999999999997</ele>
        <time>2025-05-12T12:23:07Z</time>
      </trkpt>
      <trkpt lat="36.996456021443009" lon="-2.679731994867325">
        <ele>400.52999999999997</ele>
        <time>2025-05-12T12:23:08Z</time>
      </trkpt>
      <trkpt lat="36.99643699452281" lon="-2.679585982114077">
        <ele>400.05000000000001</ele>
        <time>2025-05-12T12:23:09Z</time>
      </trkpt>
      <trkpt lat="36.996415033936501" lon="-2.679436029866338">
        <ele>400.05000000000001</ele>
        <time>2025-05-12T12:23:10Z</time>
      </trkpt>
      <trkpt lat="36.996360970661044" lon="-2.679302003234625">
        <ele>399.56999999999999</ele>
        <time>2025-05-12T12:23:11Z</time>
      </trkpt>
      <trkpt lat="36.996303973719478" lon="-2.67916495911777">
        <ele>399.56999999999999</ele>
        <time>2025-05-12T12:23:12Z</time>
      </trkpt>
      <trkpt lat="36.996248988434672" lon="-2.679027998819947">
        <ele>399.07999999999998</ele>
        <time>2025-05-12T12:23:13Z</time>
      </trkpt>
      <trkpt lat="36.995480032637715" lon="-2.677866015583277">
        <ele>398.12</ele>
        <time>2025-05-12T12:23:23Z</time>
      </trkpt>
      <trkpt lat="36.995413983240724" lon="-2.677736012265086">
        <ele>398.12</ele>
        <time>2025-05-12T12:23:24Z</time>
      </trkpt>
      <trkpt lat="36.995350029319525" lon="-2.677607014775276">
        <ele>398.12</ele>
        <time>2025-05-12T12:23:25Z</time>
      </trkpt>
      <trkpt lat="36.995300995185971" lon="-2.67746401950717">
        <ele>398.12</ele>
        <time>2025-05-12T12:23:26Z</time>
      </trkpt>
      <trkpt lat="36.995035037398338" lon="-2.676000958308578">
        <ele>397.16000000000003</ele>
        <time>2025-05-12T12:23:33Z</time>
      </trkpt>
      <trkpt lat="36.995021961629391" lon="-2.675229990854859">
        <ele>396.19999999999999</ele>
        <time>2025-05-12T12:23:36Z</time>
      </trkpt>
      <trkpt lat="36.995063032954931" lon="-2.674960009753704">
        <ele>396.19999999999999</ele>
        <time>2025-05-12T12:23:37Z</time>
      </trkpt>
      <trkpt lat="36.995106032118201" lon="-2.674686005339027">
        <ele>395.72000000000003</ele>
        <time>2025-05-12T12:23:38Z</time>
      </trkpt>
      <trkpt lat="36.99516898021102" lon="-2.674416024237871">
        <ele>395.24000000000001</ele>
        <time>2025-05-12T12:23:39Z</time>
      </trkpt>
      <trkpt lat="36.995263025164604" lon="-2.674153000116348">
        <ele>395.24000000000001</ele>
        <time>2025-05-12T12:23:40Z</time>
      </trkpt>
      <trkpt lat="36.995356986299157" lon="-2.673887964338064">
        <ele>395.24000000000001</ele>
        <time>2025-05-12T12:23:41Z</time>
      </trkpt>
      <trkpt lat="36.995495036244392" lon="-2.673641033470631">
        <ele>394.27999999999997</ele>
        <time>2025-05-12T12:23:42Z</time>
      </trkpt>
      <trkpt lat="36.996617959812284" lon="-2.672074036672711">
        <ele>391.87</ele>
        <time>2025-05-12T12:23:49Z</time>
      </trkpt>
      <trkpt lat="36.997351963073015" lon="-2.671043984591961">
        <ele>395.24000000000001</ele>
        <time>2025-05-12T12:23:54Z</time>
      </trkpt>
      <trkpt lat="36.997432010248303" lon="-2.670829994603992">
        <ele>395.72000000000003</ele>
        <time>2025-05-12T12:23:55Z</time>
      </trkpt>
      <trkpt lat="36.997460005804896" lon="-2.670588009059429">
        <ele>396.19999999999999</ele>
        <time>2025-05-12T12:23:56Z</time>
      </trkpt>
      <trkpt lat="36.997488001361489" lon="-2.670345017686486">
        <ele>396.68000000000001</ele>
        <time>2025-05-12T12:23:57Z</time>
      </trkpt>
      <trkpt lat="36.9974460080266" lon="-2.670098003000021">
        <ele>397.16000000000003</ele>
        <time>2025-05-12T12:23:58Z</time>
      </trkpt>
      <trkpt lat="36.997396973893046" lon="-2.669857023283839">
        <ele>397.63999999999999</ele>
        <time>2025-05-12T12:23:59Z</time>
      </trkpt>
      <trkpt lat="36.997331008315086" lon="-2.66962400637567">
        <ele>398.12</ele>
        <time>2025-05-12T12:24:00Z</time>
      </trkpt>
      <trkpt lat="36.997215002775192" lon="-2.669420996680856">
        <ele>398.60000000000002</ele>
        <time>2025-05-12T12:24:01Z</time>
      </trkpt>
      <trkpt lat="36.997092962265015" lon="-2.669214969500899">
        <ele>399.07999999999998</ele>
        <time>2025-05-12T12:24:02Z</time>
      </trkpt>
      <trkpt lat="36.996943010017276" lon="-2.669041967019439">
        <ele>399.07999999999998</ele>
        <time>2025-05-12T12:24:03Z</time>
      </trkpt>
      <trkpt lat="36.995311975479126" lon="-2.667041039094329">
        <ele>400.05000000000001</ele>
        <time>2025-05-12T12:24:14Z</time>
      </trkpt>
      <trkpt lat="36.994722979143262" lon="-2.665585018694401">
        <ele>403.88999999999999</ele>
        <time>2025-05-12T12:24:21Z</time>
      </trkpt>
      <trkpt lat="36.994579983875155" lon="-2.663978040218353">
        <ele>405.81</ele>
        <time>2025-05-12T12:24:28Z</time>
      </trkpt>
      <trkpt lat="36.99460999108851" lon="-2.663747034966946">
        <ele>405.81</ele>
        <time>2025-05-12T12:24:29Z</time>
      </trkpt>
      <trkpt lat="36.994685009121895" lon="-2.663317965343595">
        <ele>404.85000000000002</ele>
        <time>2025-05-12T12:24:31Z</time>
      </trkpt>
      <trkpt lat="36.994733959436417" lon="-2.663107998669148">
        <ele>404.85000000000002</ele>
        <time>2025-05-12T12:24:32Z</time>
      </trkpt>
      <trkpt lat="36.995511967688799" lon="-2.661097012460232">
        <ele>400.05000000000001</ele>
        <time>2025-05-12T12:24:42Z</time>
      </trkpt>
      <trkpt lat="36.995691005140543" lon="-2.660673977807164">
        <ele>399.07999999999998</ele>
        <time>2025-05-12T12:24:44Z</time>
      </trkpt>
      <trkpt lat="36.995761999860406" lon="-2.660450013354421">
        <ele>398.60000000000002</ele>
        <time>2025-05-12T12:24:45Z</time>
      </trkpt>
      <trkpt lat="36.995823020115495" lon="-2.660224959254265">
        <ele>397.63999999999999</ele>
        <time>2025-05-12T12:24:46Z</time>
      </trkpt>
      <trkpt lat="36.995849004015326" lon="-2.659989008679986">
        <ele>397.16000000000003</ele>
        <time>2025-05-12T12:24:47Z</time>
      </trkpt>
      <trkpt lat="36.995873982086778" lon="-2.65976001508534">
        <ele>396.68000000000001</ele>
        <time>2025-05-12T12:24:48Z</time>
      </trkpt>
      <trkpt lat="36.995865013450384" lon="-2.659526998177171">
        <ele>396.19999999999999</ele>
        <time>2025-05-12T12:24:49Z</time>
      </trkpt>
      <trkpt lat="36.995843974873424" lon="-2.659291969612241">
        <ele>395.72000000000003</ele>
        <time>2025-05-12T12:24:50Z</time>
      </trkpt>
      <trkpt lat="36.995782032608986" lon="-2.659070016816258">
        <ele>395.24000000000001</ele>
        <time>2025-05-12T12:24:51Z</time>
      </trkpt>
      <trkpt lat="36.995698967948556" lon="-2.658858960494399">
        <ele>395.24000000000001</ele>
        <time>2025-05-12T12:24:52Z</time>
      </trkpt>
      <trkpt lat="36.995604000985622" lon="-2.658653017133474">
        <ele>395.24000000000001</ele>
        <time>2025-05-12T12:24:53Z</time>
      </trkpt>
      <trkpt lat="36.995510961860418" lon="-2.65845101326704">
        <ele>395.72000000000003</ele>
        <time>2025-05-12T12:24:54Z</time>
      </trkpt>
      <trkpt lat="36.995390010997653" lon="-2.658269964158535">
        <ele>396.68000000000001</ele>
        <time>2025-05-12T12:24:55Z</time>
      </trkpt>
      <trkpt lat="36.995253972709179" lon="-2.658108025789261">
        <ele>397.16000000000003</ele>
        <time>2025-05-12T12:24:56Z</time>
      </trkpt>
      <trkpt lat="36.995101002976298" lon="-2.657972993329167">
        <ele>398.12</ele>
        <time>2025-05-12T12:24:57Z</time>
      </trkpt>
      <trkpt lat="36.994949961081147" lon="-2.657839972525835">
        <ele>399.07999999999998</ele>
        <time>2025-05-12T12:24:58Z</time>
      </trkpt>
      <trkpt lat="36.994790034368634" lon="-2.65772002749145">
        <ele>400.52999999999997</ele>
        <time>2025-05-12T12:24:59Z</time>
      </trkpt>
      <trkpt lat="36.992918020114303" lon="-2.65645201317966">
        <ele>421.68000000000001</ele>
        <time>2025-05-12T12:25:11Z</time>
      </trkpt>
      <trkpt lat="36.992262974381447" lon="-2.655996037647128">
        <ele>428.39999999999998</ele>
        <time>2025-05-12T12:25:15Z</time>
      </trkpt>
      <trkpt lat="36.992126014083624" lon="-2.655838038772345">
        <ele>430.32999999999998</ele>
        <time>2025-05-12T12:25:16Z</time>
      </trkpt>
      <trkpt lat="36.992001961916685" lon="-2.655651960521936">
        <ele>431.76999999999998</ele>
        <time>2025-05-12T12:25:17Z</time>
      </trkpt>
      <trkpt lat="36.991876987740397" lon="-2.655464960262179">
        <ele>432.73000000000002</ele>
        <time>2025-05-12T12:25:18Z</time>
      </trkpt>
      <trkpt lat="36.991798030212522" lon="-2.6552480366081">
        <ele>433.69</ele>
        <time>2025-05-12T12:25:19Z</time>
      </trkpt>
      <trkpt lat="36.991718988865614" lon="-2.655018959194422">
        <ele>434.64999999999998</ele>
        <time>2025-05-12T12:25:20Z</time>
      </trkpt>
      <trkpt lat="36.99164598248899" lon="-2.654784014448524">
        <ele>435.61000000000001</ele>
        <time>2025-05-12T12:25:21Z</time>
      </trkpt>
      <trkpt lat="36.991611029952765" lon="-2.654533982276917">
        <ele>436.10000000000002</ele>
        <time>2025-05-12T12:25:22Z</time>
      </trkpt>
      <trkpt lat="36.991611029952765" lon="-2.654277998954058">
        <ele>436.10000000000002</ele>
        <time>2025-05-12T12:25:23Z</time>
      </trkpt>
      <trkpt lat="36.991611029952765" lon="-2.654028972610831">
        <ele>436.10000000000002</ele>
        <time>2025-05-12T12:25:24Z</time>
      </trkpt>
      <trkpt lat="36.991630978882313" lon="-2.65110301785171">
        <ele>428.88999999999999</ele>
        <time>2025-05-12T12:25:36Z</time>
      </trkpt>
      <trkpt lat="36.991339037194848" lon="-2.649723021313548">
        <ele>425.04000000000002</ele>
        <time>2025-05-12T12:25:42Z</time>
      </trkpt>
      <trkpt lat="36.990516018122435" lon="-2.648046975955367">
        <ele>420.23000000000002</ele>
        <time>2025-05-12T12:25:50Z</time>
      </trkpt>
      <trkpt lat="36.988999983295798" lon="-2.645134013146162">
        <ele>435.61000000000001</ele>
        <time>2025-05-12T12:26:04Z</time>
      </trkpt>
      <trkpt lat="36.988473013043404" lon="-2.644394980743527">
        <ele>440.42000000000002</ele>
        <time>2025-05-12T12:26:08Z</time>
      </trkpt>
      <trkpt lat="36.988310990855098" lon="-2.644233964383602">
        <ele>441.38</ele>
        <time>2025-05-12T12:26:09Z</time>
      </trkpt>
      <trkpt lat="36.987011041492224" lon="-2.642997968941927">
        <ele>445.23000000000002</ele>
        <time>2025-05-12T12:26:17Z</time>
      </trkpt>
      <trkpt lat="36.985774962231517" lon="-2.641539014875889">
        <ele>451.48000000000002</ele>
        <time>2025-05-12T12:26:26Z</time>
      </trkpt>
      <trkpt lat="36.984578026458621" lon="-2.640818003565073">
        <ele>457.72000000000003</ele>
        <time>2025-05-12T12:26:33Z</time>
      </trkpt>
      <trkpt lat="36.983645958825946" lon="-2.640147032216191">
        <ele>459.64999999999998</ele>
        <time>2025-05-12T12:26:39Z</time>
      </trkpt>
      <trkpt lat="36.983514027670026" lon="-2.639971012249589">
        <ele>459.64999999999998</ele>
        <time>2025-05-12T12:26:40Z</time>
      </trkpt>
      <trkpt lat="36.983384024351835" lon="-2.639789963141084">
        <ele>459.64999999999998</ele>
        <time>2025-05-12T12:26:41Z</time>
      </trkpt>
      <trkpt lat="36.98328603990376" lon="-2.639576978981495">
        <ele>459.64999999999998</ele>
        <time>2025-05-12T12:26:42Z</time>
      </trkpt>
      <trkpt lat="36.983185037970543" lon="-2.639358965680003">
        <ele>459.64999999999998</ele>
        <time>2025-05-12T12:26:43Z</time>
      </trkpt>
      <trkpt lat="36.982774995267391" lon="-2.638480961322784">
        <ele>459.17000000000002</ele>
        <time>2025-05-12T12:26:47Z</time>
      </trkpt>
      <trkpt lat="36.982647003605962" lon="-2.638282980769873">
        <ele>458.69</ele>
        <time>2025-05-12T12:26:48Z</time>
      </trkpt>
      <trkpt lat="36.982509959489107" lon="-2.638094974681735">
        <ele>458.69</ele>
        <time>2025-05-12T12:26:49Z</time>
      </trkpt>
      <trkpt lat="36.982306027784944" lon="-2.637964971363545">
        <ele>458.20999999999998</ele>
        <time>2025-05-12T12:26:50Z</time>
      </trkpt>
      <trkpt lat="36.982110980898142" lon="-2.637870004400611">
        <ele>457.72000000000003</ele>
        <time>2025-05-12T12:26:51Z</time>
      </trkpt>
      <trkpt lat="36.981916017830372" lon="-2.637800015509129">
        <ele>457.24000000000001</ele>
        <time>2025-05-12T12:26:52Z</time>
      </trkpt>
      <trkpt lat="36.981726000085473" lon="-2.637732038274407">
        <ele>456.75999999999999</ele>
        <time>2025-05-12T12:26:53Z</time>
      </trkpt>
      <trkpt lat="36.980693014338613" lon="-2.637357031926513">
        <ele>451.95999999999998</ele>
        <time>2025-05-12T12:26:59Z</time>
      </trkpt>
      <trkpt lat="36.980562005192041" lon="-2.637235997244716">
        <ele>451.48000000000002</ele>
        <time>2025-05-12T12:27:00Z</time>
      </trkpt>
      <trkpt lat="36.980440970510244" lon="-2.637104988098145">
        <ele>450.02999999999997</ele>
        <time>2025-05-12T12:27:01Z</time>
      </trkpt>
      <trkpt lat="36.980348015204072" lon="-2.636942965909839">
        <ele>449.06999999999999</ele>
        <time>2025-05-12T12:27:02Z</time>
      </trkpt>
      <trkpt lat="36.980256987735629" lon="-2.636771975085139">
        <ele>448.11000000000001</ele>
        <time>2025-05-12T12:27:03Z</time>
      </trkpt>
      <trkpt lat="36.980186998844147" lon="-2.636581035330892">
        <ele>447.14999999999998</ele>
        <time>2025-05-12T12:27:04Z</time>
      </trkpt>
      <trkpt lat="36.980153974145651" lon="-2.636372996494174">
        <ele>446.19</ele>
        <time>2025-05-12T12:27:05Z</time>
      </trkpt>
      <trkpt lat="36.980138970538974" lon="-2.636147020384669">
        <ele>444.75</ele>
        <time>2025-05-12T12:27:06Z</time>
      </trkpt>
      <trkpt lat="36.980163026601076" lon="-2.635916015133262">
        <ele>443.79000000000002</ele>
        <time>2025-05-12T12:27:07Z</time>
      </trkpt>
      <trkpt lat="36.980185993015766" lon="-2.635684004053474">
        <ele>442.33999999999997</ele>
        <time>2025-05-12T12:27:08Z</time>
      </trkpt>
      <trkpt lat="36.980223963037133" lon="-2.634951006621122">
        <ele>437.54000000000002</ele>
        <time>2025-05-12T12:27:11Z</time>
      </trkpt>
      <trkpt lat="36.980208037421107" lon="-2.634696029126644">
        <ele>436.10000000000002</ele>
        <time>2025-05-12T12:27:12Z</time>
      </trkpt>
      <trkpt lat="36.980175012722611" lon="-2.63445102609694">
        <ele>434.64999999999998</ele>
        <time>2025-05-12T12:27:13Z</time>
      </trkpt>
      <trkpt lat="36.980093037709594" lon="-2.634222032502294">
        <ele>433.69</ele>
        <time>2025-05-12T12:27:14Z</time>
      </trkpt>
      <trkpt lat="36.980012990534306" lon="-2.633997984230518">
        <ele>432.73000000000002</ele>
        <time>2025-05-12T12:27:15Z</time>
      </trkpt>
      <trkpt lat="36.97991500608623" lon="-2.633806960657239">
        <ele>432.25</ele>
        <time>2025-05-12T12:27:16Z</time>
      </trkpt>
      <trkpt lat="36.979791959747672" lon="-2.633618032559753">
        <ele>431.76999999999998</ele>
        <time>2025-05-12T12:27:17Z</time>
      </trkpt>
      <trkpt lat="36.979659022763371" lon="-2.633414017036557">
        <ele>431.76999999999998</ele>
        <time>2025-05-12T12:27:18Z</time>
      </trkpt>
      <trkpt lat="36.97950697503984" lon="-2.633293988183141">
        <ele>432.25</ele>
        <time>2025-05-12T12:27:19Z</time>
      </trkpt>
      <trkpt lat="36.979343025013804" lon="-2.633164990693331">
        <ele>432.73000000000002</ele>
        <time>2025-05-12T12:27:20Z</time>
      </trkpt>
      <trkpt lat="36.979172034189105" lon="-2.633060971274972">
        <ele>433.20999999999998</ele>
        <time>2025-05-12T12:27:21Z</time>
      </trkpt>
      <trkpt lat="36.978987967595458" lon="-2.632987964898348">
        <ele>433.69</ele>
        <time>2025-05-12T12:27:22Z</time>
      </trkpt>
      <trkpt lat="36.978107029572129" lon="-2.632607007399201">
        <ele>438.01999999999998</ele>
        <time>2025-05-12T12:27:27Z</time>
      </trkpt>
      <trkpt lat="36.977946013212204" lon="-2.63249603100121">
        <ele>439.45999999999998</ele>
        <time>2025-05-12T12:27:28Z</time>
      </trkpt>
      <trkpt lat="36.977794971317053" lon="-2.632365021854639">
        <ele>440.42000000000002</ele>
        <time>2025-05-12T12:27:29Z</time>
      </trkpt>
      <trkpt lat="36.977652981877327" lon="-2.632223032414913">
        <ele>441.86000000000001</ele>
        <time>2025-05-12T12:27:30Z</time>
      </trkpt>
      <trkpt lat="36.977531025186181" lon="-2.632050029933453">
        <ele>442.81999999999999</ele>
        <time>2025-05-12T12:27:31Z</time>
      </trkpt>
      <trkpt lat="36.977418037131429" lon="-2.631870992481709">
        <ele>444.26999999999998</ele>
        <time>2025-05-12T12:27:32Z</time>
      </trkpt>
      <trkpt lat="36.977317035198212" lon="-2.631674017757177">
        <ele>445.70999999999998</ele>
        <time>2025-05-12T12:27:33Z</time>
      </trkpt>
      <trkpt lat="36.977231958881021" lon="-2.631472013890743">
        <ele>447.63</ele>
        <time>2025-05-12T12:27:34Z</time>
      </trkpt>
      <trkpt lat="36.977159958332777" lon="-2.631261041387916">
        <ele>449.06999999999999</ele>
        <time>2025-05-12T12:27:35Z</time>
      </trkpt>
      <trkpt lat="36.976360995322466" lon="-2.628445979207754">
        <ele>464.93000000000001</ele>
        <time>2025-05-12T12:27:47Z</time>
      </trkpt>
      <trkpt lat="36.976070981472731" lon="-2.627761010080576">
        <ele>469.74000000000001</ele>
        <time>2025-05-12T12:27:50Z</time>
      </trkpt>
      <trkpt lat="36.975954975932837" lon="-2.627550037577748">
        <ele>471.18000000000001</ele>
        <time>2025-05-12T12:27:51Z</time>
      </trkpt>
      <trkpt lat="36.97581198066473" lon="-2.62736395932734">
        <ele>472.13999999999999</ele>
        <time>2025-05-12T12:27:52Z</time>
      </trkpt>
      <trkpt lat="36.975664040073752" lon="-2.627183999866247">
        <ele>473.58999999999997</ele>
        <time>2025-05-12T12:27:53Z</time>
      </trkpt>
      <trkpt lat="36.975517021492124" lon="-2.627006974071264">
        <ele>474.55000000000001</ele>
        <time>2025-05-12T12:27:54Z</time>
      </trkpt>
      <trkpt lat="36.975345024839044" lon="-2.626863978803158">
        <ele>475.99000000000001</ele>
        <time>2025-05-12T12:27:55Z</time>
      </trkpt>
      <trkpt lat="36.9751659873873" lon="-2.62673799879849">
        <ele>476.47000000000003</ele>
        <time>2025-05-12T12:27:56Z</time>
      </trkpt>
      <trkpt lat="36.974976975470781" lon="-2.62663196772337">
        <ele>477.43000000000001</ele>
        <time>2025-05-12T12:27:57Z</time>
      </trkpt>
      <trkpt lat="36.974782012403011" lon="-2.626533983275294">
        <ele>477.91000000000003</ele>
        <time>2025-05-12T12:27:58Z</time>
      </trkpt>
      <trkpt lat="36.974574979394674" lon="-2.626462988555431">
        <ele>478.87</ele>
        <time>2025-05-12T12:27:59Z</time>
      </trkpt>
      <trkpt lat="36.974364006891847" lon="-2.626402974128723">
        <ele>479.35000000000002</ele>
        <time>2025-05-12T12:28:00Z</time>
      </trkpt>
      <trkpt lat="36.972960038110614" lon="-2.625809032469988">
        <ele>480.80000000000001</ele>
        <time>2025-05-12T12:28:07Z</time>
      </trkpt>
      <trkpt lat="36.97278100065887" lon="-2.625676011666656">
        <ele>481.27999999999997</ele>
        <time>2025-05-12T12:28:08Z</time>
      </trkpt>
      <trkpt lat="36.972626019269228" lon="-2.625497980043292">
        <ele>481.27999999999997</ele>
        <time>2025-05-12T12:28:09Z</time>
      </trkpt>
      <trkpt lat="36.972470032051206" lon="-2.625318020582199">
        <ele>481.75999999999999</ele>
        <time>2025-05-12T12:28:10Z</time>
      </trkpt>
      <trkpt lat="36.972324019297957" lon="-2.625134959816933">
        <ele>482.72000000000003</ele>
        <time>2025-05-12T12:28:11Z</time>
      </trkpt>
      <trkpt lat="36.972198039293289" lon="-2.624930022284389">
        <ele>483.68000000000001</ele>
        <time>2025-05-12T12:28:12Z</time>
      </trkpt>
      <trkpt lat="36.972088990733027" lon="-2.624712008982897">
        <ele>484.16000000000003</ele>
        <time>2025-05-12T12:28:13Z</time>
      </trkpt>
      <trkpt lat="36.971999974921346" lon="-2.624486032873392">
        <ele>485.60000000000002</ele>
        <time>2025-05-12T12:28:14Z</time>
      </trkpt>
      <trkpt lat="36.971917999908328" lon="-2.624258967116475">
        <ele>487.05000000000001</ele>
        <time>2025-05-12T12:28:15Z</time>
      </trkpt>
      <trkpt lat="36.971108978614211" lon="-2.621983028948307">
        <ele>494.74000000000001</ele>
        <time>2025-05-12T12:28:25Z</time>
      </trkpt>
      <trkpt lat="36.970972018316388" lon="-2.621779013425112">
        <ele>495.22000000000003</ele>
        <time>2025-05-12T12:28:26Z</time>
      </trkpt>
      <trkpt lat="36.970813013613224" lon="-2.621591007336974">
        <ele>495.22000000000003</ele>
        <time>2025-05-12T12:28:27Z</time>
      </trkpt>
      <trkpt lat="36.970640011131763" lon="-2.621426973491907">
        <ele>495.22000000000003</ele>
        <time>2025-05-12T12:28:28Z</time>
      </trkpt>
      <trkpt lat="36.970456028357148" lon="-2.621275009587407">
        <ele>494.74000000000001</ele>
        <time>2025-05-12T12:28:29Z</time>
      </trkpt>
      <trkpt lat="36.970255030319095" lon="-2.62119404040277">
        <ele>495.22000000000003</ele>
        <time>2025-05-12T12:28:30Z</time>
      </trkpt>
      <trkpt lat="36.970056965947151" lon="-2.621114999055862">
        <ele>494.74000000000001</ele>
        <time>2025-05-12T12:28:31Z</time>
      </trkpt>
      <trkpt lat="36.969865020364523" lon="-2.62104501016438">
        <ele>494.74000000000001</ele>
        <time>2025-05-12T12:28:32Z</time>
      </trkpt>
      <trkpt lat="36.969322962686419" lon="-2.620819034054875">
        <ele>493.76999999999998</ele>
        <time>2025-05-12T12:28:35Z</time>
      </trkpt>
      <trkpt lat="36.969160018488765" lon="-2.620720965787768">
        <ele>493.76999999999998</ele>
        <time>2025-05-12T12:28:36Z</time>
      </trkpt>
      <trkpt lat="36.969005037099123" lon="-2.620600014925003">
        <ele>493.29000000000002</ele>
        <time>2025-05-12T12:28:37Z</time>
      </trkpt>
      <trkpt lat="36.968844020739198" lon="-2.620475040748715">
        <ele>492.81</ele>
        <time>2025-05-12T12:28:38Z</time>
      </trkpt>
      <trkpt lat="36.968706976622343" lon="-2.620348976925015">
        <ele>492.81</ele>
        <time>2025-05-12T12:28:39Z</time>
      </trkpt>
      <trkpt lat="36.967588998377323" lon="-2.619618996977806">
        <ele>492.81</ele>
        <time>2025-05-12T12:28:46Z</time>
      </trkpt>
      <trkpt lat="36.966190980747342" lon="-2.618894968181849">
        <ele>493.76999999999998</ele>
        <time>2025-05-12T12:28:54Z</time>
      </trkpt>
      <trkpt lat="36.965422024950385" lon="-2.617896012961865">
        <ele>494.74000000000001</ele>
        <time>2025-05-12T12:29:00Z</time>
      </trkpt>
      <trkpt lat="36.964714005589485" lon="-2.616006983444095">
        <ele>497.62</ele>
        <time>2025-05-12T12:29:09Z</time>
      </trkpt>
      <trkpt lat="36.963853016495705" lon="-2.613582015037537">
        <ele>506.75</ele>
        <time>2025-05-12T12:29:21Z</time>
      </trkpt>
      <trkpt lat="36.962908040732145" lon="-2.610867032781243">
        <ele>513</ele>
        <time>2025-05-12T12:29:33Z</time>
      </trkpt>
      <trkpt lat="36.961732981726527" lon="-2.607655003666878">
        <ele>514.91999999999996</ele>
        <time>2025-05-12T12:29:47Z</time>
      </trkpt>
      <trkpt lat="36.961507005617023" lon="-2.607245966792107">
        <ele>514.91999999999996</ele>
        <time>2025-05-12T12:29:49Z</time>
      </trkpt>
      <trkpt lat="36.96137398481369" lon="-2.60705603286624">
        <ele>514.91999999999996</ele>
        <time>2025-05-12T12:29:50Z</time>
      </trkpt>
      <trkpt lat="36.960716005414724" lon="-2.60611399076879">
        <ele>515.88</ele>
        <time>2025-05-12T12:29:55Z</time>
      </trkpt>
      <trkpt lat="36.960626989603043" lon="-2.605892037972808">
        <ele>516.37</ele>
        <time>2025-05-12T12:29:56Z</time>
      </trkpt>
      <trkpt lat="36.960548032075167" lon="-2.60566396638751">
        <ele>516.37</ele>
        <time>2025-05-12T12:29:57Z</time>
      </trkpt>
      <trkpt lat="36.960472008213401" lon="-2.605435978621244">
        <ele>516.37</ele>
        <time>2025-05-12T12:29:58Z</time>
      </trkpt>
      <trkpt lat="36.960424985736609" lon="-2.605199022218585">
        <ele>516.85000000000002</ele>
        <time>2025-05-12T12:29:59Z</time>
      </trkpt>
      <trkpt lat="36.960411993786693" lon="-2.604960976168513">
        <ele>517.33000000000004</ele>
        <time>2025-05-12T12:30:00Z</time>
      </trkpt>
      <trkpt lat="36.960411993786693" lon="-2.604708010330796">
        <ele>517.80999999999995</ele>
        <time>2025-05-12T12:30:01Z</time>
      </trkpt>
      <trkpt lat="36.960416017100215" lon="-2.604462001472712">
        <ele>517.80999999999995</ele>
        <time>2025-05-12T12:30:02Z</time>
      </trkpt>
      <trkpt lat="36.960482988506556" lon="-2.601701002568007">
        <ele>527.41999999999996</ele>
        <time>2025-05-12T12:30:13Z</time>
      </trkpt>
      <trkpt lat="36.960109993815422" lon="-2.600051024928689">
        <ele>539.91999999999996</ele>
        <time>2025-05-12T12:30:20Z</time>
      </trkpt>
      <trkpt lat="36.960089961066842" lon="-2.599810967221856">
        <ele>541.84000000000003</ele>
        <time>2025-05-12T12:30:21Z</time>
      </trkpt>
      <trkpt lat="36.960102031007409" lon="-2.599575016647577">
        <ele>543.27999999999997</ele>
        <time>2025-05-12T12:30:22Z</time>
      </trkpt>
      <trkpt lat="36.960118962451816" lon="-2.599334958940744">
        <ele>544.72000000000003</ele>
        <time>2025-05-12T12:30:23Z</time>
      </trkpt>
      <trkpt lat="36.96014896966517" lon="-2.599096996709704">
        <ele>546.64999999999998</ele>
        <time>2025-05-12T12:30:24Z</time>
      </trkpt>
      <trkpt lat="36.960177971050143" lon="-2.598857022821903">
        <ele>548.09000000000003</ele>
        <time>2025-05-12T12:30:25Z</time>
      </trkpt>
      <trkpt lat="36.960259024053812" lon="-2.598167024552822">
        <ele>552.89999999999998</ele>
        <time>2025-05-12T12:30:28Z</time>
      </trkpt>
      <trkpt lat="36.960220970213413" lon="-2.597953034564853">
        <ele>554.82000000000005</ele>
        <time>2025-05-12T12:30:29Z</time>
      </trkpt>
      <trkpt lat="36.960171014070511" lon="-2.597737032920122">
        <ele>556.25999999999999</ele>
        <time>2025-05-12T12:30:30Z</time>
      </trkpt>
      <trkpt lat="36.960100019350648" lon="-2.597525976598263">
        <ele>558.17999999999995</ele>
        <time>2025-05-12T12:30:31Z</time>
      </trkpt>
      <trkpt lat="36.960005974397063" lon="-2.597317015752196">
        <ele>560.11000000000001</ele>
        <time>2025-05-12T12:30:32Z</time>
      </trkpt>
      <trkpt lat="36.959894997999072" lon="-2.597115011885762">
        <ele>562.02999999999997</ele>
        <time>2025-05-12T12:30:33Z</time>
      </trkpt>
      <trkpt lat="36.958852959796786" lon="-2.595419017598033">
        <ele>573.55999999999995</ele>
        <time>2025-05-12T12:30:42Z</time>
      </trkpt>
      <trkpt lat="36.958405030891299" lon="-2.59472600184381">
        <ele>574.03999999999996</ele>
        <time>2025-05-12T12:30:46Z</time>
      </trkpt>
      <trkpt lat="36.958298999816179" lon="-2.594551993533969">
        <ele>573.55999999999995</ele>
        <time>2025-05-12T12:30:47Z</time>
      </trkpt>
      <trkpt lat="36.958219036459923" lon="-2.594362981617451">
        <ele>572.60000000000002</ele>
        <time>2025-05-12T12:30:48Z</time>
      </trkpt>
      <trkpt lat="36.958167990669608" lon="-2.594153014943004">
        <ele>572.12</ele>
        <time>2025-05-12T12:30:49Z</time>
      </trkpt>
      <trkpt lat="36.958121974021196" lon="-2.593922009691596">
        <ele>571.63999999999999</ele>
        <time>2025-05-12T12:30:50Z</time>
      </trkpt>
      <trkpt lat="36.958088027313352" lon="-2.593685975298286">
        <ele>570.67999999999995</ele>
        <time>2025-05-12T12:30:51Z</time>
      </trkpt>
      <trkpt lat="36.958073023706675" lon="-2.593417000025511">
        <ele>569.72000000000003</ele>
        <time>2025-05-12T12:30:52Z</time>
      </trkpt>
      <trkpt lat="36.958109987899661" lon="-2.593174008652568">
        <ele>569.24000000000001</ele>
        <time>2025-05-12T12:30:53Z</time>
      </trkpt>
      <trkpt lat="36.95817100815475" lon="-2.59292297065258">
        <ele>568.75999999999999</ele>
        <time>2025-05-12T12:30:54Z</time>
      </trkpt>
      <trkpt lat="36.958235967904329" lon="-2.592670004814863">
        <ele>567.79999999999995</ele>
        <time>2025-05-12T12:30:55Z</time>
      </trkpt>
      <trkpt lat="36.958338981494308" lon="-2.59214898571372">
        <ele>565.87</ele>
        <time>2025-05-12T12:30:57Z</time>
      </trkpt>
      <trkpt lat="36.958380974829197" lon="-2.591894008219242">
        <ele>564.90999999999997</ele>
        <time>2025-05-12T12:30:58Z</time>
      </trkpt>
      <trkpt lat="36.958367982879281" lon="-2.591641964390874">
        <ele>563.47000000000003</ele>
        <time>2025-05-12T12:30:59Z</time>
      </trkpt>
      <trkpt lat="36.958329007029533" lon="-2.591398973017931">
        <ele>562.50999999999999</ele>
        <time>2025-05-12T12:31:00Z</time>
      </trkpt>
      <trkpt lat="36.958254994824529" lon="-2.59116000495851">
        <ele>561.54999999999995</ele>
        <time>2025-05-12T12:31:01Z</time>
      </trkpt>
      <trkpt lat="36.958148963749409" lon="-2.590938974171877">
        <ele>561.07000000000005</ele>
        <time>2025-05-12T12:31:02Z</time>
      </trkpt>
      <trkpt lat="36.958033964037895" lon="-2.590707968920469">
        <ele>560.11000000000001</ele>
        <time>2025-05-12T12:31:03Z</time>
      </trkpt>
      <trkpt lat="36.957601960748434" lon="-2.589796017855406">
        <ele>557.70000000000005</ele>
        <time>2025-05-12T12:31:07Z</time>
      </trkpt>
      <trkpt lat="36.957540018483996" lon="-2.589551014825702">
        <ele>557.22000000000003</ele>
        <time>2025-05-12T12:31:08Z</time>
      </trkpt>
      <trkpt lat="36.957490984350443" lon="-2.589297965168953">
        <ele>556.25999999999999</ele>
        <time>2025-05-12T12:31:09Z</time>
      </trkpt>
      <trkpt lat="36.95748302154243" lon="-2.589037036523223">
        <ele>555.77999999999997</ele>
        <time>2025-05-12T12:31:10Z</time>
      </trkpt>
      <trkpt lat="36.957474974915385" lon="-2.588772000744939">
        <ele>555.77999999999997</ele>
        <time>2025-05-12T12:31:11Z</time>
      </trkpt>
      <trkpt lat="36.957487966865301" lon="-2.588509982451797">
        <ele>555.77999999999997</ele>
        <time>2025-05-12T12:31:12Z</time>
      </trkpt>
      <trkpt lat="36.957513028755784" lon="-2.588246958330274">
        <ele>555.29999999999995</ele>
        <time>2025-05-12T12:31:13Z</time>
      </trkpt>
      <trkpt lat="36.957572037354112" lon="-2.587993992492557">
        <ele>555.29999999999995</ele>
        <time>2025-05-12T12:31:14Z</time>
      </trkpt>
      <trkpt lat="36.957635991275311" lon="-2.587738009169698">
        <ele>554.82000000000005</ele>
        <time>2025-05-12T12:31:15Z</time>
      </trkpt>
      <trkpt lat="36.958303023129702" lon="-2.584711974486709">
        <ele>541.36000000000001</ele>
        <time>2025-05-12T12:31:26Z</time>
      </trkpt>
      <trkpt lat="36.958969971165061" lon="-2.582260016351938">
        <ele>526.94000000000005</ele>
        <time>2025-05-12T12:31:35Z</time>
      </trkpt>
      <trkpt lat="36.959179015830159" lon="-2.581773027777672">
        <ele>523.58000000000004</ele>
        <time>2025-05-12T12:31:37Z</time>
      </trkpt>
      <trkpt lat="36.960263969376683" lon="-2.579336995258927">
        <ele>508.67000000000002</ele>
        <time>2025-05-12T12:31:47Z</time>
      </trkpt>
      <trkpt lat="36.961163012310863" lon="-2.576787974685431">
        <ele>496.18000000000001</ele>
        <time>2025-05-12T12:31:57Z</time>
      </trkpt>
      <trkpt lat="36.962258024141192" lon="-2.574771959334612">
        <ele>492.32999999999998</ele>
        <time>2025-05-12T12:32:06Z</time>
      </trkpt>
      <trkpt lat="36.962706036865711" lon="-2.573147965595126">
        <ele>490.41000000000003</ele>
        <time>2025-05-12T12:32:13Z</time>
      </trkpt>
      <trkpt lat="36.96270695887506" lon="-2.572410022839904">
        <ele>490.41000000000003</ele>
        <time>2025-05-12T12:32:18Z</time>
      </trkpt>
      <trkpt lat="36.96270695887506" lon="-2.572243977338076">
        <ele>490.41000000000003</ele>
        <time>2025-05-12T12:32:21Z</time>
      </trkpt>
      <trkpt lat="36.96270695887506" lon="-2.572178011760116">
        <ele>490.41000000000003</ele>
        <time>2025-05-12T12:32:22Z</time>
      </trkpt>
      <trkpt lat="36.962850037962198" lon="-2.571928985416889">
        <ele>490.41000000000003</ele>
        <time>2025-05-12T12:32:25Z</time>
      </trkpt>
      <trkpt lat="36.962900999933481" lon="-2.571895038709045">
        <ele>489.93000000000001</ele>
        <time>2025-05-12T12:32:26Z</time>
      </trkpt>
      <trkpt lat="36.963151032105088" lon="-2.57169303484261">
        <ele>488.00999999999999</ele>
        <time>2025-05-12T12:32:29Z</time>
      </trkpt>
      <trkpt lat="36.963212974369526" lon="-2.571603013202548">
        <ele>487.52999999999997</ele>
        <time>2025-05-12T12:32:30Z</time>
      </trkpt>
      <trkpt lat="36.96371597237885" lon="-2.570571033284068">
        <ele>482.72000000000003</ele>
        <time>2025-05-12T12:32:39Z</time>
      </trkpt>
      <trkpt lat="36.963737010955811" lon="-2.570478999987245">
        <ele>481.75999999999999</ele>
        <time>2025-05-12T12:32:40Z</time>
      </trkpt>
      <trkpt lat="36.963709015399218" lon="-2.570219999179244">
        <ele>480.80000000000001</ele>
        <time>2025-05-12T12:32:42Z</time>
      </trkpt>
      <trkpt lat="36.963699962943792" lon="-2.570093013346195">
        <ele>480.80000000000001</ele>
        <time>2025-05-12T12:32:43Z</time>
      </trkpt>
      <trkpt lat="36.963684959337115" lon="-2.56997499614954">
        <ele>480.31999999999999</ele>
        <time>2025-05-12T12:32:44Z</time>
      </trkpt>
      <trkpt lat="36.963647995144129" lon="-2.569844992831349">
        <ele>479.83999999999997</ele>
        <time>2025-05-12T12:32:45Z</time>
      </trkpt>
      <trkpt lat="36.963609019294381" lon="-2.569709038361907">
        <ele>479.35000000000002</ele>
        <time>2025-05-12T12:32:46Z</time>
      </trkpt>
      <trkpt lat="36.963598961010575" lon="-2.569556990638375">
        <ele>478.87</ele>
        <time>2025-05-12T12:32:47Z</time>
      </trkpt>
      <trkpt lat="36.96358697488904" lon="-2.569384993985295">
        <ele>478.38999999999999</ele>
        <time>2025-05-12T12:32:48Z</time>
      </trkpt>
      <trkpt lat="36.963560990989208" lon="-2.569263959303498">
        <ele>477.43000000000001</ele>
        <time>2025-05-12T12:32:49Z</time>
      </trkpt>
      <trkpt lat="36.963527966290712" lon="-2.569109983742237">
        <ele>476.47000000000003</ele>
        <time>2025-05-12T12:32:50Z</time>
      </trkpt>
      <trkpt lat="36.963494019582868" lon="-2.568956008180976">
        <ele>475.99000000000001</ele>
        <time>2025-05-12T12:32:51Z</time>
      </trkpt>
      <trkpt lat="36.963473986834288" lon="-2.568803038448095">
        <ele>475.02999999999997</ele>
        <time>2025-05-12T12:32:52Z</time>
      </trkpt>
      <trkpt lat="36.963463006541133" lon="-2.56864202208817">
        <ele>474.55000000000001</ele>
        <time>2025-05-12T12:32:53Z</time>
      </trkpt>
      <trkpt lat="36.96356400847435" lon="-2.567163035273552">
        <ele>465.89999999999998</ele>
        <time>2025-05-12T12:33:01Z</time>
      </trkpt>
      <trkpt lat="36.963656963780522" lon="-2.566606979817152">
        <ele>464.44999999999999</ele>
        <time>2025-05-12T12:33:04Z</time>
      </trkpt>
      <trkpt lat="36.963701974600554" lon="-2.566426014527679">
        <ele>463.97000000000003</ele>
        <time>2025-05-12T12:33:05Z</time>
      </trkpt>
      <trkpt lat="36.96380197070539" lon="-2.566143963485956">
        <ele>463.97000000000003</ele>
        <time>2025-05-12T12:33:07Z</time>
      </trkpt>
      <trkpt lat="36.963817980140448" lon="-2.566028963774443">
        <ele>463.49000000000001</ele>
        <time>2025-05-12T12:33:08Z</time>
      </trkpt>
      <trkpt lat="36.963796019554138" lon="-2.565930979326367">
        <ele>463.00999999999999</ele>
        <time>2025-05-12T12:33:09Z</time>
      </trkpt>
      <trkpt lat="36.963746985420585" lon="-2.565816985443234">
        <ele>462.52999999999997</ele>
        <time>2025-05-12T12:33:10Z</time>
      </trkpt>
      <trkpt lat="36.963696023449302" lon="-2.565696034580469">
        <ele>462.05000000000001</ele>
        <time>2025-05-12T12:33:11Z</time>
      </trkpt>
      <trkpt lat="36.963640032336116" lon="-2.565566031262279">
        <ele>461.56999999999999</ele>
        <time>2025-05-12T12:33:12Z</time>
      </trkpt>
      <trkpt lat="36.963482033461332" lon="-2.565174009650946">
        <ele>460.61000000000001</ele>
        <time>2025-05-12T12:33:15Z</time>
      </trkpt>
      <trkpt lat="36.963465018197894" lon="-2.565047023817897">
        <ele>460.13</ele>
        <time>2025-05-12T12:33:16Z</time>
      </trkpt>
      <trkpt lat="36.963480021804571" lon="-2.564944010227919">
        <ele>459.17000000000002</ele>
        <time>2025-05-12T12:33:17Z</time>
      </trkpt>
      <trkpt lat="36.963557973504066" lon="-2.564873015508056">
        <ele>458.20999999999998</ele>
        <time>2025-05-12T12:33:18Z</time>
      </trkpt>
      <trkpt lat="36.963638020679355" lon="-2.564801014959812">
        <ele>457.72000000000003</ele>
        <time>2025-05-12T12:33:19Z</time>
      </trkpt>
      <trkpt lat="36.963738016784191" lon="-2.564729014411569">
        <ele>456.27999999999997</ele>
        <time>2025-05-12T12:33:20Z</time>
      </trkpt>
      <trkpt lat="36.964188041165471" lon="-2.564514018595219">
        <ele>452.92000000000002</ele>
        <time>2025-05-12T12:33:24Z</time>
      </trkpt>
      <trkpt lat="36.964299017563462" lon="-2.564529022201896">
        <ele>451.95999999999998</ele>
        <time>2025-05-12T12:33:25Z</time>
      </trkpt>
      <trkpt lat="36.964371018111706" lon="-2.564575038850308">
        <ele>451.95999999999998</ele>
        <time>2025-05-12T12:33:26Z</time>
      </trkpt>
      <trkpt lat="36.964432038366795" lon="-2.5646479614079">
        <ele>451.48000000000002</ele>
        <time>2025-05-12T12:33:27Z</time>
      </trkpt>
      <trkpt lat="36.96446699090302" lon="-2.564748041331768">
        <ele>451</ele>
        <time>2025-05-12T12:33:28Z</time>
      </trkpt>
      <trkpt lat="36.964498003944755" lon="-2.564875027164817">
        <ele>451</ele>
        <time>2025-05-12T12:33:29Z</time>
      </trkpt>
      <trkpt lat="36.96453102864325" lon="-2.565006958320737">
        <ele>451</ele>
        <time>2025-05-12T12:33:30Z</time>
      </trkpt>
      <trkpt lat="36.964544020593166" lon="-2.565145008265972">
        <ele>450.51999999999998</ele>
        <time>2025-05-12T12:33:31Z</time>
      </trkpt>
      <trkpt lat="36.964557012543082" lon="-2.565293032675982">
        <ele>450.51999999999998</ele>
        <time>2025-05-12T12:33:32Z</time>
      </trkpt>
      <trkpt lat="36.964572016149759" lon="-2.565451031550765">
        <ele>450.51999999999998</ele>
        <time>2025-05-12T12:33:33Z</time>
      </trkpt>
      <trkpt lat="36.964587019756436" lon="-2.565617999061942">
        <ele>450.51999999999998</ele>
        <time>2025-05-12T12:33:34Z</time>
      </trkpt>
      <trkpt lat="36.96461602114141" lon="-2.565792007371783">
        <ele>450.02999999999997</ele>
        <time>2025-05-12T12:33:35Z</time>
      </trkpt>
      <trkpt lat="36.965102003887296" lon="-2.567615993320942">
        <ele>446.19</ele>
        <time>2025-05-12T12:33:45Z</time>
      </trkpt>
      <trkpt lat="36.96532697416842" lon="-2.568444963544607">
        <ele>441.38</ele>
        <time>2025-05-12T12:33:50Z</time>
      </trkpt>
      <trkpt lat="36.965366033837199" lon="-2.568603968247771">
        <ele>439.94</ele>
        <time>2025-05-12T12:33:51Z</time>
      </trkpt>
      <trkpt lat="36.965466029942036" lon="-2.568709999322891">
        <ele>438.98000000000002</ele>
        <time>2025-05-12T12:33:52Z</time>
      </trkpt>
      <trkpt lat="36.965560996904969" lon="-2.568804966285825">
        <ele>438.01999999999998</ele>
        <time>2025-05-12T12:33:53Z</time>
      </trkpt>
      <trkpt lat="36.965672979131341" lon="-2.568843020126224">
        <ele>437.54000000000002</ele>
        <time>2025-05-12T12:33:54Z</time>
      </trkpt>
      <trkpt lat="36.965794013813138" lon="-2.568884007632732">
        <ele>437.06</ele>
        <time>2025-05-12T12:33:55Z</time>
      </trkpt>
      <trkpt lat="36.967144003137946" lon="-2.569391028955579">
        <ele>434.17000000000002</ele>
        <time>2025-05-12T12:34:05Z</time>
      </trkpt>
      <trkpt lat="36.967371990904212" lon="-2.569469986483455">
        <ele>433.20999999999998</ele>
        <time>2025-05-12T12:34:07Z</time>
      </trkpt>
      <trkpt lat="36.967468969523907" lon="-2.569469986483455">
        <ele>432.73000000000002</ele>
        <time>2025-05-12T12:34:08Z</time>
      </trkpt>
      <trkpt lat="36.96754097007215" lon="-2.569439979270101">
        <ele>432.25</ele>
        <time>2025-05-12T12:34:09Z</time>
      </trkpt>
      <trkpt lat="36.967617999762297" lon="-2.56935297511518">
        <ele>431.76999999999998</ele>
        <time>2025-05-12T12:34:10Z</time>
      </trkpt>
      <trkpt lat="36.967698968946934" lon="-2.569261025637388">
        <ele>430.81</ele>
        <time>2025-05-12T12:34:11Z</time>
      </trkpt>
      <trkpt lat="36.967913964763284" lon="-2.56892298348248">
        <ele>428.39999999999998</ele>
        <time>2025-05-12T12:34:14Z</time>
      </trkpt>
      <trkpt lat="36.967958975583315" lon="-2.568818964064121">
        <ele>427.44</ele>
        <time>2025-05-12T12:34:15Z</time>
      </trkpt>
      <trkpt lat="36.967945983633399" lon="-2.568729026243091">
        <ele>426.48000000000002</ele>
        <time>2025-05-12T12:34:16Z</time>
      </trkpt>
      <trkpt lat="36.967921005561948" lon="-2.568631963804364">
        <ele>425.51999999999998</ele>
        <time>2025-05-12T12:34:17Z</time>
      </trkpt>
      <trkpt lat="36.967901978641748" lon="-2.568514030426741">
        <ele>424.56</ele>
        <time>2025-05-12T12:34:18Z</time>
      </trkpt>
      <trkpt lat="36.967909019440413" lon="-2.568380003795028">
        <ele>424.07999999999998</ele>
        <time>2025-05-12T12:34:19Z</time>
      </trkpt>
      <trkpt lat="36.967916982248425" lon="-2.568232985213399">
        <ele>423.12</ele>
        <time>2025-05-12T12:34:20Z</time>
      </trkpt>
      <trkpt lat="36.967912958934903" lon="-2.568072974681854">
        <ele>422.63999999999999</ele>
        <time>2025-05-12T12:34:21Z</time>
      </trkpt>
      <trkpt lat="36.967889992520213" lon="-2.567897960543633">
        <ele>421.68000000000001</ele>
        <time>2025-05-12T12:34:22Z</time>
      </trkpt>
      <trkpt lat="36.967825032770634" lon="-2.567360009998083">
        <ele>419.26999999999998</ele>
        <time>2025-05-12T12:34:25Z</time>
      </trkpt>
      <trkpt lat="36.967767030000687" lon="-2.567196981981397">
        <ele>418.31</ele>
        <time>2025-05-12T12:34:26Z</time>
      </trkpt>
      <trkpt lat="36.967648006975651" lon="-2.566862963140011">
        <ele>416.38999999999999</ele>
        <time>2025-05-12T12:34:28Z</time>
      </trkpt>
      <trkpt lat="36.967617999762297" lon="-2.566698007285595">
        <ele>414.94999999999999</ele>
        <time>2025-05-12T12:34:29Z</time>
      </trkpt>
      <trkpt lat="36.967611964792013" lon="-2.566531039774418">
        <ele>413.98000000000002</ele>
        <time>2025-05-12T12:34:30Z</time>
      </trkpt>
      <trkpt lat="36.967599978670478" lon="-2.566178999841213">
        <ele>411.57999999999998</ele>
        <time>2025-05-12T12:34:32Z</time>
      </trkpt>
      <trkpt lat="36.967526972293854" lon="-2.565572988241911">
        <ele>407.74000000000001</ele>
        <time>2025-05-12T12:34:36Z</time>
      </trkpt>
      <trkpt lat="36.967547005042434" lon="-2.565481038764119">
        <ele>407.25999999999999</ele>
        <time>2025-05-12T12:34:37Z</time>
      </trkpt>
      <trkpt lat="36.967592015862465" lon="-2.565397974103689">
        <ele>406.76999999999998</ele>
        <time>2025-05-12T12:34:38Z</time>
      </trkpt>
      <trkpt lat="36.967662004753947" lon="-2.565320022404194">
        <ele>406.29000000000002</ele>
        <time>2025-05-12T12:34:39Z</time>
      </trkpt>
      <trkpt lat="36.967740962281823" lon="-2.565234024077654">
        <ele>406.29000000000002</ele>
        <time>2025-05-12T12:34:40Z</time>
      </trkpt>
      <trkpt lat="36.967840036377311" lon="-2.5651849899441">
        <ele>406.76999999999998</ele>
        <time>2025-05-12T12:34:41Z</time>
      </trkpt>
      <trkpt lat="36.967935003340244" lon="-2.565163029357791">
        <ele>406.76999999999998</ele>
        <time>2025-05-12T12:34:42Z</time>
      </trkpt>
      <trkpt lat="36.968027958646417" lon="-2.56514098495245">
        <ele>407.25999999999999</ele>
        <time>2025-05-12T12:34:43Z</time>
      </trkpt>
      <trkpt lat="36.968125021085143" lon="-2.565163029357791">
        <ele>407.25999999999999</ele>
        <time>2025-05-12T12:34:44Z</time>
      </trkpt>
      <trkpt lat="36.968227028846741" lon="-2.565199993550777">
        <ele>407.25999999999999</ele>
        <time>2025-05-12T12:34:45Z</time>
      </trkpt>
      <trkpt lat="36.968328030779958" lon="-2.565263025462627">
        <ele>407.25999999999999</ele>
        <time>2025-05-12T12:34:46Z</time>
      </trkpt>
      <trkpt lat="36.968422997742891" lon="-2.565357992425561">
        <ele>407.25999999999999</ele>
        <time>2025-05-12T12:34:47Z</time>
      </trkpt>
      <trkpt lat="36.968516036868095" lon="-2.565451031550765">
        <ele>407.74000000000001</ele>
        <time>2025-05-12T12:34:48Z</time>
      </trkpt>
      <trkpt lat="36.968600023537874" lon="-2.56554801017046">
        <ele>407.25999999999999</ele>
        <time>2025-05-12T12:34:49Z</time>
      </trkpt>
      <trkpt lat="36.96865500882268" lon="-2.565666027367115">
        <ele>407.25999999999999</ele>
        <time>2025-05-12T12:34:50Z</time>
      </trkpt>
      <trkpt lat="36.968688033521175" lon="-2.565802987664938">
        <ele>406.76999999999998</ele>
        <time>2025-05-12T12:34:51Z</time>
      </trkpt>
      <trkpt lat="36.968838991597295" lon="-2.566387038677931">
        <ele>404.85000000000002</ele>
        <time>2025-05-12T12:34:55Z</time>
      </trkpt>
      <trkpt lat="36.968905040994287" lon="-2.566502960398793">
        <ele>404.37</ele>
        <time>2025-05-12T12:34:56Z</time>
      </trkpt>
      <trkpt lat="36.968997996300459" lon="-2.566583007574081">
        <ele>403.88999999999999</ele>
        <time>2025-05-12T12:34:57Z</time>
      </trkpt>
      <trkpt lat="36.969094974920154" lon="-2.566660959273577">
        <ele>403.41000000000003</ele>
        <time>2025-05-12T12:34:58Z</time>
      </trkpt>
      <trkpt lat="36.969191031530499" lon="-2.566702030599117">
        <ele>402.93000000000001</ele>
        <time>2025-05-12T12:34:59Z</time>
      </trkpt>
      <trkpt lat="36.969282981008291" lon="-2.566702030599117">
        <ele>402.44999999999999</ele>
        <time>2025-05-12T12:35:00Z</time>
      </trkpt>
      <trkpt lat="36.969370990991592" lon="-2.566702030599117">
        <ele>401.97000000000003</ele>
        <time>2025-05-12T12:35:01Z</time>
      </trkpt>
      <trkpt lat="36.969437962397933" lon="-2.566652996465564">
        <ele>401.49000000000001</ele>
        <time>2025-05-12T12:35:02Z</time>
      </trkpt>
      <trkpt lat="36.969509962946177" lon="-2.566589964553714">
        <ele>401.49000000000001</ele>
        <time>2025-05-12T12:35:03Z</time>
      </trkpt>
      <trkpt lat="36.96955899707973" lon="-2.566531039774418">
        <ele>401.00999999999999</ele>
        <time>2025-05-12T12:35:04Z</time>
      </trkpt>
      <trkpt lat="36.969587998464704" lon="-2.566433977335692">
        <ele>400.52999999999997</ele>
        <time>2025-05-12T12:35:05Z</time>
      </trkpt>
      <trkpt lat="36.969616999849677" lon="-2.566338004544377">
        <ele>400.05000000000001</ele>
        <time>2025-05-12T12:35:06Z</time>
      </trkpt>
      <trkpt lat="36.969642983749509" lon="-2.566197020933032">
        <ele>399.56999999999999</ele>
        <time>2025-05-12T12:35:07Z</time>
      </trkpt>
      <trkpt lat="36.969767035916448" lon="-2.565383976325393">
        <ele>394.27999999999997</ele>
        <time>2025-05-12T12:35:12Z</time>
      </trkpt>
      <trkpt lat="36.969767035916448" lon="-2.565179038792849">
        <ele>393.31999999999999</ele>
        <time>2025-05-12T12:35:13Z</time>
      </trkpt>
      <trkpt lat="36.96971096098423" lon="-2.564596999436617">
        <ele>390.91000000000003</ele>
        <time>2025-05-12T12:35:16Z</time>
      </trkpt>
      <trkpt lat="36.969673996791244" lon="-2.564414022490382">
        <ele>389.94999999999999</ele>
        <time>2025-05-12T12:35:17Z</time>
      </trkpt>
      <trkpt lat="36.969421030953526" lon="-2.563538029789925">
        <ele>387.06999999999999</ele>
        <time>2025-05-12T12:35:22Z</time>
      </trkpt>
      <trkpt lat="36.969350958243012" lon="-2.563083982095122">
        <ele>386.11000000000001</ele>
        <time>2025-05-12T12:35:25Z</time>
      </trkpt>
      <trkpt lat="36.969337966293097" lon="-2.562947021797299">
        <ele>385.63</ele>
        <time>2025-05-12T12:35:26Z</time>
      </trkpt>
      <trkpt lat="36.969395969063044" lon="-2.562860017642379">
        <ele>385.63</ele>
        <time>2025-05-12T12:35:27Z</time>
      </trkpt>
      <trkpt lat="36.969466041773558" lon="-2.56275599822402">
        <ele>385.14999999999998</ele>
        <time>2025-05-12T12:35:28Z</time>
      </trkpt>
      <trkpt lat="36.969539970159531" lon="-2.562645021826029">
        <ele>384.66000000000003</ele>
        <time>2025-05-12T12:35:29Z</time>
      </trkpt>
      <trkpt lat="36.969678020104766" lon="-2.562436982989311">
        <ele>383.22000000000003</ele>
        <time>2025-05-12T12:35:31Z</time>
      </trkpt>
      <trkpt lat="36.969677014276385" lon="-2.562329024076462">
        <ele>382.74000000000001</ele>
        <time>2025-05-12T12:35:32Z</time>
      </trkpt>
      <trkpt lat="36.969671985134482" lon="-2.562199020758271">
        <ele>381.77999999999997</ele>
        <time>2025-05-12T12:35:33Z</time>
      </trkpt>
      <trkpt lat="36.969667039811611" lon="-2.562059964984655">
        <ele>381.30000000000001</ele>
        <time>2025-05-12T12:35:34Z</time>
      </trkpt>
      <trkpt lat="36.969662010669708" lon="-2.56191898137331">
        <ele>380.81999999999999</ele>
        <time>2025-05-12T12:35:35Z</time>
      </trkpt>
      <trkpt lat="36.969611970707774" lon="-2.561784032732248">
        <ele>379.86000000000001</ele>
        <time>2025-05-12T12:35:36Z</time>
      </trkpt>
      <trkpt lat="36.969541981816292" lon="-2.561651011928916">
        <ele>379.38</ele>
        <time>2025-05-12T12:35:37Z</time>
      </trkpt>
      <trkpt lat="36.969468975439668" lon="-2.561512039974332">
        <ele>378.42000000000002</ele>
        <time>2025-05-12T12:35:38Z</time>
      </trkpt>
      <trkpt lat="36.969391023740172" lon="-2.561364015564323">
        <ele>378.42000000000002</ele>
        <time>2025-05-12T12:35:39Z</time>
      </trkpt>
      <trkpt lat="36.969091035425663" lon="-2.56084400229156">
        <ele>377.44999999999999</ele>
        <time>2025-05-12T12:35:43Z</time>
      </trkpt>
      <trkpt lat="36.969029009342194" lon="-2.560748029500246">
        <ele>376.97000000000003</ele>
        <time>2025-05-12T12:35:44Z</time>
      </trkpt>
      <trkpt lat="36.968962037935853" lon="-2.560688015073538">
        <ele>376.97000000000003</ele>
        <time>2025-05-12T12:35:45Z</time>
      </trkpt>
      <trkpt lat="36.968873022124171" lon="-2.560669993981719">
        <ele>376.97000000000003</ele>
        <time>2025-05-12T12:35:46Z</time>
      </trkpt>
      <trkpt lat="36.968777971342206" lon="-2.56065096706152">
        <ele>376.49000000000001</ele>
        <time>2025-05-12T12:35:47Z</time>
      </trkpt>
      <trkpt lat="36.968426015228033" lon="-2.560580978170037">
        <ele>375.52999999999997</ele>
        <time>2025-05-12T12:35:50Z</time>
      </trkpt>
      <trkpt lat="36.968309003859758" lon="-2.560529010370374">
        <ele>375.52999999999997</ele>
        <time>2025-05-12T12:35:51Z</time>
      </trkpt>
      <trkpt lat="36.968194004148245" lon="-2.560428008437157">
        <ele>375.05000000000001</ele>
        <time>2025-05-12T12:35:52Z</time>
      </trkpt>
      <trkpt lat="36.967556979507208" lon="-2.559916963800788">
        <ele>372.64999999999998</ele>
        <time>2025-05-12T12:35:57Z</time>
      </trkpt>
      <trkpt lat="36.96743200533092" lon="-2.559878993779421">
        <ele>372.17000000000002</ele>
        <time>2025-05-12T12:35:58Z</time>
      </trkpt>
      <trkpt lat="36.967099998146296" lon="-2.559775980189443">
        <ele>369.27999999999997</ele>
        <time>2025-05-12T12:36:01Z</time>
      </trkpt>
      <trkpt lat="36.967056998983026" lon="-2.559697022661567">
        <ele>368.80000000000001</ele>
        <time>2025-05-12T12:36:02Z</time>
      </trkpt>
      <trkpt lat="36.967020034790039" lon="-2.55959996022284">
        <ele>368.31999999999999</ele>
        <time>2025-05-12T12:36:03Z</time>
      </trkpt>
      <trkpt lat="36.967033026739955" lon="-2.559474986046553">
        <ele>368.31999999999999</ele>
        <time>2025-05-12T12:36:04Z</time>
      </trkpt>
      <trkpt lat="36.967048030346632" lon="-2.559328973293304">
        <ele>368.31999999999999</ele>
        <time>2025-05-12T12:36:05Z</time>
      </trkpt>
      <trkpt lat="36.967063033953309" lon="-2.559170974418521">
        <ele>368.31999999999999</ele>
        <time>2025-05-12T12:36:06Z</time>
      </trkpt>
      <trkpt lat="36.967142997309566" lon="-2.559058992192149">
        <ele>367.83999999999997</ele>
        <time>2025-05-12T12:36:07Z</time>
      </trkpt>
      <trkpt lat="36.967231007292867" lon="-2.558936029672623">
        <ele>367.36000000000001</ele>
        <time>2025-05-12T12:36:08Z</time>
      </trkpt>
      <trkpt lat="36.96730300784111" lon="-2.558804014697671">
        <ele>366.88</ele>
        <time>2025-05-12T12:36:09Z</time>
      </trkpt>
      <trkpt lat="36.967361010611057" lon="-2.558655990287662">
        <ele>366.39999999999998</ele>
        <time>2025-05-12T12:36:10Z</time>
      </trkpt>
      <trkpt lat="36.967420019209385" lon="-2.55850100889802">
        <ele>365.92000000000002</ele>
        <time>2025-05-12T12:36:11Z</time>
      </trkpt>
      <trkpt lat="36.967477016150951" lon="-2.55835298448801">
        <ele>365.92000000000002</ele>
        <time>2025-05-12T12:36:12Z</time>
      </trkpt>
      <trkpt lat="36.967508029192686" lon="-2.558220969513059">
        <ele>364.95999999999998</ele>
        <time>2025-05-12T12:36:13Z</time>
      </trkpt>
      <trkpt lat="36.967481039464474" lon="-2.55811401642859">
        <ele>364.48000000000002</ele>
        <time>2025-05-12T12:36:14Z</time>
      </trkpt>
      <trkpt lat="36.967426976189017" lon="-2.558000022545457">
        <ele>364</ele>
        <time>2025-05-12T12:36:15Z</time>
      </trkpt>
      <trkpt lat="36.967366961762309" lon="-2.557872030884028">
        <ele>363.04000000000002</ele>
        <time>2025-05-12T12:36:16Z</time>
      </trkpt>
      <trkpt lat="36.967304013669491" lon="-2.557738004252315">
        <ele>362.55000000000001</ele>
        <time>2025-05-12T12:36:17Z</time>
      </trkpt>
      <trkpt lat="36.967156995087862" lon="-2.557370960712433">
        <ele>360.63</ele>
        <time>2025-05-12T12:36:20Z</time>
      </trkpt>
      <trkpt lat="36.967159006744623" lon="-2.557268030941486">
        <ele>360.14999999999998</ele>
        <time>2025-05-12T12:36:21Z</time>
      </trkpt>
      <trkpt lat="36.967184990644455" lon="-2.557169040665031">
        <ele>360.14999999999998</ele>
        <time>2025-05-12T12:36:22Z</time>
      </trkpt>
      <trkpt lat="36.967235030606389" lon="-2.557068038731813">
        <ele>359.19</ele>
        <time>2025-05-12T12:36:23Z</time>
      </trkpt>
      <trkpt lat="36.967293033376336" lon="-2.556952033191919">
        <ele>358.70999999999998</ele>
        <time>2025-05-12T12:36:24Z</time>
      </trkpt>
      <trkpt lat="36.967421025037766" lon="-2.556694960221648">
        <ele>358.23000000000002</ele>
        <time>2025-05-12T12:36:26Z</time>
      </trkpt>
      <trkpt lat="36.96747500449419" lon="-2.556554982438684">
        <ele>357.75</ele>
        <time>2025-05-12T12:36:27Z</time>
      </trkpt>
      <trkpt lat="36.967491013929248" lon="-2.556381979957223">
        <ele>357.26999999999998</ele>
        <time>2025-05-12T12:36:28Z</time>
      </trkpt>
      <trkpt lat="36.967544993385673" lon="-2.556026000529528">
        <ele>356.31</ele>
        <time>2025-05-12T12:36:30Z</time>
      </trkpt>
      <trkpt lat="36.967588998377323" lon="-2.555856015533209">
        <ele>355.82999999999998</ele>
        <time>2025-05-12T12:36:31Z</time>
      </trkpt>
      <trkpt lat="36.96773299947381" lon="-2.555445972830057">
        <ele>352.94</ele>
        <time>2025-05-12T12:36:34Z</time>
      </trkpt>
      <trkpt lat="36.967792008072138" lon="-2.55538403056562">
        <ele>351.98000000000002</ele>
        <time>2025-05-12T12:36:35Z</time>
      </trkpt>
      <trkpt lat="36.967844981700182" lon="-2.555353017523885">
        <ele>351.01999999999998</ele>
        <time>2025-05-12T12:36:36Z</time>
      </trkpt>
      <trkpt lat="36.96790399029851" lon="-2.555368021130562">
        <ele>350.54000000000002</ele>
        <time>2025-05-12T12:36:37Z</time>
      </trkpt>
      <trkpt lat="36.96794698946178" lon="-2.555414037778974">
        <ele>349.10000000000002</ele>
        <time>2025-05-12T12:36:38Z</time>
      </trkpt>
      <trkpt lat="36.967985965311527" lon="-2.555483020842075">
        <ele>347.64999999999998</ele>
        <time>2025-05-12T12:36:39Z</time>
      </trkpt>
      <trkpt lat="36.967985965311527" lon="-2.555590979754925">
        <ele>347.17000000000002</ele>
        <time>2025-05-12T12:36:40Z</time>
      </trkpt>
      <trkpt lat="36.967985965311527" lon="-2.555722994729877">
        <ele>346.20999999999998</ele>
        <time>2025-05-12T12:36:41Z</time>
      </trkpt>
      <trkpt lat="36.967985965311527" lon="-2.555875964462757">
        <ele>345.25</ele>
        <time>2025-05-12T12:36:42Z</time>
      </trkpt>
      <trkpt lat="36.967992000281811" lon="-2.556036980822682">
        <ele>344.76999999999998</ele>
        <time>2025-05-12T12:36:43Z</time>
      </trkpt>
      <trkpt lat="36.9680339936167" lon="-2.556191040202975">
        <ele>343.81</ele>
        <time>2025-05-12T12:36:44Z</time>
      </trkpt>
      <trkpt lat="36.968084033578634" lon="-2.556314002722502">
        <ele>343.32999999999998</ele>
        <time>2025-05-12T12:36:45Z</time>
      </trkpt>
      <trkpt lat="36.968134995549917" lon="-2.556407041847706">
        <ele>342.37</ele>
        <time>2025-05-12T12:36:46Z</time>
      </trkpt>
      <trkpt lat="36.968179000541568" lon="-2.556489016860724">
        <ele>341.88999999999999</ele>
        <time>2025-05-12T12:36:47Z</time>
      </trkpt>
      <trkpt lat="36.968253012746572" lon="-2.556461021304131">
        <ele>340.92000000000002</ele>
        <time>2025-05-12T12:36:48Z</time>
      </trkpt>
      <trkpt lat="36.968328030779958" lon="-2.556433025747538">
        <ele>339.95999999999998</ele>
        <time>2025-05-12T12:36:49Z</time>
      </trkpt>
      <trkpt lat="36.968373963609338" lon="-2.556366976350546">
        <ele>339</ele>
        <time>2025-05-12T12:36:50Z</time>
      </trkpt>
      <trkpt lat="36.968418974429369" lon="-2.556253988295794">
        <ele>338.04000000000002</ele>
        <time>2025-05-12T12:36:51Z</time>
      </trkpt>
      <trkpt lat="36.968470020219684" lon="-2.556127002462745">
        <ele>337.07999999999998</ele>
        <time>2025-05-12T12:36:52Z</time>
      </trkpt>
      <trkpt lat="36.968564987182617" lon="-2.555888034403324">
        <ele>334.68000000000001</ele>
        <time>2025-05-12T12:36:54Z</time>
      </trkpt>
      <trkpt lat="36.968546966090798" lon="-2.555745961144567">
        <ele>333.70999999999998</ele>
        <time>2025-05-12T12:36:55Z</time>
      </trkpt>
      <trkpt lat="36.968529028818011" lon="-2.555605983361602">
        <ele>332.26999999999998</ele>
        <time>2025-05-12T12:36:56Z</time>
      </trkpt>
      <trkpt lat="36.968511007726192" lon="-2.555467011407018">
        <ele>331.31</ele>
        <time>2025-05-12T12:36:57Z</time>
      </trkpt>
      <trkpt lat="36.968516958877444" lon="-2.55532200448215">
        <ele>330.35000000000002</ele>
        <time>2025-05-12T12:36:58Z</time>
      </trkpt>
      <trkpt lat="36.968545960262418" lon="-2.555196024477482">
        <ele>329.38999999999999</ele>
        <time>2025-05-12T12:36:59Z</time>
      </trkpt>
      <trkpt lat="36.968574961647391" lon="-2.555069960653782">
        <ele>328.43000000000001</ele>
        <time>2025-05-12T12:37:00Z</time>
      </trkpt>
      <trkpt lat="36.968602035194635" lon="-2.554949009791017">
        <ele>327.47000000000003</ele>
        <time>2025-05-12T12:37:01Z</time>
      </trkpt>
      <trkpt lat="36.968590971082449" lon="-2.554834010079503">
        <ele>326.5</ele>
        <time>2025-05-12T12:37:02Z</time>
      </trkpt>
      <trkpt lat="36.968531040474772" lon="-2.554765027016401">
        <ele>325.54000000000002</ele>
        <time>2025-05-12T12:37:03Z</time>
      </trkpt>
      <trkpt lat="36.968450993299484" lon="-2.554694032296538">
        <ele>324.57999999999998</ele>
        <time>2025-05-12T12:37:04Z</time>
      </trkpt>
      <trkpt lat="36.968368012458086" lon="-2.554621025919914">
        <ele>323.62</ele>
        <time>2025-05-12T12:37:05Z</time>
      </trkpt>
      <trkpt lat="36.968221999704838" lon="-2.554491022601724">
        <ele>321.69999999999999</ele>
        <time>2025-05-12T12:37:07Z</time>
      </trkpt>
      <trkpt lat="36.968158967792988" lon="-2.554416004568338">
        <ele>320.74000000000001</ele>
        <time>2025-05-12T12:37:08Z</time>
      </trkpt>
      <trkpt lat="36.968104988336563" lon="-2.554345009848476">
        <ele>319.77999999999997</ele>
        <time>2025-05-12T12:37:09Z</time>
      </trkpt>
      <trkpt lat="36.968008009716868" lon="-2.554214000701904">
        <ele>318.32999999999998</ele>
        <time>2025-05-12T12:37:11Z</time>
      </trkpt>
      <trkpt lat="36.968016978353262" lon="-2.554144011810422">
        <ele>317.85000000000002</ele>
        <time>2025-05-12T12:37:12Z</time>
      </trkpt>
      <trkpt lat="36.968022007495165" lon="-2.554029012098908">
        <ele>317.37</ele>
        <time>2025-05-12T12:37:13Z</time>
      </trkpt>
      <trkpt lat="36.968002980574965" lon="-2.553933961316943">
        <ele>317.37</ele>
        <time>2025-05-12T12:37:14Z</time>
      </trkpt>
      <trkpt lat="36.96798998862505" lon="-2.553827008232474">
        <ele>317.37</ele>
        <time>2025-05-12T12:37:15Z</time>
      </trkpt>
      <trkpt lat="36.968013038858771" lon="-2.553698010742664">
        <ele>317.37</ele>
        <time>2025-05-12T12:37:16Z</time>
      </trkpt>
      <trkpt lat="36.968034999445081" lon="-2.553572030737996">
        <ele>317.37</ele>
        <time>2025-05-12T12:37:17Z</time>
      </trkpt>
      <trkpt lat="36.968064000830054" lon="-2.553463988006115">
        <ele>317.85000000000002</ele>
        <time>2025-05-12T12:37:18Z</time>
      </trkpt>
      <trkpt lat="36.968125021085143" lon="-2.553372960537672">
        <ele>317.85000000000002</ele>
        <time>2025-05-12T12:37:19Z</time>
      </trkpt>
      <trkpt lat="36.968223005533218" lon="-2.553327027708292">
        <ele>317.85000000000002</ele>
        <time>2025-05-12T12:37:20Z</time>
      </trkpt>
      <trkpt lat="36.968335993587971" lon="-2.553332978859544">
        <ele>318.32999999999998</ele>
        <time>2025-05-12T12:37:21Z</time>
      </trkpt>
      <trkpt lat="36.968450993299484" lon="-2.55336600355804">
        <ele>318.32999999999998</ele>
        <time>2025-05-12T12:37:22Z</time>
      </trkpt>
      <trkpt lat="36.968560041859746" lon="-2.553397016599774">
        <ele>318.32999999999998</ele>
        <time>2025-05-12T12:37:23Z</time>
      </trkpt>
      <trkpt lat="36.968646040186286" lon="-2.553344964981079">
        <ele>317.85000000000002</ele>
        <time>2025-05-12T12:37:24Z</time>
      </trkpt>
      <trkpt lat="36.968700019642711" lon="-2.553287968039513">
        <ele>317.85000000000002</ele>
        <time>2025-05-12T12:37:25Z</time>
      </trkpt>
      <trkpt lat="36.968726003542542" lon="-2.553185960277915">
        <ele>317.37</ele>
        <time>2025-05-12T12:37:26Z</time>
      </trkpt>
      <trkpt lat="36.968758022412658" lon="-2.553054029121995">
        <ele>316.88999999999999</ele>
        <time>2025-05-12T12:37:27Z</time>
      </trkpt>
      <trkpt lat="36.968744024634361" lon="-2.552913967519999">
        <ele>316.41000000000003</ele>
        <time>2025-05-12T12:37:28Z</time>
      </trkpt>
      <trkpt lat="36.968671018257737" lon="-2.552750017493963">
        <ele>315.93000000000001</ele>
        <time>2025-05-12T12:37:29Z</time>
      </trkpt>
      <trkpt lat="36.968577979132533" lon="-2.552623031660914">
        <ele>314.97000000000003</ele>
        <time>2025-05-12T12:37:30Z</time>
      </trkpt>
      <trkpt lat="36.96848401799798" lon="-2.552495039999485">
        <ele>314.49000000000001</ele>
        <time>2025-05-12T12:37:31Z</time>
      </trkpt>
      <trkpt lat="36.968384021893144" lon="-2.55235699005425">
        <ele>313.52999999999997</ele>
        <time>2025-05-12T12:37:32Z</time>
      </trkpt>
      <trkpt lat="36.968281008303165" lon="-2.552212988957763">
        <ele>313.05000000000001</ele>
        <time>2025-05-12T12:37:33Z</time>
      </trkpt>
      <trkpt lat="36.968185035511851" lon="-2.552080973982811">
        <ele>312.56999999999999</ele>
        <time>2025-05-12T12:37:34Z</time>
      </trkpt>
      <trkpt lat="36.968114962801337" lon="-2.551981983706355">
        <ele>312.08999999999997</ele>
        <time>2025-05-12T12:37:35Z</time>
      </trkpt>
      <trkpt lat="36.968080010265112" lon="-2.551830019801855">
        <ele>311.60000000000002</ele>
        <time>2025-05-12T12:37:36Z</time>
      </trkpt>
      <trkpt lat="36.968050003051758" lon="-2.551703033968806">
        <ele>311.60000000000002</ele>
        <time>2025-05-12T12:37:37Z</time>
      </trkpt>
      <trkpt lat="36.968066012486815" lon="-2.551592979580164">
        <ele>311.60000000000002</ele>
        <time>2025-05-12T12:37:38Z</time>
      </trkpt>
      <trkpt lat="36.968128960579634" lon="-2.551496000960469">
        <ele>311.60000000000002</ele>
        <time>2025-05-12T12:37:39Z</time>
      </trkpt>
      <trkpt lat="36.968224011361599" lon="-2.551421988755465">
        <ele>311.12</ele>
        <time>2025-05-12T12:37:40Z</time>
      </trkpt>
      <trkpt lat="36.968340016901493" lon="-2.551406985148788">
        <ele>311.12</ele>
        <time>2025-05-12T12:37:41Z</time>
      </trkpt>
      <trkpt lat="36.96846297942102" lon="-2.55139198154211">
        <ele>311.12</ele>
        <time>2025-05-12T12:37:42Z</time>
      </trkpt>
      <trkpt lat="36.96859298273921" lon="-2.551375972107053">
        <ele>311.12</ele>
        <time>2025-05-12T12:37:43Z</time>
      </trkpt>
      <trkpt lat="36.968716029077768" lon="-2.551359962671995">
        <ele>311.12</ele>
        <time>2025-05-12T12:37:44Z</time>
      </trkpt>
      <trkpt lat="36.968818036839366" lon="-2.551299026235938">
        <ele>310.63999999999999</ele>
        <time>2025-05-12T12:37:45Z</time>
      </trkpt>
      <trkpt lat="36.968874027952552" lon="-2.551214033737779">
        <ele>310.16000000000003</ele>
        <time>2025-05-12T12:37:46Z</time>
      </trkpt>
      <trkpt lat="36.96893597021699" lon="-2.551100039854646">
        <ele>309.68000000000001</ele>
        <time>2025-05-12T12:37:47Z</time>
      </trkpt>
      <trkpt lat="36.968976035714149" lon="-2.550939023494721">
        <ele>309.68000000000001</ele>
        <time>2025-05-12T12:37:48Z</time>
      </trkpt>
      <trkpt lat="36.969072008505464" lon="-2.550404006615281">
        <ele>308.24000000000001</ele>
        <time>2025-05-12T12:37:51Z</time>
      </trkpt>
      <trkpt lat="36.969102015718818" lon="-2.550200996920466">
        <ele>307.75999999999999</ele>
        <time>2025-05-12T12:37:52Z</time>
      </trkpt>
      <trkpt lat="36.969088017940521" lon="-2.550024976953864">
        <ele>307.27999999999997</ele>
        <time>2025-05-12T12:37:53Z</time>
      </trkpt>
      <trkpt lat="36.968985004350543" lon="-2.549273036420345">
        <ele>306.31999999999999</ele>
        <time>2025-05-12T12:37:57Z</time>
      </trkpt>
      <trkpt lat="36.9688939768821" lon="-2.549113025888801">
        <ele>306.31999999999999</ele>
        <time>2025-05-12T12:37:58Z</time>
      </trkpt>
      <trkpt lat="36.968779982998967" lon="-2.548914039507508">
        <ele>305.83999999999997</ele>
        <time>2025-05-12T12:37:59Z</time>
      </trkpt>
      <trkpt lat="36.967985965311527" lon="-2.547863032668829">
        <ele>306.31999999999999</ele>
        <time>2025-05-12T12:38:06Z</time>
      </trkpt>
      <trkpt lat="36.967914970591664" lon="-2.547685001045466">
        <ele>306.80000000000001</ele>
        <time>2025-05-12T12:38:07Z</time>
      </trkpt>
      <trkpt lat="36.967197982594371" lon="-2.545626992359757">
        <ele>307.75999999999999</ele>
        <time>2025-05-12T12:38:17Z</time>
      </trkpt>
      <trkpt lat="36.966772014275193" lon="-2.544444976374507">
        <ele>307.27999999999997</ele>
        <time>2025-05-12T12:38:23Z</time>
      </trkpt>
      <trkpt lat="36.96667998097837" lon="-2.544289994984865">
        <ele>307.27999999999997</ele>
        <time>2025-05-12T12:38:24Z</time>
      </trkpt>
      <trkpt lat="36.966547966003418" lon="-2.54412897862494">
        <ele>307.27999999999997</ele>
        <time>2025-05-12T12:38:25Z</time>
      </trkpt>
      <trkpt lat="36.96562796831131" lon="-2.542911004275084">
        <ele>310.16000000000003</ele>
        <time>2025-05-12T12:38:33Z</time>
      </trkpt>
      <trkpt lat="36.965560996904969" lon="-2.542744958773255">
        <ele>311.12</ele>
        <time>2025-05-12T12:38:34Z</time>
      </trkpt>
      <trkpt lat="36.965560996904969" lon="-2.542571034282446">
        <ele>312.08999999999997</ele>
        <time>2025-05-12T12:38:35Z</time>
      </trkpt>
      <trkpt lat="36.965591004118323" lon="-2.541651958599687">
        <ele>315.44999999999999</ele>
        <time>2025-05-12T12:38:40Z</time>
      </trkpt>
      <trkpt lat="36.965569965541363" lon="-2.541469987481833">
        <ele>315.93000000000001</ele>
        <time>2025-05-12T12:38:41Z</time>
      </trkpt>
      <trkpt lat="36.965522021055222" lon="-2.541281981393695">
        <ele>316.41000000000003</ele>
        <time>2025-05-12T12:38:42Z</time>
      </trkpt>
      <trkpt lat="36.965439962223172" lon="-2.54111803136766">
        <ele>316.88999999999999</ele>
        <time>2025-05-12T12:38:43Z</time>
      </trkpt>
      <trkpt lat="36.965356981381774" lon="-2.540952991694212">
        <ele>316.88999999999999</ele>
        <time>2025-05-12T12:38:44Z</time>
      </trkpt>
      <trkpt lat="36.965239970013499" lon="-2.540823994204402">
        <ele>316.88999999999999</ele>
        <time>2025-05-12T12:38:45Z</time>
      </trkpt>
      <trkpt lat="36.965102003887296" lon="-2.540718968957663">
        <ele>316.88999999999999</ele>
        <time>2025-05-12T12:38:46Z</time>
      </trkpt>
      <trkpt lat="36.964959008619189" lon="-2.540610004216433">
        <ele>316.88999999999999</ele>
        <time>2025-05-12T12:38:47Z</time>
      </trkpt>
      <trkpt lat="36.964685004204512" lon="-2.540377993136644">
        <ele>317.37</ele>
        <time>2025-05-12T12:38:49Z</time>
      </trkpt>
      <trkpt lat="36.964586013928056" lon="-2.540224017575383">
        <ele>317.37</ele>
        <time>2025-05-12T12:38:50Z</time>
      </trkpt>
      <trkpt lat="36.964489035308361" lon="-2.540055960416794">
        <ele>317.37</ele>
        <time>2025-05-12T12:38:51Z</time>
      </trkpt>
      <trkpt lat="36.963364016264677" lon="-2.537957970052958">
        <ele>314.97000000000003</ele>
        <time>2025-05-12T12:39:03Z</time>
      </trkpt>
      <trkpt lat="36.962878033518791" lon="-2.536980975419283">
        <ele>314.97000000000003</ele>
        <time>2025-05-12T12:39:11Z</time>
      </trkpt>
      <trkpt lat="36.962851965799928" lon="-2.536856001242995">
        <ele>314.49000000000001</ele>
        <time>2025-05-12T12:39:12Z</time>
      </trkpt>
      <trkpt lat="36.962836040183902" lon="-2.536682998761535">
        <ele>314.49000000000001</ele>
        <time>2025-05-12T12:39:13Z</time>
      </trkpt>
      <trkpt lat="36.962874010205269" lon="-2.536547966301441">
        <ele>314.00999999999999</ele>
        <time>2025-05-12T12:39:14Z</time>
      </trkpt>
      <trkpt lat="36.962920026853681" lon="-2.536380998790264">
        <ele>314.00999999999999</ele>
        <time>2025-05-12T12:39:15Z</time>
      </trkpt>
      <trkpt lat="36.962978029623628" lon="-2.536211013793945">
        <ele>313.52999999999997</ele>
        <time>2025-05-12T12:39:16Z</time>
      </trkpt>
      <trkpt lat="36.963064027950168" lon="-2.535865008831024">
        <ele>313.05000000000001</ele>
        <time>2025-05-12T12:39:18Z</time>
      </trkpt>
      <trkpt lat="36.963152037933469" lon="-2.53555404022336">
        <ele>312.56999999999999</ele>
        <time>2025-05-12T12:39:20Z</time>
      </trkpt>
      <trkpt lat="36.963200988247991" lon="-2.535396041348577">
        <ele>312.08999999999997</ele>
        <time>2025-05-12T12:39:21Z</time>
      </trkpt>
      <trkpt lat="36.963417995721102" lon="-2.534951968118548">
        <ele>311.12</ele>
        <time>2025-05-12T12:39:24Z</time>
      </trkpt>
      <trkpt lat="36.963446997106075" lon="-2.534789023920894">
        <ele>310.63999999999999</ele>
        <time>2025-05-12T12:39:25Z</time>
      </trkpt>
      <trkpt lat="36.963477004319429" lon="-2.534624990075827">
        <ele>310.16000000000003</ele>
        <time>2025-05-12T12:39:26Z</time>
      </trkpt>
      <trkpt lat="36.963504999876022" lon="-2.534463973715901">
        <ele>309.19999999999999</ele>
        <time>2025-05-12T12:39:27Z</time>
      </trkpt>
      <trkpt lat="36.963514974340796" lon="-2.534302035346627">
        <ele>308.24000000000001</ele>
        <time>2025-05-12T12:39:28Z</time>
      </trkpt>
      <trkpt lat="36.963494019582868" lon="-2.534142024815083">
        <ele>307.27999999999997</ele>
        <time>2025-05-12T12:39:29Z</time>
      </trkpt>
      <trkpt lat="36.963471975177526" lon="-2.533975979313254">
        <ele>306.31999999999999</ele>
        <time>2025-05-12T12:39:30Z</time>
      </trkpt>
      <trkpt lat="36.963427970185876" lon="-2.533805994316936">
        <ele>305.36000000000001</ele>
        <time>2025-05-12T12:39:31Z</time>
      </trkpt>
      <trkpt lat="36.963355969637632" lon="-2.533650007098913">
        <ele>304.38999999999999</ele>
        <time>2025-05-12T12:39:32Z</time>
      </trkpt>
      <trkpt lat="36.963269971311092" lon="-2.533500976860523">
        <ele>303.43000000000001</ele>
        <time>2025-05-12T12:39:33Z</time>
      </trkpt>
      <trkpt lat="36.963181961327791" lon="-2.533365022391081">
        <ele>301.99000000000001</ele>
        <time>2025-05-12T12:39:34Z</time>
      </trkpt>
      <trkpt lat="36.963093029335141" lon="-2.533227978274226">
        <ele>301.02999999999997</ele>
        <time>2025-05-12T12:39:35Z</time>
      </trkpt>
      <trkpt lat="36.962985992431641" lon="-2.533101998269558">
        <ele>300.06999999999999</ele>
        <time>2025-05-12T12:39:36Z</time>
      </trkpt>
      <trkpt lat="36.962877027690411" lon="-2.53297601826489">
        <ele>299.11000000000001</ele>
        <time>2025-05-12T12:39:37Z</time>
      </trkpt>
      <trkpt lat="36.962429014965892" lon="-2.532628001645207">
        <ele>295.74000000000001</ele>
        <time>2025-05-12T12:39:41Z</time>
      </trkpt>
      <trkpt lat="36.96236003190279" lon="-2.53259296528995">
        <ele>295.25999999999999</ele>
        <time>2025-05-12T12:39:42Z</time>
      </trkpt>
      <trkpt lat="36.962306974455714" lon="-2.532566981390119">
        <ele>294.77999999999997</ele>
        <time>2025-05-12T12:39:43Z</time>
      </trkpt>
      <trkpt lat="36.96227596141398" lon="-2.532466985285282">
        <ele>294.77999999999997</ele>
        <time>2025-05-12T12:39:44Z</time>
      </trkpt>
      <trkpt lat="36.96229699999094" lon="-2.532389033585787">
        <ele>294.77999999999997</ele>
        <time>2025-05-12T12:39:45Z</time>
      </trkpt>
      <trkpt lat="36.962320972234011" lon="-2.532292976975441">
        <ele>294.30000000000001</ele>
        <time>2025-05-12T12:39:46Z</time>
      </trkpt>
      <trkpt lat="36.962351985275745" lon="-2.532174959778786">
        <ele>293.81999999999999</ele>
        <time>2025-05-12T12:39:47Z</time>
      </trkpt>
      <trkpt lat="36.962625989690423" lon="-2.531122025102377">
        <ele>287.08999999999997</ele>
        <time>2025-05-12T12:39:53Z</time>
      </trkpt>
      <trkpt lat="36.962678963318467" lon="-2.530918009579182">
        <ele>286.13</ele>
        <time>2025-05-12T12:39:54Z</time>
      </trkpt>
      <trkpt lat="36.962700001895428" lon="-2.530710976570845">
        <ele>284.69</ele>
        <time>2025-05-12T12:39:55Z</time>
      </trkpt>
      <trkpt lat="36.962716011330485" lon="-2.530508972704411">
        <ele>283.25</ele>
        <time>2025-05-12T12:39:56Z</time>
      </trkpt>
      <trkpt lat="36.962724979966879" lon="-2.530308980494738">
        <ele>282.27999999999997</ele>
        <time>2025-05-12T12:39:57Z</time>
      </trkpt>
      <trkpt lat="36.962708970531821" lon="-2.530106976628304">
        <ele>281.80000000000001</ele>
        <time>2025-05-12T12:39:58Z</time>
      </trkpt>
      <trkpt lat="36.962692961096764" lon="-2.529903966933489">
        <ele>280.83999999999997</ele>
        <time>2025-05-12T12:39:59Z</time>
      </trkpt>
      <trkpt lat="36.962664965540171" lon="-2.529491996392608">
        <ele>279.39999999999998</ele>
        <time>2025-05-12T12:40:01Z</time>
      </trkpt>
      <trkpt lat="36.962688015773892" lon="-2.529294015839696">
        <ele>278.92000000000002</ele>
        <time>2025-05-12T12:40:02Z</time>
      </trkpt>
      <trkpt lat="36.962700001895428" lon="-2.529097963124514">
        <ele>278.44</ele>
        <time>2025-05-12T12:40:03Z</time>
      </trkpt>
      <trkpt lat="36.962710982188582" lon="-2.528901994228363">
        <ele>277.95999999999998</ele>
        <time>2025-05-12T12:40:04Z</time>
      </trkpt>
      <trkpt lat="36.962722968310118" lon="-2.528709964826703">
        <ele>277.48000000000002</ele>
        <time>2025-05-12T12:40:05Z</time>
      </trkpt>
      <trkpt lat="36.962724979966879" lon="-2.528516007587314">
        <ele>277</ele>
        <time>2025-05-12T12:40:06Z</time>
      </trkpt>
      <trkpt lat="36.962702013552189" lon="-2.527740010991693">
        <ele>274.58999999999997</ele>
        <time>2025-05-12T12:40:10Z</time>
      </trkpt>
      <trkpt lat="36.962664965540171" lon="-2.52756399102509">
        <ele>273.63</ele>
        <time>2025-05-12T12:40:11Z</time>
      </trkpt>
      <trkpt lat="36.962561029940844" lon="-2.527408003807068">
        <ele>272.67000000000002</ele>
        <time>2025-05-12T12:40:12Z</time>
      </trkpt>
      <trkpt lat="36.962459022179246" lon="-2.527255034074187">
        <ele>271.70999999999998</ele>
        <time>2025-05-12T12:40:13Z</time>
      </trkpt>
      <trkpt lat="36.962355002760887" lon="-2.527099968865514">
        <ele>270.75</ele>
        <time>2025-05-12T12:40:14Z</time>
      </trkpt>
      <trkpt lat="36.962171019986272" lon="-2.526784976944327">
        <ele>268.82999999999998</ele>
        <time>2025-05-12T12:40:16Z</time>
      </trkpt>
      <trkpt lat="36.962094996124506" lon="-2.526623038575053">
        <ele>268.35000000000002</ele>
        <time>2025-05-12T12:40:17Z</time>
      </trkpt>
      <trkpt lat="36.962033975869417" lon="-2.526431009173393">
        <ele>267.38</ele>
        <time>2025-05-12T12:40:18Z</time>
      </trkpt>
      <trkpt lat="36.962013021111488" lon="-2.526221964508295">
        <ele>266.89999999999998</ele>
        <time>2025-05-12T12:40:19Z</time>
      </trkpt>
      <trkpt lat="36.961990976706147" lon="-2.526004035025835">
        <ele>265.94</ele>
        <time>2025-05-12T12:40:20Z</time>
      </trkpt>
      <trkpt lat="36.961870025843382" lon="-2.525131981819868">
        <ele>262.57999999999998</ele>
        <time>2025-05-12T12:40:24Z</time>
      </trkpt>
      <trkpt lat="36.961809005588293" lon="-2.524937018752098">
        <ele>261.62</ele>
        <time>2025-05-12T12:40:25Z</time>
      </trkpt>
      <trkpt lat="36.961762988939881" lon="-2.524796035140753">
        <ele>261.13999999999999</ele>
        <time>2025-05-12T12:40:26Z</time>
      </trkpt>
      <trkpt lat="36.961762988939881" lon="-2.524575004354119">
        <ele>260.17000000000002</ele>
        <time>2025-05-12T12:40:27Z</time>
      </trkpt>
      <trkpt lat="36.961762988939881" lon="-2.524408036842942">
        <ele>259.69</ele>
        <time>2025-05-12T12:40:28Z</time>
      </trkpt>
      <trkpt lat="36.961762988939881" lon="-2.524234028533101">
        <ele>259.20999999999998</ele>
        <time>2025-05-12T12:40:29Z</time>
      </trkpt>
      <trkpt lat="36.961730970069766" lon="-2.524062031880021">
        <ele>258.25</ele>
        <time>2025-05-12T12:40:30Z</time>
      </trkpt>
      <trkpt lat="36.961656035855412" lon="-2.523903027176857">
        <ele>257.29000000000002</ele>
        <time>2025-05-12T12:40:31Z</time>
      </trkpt>
      <trkpt lat="36.961581017822027" lon="-2.523743016645312">
        <ele>256.32999999999998</ele>
        <time>2025-05-12T12:40:32Z</time>
      </trkpt>
      <trkpt lat="36.961510023102164" lon="-2.523590968921781">
        <ele>255.37</ele>
        <time>2025-05-12T12:40:33Z</time>
      </trkpt>
      <trkpt lat="36.961313970386982" lon="-2.523175980895758">
        <ele>252.96000000000001</ele>
        <time>2025-05-12T12:40:36Z</time>
      </trkpt>
      <trkpt lat="36.961256973445415" lon="-2.523055030032992">
        <ele>252.47999999999999</ele>
        <time>2025-05-12T12:40:37Z</time>
      </trkpt>
      <trkpt lat="36.961277006193995" lon="-2.522935001179576">
        <ele>251.52000000000001</ele>
        <time>2025-05-12T12:40:38Z</time>
      </trkpt>
      <trkpt lat="36.961315982043743" lon="-2.522794017568231">
        <ele>250.56</ele>
        <time>2025-05-12T12:40:39Z</time>
      </trkpt>
      <trkpt lat="36.961358981207013" lon="-2.522639958187938">
        <ele>250.08000000000001</ele>
        <time>2025-05-12T12:40:40Z</time>
      </trkpt>
      <trkpt lat="36.961641032248735" lon="-2.521958006545901">
        <ele>246.72</ele>
        <time>2025-05-12T12:40:44Z</time>
      </trkpt>
      <trkpt lat="36.961892992258072" lon="-2.521449979394674">
        <ele>243.83000000000001</ele>
        <time>2025-05-12T12:40:47Z</time>
      </trkpt>
      <trkpt lat="36.961950995028019" lon="-2.521278988569975">
        <ele>242.87</ele>
        <time>2025-05-12T12:40:48Z</time>
      </trkpt>
      <trkpt lat="36.962007991969585" lon="-2.521113026887178">
        <ele>241.91</ele>
        <time>2025-05-12T12:40:49Z</time>
      </trkpt>
      <trkpt lat="36.962067000567913" lon="-2.520941030234098">
        <ele>240.94999999999999</ele>
        <time>2025-05-12T12:40:50Z</time>
      </trkpt>
      <trkpt lat="36.96210497058928" lon="-2.520768027752638">
        <ele>239.99000000000001</ele>
        <time>2025-05-12T12:40:51Z</time>
      </trkpt>
      <trkpt lat="36.962097007781267" lon="-2.520574992522597">
        <ele>239.50999999999999</ele>
        <time>2025-05-12T12:40:52Z</time>
      </trkpt>
      <trkpt lat="36.962089966982603" lon="-2.520377011969686">
        <ele>239.02000000000001</ele>
        <time>2025-05-12T12:40:53Z</time>
      </trkpt>
      <trkpt lat="36.962063983082771" lon="-2.520180037245154">
        <ele>238.06</ele>
        <time>2025-05-12T12:40:54Z</time>
      </trkpt>
      <trkpt lat="36.962003968656063" lon="-2.519983984529972">
        <ele>237.09999999999999</ele>
        <time>2025-05-12T12:40:55Z</time>
      </trkpt>
      <trkpt lat="36.961944038048387" lon="-2.519791033118963">
        <ele>236.13999999999999</ele>
        <time>2025-05-12T12:40:56Z</time>
      </trkpt>
      <trkpt lat="36.96175703778863" lon="-2.519271019846201">
        <ele>234.22</ele>
        <time>2025-05-12T12:40:59Z</time>
      </trkpt>
      <trkpt lat="36.961679002270103" lon="-2.519145961850882">
        <ele>233.74000000000001</ele>
        <time>2025-05-12T12:41:00Z</time>
      </trkpt>
      <trkpt lat="36.961585963144898" lon="-2.519084019586444">
        <ele>233.25999999999999</ele>
        <time>2025-05-12T12:41:01Z</time>
      </trkpt>
      <trkpt lat="36.961484961211681" lon="-2.519057029858232">
        <ele>233.25999999999999</ele>
        <time>2025-05-12T12:41:02Z</time>
      </trkpt>
      <trkpt lat="36.961377002298832" lon="-2.519087959080935">
        <ele>232.30000000000001</ele>
        <time>2025-05-12T12:41:03Z</time>
      </trkpt>
      <trkpt lat="36.961283963173628" lon="-2.5191639829427">
        <ele>232.30000000000001</ele>
        <time>2025-05-12T12:41:04Z</time>
      </trkpt>
      <trkpt lat="36.961187990382314" lon="-2.519243024289608">
        <ele>231.81</ele>
        <time>2025-05-12T12:41:05Z</time>
      </trkpt>
      <trkpt lat="36.960918009281158" lon="-2.519456008449197">
        <ele>231.33000000000001</ele>
        <time>2025-05-12T12:41:08Z</time>
      </trkpt>
      <trkpt lat="36.960839973762631" lon="-2.519517028704286">
        <ele>231.33000000000001</ele>
        <time>2025-05-12T12:41:09Z</time>
      </trkpt>
      <trkpt lat="36.960746012628078" lon="-2.519517028704286">
        <ele>230.84999999999999</ele>
        <time>2025-05-12T12:41:10Z</time>
      </trkpt>
      <trkpt lat="36.960647022351623" lon="-2.519508982077241">
        <ele>230.84999999999999</ele>
        <time>2025-05-12T12:41:11Z</time>
      </trkpt>
      <trkpt lat="36.960546020418406" lon="-2.519473023712635">
        <ele>230.37</ele>
        <time>2025-05-12T12:41:12Z</time>
      </trkpt>
      <trkpt lat="36.960440995171666" lon="-2.519435975700617">
        <ele>230.37</ele>
        <time>2025-05-12T12:41:13Z</time>
      </trkpt>
      <trkpt lat="36.960244020447135" lon="-2.519337991252542">
        <ele>230.37</ele>
        <time>2025-05-12T12:41:15Z</time>
      </trkpt>
      <trkpt lat="36.960188029333949" lon="-2.519262973219156">
        <ele>230.37</ele>
        <time>2025-05-12T12:41:16Z</time>
      </trkpt>
      <trkpt lat="36.960132960230112" lon="-2.519151996821165">
        <ele>229.88999999999999</ele>
        <time>2025-05-12T12:41:17Z</time>
      </trkpt>
      <trkpt lat="36.960132960230112" lon="-2.519062981009483">
        <ele>230.37</ele>
        <time>2025-05-12T12:41:18Z</time>
      </trkpt>
      <trkpt lat="36.960132960230112" lon="-2.518939012661576">
        <ele>230.37</ele>
        <time>2025-05-12T12:41:19Z</time>
      </trkpt>
      <trkpt lat="36.960132960230112" lon="-2.518804986029863">
        <ele>230.84999999999999</ele>
        <time>2025-05-12T12:41:20Z</time>
      </trkpt>
      <trkpt lat="36.960132960230112" lon="-2.518057990819216">
        <ele>230.84999999999999</ele>
        <time>2025-05-12T12:41:25Z</time>
      </trkpt>
      <trkpt lat="36.960187023505569" lon="-2.517879959195852">
        <ele>230.84999999999999</ele>
        <time>2025-05-12T12:41:26Z</time>
      </trkpt>
      <trkpt lat="36.960253994911909" lon="-2.517746016383171">
        <ele>231.33000000000001</ele>
        <time>2025-05-12T12:41:27Z</time>
      </trkpt>
      <trkpt lat="36.9603649713099" lon="-2.517645014449954">
        <ele>231.33000000000001</ele>
        <time>2025-05-12T12:41:28Z</time>
      </trkpt>
      <trkpt lat="36.960483994334936" lon="-2.517536971718073">
        <ele>231.81</ele>
        <time>2025-05-12T12:41:29Z</time>
      </trkpt>
      <trkpt lat="36.96061902679503" lon="-2.517440998926759">
        <ele>232.30000000000001</ele>
        <time>2025-05-12T12:41:30Z</time>
      </trkpt>
      <trkpt lat="36.961720995604992" lon="-2.516628038138151">
        <ele>234.69999999999999</ele>
        <time>2025-05-12T12:41:37Z</time>
      </trkpt>
      <trkpt lat="36.962679969146848" lon="-2.515584994107485">
        <ele>232.30000000000001</ele>
        <time>2025-05-12T12:41:45Z</time>
      </trkpt>
      <trkpt lat="36.962797986343503" lon="-2.515453984960914">
        <ele>231.81</ele>
        <time>2025-05-12T12:41:46Z</time>
      </trkpt>
      <trkpt lat="36.962903011590242" lon="-2.515296991914511">
        <ele>231.33000000000001</ele>
        <time>2025-05-12T12:41:47Z</time>
      </trkpt>
      <trkpt lat="36.963561996817589" lon="-2.51432997174561">
        <ele>227.97</ele>
        <time>2025-05-12T12:41:53Z</time>
      </trkpt>
      <trkpt lat="36.963651012629271" lon="-2.514182031154633">
        <ele>227.00999999999999</ele>
        <time>2025-05-12T12:41:54Z</time>
      </trkpt>
      <trkpt lat="36.963695017620921" lon="-2.514022020623088">
        <ele>226.05000000000001</ele>
        <time>2025-05-12T12:41:55Z</time>
      </trkpt>
      <trkpt lat="36.963695017620921" lon="-2.513878019526601">
        <ele>225.56999999999999</ele>
        <time>2025-05-12T12:41:56Z</time>
      </trkpt>
      <trkpt lat="36.96367003954947" lon="-2.513735024258494">
        <ele>225.09</ele>
        <time>2025-05-12T12:41:57Z</time>
      </trkpt>
      <trkpt lat="36.963610025122762" lon="-2.513605020940304">
        <ele>224.61000000000001</ele>
        <time>2025-05-12T12:41:58Z</time>
      </trkpt>
      <trkpt lat="36.963530983775854" lon="-2.513480968773365">
        <ele>223.63999999999999</ele>
        <time>2025-05-12T12:41:59Z</time>
      </trkpt>
      <trkpt lat="36.963420007377863" lon="-2.513392036780715">
        <ele>223.16</ele>
        <time>2025-05-12T12:42:00Z</time>
      </trkpt>
      <trkpt lat="36.963302996009588" lon="-2.513304026797414">
        <ele>222.19999999999999</ele>
        <time>2025-05-12T12:42:01Z</time>
      </trkpt>
      <trkpt lat="36.963186990469694" lon="-2.513223979622126">
        <ele>221.72</ele>
        <time>2025-05-12T12:42:02Z</time>
      </trkpt>
      <trkpt lat="36.962969982996583" lon="-2.513097999617457">
        <ele>221.24000000000001</ele>
        <time>2025-05-12T12:42:04Z</time>
      </trkpt>
      <trkpt lat="36.962853977456689" lon="-2.513089030981064">
        <ele>221.24000000000001</ele>
        <time>2025-05-12T12:42:05Z</time>
      </trkpt>
      <trkpt lat="36.96272699162364" lon="-2.513079978525639">
        <ele>221.24000000000001</ele>
        <time>2025-05-12T12:42:06Z</time>
      </trkpt>
      <trkpt lat="36.962458016350865" lon="-2.513114009052515">
        <ele>222.19999999999999</ele>
        <time>2025-05-12T12:42:08Z</time>
      </trkpt>
      <trkpt lat="36.962345028296113" lon="-2.513099005445838">
        <ele>222.19999999999999</ele>
        <time>2025-05-12T12:42:09Z</time>
      </trkpt>
      <trkpt lat="36.962237991392612" lon="-2.513037985190749">
        <ele>222.68000000000001</ele>
        <time>2025-05-12T12:42:10Z</time>
      </trkpt>
      <trkpt lat="36.962152998894453" lon="-2.512941006571055">
        <ele>222.68000000000001</ele>
        <time>2025-05-12T12:42:11Z</time>
      </trkpt>
      <trkpt lat="36.962088039144874" lon="-2.512829024344683">
        <ele>222.68000000000001</ele>
        <time>2025-05-12T12:42:12Z</time>
      </trkpt>
      <trkpt lat="36.962044034153223" lon="-2.512699021026492">
        <ele>222.68000000000001</ele>
        <time>2025-05-12T12:42:13Z</time>
      </trkpt>
      <trkpt lat="36.962020983919501" lon="-2.512574968859553">
        <ele>222.68000000000001</ele>
        <time>2025-05-12T12:42:14Z</time>
      </trkpt>
      <trkpt lat="36.962020983919501" lon="-2.512442031875253">
        <ele>222.19999999999999</ele>
        <time>2025-05-12T12:42:15Z</time>
      </trkpt>
      <trkpt lat="36.962020983919501" lon="-2.512304987758398">
        <ele>221.72</ele>
        <time>2025-05-12T12:42:16Z</time>
      </trkpt>
      <trkpt lat="36.962002962827682" lon="-2.512161992490292">
        <ele>221.24000000000001</ele>
        <time>2025-05-12T12:42:17Z</time>
      </trkpt>
      <trkpt lat="36.961959963664412" lon="-2.512020003050566">
        <ele>220.28</ele>
        <time>2025-05-12T12:42:18Z</time>
      </trkpt>
      <trkpt lat="36.961917970329523" lon="-2.511880025267601">
        <ele>219.80000000000001</ele>
        <time>2025-05-12T12:42:19Z</time>
      </trkpt>
      <trkpt lat="36.961895003914833" lon="-2.511747004464269">
        <ele>219.31999999999999</ele>
        <time>2025-05-12T12:42:20Z</time>
      </trkpt>
      <trkpt lat="36.961905984207988" lon="-2.511603003367782">
        <ele>218.36000000000001</ele>
        <time>2025-05-12T12:42:21Z</time>
      </trkpt>
      <trkpt lat="36.961934985592961" lon="-2.511464031413198">
        <ele>217.40000000000001</ele>
        <time>2025-05-12T12:42:22Z</time>
      </trkpt>
      <trkpt lat="36.962025007233024" lon="-2.511347020044923">
        <ele>216.43000000000001</ele>
        <time>2025-05-12T12:42:23Z</time>
      </trkpt>
      <trkpt lat="36.962115028873086" lon="-2.511227997019887">
        <ele>214.99000000000001</ele>
        <time>2025-05-12T12:42:24Z</time>
      </trkpt>
      <trkpt lat="36.962191974744201" lon="-2.51112699508667">
        <ele>213.55000000000001</ele>
        <time>2025-05-12T12:42:25Z</time>
      </trkpt>
      <trkpt lat="36.962309991940856" lon="-2.511101011186838">
        <ele>212.59</ele>
        <time>2025-05-12T12:42:26Z</time>
      </trkpt>
      <trkpt lat="36.962419040501118" lon="-2.511091958731413">
        <ele>211.63</ele>
        <time>2025-05-12T12:42:27Z</time>
      </trkpt>
      <trkpt lat="36.96253496222198" lon="-2.511120038107038">
        <ele>210.66999999999999</ele>
        <time>2025-05-12T12:42:28Z</time>
      </trkpt>
      <trkpt lat="36.962651973590255" lon="-2.511148033663631">
        <ele>209.69999999999999</ele>
        <time>2025-05-12T12:42:29Z</time>
      </trkpt>
      <trkpt lat="36.962777031585574" lon="-2.511177035048604">
        <ele>209.22</ele>
        <time>2025-05-12T12:42:30Z</time>
      </trkpt>
      <trkpt lat="36.962912986055017" lon="-2.511165970936418">
        <ele>208.74000000000001</ele>
        <time>2025-05-12T12:42:31Z</time>
      </trkpt>
      <trkpt lat="36.963047012686729" lon="-2.511120960116386">
        <ele>207.78</ele>
        <time>2025-05-12T12:42:32Z</time>
      </trkpt>
      <trkpt lat="36.963323028758168" lon="-2.511029010638595">
        <ele>205.86000000000001</ele>
        <time>2025-05-12T12:42:34Z</time>
      </trkpt>
      <trkpt lat="36.963460994884372" lon="-2.511019958183169">
        <ele>205.38</ele>
        <time>2025-05-12T12:42:35Z</time>
      </trkpt>
      <trkpt lat="36.963726030662656" lon="-2.511019958183169">
        <ele>203.46000000000001</ele>
        <time>2025-05-12T12:42:37Z</time>
      </trkpt>
      <trkpt lat="36.963836001232266" lon="-2.510986011475325">
        <ele>202.49000000000001</ele>
        <time>2025-05-12T12:42:38Z</time>
      </trkpt>
      <trkpt lat="36.963909007608891" lon="-2.51091199927032">
        <ele>201.53</ele>
        <time>2025-05-12T12:42:39Z</time>
      </trkpt>
      <trkpt lat="36.963942032307386" lon="-2.510788030922413">
        <ele>200.56999999999999</ele>
        <time>2025-05-12T12:42:40Z</time>
      </trkpt>
      <trkpt lat="36.963978996500373" lon="-2.510645035654306">
        <ele>199.61000000000001</ele>
        <time>2025-05-12T12:42:41Z</time>
      </trkpt>
      <trkpt lat="36.96401696652174" lon="-2.510497011244297">
        <ele>199.13</ele>
        <time>2025-05-12T12:42:42Z</time>
      </trkpt>
      <trkpt lat="36.964034987613559" lon="-2.510150000452995">
        <ele>197.21000000000001</ele>
        <time>2025-05-12T12:42:44Z</time>
      </trkpt>
      <trkpt lat="36.964018978178501" lon="-2.509971968829632">
        <ele>196.25</ele>
        <time>2025-05-12T12:42:45Z</time>
      </trkpt>
      <trkpt lat="36.963983019813895" lon="-2.509786980226636">
        <ele>195.28</ele>
        <time>2025-05-12T12:42:46Z</time>
      </trkpt>
      <trkpt lat="36.963915964588523" lon="-2.509611966088414">
        <ele>194.31999999999999</ele>
        <time>2025-05-12T12:42:47Z</time>
      </trkpt>
      <trkpt lat="36.963833989575505" lon="-2.509447010233998">
        <ele>193.84</ele>
        <time>2025-05-12T12:42:48Z</time>
      </trkpt>
      <trkpt lat="36.963737010955811" lon="-2.509281970560551">
        <ele>192.88</ele>
        <time>2025-05-12T12:42:49Z</time>
      </trkpt>
      <trkpt lat="36.963628968223929" lon="-2.509153978899121">
        <ele>191.91999999999999</ele>
        <time>2025-05-12T12:42:50Z</time>
      </trkpt>
      <trkpt lat="36.963517991825938" lon="-2.509020958095789">
        <ele>190.96000000000001</ele>
        <time>2025-05-12T12:42:51Z</time>
      </trkpt>
      <trkpt lat="36.963098980486393" lon="-2.508552996441722">
        <ele>187.59</ele>
        <time>2025-05-12T12:42:55Z</time>
      </trkpt>
      <trkpt lat="36.962977023795247" lon="-2.508465992286801">
        <ele>186.63</ele>
        <time>2025-05-12T12:42:56Z</time>
      </trkpt>
      <trkpt lat="36.962854983285069" lon="-2.5083779823035">
        <ele>186.15000000000001</ele>
        <time>2025-05-12T12:42:57Z</time>
      </trkpt>
      <trkpt lat="36.96270695887506" lon="-2.508273040875793">
        <ele>185.66999999999999</ele>
        <time>2025-05-12T12:42:58Z</time>
      </trkpt>
      <trkpt lat="36.962580978870392" lon="-2.508228030055761">
        <ele>185.66999999999999</ele>
        <time>2025-05-12T12:42:59Z</time>
      </trkpt>
      <trkpt lat="36.961973961442709" lon="-2.50801001675427">
        <ele>185.66999999999999</ele>
        <time>2025-05-12T12:43:03Z</time>
      </trkpt>
      <trkpt lat="36.961814034730196" lon="-2.507937010377646">
        <ele>186.15000000000001</ele>
        <time>2025-05-12T12:43:04Z</time>
      </trkpt>
      <trkpt lat="36.961224032565951" lon="-2.507486985996366">
        <ele>189.52000000000001</ele>
        <time>2025-05-12T12:43:08Z</time>
      </trkpt>
      <trkpt lat="36.96040696464479" lon="-2.506260965019465">
        <ele>194.80000000000001</ele>
        <time>2025-05-12T12:43:15Z</time>
      </trkpt>
      <trkpt lat="36.95956801995635" lon="-2.505069980397821">
        <ele>193.84</ele>
        <time>2025-05-12T12:43:22Z</time>
      </trkpt>
      <trkpt lat="36.959443967789412" lon="-2.504907958209515">
        <ele>193.36000000000001</ele>
        <time>2025-05-12T12:43:23Z</time>
      </trkpt>
      <trkpt lat="36.959318993613124" lon="-2.504746019840241">
        <ele>192.88</ele>
        <time>2025-05-12T12:43:24Z</time>
      </trkpt>
      <trkpt lat="36.959200976416469" lon="-2.504587015137076">
        <ele>191.91999999999999</ele>
        <time>2025-05-12T12:43:25Z</time>
      </trkpt>
      <trkpt lat="36.959098968654871" lon="-2.504395991563797">
        <ele>191.44</ele>
        <time>2025-05-12T12:43:26Z</time>
      </trkpt>
      <trkpt lat="36.958995033055544" lon="-2.504201028496027">
        <ele>190.96000000000001</ele>
        <time>2025-05-12T12:43:27Z</time>
      </trkpt>
      <trkpt lat="36.958889001980424" lon="-2.504001958295703">
        <ele>190</ele>
        <time>2025-05-12T12:43:28Z</time>
      </trkpt>
      <trkpt lat="36.95879403501749" lon="-2.503788974136114">
        <ele>189.03999999999999</ele>
        <time>2025-05-12T12:43:29Z</time>
      </trkpt>
      <trkpt lat="36.958131026476622" lon="-2.50218995846808">
        <ele>181.34999999999999</ele>
        <time>2025-05-12T12:43:36Z</time>
      </trkpt>
      <trkpt lat="36.957466006278992" lon="-2.500838963314891">
        <ele>174.13999999999999</ele>
        <time>2025-05-12T12:43:44Z</time>
      </trkpt>
      <trkpt lat="36.957439016550779" lon="-2.50077199190855">
        <ele>173.66</ele>
        <time>2025-05-12T12:43:45Z</time>
      </trkpt>
      <trkpt lat="36.957423007115722" lon="-2.500723963603377">
        <ele>173.16999999999999</ele>
        <time>2025-05-12T12:43:46Z</time>
      </trkpt>
      <trkpt lat="36.957413032650948" lon="-2.500693034380674">
        <ele>172.69</ele>
        <time>2025-05-12T12:43:47Z</time>
      </trkpt>
      <trkpt lat="36.957403980195522" lon="-2.500666966661811">
        <ele>172.21000000000001</ele>
        <time>2025-05-12T12:43:48Z</time>
      </trkpt>
      <trkpt lat="36.957368021830916" lon="-2.500560013577342">
        <ele>170.77000000000001</ele>
        <time>2025-05-12T12:43:51Z</time>
      </trkpt>
      <trkpt lat="36.957365004345775" lon="-2.500548027455807">
        <ele>170.77000000000001</ele>
        <time>2025-05-12T12:43:52Z</time>
      </trkpt>
      <trkpt lat="36.957360981032252" lon="-2.500530006363988">
        <ele>170.28999999999999</ele>
        <time>2025-05-12T12:43:53Z</time>
      </trkpt>
      <trkpt lat="36.957360981032252" lon="-2.500530006363988">
        <ele>170.28999999999999</ele>
        <time>2025-05-12T12:44:05Z</time>
      </trkpt>
      <trkpt lat="36.957360981032252" lon="-2.500530006363988">
        <ele>170.77000000000001</ele>
        <time>2025-05-12T12:44:51Z</time>
      </trkpt>
      <trkpt lat="36.957360981032252" lon="-2.500530006363988">
        <ele>170.77000000000001</ele>
        <time>2025-05-12T12:45:49Z</time>
      </trkpt>
      <trkpt lat="36.957360981032252" lon="-2.500530006363988">
        <ele>170.28999999999999</ele>
        <time>2025-05-12T12:46:51Z</time>
      </trkpt>
      <trkpt lat="36.957251010462642" lon="-2.500559007748961">
        <ele>173.66</ele>
        <time>2025-05-12T12:49:31Z</time>
      </trkpt>
      <trkpt lat="36.957189990207553" lon="-2.500604018568993">
        <ele>176.53999999999999</ele>
        <time>2025-05-12T12:50:00Z</time>
      </trkpt>
      <trkpt lat="36.957276994362473" lon="-2.500636037439108">
        <ele>176.06</ele>
        <time>2025-05-12T12:50:10Z</time>
      </trkpt>
      <trkpt lat="36.957312030717731" lon="-2.500601001083851">
        <ele>176.06</ele>
        <time>2025-05-12T12:50:11Z</time>
      </trkpt>
      <trkpt lat="36.957347989082336" lon="-2.500564958900213">
        <ele>176.06</ele>
        <time>2025-05-12T12:50:12Z</time>
      </trkpt>
      <trkpt lat="36.957331979647279" lon="-2.50038499943912">
        <ele>176.06</ele>
        <time>2025-05-12T12:50:13Z</time>
      </trkpt>
      <trkpt lat="36.957313036546111" lon="-2.500291038304567">
        <ele>175.58000000000001</ele>
        <time>2025-05-12T12:50:14Z</time>
      </trkpt>
      <trkpt lat="36.957289986312389" lon="-2.500171009451151">
        <ele>175.09999999999999</ele>
        <time>2025-05-12T12:50:15Z</time>
      </trkpt>
      <trkpt lat="36.957262996584177" lon="-2.500022985041142">
        <ele>174.62</ele>
        <time>2025-05-12T12:50:16Z</time>
      </trkpt>
      <trkpt lat="36.957181021571159" lon="-2.499679997563362">
        <ele>174.62</ele>
        <time>2025-05-12T12:50:18Z</time>
      </trkpt>
      <trkpt lat="36.956841973587871" lon="-2.498208973556757">
        <ele>171.72999999999999</ele>
        <time>2025-05-12T12:50:25Z</time>
      </trkpt>
      <trkpt lat="36.956767039373517" lon="-2.497993977740407">
        <ele>171.72999999999999</ele>
        <time>2025-05-12T12:50:26Z</time>
      </trkpt>
      <trkpt lat="36.956682968884706" lon="-2.497795997187495">
        <ele>172.21000000000001</ele>
        <time>2025-05-12T12:50:27Z</time>
      </trkpt>
      <trkpt lat="36.956164967268705" lon="-2.49671095982194">
        <ele>174.13999999999999</ele>
        <time>2025-05-12T12:50:34Z</time>
      </trkpt>
      <trkpt lat="36.955447979271412" lon="-2.495508994907141">
        <ele>171.72999999999999</ele>
        <time>2025-05-12T12:50:44Z</time>
      </trkpt>
      <trkpt lat="36.955397017300129" lon="-2.495392989367247">
        <ele>171.72999999999999</ele>
        <time>2025-05-12T12:50:45Z</time>
      </trkpt>
      <trkpt lat="36.954896030947566" lon="-2.494259001687169">
        <ele>167.41</ele>
        <time>2025-05-12T12:50:56Z</time>
      </trkpt>
      <trkpt lat="36.954789999872446" lon="-2.494004024192691">
        <ele>165.96000000000001</ele>
        <time>2025-05-12T12:50:59Z</time>
      </trkpt>
      <trkpt lat="36.95458497852087" lon="-2.493454003706574">
        <ele>165</ele>
        <time>2025-05-12T12:51:05Z</time>
      </trkpt>
      <trkpt lat="36.954470984637737" lon="-2.493176981806755">
        <ele>165.47999999999999</ele>
        <time>2025-05-12T12:51:08Z</time>
      </trkpt>
      <trkpt lat="36.954438965767622" lon="-2.49308000318706">
        <ele>165.47999999999999</ele>
        <time>2025-05-12T12:51:09Z</time>
      </trkpt>
      <trkpt lat="36.954403007403016" lon="-2.49297397211194">
        <ele>165.47999999999999</ele>
        <time>2025-05-12T12:51:10Z</time>
      </trkpt>
      <trkpt lat="36.954100001603365" lon="-2.491990020498633">
        <ele>162.12</ele>
        <time>2025-05-12T12:51:20Z</time>
      </trkpt>
      <trkpt lat="36.954071000218391" lon="-2.491893963888288">
        <ele>162.12</ele>
        <time>2025-05-12T12:51:21Z</time>
      </trkpt>
      <trkpt lat="36.954030012711883" lon="-2.491810983046889">
        <ele>162.12</ele>
        <time>2025-05-12T12:51:22Z</time>
      </trkpt>
      <trkpt lat="36.953979972749949" lon="-2.491733031347394">
        <ele>162.12</ele>
        <time>2025-05-12T12:51:23Z</time>
      </trkpt>
      <trkpt lat="36.953928004950285" lon="-2.491652984172106">
        <ele>162.12</ele>
        <time>2025-05-12T12:51:24Z</time>
      </trkpt>
      <trkpt lat="36.953771011903882" lon="-2.491373028606176">
        <ele>161.16</ele>
        <time>2025-05-12T12:51:31Z</time>
      </trkpt>
      <trkpt lat="36.953713009133935" lon="-2.491294993087649">
        <ele>160.68000000000001</ele>
        <time>2025-05-12T12:51:39Z</time>
      </trkpt>
      <trkpt lat="36.953717032447457" lon="-2.491300022229552">
        <ele>160.68000000000001</ele>
        <time>2025-05-12T12:51:40Z</time>
      </trkpt>
      <trkpt lat="36.953717032447457" lon="-2.491300022229552">
        <ele>160.19999999999999</ele>
        <time>2025-05-12T12:51:41Z</time>
      </trkpt>
      <trkpt lat="36.953663975000381" lon="-2.491226010024548">
        <ele>159.24000000000001</ele>
        <time>2025-05-12T12:51:44Z</time>
      </trkpt>
      <trkpt lat="36.953642014414072" lon="-2.491196002811194">
        <ele>158.75</ele>
        <time>2025-05-12T12:51:45Z</time>
      </trkpt>
      <trkpt lat="36.954038981348276" lon="-2.490527965128422">
        <ele>155.38999999999999</ele>
        <time>2025-05-12T12:51:51Z</time>
      </trkpt>
      <trkpt lat="36.954079968854785" lon="-2.490493012592197">
        <ele>155.38999999999999</ele>
        <time>2025-05-12T12:51:52Z</time>
      </trkpt>
      <trkpt lat="36.954141994938254" lon="-2.490439033135772">
        <ele>155.38999999999999</ele>
        <time>2025-05-12T12:51:53Z</time>
      </trkpt>
      <trkpt lat="36.954295970499516" lon="-2.490324033424258">
        <ele>154.91</ele>
        <time>2025-05-12T12:51:55Z</time>
      </trkpt>
      <trkpt lat="36.954447012394667" lon="-2.490216996520758">
        <ele>154.43000000000001</ele>
        <time>2025-05-12T12:51:57Z</time>
      </trkpt>
      <trkpt lat="36.95537799037993" lon="-2.489518029615283">
        <ele>159.72</ele>
        <time>2025-05-12T12:52:09Z</time>
      </trkpt>
      <trkpt lat="36.956403013318777" lon="-2.488778997212648">
        <ele>158.27000000000001</ele>
        <time>2025-05-12T12:52:20Z</time>
      </trkpt>
      <trkpt lat="36.956561012193561" lon="-2.488723006099463">
        <ele>156.83000000000001</ele>
        <time>2025-05-12T12:52:22Z</time>
      </trkpt>
      <trkpt lat="36.956612979993224" lon="-2.488703979179263">
        <ele>156.34999999999999</ele>
        <time>2025-05-12T12:52:23Z</time>
      </trkpt>
      <trkpt lat="36.956664025783539" lon="-2.488619992509484">
        <ele>155.87</ele>
        <time>2025-05-12T12:52:24Z</time>
      </trkpt>
      <trkpt lat="36.956678023561835" lon="-2.488596020266414">
        <ele>155.38999999999999</ele>
        <time>2025-05-12T12:52:25Z</time>
      </trkpt>
      <trkpt lat="36.956753963604569" lon="-2.488468028604984">
        <ele>154.91</ele>
        <time>2025-05-12T12:52:26Z</time>
      </trkpt>
      <trkpt lat="36.956805009394884" lon="-2.488379012793303">
        <ele>154.91</ele>
        <time>2025-05-12T12:52:27Z</time>
      </trkpt>
      <trkpt lat="36.956864017993212" lon="-2.488297037780285">
        <ele>154.43000000000001</ele>
        <time>2025-05-12T12:52:28Z</time>
      </trkpt>
      <trkpt lat="36.957120001316071" lon="-2.488005012273789">
        <ele>154.91</ele>
        <time>2025-05-12T12:52:32Z</time>
      </trkpt>
      <trkpt lat="36.957168029621243" lon="-2.487917002290487">
        <ele>154.91</ele>
        <time>2025-05-12T12:52:33Z</time>
      </trkpt>
      <trkpt lat="36.957217985764146" lon="-2.487817006185651">
        <ele>154.91</ele>
        <time>2025-05-12T12:52:34Z</time>
      </trkpt>
      <trkpt lat="36.957428036257625" lon="-2.487332029268146">
        <ele>157.31</ele>
        <time>2025-05-12T12:52:39Z</time>
      </trkpt>
      <trkpt lat="36.957428958266973" lon="-2.487242007628083">
        <ele>157.78999999999999</ele>
        <time>2025-05-12T12:52:40Z</time>
      </trkpt>
      <trkpt lat="36.957428036257625" lon="-2.487158020958304">
        <ele>158.75</ele>
        <time>2025-05-12T12:52:41Z</time>
      </trkpt>
      <trkpt lat="36.957304989919066" lon="-2.48686901293695">
        <ele>161.16</ele>
        <time>2025-05-12T12:52:44Z</time>
      </trkpt>
      <trkpt lat="36.957316976040602" lon="-2.486746972426772">
        <ele>162.12</ele>
        <time>2025-05-12T12:52:45Z</time>
      </trkpt>
      <trkpt lat="36.957332985475659" lon="-2.486644964665175">
        <ele>163.08000000000001</ele>
        <time>2025-05-12T12:52:46Z</time>
      </trkpt>
      <trkpt lat="36.957371039316058" lon="-2.486555026844144">
        <ele>163.56</ele>
        <time>2025-05-12T12:52:47Z</time>
      </trkpt>
      <trkpt lat="36.95744002237916" lon="-2.486494006589055">
        <ele>164.03999999999999</ele>
        <time>2025-05-12T12:52:48Z</time>
      </trkpt>
      <trkpt lat="36.957515040412545" lon="-2.486426029354334">
        <ele>164.52000000000001</ele>
        <time>2025-05-12T12:52:49Z</time>
      </trkpt>
      <trkpt lat="36.957902032881975" lon="-2.486152024939656">
        <ele>166.44999999999999</ele>
        <time>2025-05-12T12:52:54Z</time>
      </trkpt>
      <trkpt lat="36.958583984524012" lon="-2.485819011926651">
        <ele>167.41</ele>
        <time>2025-05-12T12:53:02Z</time>
      </trkpt>
      <trkpt lat="36.958742989227176" lon="-2.485704012215138">
        <ele>166.93000000000001</ele>
        <time>2025-05-12T12:53:04Z</time>
      </trkpt>
      <trkpt lat="36.958779031410813" lon="-2.48562203720212">
        <ele>166.44999999999999</ele>
        <time>2025-05-12T12:53:05Z</time>
      </trkpt>
      <trkpt lat="36.958800991997123" lon="-2.485536960884929">
        <ele>166.44999999999999</ele>
        <time>2025-05-12T12:53:06Z</time>
      </trkpt>
      <trkpt lat="36.9587969686836" lon="-2.485439982265234">
        <ele>165.47999999999999</ele>
        <time>2025-05-12T12:53:07Z</time>
      </trkpt>
      <trkpt lat="36.95879302918911" lon="-2.485349038615823">
        <ele>165</ele>
        <time>2025-05-12T12:53:08Z</time>
      </trkpt>
      <trkpt lat="36.958908028900623" lon="-2.484418982639909">
        <ele>162.59999999999999</ele>
        <time>2025-05-12T12:53:18Z</time>
      </trkpt>
      <trkpt lat="36.958921020850539" lon="-2.484309012070298">
        <ele>162.59999999999999</ele>
        <time>2025-05-12T12:53:19Z</time>
      </trkpt>
      <trkpt lat="36.958951028063893" lon="-2.484182026237249">
        <ele>162.59999999999999</ele>
        <time>2025-05-12T12:53:20Z</time>
      </trkpt>
      <trkpt lat="36.959240958094597" lon="-2.483425978571177">
        <ele>162.12</ele>
        <time>2025-05-12T12:53:27Z</time>
      </trkpt>
      <trkpt lat="36.959327040240169" lon="-2.483030017465353">
        <ele>162.12</ele>
        <time>2025-05-12T12:53:31Z</time>
      </trkpt>
      <trkpt lat="36.959354029968381" lon="-2.482929015532136">
        <ele>162.59999999999999</ele>
        <time>2025-05-12T12:53:32Z</time>
      </trkpt>
      <trkpt lat="36.959415972232819" lon="-2.482827007770538">
        <ele>163.08000000000001</ele>
        <time>2025-05-12T12:53:33Z</time>
      </trkpt>
      <trkpt lat="36.959497025236487" lon="-2.482784008607268">
        <ele>163.56</ele>
        <time>2025-05-12T12:53:34Z</time>
      </trkpt>
      <trkpt lat="36.959584029391408" lon="-2.482736986130476">
        <ele>164.52000000000001</ele>
        <time>2025-05-12T12:53:35Z</time>
      </trkpt>
      <trkpt lat="36.959680002182722" lon="-2.482693986967206">
        <ele>165</ele>
        <time>2025-05-12T12:53:36Z</time>
      </trkpt>
      <trkpt lat="36.959781004115939" lon="-2.482682000845671">
        <ele>165</ele>
        <time>2025-05-12T12:53:37Z</time>
      </trkpt>
      <trkpt lat="36.959882006049156" lon="-2.482650987803936">
        <ele>165.47999999999999</ele>
        <time>2025-05-12T12:53:38Z</time>
      </trkpt>
      <trkpt lat="36.959963981062174" lon="-2.482583010569215">
        <ele>165.47999999999999</ele>
        <time>2025-05-12T12:53:39Z</time>
      </trkpt>
      <trkpt lat="36.960049979388714" lon="-2.482510004192591">
        <ele>165</ele>
        <time>2025-05-12T12:53:40Z</time>
      </trkpt>
      <trkpt lat="36.960300011560321" lon="-2.482283022254705">
        <ele>164.52000000000001</ele>
        <time>2025-05-12T12:53:43Z</time>
      </trkpt>
      <trkpt lat="36.960592959076166" lon="-2.481915978714824">
        <ele>164.52000000000001</ele>
        <time>2025-05-12T12:53:47Z</time>
      </trkpt>
      <trkpt lat="36.960840979591012" lon="-2.481643985956907">
        <ele>164.52000000000001</ele>
        <time>2025-05-12T12:53:50Z</time>
      </trkpt>
      <trkpt lat="36.960898982360959" lon="-2.48154298402369">
        <ele>164.03999999999999</ele>
        <time>2025-05-12T12:53:51Z</time>
      </trkpt>
      <trkpt lat="36.960962014272809" lon="-2.481432007625699">
        <ele>163.56</ele>
        <time>2025-05-12T12:53:52Z</time>
      </trkpt>
      <trkpt lat="36.961374990642071" lon="-2.480716025456786">
        <ele>164.03999999999999</ele>
        <time>2025-05-12T12:53:58Z</time>
      </trkpt>
      <trkpt lat="36.961899027228355" lon="-2.480024015530944">
        <ele>165.96000000000001</ele>
        <time>2025-05-12T12:54:06Z</time>
      </trkpt>
      <trkpt lat="36.961968010291457" lon="-2.479936005547643">
        <ele>166.44999999999999</ele>
        <time>2025-05-12T12:54:07Z</time>
      </trkpt>
      <trkpt lat="36.962344022467732" lon="-2.479580026119947">
        <ele>169.33000000000001</ele>
        <time>2025-05-12T12:54:11Z</time>
      </trkpt>
      <trkpt lat="36.962460028007627" lon="-2.479523029178381">
        <ele>169.81</ele>
        <time>2025-05-12T12:54:12Z</time>
      </trkpt>
      <trkpt lat="36.962862024083734" lon="-2.479240978136659">
        <ele>172.69</ele>
        <time>2025-05-12T12:54:16Z</time>
      </trkpt>
      <trkpt lat="36.962942993268371" lon="-2.479139976203442">
        <ele>173.16999999999999</ele>
        <time>2025-05-12T12:54:17Z</time>
      </trkpt>
      <trkpt lat="36.963578006252646" lon="-2.478207992389798">
        <ele>176.53999999999999</ele>
        <time>2025-05-12T12:54:25Z</time>
      </trkpt>
      <trkpt lat="36.96367297321558" lon="-2.478107996284962">
        <ele>176.06</ele>
        <time>2025-05-12T12:54:26Z</time>
      </trkpt>
      <trkpt lat="36.963777998462319" lon="-2.478023003786802">
        <ele>176.53999999999999</ele>
        <time>2025-05-12T12:54:27Z</time>
      </trkpt>
      <trkpt lat="36.964915003627539" lon="-2.477368963882327">
        <ele>173.16999999999999</ele>
        <time>2025-05-12T12:54:37Z</time>
      </trkpt>
      <trkpt lat="36.96502598002553" lon="-2.47730802744627">
        <ele>172.69</ele>
        <time>2025-05-12T12:54:38Z</time>
      </trkpt>
      <trkpt lat="36.965104015544057" lon="-2.477196967229247">
        <ele>172.21000000000001</ele>
        <time>2025-05-12T12:54:39Z</time>
      </trkpt>
      <trkpt lat="36.965181967243552" lon="-2.477074004709721">
        <ele>171.25</ele>
        <time>2025-05-12T12:54:40Z</time>
      </trkpt>
      <trkpt lat="36.965227983891964" lon="-2.476936960592866">
        <ele>170.77000000000001</ele>
        <time>2025-05-12T12:54:41Z</time>
      </trkpt>
      <trkpt lat="36.965246004983783" lon="-2.476765969768167">
        <ele>169.81</ele>
        <time>2025-05-12T12:54:42Z</time>
      </trkpt>
      <trkpt lat="36.965214991942048" lon="-2.476620962843299">
        <ele>169.33000000000001</ele>
        <time>2025-05-12T12:54:43Z</time>
      </trkpt>
      <trkpt lat="36.965196970850229" lon="-2.47653697617352">
        <ele>169.33000000000001</ele>
        <time>2025-05-12T12:54:44Z</time>
      </trkpt>
      <trkpt lat="36.965078031644225" lon="-2.475617984309793">
        <ele>167.88999999999999</ele>
        <time>2025-05-12T12:54:51Z</time>
      </trkpt>
      <trkpt lat="36.964883990585804" lon="-2.474856991320849">
        <ele>165.47999999999999</ele>
        <time>2025-05-12T12:54:57Z</time>
      </trkpt>
      <trkpt lat="36.964694978669286" lon="-2.472973996773362">
        <ele>164.03999999999999</ele>
        <time>2025-05-12T12:55:07Z</time>
      </trkpt>
      <trkpt lat="36.964542008936405" lon="-2.471860963851214">
        <ele>163.08000000000001</ele>
        <time>2025-05-12T12:55:13Z</time>
      </trkpt>
      <trkpt lat="36.964490041136742" lon="-2.471688967198134">
        <ele>163.08000000000001</ele>
        <time>2025-05-12T12:55:14Z</time>
      </trkpt>
      <trkpt lat="36.964434972032905" lon="-2.471511019393802">
        <ele>162.59999999999999</ele>
        <time>2025-05-12T12:55:15Z</time>
      </trkpt>
      <trkpt lat="36.964345034211874" lon="-2.471353020519018">
        <ele>162.59999999999999</ele>
        <time>2025-05-12T12:55:16Z</time>
      </trkpt>
      <trkpt lat="36.964242020621896" lon="-2.471196027472615">
        <ele>162.12</ele>
        <time>2025-05-12T12:55:17Z</time>
      </trkpt>
      <trkpt lat="36.964134983718395" lon="-2.471034005284309">
        <ele>161.63999999999999</ele>
        <time>2025-05-12T12:55:18Z</time>
      </trkpt>
      <trkpt lat="36.963845975697041" lon="-2.470522960647941">
        <ele>160.68000000000001</ele>
        <time>2025-05-12T12:55:21Z</time>
      </trkpt>
      <trkpt lat="36.963394023478031" lon="-2.469370029866695">
        <ele>160.68000000000001</ele>
        <time>2025-05-12T12:55:27Z</time>
      </trkpt>
      <trkpt lat="36.963294027373195" lon="-2.469203984364867">
        <ele>161.16</ele>
        <time>2025-05-12T12:55:28Z</time>
      </trkpt>
      <trkpt lat="36.963172992691398" lon="-2.469072975218296">
        <ele>161.16</ele>
        <time>2025-05-12T12:55:29Z</time>
      </trkpt>
      <trkpt lat="36.963051036000252" lon="-2.468940960243344">
        <ele>161.16</ele>
        <time>2025-05-12T12:55:30Z</time>
      </trkpt>
      <trkpt lat="36.962938969954848" lon="-2.468829983845353">
        <ele>161.63999999999999</ele>
        <time>2025-05-12T12:55:31Z</time>
      </trkpt>
      <trkpt lat="36.962824976071715" lon="-2.46871498413384">
        <ele>161.63999999999999</ele>
        <time>2025-05-12T12:55:32Z</time>
      </trkpt>
      <trkpt lat="36.962709976360202" lon="-2.468600990250707">
        <ele>162.12</ele>
        <time>2025-05-12T12:55:33Z</time>
      </trkpt>
      <trkpt lat="36.961474986746907" lon="-2.467051008716226">
        <ele>162.59999999999999</ele>
        <time>2025-05-12T12:55:45Z</time>
      </trkpt>
      <trkpt lat="36.961407009512186" lon="-2.466957969591022">
        <ele>162.59999999999999</ele>
        <time>2025-05-12T12:55:46Z</time>
      </trkpt>
      <trkpt lat="36.961302990093827" lon="-2.466859985142946">
        <ele>162.59999999999999</ele>
        <time>2025-05-12T12:55:47Z</time>
      </trkpt>
      <trkpt lat="36.961143985390663" lon="-2.466829977929592">
        <ele>162.12</ele>
        <time>2025-05-12T12:55:49Z</time>
      </trkpt>
      <trkpt lat="36.961097968742251" lon="-2.466756971552968">
        <ele>162.12</ele>
        <time>2025-05-12T12:55:50Z</time>
      </trkpt>
      <trkpt lat="36.961077013984323" lon="-2.466628979891539">
        <ele>161.63999999999999</ele>
        <time>2025-05-12T12:55:51Z</time>
      </trkpt>
      <trkpt lat="36.961110038682818" lon="-2.466542981564999">
        <ele>161.63999999999999</ele>
        <time>2025-05-12T12:55:52Z</time>
      </trkpt>
      <trkpt lat="36.961120013147593" lon="-2.466516997665167">
        <ele>161.63999999999999</ele>
        <time>2025-05-12T12:55:53Z</time>
      </trkpt>
      <trkpt lat="36.961191007867455" lon="-2.466354975476861">
        <ele>161.63999999999999</ele>
        <time>2025-05-12T12:55:54Z</time>
      </trkpt>
      <trkpt lat="36.961174998432398" lon="-2.466255985200405">
        <ele>161.63999999999999</ele>
        <time>2025-05-12T12:55:55Z</time>
      </trkpt>
      <trkpt lat="36.961159994825721" lon="-2.466146014630795">
        <ele>161.63999999999999</ele>
        <time>2025-05-12T12:55:56Z</time>
      </trkpt>
      <trkpt lat="36.961149014532566" lon="-2.466035038232803">
        <ele>161.63999999999999</ele>
        <time>2025-05-12T12:55:57Z</time>
      </trkpt>
      <trkpt lat="36.961120013147593" lon="-2.465744018554688">
        <ele>162.59999999999999</ele>
        <time>2025-05-12T12:56:00Z</time>
      </trkpt>
      <trkpt lat="36.96109302341938" lon="-2.465609991922975">
        <ele>163.08000000000001</ele>
        <time>2025-05-12T12:56:01Z</time>
      </trkpt>
      <trkpt lat="36.961041977629066" lon="-2.465284019708633">
        <ele>164.52000000000001</ele>
        <time>2025-05-12T12:56:04Z</time>
      </trkpt>
      <trkpt lat="36.96098598651588" lon="-2.465200033038855">
        <ele>165</ele>
        <time>2025-05-12T12:56:05Z</time>
      </trkpt>
      <trkpt lat="36.9609210267663" lon="-2.465118980035186">
        <ele>165</ele>
        <time>2025-05-12T12:56:06Z</time>
      </trkpt>
      <trkpt lat="36.960910968482494" lon="-2.465041028335691">
        <ele>165.47999999999999</ele>
        <time>2025-05-12T12:56:07Z</time>
      </trkpt>
      <trkpt lat="36.960937958210707" lon="-2.464959975332022">
        <ele>165.96000000000001</ele>
        <time>2025-05-12T12:56:08Z</time>
      </trkpt>
      <trkpt lat="36.96098598651588" lon="-2.464912030845881">
        <ele>165.96000000000001</ele>
        <time>2025-05-12T12:56:09Z</time>
      </trkpt>
      <trkpt lat="36.961097968742251" lon="-2.464928962290287">
        <ele>166.44999999999999</ele>
        <time>2025-05-12T12:56:10Z</time>
      </trkpt>
      <trkpt lat="36.961152032017708" lon="-2.464874982833862">
        <ele>166.44999999999999</ele>
        <time>2025-05-12T12:56:11Z</time>
      </trkpt>
      <trkpt lat="36.961237024515867" lon="-2.464799964800477">
        <ele>166.44999999999999</ele>
        <time>2025-05-12T12:56:12Z</time>
      </trkpt>
      <trkpt lat="36.961344983428717" lon="-2.464808011427522">
        <ele>166.93000000000001</ele>
        <time>2025-05-12T12:56:13Z</time>
      </trkpt>
      <trkpt lat="36.961441962048411" lon="-2.464865008369088">
        <ele>167.41</ele>
        <time>2025-05-12T12:56:14Z</time>
      </trkpt>
      <trkpt lat="36.961527038365602" lon="-2.464950000867248">
        <ele>167.41</ele>
        <time>2025-05-12T12:56:15Z</time>
      </trkpt>
      <trkpt lat="36.961615970358253" lon="-2.465042034164071">
        <ele>167.41</ele>
        <time>2025-05-12T12:56:16Z</time>
      </trkpt>
      <trkpt lat="36.961818980053067" lon="-2.465258035808802">
        <ele>167.41</ele>
        <time>2025-05-12T12:56:18Z</time>
      </trkpt>
      <trkpt lat="36.961935991421342" lon="-2.46536398306489">
        <ele>167.41</ele>
        <time>2025-05-12T12:56:19Z</time>
      </trkpt>
      <trkpt lat="36.962064988911152" lon="-2.465447969734669">
        <ele>167.41</ele>
        <time>2025-05-12T12:56:20Z</time>
      </trkpt>
      <trkpt lat="36.962343016639352" lon="-2.465589037165046">
        <ele>166.44999999999999</ele>
        <time>2025-05-12T12:56:22Z</time>
      </trkpt>
      <trkpt lat="36.962495986372232" lon="-2.465648967772722">
        <ele>165.96000000000001</ele>
        <time>2025-05-12T12:56:23Z</time>
      </trkpt>
      <trkpt lat="36.962655996903777" lon="-2.465710993856192">
        <ele>165.47999999999999</ele>
        <time>2025-05-12T12:56:24Z</time>
      </trkpt>
      <trkpt lat="36.962824976071715" lon="-2.465766984969378">
        <ele>165</ele>
        <time>2025-05-12T12:56:25Z</time>
      </trkpt>
      <trkpt lat="36.963002001866698" lon="-2.465774025768042">
        <ele>164.52000000000001</ele>
        <time>2025-05-12T12:56:26Z</time>
      </trkpt>
      <trkpt lat="36.963178021833301" lon="-2.465781988576055">
        <ele>163.56</ele>
        <time>2025-05-12T12:56:27Z</time>
      </trkpt>
      <trkpt lat="36.963348006829619" lon="-2.465776959434152">
        <ele>163.56</ele>
        <time>2025-05-12T12:56:28Z</time>
      </trkpt>
      <trkpt lat="36.963512962684035" lon="-2.465736977756023">
        <ele>163.08000000000001</ele>
        <time>2025-05-12T12:56:29Z</time>
      </trkpt>
      <trkpt lat="36.964769996702671" lon="-2.465419974178076">
        <ele>163.08000000000001</ele>
        <time>2025-05-12T12:56:37Z</time>
      </trkpt>
      <trkpt lat="36.966814007610083" lon="-2.464924016967416">
        <ele>164.52000000000001</ele>
        <time>2025-05-12T12:56:50Z</time>
      </trkpt>
      <trkpt lat="36.968690967187285" lon="-2.464814968407154">
        <ele>164.52000000000001</ele>
        <time>2025-05-12T12:57:01Z</time>
      </trkpt>
      <trkpt lat="36.970553006976843" lon="-2.464724024757743">
        <ele>167.41</ele>
        <time>2025-05-12T12:57:11Z</time>
      </trkpt>
      <trkpt lat="36.972407000139356" lon="-2.464623022824526">
        <ele>171.25</ele>
        <time>2025-05-12T12:57:21Z</time>
      </trkpt>
      <trkpt lat="36.974216988310218" lon="-2.464543981477618">
        <ele>177.5</ele>
        <time>2025-05-12T12:57:31Z</time>
      </trkpt>
      <trkpt lat="36.976089002564549" lon="-2.46448396705091">
        <ele>184.71000000000001</ele>
        <time>2025-05-12T12:57:41Z</time>
      </trkpt>
      <trkpt lat="36.978575997054577" lon="-2.464357987046242">
        <ele>192.88</ele>
        <time>2025-05-12T12:57:53Z</time>
      </trkpt>
      <trkpt lat="36.980894012376666" lon="-2.464140979573131">
        <ele>199.61000000000001</ele>
        <time>2025-05-12T12:58:04Z</time>
      </trkpt>
      <trkpt lat="36.982946991920471" lon="-2.463508984073997">
        <ele>207.78</ele>
        <time>2025-05-12T12:58:15Z</time>
      </trkpt>
      <trkpt lat="36.98502603918314" lon="-2.462923005223274">
        <ele>212.11000000000001</ele>
        <time>2025-05-12T12:58:26Z</time>
      </trkpt>
      <trkpt lat="36.986690014600754" lon="-2.463001040741801">
        <ele>212.11000000000001</ele>
        <time>2025-05-12T12:58:35Z</time>
      </trkpt>
      <trkpt lat="36.988670993596315" lon="-2.463298011571169">
        <ele>212.11000000000001</ele>
        <time>2025-05-12T12:58:45Z</time>
      </trkpt>
      <trkpt lat="36.990379979833961" lon="-2.463033981621265">
        <ele>213.06999999999999</ele>
        <time>2025-05-12T12:58:53Z</time>
      </trkpt>
      <trkpt lat="36.99194798246026" lon="-2.462754026055336">
        <ele>214.99000000000001</ele>
        <time>2025-05-12T12:59:01Z</time>
      </trkpt>
      <trkpt lat="36.992146968841553" lon="-2.462718989700079">
        <ele>215.47</ele>
        <time>2025-05-12T12:59:02Z</time>
      </trkpt>
      <trkpt lat="36.992328017950058" lon="-2.46278403326869">
        <ele>215.94999999999999</ele>
        <time>2025-05-12T12:59:03Z</time>
      </trkpt>
      <trkpt lat="36.992500014603138" lon="-2.462901966646314">
        <ele>216.43000000000001</ele>
        <time>2025-05-12T12:59:04Z</time>
      </trkpt>
      <trkpt lat="36.992640998214483" lon="-2.463018978014588">
        <ele>216.91</ele>
        <time>2025-05-12T12:59:05Z</time>
      </trkpt>
      <trkpt lat="36.992791034281254" lon="-2.463204972445965">
        <ele>217.40000000000001</ele>
        <time>2025-05-12T12:59:06Z</time>
      </trkpt>
      <trkpt lat="36.992927994579077" lon="-2.463374035432935">
        <ele>217.88</ele>
        <time>2025-05-12T12:59:07Z</time>
      </trkpt>
      <trkpt lat="36.99321499094367" lon="-2.4636659771204">
        <ele>218.84</ele>
        <time>2025-05-12T12:59:09Z</time>
      </trkpt>
      <trkpt lat="36.993384975939989" lon="-2.463761027902365">
        <ele>219.31999999999999</ele>
        <time>2025-05-12T12:59:10Z</time>
      </trkpt>
      <trkpt lat="36.993556972593069" lon="-2.463801009580493">
        <ele>220.28</ele>
        <time>2025-05-12T12:59:11Z</time>
      </trkpt>
      <trkpt lat="36.993736010044813" lon="-2.463840991258621">
        <ele>221.24000000000001</ele>
        <time>2025-05-12T12:59:12Z</time>
      </trkpt>
      <trkpt lat="36.99392301030457" lon="-2.463851971551776">
        <ele>221.72</ele>
        <time>2025-05-12T12:59:13Z</time>
      </trkpt>
      <trkpt lat="36.99411797337234" lon="-2.463847026228905">
        <ele>222.68000000000001</ele>
        <time>2025-05-12T12:59:14Z</time>
      </trkpt>
      <trkpt lat="36.995736015960574" lon="-2.463485011830926">
        <ele>230.84999999999999</ele>
        <time>2025-05-12T12:59:22Z</time>
      </trkpt>
      <trkpt lat="36.997392028570175" lon="-2.462536012753844">
        <ele>242.87</ele>
        <time>2025-05-12T12:59:31Z</time>
      </trkpt>
      <trkpt lat="36.997589003294706" lon="-2.46246200054884">
        <ele>244.31</ele>
        <time>2025-05-12T12:59:32Z</time>
      </trkpt>
      <trkpt lat="36.997788995504379" lon="-2.462400980293751">
        <ele>245.27000000000001</ele>
        <time>2025-05-12T12:59:33Z</time>
      </trkpt>
      <trkpt lat="36.999537963420153" lon="-2.461823970079422">
        <ele>250.08000000000001</ele>
        <time>2025-05-12T12:59:42Z</time>
      </trkpt>
      <trkpt lat="37.000956013798714" lon="-2.460949989035726">
        <ele>249.59999999999999</ele>
        <time>2025-05-12T12:59:50Z</time>
      </trkpt>
      <trkpt lat="37.001760005950928" lon="-2.460165023803711">
        <ele>248.16</ele>
        <time>2025-05-12T12:59:55Z</time>
      </trkpt>
      <trkpt lat="37.001878023147583" lon="-2.45997098274529">
        <ele>248.16</ele>
        <time>2025-05-12T12:59:56Z</time>
      </trkpt>
      <trkpt lat="37.003100020810962" lon="-2.458175998181105">
        <ele>246.22999999999999</ele>
        <time>2025-05-12T13:00:06Z</time>
      </trkpt>
      <trkpt lat="37.003529006615281" lon="-2.457767967134714">
        <ele>245.75</ele>
        <time>2025-05-12T13:00:09Z</time>
      </trkpt>
      <trkpt lat="37.003678036853671" lon="-2.457661014050245">
        <ele>245.75</ele>
        <time>2025-05-12T13:00:10Z</time>
      </trkpt>
      <trkpt lat="37.003837963566184" lon="-2.457587001845241">
        <ele>245.75</ele>
        <time>2025-05-12T13:00:11Z</time>
      </trkpt>
      <trkpt lat="37.004006020724773" lon="-2.45754299685359">
        <ele>246.22999999999999</ele>
        <time>2025-05-12T13:00:12Z</time>
      </trkpt>
      <trkpt lat="37.004180029034615" lon="-2.4575200304389">
        <ele>246.72</ele>
        <time>2025-05-12T13:00:13Z</time>
      </trkpt>
      <trkpt lat="37.004695013165474" lon="-2.457424979656935">
        <ele>248.16</ele>
        <time>2025-05-12T13:00:16Z</time>
      </trkpt>
      <trkpt lat="37.004853012040257" lon="-2.457325989380479">
        <ele>248.63999999999999</ele>
        <time>2025-05-12T13:00:17Z</time>
      </trkpt>
      <trkpt lat="37.005007993429899" lon="-2.45721903629601">
        <ele>248.63999999999999</ele>
        <time>2025-05-12T13:00:18Z</time>
      </trkpt>
      <trkpt lat="37.005151994526386" lon="-2.457081992179155">
        <ele>249.12</ele>
        <time>2025-05-12T13:00:19Z</time>
      </trkpt>
      <trkpt lat="37.005297001451254" lon="-2.456943020224571">
        <ele>249.12</ele>
        <time>2025-05-12T13:00:20Z</time>
      </trkpt>
      <trkpt lat="37.006014995276928" lon="-2.456238018348813">
        <ele>247.19999999999999</ele>
        <time>2025-05-12T13:00:25Z</time>
      </trkpt>
      <trkpt lat="37.006139969453216" lon="-2.456070967018604">
        <ele>247.19999999999999</ele>
        <time>2025-05-12T13:00:26Z</time>
      </trkpt>
      <trkpt lat="37.006222028285265" lon="-2.455861000344157">
        <ele>246.72</ele>
        <time>2025-05-12T13:00:27Z</time>
      </trkpt>
      <trkpt lat="37.00629604049027" lon="-2.455647010356188">
        <ele>246.22999999999999</ele>
        <time>2025-05-12T13:00:28Z</time>
      </trkpt>
      <trkpt lat="37.006367035210133" lon="-2.45543897151947">
        <ele>246.22999999999999</ele>
        <time>2025-05-12T13:00:29Z</time>
      </trkpt>
      <trkpt lat="37.006433000788093" lon="-2.4552440084517">
        <ele>245.75</ele>
        <time>2025-05-12T13:00:30Z</time>
      </trkpt>
      <trkpt lat="37.006516987457871" lon="-2.45507201179862">
        <ele>245.75</ele>
        <time>2025-05-12T13:00:31Z</time>
      </trkpt>
      <trkpt lat="37.006606003269553" lon="-2.454914012923837">
        <ele>245.27000000000001</ele>
        <time>2025-05-12T13:00:32Z</time>
      </trkpt>
      <trkpt lat="37.006724020466208" lon="-2.454808987677097">
        <ele>244.78999999999999</ele>
        <time>2025-05-12T13:00:33Z</time>
      </trkpt>
      <trkpt lat="37.006854023784399" lon="-2.454716032370925">
        <ele>244.78999999999999</ele>
        <time>2025-05-12T13:00:34Z</time>
      </trkpt>
      <trkpt lat="37.006998024880886" lon="-2.454631039872766">
        <ele>244.78999999999999</ele>
        <time>2025-05-12T13:00:35Z</time>
      </trkpt>
      <trkpt lat="37.007152000442147" lon="-2.454567002132535">
        <ele>244.78999999999999</ele>
        <time>2025-05-12T13:00:36Z</time>
      </trkpt>
      <trkpt lat="37.008292023092508" lon="-2.454097028821707">
        <ele>243.83000000000001</ele>
        <time>2025-05-12T13:00:43Z</time>
      </trkpt>
      <trkpt lat="37.008433006703854" lon="-2.454000972211361">
        <ele>243.83000000000001</ele>
        <time>2025-05-12T13:00:44Z</time>
      </trkpt>
      <trkpt lat="37.008551023900509" lon="-2.453866023570299">
        <ele>243.34999999999999</ele>
        <time>2025-05-12T13:00:45Z</time>
      </trkpt>
      <trkpt lat="37.009426010772586" lon="-2.452661963179708">
        <ele>244.31</ele>
        <time>2025-05-12T13:00:53Z</time>
      </trkpt>
      <trkpt lat="37.010644990950823" lon="-2.450513010844588">
        <ele>249.12</ele>
        <time>2025-05-12T13:01:04Z</time>
      </trkpt>
      <trkpt lat="37.011890038847923" lon="-2.448295997455716">
        <ele>257.29000000000002</ele>
        <time>2025-05-12T13:01:15Z</time>
      </trkpt>
      <trkpt lat="37.012578025460243" lon="-2.447190005332232">
        <ele>263.06</ele>
        <time>2025-05-12T13:01:22Z</time>
      </trkpt>
      <trkpt lat="37.013261988759041" lon="-2.446410991251469">
        <ele>268.35000000000002</ele>
        <time>2025-05-12T13:01:30Z</time>
      </trkpt>
      <trkpt lat="37.013339018449187" lon="-2.446352988481522">
        <ele>269.31</ele>
        <time>2025-05-12T13:01:37Z</time>
      </trkpt>
      <trkpt lat="37.013339018449187" lon="-2.446352988481522">
        <ele>270.26999999999998</ele>
        <time>2025-05-12T13:02:16Z</time>
      </trkpt>
      <trkpt lat="37.013491988182068" lon="-2.446237988770008">
        <ele>270.26999999999998</ele>
        <time>2025-05-12T13:02:42Z</time>
      </trkpt>
      <trkpt lat="37.014220040291548" lon="-2.445691991597414">
        <ele>272.19</ele>
        <time>2025-05-12T13:02:49Z</time>
      </trkpt>
      <trkpt lat="37.015654016286135" lon="-2.445096960291266">
        <ele>276.51999999999998</ele>
        <time>2025-05-12T13:02:56Z</time>
      </trkpt>
      <trkpt lat="37.017303993925452" lon="-2.444669986143708">
        <ele>279.39999999999998</ele>
        <time>2025-05-12T13:03:04Z</time>
      </trkpt>
      <trkpt lat="37.017908999696374" lon="-2.444338984787464">
        <ele>276.51999999999998</ele>
        <time>2025-05-12T13:03:08Z</time>
      </trkpt>
      <trkpt lat="37.018010001629591" lon="-2.444236977025867">
        <ele>275.56</ele>
        <time>2025-05-12T13:03:09Z</time>
      </trkpt>
      <trkpt lat="37.018079990521073" lon="-2.444127006456256">
        <ele>274.58999999999997</ele>
        <time>2025-05-12T13:03:10Z</time>
      </trkpt>
      <trkpt lat="37.018184009939432" lon="-2.443945035338402">
        <ele>273.14999999999998</ele>
        <time>2025-05-12T13:03:12Z</time>
      </trkpt>
      <trkpt lat="37.018247963860631" lon="-2.443904969841242">
        <ele>272.19</ele>
        <time>2025-05-12T13:03:13Z</time>
      </trkpt>
      <trkpt lat="37.018312001600862" lon="-2.443883009254932">
        <ele>271.70999999999998</ele>
        <time>2025-05-12T13:03:14Z</time>
      </trkpt>
      <trkpt lat="37.018356006592512" lon="-2.443894995376468">
        <ele>270.75</ele>
        <time>2025-05-12T13:03:15Z</time>
      </trkpt>
      <trkpt lat="37.018390037119389" lon="-2.443914022296667">
        <ele>270.26999999999998</ele>
        <time>2025-05-12T13:03:16Z</time>
      </trkpt>
      <trkpt lat="37.01841602101922" lon="-2.443929025903344">
        <ele>269.31</ele>
        <time>2025-05-12T13:03:17Z</time>
      </trkpt>
      <trkpt lat="37.018471006304026" lon="-2.443960038945079">
        <ele>268.35000000000002</ele>
        <time>2025-05-12T13:03:19Z</time>
      </trkpt>
      <trkpt lat="37.018553987145424" lon="-2.443956015631557">
        <ele>267.86000000000001</ele>
        <time>2025-05-12T13:03:20Z</time>
      </trkpt>
      <trkpt lat="37.018603021278977" lon="-2.443914022296667">
        <ele>266.89999999999998</ele>
        <time>2025-05-12T13:03:21Z</time>
      </trkpt>
      <trkpt lat="37.018668986856937" lon="-2.443802040070295">
        <ele>265.94</ele>
        <time>2025-05-12T13:03:22Z</time>
      </trkpt>
      <trkpt lat="37.018662029877305" lon="-2.443698020651937">
        <ele>265.45999999999998</ele>
        <time>2025-05-12T13:03:23Z</time>
      </trkpt>
      <trkpt lat="37.018647026270628" lon="-2.443589977920055">
        <ele>264.98000000000002</ele>
        <time>2025-05-12T13:03:24Z</time>
      </trkpt>
      <trkpt lat="37.018643002957106" lon="-2.443470032885671">
        <ele>264.98000000000002</ele>
        <time>2025-05-12T13:03:25Z</time>
      </trkpt>
      <trkpt lat="37.018622970208526" lon="-2.442360017448664">
        <ele>265.45999999999998</ele>
        <time>2025-05-12T13:03:34Z</time>
      </trkpt>
      <trkpt lat="37.018644008785486" lon="-2.442237976938486">
        <ele>265.45999999999998</ele>
        <time>2025-05-12T13:03:35Z</time>
      </trkpt>
      <trkpt lat="37.018668986856937" lon="-2.442097999155521">
        <ele>265.94</ele>
        <time>2025-05-12T13:03:36Z</time>
      </trkpt>
      <trkpt lat="37.018720032647252" lon="-2.44200998917222">
        <ele>266.42000000000002</ele>
        <time>2025-05-12T13:03:37Z</time>
      </trkpt>
      <trkpt lat="37.018784992396832" lon="-2.441898006945849">
        <ele>266.89999999999998</ele>
        <time>2025-05-12T13:03:38Z</time>
      </trkpt>
      <trkpt lat="37.018864033743739" lon="-2.44179499335587">
        <ele>267.38</ele>
        <time>2025-05-12T13:03:39Z</time>
      </trkpt>
      <trkpt lat="37.018956989049911" lon="-2.441702960059047">
        <ele>267.86000000000001</ele>
        <time>2025-05-12T13:03:40Z</time>
      </trkpt>
      <trkpt lat="37.019717982038856" lon="-2.440738035365939">
        <ele>273.14999999999998</ele>
        <time>2025-05-12T13:03:48Z</time>
      </trkpt>
      <trkpt lat="37.019838010892272" lon="-2.440436035394669">
        <ele>274.58999999999997</ele>
        <time>2025-05-12T13:03:50Z</time>
      </trkpt>
      <trkpt lat="37.019881010055542" lon="-2.440283987671137">
        <ele>275.56</ele>
        <time>2025-05-12T13:03:51Z</time>
      </trkpt>
      <trkpt lat="37.020222991704941" lon="-2.438335027545691">
        <ele>283.73000000000002</ele>
        <time>2025-05-12T13:04:03Z</time>
      </trkpt>
      <trkpt lat="37.020581988617778" lon="-2.436391012743115">
        <ele>289.49000000000001</ele>
        <time>2025-05-12T13:04:15Z</time>
      </trkpt>
      <trkpt lat="37.020948026329279" lon="-2.435408988967538">
        <ele>292.86000000000001</ele>
        <time>2025-05-12T13:04:24Z</time>
      </trkpt>
      <trkpt lat="37.021302999928594" lon="-2.43455302901566">
        <ele>298.14999999999998</ele>
        <time>2025-05-12T13:04:35Z</time>
      </trkpt>
      <trkpt lat="37.021580021828413" lon="-2.434040978550911">
        <ele>300.06999999999999</ele>
        <time>2025-05-12T13:04:39Z</time>
      </trkpt>
      <trkpt lat="37.021679012104869" lon="-2.433923967182636">
        <ele>300.06999999999999</ele>
        <time>2025-05-12T13:04:40Z</time>
      </trkpt>
      <trkpt lat="37.021773979067802" lon="-2.433812990784645">
        <ele>300.06999999999999</ele>
        <time>2025-05-12T13:04:41Z</time>
      </trkpt>
      <trkpt lat="37.022957000881433" lon="-2.432982008904219">
        <ele>298.14999999999998</ele>
        <time>2025-05-12T13:04:50Z</time>
      </trkpt>
      <trkpt lat="37.023718999698758" lon="-2.432403992861509">
        <ele>299.58999999999997</ele>
        <time>2025-05-12T13:04:56Z</time>
      </trkpt>
      <trkpt lat="37.023821007460356" lon="-2.432293016463518">
        <ele>300.06999999999999</ele>
        <time>2025-05-12T13:04:57Z</time>
      </trkpt>
      <trkpt lat="37.02389501966536" lon="-2.432159995660186">
        <ele>300.06999999999999</ele>
        <time>2025-05-12T13:04:58Z</time>
      </trkpt>
      <trkpt lat="37.023953022435308" lon="-2.432004008442164">
        <ele>300.55000000000001</ele>
        <time>2025-05-12T13:04:59Z</time>
      </trkpt>
      <trkpt lat="37.024013036862016" lon="-2.431845003738999">
        <ele>301.50999999999999</ele>
        <time>2025-05-12T13:05:00Z</time>
      </trkpt>
      <trkpt lat="37.024069027975202" lon="-2.431676024571061">
        <ele>301.99000000000001</ele>
        <time>2025-05-12T13:05:01Z</time>
      </trkpt>
      <trkpt lat="37.024819040670991" lon="-2.42890496738255">
        <ele>316.41000000000003</ele>
        <time>2025-05-12T13:05:16Z</time>
      </trkpt>
      <trkpt lat="37.024899004027247" lon="-2.428719978779554">
        <ele>317.37</ele>
        <time>2025-05-12T13:05:17Z</time>
      </trkpt>
      <trkpt lat="37.025014003738761" lon="-2.428561979904771">
        <ele>317.85000000000002</ele>
        <time>2025-05-12T13:05:18Z</time>
      </trkpt>
      <trkpt lat="37.025130009278655" lon="-2.428401969373226">
        <ele>318.32999999999998</ele>
        <time>2025-05-12T13:05:19Z</time>
      </trkpt>
      <trkpt lat="37.025253977626562" lon="-2.428244976326823">
        <ele>319.30000000000001</ele>
        <time>2025-05-12T13:05:20Z</time>
      </trkpt>
      <trkpt lat="37.025400996208191" lon="-2.428143974393606">
        <ele>319.77999999999997</ele>
        <time>2025-05-12T13:05:21Z</time>
      </trkpt>
      <trkpt lat="37.025544997304678" lon="-2.428045989945531">
        <ele>320.25999999999999</ele>
        <time>2025-05-12T13:05:22Z</time>
      </trkpt>
      <trkpt lat="37.025692015886307" lon="-2.427959991618991">
        <ele>320.74000000000001</ele>
        <time>2025-05-12T13:05:23Z</time>
      </trkpt>
      <trkpt lat="37.025843979790807" lon="-2.427902994677424">
        <ele>320.74000000000001</ele>
        <time>2025-05-12T13:05:24Z</time>
      </trkpt>
      <trkpt lat="37.025999967008829" lon="-2.42785002104938">
        <ele>321.22000000000003</ele>
        <time>2025-05-12T13:05:25Z</time>
      </trkpt>
      <trkpt lat="37.026160983368754" lon="-2.42785002104938">
        <ele>321.69999999999999</ele>
        <time>2025-05-12T13:05:26Z</time>
      </trkpt>
      <trkpt lat="37.02632199972868" lon="-2.42785002104938">
        <ele>321.69999999999999</ele>
        <time>2025-05-12T13:05:27Z</time>
      </trkpt>
      <trkpt lat="37.027907017618418" lon="-2.427883967757225">
        <ele>319.30000000000001</ele>
        <time>2025-05-12T13:05:36Z</time>
      </trkpt>
      <trkpt lat="37.028697011992335" lon="-2.427574004977942">
        <ele>315.93000000000001</ele>
        <time>2025-05-12T13:05:41Z</time>
      </trkpt>
      <trkpt lat="37.028845958411694" lon="-2.42748498916626">
        <ele>314.97000000000003</ele>
        <time>2025-05-12T13:05:42Z</time>
      </trkpt>
      <trkpt lat="37.029937030747533" lon="-2.426498020067811">
        <ele>310.63999999999999</ele>
        <time>2025-05-12T13:05:50Z</time>
      </trkpt>
      <trkpt lat="37.030042978003621" lon="-2.426344966515899">
        <ele>310.63999999999999</ele>
        <time>2025-05-12T13:05:51Z</time>
      </trkpt>
      <trkpt lat="37.030145991593599" lon="-2.426190990954638">
        <ele>310.63999999999999</ele>
        <time>2025-05-12T13:05:52Z</time>
      </trkpt>
      <trkpt lat="37.030214974656701" lon="-2.426009019836783">
        <ele>311.12</ele>
        <time>2025-05-12T13:05:53Z</time>
      </trkpt>
      <trkpt lat="37.030271971598268" lon="-2.425820007920265">
        <ele>311.60000000000002</ele>
        <time>2025-05-12T13:05:54Z</time>
      </trkpt>
      <trkpt lat="37.030325029045343" lon="-2.425643987953663">
        <ele>312.56999999999999</ele>
        <time>2025-05-12T13:05:55Z</time>
      </trkpt>
      <trkpt lat="37.030370961874723" lon="-2.425471991300583">
        <ele>313.52999999999997</ele>
        <time>2025-05-12T13:05:56Z</time>
      </trkpt>
      <trkpt lat="37.030412033200264" lon="-2.425293959677219">
        <ele>314.97000000000003</ele>
        <time>2025-05-12T13:05:57Z</time>
      </trkpt>
      <trkpt lat="37.030703974887729" lon="-2.423559995368123">
        <ele>325.06</ele>
        <time>2025-05-12T13:06:08Z</time>
      </trkpt>
      <trkpt lat="37.030742028728127" lon="-2.423439966514707">
        <ele>326.01999999999998</ele>
        <time>2025-05-12T13:06:09Z</time>
      </trkpt>
      <trkpt lat="37.030777987092733" lon="-2.423323960974813">
        <ele>326.99000000000001</ele>
        <time>2025-05-12T13:06:10Z</time>
      </trkpt>
      <trkpt lat="37.030844958499074" lon="-2.423226982355118">
        <ele>327.47000000000003</ele>
        <time>2025-05-12T13:06:11Z</time>
      </trkpt>
      <trkpt lat="37.030922994017601" lon="-2.423149030655623">
        <ele>327.94999999999999</ele>
        <time>2025-05-12T13:06:12Z</time>
      </trkpt>
      <trkpt lat="37.031020978465676" lon="-2.423119023442268">
        <ele>328.43000000000001</ele>
        <time>2025-05-12T13:06:13Z</time>
      </trkpt>
      <trkpt lat="37.031115023419261" lon="-2.423107959330082">
        <ele>328.91000000000003</ele>
        <time>2025-05-12T13:06:14Z</time>
      </trkpt>
      <trkpt lat="37.031234968453646" lon="-2.423140984028578">
        <ele>328.91000000000003</ele>
        <time>2025-05-12T13:06:15Z</time>
      </trkpt>
      <trkpt lat="37.03135097399354" lon="-2.423171997070313">
        <ele>328.91000000000003</ele>
        <time>2025-05-12T13:06:16Z</time>
      </trkpt>
      <trkpt lat="37.03145801089704" lon="-2.423223964869976">
        <ele>328.91000000000003</ele>
        <time>2025-05-12T13:06:17Z</time>
      </trkpt>
      <trkpt lat="37.031572004780173" lon="-2.423278028145433">
        <ele>328.91000000000003</ele>
        <time>2025-05-12T13:06:18Z</time>
      </trkpt>
      <trkpt lat="37.031808961182833" lon="-2.423392022028565">
        <ele>328.43000000000001</ele>
        <time>2025-05-12T13:06:20Z</time>
      </trkpt>
      <trkpt lat="37.032481022179127" lon="-2.423563012853265">
        <ele>329.87</ele>
        <time>2025-05-12T13:06:25Z</time>
      </trkpt>
      <trkpt lat="37.032615970820189" lon="-2.423533005639911">
        <ele>330.35000000000002</ele>
        <time>2025-05-12T13:06:26Z</time>
      </trkpt>
      <trkpt lat="37.032887041568756" lon="-2.423473997041583">
        <ele>331.79000000000002</ele>
        <time>2025-05-12T13:06:28Z</time>
      </trkpt>
      <trkpt lat="37.03300204128027" lon="-2.423409959301353">
        <ele>332.75</ele>
        <time>2025-05-12T13:06:29Z</time>
      </trkpt>
      <trkpt lat="37.033117963001132" lon="-2.423342987895012">
        <ele>333.70999999999998</ele>
        <time>2025-05-12T13:06:30Z</time>
      </trkpt>
      <trkpt lat="37.033223994076252" lon="-2.423263024538755">
        <ele>334.68000000000001</ele>
        <time>2025-05-12T13:06:31Z</time>
      </trkpt>
      <trkpt lat="37.033329019322991" lon="-2.423176020383835">
        <ele>335.63999999999999</ele>
        <time>2025-05-12T13:06:32Z</time>
      </trkpt>
      <trkpt lat="37.033431027084589" lon="-2.423076024278998">
        <ele>336.60000000000002</ele>
        <time>2025-05-12T13:06:33Z</time>
      </trkpt>
      <trkpt lat="37.033603023737669" lon="-2.422814005985856">
        <ele>337.56</ele>
        <time>2025-05-12T13:06:35Z</time>
      </trkpt>
      <trkpt lat="37.034467030316591" lon="-2.421412970870733">
        <ele>343.32999999999998</ele>
        <time>2025-05-12T13:06:45Z</time>
      </trkpt>
      <trkpt lat="37.034779004752636" lon="-2.420884994789958">
        <ele>344.76999999999998</ele>
        <time>2025-05-12T13:06:52Z</time>
      </trkpt>
      <trkpt lat="37.034791996702552" lon="-2.420863034203649">
        <ele>344.76999999999998</ele>
        <time>2025-05-12T13:07:00Z</time>
      </trkpt>
      <trkpt lat="37.034791996702552" lon="-2.420863034203649">
        <ele>345.25</ele>
        <time>2025-05-12T13:07:42Z</time>
      </trkpt>
      <trkpt lat="37.034948989748955" lon="-2.420596992596984">
        <ele>345.73000000000002</ele>
        <time>2025-05-12T13:08:00Z</time>
      </trkpt>
      <trkpt lat="37.03545399941504" lon="-2.419742960482836">
        <ele>344.76999999999998</ele>
        <time>2025-05-12T13:08:06Z</time>
      </trkpt>
      <trkpt lat="37.036585975438356" lon="-2.417764998972416">
        <ele>345.25</ele>
        <time>2025-05-12T13:08:17Z</time>
      </trkpt>
      <trkpt lat="37.037617033347487" lon="-2.416056012734771">
        <ele>349.57999999999998</ele>
        <time>2025-05-12T13:08:27Z</time>
      </trkpt>
      <trkpt lat="37.037813002243638" lon="-2.415756024420261">
        <ele>350.06</ele>
        <time>2025-05-12T13:08:29Z</time>
      </trkpt>
      <trkpt lat="37.038797959685326" lon="-2.41474399343133">
        <ele>352.94</ele>
        <time>2025-05-12T13:08:37Z</time>
      </trkpt>
      <trkpt lat="37.039117980748415" lon="-2.414507959038019">
        <ele>354.86000000000001</ele>
        <time>2025-05-12T13:08:41Z</time>
      </trkpt>
      <trkpt lat="37.039144970476627" lon="-2.414488010108471">
        <ele>356.31</ele>
        <time>2025-05-12T13:08:48Z</time>
      </trkpt>
      <trkpt lat="37.039144970476627" lon="-2.414488010108471">
        <ele>356.31</ele>
        <time>2025-05-12T13:08:54Z</time>
      </trkpt>
      <trkpt lat="37.039313027635217" lon="-2.414383990690112">
        <ele>358.23000000000002</ele>
        <time>2025-05-12T13:09:02Z</time>
      </trkpt>
      <trkpt lat="37.040086006745696" lon="-2.413945030421019">
        <ele>362.06999999999999</ele>
        <time>2025-05-12T13:09:09Z</time>
      </trkpt>
      <trkpt lat="37.041270034387708" lon="-2.413052022457123">
        <ele>366.39999999999998</ele>
        <time>2025-05-12T13:09:18Z</time>
      </trkpt>
      <trkpt lat="37.041957015171647" lon="-2.411861037835479">
        <ele>366.88</ele>
        <time>2025-05-12T13:09:25Z</time>
      </trkpt>
      <trkpt lat="37.042553974315524" lon="-2.409753995016217">
        <ele>366.39999999999998</ele>
        <time>2025-05-12T13:09:35Z</time>
      </trkpt>
      <trkpt lat="37.042594039812684" lon="-2.409515026956797">
        <ele>365.92000000000002</ele>
        <time>2025-05-12T13:09:36Z</time>
      </trkpt>
      <trkpt lat="37.042594039812684" lon="-2.409275975078344">
        <ele>364.95999999999998</ele>
        <time>2025-05-12T13:09:37Z</time>
      </trkpt>
      <trkpt lat="37.042580964043736" lon="-2.409031977877021">
        <ele>364.48000000000002</ele>
        <time>2025-05-12T13:09:38Z</time>
      </trkpt>
      <trkpt lat="37.042513992637396" lon="-2.408819999545813">
        <ele>363.51999999999998</ele>
        <time>2025-05-12T13:09:39Z</time>
      </trkpt>
      <trkpt lat="37.042446015402675" lon="-2.408602992072702">
        <ele>362.55000000000001</ele>
        <time>2025-05-12T13:09:40Z</time>
      </trkpt>
      <trkpt lat="37.041924996301532" lon="-2.407055022194982">
        <ele>354.86000000000001</ele>
        <time>2025-05-12T13:09:48Z</time>
      </trkpt>
      <trkpt lat="37.041821982711554" lon="-2.406713962554932">
        <ele>352.94</ele>
        <time>2025-05-12T13:09:50Z</time>
      </trkpt>
      <trkpt lat="37.041840003803372" lon="-2.406570967286825">
        <ele>351.98000000000002</ele>
        <time>2025-05-12T13:09:51Z</time>
      </trkpt>
      <trkpt lat="37.041862970218062" lon="-2.406396036967635">
        <ele>351.01999999999998</ele>
        <time>2025-05-12T13:09:52Z</time>
      </trkpt>
      <trkpt lat="37.041886020451784" lon="-2.406220017001033">
        <ele>350.54000000000002</ele>
        <time>2025-05-12T13:09:53Z</time>
      </trkpt>
      <trkpt lat="37.041961960494518" lon="-2.406081967055798">
        <ele>349.57999999999998</ele>
        <time>2025-05-12T13:09:54Z</time>
      </trkpt>
      <trkpt lat="37.042049970477819" lon="-2.405954981222749">
        <ele>349.10000000000002</ele>
        <time>2025-05-12T13:09:55Z</time>
      </trkpt>
      <trkpt lat="37.042172010987997" lon="-2.405854985117912">
        <ele>348.62</ele>
        <time>2025-05-12T13:09:56Z</time>
      </trkpt>
      <trkpt lat="37.042295979335904" lon="-2.405751971527934">
        <ele>348.62</ele>
        <time>2025-05-12T13:09:57Z</time>
      </trkpt>
      <trkpt lat="37.043735990300775" lon="-2.404690990224481">
        <ele>349.10000000000002</ele>
        <time>2025-05-12T13:10:07Z</time>
      </trkpt>
      <trkpt lat="37.045123027637601" lon="-2.403681976720691">
        <ele>357.75</ele>
        <time>2025-05-12T13:10:16Z</time>
      </trkpt>
      <trkpt lat="37.046693963930011" lon="-2.402571961283684">
        <ele>371.69</ele>
        <time>2025-05-12T13:10:27Z</time>
      </trkpt>
      <trkpt lat="37.047362001612782" lon="-2.401876011863351">
        <ele>375.05000000000001</ele>
        <time>2025-05-12T13:10:35Z</time>
      </trkpt>
      <trkpt lat="37.048071026802063" lon="-2.401129016652703">
        <ele>378.42000000000002</ele>
        <time>2025-05-12T13:10:44Z</time>
      </trkpt>
      <trkpt lat="37.048127017915249" lon="-2.401066990569234">
        <ele>379.86000000000001</ele>
        <time>2025-05-12T13:10:50Z</time>
      </trkpt>
      <trkpt lat="37.048134980723262" lon="-2.40105701610446">
        <ele>379.86000000000001</ele>
        <time>2025-05-12T13:10:57Z</time>
      </trkpt>
      <trkpt lat="37.048163982108235" lon="-2.401136979460716">
        <ele>380.33999999999997</ele>
        <time>2025-05-12T13:10:59Z</time>
      </trkpt>
      <trkpt lat="37.048147972673178" lon="-2.401180984452367">
        <ele>380.81999999999999</ele>
        <time>2025-05-12T13:11:00Z</time>
      </trkpt>
      <trkpt lat="37.04812902957201" lon="-2.401233036071062">
        <ele>380.81999999999999</ele>
        <time>2025-05-12T13:11:01Z</time>
      </trkpt>
      <trkpt lat="37.048105979338288" lon="-2.401302019134164">
        <ele>380.81999999999999</ele>
        <time>2025-05-12T13:11:02Z</time>
      </trkpt>
      <trkpt lat="37.048092987388372" lon="-2.401375025510788">
        <ele>380.81999999999999</ele>
        <time>2025-05-12T13:11:03Z</time>
      </trkpt>
      <trkpt lat="37.048054011538625" lon="-2.401594966650009">
        <ele>381.30000000000001</ele>
        <time>2025-05-12T13:11:08Z</time>
      </trkpt>
      <trkpt lat="37.048017969354987" lon="-2.401666967198253">
        <ele>381.30000000000001</ele>
        <time>2025-05-12T13:11:09Z</time>
      </trkpt>
      <trkpt lat="37.047932976856828" lon="-2.401721030473709">
        <ele>380.81999999999999</ele>
        <time>2025-05-12T13:11:10Z</time>
      </trkpt>
      <trkpt lat="37.047180030494928" lon="-2.402222016826272">
        <ele>377.94</ele>
        <time>2025-05-12T13:11:16Z</time>
      </trkpt>
      <trkpt lat="37.045757034793496" lon="-2.403234969824553">
        <ele>373.61000000000001</ele>
        <time>2025-05-12T13:11:26Z</time>
      </trkpt>
      <trkpt lat="37.043875968083739" lon="-2.404587976634502">
        <ele>360.14999999999998</ele>
        <time>2025-05-12T13:11:39Z</time>
      </trkpt>
      <trkpt lat="37.042551962658763" lon="-2.405539993196726">
        <ele>349.57999999999998</ele>
        <time>2025-05-12T13:11:49Z</time>
      </trkpt>
      <trkpt lat="37.042078971862793" lon="-2.405932014808059">
        <ele>348.62</ele>
        <time>2025-05-12T13:11:54Z</time>
      </trkpt>
      <trkpt lat="37.04200797714293" lon="-2.405995968729258">
        <ele>348.62</ele>
        <time>2025-05-12T13:11:55Z</time>
      </trkpt>
      <trkpt lat="37.041894989088178" lon="-2.406204007565975">
        <ele>349.10000000000002</ele>
        <time>2025-05-12T13:11:58Z</time>
      </trkpt>
      <trkpt lat="37.041886020451784" lon="-2.406220017001033">
        <ele>349.10000000000002</ele>
        <time>2025-05-12T13:11:59Z</time>
      </trkpt>
      <trkpt lat="37.041771020740271" lon="-2.40614902228117">
        <ele>349.10000000000002</ele>
        <time>2025-05-12T13:12:01Z</time>
      </trkpt>
      <trkpt lat="37.041731039062142" lon="-2.406123960390687">
        <ele>349.57999999999998</ele>
        <time>2025-05-12T13:12:02Z</time>
      </trkpt>
      <trkpt lat="37.041686028242111" lon="-2.406094959005714">
        <ele>349.57999999999998</ele>
        <time>2025-05-12T13:12:03Z</time>
      </trkpt>
      <trkpt lat="37.041639005765319" lon="-2.406066041439772">
        <ele>349.57999999999998</ele>
        <time>2025-05-12T13:12:04Z</time>
      </trkpt>
      <trkpt lat="37.041543032974005" lon="-2.406006027013063">
        <ele>349.10000000000002</ele>
        <time>2025-05-12T13:12:07Z</time>
      </trkpt>
      <trkpt lat="37.041543032974005" lon="-2.406006027013063">
        <ele>349.57999999999998</ele>
        <time>2025-05-12T13:12:18Z</time>
      </trkpt>
      <trkpt lat="37.041505984961987" lon="-2.405919022858143">
        <ele>349.57999999999998</ele>
        <time>2025-05-12T13:12:20Z</time>
      </trkpt>
      <trkpt lat="37.041485030204058" lon="-2.40587099455297">
        <ele>349.57999999999998</ele>
        <time>2025-05-12T13:12:21Z</time>
      </trkpt>
      <trkpt lat="37.041478995233774" lon="-2.405855990946293">
        <ele>349.57999999999998</ele>
        <time>2025-05-12T13:12:22Z</time>
      </trkpt>
      <trkpt lat="37.041505984961987" lon="-2.405778039246798">
        <ele>349.57999999999998</ele>
        <time>2025-05-12T13:12:23Z</time>
      </trkpt>
      <trkpt lat="37.041533980518579" lon="-2.405697992071509">
        <ele>349.57999999999998</ele>
        <time>2025-05-12T13:12:24Z</time>
      </trkpt>
      <trkpt lat="37.041563987731934" lon="-2.405610987916589">
        <ele>348.62</ele>
        <time>2025-05-12T13:12:25Z</time>
      </trkpt>
      <trkpt lat="37.041595000773668" lon="-2.405522977933288">
        <ele>348.13</ele>
        <time>2025-05-12T13:12:26Z</time>
      </trkpt>
      <trkpt lat="37.041734978556633" lon="-2.405126010999084">
        <ele>346.20999999999998</ele>
        <time>2025-05-12T13:12:30Z</time>
      </trkpt>
      <trkpt lat="37.041761968284845" lon="-2.405008999630809">
        <ele>345.73000000000002</ele>
        <time>2025-05-12T13:12:31Z</time>
      </trkpt>
      <trkpt lat="37.041771020740271" lon="-2.404901040717959">
        <ele>345.25</ele>
        <time>2025-05-12T13:12:32Z</time>
      </trkpt>
      <trkpt lat="37.041801027953625" lon="-2.404545983299613">
        <ele>343.32999999999998</ele>
        <time>2025-05-12T13:12:36Z</time>
      </trkpt>
      <trkpt lat="37.041825000196695" lon="-2.404498038813472">
        <ele>342.85000000000002</ele>
        <time>2025-05-12T13:12:37Z</time>
      </trkpt>
      <trkpt lat="37.041845032945275" lon="-2.404458979144692">
        <ele>342.37</ele>
        <time>2025-05-12T13:12:38Z</time>
      </trkpt>
      <trkpt lat="37.041898006573319" lon="-2.404438024386764">
        <ele>341.88999999999999</ele>
        <time>2025-05-12T13:12:39Z</time>
      </trkpt>
      <trkpt lat="37.041927007958293" lon="-2.404455039650202">
        <ele>341.41000000000003</ele>
        <time>2025-05-12T13:12:40Z</time>
      </trkpt>
      <trkpt lat="37.041960032656789" lon="-2.40447498857975">
        <ele>341.41000000000003</ele>
        <time>2025-05-12T13:12:41Z</time>
      </trkpt>
      <trkpt lat="37.041988028213382" lon="-2.404507007449865">
        <ele>340.92000000000002</ele>
        <time>2025-05-12T13:12:42Z</time>
      </trkpt>
      <trkpt lat="37.042020969092846" lon="-2.404555035755038">
        <ele>340.44</ele>
        <time>2025-05-12T13:12:43Z</time>
      </trkpt>
      <trkpt lat="37.042059022933245" lon="-2.404612032696605">
        <ele>340.44</ele>
        <time>2025-05-12T13:12:44Z</time>
      </trkpt>
      <trkpt lat="37.042105961591005" lon="-2.404683027416468">
        <ele>339.95999999999998</ele>
        <time>2025-05-12T13:12:45Z</time>
      </trkpt>
      <trkpt lat="37.042752960696816" lon="-2.405672008171678">
        <ele>335.16000000000003</ele>
        <time>2025-05-12T13:12:57Z</time>
      </trkpt>
      <trkpt lat="37.043364001438022" lon="-2.406740030273795">
        <ele>332.75</ele>
        <time>2025-05-12T13:13:10Z</time>
      </trkpt>
      <trkpt lat="37.044031033292413" lon="-2.407907964661717">
        <ele>330.35000000000002</ele>
        <time>2025-05-12T13:13:24Z</time>
      </trkpt>
      <trkpt lat="37.044652970507741" lon="-2.409060979261994">
        <ele>330.35000000000002</ele>
        <time>2025-05-12T13:13:38Z</time>
      </trkpt>
      <trkpt lat="37.044722037389874" lon="-2.409215038642287">
        <ele>330.82999999999998</ele>
        <time>2025-05-12T13:13:40Z</time>
      </trkpt>
      <trkpt lat="37.044753972440958" lon="-2.409287039190531">
        <ele>330.82999999999998</ele>
        <time>2025-05-12T13:13:41Z</time>
      </trkpt>
      <trkpt lat="37.044785991311073" lon="-2.409360967576504">
        <ele>331.31</ele>
        <time>2025-05-12T13:13:42Z</time>
      </trkpt>
      <trkpt lat="37.044811975210905" lon="-2.409443026408553">
        <ele>331.31</ele>
        <time>2025-05-12T13:13:43Z</time>
      </trkpt>
      <trkpt lat="37.044837959110737" lon="-2.40952399559319">
        <ele>331.31</ele>
        <time>2025-05-12T13:13:44Z</time>
      </trkpt>
      <trkpt lat="37.04486302100122" lon="-2.409602031111717">
        <ele>331.31</ele>
        <time>2025-05-12T13:13:45Z</time>
      </trkpt>
      <trkpt lat="37.044954970479012" lon="-2.409982988610864">
        <ele>331.79000000000002</ele>
        <time>2025-05-12T13:13:50Z</time>
      </trkpt>
      <trkpt lat="37.044954970479012" lon="-2.41006001830101">
        <ele>331.79000000000002</ele>
        <time>2025-05-12T13:13:51Z</time>
      </trkpt>
      <trkpt lat="37.044954970479012" lon="-2.410139981657267">
        <ele>331.79000000000002</ele>
        <time>2025-05-12T13:13:52Z</time>
      </trkpt>
      <trkpt lat="37.044941978529096" lon="-2.410299992188811">
        <ele>332.26999999999998</ele>
        <time>2025-05-12T13:13:54Z</time>
      </trkpt>
      <trkpt lat="37.044893028214574" lon="-2.410647002980113">
        <ele>333.23000000000002</ele>
        <time>2025-05-12T13:13:58Z</time>
      </trkpt>
      <trkpt lat="37.044880036264658" lon="-2.410736018791795">
        <ele>333.23000000000002</ele>
        <time>2025-05-12T13:13:59Z</time>
      </trkpt>
      <trkpt lat="37.044795965775847" lon="-2.411074982956052">
        <ele>333.23000000000002</ele>
        <time>2025-05-12T13:14:03Z</time>
      </trkpt>
      <trkpt lat="37.044660011306405" lon="-2.41137002594769">
        <ele>332.75</ele>
        <time>2025-05-12T13:14:07Z</time>
      </trkpt>
      <trkpt lat="37.044623969122767" lon="-2.411447977647185">
        <ele>332.75</ele>
        <time>2025-05-12T13:14:08Z</time>
      </trkpt>
      <trkpt lat="37.044368991628289" lon="-2.41220997646451">
        <ele>331.31</ele>
        <time>2025-05-12T13:14:17Z</time>
      </trkpt>
      <trkpt lat="37.044030027464032" lon="-2.413217984139919">
        <ele>330.82999999999998</ele>
        <time>2025-05-12T13:14:29Z</time>
      </trkpt>
      <trkpt lat="37.043874962255359" lon="-2.413631966337562">
        <ele>329.87</ele>
        <time>2025-05-12T13:14:34Z</time>
      </trkpt>
      <trkpt lat="37.043866999447346" lon="-2.413721987977624">
        <ele>329.38999999999999</ele>
        <time>2025-05-12T13:14:35Z</time>
      </trkpt>
      <trkpt lat="37.043922990560532" lon="-2.414784980937839">
        <ele>327.47000000000003</ele>
        <time>2025-05-12T13:14:46Z</time>
      </trkpt>
      <trkpt lat="37.043886026367545" lon="-2.415637001395226">
        <ele>326.5</ele>
        <time>2025-05-12T13:14:56Z</time>
      </trkpt>
      <trkpt lat="37.043882003054023" lon="-2.415728028863668">
        <ele>326.99000000000001</ele>
        <time>2025-05-12T13:14:57Z</time>
      </trkpt>
      <trkpt lat="37.043676981702447" lon="-2.416853969916701">
        <ele>325.06</ele>
        <time>2025-05-12T13:15:09Z</time>
      </trkpt>
      <trkpt lat="37.043583020567894" lon="-2.417168039828539">
        <ele>324.10000000000002</ele>
        <time>2025-05-12T13:15:16Z</time>
      </trkpt>
      <trkpt lat="37.043543960899115" lon="-2.417294019833207">
        <ele>324.10000000000002</ele>
        <time>2025-05-12T13:15:33Z</time>
      </trkpt>
      <trkpt lat="37.043539015576243" lon="-2.417313968762755">
        <ele>323.62</ele>
        <time>2025-05-12T13:15:34Z</time>
      </trkpt>
      <trkpt lat="37.043563993647695" lon="-2.417369959875941">
        <ele>323.62</ele>
        <time>2025-05-12T13:15:35Z</time>
      </trkpt>
      <trkpt lat="37.043595006689429" lon="-2.417439026758075">
        <ele>323.62</ele>
        <time>2025-05-12T13:15:36Z</time>
      </trkpt>
      <trkpt lat="37.043629959225655" lon="-2.41751697845757">
        <ele>323.62</ele>
        <time>2025-05-12T13:15:37Z</time>
      </trkpt>
      <trkpt lat="37.043670024722815" lon="-2.417605994269252">
        <ele>323.62</ele>
        <time>2025-05-12T13:15:38Z</time>
      </trkpt>
      <trkpt lat="37.043716041371226" lon="-2.41770800203085">
        <ele>323.13999999999999</ele>
        <time>2025-05-12T13:15:39Z</time>
      </trkpt>
      <trkpt lat="37.043777983635664" lon="-2.41779500618577">
        <ele>323.13999999999999</ele>
        <time>2025-05-12T13:15:40Z</time>
      </trkpt>
      <trkpt lat="37.043845960870385" lon="-2.417871030047536">
        <ele>323.62</ele>
        <time>2025-05-12T13:15:41Z</time>
      </trkpt>
      <trkpt lat="37.043911004438996" lon="-2.417942024767399">
        <ele>323.62</ele>
        <time>2025-05-12T13:15:42Z</time>
      </trkpt>
      <trkpt lat="37.043992979452014" lon="-2.417985023930669">
        <ele>324.10000000000002</ele>
        <time>2025-05-12T13:15:43Z</time>
      </trkpt>
      <trkpt lat="37.044075038284063" lon="-2.418017964810133">
        <ele>324.57999999999998</ele>
        <time>2025-05-12T13:15:44Z</time>
      </trkpt>
      <trkpt lat="37.044163970276713" lon="-2.418036991730332">
        <ele>325.54000000000002</ele>
        <time>2025-05-12T13:15:45Z</time>
      </trkpt>
      <trkpt lat="37.044252986088395" lon="-2.418014025315642">
        <ele>326.5</ele>
        <time>2025-05-12T13:15:46Z</time>
      </trkpt>
      <trkpt lat="37.044344013556838" lon="-2.41798996925354">
        <ele>327.94999999999999</ele>
        <time>2025-05-12T13:15:47Z</time>
      </trkpt>
      <trkpt lat="37.0444340351969" lon="-2.41796700283885">
        <ele>329.38999999999999</ele>
        <time>2025-05-12T13:15:48Z</time>
      </trkpt>
      <trkpt lat="37.044523973017931" lon="-2.41794403642416">
        <ele>330.82999999999998</ele>
        <time>2025-05-12T13:15:49Z</time>
      </trkpt>
      <trkpt lat="37.044615000486374" lon="-2.417919980362058">
        <ele>331.79000000000002</ele>
        <time>2025-05-12T13:15:50Z</time>
      </trkpt>
      <trkpt lat="37.044711979106069" lon="-2.417915035039187">
        <ele>333.23000000000002</ele>
        <time>2025-05-12T13:15:51Z</time>
      </trkpt>
      <trkpt lat="37.044808035716414" lon="-2.417915035039187">
        <ele>334.68000000000001</ele>
        <time>2025-05-12T13:15:52Z</time>
      </trkpt>
      <trkpt lat="37.044899985194206" lon="-2.417917968705297">
        <ele>335.63999999999999</ele>
        <time>2025-05-12T13:15:53Z</time>
      </trkpt>
      <trkpt lat="37.044990006834269" lon="-2.417947975918651">
        <ele>337.07999999999998</ele>
        <time>2025-05-12T13:15:54Z</time>
      </trkpt>
      <trkpt lat="37.04507902264595" lon="-2.417977983132005">
        <ele>338.04000000000002</ele>
        <time>2025-05-12T13:15:55Z</time>
      </trkpt>
      <trkpt lat="37.045150017365813" lon="-2.418065993115306">
        <ele>339</ele>
        <time>2025-05-12T13:15:56Z</time>
      </trkpt>
      <trkpt lat="37.045214977115393" lon="-2.418151991441846">
        <ele>340.44</ele>
        <time>2025-05-12T13:15:57Z</time>
      </trkpt>
      <trkpt lat="37.045283038169146" lon="-2.418240001425147">
        <ele>341.41000000000003</ele>
        <time>2025-05-12T13:15:58Z</time>
      </trkpt>
      <trkpt lat="37.045350009575486" lon="-2.418328011408448">
        <ele>342.85000000000002</ele>
        <time>2025-05-12T13:15:59Z</time>
      </trkpt>
      <trkpt lat="37.045447994023561" lon="-2.418547030538321">
        <ele>345.25</ele>
        <time>2025-05-12T13:16:01Z</time>
      </trkpt>
      <trkpt lat="37.045496022328734" lon="-2.418662030249834">
        <ele>346.20999999999998</ele>
        <time>2025-05-12T13:16:02Z</time>
      </trkpt>
      <trkpt lat="37.045538015663624" lon="-2.418778035789728">
        <ele>347.64999999999998</ele>
        <time>2025-05-12T13:16:03Z</time>
      </trkpt>
      <trkpt lat="37.045634994283319" lon="-2.419373989105225">
        <ele>351.98000000000002</ele>
        <time>2025-05-12T13:16:08Z</time>
      </trkpt>
      <trkpt lat="37.045661984011531" lon="-2.419480020180345">
        <ele>351.98000000000002</ele>
        <time>2025-05-12T13:16:09Z</time>
      </trkpt>
      <trkpt lat="37.045696014538407" lon="-2.419582027941942">
        <ele>352.45999999999998</ele>
        <time>2025-05-12T13:16:10Z</time>
      </trkpt>
      <trkpt lat="37.045729039236903" lon="-2.419680012390018">
        <ele>352.94</ele>
        <time>2025-05-12T13:16:11Z</time>
      </trkpt>
      <trkpt lat="37.04578603617847" lon="-2.419771961867809">
        <ele>352.94</ele>
        <time>2025-05-12T13:16:12Z</time>
      </trkpt>
      <trkpt lat="37.045828029513359" lon="-2.419810015708208">
        <ele>353.42000000000002</ele>
        <time>2025-05-12T13:16:13Z</time>
      </trkpt>
      <trkpt lat="37.045859964564443" lon="-2.419838011264801">
        <ele>353.42000000000002</ele>
        <time>2025-05-12T13:16:14Z</time>
      </trkpt>
      <trkpt lat="37.045885026454926" lon="-2.419859971851111">
        <ele>353.89999999999998</ele>
        <time>2025-05-12T13:16:15Z</time>
      </trkpt>
      <trkpt lat="37.04598200507462" lon="-2.419924009591341">
        <ele>355.33999999999997</ele>
        <time>2025-05-12T13:16:25Z</time>
      </trkpt>
      <trkpt lat="37.04598200507462" lon="-2.419924009591341">
        <ele>356.31</ele>
        <time>2025-05-12T13:16:59Z</time>
      </trkpt>
      <trkpt lat="37.04598200507462" lon="-2.419924009591341">
        <ele>356.31</ele>
        <time>2025-05-12T13:17:55Z</time>
      </trkpt>
      <trkpt lat="37.04598200507462" lon="-2.419924009591341">
        <ele>356.31</ele>
        <time>2025-05-12T13:18:55Z</time>
      </trkpt>
      <trkpt lat="37.04598200507462" lon="-2.419924009591341">
        <ele>355.82999999999998</ele>
        <time>2025-05-12T13:19:58Z</time>
      </trkpt>
      <trkpt lat="37.04598200507462" lon="-2.419924009591341">
        <ele>355.33999999999997</ele>
        <time>2025-05-12T13:20:50Z</time>
      </trkpt>
      <trkpt lat="37.04598200507462" lon="-2.419924009591341">
        <ele>354.86000000000001</ele>
        <time>2025-05-12T13:21:41Z</time>
      </trkpt>
      <trkpt lat="37.046026010066271" lon="-2.419940019026399">
        <ele>354.86000000000001</ele>
        <time>2025-05-12T13:21:45Z</time>
      </trkpt>
      <trkpt lat="37.046333039179444" lon="-2.420044960454106">
        <ele>352.94</ele>
        <time>2025-05-12T13:21:55Z</time>
      </trkpt>
      <trkpt lat="37.046965034678578" lon="-2.420262973755598">
        <ele>353.42000000000002</ele>
        <time>2025-05-12T13:22:12Z</time>
      </trkpt>
      <trkpt lat="37.047006022185087" lon="-2.420276971533895">
        <ele>353.42000000000002</ele>
        <time>2025-05-12T13:22:13Z</time>
      </trkpt>
      <trkpt lat="37.047050027176738" lon="-2.420292980968952">
        <ele>353.42000000000002</ele>
        <time>2025-05-12T13:22:14Z</time>
      </trkpt>
      <trkpt lat="37.047093026340008" lon="-2.420306978747249">
        <ele>353.42000000000002</ele>
        <time>2025-05-12T13:22:15Z</time>
      </trkpt>
      <trkpt lat="37.047130996361375" lon="-2.420319970697165">
        <ele>353.89999999999998</ele>
        <time>2025-05-12T13:22:16Z</time>
      </trkpt>
      <trkpt lat="37.047165026888251" lon="-2.420332040637732">
        <ele>353.89999999999998</ele>
        <time>2025-05-12T13:22:17Z</time>
      </trkpt>
      <trkpt lat="37.04718598164618" lon="-2.420340003445745">
        <ele>353.42000000000002</ele>
        <time>2025-05-12T13:22:18Z</time>
      </trkpt>
      <trkpt lat="37.047241972759366" lon="-2.42037302814424">
        <ele>353.42000000000002</ele>
        <time>2025-05-12T13:22:19Z</time>
      </trkpt>
      <trkpt lat="37.047273991629481" lon="-2.420391971245408">
        <ele>353.42000000000002</ele>
        <time>2025-05-12T13:22:20Z</time>
      </trkpt>
      <trkpt lat="37.047308022156358" lon="-2.420413009822369">
        <ele>353.89999999999998</ele>
        <time>2025-05-12T13:22:21Z</time>
      </trkpt>
      <trkpt lat="37.047343980520964" lon="-2.420433964580298">
        <ele>353.89999999999998</ele>
        <time>2025-05-12T13:22:22Z</time>
      </trkpt>
      <trkpt lat="37.047643968835473" lon="-2.420758008956909">
        <ele>355.33999999999997</ele>
        <time>2025-05-12T13:22:34Z</time>
      </trkpt>
      <trkpt lat="37.047846978530288" lon="-2.421032013371587">
        <ele>358.70999999999998</ele>
        <time>2025-05-12T13:22:43Z</time>
      </trkpt>
      <trkpt lat="37.047924008220434" lon="-2.421136032789946">
        <ele>360.63</ele>
        <time>2025-05-12T13:22:54Z</time>
      </trkpt>
      <trkpt lat="37.047932976856828" lon="-2.421148018911481">
        <ele>360.63</ele>
        <time>2025-05-12T13:23:01Z</time>
      </trkpt>
      <trkpt lat="37.047944962978363" lon="-2.421164028346539">
        <ele>360.63</ele>
        <time>2025-05-12T13:23:02Z</time>
      </trkpt>
      <trkpt lat="37.047973964363337" lon="-2.421204010024667">
        <ele>360.63</ele>
        <time>2025-05-12T13:23:04Z</time>
      </trkpt>
      <trkpt lat="37.047990979626775" lon="-2.421225970610976">
        <ele>360.63</ele>
        <time>2025-05-12T13:23:05Z</time>
      </trkpt>
      <trkpt lat="37.04800195991993" lon="-2.421240974217653">
        <ele>360.63</ele>
        <time>2025-05-12T13:23:06Z</time>
      </trkpt>
      <trkpt lat="37.04800195991993" lon="-2.421240974217653">
        <ele>360.63</ele>
        <time>2025-05-12T13:23:09Z</time>
      </trkpt>
      <trkpt lat="37.04800195991993" lon="-2.421240974217653">
        <ele>360.63</ele>
        <time>2025-05-12T13:23:10Z</time>
      </trkpt>
      <trkpt lat="37.04800195991993" lon="-2.421240974217653">
        <ele>360.63</ele>
        <time>2025-05-12T13:23:11Z</time>
      </trkpt>
      <trkpt lat="37.047999026253819" lon="-2.421238040551543">
        <ele>360.63</ele>
        <time>2025-05-12T13:23:12Z</time>
      </trkpt>
      <trkpt lat="37.047993997111917" lon="-2.421230999752879">
        <ele>360.63</ele>
        <time>2025-05-12T13:23:13Z</time>
      </trkpt>
      <trkpt lat="37.047927025705576" lon="-2.4212989769876">
        <ele>360.63</ele>
        <time>2025-05-12T13:23:15Z</time>
      </trkpt>
      <trkpt lat="37.047926019877195" lon="-2.421418000012636">
        <ele>361.11000000000001</ele>
        <time>2025-05-12T13:23:30Z</time>
      </trkpt>
      <trkpt lat="37.047931971028447" lon="-2.421284979209304">
        <ele>332.75</ele>
        <time>2025-05-12T13:44:31Z</time>
      </trkpt>
      <trkpt lat="37.047927025705576" lon="-2.421386986970902">
        <ele>360.14999999999998</ele>
        <time>2025-05-12T13:45:12Z</time>
      </trkpt>
      <trkpt lat="37.047910010442138" lon="-2.421391010284424">
        <ele>361.58999999999997</ele>
        <time>2025-05-12T13:46:01Z</time>
      </trkpt>
      <trkpt lat="37.047923002392054" lon="-2.421398973092437">
        <ele>361.11000000000001</ele>
        <time>2025-05-12T13:46:51Z</time>
      </trkpt>
      <trkpt lat="37.047917973250151" lon="-2.421402996405959">
        <ele>361.58999999999997</ele>
        <time>2025-05-12T13:47:47Z</time>
      </trkpt>
      <trkpt lat="37.047917973250151" lon="-2.421402996405959">
        <ele>361.11000000000001</ele>
        <time>2025-05-12T13:48:50Z</time>
      </trkpt>
      <trkpt lat="37.047918979078531" lon="-2.42140400223434">
        <ele>361.58999999999997</ele>
        <time>2025-05-12T13:49:47Z</time>
      </trkpt>
      <trkpt lat="37.047918979078531" lon="-2.42140400223434">
        <ele>361.58999999999997</ele>
        <time>2025-05-12T13:50:46Z</time>
      </trkpt>
      <trkpt lat="37.047917973250151" lon="-2.421406013891101">
        <ele>361.58999999999997</ele>
        <time>2025-05-12T13:51:39Z</time>
      </trkpt>
      <trkpt lat="37.04791596159339" lon="-2.421407019719482">
        <ele>362.06999999999999</ele>
        <time>2025-05-12T13:52:33Z</time>
      </trkpt>
      <trkpt lat="37.04791596159339" lon="-2.421409031376243">
        <ele>362.55000000000001</ele>
        <time>2025-05-12T13:53:34Z</time>
      </trkpt>
      <trkpt lat="37.04791696742177" lon="-2.421409031376243">
        <ele>363.04000000000002</ele>
        <time>2025-05-12T13:54:25Z</time>
      </trkpt>
      <trkpt lat="37.04791403375566" lon="-2.421411965042353">
        <ele>363.04000000000002</ele>
        <time>2025-05-12T13:55:24Z</time>
      </trkpt>
      <trkpt lat="37.04791596159339" lon="-2.421407019719482">
        <ele>363.51999999999998</ele>
        <time>2025-05-12T13:56:21Z</time>
      </trkpt>
      <trkpt lat="37.047909004613757" lon="-2.421363014727831">
        <ele>361.58999999999997</ele>
        <time>2025-05-12T14:45:42Z</time>
      </trkpt>
      <trkpt lat="37.047931971028447" lon="-2.421398973092437">
        <ele>363.51999999999998</ele>
        <time>2025-05-12T14:46:26Z</time>
      </trkpt>
      <trkpt lat="37.047926019877195" lon="-2.421406013891101">
        <ele>366.39999999999998</ele>
        <time>2025-05-12T14:46:56Z</time>
      </trkpt>
      <trkpt lat="37.047940017655492" lon="-2.421394027769566">
        <ele>370.24000000000001</ele>
        <time>2025-05-12T14:47:14Z</time>
      </trkpt>
      <trkpt lat="37.04797999933362" lon="-2.421210967004299">
        <ele>370.73000000000002</ele>
        <time>2025-05-12T14:47:18Z</time>
      </trkpt>
      <trkpt lat="37.047952003777027" lon="-2.421172996982932">
        <ele>370.73000000000002</ele>
        <time>2025-05-12T14:47:19Z</time>
      </trkpt>
      <trkpt lat="37.047923002392054" lon="-2.421135026961565">
        <ele>371.20999999999998</ele>
        <time>2025-05-12T14:47:20Z</time>
      </trkpt>
      <trkpt lat="37.047895006835461" lon="-2.421095967292786">
        <ele>371.20999999999998</ele>
        <time>2025-05-12T14:47:21Z</time>
      </trkpt>
      <trkpt lat="37.047867011278868" lon="-2.421059003099799">
        <ele>371.20999999999998</ele>
        <time>2025-05-12T14:47:22Z</time>
      </trkpt>
      <trkpt lat="37.047840021550655" lon="-2.421022038906813">
        <ele>370.73000000000002</ele>
        <time>2025-05-12T14:47:23Z</time>
      </trkpt>
      <trkpt lat="37.047814037650824" lon="-2.420987002551556">
        <ele>370.73000000000002</ele>
        <time>2025-05-12T14:47:24Z</time>
      </trkpt>
      <trkpt lat="37.047789981588721" lon="-2.42095498368144">
        <ele>370.73000000000002</ele>
        <time>2025-05-12T14:47:25Z</time>
      </trkpt>
      <trkpt lat="37.047768021002412" lon="-2.420924976468086">
        <ele>370.73000000000002</ele>
        <time>2025-05-12T14:47:26Z</time>
      </trkpt>
      <trkpt lat="37.04774497076869" lon="-2.420893963426352">
        <ele>370.73000000000002</ele>
        <time>2025-05-12T14:47:27Z</time>
      </trkpt>
      <trkpt lat="37.047642963007092" lon="-2.420757003128529">
        <ele>371.20999999999998</ele>
        <time>2025-05-12T14:47:31Z</time>
      </trkpt>
      <trkpt lat="37.04761597327888" lon="-2.420720038935542">
        <ele>371.20999999999998</ele>
        <time>2025-05-12T14:47:32Z</time>
      </trkpt>
      <trkpt lat="37.047587977722287" lon="-2.420682990923524">
        <ele>371.20999999999998</ele>
        <time>2025-05-12T14:47:33Z</time>
      </trkpt>
      <trkpt lat="37.047564005479217" lon="-2.420651977881789">
        <ele>371.20999999999998</ele>
        <time>2025-05-12T14:47:34Z</time>
      </trkpt>
      <trkpt lat="37.047533998265862" lon="-2.420618031173945">
        <ele>370.73000000000002</ele>
        <time>2025-05-12T14:47:35Z</time>
      </trkpt>
      <trkpt lat="37.047503991052508" lon="-2.420585006475449">
        <ele>370.73000000000002</ele>
        <time>2025-05-12T14:47:36Z</time>
      </trkpt>
      <trkpt lat="37.047471972182393" lon="-2.42054795846343">
        <ele>370.73000000000002</ele>
        <time>2025-05-12T14:47:37Z</time>
      </trkpt>
      <trkpt lat="37.047437019646168" lon="-2.420508982613683">
        <ele>370.24000000000001</ele>
        <time>2025-05-12T14:47:38Z</time>
      </trkpt>
      <trkpt lat="37.04735797829926" lon="-2.420443017035723">
        <ele>369.75999999999999</ele>
        <time>2025-05-12T14:47:40Z</time>
      </trkpt>
      <trkpt lat="37.046550968661904" lon="-2.420120984315872">
        <ele>365.44</ele>
        <time>2025-05-12T14:47:57Z</time>
      </trkpt>
      <trkpt lat="37.046406967565417" lon="-2.42007102817297">
        <ele>364.48000000000002</ele>
        <time>2025-05-12T14:48:00Z</time>
      </trkpt>
      <trkpt lat="37.046230025589466" lon="-2.420010007917881">
        <ele>363.51999999999998</ele>
        <time>2025-05-12T14:48:04Z</time>
      </trkpt>
      <trkpt lat="37.046051993966103" lon="-2.419948987662792">
        <ele>362.55000000000001</ele>
        <time>2025-05-12T14:48:08Z</time>
      </trkpt>
      <trkpt lat="37.046007988974452" lon="-2.419932978227735">
        <ele>362.06999999999999</ele>
        <time>2025-05-12T14:48:09Z</time>
      </trkpt>
      <trkpt lat="37.045899024233222" lon="-2.419872963801026">
        <ele>361.58999999999997</ele>
        <time>2025-05-12T14:48:11Z</time>
      </trkpt>
      <trkpt lat="37.045730967074633" lon="-2.419685963541269">
        <ele>360.63</ele>
        <time>2025-05-12T14:48:14Z</time>
      </trkpt>
      <trkpt lat="37.045701965689659" lon="-2.419598959386349">
        <ele>360.63</ele>
        <time>2025-05-12T14:48:15Z</time>
      </trkpt>
      <trkpt lat="37.045669024810195" lon="-2.419499969109893">
        <ele>360.63</ele>
        <time>2025-05-12T14:48:16Z</time>
      </trkpt>
      <trkpt lat="37.04563700594008" lon="-2.419388992711902">
        <ele>360.63</ele>
        <time>2025-05-12T14:48:17Z</time>
      </trkpt>
      <trkpt lat="37.04561797901988" lon="-2.419272987172008">
        <ele>360.63</ele>
        <time>2025-05-12T14:48:18Z</time>
      </trkpt>
      <trkpt lat="37.045484958216548" lon="-2.418635962530971">
        <ele>358.70999999999998</ele>
        <time>2025-05-12T14:48:24Z</time>
      </trkpt>
      <trkpt lat="37.045443970710039" lon="-2.418538983911276">
        <ele>358.23000000000002</ele>
        <time>2025-05-12T14:48:25Z</time>
      </trkpt>
      <trkpt lat="37.04540298320353" lon="-2.41843999363482">
        <ele>357.75</ele>
        <time>2025-05-12T14:48:26Z</time>
      </trkpt>
      <trkpt lat="37.04520802013576" lon="-2.418142016977072">
        <ele>355.33999999999997</ele>
        <time>2025-05-12T14:48:29Z</time>
      </trkpt>
      <trkpt lat="37.045039040967822" lon="-2.417964991182089">
        <ele>353.42000000000002</ele>
        <time>2025-05-12T14:48:31Z</time>
      </trkpt>
      <trkpt lat="37.044935021549463" lon="-2.417930038645864">
        <ele>351.98000000000002</ele>
        <time>2025-05-12T14:48:32Z</time>
      </trkpt>
      <trkpt lat="37.04482396133244" lon="-2.417915035039187">
        <ele>350.54000000000002</ele>
        <time>2025-05-12T14:48:33Z</time>
      </trkpt>
      <trkpt lat="37.044703010469675" lon="-2.417915035039187">
        <ele>349.10000000000002</ele>
        <time>2025-05-12T14:48:34Z</time>
      </trkpt>
      <trkpt lat="37.044578036293387" lon="-2.417929032817483">
        <ele>347.64999999999998</ele>
        <time>2025-05-12T14:48:35Z</time>
      </trkpt>
      <trkpt lat="37.04445700161159" lon="-2.417960967868567">
        <ele>346.20999999999998</ele>
        <time>2025-05-12T14:48:36Z</time>
      </trkpt>
      <trkpt lat="37.044335966929793" lon="-2.417991980910301">
        <ele>344.29000000000002</ele>
        <time>2025-05-12T14:48:37Z</time>
      </trkpt>
      <trkpt lat="37.04422197304666" lon="-2.418021988123655">
        <ele>342.37</ele>
        <time>2025-05-12T14:48:38Z</time>
      </trkpt>
      <trkpt lat="37.044120971113443" lon="-2.418035985901952">
        <ele>339.95999999999998</ele>
        <time>2025-05-12T14:48:39Z</time>
      </trkpt>
      <trkpt lat="37.044022986665368" lon="-2.417997010052204">
        <ele>338.51999999999998</ele>
        <time>2025-05-12T14:48:40Z</time>
      </trkpt>
      <trkpt lat="37.043925002217293" lon="-2.417958034202457">
        <ele>336.60000000000002</ele>
        <time>2025-05-12T14:48:41Z</time>
      </trkpt>
      <trkpt lat="37.043865993618965" lon="-2.417891984805465">
        <ele>335.16000000000003</ele>
        <time>2025-05-12T14:48:42Z</time>
      </trkpt>
      <trkpt lat="37.043807990849018" lon="-2.417829036712647">
        <ele>333.70999999999998</ele>
        <time>2025-05-12T14:48:43Z</time>
      </trkpt>
      <trkpt lat="37.043716041371226" lon="-2.41770900785923">
        <ele>330.82999999999998</ele>
        <time>2025-05-12T14:48:45Z</time>
      </trkpt>
      <trkpt lat="37.043560976162553" lon="-2.41736400872469">
        <ele>321.22000000000003</ele>
        <time>2025-05-12T14:48:53Z</time>
      </trkpt>
      <trkpt lat="37.043539015576243" lon="-2.417312962934375">
        <ele>319.30000000000001</ele>
        <time>2025-05-12T14:48:55Z</time>
      </trkpt>
      <trkpt lat="37.043566005304456" lon="-2.417223025113344">
        <ele>318.32999999999998</ele>
        <time>2025-05-12T14:48:56Z</time>
      </trkpt>
      <trkpt lat="37.043581008911133" lon="-2.417170973494649">
        <ele>317.85000000000002</ele>
        <time>2025-05-12T14:48:57Z</time>
      </trkpt>
      <trkpt lat="37.043615961447358" lon="-2.417054967954755">
        <ele>316.41000000000003</ele>
        <time>2025-05-12T14:48:59Z</time>
      </trkpt>
      <trkpt lat="37.043631970882416" lon="-2.417001994326711">
        <ele>315.93000000000001</ele>
        <time>2025-05-12T14:49:00Z</time>
      </trkpt>
      <trkpt lat="37.043674970045686" lon="-2.416860004886985">
        <ele>314.00999999999999</ele>
        <time>2025-05-12T14:49:09Z</time>
      </trkpt>
      <trkpt lat="37.043674970045686" lon="-2.416860004886985">
        <ele>314.97000000000003</ele>
        <time>2025-05-12T14:49:50Z</time>
      </trkpt>
      <trkpt lat="37.043674970045686" lon="-2.416860004886985">
        <ele>315.44999999999999</ele>
        <time>2025-05-12T14:50:43Z</time>
      </trkpt>
      <trkpt lat="37.043674970045686" lon="-2.416860004886985">
        <ele>315.93000000000001</ele>
        <time>2025-05-12T14:51:35Z</time>
      </trkpt>
      <trkpt lat="37.043674970045686" lon="-2.416860004886985">
        <ele>317.85000000000002</ele>
        <time>2025-05-12T14:52:06Z</time>
      </trkpt>
      <trkpt lat="37.043674970045686" lon="-2.416860004886985">
        <ele>321.22000000000003</ele>
        <time>2025-05-12T14:52:22Z</time>
      </trkpt>
      <trkpt lat="37.043674970045686" lon="-2.416860004886985">
        <ele>321.69999999999999</ele>
        <time>2025-05-12T14:52:23Z</time>
      </trkpt>
      <trkpt lat="37.043469026684761" lon="-2.417170973494649">
        <ele>324.10000000000002</ele>
        <time>2025-05-12T14:52:33Z</time>
      </trkpt>
      <trkpt lat="37.043453017249703" lon="-2.417138032615185">
        <ele>324.10000000000002</ele>
        <time>2025-05-12T14:52:34Z</time>
      </trkpt>
      <trkpt lat="37.043426027521491" lon="-2.417082963511348">
        <ele>324.10000000000002</ele>
        <time>2025-05-12T14:52:35Z</time>
      </trkpt>
      <trkpt lat="37.043088991194963" lon="-2.416390031576157">
        <ele>327.94999999999999</ele>
        <time>2025-05-12T14:52:42Z</time>
      </trkpt>
      <trkpt lat="37.042814986780286" lon="-2.415828024968505">
        <ele>335.63999999999999</ele>
        <time>2025-05-12T14:52:47Z</time>
      </trkpt>
      <trkpt lat="37.042766958475113" lon="-2.415729034692049">
        <ele>337.07999999999998</ele>
        <time>2025-05-12T14:52:48Z</time>
      </trkpt>
      <trkpt lat="37.042755978181958" lon="-2.415587967261672">
        <ele>339</ele>
        <time>2025-05-12T14:52:49Z</time>
      </trkpt>
      <trkpt lat="37.042769975960255" lon="-2.415465004742146">
        <ele>340.44</ele>
        <time>2025-05-12T14:52:50Z</time>
      </trkpt>
      <trkpt lat="37.042783973738551" lon="-2.415338018909097">
        <ele>341.88999999999999</ele>
        <time>2025-05-12T14:52:51Z</time>
      </trkpt>
      <trkpt lat="37.042798977345228" lon="-2.415210027247667">
        <ele>343.81</ele>
        <time>2025-05-12T14:52:52Z</time>
      </trkpt>
      <trkpt lat="37.042814986780286" lon="-2.415074994787574">
        <ele>345.25</ele>
        <time>2025-05-12T14:52:53Z</time>
      </trkpt>
      <trkpt lat="37.042938033118844" lon="-2.413886021822691">
        <ele>359.19</ele>
        <time>2025-05-12T14:53:02Z</time>
      </trkpt>
      <trkpt lat="37.042749021202326" lon="-2.412565033882856">
        <ele>367.83999999999997</ele>
        <time>2025-05-12T14:53:14Z</time>
      </trkpt>
      <trkpt lat="37.042621029540896" lon="-2.411705972626805">
        <ele>369.27999999999997</ele>
        <time>2025-05-12T14:53:23Z</time>
      </trkpt>
      <trkpt lat="37.042606025934219" lon="-2.411623997613788">
        <ele>369.27999999999997</ele>
        <time>2025-05-12T14:53:24Z</time>
      </trkpt>
      <trkpt lat="37.042589010670781" lon="-2.411545962095261">
        <ele>369.27999999999997</ele>
        <time>2025-05-12T14:53:25Z</time>
      </trkpt>
      <trkpt lat="37.042573001235723" lon="-2.411473039537668">
        <ele>369.75999999999999</ele>
        <time>2025-05-12T14:53:26Z</time>
      </trkpt>
      <trkpt lat="37.042557997629046" lon="-2.411403972655535">
        <ele>369.75999999999999</ele>
        <time>2025-05-12T14:53:27Z</time>
      </trkpt>
      <trkpt lat="37.042545005679131" lon="-2.411341024562717">
        <ele>369.75999999999999</ele>
        <time>2025-05-12T14:53:28Z</time>
      </trkpt>
      <trkpt lat="37.042533019557595" lon="-2.41128696128726">
        <ele>369.75999999999999</ele>
        <time>2025-05-12T14:53:29Z</time>
      </trkpt>
      <trkpt lat="37.04252396710217" lon="-2.411244967952371">
        <ele>369.75999999999999</ele>
        <time>2025-05-12T14:53:30Z</time>
      </trkpt>
      <trkpt lat="37.042518015950918" lon="-2.411216972395778">
        <ele>369.75999999999999</ele>
        <time>2025-05-12T14:53:31Z</time>
      </trkpt>
      <trkpt lat="37.042513992637396" lon="-2.411199035122991">
        <ele>369.75999999999999</ele>
        <time>2025-05-12T14:53:32Z</time>
      </trkpt>
      <trkpt lat="37.042513992637396" lon="-2.411199035122991">
        <ele>370.24000000000001</ele>
        <time>2025-05-12T14:53:37Z</time>
      </trkpt>
      <trkpt lat="37.042160024866462" lon="-2.411230970174074">
        <ele>371.20999999999998</ele>
        <time>2025-05-12T14:53:40Z</time>
      </trkpt>
      <trkpt lat="37.042131023481488" lon="-2.411319985985756">
        <ele>371.69</ele>
        <time>2025-05-12T14:53:41Z</time>
      </trkpt>
      <trkpt lat="37.042103027924895" lon="-2.411407995969057">
        <ele>371.69</ele>
        <time>2025-05-12T14:53:42Z</time>
      </trkpt>
      <trkpt lat="37.042066985741258" lon="-2.411519978195429">
        <ele>371.69</ele>
        <time>2025-05-12T14:53:43Z</time>
      </trkpt>
      <trkpt lat="37.041674964129925" lon="-2.412475012242794">
        <ele>370.73000000000002</ele>
        <time>2025-05-12T14:53:49Z</time>
      </trkpt>
      <trkpt lat="37.040915982797742" lon="-2.413399033248425">
        <ele>370.73000000000002</ele>
        <time>2025-05-12T14:53:55Z</time>
      </trkpt>
      <trkpt lat="37.03938502818346" lon="-2.414341997355223">
        <ele>365.92000000000002</ele>
        <time>2025-05-12T14:54:04Z</time>
      </trkpt>
      <trkpt lat="37.038109973073006" lon="-2.415393004193902">
        <ele>360.63</ele>
        <time>2025-05-12T14:54:12Z</time>
      </trkpt>
      <trkpt lat="37.037026025354862" lon="-2.417024038732052">
        <ele>356.31</ele>
        <time>2025-05-12T14:54:20Z</time>
      </trkpt>
      <trkpt lat="37.035376969724894" lon="-2.419872963801026">
        <ele>347.17000000000002</ele>
        <time>2025-05-12T14:54:33Z</time>
      </trkpt>
      <trkpt lat="37.033660020679235" lon="-2.422727001830936">
        <ele>343.81</ele>
        <time>2025-05-12T14:54:46Z</time>
      </trkpt>
      <trkpt lat="37.033404037356377" lon="-2.423112988471985">
        <ele>342.37</ele>
        <time>2025-05-12T14:54:48Z</time>
      </trkpt>
      <trkpt lat="37.033246960490942" lon="-2.423243997618556">
        <ele>341.88999999999999</ele>
        <time>2025-05-12T14:54:49Z</time>
      </trkpt>
      <trkpt lat="37.0330919791013" lon="-2.423357991501689">
        <ele>340.92000000000002</ele>
        <time>2025-05-12T14:54:50Z</time>
      </trkpt>
      <trkpt lat="37.032932974398136" lon="-2.423450024798513">
        <ele>339.95999999999998</ele>
        <time>2025-05-12T14:54:51Z</time>
      </trkpt>
      <trkpt lat="37.032776987180114" lon="-2.423497969284654">
        <ele>339</ele>
        <time>2025-05-12T14:54:52Z</time>
      </trkpt>
      <trkpt lat="37.032616976648569" lon="-2.423533005639911">
        <ele>338.04000000000002</ele>
        <time>2025-05-12T14:54:53Z</time>
      </trkpt>
      <trkpt lat="37.032464006915689" lon="-2.423566030338407">
        <ele>337.07999999999998</ele>
        <time>2025-05-12T14:54:54Z</time>
      </trkpt>
      <trkpt lat="37.032320005819201" lon="-2.423555972054601">
        <ele>336.12</ele>
        <time>2025-05-12T14:54:55Z</time>
      </trkpt>
      <trkpt lat="37.032173993065953" lon="-2.423512972891331">
        <ele>334.68000000000001</ele>
        <time>2025-05-12T14:54:56Z</time>
      </trkpt>
      <trkpt lat="37.032027980312705" lon="-2.423470979556441">
        <ele>333.70999999999998</ele>
        <time>2025-05-12T14:54:57Z</time>
      </trkpt>
      <trkpt lat="37.031882973387837" lon="-2.423427980393171">
        <ele>332.75</ele>
        <time>2025-05-12T14:54:58Z</time>
      </trkpt>
      <trkpt lat="37.031733021140099" lon="-2.423355979844928">
        <ele>331.79000000000002</ele>
        <time>2025-05-12T14:54:59Z</time>
      </trkpt>
      <trkpt lat="37.031582985073328" lon="-2.423283979296684">
        <ele>330.82999999999998</ele>
        <time>2025-05-12T14:55:00Z</time>
      </trkpt>
      <trkpt lat="37.03143697232008" lon="-2.423213990405202">
        <ele>330.35000000000002</ele>
        <time>2025-05-12T14:55:01Z</time>
      </trkpt>
      <trkpt lat="37.031296994537115" lon="-2.423157999292016">
        <ele>329.38999999999999</ele>
        <time>2025-05-12T14:55:02Z</time>
      </trkpt>
      <trkpt lat="37.031160034239292" lon="-2.423120029270649">
        <ele>328.91000000000003</ele>
        <time>2025-05-12T14:55:03Z</time>
      </trkpt>
      <trkpt lat="37.031016033142805" lon="-2.423120029270649">
        <ele>328.43000000000001</ele>
        <time>2025-05-12T14:55:04Z</time>
      </trkpt>
      <trkpt lat="37.030888041481376" lon="-2.423183983191848">
        <ele>328.43000000000001</ele>
        <time>2025-05-12T14:55:05Z</time>
      </trkpt>
      <trkpt lat="37.030795002356172" lon="-2.423277022317052">
        <ele>328.43000000000001</ele>
        <time>2025-05-12T14:55:06Z</time>
      </trkpt>
      <trkpt lat="37.030753009021282" lon="-2.423405013978481">
        <ele>327.94999999999999</ele>
        <time>2025-05-12T14:55:07Z</time>
      </trkpt>
      <trkpt lat="37.030709004029632" lon="-2.423543985933065">
        <ele>327.47000000000003</ele>
        <time>2025-05-12T14:55:08Z</time>
      </trkpt>
      <trkpt lat="37.03066298738122" lon="-2.423692010343075">
        <ele>327.47000000000003</ele>
        <time>2025-05-12T14:55:09Z</time>
      </trkpt>
      <trkpt lat="37.030632980167866" lon="-2.423859983682632">
        <ele>326.99000000000001</ele>
        <time>2025-05-12T14:55:10Z</time>
      </trkpt>
      <trkpt lat="37.030273983255029" lon="-2.425813972949982">
        <ele>320.25999999999999</ele>
        <time>2025-05-12T14:55:20Z</time>
      </trkpt>
      <trkpt lat="37.030214974656701" lon="-2.426009019836783">
        <ele>319.30000000000001</ele>
        <time>2025-05-12T14:55:21Z</time>
      </trkpt>
      <trkpt lat="37.030141968280077" lon="-2.426197025924921">
        <ele>318.32999999999998</ele>
        <time>2025-05-12T14:55:22Z</time>
      </trkpt>
      <trkpt lat="37.030034009367228" lon="-2.426359970122576">
        <ele>317.85000000000002</ele>
        <time>2025-05-12T14:55:23Z</time>
      </trkpt>
      <trkpt lat="37.029920015484095" lon="-2.426517968997359">
        <ele>316.88999999999999</ele>
        <time>2025-05-12T14:55:24Z</time>
      </trkpt>
      <trkpt lat="37.029794035479426" lon="-2.426662975922227">
        <ele>315.93000000000001</ele>
        <time>2025-05-12T14:55:25Z</time>
      </trkpt>
      <trkpt lat="37.029668977484107" lon="-2.426804965361953">
        <ele>314.97000000000003</ele>
        <time>2025-05-12T14:55:26Z</time>
      </trkpt>
      <trkpt lat="37.029531011357903" lon="-2.42692600004375">
        <ele>314.00999999999999</ele>
        <time>2025-05-12T14:55:27Z</time>
      </trkpt>
      <trkpt lat="37.028291998431087" lon="-2.427809033542872">
        <ele>316.41000000000003</ele>
        <time>2025-05-12T14:55:35Z</time>
      </trkpt>
      <trkpt lat="37.028112038969994" lon="-2.427843986079097">
        <ele>317.37</ele>
        <time>2025-05-12T14:55:36Z</time>
      </trkpt>
      <trkpt lat="37.02793300151825" lon="-2.427879022434354">
        <ele>318.32999999999998</ele>
        <time>2025-05-12T14:55:37Z</time>
      </trkpt>
      <trkpt lat="37.027752036228776" lon="-2.427913974970579">
        <ele>319.30000000000001</ele>
        <time>2025-05-12T14:55:38Z</time>
      </trkpt>
      <trkpt lat="37.02756897546351" lon="-2.427929984405637">
        <ele>320.74000000000001</ele>
        <time>2025-05-12T14:55:39Z</time>
      </trkpt>
      <trkpt lat="37.025857977569103" lon="-2.427897965535522">
        <ele>326.99000000000001</ele>
        <time>2025-05-12T14:55:48Z</time>
      </trkpt>
      <trkpt lat="37.025682041421533" lon="-2.427964014932513">
        <ele>326.99000000000001</ele>
        <time>2025-05-12T14:55:49Z</time>
      </trkpt>
      <trkpt lat="37.025521025061607" lon="-2.428061999380589">
        <ele>327.47000000000003</ele>
        <time>2025-05-12T14:55:50Z</time>
      </trkpt>
      <trkpt lat="37.025362020358443" lon="-2.428169958293438">
        <ele>327.47000000000003</ele>
        <time>2025-05-12T14:55:51Z</time>
      </trkpt>
      <trkpt lat="37.02520796097815" lon="-2.428295016288757">
        <ele>327.47000000000003</ele>
        <time>2025-05-12T14:55:52Z</time>
      </trkpt>
      <trkpt lat="37.025083992630243" lon="-2.428466007113457">
        <ele>327.47000000000003</ele>
        <time>2025-05-12T14:55:53Z</time>
      </trkpt>
      <trkpt lat="37.024958012625575" lon="-2.428639009594917">
        <ele>327.47000000000003</ele>
        <time>2025-05-12T14:55:54Z</time>
      </trkpt>
      <trkpt lat="37.024851981550455" lon="-2.428827015683055">
        <ele>326.99000000000001</ele>
        <time>2025-05-12T14:55:55Z</time>
      </trkpt>
      <trkpt lat="37.024766989052296" lon="-2.429032037034631">
        <ele>326.5</ele>
        <time>2025-05-12T14:55:56Z</time>
      </trkpt>
      <trkpt lat="37.024699011817575" lon="-2.42924502119422">
        <ele>326.01999999999998</ele>
        <time>2025-05-12T14:55:57Z</time>
      </trkpt>
      <trkpt lat="37.024634974077344" lon="-2.429465968161821">
        <ele>325.54000000000002</ele>
        <time>2025-05-12T14:55:58Z</time>
      </trkpt>
      <trkpt lat="37.023956039920449" lon="-2.431996967643499">
        <ele>315.44999999999999</ele>
        <time>2025-05-12T14:56:10Z</time>
      </trkpt>
      <trkpt lat="37.023889990523458" lon="-2.432171981781721">
        <ele>314.49000000000001</ele>
        <time>2025-05-12T14:56:11Z</time>
      </trkpt>
      <trkpt lat="37.023798041045666" lon="-2.432316988706589">
        <ele>313.52999999999997</ele>
        <time>2025-05-12T14:56:12Z</time>
      </trkpt>
      <trkpt lat="37.023687986657023" lon="-2.432437017560005">
        <ele>312.56999999999999</ele>
        <time>2025-05-12T14:56:13Z</time>
      </trkpt>
      <trkpt lat="37.023574998602271" lon="-2.432548999786377">
        <ele>311.60000000000002</ele>
        <time>2025-05-12T14:56:14Z</time>
      </trkpt>
      <trkpt lat="37.023450024425983" lon="-2.43264002725482">
        <ele>311.12</ele>
        <time>2025-05-12T14:56:15Z</time>
      </trkpt>
      <trkpt lat="37.023326978087425" lon="-2.432731976732612">
        <ele>310.16000000000003</ele>
        <time>2025-05-12T14:56:16Z</time>
      </trkpt>
      <trkpt lat="37.021955028176308" lon="-2.433648034930229">
        <ele>306.31999999999999</ele>
        <time>2025-05-12T14:56:26Z</time>
      </trkpt>
      <trkpt lat="37.021628972142935" lon="-2.433982975780964">
        <ele>306.80000000000001</ele>
        <time>2025-05-12T14:56:29Z</time>
      </trkpt>
      <trkpt lat="37.021540962159634" lon="-2.434086995199323">
        <ele>307.27999999999997</ele>
        <time>2025-05-12T14:56:30Z</time>
      </trkpt>
      <trkpt lat="37.021467033773661" lon="-2.43418799713254">
        <ele>307.75999999999999</ele>
        <time>2025-05-12T14:56:31Z</time>
      </trkpt>
      <trkpt lat="37.021411964669824" lon="-2.434310959652066">
        <ele>307.75999999999999</ele>
        <time>2025-05-12T14:56:32Z</time>
      </trkpt>
      <trkpt lat="37.021356979385018" lon="-2.434433000162244">
        <ele>307.75999999999999</ele>
        <time>2025-05-12T14:56:33Z</time>
      </trkpt>
      <trkpt lat="37.020782986655831" lon="-2.435810985043645">
        <ele>305.36000000000001</ele>
        <time>2025-05-12T14:56:43Z</time>
      </trkpt>
      <trkpt lat="37.020323993638158" lon="-2.437592977657914">
        <ele>299.11000000000001</ele>
        <time>2025-05-12T14:56:53Z</time>
      </trkpt>
      <trkpt lat="37.019988968968391" lon="-2.43973103351891">
        <ele>290.45999999999998</ele>
        <time>2025-05-12T14:57:05Z</time>
      </trkpt>
      <trkpt lat="37.019494017586112" lon="-2.441104995086789">
        <ele>282.76999999999998</ele>
        <time>2025-05-12T14:57:14Z</time>
      </trkpt>
      <trkpt lat="37.019397038966417" lon="-2.441233992576599">
        <ele>281.80000000000001</ele>
        <time>2025-05-12T14:57:15Z</time>
      </trkpt>
      <trkpt lat="37.019292013719678" lon="-2.441352009773254">
        <ele>280.83999999999997</ele>
        <time>2025-05-12T14:57:16Z</time>
      </trkpt>
      <trkpt lat="37.019181959331036" lon="-2.441469021141529">
        <ele>279.88</ele>
        <time>2025-05-12T14:57:17Z</time>
      </trkpt>
      <trkpt lat="37.019054973497987" lon="-2.441603969782591">
        <ele>278.92000000000002</ele>
        <time>2025-05-12T14:57:18Z</time>
      </trkpt>
      <trkpt lat="37.018769988790154" lon="-2.44192399084568">
        <ele>276.04000000000002</ele>
        <time>2025-05-12T14:57:21Z</time>
      </trkpt>
      <trkpt lat="37.018692959100008" lon="-2.442057011649013">
        <ele>275.06999999999999</ele>
        <time>2025-05-12T14:57:22Z</time>
      </trkpt>
      <trkpt lat="37.018649959936738" lon="-2.442206963896751">
        <ele>274.11000000000001</ele>
        <time>2025-05-12T14:57:23Z</time>
      </trkpt>
      <trkpt lat="37.018620958551764" lon="-2.442366974428296">
        <ele>273.14999999999998</ele>
        <time>2025-05-12T14:57:24Z</time>
      </trkpt>
      <trkpt lat="37.018606038764119" lon="-2.442508963868022">
        <ele>272.67000000000002</ele>
        <time>2025-05-12T14:57:25Z</time>
      </trkpt>
      <trkpt lat="37.018611989915371" lon="-2.442661011591554">
        <ele>272.19</ele>
        <time>2025-05-12T14:57:26Z</time>
      </trkpt>
      <trkpt lat="37.018665969371796" lon="-2.443729033693671">
        <ele>270.75</ele>
        <time>2025-05-12T14:57:35Z</time>
      </trkpt>
      <trkpt lat="37.018668986856937" lon="-2.4437499884516">
        <ele>270.75</ele>
        <time>2025-05-12T14:57:36Z</time>
      </trkpt>
      <trkpt lat="37.018740987405181" lon="-2.443892983719707">
        <ele>271.23000000000002</ele>
        <time>2025-05-12T14:57:37Z</time>
      </trkpt>
      <trkpt lat="37.01884500682354" lon="-2.444030027836561">
        <ele>271.23000000000002</ele>
        <time>2025-05-12T14:57:39Z</time>
      </trkpt>
      <trkpt lat="37.01891197822988" lon="-2.444045031443238">
        <ele>271.70999999999998</ele>
        <time>2025-05-12T14:57:40Z</time>
      </trkpt>
      <trkpt lat="37.018988002091646" lon="-2.444061040878296">
        <ele>271.70999999999998</ele>
        <time>2025-05-12T14:57:41Z</time>
      </trkpt>
      <trkpt lat="37.019067965447903" lon="-2.444047965109348">
        <ele>272.19</ele>
        <time>2025-05-12T14:57:42Z</time>
      </trkpt>
      <trkpt lat="37.019142983481288" lon="-2.443994991481304">
        <ele>272.19</ele>
        <time>2025-05-12T14:57:43Z</time>
      </trkpt>
      <trkpt lat="37.019224958494306" lon="-2.443936988711357">
        <ele>273.14999999999998</ele>
        <time>2025-05-12T14:57:44Z</time>
      </trkpt>
      <trkpt lat="37.019518995657563" lon="-2.443728027865291">
        <ele>274.58999999999997</ele>
        <time>2025-05-12T14:57:47Z</time>
      </trkpt>
      <trkpt lat="37.019641036167741" lon="-2.443675976246595">
        <ele>275.06999999999999</ele>
        <time>2025-05-12T14:57:48Z</time>
      </trkpt>
      <trkpt lat="37.019773973152041" lon="-2.443631971254945">
        <ele>275.56</ele>
        <time>2025-05-12T14:57:49Z</time>
      </trkpt>
      <trkpt lat="37.019916968420148" lon="-2.4435980245471">
        <ele>276.04000000000002</ele>
        <time>2025-05-12T14:57:50Z</time>
      </trkpt>
      <trkpt lat="37.020063987001777" lon="-2.443594001233578">
        <ele>277</ele>
        <time>2025-05-12T14:57:51Z</time>
      </trkpt>
      <trkpt lat="37.020215028896928" lon="-2.443589977920055">
        <ele>277.95999999999998</ele>
        <time>2025-05-12T14:57:52Z</time>
      </trkpt>
      <trkpt lat="37.021837010979652" lon="-2.443591989576817">
        <ele>285.17000000000002</ele>
        <time>2025-05-12T14:58:01Z</time>
      </trkpt>
      <trkpt lat="37.023366037756205" lon="-2.443884015083313">
        <ele>289.49000000000001</ele>
        <time>2025-05-12T14:58:08Z</time>
      </trkpt>
      <trkpt lat="37.024893974885345" lon="-2.444756990298629">
        <ele>298.14999999999998</ele>
        <time>2025-05-12T14:58:15Z</time>
      </trkpt>
      <trkpt lat="37.026146985590458" lon="-2.446195995435119">
        <ele>308.24000000000001</ele>
        <time>2025-05-12T14:58:22Z</time>
      </trkpt>
      <trkpt lat="37.02760904096067" lon="-2.448654994368553">
        <ele>323.62</ele>
        <time>2025-05-12T14:58:32Z</time>
      </trkpt>
      <trkpt lat="37.02935297973454" lon="-2.450787015259266">
        <ele>342.37</ele>
        <time>2025-05-12T14:58:42Z</time>
      </trkpt>
      <trkpt lat="37.031331025063992" lon="-2.453088015317917">
        <ele>364</ele>
        <time>2025-05-12T14:58:53Z</time>
      </trkpt>
      <trkpt lat="37.032815041020513" lon="-2.455574003979564">
        <ele>383.69999999999999</ele>
        <time>2025-05-12T14:59:03Z</time>
      </trkpt>
      <trkpt lat="37.034080037847161" lon="-2.458600960671902">
        <ele>401.49000000000001</ele>
        <time>2025-05-12T14:59:14Z</time>
      </trkpt>
      <trkpt lat="37.035752981901169" lon="-2.462061010301113">
        <ele>420.70999999999998</ele>
        <time>2025-05-12T14:59:27Z</time>
      </trkpt>
      <trkpt lat="37.037498010322452" lon="-2.46469602920115">
        <ele>433.20999999999998</ele>
        <time>2025-05-12T14:59:38Z</time>
      </trkpt>
      <trkpt lat="37.039714017882943" lon="-2.467198027297854">
        <ele>441.38</ele>
        <time>2025-05-12T14:59:50Z</time>
      </trkpt>
      <trkpt lat="37.042239988222718" lon="-2.469200966879726">
        <ele>447.63</ele>
        <time>2025-05-12T15:00:02Z</time>
      </trkpt>
      <trkpt lat="37.046031961217523" lon="-2.471537003293634">
        <ele>459.64999999999998</ele>
        <time>2025-05-12T15:00:19Z</time>
      </trkpt>
      <trkpt lat="37.048944002017379" lon="-2.473313966766">
        <ele>471.18000000000001</ele>
        <time>2025-05-12T15:00:32Z</time>
      </trkpt>
      <trkpt lat="37.052743015810847" lon="-2.475644974038005">
        <ele>484.16000000000003</ele>
        <time>2025-05-12T15:00:49Z</time>
      </trkpt>
      <trkpt lat="37.055344004184008" lon="-2.477498967200518">
        <ele>493.76999999999998</ele>
        <time>2025-05-12T15:01:01Z</time>
      </trkpt>
      <trkpt lat="37.057247031480074" lon="-2.479496961459518">
        <ele>501.94999999999999</ele>
        <time>2025-05-12T15:01:11Z</time>
      </trkpt>
      <trkpt lat="37.058830037713051" lon="-2.481899969279766">
        <ele>510.60000000000002</ele>
        <time>2025-05-12T15:01:21Z</time>
      </trkpt>
      <trkpt lat="37.060731975361705" lon="-2.485163966193795">
        <ele>519.73000000000002</ele>
        <time>2025-05-12T15:01:34Z</time>
      </trkpt>
      <trkpt lat="37.062550010159612" lon="-2.487281989306212">
        <ele>526.94000000000005</ele>
        <time>2025-05-12T15:01:44Z</time>
      </trkpt>
      <trkpt lat="37.064649006351829" lon="-2.48897303827107">
        <ele>534.14999999999998</ele>
        <time>2025-05-12T15:01:54Z</time>
      </trkpt>
      <trkpt lat="37.067698007449508" lon="-2.491084020584822">
        <ele>547.13</ele>
        <time>2025-05-12T15:02:08Z</time>
      </trkpt>
      <trkpt lat="37.069953996688128" lon="-2.493010014295578">
        <ele>560.11000000000001</ele>
        <time>2025-05-12T15:02:19Z</time>
      </trkpt>
      <trkpt lat="37.071082033216953" lon="-2.49492896720767">
        <ele>568.27999999999997</ele>
        <time>2025-05-12T15:02:26Z</time>
      </trkpt>
      <trkpt lat="37.072421964257956" lon="-2.497760038822889">
        <ele>579.33000000000004</ele>
        <time>2025-05-12T15:02:35Z</time>
      </trkpt>
      <trkpt lat="37.073913021013141" lon="-2.499512024223805">
        <ele>588.95000000000005</ele>
        <time>2025-05-12T15:02:42Z</time>
      </trkpt>
      <trkpt lat="37.07638400606811" lon="-2.501546982675791">
        <ele>602.88</ele>
        <time>2025-05-12T15:02:52Z</time>
      </trkpt>
      <trkpt lat="37.079807007685304" lon="-2.504458017647266">
        <ele>622.11000000000001</ele>
        <time>2025-05-12T15:03:06Z</time>
      </trkpt>
      <trkpt lat="37.081426978111267" lon="-2.506598001345992">
        <ele>634.13</ele>
        <time>2025-05-12T15:03:14Z</time>
      </trkpt>
      <trkpt lat="37.082639001309872" lon="-2.509117014706135">
        <ele>648.54999999999995</ele>
        <time>2025-05-12T15:03:22Z</time>
      </trkpt>
      <trkpt lat="37.083427989855409" lon="-2.511895028874278">
        <ele>662.49000000000001</ele>
        <time>2025-05-12T15:03:30Z</time>
      </trkpt>
      <trkpt lat="37.084285961464047" lon="-2.515009995549917">
        <ele>677.38999999999999</ele>
        <time>2025-05-12T15:03:39Z</time>
      </trkpt>
      <trkpt lat="37.085467977449298" lon="-2.517117038369179">
        <ele>691.33000000000004</ele>
        <time>2025-05-12T15:03:46Z</time>
      </trkpt>
      <trkpt lat="37.088106013834476" lon="-2.521083019673824">
        <ele>717.27999999999997</ele>
        <time>2025-05-12T15:04:00Z</time>
      </trkpt>
      <trkpt lat="37.089587012305856" lon="-2.522279033437371">
        <ele>728.34000000000003</ele>
        <time>2025-05-12T15:04:06Z</time>
      </trkpt>
      <trkpt lat="37.091632029041648" lon="-2.523742010816932">
        <ele>743.72000000000003</ele>
        <time>2025-05-12T15:04:14Z</time>
      </trkpt>
      <trkpt lat="37.093045972287655" lon="-2.525640008971095">
        <ele>753.80999999999995</ele>
        <time>2025-05-12T15:04:21Z</time>
      </trkpt>
      <trkpt lat="37.094639036804438" lon="-2.52782198600471">
        <ele>761.01999999999998</ele>
        <time>2025-05-12T15:04:29Z</time>
      </trkpt>
      <trkpt lat="37.0961709972471" lon="-2.528903000056744">
        <ele>763.41999999999996</ele>
        <time>2025-05-12T15:04:35Z</time>
      </trkpt>
      <trkpt lat="37.098197992891073" lon="-2.529495013877749">
        <ele>760.05999999999995</ele>
        <time>2025-05-12T15:04:42Z</time>
      </trkpt>
      <trkpt lat="37.100262036547065" lon="-2.52917398698628">
        <ele>753.33000000000004</ele>
        <time>2025-05-12T15:04:49Z</time>
      </trkpt>
      <trkpt lat="37.105171987786889" lon="-2.527922987937927">
        <ele>750.92999999999995</ele>
        <time>2025-05-12T15:05:06Z</time>
      </trkpt>
      <trkpt lat="37.107539959251881" lon="-2.527683014050126">
        <ele>753.80999999999995</ele>
        <time>2025-05-12T15:05:14Z</time>
      </trkpt>
      <trkpt lat="37.109548011794686" lon="-2.528263963758946">
        <ele>753.33000000000004</ele>
        <time>2025-05-12T15:05:21Z</time>
      </trkpt>
      <trkpt lat="37.111126994714141" lon="-2.529299966990948">
        <ele>751.88999999999999</ele>
        <time>2025-05-12T15:05:27Z</time>
      </trkpt>
      <trkpt lat="37.112655015662313" lon="-2.531052958220244">
        <ele>747.08000000000004</ele>
        <time>2025-05-12T15:05:34Z</time>
      </trkpt>
      <trkpt lat="37.113963011652231" lon="-2.533516986295581">
        <ele>738.90999999999997</ele>
        <time>2025-05-12T15:05:42Z</time>
      </trkpt>
      <trkpt lat="37.115909960120916" lon="-2.537674997001886">
        <ele>727.37</ele>
        <time>2025-05-12T15:05:55Z</time>
      </trkpt>
      <trkpt lat="37.116419998928905" lon="-2.540084039792419">
        <ele>727.37</ele>
        <time>2025-05-12T15:06:02Z</time>
      </trkpt>
      <trkpt lat="37.116368031129241" lon="-2.542285965755582">
        <ele>732.65999999999997</ele>
        <time>2025-05-12T15:06:09Z</time>
      </trkpt>
      <trkpt lat="37.11589403450489" lon="-2.545113014057279">
        <ele>736.99000000000001</ele>
        <time>2025-05-12T15:06:18Z</time>
      </trkpt>
      <trkpt lat="37.115846006199718" lon="-2.547404039651156">
        <ele>739.38999999999999</ele>
        <time>2025-05-12T15:06:25Z</time>
      </trkpt>
      <trkpt lat="37.11625998839736" lon="-2.549665980041027">
        <ele>742.75999999999999</ele>
        <time>2025-05-12T15:06:32Z</time>
      </trkpt>
      <trkpt lat="37.117165988311172" lon="-2.553845029324293">
        <ele>749</ele>
        <time>2025-05-12T15:06:45Z</time>
      </trkpt>
      <trkpt lat="37.117373021319509" lon="-2.557175997644663">
        <ele>753.33000000000004</ele>
        <time>2025-05-12T15:06:55Z</time>
      </trkpt>
      <trkpt lat="37.117496989667416" lon="-2.561136027798057">
        <ele>757.65999999999997</ele>
        <time>2025-05-12T15:07:06Z</time>
      </trkpt>
      <trkpt lat="37.117583993822336" lon="-2.5663230009377">
        <ele>763.41999999999996</ele>
        <time>2025-05-12T15:07:20Z</time>
      </trkpt>
      <trkpt lat="37.117717014625669" lon="-2.572242971509695">
        <ele>769.66999999999996</ele>
        <time>2025-05-12T15:07:36Z</time>
      </trkpt>
      <trkpt lat="37.118340963497758" lon="-2.575463969260454">
        <ele>773.03999999999996</ele>
        <time>2025-05-12T15:07:45Z</time>
      </trkpt>
      <trkpt lat="37.119552986696362" lon="-2.580410968512297">
        <ele>776.39999999999998</ele>
        <time>2025-05-12T15:07:59Z</time>
      </trkpt>
      <trkpt lat="37.119608977809548" lon="-2.582981027662754">
        <ele>776.39999999999998</ele>
        <time>2025-05-12T15:08:06Z</time>
      </trkpt>
      <trkpt lat="37.119088964536786" lon="-2.585469027981162">
        <ele>774.48000000000002</ele>
        <time>2025-05-12T15:08:13Z</time>
      </trkpt>
      <trkpt lat="37.118159998208284" lon="-2.587786037474871">
        <ele>771.11000000000001</ele>
        <time>2025-05-12T15:08:20Z</time>
      </trkpt>
      <trkpt lat="37.11750796996057" lon="-2.590252999216318">
        <ele>766.30999999999995</ele>
        <time>2025-05-12T15:08:27Z</time>
      </trkpt>
      <trkpt lat="37.117416020482779" lon="-2.59279397316277">
        <ele>762.94000000000005</ele>
        <time>2025-05-12T15:08:34Z</time>
      </trkpt>
      <trkpt lat="37.117688013240695" lon="-2.598338015377522">
        <ele>761.98000000000002</ele>
        <time>2025-05-12T15:08:49Z</time>
      </trkpt>
      <trkpt lat="37.118095960468054" lon="-2.602017000317574">
        <ele>759.58000000000004</ele>
        <time>2025-05-12T15:08:59Z</time>
      </trkpt>
      <trkpt lat="37.119389958679676" lon="-2.60731796734035">
        <ele>754.76999999999998</ele>
        <time>2025-05-12T15:09:14Z</time>
      </trkpt>
      <trkpt lat="37.120051039382815" lon="-2.611286966130137">
        <ele>756.69000000000005</ele>
        <time>2025-05-12T15:09:25Z</time>
      </trkpt>
      <trkpt lat="37.120121028274298" lon="-2.614640984684229">
        <ele>758.62</ele>
        <time>2025-05-12T15:09:34Z</time>
      </trkpt>
      <trkpt lat="37.120189005509019" lon="-2.619458986446261">
        <ele>758.62</ele>
        <time>2025-05-12T15:09:47Z</time>
      </trkpt>
      <trkpt lat="37.120597036555409" lon="-2.622325010597706">
        <ele>760.05999999999995</ele>
        <time>2025-05-12T15:09:56Z</time>
      </trkpt>
      <trkpt lat="37.121641002595425" lon="-2.625305028632283">
        <ele>765.35000000000002</ele>
        <time>2025-05-12T15:10:04Z</time>
      </trkpt>
      <trkpt lat="37.123597003519535" lon="-2.62948801741004">
        <ele>779.76999999999998</ele>
        <time>2025-05-12T15:10:17Z</time>
      </trkpt>
      <trkpt lat="37.125554010272026" lon="-2.633546032011509">
        <ele>780.73000000000002</ele>
        <time>2025-05-12T15:10:30Z</time>
      </trkpt>
      <trkpt lat="37.127344971522689" lon="-2.636437034234405">
        <ele>772.08000000000004</ele>
        <time>2025-05-12T15:10:40Z</time>
      </trkpt>
      <trkpt lat="37.129523009061813" lon="-2.638817997649312">
        <ele>760.05999999999995</ele>
        <time>2025-05-12T15:10:50Z</time>
      </trkpt>
      <trkpt lat="37.13170699775219" lon="-2.640539975836873">
        <ele>751.40999999999997</ele>
        <time>2025-05-12T15:10:59Z</time>
      </trkpt>
      <trkpt lat="37.134610991925001" lon="-2.642864026129246">
        <ele>756.21000000000004</ele>
        <time>2025-05-12T15:11:11Z</time>
      </trkpt>
      <trkpt lat="37.135738022625446" lon="-2.64448500238359">
        <ele>762.46000000000004</ele>
        <time>2025-05-12T15:11:17Z</time>
      </trkpt>
      <trkpt lat="37.136472025886178" lon="-2.646421976387501">
        <ele>768.71000000000004</ele>
        <time>2025-05-12T15:11:23Z</time>
      </trkpt>
      <trkpt lat="37.136750975623727" lon="-2.648925986140966">
        <ele>776.88</ele>
        <time>2025-05-12T15:11:30Z</time>
      </trkpt>
      <trkpt lat="37.136376975104213" lon="-2.651429995894432">
        <ele>783.61000000000001</ele>
        <time>2025-05-12T15:11:37Z</time>
      </trkpt>
      <trkpt lat="37.135629979893565" lon="-2.653838032856584">
        <ele>786.5</ele>
        <time>2025-05-12T15:11:44Z</time>
      </trkpt>
      <trkpt lat="37.135334014892578" lon="-2.656009029597044">
        <ele>786.98000000000002</ele>
        <time>2025-05-12T15:11:50Z</time>
      </trkpt>
      <trkpt lat="37.13551003485918" lon="-2.658212967216969">
        <ele>784.09000000000003</ele>
        <time>2025-05-12T15:11:56Z</time>
      </trkpt>
      <trkpt lat="37.136175977066159" lon="-2.660259995609522">
        <ele>777.84000000000003</ele>
        <time>2025-05-12T15:12:02Z</time>
      </trkpt>
      <trkpt lat="37.137469975277781" lon="-2.662729974836111">
        <ele>768.23000000000002</ele>
        <time>2025-05-12T15:12:10Z</time>
      </trkpt>
      <trkpt lat="37.138355020433664" lon="-2.665463984012604">
        <ele>760.05999999999995</ele>
        <time>2025-05-12T15:12:18Z</time>
      </trkpt>
      <trkpt lat="37.138660037890077" lon="-2.668027002364397">
        <ele>757.65999999999997</ele>
        <time>2025-05-12T15:12:25Z</time>
      </trkpt>
      <trkpt lat="37.138618966564536" lon="-2.670993022620678">
        <ele>754.28999999999996</ele>
        <time>2025-05-12T15:12:33Z</time>
      </trkpt>
      <trkpt lat="37.138485023751855" lon="-2.676173038780689">
        <ele>749</ele>
        <time>2025-05-12T15:12:47Z</time>
      </trkpt>
      <trkpt lat="37.13834697380662" lon="-2.681734012439847">
        <ele>746.60000000000002</ele>
        <time>2025-05-12T15:13:02Z</time>
      </trkpt>
      <trkpt lat="37.138237003237009" lon="-2.686179019510746">
        <ele>743.72000000000003</ele>
        <time>2025-05-12T15:13:14Z</time>
      </trkpt>
      <trkpt lat="37.138298023492098" lon="-2.691012024879456">
        <ele>739.87</ele>
        <time>2025-05-12T15:13:27Z</time>
      </trkpt>
      <trkpt lat="37.138914009556174" lon="-2.69465203396976">
        <ele>738.42999999999995</ele>
        <time>2025-05-12T15:13:37Z</time>
      </trkpt>
      <trkpt lat="37.140088984742761" lon="-2.700784988701344">
        <ele>734.10000000000002</ele>
        <time>2025-05-12T15:13:54Z</time>
      </trkpt>
      <trkpt lat="37.140912003815174" lon="-2.705118013545871">
        <ele>730.74000000000001</ele>
        <time>2025-05-12T15:14:06Z</time>
      </trkpt>
      <trkpt lat="37.141546010971069" lon="-2.709498982876539">
        <ele>727.37</ele>
        <time>2025-05-12T15:14:18Z</time>
      </trkpt>
      <trkpt lat="37.141581969335675" lon="-2.713200012221932">
        <ele>726.40999999999997</ele>
        <time>2025-05-12T15:14:28Z</time>
      </trkpt>
      <trkpt lat="37.141101015731692" lon="-2.716851001605392">
        <ele>728.34000000000003</ele>
        <time>2025-05-12T15:14:38Z</time>
      </trkpt>
      <trkpt lat="37.140169031918049" lon="-2.720373999327421">
        <ele>730.25999999999999</ele>
        <time>2025-05-12T15:14:48Z</time>
      </trkpt>
      <trkpt lat="37.138833040371537" lon="-2.723684012889862">
        <ele>733.62</ele>
        <time>2025-05-12T15:14:58Z</time>
      </trkpt>
      <trkpt lat="37.136681992560625" lon="-2.728562029078603">
        <ele>735.54999999999995</ele>
        <time>2025-05-12T15:15:13Z</time>
      </trkpt>
      <trkpt lat="37.136114034801722" lon="-2.730648033320904">
        <ele>736.99000000000001</ele>
        <time>2025-05-12T15:15:19Z</time>
      </trkpt>
      <trkpt lat="37.136022001504898" lon="-2.732879966497421">
        <ele>739.38999999999999</ele>
        <time>2025-05-12T15:15:25Z</time>
      </trkpt>
      <trkpt lat="37.136483006179333" lon="-2.735026990994811">
        <ele>741.78999999999996</ele>
        <time>2025-05-12T15:15:31Z</time>
      </trkpt>
      <trkpt lat="37.137308036908507" lon="-2.73740803822875">
        <ele>744.67999999999995</ele>
        <time>2025-05-12T15:15:38Z</time>
      </trkpt>
      <trkpt lat="37.137768035754561" lon="-2.739923028275371">
        <ele>749</ele>
        <time>2025-05-12T15:15:45Z</time>
      </trkpt>
      <trkpt lat="37.13811001740396" lon="-2.741333032026887">
        <ele>752.37</ele>
        <time>2025-05-12T15:15:49Z</time>
      </trkpt>
      <trkpt lat="37.139201005920768" lon="-2.743509979918599">
        <ele>757.17999999999995</ele>
        <time>2025-05-12T15:15:56Z</time>
      </trkpt>
      <trkpt lat="37.140514031052589" lon="-2.744981003925204">
        <ele>761.01999999999998</ele>
        <time>2025-05-12T15:16:02Z</time>
      </trkpt>
      <trkpt lat="37.142463997006416" lon="-2.746727960184217">
        <ele>764.87</ele>
        <time>2025-05-12T15:16:10Z</time>
      </trkpt>
      <trkpt lat="37.143537970259786" lon="-2.748492015525699">
        <ele>766.78999999999996</ele>
        <time>2025-05-12T15:16:16Z</time>
      </trkpt>
      <trkpt lat="37.144922995939851" lon="-2.75085898116231">
        <ele>770.63</ele>
        <time>2025-05-12T15:16:24Z</time>
      </trkpt>
      <trkpt lat="37.146336017176509" lon="-2.752207964658737">
        <ele>773.51999999999998</ele>
        <time>2025-05-12T15:16:30Z</time>
      </trkpt>
      <trkpt lat="37.1468769852072" lon="-2.752523040398955">
        <ele>775.44000000000005</ele>
        <time>2025-05-12T15:16:33Z</time>
      </trkpt>
      <trkpt lat="37.149319974705577" lon="-2.75380102917552">
        <ele>784.09000000000003</ele>
        <time>2025-05-12T15:16:41Z</time>
      </trkpt>
      <trkpt lat="37.15091303922236" lon="-2.755430974066258">
        <ele>792.74000000000001</ele>
        <time>2025-05-12T15:16:48Z</time>
      </trkpt>
      <trkpt lat="37.151908976957202" lon="-2.757255965843797">
        <ele>798.99000000000001</ele>
        <time>2025-05-12T15:16:54Z</time>
      </trkpt>
      <trkpt lat="37.152494033798575" lon="-2.759339958429337">
        <ele>806.20000000000005</ele>
        <time>2025-05-12T15:17:00Z</time>
      </trkpt>
      <trkpt lat="37.152539966627955" lon="-2.761942958459258">
        <ele>813.40999999999997</ele>
        <time>2025-05-12T15:17:07Z</time>
      </trkpt>
      <trkpt lat="37.152093965560198" lon="-2.764106998220086">
        <ele>815.82000000000005</ele>
        <time>2025-05-12T15:17:13Z</time>
      </trkpt>
      <trkpt lat="37.151190983131528" lon="-2.766030980274081">
        <ele>818.22000000000003</ele>
        <time>2025-05-12T15:17:19Z</time>
      </trkpt>
      <trkpt lat="37.149911988526583" lon="-2.767559001222253">
        <ele>820.13999999999999</ele>
        <time>2025-05-12T15:17:25Z</time>
      </trkpt>
      <trkpt lat="37.148036034777761" lon="-2.769374018535018">
        <ele>822.05999999999995</ele>
        <time>2025-05-12T15:17:33Z</time>
      </trkpt>
      <trkpt lat="37.146849995478988" lon="-2.771476032212377">
        <ele>823.02999999999997</ele>
        <time>2025-05-12T15:17:40Z</time>
      </trkpt>
      <trkpt lat="37.146297041326761" lon="-2.77358902618289">
        <ele>824.47000000000003</ele>
        <time>2025-05-12T15:17:46Z</time>
      </trkpt>
      <trkpt lat="37.146109035238624" lon="-2.776524033397436">
        <ele>829.26999999999998</ele>
        <time>2025-05-12T15:17:54Z</time>
      </trkpt>
      <trkpt lat="37.145896973088384" lon="-2.780932998284698">
        <ele>835.51999999999998</ele>
        <time>2025-05-12T15:18:06Z</time>
      </trkpt>
      <trkpt lat="37.145951958373189" lon="-2.784537971019745">
        <ele>836.96000000000004</ele>
        <time>2025-05-12T15:18:16Z</time>
      </trkpt>
      <trkpt lat="37.146624019369483" lon="-2.789157992228866">
        <ele>844.17999999999995</ele>
        <time>2025-05-12T15:18:29Z</time>
      </trkpt>
      <trkpt lat="37.147388029843569" lon="-2.794117983430624">
        <ele>853.78999999999996</ele>
        <time>2025-05-12T15:18:43Z</time>
      </trkpt>
      <trkpt lat="37.148206019774079" lon="-2.799429008737207">
        <ele>862.91999999999996</ele>
        <time>2025-05-12T15:18:58Z</time>
      </trkpt>
      <trkpt lat="37.148940023034811" lon="-2.802906995639205">
        <ele>869.64999999999998</ele>
        <time>2025-05-12T15:19:08Z</time>
      </trkpt>
      <trkpt lat="37.149998992681503" lon="-2.805932024493814">
        <ele>877.34000000000003</ele>
        <time>2025-05-12T15:19:17Z</time>
      </trkpt>
      <trkpt lat="37.151315035298467" lon="-2.810014011338353">
        <ele>888.39999999999998</ele>
        <time>2025-05-12T15:19:29Z</time>
      </trkpt>
      <trkpt lat="37.152436031028628" lon="-2.814603019505739">
        <ele>901.85000000000002</ele>
        <time>2025-05-12T15:19:42Z</time>
      </trkpt>
      <trkpt lat="37.153725000098348" lon="-2.820241022855043">
        <ele>916.75</ele>
        <time>2025-05-12T15:19:58Z</time>
      </trkpt>
      <trkpt lat="37.154892012476921" lon="-2.824400961399078">
        <ele>925.88999999999999</ele>
        <time>2025-05-12T15:20:10Z</time>
      </trkpt>
      <trkpt lat="37.156489016488194" lon="-2.82915199175477">
        <ele>936.46000000000004</ele>
        <time>2025-05-12T15:20:24Z</time>
      </trkpt>
      <trkpt lat="37.158506959676743" lon="-2.834467040374875">
        <ele>948.48000000000002</ele>
        <time>2025-05-12T15:20:40Z</time>
      </trkpt>
      <trkpt lat="37.159049017354846" lon="-2.836961997672916">
        <ele>952.79999999999995</ele>
        <time>2025-05-12T15:20:47Z</time>
      </trkpt>
      <trkpt lat="37.159433998167515" lon="-2.839519986882806">
        <ele>954.25</ele>
        <time>2025-05-12T15:20:55Z</time>
      </trkpt>
      <trkpt lat="37.160402024164796" lon="-2.84221401438117">
        <ele>956.16999999999996</ele>
        <time>2025-05-12T15:21:02Z</time>
      </trkpt>
      <trkpt lat="37.161704991012812" lon="-2.844217959791422">
        <ele>959.04999999999995</ele>
        <time>2025-05-12T15:21:09Z</time>
      </trkpt>
      <trkpt lat="37.163899037986994" lon="-2.846721969544888">
        <ele>961.46000000000004</ele>
        <time>2025-05-12T15:21:19Z</time>
      </trkpt>
      <trkpt lat="37.165124975144863" lon="-2.848825994879007">
        <ele>963.86000000000001</ele>
        <time>2025-05-12T15:21:26Z</time>
      </trkpt>
      <trkpt lat="37.166045978665352" lon="-2.851555980741978">
        <ele>967.70000000000005</ele>
        <time>2025-05-12T15:21:34Z</time>
      </trkpt>
      <trkpt lat="37.166450992226601" lon="-2.85409402102232">
        <ele>969.63</ele>
        <time>2025-05-12T15:21:41Z</time>
      </trkpt>
      <trkpt lat="37.166995983570814" lon="-2.857345025986433">
        <ele>970.59000000000003</ele>
        <time>2025-05-12T15:21:50Z</time>
      </trkpt>
      <trkpt lat="37.168007008731365" lon="-2.859582994133234">
        <ele>974.90999999999997</ele>
        <time>2025-05-12T15:21:57Z</time>
      </trkpt>
      <trkpt lat="37.168764984235168" lon="-2.86157201975584">
        <ele>983.09000000000003</ele>
        <time>2025-05-12T15:22:03Z</time>
      </trkpt>
      <trkpt lat="37.169065978378057" lon="-2.863746033981443">
        <ele>991.74000000000001</ele>
        <time>2025-05-12T15:22:09Z</time>
      </trkpt>
      <trkpt lat="37.16889901086688" lon="-2.865945026278496">
        <ele>1000.87</ele>
        <time>2025-05-12T15:22:15Z</time>
      </trkpt>
      <trkpt lat="37.168498020619154" lon="-2.869226038455963">
        <ele>1011.9299999999999</ele>
        <time>2025-05-12T15:22:24Z</time>
      </trkpt>
      <trkpt lat="37.168818041682243" lon="-2.871385971084237">
        <ele>1021.0599999999999</ele>
        <time>2025-05-12T15:22:30Z</time>
      </trkpt>
      <trkpt lat="37.169534023851156" lon="-2.874585008248687">
        <ele>1035.48</ele>
        <time>2025-05-12T15:22:39Z</time>
      </trkpt>
      <trkpt lat="37.169516002759337" lon="-2.876785006374121">
        <ele>1043.6500000000001</ele>
        <time>2025-05-12T15:22:45Z</time>
      </trkpt>
      <trkpt lat="37.169001018628478" lon="-2.879667961969972">
        <ele>1055.6700000000001</ele>
        <time>2025-05-12T15:22:53Z</time>
      </trkpt>
      <trkpt lat="37.168890964239836" lon="-2.882609004154801">
        <ele>1066.72</ele>
        <time>2025-05-12T15:23:01Z</time>
      </trkpt>
      <trkpt lat="37.168965982273221" lon="-2.885926980525255">
        <ele>1080.1800000000001</ele>
        <time>2025-05-12T15:23:10Z</time>
      </trkpt>
      <trkpt lat="37.168614026159048" lon="-2.888825023546815">
        <ele>1090.75</ele>
        <time>2025-05-12T15:23:18Z</time>
      </trkpt>
      <trkpt lat="37.167713977396488" lon="-2.891948958858848">
        <ele>1103.25</ele>
        <time>2025-05-12T15:23:27Z</time>
      </trkpt>
      <trkpt lat="37.167293038219213" lon="-2.894104029983282">
        <ele>1111.9000000000001</ele>
        <time>2025-05-12T15:23:33Z</time>
      </trkpt>
      <trkpt lat="37.167353974655271" lon="-2.896694960072637">
        <ele>1120.55</ele>
        <time>2025-05-12T15:23:40Z</time>
      </trkpt>
      <trkpt lat="37.167990999296308" lon="-2.901827031746507">
        <ele>1134.01</ele>
        <time>2025-05-12T15:23:54Z</time>
      </trkpt>
      <trkpt lat="37.168768001720309" lon="-2.905409038066864">
        <ele>1138.8199999999999</ele>
        <time>2025-05-12T15:24:04Z</time>
      </trkpt>
      <trkpt lat="37.169002024456859" lon="-2.907985970377922">
        <ele>1138.8199999999999</ele>
        <time>2025-05-12T15:24:11Z</time>
      </trkpt>
      <trkpt lat="37.168750986456871" lon="-2.910914020612836">
        <ele>1137.3800000000001</ele>
        <time>2025-05-12T15:24:19Z</time>
      </trkpt>
      <trkpt lat="37.168180011212826" lon="-2.914378009736538">
        <ele>1142.6600000000001</ele>
        <time>2025-05-12T15:24:29Z</time>
      </trkpt>
      <trkpt lat="37.167872982099652" lon="-2.917045969516039">
        <ele>1150.3499999999999</ele>
        <time>2025-05-12T15:24:38Z</time>
      </trkpt>
      <trkpt lat="37.168113961815834" lon="-2.918874984607101">
        <ele>1155.1600000000001</ele>
        <time>2025-05-12T15:24:44Z</time>
      </trkpt>
      <trkpt lat="37.168960031121969" lon="-2.921123011037707">
        <ele>1158.53</ele>
        <time>2025-05-12T15:24:52Z</time>
      </trkpt>
      <trkpt lat="37.170022018253803" lon="-2.92280500754714">
        <ele>1159.01</ele>
        <time>2025-05-12T15:24:59Z</time>
      </trkpt>
      <trkpt lat="37.171913981437683" lon="-2.925663990899921">
        <ele>1154.2</ele>
        <time>2025-05-12T15:25:11Z</time>
      </trkpt>
      <trkpt lat="37.173778032884002" lon="-2.928528003394604">
        <ele>1152.76</ele>
        <time>2025-05-12T15:25:23Z</time>
      </trkpt>
      <trkpt lat="37.174439029768109" lon="-2.93013196438551">
        <ele>1152.28</ele>
        <time>2025-05-12T15:25:29Z</time>
      </trkpt>
      <trkpt lat="37.174687972292304" lon="-2.931952010840178">
        <ele>1150.8399999999999</ele>
        <time>2025-05-12T15:25:35Z</time>
      </trkpt>
      <trkpt lat="37.174761984497309" lon="-2.934716027230024">
        <ele>1148.4300000000001</ele>
        <time>2025-05-12T15:25:44Z</time>
      </trkpt>
      <trkpt lat="37.175246039405465" lon="-2.936419984325767">
        <ele>1149.8699999999999</ele>
        <time>2025-05-12T15:25:50Z</time>
      </trkpt>
      <trkpt lat="37.176165031269193" lon="-2.937804004177451">
        <ele>1149.8699999999999</ele>
        <time>2025-05-12T15:25:56Z</time>
      </trkpt>
      <trkpt lat="37.177412007004023" lon="-2.938759038224816">
        <ele>1151.3199999999999</ele>
        <time>2025-05-12T15:26:02Z</time>
      </trkpt>
      <trkpt lat="37.177646029740572" lon="-2.938864985480905">
        <ele>1151.3199999999999</ele>
        <time>2025-05-12T15:26:03Z</time>
      </trkpt>
      <trkpt lat="37.17788097448647" lon="-2.938970010727644">
        <ele>1151.3199999999999</ele>
        <time>2025-05-12T15:26:04Z</time>
      </trkpt>
      <trkpt lat="37.180245006456971" lon="-2.939685992896557">
        <ele>1146.03</ele>
        <time>2025-05-12T15:26:14Z</time>
      </trkpt>
      <trkpt lat="37.182079972699285" lon="-2.940481016412377">
        <ele>1147.47</ele>
        <time>2025-05-12T15:26:22Z</time>
      </trkpt>
      <trkpt lat="37.183221001178026" lon="-2.941659009084106">
        <ele>1149.8699999999999</ele>
        <time>2025-05-12T15:26:29Z</time>
      </trkpt>
      <trkpt lat="37.18413001857698" lon="-2.943480983376503">
        <ele>1155.1600000000001</ele>
        <time>2025-05-12T15:26:35Z</time>
      </trkpt>
      <trkpt lat="37.184704011306167" lon="-2.945877034217119">
        <ele>1160.45</ele>
        <time>2025-05-12T15:26:43Z</time>
      </trkpt>
      <trkpt lat="37.185671031475067" lon="-2.950302008539438">
        <ele>1166.22</ele>
        <time>2025-05-12T15:26:58Z</time>
      </trkpt>
      <trkpt lat="37.186708962544799" lon="-2.954996963962913">
        <ele>1173.4300000000001</ele>
        <time>2025-05-12T15:27:14Z</time>
      </trkpt>
      <trkpt lat="37.187598031014204" lon="-2.957907998934388">
        <ele>1173.4300000000001</ele>
        <time>2025-05-12T15:27:24Z</time>
      </trkpt>
      <trkpt lat="37.188850035890937" lon="-2.960922969505191">
        <ele>1169.0999999999999</ele>
        <time>2025-05-12T15:27:35Z</time>
      </trkpt>
      <trkpt lat="37.189700966700912" lon="-2.963592018932104">
        <ele>1164.29</ele>
        <time>2025-05-12T15:27:44Z</time>
      </trkpt>
      <trkpt lat="37.190563967451453" lon="-2.96764500439167">
        <ele>1158.05</ele>
        <time>2025-05-12T15:27:56Z</time>
      </trkpt>
      <trkpt lat="37.191499974578619" lon="-2.972169974818826">
        <ele>1150.3499999999999</ele>
        <time>2025-05-12T15:28:09Z</time>
      </trkpt>
      <trkpt lat="37.192649971693754" lon="-2.977799009531736">
        <ele>1146.99</ele>
        <time>2025-05-12T15:28:25Z</time>
      </trkpt>
      <trkpt lat="37.193777002394199" lon="-2.983335005119443">
        <ele>1149.3900000000001</ele>
        <time>2025-05-12T15:28:41Z</time>
      </trkpt>
      <trkpt lat="37.194784004241228" lon="-2.988202041015029">
        <ele>1149.8699999999999</ele>
        <time>2025-05-12T15:28:55Z</time>
      </trkpt>
      <trkpt lat="37.195954034104943" lon="-2.993941968306899">
        <ele>1147.47</ele>
        <time>2025-05-12T15:29:11Z</time>
      </trkpt>
      <trkpt lat="37.197201009839773" lon="-3.000066038221121">
        <ele>1148.9100000000001</ele>
        <time>2025-05-12T15:29:28Z</time>
      </trkpt>
      <trkpt lat="37.198389982804656" lon="-3.005821974948049">
        <ele>1146.51</ele>
        <time>2025-05-12T15:29:44Z</time>
      </trkpt>
      <trkpt lat="37.199419029057026" lon="-3.010863019153476">
        <ele>1142.1800000000001</ele>
        <time>2025-05-12T15:29:58Z</time>
      </trkpt>
      <trkpt lat="37.200370961800218" lon="-3.015526961535215">
        <ele>1137.8599999999999</ele>
        <time>2025-05-12T15:30:11Z</time>
      </trkpt>
      <trkpt lat="37.201396990567446" lon="-3.020556019619107">
        <ele>1132.0899999999999</ele>
        <time>2025-05-12T15:30:25Z</time>
      </trkpt>
      <trkpt lat="37.202423019334674" lon="-3.025581976398826">
        <ele>1128.73</ele>
        <time>2025-05-12T15:30:39Z</time>
      </trkpt>
      <trkpt lat="37.20366002060473" lon="-3.031679978594184">
        <ele>1134.49</ele>
        <time>2025-05-12T15:30:56Z</time>
      </trkpt>
      <trkpt lat="37.204918982461095" lon="-3.037786027416587">
        <ele>1141.22</ele>
        <time>2025-05-12T15:31:13Z</time>
      </trkpt>
      <trkpt lat="37.205945011228323" lon="-3.042845008894801">
        <ele>1140.74</ele>
        <time>2025-05-12T15:31:27Z</time>
      </trkpt>
      <trkpt lat="37.207192992791533" lon="-3.048946028575301">
        <ele>1128.73</ele>
        <time>2025-05-12T15:31:44Z</time>
      </trkpt>
      <trkpt lat="37.208443991839886" lon="-3.055058028548956">
        <ele>1123.4400000000001</ele>
        <time>2025-05-12T15:32:01Z</time>
      </trkpt>
      <trkpt lat="37.209387039765716" lon="-3.059731023386121">
        <ele>1120.55</ele>
        <time>2025-05-12T15:32:14Z</time>
      </trkpt>
      <trkpt lat="37.210841970518231" lon="-3.066135970875621">
        <ele>1117.6700000000001</ele>
        <time>2025-05-12T15:32:32Z</time>
      </trkpt>
      <trkpt lat="37.211846960708499" lon="-3.068389026448131">
        <ele>1116.71</ele>
        <time>2025-05-12T15:32:39Z</time>
      </trkpt>
      <trkpt lat="37.213239027187228" lon="-3.070307979360223">
        <ele>1115.27</ele>
        <time>2025-05-12T15:32:46Z</time>
      </trkpt>
      <trkpt lat="37.215640023350716" lon="-3.072486016899347">
        <ele>1111.4200000000001</ele>
        <time>2025-05-12T15:32:56Z</time>
      </trkpt>
      <trkpt lat="37.219622014090419" lon="-3.075734004378319">
        <ele>1106.1300000000001</ele>
        <time>2025-05-12T15:33:12Z</time>
      </trkpt>
      <trkpt lat="37.223609033972025" lon="-3.078974029049277">
        <ele>1100.8499999999999</ele>
        <time>2025-05-12T15:33:28Z</time>
      </trkpt>
      <trkpt lat="37.226658035069704" lon="-3.081245021894574">
        <ele>1098.4400000000001</ele>
        <time>2025-05-12T15:33:40Z</time>
      </trkpt>
      <trkpt lat="37.228915030136704" lon="-3.082056976854801">
        <ele>1096.52</ele>
        <time>2025-05-12T15:33:48Z</time>
      </trkpt>
      <trkpt lat="37.230992987751961" lon="-3.082239031791687">
        <ele>1095.5599999999999</ele>
        <time>2025-05-12T15:33:55Z</time>
      </trkpt>
      <trkpt lat="37.233949033543468" lon="-3.082139035686851">
        <ele>1093.1600000000001</ele>
        <time>2025-05-12T15:34:05Z</time>
      </trkpt>
      <trkpt lat="37.237511007115245" lon="-3.082005009055138">
        <ele>1093.1600000000001</ele>
        <time>2025-05-12T15:34:17Z</time>
      </trkpt>
      <trkpt lat="37.240474009886384" lon="-3.081898977980018">
        <ele>1091.71</ele>
        <time>2025-05-12T15:34:27Z</time>
      </trkpt>
      <trkpt lat="37.243744963780046" lon="-3.081781966611743">
        <ele>1091.71</ele>
        <time>2025-05-12T15:34:38Z</time>
      </trkpt>
      <trkpt lat="37.247302997857332" lon="-3.081668978556991">
        <ele>1089.3099999999999</ele>
        <time>2025-05-12T15:34:50Z</time>
      </trkpt>
      <trkpt lat="37.250573029741645" lon="-3.081560013815761">
        <ele>1086.9100000000001</ele>
        <time>2025-05-12T15:35:01Z</time>
      </trkpt>
      <trkpt lat="37.253833003342152" lon="-3.08145197108388">
        <ele>1085.95</ele>
        <time>2025-05-12T15:35:12Z</time>
      </trkpt>
      <trkpt lat="37.256501968950033" lon="-3.081578034907579">
        <ele>1084.5</ele>
        <time>2025-05-12T15:35:21Z</time>
      </trkpt>
      <trkpt lat="37.258796012029052" lon="-3.082318995147944">
        <ele>1083.54</ele>
        <time>2025-05-12T15:35:29Z</time>
      </trkpt>
      <trkpt lat="37.260886039584875" lon="-3.083713995292783">
        <ele>1081.6199999999999</ele>
        <time>2025-05-12T15:35:37Z</time>
      </trkpt>
      <trkpt lat="37.262478014454246" lon="-3.085364978760481">
        <ele>1079.7</ele>
        <time>2025-05-12T15:35:44Z</time>
      </trkpt>
      <trkpt lat="37.263917019590735" lon="-3.087697997689247">
        <ele>1079.22</ele>
        <time>2025-05-12T15:35:52Z</time>
      </trkpt>
      <trkpt lat="37.265333980321884" lon="-3.090973980724812">
        <ele>1077.78</ele>
        <time>2025-05-12T15:36:02Z</time>
      </trkpt>
      <trkpt lat="37.266586991026998" lon="-3.093035006895661">
        <ele>1072.49</ele>
        <time>2025-05-12T15:36:09Z</time>
      </trkpt>
      <trkpt lat="37.268038988113403" lon="-3.09427997097373">
        <ele>1067.6800000000001</ele>
        <time>2025-05-12T15:36:15Z</time>
      </trkpt>
      <trkpt lat="37.269719978794456" lon="-3.094959994778037">
        <ele>1065.28</ele>
        <time>2025-05-12T15:36:21Z</time>
      </trkpt>
      <trkpt lat="37.272372012957931" lon="-3.095222013071179">
        <ele>1069.1199999999999</ele>
        <time>2025-05-12T15:36:31Z</time>
      </trkpt>
      <trkpt lat="37.276240009814501" lon="-3.095576986670494">
        <ele>1069.1199999999999</ele>
        <time>2025-05-12T15:36:43Z</time>
      </trkpt>
      <trkpt lat="37.278827000409365" lon="-3.096371004357934">
        <ele>1061.4300000000001</ele>
        <time>2025-05-12T15:36:52Z</time>
      </trkpt>
      <trkpt lat="37.280967989936471" lon="-3.097663996741176">
        <ele>1048.9400000000001</ele>
        <time>2025-05-12T15:37:00Z</time>
      </trkpt>
      <trkpt lat="37.28264101780951" lon="-3.099216995760799">
        <ele>1037.4000000000001</ele>
        <time>2025-05-12T15:37:07Z</time>
      </trkpt>
      <trkpt lat="37.284267023205757" lon="-3.101378018036485">
        <ele>1026.3399999999999</ele>
        <time>2025-05-12T15:37:15Z</time>
      </trkpt>
      <trkpt lat="37.285922029986978" lon="-3.104476975277066">
        <ele>1013.37</ele>
        <time>2025-05-12T15:37:25Z</time>
      </trkpt>
      <trkpt lat="37.287777028977871" lon="-3.108297027647495">
        <ele>996.05999999999995</ele>
        <time>2025-05-12T15:37:37Z</time>
      </trkpt>
      <trkpt lat="37.289156019687653" lon="-3.110210029408336">
        <ele>985.49000000000001</ele>
        <time>2025-05-12T15:37:44Z</time>
      </trkpt>
      <trkpt lat="37.290420010685921" lon="-3.111148970201612">
        <ele>978.27999999999997</ele>
        <time>2025-05-12T15:37:49Z</time>
      </trkpt>
      <trkpt lat="37.290971959009767" lon="-3.111379975453019">
        <ele>975.38999999999999</ele>
        <time>2025-05-12T15:37:51Z</time>
      </trkpt>
      <trkpt lat="37.292980011552572" lon="-3.111646017059684">
        <ele>966.25999999999999</ele>
        <time>2025-05-12T15:37:58Z</time>
      </trkpt>
      <trkpt lat="37.295241029933095" lon="-3.111029025167227">
        <ele>963.86000000000001</ele>
        <time>2025-05-12T15:38:06Z</time>
      </trkpt>
      <trkpt lat="37.298290031030774" lon="-3.109793029725552">
        <ele>980.20000000000005</ele>
        <time>2025-05-12T15:38:17Z</time>
      </trkpt>
      <trkpt lat="37.300020977854729" lon="-3.109708037227392">
        <ele>985.97000000000003</ele>
        <time>2025-05-12T15:38:23Z</time>
      </trkpt>
      <trkpt lat="37.301714038476348" lon="-3.110230984166265">
        <ele>986.45000000000005</ele>
        <time>2025-05-12T15:38:29Z</time>
      </trkpt>
      <trkpt lat="37.305060010403395" lon="-3.111492041498423">
        <ele>983.57000000000005</ele>
        <time>2025-05-12T15:38:41Z</time>
      </trkpt>
      <trkpt lat="37.30762998573482" lon="-3.112077014520764">
        <ele>983.09000000000003</ele>
        <time>2025-05-12T15:38:50Z</time>
      </trkpt>
      <trkpt lat="37.310817958787084" lon="-3.112185979261994">
        <ele>993.17999999999995</ele>
        <time>2025-05-12T15:39:01Z</time>
      </trkpt>
      <trkpt lat="37.314905980601907" lon="-3.112142980098724">
        <ele>1013.85</ele>
        <time>2025-05-12T15:39:15Z</time>
      </trkpt>
      <trkpt lat="37.316911015659571" lon="-3.112632986158133">
        <ele>1022.5</ele>
        <time>2025-05-12T15:39:22Z</time>
      </trkpt>
      <trkpt lat="37.318503996357322" lon="-3.113675024360418">
        <ele>1023.46</ele>
        <time>2025-05-12T15:39:28Z</time>
      </trkpt>
      <trkpt lat="37.319549974054098" lon="-3.114915965124965">
        <ele>1019.62</ele>
        <time>2025-05-12T15:39:33Z</time>
      </trkpt>
      <trkpt lat="37.320445999503136" lon="-3.116801977157593">
        <ele>1011.4400000000001</ele>
        <time>2025-05-12T15:39:39Z</time>
      </trkpt>
      <trkpt lat="37.320865010842681" lon="-3.118755966424942">
        <ele>1003.75</ele>
        <time>2025-05-12T15:39:44Z</time>
      </trkpt>
      <trkpt lat="37.320837015286088" lon="-3.121045986190438">
        <ele>994.62</ele>
        <time>2025-05-12T15:39:50Z</time>
      </trkpt>
      <trkpt lat="37.32026101090014" lon="-3.124292967841029">
        <ele>977.79999999999995</ele>
        <time>2025-05-12T15:39:59Z</time>
      </trkpt>
      <trkpt lat="37.31950999237597" lon="-3.128549968823791">
        <ele>954.25</ele>
        <time>2025-05-12T15:40:11Z</time>
      </trkpt>
      <trkpt lat="37.319055022671819" lon="-3.13194002956152">
        <ele>934.05999999999995</ele>
        <time>2025-05-12T15:40:21Z</time>
      </trkpt>
      <trkpt lat="37.319078994914889" lon="-3.134525008499622">
        <ele>924.45000000000005</ele>
        <time>2025-05-12T15:40:29Z</time>
      </trkpt>
      <trkpt lat="37.319310000166297" lon="-3.137996038421989">
        <ele>913.38999999999999</ele>
        <time>2025-05-12T15:40:41Z</time>
      </trkpt>
      <trkpt lat="37.319375965744257" lon="-3.139055008068681">
        <ele>909.53999999999996</ele>
        <time>2025-05-12T15:40:45Z</time>
      </trkpt>
      <trkpt lat="37.319604037329555" lon="-3.13907696865499">
        <ele>908.10000000000002</ele>
        <time>2025-05-12T15:40:46Z</time>
      </trkpt>
      <trkpt lat="37.319656005129218" lon="-3.139149975031614">
        <ele>907.62</ele>
        <time>2025-05-12T15:40:47Z</time>
      </trkpt>
      <trkpt lat="37.31974896043539" lon="-3.139212001115084">
        <ele>907.62</ele>
        <time>2025-05-12T15:40:48Z</time>
      </trkpt>
      <trkpt lat="37.319850968196988" lon="-3.139279978349805">
        <ele>907.13999999999999</ele>
        <time>2025-05-12T15:40:49Z</time>
      </trkpt>
      <trkpt lat="37.319935038685799" lon="-3.139319960027933">
        <ele>906.17999999999995</ele>
        <time>2025-05-12T15:40:50Z</time>
      </trkpt>
      <trkpt lat="37.320065964013338" lon="-3.139306968078017">
        <ele>905.22000000000003</ele>
        <time>2025-05-12T15:40:51Z</time>
      </trkpt>
      <trkpt lat="37.320167971774936" lon="-3.139274027198553">
        <ele>904.74000000000001</ele>
        <time>2025-05-12T15:40:52Z</time>
      </trkpt>
      <trkpt lat="37.320271991193295" lon="-3.13920496031642">
        <ele>904.74000000000001</ele>
        <time>2025-05-12T15:40:53Z</time>
      </trkpt>
      <trkpt lat="37.320373998954892" lon="-3.139136983081698">
        <ele>904.74000000000001</ele>
        <time>2025-05-12T15:40:54Z</time>
      </trkpt>
      <trkpt lat="37.320430995896459" lon="-3.139037992805243">
        <ele>905.22000000000003</ele>
        <time>2025-05-12T15:40:55Z</time>
      </trkpt>
      <trkpt lat="37.320491010323167" lon="-3.138916958123446">
        <ele>905.70000000000005</ele>
        <time>2025-05-12T15:40:57Z</time>
      </trkpt>
      <trkpt lat="37.320553958415985" lon="-3.13866600394249">
        <ele>906.17999999999995</ele>
        <time>2025-05-12T15:40:58Z</time>
      </trkpt>
      <trkpt lat="37.320568040013313" lon="-3.138532983139157">
        <ele>906.17999999999995</ele>
        <time>2025-05-12T15:40:59Z</time>
      </trkpt>
      <trkpt lat="37.320554964244366" lon="-3.138381019234657">
        <ele>906.65999999999997</ele>
        <time>2025-05-12T15:41:00Z</time>
      </trkpt>
      <trkpt lat="37.320504002273083" lon="-3.138245986774564">
        <ele>907.13999999999999</ele>
        <time>2025-05-12T15:41:01Z</time>
      </trkpt>
      <trkpt lat="37.320449016988277" lon="-3.138102991506457">
        <ele>907.62</ele>
        <time>2025-05-12T15:41:02Z</time>
      </trkpt>
      <trkpt lat="37.320389002561569" lon="-3.137964019551873">
        <ele>908.58000000000004</ele>
        <time>2025-05-12T15:41:04Z</time>
      </trkpt>
      <trkpt lat="37.320233015343547" lon="-3.137733014300466">
        <ele>909.53999999999996</ele>
        <time>2025-05-12T15:41:06Z</time>
      </trkpt>
      <trkpt lat="37.320037968456745" lon="-3.137602005153894">
        <ele>910.02999999999997</ele>
        <time>2025-05-12T15:41:07Z</time>
      </trkpt>
      <trkpt lat="37.319934032857418" lon="-3.137544002383947">
        <ele>910.50999999999999</ele>
        <time>2025-05-12T15:41:08Z</time>
      </trkpt>
      <trkpt lat="37.319830013439059" lon="-3.137501003220677">
        <ele>910.99000000000001</ele>
        <time>2025-05-12T15:41:09Z</time>
      </trkpt>
      <trkpt lat="37.319714007899165" lon="-3.137455992400646">
        <ele>911.95000000000005</ele>
        <time>2025-05-12T15:41:11Z</time>
      </trkpt>
      <trkpt lat="37.318633999675512" lon="-3.137602005153894">
        <ele>912.42999999999995</ele>
        <time>2025-05-12T15:41:20Z</time>
      </trkpt>
      <trkpt lat="37.318335017189384" lon="-3.137770984321833">
        <ele>911.47000000000003</ele>
        <time>2025-05-12T15:41:22Z</time>
      </trkpt>
      <trkpt lat="37.318237032741308" lon="-3.137867962941527">
        <ele>911.47000000000003</ele>
        <time>2025-05-12T15:41:23Z</time>
      </trkpt>
      <trkpt lat="37.318172995001078" lon="-3.137996038421989">
        <ele>910.99000000000001</ele>
        <time>2025-05-12T15:41:24Z</time>
      </trkpt>
      <trkpt lat="37.318110968917608" lon="-3.138121012598276">
        <ele>910.02999999999997</ele>
        <time>2025-05-12T15:41:25Z</time>
      </trkpt>
      <trkpt lat="37.318051960319281" lon="-3.138239029794931">
        <ele>909.53999999999996</ele>
        <time>2025-05-12T15:41:26Z</time>
      </trkpt>
      <trkpt lat="37.318004015833139" lon="-3.138335002586246">
        <ele>909.05999999999995</ele>
        <time>2025-05-12T15:41:27Z</time>
      </trkpt>
      <trkpt lat="37.318009966984391" lon="-3.138512028381228">
        <ele>908.10000000000002</ele>
        <time>2025-05-12T15:41:28Z</time>
      </trkpt>
      <trkpt lat="37.318016001954675" lon="-3.13866700977087">
        <ele>906.17999999999995</ele>
        <time>2025-05-12T15:41:30Z</time>
      </trkpt>
      <trkpt lat="37.318062018603086" lon="-3.138949982821941">
        <ele>905.22000000000003</ele>
        <time>2025-05-12T15:41:31Z</time>
      </trkpt>
      <trkpt lat="37.318138964474201" lon="-3.139072023332119">
        <ele>904.25999999999999</ele>
        <time>2025-05-12T15:41:32Z</time>
      </trkpt>
      <trkpt lat="37.318227980285883" lon="-3.139170007780194">
        <ele>903.29999999999995</ele>
        <time>2025-05-12T15:41:33Z</time>
      </trkpt>
      <trkpt lat="37.318337028846145" lon="-3.139255000278354">
        <ele>902.33000000000004</ele>
        <time>2025-05-12T15:41:34Z</time>
      </trkpt>
      <trkpt lat="37.31845797970891" lon="-3.139278972521424">
        <ele>901.85000000000002</ele>
        <time>2025-05-12T15:41:35Z</time>
      </trkpt>
      <trkpt lat="37.318587983027101" lon="-3.139278972521424">
        <ele>901.37</ele>
        <time>2025-05-12T15:41:36Z</time>
      </trkpt>
      <trkpt lat="37.318706000223756" lon="-3.139247037470341">
        <ele>900.88999999999999</ele>
        <time>2025-05-12T15:41:37Z</time>
      </trkpt>
      <trkpt lat="37.318824017420411" lon="-3.13918299973011">
        <ele>900.40999999999997</ele>
        <time>2025-05-12T15:41:38Z</time>
      </trkpt>
      <trkpt lat="37.31892803683877" lon="-3.139087026938796">
        <ele>899.92999999999995</ele>
        <time>2025-05-12T15:41:39Z</time>
      </trkpt>
      <trkpt lat="37.319003976881504" lon="-3.138958029448986">
        <ele>899.92999999999995</ele>
        <time>2025-05-12T15:41:40Z</time>
      </trkpt>
      <trkpt lat="37.319049993529916" lon="-3.138807993382216">
        <ele>899.92999999999995</ele>
        <time>2025-05-12T15:41:41Z</time>
      </trkpt>
      <trkpt lat="37.319074971601367" lon="-3.138657035306096">
        <ele>899.92999999999995</ele>
        <time>2025-05-12T15:41:42Z</time>
      </trkpt>
      <trkpt lat="37.319071032106876" lon="-3.138485960662365">
        <ele>900.40999999999997</ele>
        <time>2025-05-12T15:41:43Z</time>
      </trkpt>
      <trkpt lat="37.319068014621735" lon="-3.138312036171556">
        <ele>900.40999999999997</ele>
        <time>2025-05-12T15:41:44Z</time>
      </trkpt>
      <trkpt lat="37.319013029336929" lon="-3.136656023561955">
        <ele>905.70000000000005</ele>
        <time>2025-05-12T15:41:52Z</time>
      </trkpt>
      <trkpt lat="37.318933987990022" lon="-3.134224014356732">
        <ele>915.30999999999995</ele>
        <time>2025-05-12T15:42:01Z</time>
      </trkpt>
      <trkpt lat="37.318974975496531" lon="-3.13151297159493">
        <ele>929.73000000000002</ele>
        <time>2025-05-12T15:42:11Z</time>
      </trkpt>
      <trkpt lat="37.319507980719209" lon="-3.127581020817161">
        <ele>952.79999999999995</ele>
        <time>2025-05-12T15:42:26Z</time>
      </trkpt>
      <trkpt lat="37.319661034271121" lon="-3.126401016488671">
        <ele>960.00999999999999</ele>
        <time>2025-05-12T15:42:32Z</time>
      </trkpt>
      <trkpt lat="37.319954987615347" lon="-3.124695969745517">
        <ele>969.14999999999998</ele>
        <time>2025-05-12T15:42:41Z</time>
      </trkpt>
      <trkpt lat="37.320405011996627" lon="-3.122408967465162">
        <ele>983.09000000000003</ele>
        <time>2025-05-12T15:42:51Z</time>
      </trkpt>
      <trkpt lat="37.320470977574587" lon="-3.119676969945431">
        <ele>991.74000000000001</ele>
        <time>2025-05-12T15:43:00Z</time>
      </trkpt>
      <trkpt lat="37.32073400169611" lon="-3.117450987920165">
        <ele>996.53999999999996</ele>
        <time>2025-05-12T15:43:09Z</time>
      </trkpt>
      <trkpt lat="37.321583004668355" lon="-3.115069018676877">
        <ele>1002.79</ele>
        <time>2025-05-12T15:43:18Z</time>
      </trkpt>
      <trkpt lat="37.322426978498697" lon="-3.112038038671017">
        <ele>1011.9299999999999</ele>
        <time>2025-05-12T15:43:28Z</time>
      </trkpt>
      <trkpt lat="37.322982028126717" lon="-3.109221970662475">
        <ele>1022.5</ele>
        <time>2025-05-12T15:43:37Z</time>
      </trkpt>
      <trkpt lat="37.323224013671279" lon="-3.10652400366962">
        <ele>1035</ele>
        <time>2025-05-12T15:43:45Z</time>
      </trkpt>
      <trkpt lat="37.323733968660235" lon="-3.104669004678726">
        <ele>1044.6099999999999</ele>
        <time>2025-05-12T15:43:52Z</time>
      </trkpt>
      <trkpt lat="37.324517006054521" lon="-3.103082980960608">
        <ele>1052.78</ele>
        <time>2025-05-12T15:43:59Z</time>
      </trkpt>
      <trkpt lat="37.325908988714218" lon="-3.101093033328652">
        <ele>1064.3199999999999</ele>
        <time>2025-05-12T15:44:08Z</time>
      </trkpt>
      <trkpt lat="37.328104041516781" lon="-3.098013019189239">
        <ele>1079.7</ele>
        <time>2025-05-12T15:44:22Z</time>
      </trkpt>
      <trkpt lat="37.329576993361115" lon="-3.096520034596324">
        <ele>1081.6199999999999</ele>
        <time>2025-05-12T15:44:30Z</time>
      </trkpt>
      <trkpt lat="37.331238035112619" lon="-3.095514038577676">
        <ele>1083.0599999999999</ele>
        <time>2025-05-12T15:44:38Z</time>
      </trkpt>
      <trkpt lat="37.333464017137885" lon="-3.094804007560015">
        <ele>1084.99</ele>
        <time>2025-05-12T15:44:48Z</time>
      </trkpt>
      <trkpt lat="37.33549696393311" lon="-3.094250969588757">
        <ele>1087.3900000000001</ele>
        <time>2025-05-12T15:44:58Z</time>
      </trkpt>
      <trkpt lat="37.337039988487959" lon="-3.09365501627326">
        <ele>1086.9100000000001</ele>
        <time>2025-05-12T15:45:07Z</time>
      </trkpt>
      <trkpt lat="37.337263030931354" lon="-3.093511015176773">
        <ele>1087.3900000000001</ele>
        <time>2025-05-12T15:45:09Z</time>
      </trkpt>
      <trkpt lat="37.337341988459229" lon="-3.093412024900317">
        <ele>1087.8699999999999</ele>
        <time>2025-05-12T15:45:10Z</time>
      </trkpt>
      <trkpt lat="37.337403008714318" lon="-3.093329966068268">
        <ele>1088.3499999999999</ele>
        <time>2025-05-12T15:45:11Z</time>
      </trkpt>
      <trkpt lat="37.337427986785769" lon="-3.093223012983799">
        <ele>1088.8299999999999</ele>
        <time>2025-05-12T15:45:12Z</time>
      </trkpt>
      <trkpt lat="37.337450031191111" lon="-3.093128968030214">
        <ele>1088.8299999999999</ele>
        <time>2025-05-12T15:45:13Z</time>
      </trkpt>
      <trkpt lat="37.337455982342362" lon="-3.093026038259268">
        <ele>1089.3099999999999</ele>
        <time>2025-05-12T15:45:14Z</time>
      </trkpt>
      <trkpt lat="37.337432010099292" lon="-3.092948002740741">
        <ele>1089.79</ele>
        <time>2025-05-12T15:45:15Z</time>
      </trkpt>
      <trkpt lat="37.337411977350712" lon="-3.09288295917213">
        <ele>1089.79</ele>
        <time>2025-05-12T15:45:16Z</time>
      </trkpt>
      <trkpt lat="37.337338970974088" lon="-3.092780029401183">
        <ele>1090.27</ele>
        <time>2025-05-12T15:45:17Z</time>
      </trkpt>
      <trkpt lat="37.337282979860902" lon="-3.092780029401183">
        <ele>1090.27</ele>
        <time>2025-05-12T15:45:18Z</time>
      </trkpt>
      <trkpt lat="37.337218020111322" lon="-3.092780029401183">
        <ele>1090.75</ele>
        <time>2025-05-12T15:45:19Z</time>
      </trkpt>
      <trkpt lat="37.337139984592795" lon="-3.092805007472634">
        <ele>1090.75</ele>
        <time>2025-05-12T15:45:20Z</time>
      </trkpt>
      <trkpt lat="37.337053986266255" lon="-3.092835014685988">
        <ele>1090.75</ele>
        <time>2025-05-12T15:45:21Z</time>
      </trkpt>
      <trkpt lat="37.336962958797812" lon="-3.092868039384484">
        <ele>1090.75</ele>
        <time>2025-05-12T15:45:22Z</time>
      </trkpt>
      <trkpt lat="37.336871009320021" lon="-3.092925036326051">
        <ele>1090.75</ele>
        <time>2025-05-12T15:45:23Z</time>
      </trkpt>
      <trkpt lat="37.336808983236551" lon="-3.092985972762108">
        <ele>1090.75</ele>
        <time>2025-05-12T15:45:24Z</time>
      </trkpt>
      <trkpt lat="37.336752992123365" lon="-3.093054033815861">
        <ele>1090.75</ele>
        <time>2025-05-12T15:45:25Z</time>
      </trkpt>
      <trkpt lat="37.336704963818192" lon="-3.093124022707343">
        <ele>1090.75</ele>
        <time>2025-05-12T15:45:26Z</time>
      </trkpt>
      <trkpt lat="37.336661964654922" lon="-3.093186970800161">
        <ele>1090.27</ele>
        <time>2025-05-12T15:45:27Z</time>
      </trkpt>
      <trkpt lat="37.336628017947078" lon="-3.093236004933715">
        <ele>1089.79</ele>
        <time>2025-05-12T15:45:28Z</time>
      </trkpt>
      <trkpt lat="37.336587030440569" lon="-3.093296019360423">
        <ele>1089.79</ele>
        <time>2025-05-12T15:45:30Z</time>
      </trkpt>
      <trkpt lat="37.336543025448918" lon="-3.093359973281622">
        <ele>1089.3099999999999</ele>
        <time>2025-05-12T15:45:31Z</time>
      </trkpt>
      <trkpt lat="37.336543025448918" lon="-3.093359973281622">
        <ele>1088.3499999999999</ele>
        <time>2025-05-12T15:45:35Z</time>
      </trkpt>
      <trkpt lat="37.336594993248582" lon="-3.093284033238888">
        <ele>1087.8699999999999</ele>
        <time>2025-05-12T15:45:36Z</time>
      </trkpt>
      <trkpt lat="37.336613014340401" lon="-3.093257965520024">
        <ele>1087.8699999999999</ele>
        <time>2025-05-12T15:45:38Z</time>
      </trkpt>
      <trkpt lat="37.336758021265268" lon="-3.093046993017197">
        <ele>1086.4300000000001</ele>
        <time>2025-05-12T15:45:41Z</time>
      </trkpt>
      <trkpt lat="37.336774030700326" lon="-3.092970969155431">
        <ele>1085.95</ele>
        <time>2025-05-12T15:45:43Z</time>
      </trkpt>
      <trkpt lat="37.336765984073281" lon="-3.09290399774909">
        <ele>1085.47</ele>
        <time>2025-05-12T15:45:44Z</time>
      </trkpt>
      <trkpt lat="37.33674100600183" lon="-3.092695958912373">
        <ele>1085.47</ele>
        <time>2025-05-12T15:45:46Z</time>
      </trkpt>
      <trkpt lat="37.336733965203166" lon="-3.09264499694109">
        <ele>1084.99</ele>
        <time>2025-05-12T15:45:47Z</time>
      </trkpt>
      <trkpt lat="37.336730025708675" lon="-3.092608032748103">
        <ele>1084.99</ele>
        <time>2025-05-12T15:45:48Z</time>
      </trkpt>
      <trkpt lat="37.336728014051914" lon="-3.092591017484665">
        <ele>1084.99</ele>
        <time>2025-05-12T15:45:49Z</time>
      </trkpt>
      <trkpt lat="37.336716027930379" lon="-3.092485992237926">
        <ele>1084.02</ele>
        <time>2025-05-12T15:45:59Z</time>
      </trkpt>
      <trkpt lat="37.3366769682616" lon="-3.092167982831597">
        <ele>1084.02</ele>
        <time>2025-05-12T15:46:03Z</time>
      </trkpt>
      <trkpt lat="37.336670011281967" lon="-3.09210604056716">
        <ele>1084.02</ele>
        <time>2025-05-12T15:46:04Z</time>
      </trkpt>
      <trkpt lat="37.336662970483303" lon="-3.092052983120084">
        <ele>1084.02</ele>
        <time>2025-05-12T15:46:05Z</time>
      </trkpt>
      <trkpt lat="37.336658025160432" lon="-3.092008978128433">
        <ele>1084.02</ele>
        <time>2025-05-12T15:46:06Z</time>
      </trkpt>
      <trkpt lat="37.336649978533387" lon="-3.091943012550473">
        <ele>1084.5</ele>
        <time>2025-05-12T15:46:07Z</time>
      </trkpt>
      <trkpt lat="37.336672022938728" lon="-3.091900013387203">
        <ele>1084.99</ele>
        <time>2025-05-12T15:46:08Z</time>
      </trkpt>
      <trkpt lat="37.336656013503671" lon="-3.091993974521756">
        <ele>1085.47</ele>
        <time>2025-05-12T15:46:09Z</time>
      </trkpt>
      <trkpt lat="37.336659030988812" lon="-3.092019036412239">
        <ele>1085.95</ele>
        <time>2025-05-12T15:46:10Z</time>
      </trkpt>
      <trkpt lat="37.336661964654922" lon="-3.092040996998549">
        <ele>1085.95</ele>
        <time>2025-05-12T15:46:11Z</time>
      </trkpt>
      <trkpt lat="37.336661964654922" lon="-3.092040996998549">
        <ele>1086.4300000000001</ele>
        <time>2025-05-12T15:46:27Z</time>
      </trkpt>
      <trkpt lat="37.336661964654922" lon="-3.092040996998549">
        <ele>1086.9100000000001</ele>
        <time>2025-05-12T15:47:13Z</time>
      </trkpt>
      <trkpt lat="37.336661964654922" lon="-3.092040996998549">
        <ele>1087.3900000000001</ele>
        <time>2025-05-12T15:47:59Z</time>
      </trkpt>
      <trkpt lat="37.336661964654922" lon="-3.092040996998549">
        <ele>1087.3900000000001</ele>
        <time>2025-05-12T15:48:02Z</time>
      </trkpt>
      <trkpt lat="37.336671017110348" lon="-3.092115009203553">
        <ele>1088.3499999999999</ele>
        <time>2025-05-12T15:48:20Z</time>
      </trkpt>
      <trkpt lat="37.336713010445237" lon="-3.092467971146107">
        <ele>1087.8699999999999</ele>
        <time>2025-05-12T15:48:25Z</time>
      </trkpt>
      <trkpt lat="37.33671996742487" lon="-3.092521028593183">
        <ele>1087.8699999999999</ele>
        <time>2025-05-12T15:48:26Z</time>
      </trkpt>
      <trkpt lat="37.336726002395153" lon="-3.092571990564466">
        <ele>1087.8699999999999</ele>
        <time>2025-05-12T15:48:27Z</time>
      </trkpt>
      <trkpt lat="37.336732037365437" lon="-3.0926220305264">
        <ele>1087.3900000000001</ele>
        <time>2025-05-12T15:48:28Z</time>
      </trkpt>
      <trkpt lat="37.336737988516688" lon="-3.092671986669302">
        <ele>1087.8699999999999</ele>
        <time>2025-05-12T15:48:29Z</time>
      </trkpt>
      <trkpt lat="37.33676296658814" lon="-3.0928810313344">
        <ele>1087.3900000000001</ele>
        <time>2025-05-12T15:48:33Z</time>
      </trkpt>
      <trkpt lat="37.336907973513007" lon="-3.092886982485652">
        <ele>1086.9100000000001</ele>
        <time>2025-05-12T15:48:34Z</time>
      </trkpt>
      <trkpt lat="37.336907973513007" lon="-3.092886982485652">
        <ele>1085.47</ele>
        <time>2025-05-12T15:48:36Z</time>
      </trkpt>
      <trkpt lat="37.337009981274605" lon="-3.092851024121046">
        <ele>1084.99</ele>
        <time>2025-05-12T15:48:37Z</time>
      </trkpt>
      <trkpt lat="37.337207961827517" lon="-3.092780029401183">
        <ele>1084.02</ele>
        <time>2025-05-12T15:48:40Z</time>
      </trkpt>
      <trkpt lat="37.337423041462898" lon="-3.092629993334413">
        <ele>1084.02</ele>
        <time>2025-05-12T15:48:41Z</time>
      </trkpt>
      <trkpt lat="37.337423041462898" lon="-3.092629993334413">
        <ele>1084.02</ele>
        <time>2025-05-12T15:48:43Z</time>
      </trkpt>
      <trkpt lat="37.337480960413814" lon="-3.092564027756453">
        <ele>1084.02</ele>
        <time>2025-05-12T15:48:44Z</time>
      </trkpt>
      <trkpt lat="37.337572993710637" lon="-3.092457996681333">
        <ele>1084.02</ele>
        <time>2025-05-12T15:48:45Z</time>
      </trkpt>
      <trkpt lat="37.337724035605788" lon="-3.092488003894687">
        <ele>1084.02</ele>
        <time>2025-05-12T15:48:46Z</time>
      </trkpt>
      <trkpt lat="37.337803998962045" lon="-3.092525973916054">
        <ele>1084.5</ele>
        <time>2025-05-12T15:48:47Z</time>
      </trkpt>
      <trkpt lat="37.337851021438837" lon="-3.092595962807536">
        <ele>1084.5</ele>
        <time>2025-05-12T15:48:48Z</time>
      </trkpt>
      <trkpt lat="37.337886979803443" lon="-3.092677015811205">
        <ele>1084.99</ele>
        <time>2025-05-12T15:48:49Z</time>
      </trkpt>
      <trkpt lat="37.337912041693926" lon="-3.092767037451267">
        <ele>1084.99</ele>
        <time>2025-05-12T15:48:50Z</time>
      </trkpt>
      <trkpt lat="37.337893014773726" lon="-3.092873990535736">
        <ele>1084.99</ele>
        <time>2025-05-12T15:48:51Z</time>
      </trkpt>
      <trkpt lat="37.337872982025146" lon="-3.092952026054263">
        <ele>1084.99</ele>
        <time>2025-05-12T15:48:52Z</time>
      </trkpt>
      <trkpt lat="37.337872982025146" lon="-3.092952026054263">
        <ele>1084.99</ele>
        <time>2025-05-12T15:48:53Z</time>
      </trkpt>
      <trkpt lat="37.337724035605788" lon="-3.093217983841896">
        <ele>1084.99</ele>
        <time>2025-05-12T15:48:54Z</time>
      </trkpt>
      <trkpt lat="37.337748007848859" lon="-3.093317979946733">
        <ele>1084.99</ele>
        <time>2025-05-12T15:48:55Z</time>
      </trkpt>
      <trkpt lat="37.337774997577071" lon="-3.093428034335375">
        <ele>1084.99</ele>
        <time>2025-05-12T15:48:56Z</time>
      </trkpt>
      <trkpt lat="37.337802993133664" lon="-3.093546973541379">
        <ele>1084.99</ele>
        <time>2025-05-12T15:48:57Z</time>
      </trkpt>
      <trkpt lat="37.337833000347018" lon="-3.093679994344711">
        <ele>1084.99</ele>
        <time>2025-05-12T15:48:58Z</time>
      </trkpt>
      <trkpt lat="37.337953029200435" lon="-3.094495972618461">
        <ele>1084.99</ele>
        <time>2025-05-12T15:49:03Z</time>
      </trkpt>
      <trkpt lat="37.337927967309952" lon="-3.094670986756682">
        <ele>1084.99</ele>
        <time>2025-05-12T15:49:04Z</time>
      </trkpt>
      <trkpt lat="37.337892008945346" lon="-3.094825968146324">
        <ele>1084.5</ele>
        <time>2025-05-12T15:49:05Z</time>
      </trkpt>
      <trkpt lat="37.337792012840509" lon="-3.094955971464515">
        <ele>1084.5</ele>
        <time>2025-05-12T15:49:06Z</time>
      </trkpt>
      <trkpt lat="37.337678018957376" lon="-3.095028977841139">
        <ele>1084.02</ele>
        <time>2025-05-12T15:49:07Z</time>
      </trkpt>
      <trkpt lat="37.337564025074244" lon="-3.095054961740971">
        <ele>1083.54</ele>
        <time>2025-05-12T15:49:08Z</time>
      </trkpt>
      <trkpt lat="37.337437961250544" lon="-3.095054961740971">
        <ele>1083.54</ele>
        <time>2025-05-12T15:49:09Z</time>
      </trkpt>
      <trkpt lat="37.337293960154057" lon="-3.095054961740971">
        <ele>1083.0599999999999</ele>
        <time>2025-05-12T15:49:10Z</time>
      </trkpt>
      <trkpt lat="37.337202010676265" lon="-3.094969969242811">
        <ele>1082.0999999999999</ele>
        <time>2025-05-12T15:49:12Z</time>
      </trkpt>
      <trkpt lat="37.336735976859927" lon="-3.09453796595335">
        <ele>1081.1400000000001</ele>
        <time>2025-05-12T15:49:15Z</time>
      </trkpt>
      <trkpt lat="37.336599016562104" lon="-3.094453979283571">
        <ele>1081.1400000000001</ele>
        <time>2025-05-12T15:49:16Z</time>
      </trkpt>
      <trkpt lat="37.336455015465617" lon="-3.094398993998766">
        <ele>1081.1400000000001</ele>
        <time>2025-05-12T15:49:17Z</time>
      </trkpt>
      <trkpt lat="37.336300034075975" lon="-3.094369992613792">
        <ele>1081.1400000000001</ele>
        <time>2025-05-12T15:49:18Z</time>
      </trkpt>
      <trkpt lat="37.33613801188767" lon="-3.094350965693593">
        <ele>1081.6199999999999</ele>
        <time>2025-05-12T15:49:19Z</time>
      </trkpt>
      <trkpt lat="37.335965009406209" lon="-3.094368986785412">
        <ele>1082.0999999999999</ele>
        <time>2025-05-12T15:49:20Z</time>
      </trkpt>
      <trkpt lat="37.335787983611226" lon="-3.094387007877231">
        <ele>1082.0999999999999</ele>
        <time>2025-05-12T15:49:21Z</time>
      </trkpt>
      <trkpt lat="37.335605006664991" lon="-3.09440603479743">
        <ele>1082.5799999999999</ele>
        <time>2025-05-12T15:49:22Z</time>
      </trkpt>
      <trkpt lat="37.333741961047053" lon="-3.094905009493232">
        <ele>1084.02</ele>
        <time>2025-05-12T15:49:31Z</time>
      </trkpt>
      <trkpt lat="37.331283967941999" lon="-3.095655022189021">
        <ele>1081.6199999999999</ele>
        <time>2025-05-12T15:49:41Z</time>
      </trkpt>
      <trkpt lat="37.329550003632903" lon="-3.096719020977616">
        <ele>1079.7</ele>
        <time>2025-05-12T15:49:49Z</time>
      </trkpt>
      <trkpt lat="37.32806297019124" lon="-3.098294986411929">
        <ele>1079.7</ele>
        <time>2025-05-12T15:49:57Z</time>
      </trkpt>
      <trkpt lat="37.326499996706843" lon="-3.100480986759067">
        <ele>1072.97</ele>
        <time>2025-05-12T15:50:06Z</time>
      </trkpt>
      <trkpt lat="37.324877008795738" lon="-3.102806964889169">
        <ele>1060.95</ele>
        <time>2025-05-12T15:50:16Z</time>
      </trkpt>
      <trkpt lat="37.323788031935692" lon="-3.104897998273373">
        <ele>1049.4200000000001</ele>
        <time>2025-05-12T15:50:24Z</time>
      </trkpt>
      <trkpt lat="37.323292996734381" lon="-3.107010992243886">
        <ele>1038.8399999999999</ele>
        <time>2025-05-12T15:50:31Z</time>
      </trkpt>
      <trkpt lat="37.323132986202836" lon="-3.109349962323904">
        <ele>1029.71</ele>
        <time>2025-05-12T15:50:39Z</time>
      </trkpt>
      <trkpt lat="37.322762003168464" lon="-3.111420040950179">
        <ele>1020.1</ele>
        <time>2025-05-12T15:50:46Z</time>
      </trkpt>
      <trkpt lat="37.321907971054316" lon="-3.114698035642505">
        <ele>1005.2</ele>
        <time>2025-05-12T15:50:57Z</time>
      </trkpt>
      <trkpt lat="37.321534976363182" lon="-3.117046980187297">
        <ele>996.53999999999996</ele>
        <time>2025-05-12T15:51:05Z</time>
      </trkpt>
      <trkpt lat="37.321223001927137" lon="-3.120347019284964">
        <ele>987.40999999999997</ele>
        <time>2025-05-12T15:51:16Z</time>
      </trkpt>
      <trkpt lat="37.320781024172902" lon="-3.122283993288875">
        <ele>977.32000000000005</ele>
        <time>2025-05-12T15:51:24Z</time>
      </trkpt>
      <trkpt lat="37.320010978728533" lon="-3.125417986884713">
        <ele>960.49000000000001</ele>
        <time>2025-05-12T15:51:36Z</time>
      </trkpt>
      <trkpt lat="37.319519966840744" lon="-3.128448966890574">
        <ele>945.11000000000001</ele>
        <time>2025-05-12T15:51:47Z</time>
      </trkpt>
      <trkpt lat="37.319088969379663" lon="-3.131687985733151">
        <ele>925.40999999999997</ele>
        <time>2025-05-12T15:51:59Z</time>
      </trkpt>
      <trkpt lat="37.319061979651451" lon="-3.134224014356732">
        <ele>912.42999999999995</ele>
        <time>2025-05-12T15:52:07Z</time>
      </trkpt>
      <trkpt lat="37.319245962426066" lon="-3.137003034353256">
        <ele>896.57000000000005</ele>
        <time>2025-05-12T15:52:17Z</time>
      </trkpt>
      <trkpt lat="37.319485014304519" lon="-3.138800030574203">
        <ele>888.39999999999998</ele>
        <time>2025-05-12T15:52:25Z</time>
      </trkpt>
      <trkpt lat="37.319534970447421" lon="-3.138976972550154">
        <ele>887.90999999999997</ele>
        <time>2025-05-12T15:52:26Z</time>
      </trkpt>
      <trkpt lat="37.319618035107851" lon="-3.13909599557519">
        <ele>887.90999999999997</ele>
        <time>2025-05-12T15:52:27Z</time>
      </trkpt>
      <trkpt lat="37.319721970707178" lon="-3.139193980023265">
        <ele>887.90999999999997</ele>
        <time>2025-05-12T15:52:28Z</time>
      </trkpt>
      <trkpt lat="37.319835964590311" lon="-3.139270003885031">
        <ele>887.90999999999997</ele>
        <time>2025-05-12T15:52:29Z</time>
      </trkpt>
      <trkpt lat="37.319974014535546" lon="-3.139316020533443">
        <ele>888.39999999999998</ele>
        <time>2025-05-12T15:52:30Z</time>
      </trkpt>
      <trkpt lat="37.320106029510498" lon="-3.139303028583527">
        <ele>888.88</ele>
        <time>2025-05-12T15:52:31Z</time>
      </trkpt>
      <trkpt lat="37.320237960666418" lon="-3.139227004721761">
        <ele>890.32000000000005</ele>
        <time>2025-05-12T15:52:33Z</time>
      </trkpt>
      <trkpt lat="37.320443987846375" lon="-3.13901100307703">
        <ele>891.27999999999997</ele>
        <time>2025-05-12T15:52:34Z</time>
      </trkpt>
      <trkpt lat="37.320513976737857" lon="-3.138872031122446">
        <ele>891.75999999999999</ele>
        <time>2025-05-12T15:52:35Z</time>
      </trkpt>
      <trkpt lat="37.320548007264733" lon="-3.138720989227295">
        <ele>892.24000000000001</ele>
        <time>2025-05-12T15:52:36Z</time>
      </trkpt>
      <trkpt lat="37.320565022528172" lon="-3.138566007837653">
        <ele>892.72000000000003</ele>
        <time>2025-05-12T15:52:37Z</time>
      </trkpt>
      <trkpt lat="37.320564016699791" lon="-3.138403985649347">
        <ele>894.15999999999997</ele>
        <time>2025-05-12T15:52:39Z</time>
      </trkpt>
      <trkpt lat="37.320453962311149" lon="-3.138115983456373">
        <ele>895.12</ele>
        <time>2025-05-12T15:52:40Z</time>
      </trkpt>
      <trkpt lat="37.320395959541202" lon="-3.137974999845028">
        <ele>896.09000000000003</ele>
        <time>2025-05-12T15:52:41Z</time>
      </trkpt>
      <trkpt lat="37.320309039205313" lon="-3.137844996526837">
        <ele>897.52999999999997</ele>
        <time>2025-05-12T15:52:42Z</time>
      </trkpt>
      <trkpt lat="37.320221029222012" lon="-3.13772396184504">
        <ele>898.49000000000001</ele>
        <time>2025-05-12T15:52:43Z</time>
      </trkpt>
      <trkpt lat="37.320098988711834" lon="-3.137643998488784">
        <ele>899.92999999999995</ele>
        <time>2025-05-12T15:52:44Z</time>
      </trkpt>
      <trkpt lat="37.319978037849069" lon="-3.137562023475766">
        <ele>900.88999999999999</ele>
        <time>2025-05-12T15:52:45Z</time>
      </trkpt>
      <trkpt lat="37.319848034530878" lon="-3.13750796020031">
        <ele>901.85000000000002</ele>
        <time>2025-05-12T15:52:46Z</time>
      </trkpt>
      <trkpt lat="37.319710990414023" lon="-3.137455992400646">
        <ele>902.82000000000005</ele>
        <time>2025-05-12T15:52:47Z</time>
      </trkpt>
      <trkpt lat="37.319567995145917" lon="-3.137469990178943">
        <ele>903.77999999999997</ele>
        <time>2025-05-12T15:52:48Z</time>
      </trkpt>
      <trkpt lat="37.319418964907527" lon="-3.13748499378562">
        <ele>904.74000000000001</ele>
        <time>2025-05-12T15:52:49Z</time>
      </trkpt>
      <trkpt lat="37.317852973937988" lon="-3.137519024312496">
        <ele>903.77999999999997</ele>
        <time>2025-05-12T15:52:58Z</time>
      </trkpt>
      <trkpt lat="37.316916966810822" lon="-3.137460015714169">
        <ele>901.85000000000002</ele>
        <time>2025-05-12T15:53:03Z</time>
      </trkpt>
      <trkpt lat="37.315231030806899" lon="-3.136920975521207">
        <ele>902.33000000000004</ele>
        <time>2025-05-12T15:53:13Z</time>
      </trkpt>
      <trkpt lat="37.312863981351256" lon="-3.135925959795713">
        <ele>903.29999999999995</ele>
        <time>2025-05-12T15:53:27Z</time>
      </trkpt>
      <trkpt lat="37.310837991535664" lon="-3.134662974625826">
        <ele>908.58000000000004</ele>
        <time>2025-05-12T15:53:39Z</time>
      </trkpt>
      <trkpt lat="37.309133028611541" lon="-3.133324971422553">
        <ele>913.38999999999999</ele>
        <time>2025-05-12T15:53:50Z</time>
      </trkpt>
      <trkpt lat="37.308432972058654" lon="-3.13275801949203">
        <ele>916.75</ele>
        <time>2025-05-12T15:53:57Z</time>
      </trkpt>
      <trkpt lat="37.307489002123475" lon="-3.13198302872479">
        <ele>917.72000000000003</ele>
        <time>2025-05-12T15:54:09Z</time>
      </trkpt>
      <trkpt lat="37.307368973270059" lon="-3.131911028176546">
        <ele>918.67999999999995</ele>
        <time>2025-05-12T15:54:11Z</time>
      </trkpt>
      <trkpt lat="37.307320022955537" lon="-3.131882026791573">
        <ele>919.15999999999997</ele>
        <time>2025-05-12T15:54:12Z</time>
      </trkpt>
      <trkpt lat="37.307267971336842" lon="-3.131850007921457">
        <ele>919.63999999999999</ele>
        <time>2025-05-12T15:54:13Z</time>
      </trkpt>
      <trkpt lat="37.307213991880417" lon="-3.131817989051342">
        <ele>920.12</ele>
        <time>2025-05-12T15:54:14Z</time>
      </trkpt>
      <trkpt lat="37.307108966633677" lon="-3.131836010143161">
        <ele>920.60000000000002</ele>
        <time>2025-05-12T15:54:15Z</time>
      </trkpt>
      <trkpt lat="37.30704702436924" lon="-3.131884960457683">
        <ele>921.08000000000004</ele>
        <time>2025-05-12T15:54:16Z</time>
      </trkpt>
      <trkpt lat="37.306986004114151" lon="-3.131933994591236">
        <ele>921.55999999999995</ele>
        <time>2025-05-12T15:54:17Z</time>
      </trkpt>
      <trkpt lat="37.306928001344204" lon="-3.131980011239648">
        <ele>922.03999999999996</ele>
        <time>2025-05-12T15:54:18Z</time>
      </trkpt>
      <trkpt lat="37.306874021887779" lon="-3.132022004574537">
        <ele>922.51999999999998</ele>
        <time>2025-05-12T15:54:19Z</time>
      </trkpt>
      <trkpt lat="37.306476971134543" lon="-3.132433975115418">
        <ele>926.37</ele>
        <time>2025-05-12T15:54:30Z</time>
      </trkpt>
      <trkpt lat="37.306434977799654" lon="-3.132468005642295">
        <ele>925.88999999999999</ele>
        <time>2025-05-12T15:54:40Z</time>
      </trkpt>
      <trkpt lat="37.305679013952613" lon="-3.133082985877991">
        <ele>1090.27</ele>
        <time>2025-05-12T15:59:03Z</time>
      </trkpt>
      <trkpt lat="37.306112023070455" lon="-3.132808981463313">
        <ele>1022.5</ele>
        <time>2025-05-12T15:59:36Z</time>
      </trkpt>
      <trkpt lat="37.306090984493494" lon="-3.13282398506999">
        <ele>979.24000000000001</ele>
        <time>2025-05-12T16:00:25Z</time>
      </trkpt>
      <trkpt lat="37.306150998920202" lon="-3.132752990350127">
        <ele>979.72000000000003</ele>
        <time>2025-05-12T16:00:34Z</time>
      </trkpt>
      <trkpt lat="37.306061983108521" lon="-3.132775034755468">
        <ele>980.67999999999995</ele>
        <time>2025-05-12T16:00:35Z</time>
      </trkpt>
      <trkpt lat="37.305958969518542" lon="-3.132853992283344">
        <ele>980.20000000000005</ele>
        <time>2025-05-12T16:00:39Z</time>
      </trkpt>
      <trkpt lat="37.305875988677144" lon="-3.132813004776835">
        <ele>980.20000000000005</ele>
        <time>2025-05-12T16:00:40Z</time>
      </trkpt>
      <trkpt lat="37.305830977857113" lon="-3.132850974798203">
        <ele>980.20000000000005</ele>
        <time>2025-05-12T16:00:41Z</time>
      </trkpt>
      <trkpt lat="37.305784961208701" lon="-3.132888022810221">
        <ele>980.20000000000005</ele>
        <time>2025-05-12T16:00:42Z</time>
      </trkpt>
      <trkpt lat="37.305744979530573" lon="-3.132921969518066">
        <ele>979.72000000000003</ele>
        <time>2025-05-12T16:00:43Z</time>
      </trkpt>
      <trkpt lat="37.305701980367303" lon="-3.132957005873323">
        <ele>979.72000000000003</ele>
        <time>2025-05-12T16:00:44Z</time>
      </trkpt>
      <trkpt lat="37.305660992860794" lon="-3.132991958409548">
        <ele>977.79999999999995</ele>
        <time>2025-05-12T16:00:45Z</time>
      </trkpt>
      <trkpt lat="37.305562002584338" lon="-3.133074017241597">
        <ele>974.90999999999997</ele>
        <time>2025-05-12T16:00:47Z</time>
      </trkpt>
      <trkpt lat="37.305328985676169" lon="-3.133258000016213">
        <ele>967.22000000000003</ele>
        <time>2025-05-12T16:00:52Z</time>
      </trkpt>
      <trkpt lat="37.305294033139944" lon="-3.133284989744425">
        <ele>966.25999999999999</ele>
        <time>2025-05-12T16:00:53Z</time>
      </trkpt>
      <trkpt lat="37.305149026215076" lon="-3.133399989455938">
        <ele>959.04999999999995</ele>
        <time>2025-05-12T16:00:58Z</time>
      </trkpt>
      <trkpt lat="37.305096974596381" lon="-3.133441982790828">
        <ele>958.09000000000003</ele>
        <time>2025-05-12T16:00:59Z</time>
      </trkpt>
      <trkpt lat="37.305039977654815" lon="-3.133486993610859">
        <ele>957.13</ele>
        <time>2025-05-12T16:01:00Z</time>
      </trkpt>
      <trkpt lat="37.304980969056487" lon="-3.133534016087651">
        <ele>956.16999999999996</ele>
        <time>2025-05-12T16:01:01Z</time>
      </trkpt>
      <trkpt lat="37.304921038448811" lon="-3.133581038564444">
        <ele>955.69000000000005</ele>
        <time>2025-05-12T16:01:02Z</time>
      </trkpt>
      <trkpt lat="37.304440001025796" lon="-3.133959984406829">
        <ele>951.84000000000003</ele>
        <time>2025-05-12T16:01:12Z</time>
      </trkpt>
      <trkpt lat="37.304398007690907" lon="-3.133993009105325">
        <ele>951.36000000000001</ele>
        <time>2025-05-12T16:01:24Z</time>
      </trkpt>
      <trkpt lat="37.304331958293915" lon="-3.134045982733369">
        <ele>949.44000000000005</ele>
        <time>2025-05-12T16:01:34Z</time>
      </trkpt>
      <trkpt lat="37.304204972460866" lon="-3.134146984666586">
        <ele>946.07000000000005</ele>
        <time>2025-05-12T16:01:45Z</time>
      </trkpt>
      <trkpt lat="37.304204972460866" lon="-3.134146984666586">
        <ele>946.07000000000005</ele>
        <time>2025-05-12T16:02:09Z</time>
      </trkpt>
      <trkpt lat="37.304204972460866" lon="-3.134146984666586">
        <ele>946.07000000000005</ele>
        <time>2025-05-12T16:02:28Z</time>
      </trkpt>
      <trkpt lat="37.30412601493299" lon="-3.134211022406817">
        <ele>945.11000000000001</ele>
        <time>2025-05-12T16:02:40Z</time>
      </trkpt>
      <trkpt lat="37.304096007719636" lon="-3.134234994649887">
        <ele>943.66999999999996</ele>
        <time>2025-05-12T16:02:51Z</time>
      </trkpt>
      <trkpt lat="37.304044039919972" lon="-3.134275982156396">
        <ele>942.71000000000004</ele>
        <time>2025-05-12T16:03:05Z</time>
      </trkpt>
      <trkpt lat="37.303966004401445" lon="-3.134341025725007">
        <ele>941.75</ele>
        <time>2025-05-12T16:03:15Z</time>
      </trkpt>
      <trkpt lat="37.303966004401445" lon="-3.134341025725007">
        <ele>941.26999999999998</ele>
        <time>2025-05-12T16:03:21Z</time>
      </trkpt>
      <trkpt lat="37.304012021049857" lon="-3.134301966056228">
        <ele>941.26999999999998</ele>
        <time>2025-05-12T16:03:22Z</time>
      </trkpt>
      <trkpt lat="37.304047979414463" lon="-3.134272964671254">
        <ele>941.26999999999998</ele>
        <time>2025-05-12T16:03:23Z</time>
      </trkpt>
      <trkpt lat="37.304098019376397" lon="-3.134232982993126">
        <ele>941.26999999999998</ele>
        <time>2025-05-12T16:03:24Z</time>
      </trkpt>
      <trkpt lat="37.304156022146344" lon="-3.134186966344714">
        <ele>941.26999999999998</ele>
        <time>2025-05-12T16:03:25Z</time>
      </trkpt>
      <trkpt lat="37.304434971883893" lon="-3.133964007720351">
        <ele>940.78999999999996</ele>
        <time>2025-05-12T16:03:31Z</time>
      </trkpt>
      <trkpt lat="37.304490962997079" lon="-3.13391899690032">
        <ele>940.78999999999996</ele>
        <time>2025-05-12T16:03:32Z</time>
      </trkpt>
      <trkpt lat="37.304552989080548" lon="-3.133870968595147">
        <ele>941.26999999999998</ele>
        <time>2025-05-12T16:03:33Z</time>
      </trkpt>
      <trkpt lat="37.30537299066782" lon="-3.133222963660955">
        <ele>942.71000000000004</ele>
        <time>2025-05-12T16:03:45Z</time>
      </trkpt>
      <trkpt lat="37.305571977049112" lon="-3.133065970614553">
        <ele>942.23000000000002</ele>
        <time>2025-05-12T16:03:48Z</time>
      </trkpt>
      <trkpt lat="37.305631991475821" lon="-3.13301601447165">
        <ele>942.71000000000004</ele>
        <time>2025-05-12T16:03:49Z</time>
      </trkpt>
      <trkpt lat="37.306220987811685" lon="-3.132531037554145">
        <ele>941.75</ele>
        <time>2025-05-12T16:03:58Z</time>
      </trkpt>
      <trkpt lat="37.306282008066773" lon="-3.132482003420591">
        <ele>941.75</ele>
        <time>2025-05-12T16:03:59Z</time>
      </trkpt>
      <trkpt lat="37.307051969692111" lon="-3.131882026791573">
        <ele>936.94000000000005</ele>
        <time>2025-05-12T16:04:12Z</time>
      </trkpt>
      <trkpt lat="37.307102009654045" lon="-3.131841961294413">
        <ele>935.01999999999998</ele>
        <time>2025-05-12T16:04:13Z</time>
      </trkpt>
      <trkpt lat="37.307145008817315" lon="-3.131808014586568">
        <ele>933.58000000000004</ele>
        <time>2025-05-12T16:04:14Z</time>
      </trkpt>
      <trkpt lat="37.307181973010302" lon="-3.131779013201594">
        <ele>932.13999999999999</ele>
        <time>2025-05-12T16:04:15Z</time>
      </trkpt>
      <trkpt lat="37.307213991880417" lon="-3.131753029301763">
        <ele>930.69000000000005</ele>
        <time>2025-05-12T16:04:16Z</time>
      </trkpt>
      <trkpt lat="37.307247016578913" lon="-3.131726961582899">
        <ele>930.21000000000004</ele>
        <time>2025-05-12T16:04:17Z</time>
      </trkpt>
      <trkpt lat="37.307280963286757" lon="-3.131698966026306">
        <ele>929.25</ele>
        <time>2025-05-12T16:04:18Z</time>
      </trkpt>
      <trkpt lat="37.307366039603949" lon="-3.131631994619966">
        <ele>927.80999999999995</ele>
        <time>2025-05-12T16:04:20Z</time>
      </trkpt>
      <trkpt lat="37.307417001575232" lon="-3.131591007113457">
        <ele>927.80999999999995</ele>
        <time>2025-05-12T16:04:21Z</time>
      </trkpt>
      <trkpt lat="37.308119991794229" lon="-3.131008967757225">
        <ele>926.37</ele>
        <time>2025-05-12T16:04:31Z</time>
      </trkpt>
      <trkpt lat="37.309012999758124" lon="-3.130315029993653">
        <ele>929.73000000000002</ele>
        <time>2025-05-12T16:04:41Z</time>
      </trkpt>
      <trkpt lat="37.3092180211097" lon="-3.13013699837029">
        <ele>931.16999999999996</ele>
        <time>2025-05-12T16:04:44Z</time>
      </trkpt>
      <trkpt lat="37.309291027486324" lon="-3.130076983943582">
        <ele>931.16999999999996</ele>
        <time>2025-05-12T16:04:45Z</time>
      </trkpt>
      <trkpt lat="37.31020700186491" lon="-3.129357984289527">
        <ele>930.69000000000005</ele>
        <time>2025-05-12T16:04:55Z</time>
      </trkpt>
      <trkpt lat="37.311721025034785" lon="-3.128145039081574">
        <ele>932.13999999999999</ele>
        <time>2025-05-12T16:05:10Z</time>
      </trkpt>
      <trkpt lat="37.312585031613708" lon="-3.127440037205815">
        <ele>935.01999999999998</ele>
        <time>2025-05-12T16:05:20Z</time>
      </trkpt>
      <trkpt lat="37.3134920373559" lon="-3.126705028116703">
        <ele>939.35000000000002</ele>
        <time>2025-05-12T16:05:31Z</time>
      </trkpt>
      <trkpt lat="37.314212964847684" lon="-3.126160958781838">
        <ele>944.63</ele>
        <time>2025-05-12T16:05:39Z</time>
      </trkpt>
      <trkpt lat="37.31478301808238" lon="-3.125671958550811">
        <ele>950.88</ele>
        <time>2025-05-12T16:05:46Z</time>
      </trkpt>
      <trkpt lat="37.314877985045314" lon="-3.125600041821599">
        <ele>952.32000000000005</ele>
        <time>2025-05-12T16:05:47Z</time>
      </trkpt>
      <trkpt lat="37.314972029998899" lon="-3.125528963282704">
        <ele>953.76999999999998</ele>
        <time>2025-05-12T16:05:48Z</time>
      </trkpt>
      <trkpt lat="37.315065991133451" lon="-3.125457968562841">
        <ele>955.21000000000004</ele>
        <time>2025-05-12T16:05:49Z</time>
      </trkpt>
      <trkpt lat="37.315156012773514" lon="-3.125384962186217">
        <ele>957.13</ele>
        <time>2025-05-12T16:05:50Z</time>
      </trkpt>
      <trkpt lat="37.315243016928434" lon="-3.125314973294735">
        <ele>958.57000000000005</ele>
        <time>2025-05-12T16:05:51Z</time>
      </trkpt>
      <trkpt lat="37.316305004060268" lon="-3.124448033049703">
        <ele>963.86000000000001</ele>
        <time>2025-05-12T16:06:03Z</time>
      </trkpt>
      <trkpt lat="37.317057028412819" lon="-3.123569022864103">
        <ele>967.70000000000005</ele>
        <time>2025-05-12T16:06:13Z</time>
      </trkpt>
      <trkpt lat="37.317936038598418" lon="-3.122444003820419">
        <ele>974.90999999999997</ele>
        <time>2025-05-12T16:06:24Z</time>
      </trkpt>
      <trkpt lat="37.318948991596699" lon="-3.121505985036492">
        <ele>979.72000000000003</ele>
        <time>2025-05-12T16:06:35Z</time>
      </trkpt>
      <trkpt lat="37.319050999358296" lon="-3.121365001425147">
        <ele>979.72000000000003</ele>
        <time>2025-05-12T16:06:36Z</time>
      </trkpt>
      <trkpt lat="37.319140015169978" lon="-3.121211025863886">
        <ele>979.72000000000003</ele>
        <time>2025-05-12T16:06:37Z</time>
      </trkpt>
      <trkpt lat="37.319227019324899" lon="-3.121060989797115">
        <ele>980.20000000000005</ele>
        <time>2025-05-12T16:06:38Z</time>
      </trkpt>
      <trkpt lat="37.319298014044762" lon="-3.1208770070225">
        <ele>981.15999999999997</ele>
        <time>2025-05-12T16:06:39Z</time>
      </trkpt>
      <trkpt lat="37.319372026249766" lon="-3.120687995105982">
        <ele>981.63999999999999</ele>
        <time>2025-05-12T16:06:40Z</time>
      </trkpt>
      <trkpt lat="37.320257993414998" lon="-3.118378026410937">
        <ele>989.33000000000004</ele>
        <time>2025-05-12T16:06:52Z</time>
      </trkpt>
      <trkpt lat="37.32051900587976" lon="-3.117673024535179">
        <ele>993.65999999999997</ele>
        <time>2025-05-12T16:06:56Z</time>
      </trkpt>
      <trkpt lat="37.320572985336185" lon="-3.11750597320497">
        <ele>994.62</ele>
        <time>2025-05-12T16:06:57Z</time>
      </trkpt>
      <trkpt lat="37.320624031126499" lon="-3.117344034835696">
        <ele>995.10000000000002</ele>
        <time>2025-05-12T16:06:58Z</time>
      </trkpt>
      <trkpt lat="37.320684967562556" lon="-3.117193998768926">
        <ele>995.10000000000002</ele>
        <time>2025-05-12T16:06:59Z</time>
      </trkpt>
      <trkpt lat="37.320749005302787" lon="-3.117033988237381">
        <ele>995.10000000000002</ele>
        <time>2025-05-12T16:07:00Z</time>
      </trkpt>
      <trkpt lat="37.321474961936474" lon="-3.115374958142638">
        <ele>998.95000000000005</ele>
        <time>2025-05-12T16:07:09Z</time>
      </trkpt>
      <trkpt lat="37.322007967159152" lon="-3.113617021590471">
        <ele>1005.2</ele>
        <time>2025-05-12T16:07:16Z</time>
      </trkpt>
      <trkpt lat="37.322808019816875" lon="-3.110511023551226">
        <ele>1016.73</ele>
        <time>2025-05-12T16:07:26Z</time>
      </trkpt>
      <trkpt lat="37.323042964562774" lon="-3.108400963246822">
        <ele>1026.3399999999999</ele>
        <time>2025-05-12T16:07:32Z</time>
      </trkpt>
      <trkpt lat="37.32344102114439" lon="-3.10557902790606">
        <ele>1038.3599999999999</ele>
        <time>2025-05-12T16:07:40Z</time>
      </trkpt>
      <trkpt lat="37.324214000254869" lon="-3.103621015325189">
        <ele>1048.9400000000001</ele>
        <time>2025-05-12T16:07:46Z</time>
      </trkpt>
      <trkpt lat="37.325533982366323" lon="-3.101618997752667">
        <ele>1060.47</ele>
        <time>2025-05-12T16:07:53Z</time>
      </trkpt>
      <trkpt lat="37.328548030927777" lon="-3.097508009523153">
        <ele>1079.22</ele>
        <time>2025-05-12T16:08:08Z</time>
      </trkpt>
      <trkpt lat="37.33025198802352" lon="-3.096034973859787">
        <ele>1081.1400000000001</ele>
        <time>2025-05-12T16:08:15Z</time>
      </trkpt>
      <trkpt lat="37.332197008654475" lon="-3.095163004472852">
        <ele>1084.5</ele>
        <time>2025-05-12T16:08:22Z</time>
      </trkpt>
      <trkpt lat="37.335689999163151" lon="-3.094199001789093">
        <ele>1086.4300000000001</ele>
        <time>2025-05-12T16:08:34Z</time>
      </trkpt>
      <trkpt lat="37.340347990393639" lon="-3.092993013560772">
        <ele>1080.1800000000001</ele>
        <time>2025-05-12T16:08:50Z</time>
      </trkpt>
      <trkpt lat="37.343812985345721" lon="-3.09200101532042">
        <ele>1074.4100000000001</ele>
        <time>2025-05-12T16:09:02Z</time>
      </trkpt>
      <trkpt lat="37.347461963072419" lon="-3.09043301269412">
        <ele>1071.05</ele>
        <time>2025-05-12T16:09:15Z</time>
      </trkpt>
      <trkpt lat="37.350377021357417" lon="-3.08864900842309">
        <ele>1076.8099999999999</ele>
        <time>2025-05-12T16:09:26Z</time>
      </trkpt>
      <trkpt lat="37.353354021906853" lon="-3.086251029744744">
        <ele>1085.95</ele>
        <time>2025-05-12T16:09:38Z</time>
      </trkpt>
      <trkpt lat="37.355891978368163" lon="-3.083692034706473">
        <ele>1097</ele>
        <time>2025-05-12T16:09:49Z</time>
      </trkpt>
      <trkpt lat="37.358846012502909" lon="-3.080620989203453">
        <ele>1108.54</ele>
        <time>2025-05-12T16:10:02Z</time>
      </trkpt>
      <trkpt lat="37.363184988498688" lon="-3.076111022382975">
        <ele>1120.0699999999999</ele>
        <time>2025-05-12T16:10:21Z</time>
      </trkpt>
      <trkpt lat="37.366491984575987" lon="-3.072990020737052">
        <ele>1123.4400000000001</ele>
        <time>2025-05-12T16:10:35Z</time>
      </trkpt>
      <trkpt lat="37.368397023528814" lon="-3.072016965597868">
        <ele>1125.3599999999999</ele>
        <time>2025-05-12T16:10:42Z</time>
      </trkpt>
      <trkpt lat="37.370440028607845" lon="-3.071568030864">
        <ele>1126.8</ele>
        <time>2025-05-12T16:10:49Z</time>
      </trkpt>
      <trkpt lat="37.37277103587985" lon="-3.07105497457087">
        <ele>1126.3199999999999</ele>
        <time>2025-05-12T16:10:57Z</time>
      </trkpt>
      <trkpt lat="37.374282963573933" lon="-3.069888968020678">
        <ele>1124.4000000000001</ele>
        <time>2025-05-12T16:11:03Z</time>
      </trkpt>
      <trkpt lat="37.375344028696418" lon="-3.068136982619762">
        <ele>1120.0699999999999</ele>
        <time>2025-05-12T16:11:09Z</time>
      </trkpt>
      <trkpt lat="37.375862030312419" lon="-3.066061958670616">
        <ele>1121.03</ele>
        <time>2025-05-12T16:11:15Z</time>
      </trkpt>
      <trkpt lat="37.376523027196527" lon="-3.062449023127556">
        <ele>1129.6900000000001</ele>
        <time>2025-05-12T16:11:25Z</time>
      </trkpt>
      <trkpt lat="37.377443024888635" lon="-3.06013603694737">
        <ele>1136.4200000000001</ele>
        <time>2025-05-12T16:11:32Z</time>
      </trkpt>
      <trkpt lat="37.378989988937974" lon="-3.057875018566847">
        <ele>1139.3</ele>
        <time>2025-05-12T16:11:40Z</time>
      </trkpt>
      <trkpt lat="37.381097031757236" lon="-3.055169004946947">
        <ele>1137.3800000000001</ele>
        <time>2025-05-12T16:11:50Z</time>
      </trkpt>
      <trkpt lat="37.384019969031215" lon="-3.051412990316749">
        <ele>1134.97</ele>
        <time>2025-05-12T16:12:04Z</time>
      </trkpt>
      <trkpt lat="37.386117037385702" lon="-3.048718040809035">
        <ele>1134.49</ele>
        <time>2025-05-12T16:12:14Z</time>
      </trkpt>
      <trkpt lat="37.387795010581613" lon="-3.046569004654884">
        <ele>1136.9000000000001</ele>
        <time>2025-05-12T16:12:28Z</time>
      </trkpt>
      <trkpt lat="37.390719037503004" lon="-3.042491041123867">
        <ele>1144.1099999999999</ele>
        <time>2025-05-12T16:12:37Z</time>
      </trkpt>
      <trkpt lat="37.391985962167382" lon="-3.040112005546689">
        <ele>1146.51</ele>
        <time>2025-05-12T16:12:45Z</time>
      </trkpt>
      <trkpt lat="37.393049038946629" lon="-3.037213962525129">
        <ele>1148.4300000000001</ele>
        <time>2025-05-12T16:12:54Z</time>
      </trkpt>
      <trkpt lat="37.393765021115541" lon="-3.033975027501583">
        <ele>1150.3499999999999</ele>
        <time>2025-05-12T16:13:03Z</time>
      </trkpt>
      <trkpt lat="37.394032990559936" lon="-3.030788982287049">
        <ele>1155.1600000000001</ele>
        <time>2025-05-12T16:13:12Z</time>
      </trkpt>
      <trkpt lat="37.393894018605351" lon="-3.02752397954464">
        <ele>1166.22</ele>
        <time>2025-05-12T16:13:21Z</time>
      </trkpt>
      <trkpt lat="37.393244002014399" lon="-3.023907020688057">
        <ele>1177.27</ele>
        <time>2025-05-12T16:13:31Z</time>
      </trkpt>
      <trkpt lat="37.392205987125635" lon="-3.020835975185037">
        <ele>1184</ele>
        <time>2025-05-12T16:13:40Z</time>
      </trkpt>
      <trkpt lat="37.390457019209862" lon="-3.016414018347859">
        <ele>1196.5</ele>
        <time>2025-05-12T16:13:54Z</time>
      </trkpt>
      <trkpt lat="37.389146005734801" lon="-3.012869982048869">
        <ele>1209.48</ele>
        <time>2025-05-12T16:14:07Z</time>
      </trkpt>
      <trkpt lat="37.388911982998252" lon="-3.011045996099711">
        <ele>1212.8399999999999</ele>
        <time>2025-05-12T16:14:13Z</time>
      </trkpt>
      <trkpt lat="37.389125972986221" lon="-3.008847003802657">
        <ele>1213.3199999999999</ele>
        <time>2025-05-12T16:14:20Z</time>
      </trkpt>
      <trkpt lat="37.38920602016151" lon="-3.008542992174625">
        <ele>1212.8399999999999</ele>
        <time>2025-05-12T16:14:21Z</time>
      </trkpt>
      <trkpt lat="37.389297969639301" lon="-3.008243003860116">
        <ele>1209.96</ele>
        <time>2025-05-12T16:14:28Z</time>
      </trkpt>
      <trkpt lat="37.390057034790516" lon="-3.006609035655856">
        <ele>1209</ele>
        <time>2025-05-12T16:14:34Z</time>
      </trkpt>
      <trkpt lat="37.390815010294318" lon="-3.005057964473963">
        <ele>1209</ele>
        <time>2025-05-12T16:14:41Z</time>
      </trkpt>
      <trkpt lat="37.391346003860235" lon="-3.000841028988361">
        <ele>1208.51</ele>
        <time>2025-05-12T16:14:48Z</time>
      </trkpt>
      <trkpt lat="37.391543984413147" lon="-2.998429974541068">
        <ele>1208.03</ele>
        <time>2025-05-12T16:14:56Z</time>
      </trkpt>
      <trkpt lat="37.392185032367706" lon="-2.996685029938817">
        <ele>1208.03</ele>
        <time>2025-05-12T16:15:02Z</time>
      </trkpt>
      <trkpt lat="37.393249031156301" lon="-2.995133958756924">
        <ele>1208.03</ele>
        <time>2025-05-12T16:15:08Z</time>
      </trkpt>
      <trkpt lat="37.394741009920835" lon="-2.994035007432103">
        <ele>1208.03</ele>
        <time>2025-05-12T16:15:14Z</time>
      </trkpt>
      <trkpt lat="37.39649198949337" lon="-2.993290023878217">
        <ele>1209</ele>
        <time>2025-05-12T16:15:20Z</time>
      </trkpt>
      <trkpt lat="37.396773034706712" lon="-2.993134036660194">
        <ele>1209.48</ele>
        <time>2025-05-12T16:15:21Z</time>
      </trkpt>
      <trkpt lat="37.397033963352442" lon="-2.992945024743676">
        <ele>1209.48</ele>
        <time>2025-05-12T16:15:22Z</time>
      </trkpt>
      <trkpt lat="37.397291036322713" lon="-2.992745032534003">
        <ele>1209.96</ele>
        <time>2025-05-12T16:15:23Z</time>
      </trkpt>
      <trkpt lat="37.397547019645572" lon="-2.992507992312312">
        <ele>1210.4400000000001</ele>
        <time>2025-05-12T16:15:24Z</time>
      </trkpt>
      <trkpt lat="37.397762015461922" lon="-2.992251003161073">
        <ele>1210.4400000000001</ele>
        <time>2025-05-12T16:15:25Z</time>
      </trkpt>
      <trkpt lat="37.397980028763413" lon="-2.991976998746395">
        <ele>1210.9200000000001</ele>
        <time>2025-05-12T16:15:26Z</time>
      </trkpt>
      <trkpt lat="37.398330979049206" lon="-2.991362018510699">
        <ele>1215.24</ele>
        <time>2025-05-12T16:15:34Z</time>
      </trkpt>
      <trkpt lat="37.398789972066879" lon="-2.987313978374004">
        <ele>1214.76</ele>
        <time>2025-05-12T16:15:39Z</time>
      </trkpt>
      <trkpt lat="37.398064015433192" lon="-2.984764035791159">
        <ele>1210.9200000000001</ele>
        <time>2025-05-12T16:15:46Z</time>
      </trkpt>
      <trkpt lat="37.396916029974818" lon="-2.98087902367115">
        <ele>1213.3199999999999</ele>
        <time>2025-05-12T16:15:57Z</time>
      </trkpt>
      <trkpt lat="37.396298032253981" lon="-2.978800982236862">
        <ele>1218.1300000000001</ele>
        <time>2025-05-12T16:16:04Z</time>
      </trkpt>
      <trkpt lat="37.394831031560898" lon="-2.973566986620426">
        <ele>1232.0699999999999</ele>
        <time>2025-05-12T16:16:22Z</time>
      </trkpt>
      <trkpt lat="37.394138015806675" lon="-2.9693409986794">
        <ele>1246.01</ele>
        <time>2025-05-12T16:16:36Z</time>
      </trkpt>
      <trkpt lat="37.393595036119223" lon="-2.96732297167182">
        <ele>1256.5799999999999</ele>
        <time>2025-05-12T16:16:43Z</time>
      </trkpt>
      <trkpt lat="37.39253900013864" lon="-2.965243002399802">
        <ele>1267.6400000000001</ele>
        <time>2025-05-12T16:16:51Z</time>
      </trkpt>
      <trkpt lat="37.391983028501272" lon="-2.963538039475679">
        <ele>1270.04</ele>
        <time>2025-05-12T16:16:57Z</time>
      </trkpt>
      <trkpt lat="37.391898036003113" lon="-2.961702989414334">
        <ele>1271</ele>
        <time>2025-05-12T16:17:03Z</time>
      </trkpt>
      <trkpt lat="37.392298020422459" lon="-2.959933988749981">
        <ele>1271.96</ele>
        <time>2025-05-12T16:17:09Z</time>
      </trkpt>
      <trkpt lat="37.393104024231434" lon="-2.958392975851893">
        <ele>1273.4000000000001</ele>
        <time>2025-05-12T16:17:15Z</time>
      </trkpt>
      <trkpt lat="37.394271958619356" lon="-2.957265023142099">
        <ele>1275.3299999999999</ele>
        <time>2025-05-12T16:17:21Z</time>
      </trkpt>
      <trkpt lat="37.396069038659334" lon="-2.955663995817304">
        <ele>1274.3599999999999</ele>
        <time>2025-05-12T16:17:30Z</time>
      </trkpt>
      <trkpt lat="37.397307967767119" lon="-2.953736996278167">
        <ele>1272.4400000000001</ele>
        <time>2025-05-12T16:17:38Z</time>
      </trkpt>
      <trkpt lat="37.399004967883229" lon="-2.950332015752792">
        <ele>1263.3099999999999</ele>
        <time>2025-05-12T16:17:51Z</time>
      </trkpt>
      <trkpt lat="37.399921026080847" lon="-2.947485018521547">
        <ele>1256.0999999999999</ele>
        <time>2025-05-12T16:18:01Z</time>
      </trkpt>
      <trkpt lat="37.400409020483494" lon="-2.944155978038907">
        <ele>1254.1800000000001</ele>
        <time>2025-05-12T16:18:12Z</time>
      </trkpt>
      <trkpt lat="37.400705991312861" lon="-2.939858995378017">
        <ele>1258.02</ele>
        <time>2025-05-12T16:18:26Z</time>
      </trkpt>
      <trkpt lat="37.400977984070778" lon="-2.935763010755181">
        <ele>1261.8699999999999</ele>
        <time>2025-05-12T16:18:39Z</time>
      </trkpt>
      <trkpt lat="37.401200020685792" lon="-2.932411003857851">
        <ele>1264.27</ele>
        <time>2025-05-12T16:18:48Z</time>
      </trkpt>
      <trkpt lat="37.401736965402961" lon="-2.929166033864021">
        <ele>1268.1199999999999</ele>
        <time>2025-05-12T16:18:57Z</time>
      </trkpt>
      <trkpt lat="37.402699962258339" lon="-2.927300976589322">
        <ele>1270.52</ele>
        <time>2025-05-12T16:19:03Z</time>
      </trkpt>
      <trkpt lat="37.405591970309615" lon="-2.923030983656645">
        <ele>1274.3599999999999</ele>
        <time>2025-05-12T16:19:18Z</time>
      </trkpt>
      <trkpt lat="37.40757898427546" lon="-2.920281970873475">
        <ele>1263.3099999999999</ele>
        <time>2025-05-12T16:19:28Z</time>
      </trkpt>
      <trkpt lat="37.407804960384965" lon="-2.920063035562635">
        <ele>1263.3099999999999</ele>
        <time>2025-05-12T16:19:29Z</time>
      </trkpt>
      <trkpt lat="37.409308003261685" lon="-2.919013034552336">
        <ele>1267.6400000000001</ele>
        <time>2025-05-12T16:19:35Z</time>
      </trkpt>
      <trkpt lat="37.410840969532728" lon="-2.918630987405777">
        <ele>1268.5999999999999</ele>
        <time>2025-05-12T16:19:41Z</time>
      </trkpt>
      <trkpt lat="37.41256202571094" lon="-2.918773982673883">
        <ele>1269.0799999999999</ele>
        <time>2025-05-12T16:19:48Z</time>
      </trkpt>
      <trkpt lat="37.414464969187975" lon="-2.918833997100592">
        <ele>1268.5999999999999</ele>
        <time>2025-05-12T16:19:56Z</time>
      </trkpt>
      <trkpt lat="37.416180996224284" lon="-2.918356982991099">
        <ele>1266.1900000000001</ele>
        <time>2025-05-12T16:20:03Z</time>
      </trkpt>
      <trkpt lat="37.419050959870219" lon="-2.917461963370442">
        <ele>1257.0599999999999</ele>
        <time>2025-05-12T16:20:15Z</time>
      </trkpt>
      <trkpt lat="37.420774027705193" lon="-2.916654031723738">
        <ele>1254.6600000000001</ele>
        <time>2025-05-12T16:20:24Z</time>
      </trkpt>
      <trkpt lat="37.421419015154243" lon="-2.916169976815581">
        <ele>1257.0599999999999</ele>
        <time>2025-05-12T16:20:30Z</time>
      </trkpt>
      <trkpt lat="37.421466959640384" lon="-2.916136030107737">
        <ele>1257.0599999999999</ele>
        <time>2025-05-12T16:20:31Z</time>
      </trkpt>
      <trkpt lat="37.421541977673769" lon="-2.916082972660661">
        <ele>1258.02</ele>
        <time>2025-05-12T16:20:33Z</time>
      </trkpt>
      <trkpt lat="37.421643985435367" lon="-2.916011977940798">
        <ele>1258.02</ele>
        <time>2025-05-12T16:20:34Z</time>
      </trkpt>
      <trkpt lat="37.421695031225681" lon="-2.91616402566433">
        <ele>1257.54</ele>
        <time>2025-05-12T16:20:41Z</time>
      </trkpt>
      <trkpt lat="37.42197004146874" lon="-2.916969023644924">
        <ele>1257.54</ele>
        <time>2025-05-12T16:20:42Z</time>
      </trkpt>
      <trkpt lat="37.421909021213651" lon="-2.917053010314703">
        <ele>1257.54</ele>
        <time>2025-05-12T16:20:43Z</time>
      </trkpt>
      <trkpt lat="37.421845989301801" lon="-2.917080000042915">
        <ele>1257.0599999999999</ele>
        <time>2025-05-12T16:20:44Z</time>
      </trkpt>
      <trkpt lat="37.421764014288783" lon="-2.917114030569792">
        <ele>1257.0599999999999</ele>
        <time>2025-05-12T16:20:45Z</time>
      </trkpt>
      <trkpt lat="37.421668041497469" lon="-2.917155018076301">
        <ele>1257.0599999999999</ele>
        <time>2025-05-12T16:20:46Z</time>
      </trkpt>
      <trkpt lat="37.421580031514168" lon="-2.917191982269287">
        <ele>1257.0599999999999</ele>
        <time>2025-05-12T16:20:47Z</time>
      </trkpt>
      <trkpt lat="37.421448016539216" lon="-2.917196005582809">
        <ele>1257.0599999999999</ele>
        <time>2025-05-12T16:20:48Z</time>
      </trkpt>
      <trkpt lat="37.421307032927871" lon="-2.917200028896332">
        <ele>1256.5799999999999</ele>
        <time>2025-05-12T16:20:49Z</time>
      </trkpt>
      <trkpt lat="37.421164959669113" lon="-2.917204974219203">
        <ele>1256.0999999999999</ele>
        <time>2025-05-12T16:20:50Z</time>
      </trkpt>
      <trkpt lat="37.420809986069798" lon="-2.917228024452925">
        <ele>1254.1800000000001</ele>
        <time>2025-05-12T16:20:53Z</time>
      </trkpt>
      <trkpt lat="37.420720970258117" lon="-2.917248979210854">
        <ele>1253.7</ele>
        <time>2025-05-12T16:20:54Z</time>
      </trkpt>
      <trkpt lat="37.420648969709873" lon="-2.917265994474292">
        <ele>1253.22</ele>
        <time>2025-05-12T16:20:55Z</time>
      </trkpt>
      <trkpt lat="37.420565988868475" lon="-2.917436985298991">
        <ele>1253.22</ele>
        <time>2025-05-12T16:20:56Z</time>
      </trkpt>
      <trkpt lat="37.420595996081829" lon="-2.917505968362093">
        <ele>1252.74</ele>
        <time>2025-05-12T16:20:57Z</time>
      </trkpt>
      <trkpt lat="37.420633966103196" lon="-2.917595990002155">
        <ele>1252.25</ele>
        <time>2025-05-12T16:20:58Z</time>
      </trkpt>
      <trkpt lat="37.420693980529904" lon="-2.917658016085625">
        <ele>1251.77</ele>
        <time>2025-05-12T16:20:59Z</time>
      </trkpt>
      <trkpt lat="37.420757012441754" lon="-2.917720964178443">
        <ele>1251.29</ele>
        <time>2025-05-12T16:21:00Z</time>
      </trkpt>
      <trkpt lat="37.420827001333237" lon="-2.917738985270262">
        <ele>1250.8099999999999</ele>
        <time>2025-05-12T16:21:01Z</time>
      </trkpt>
      <trkpt lat="37.420916017144918" lon="-2.917714007198811">
        <ele>1250.8099999999999</ele>
        <time>2025-05-12T16:21:02Z</time>
      </trkpt>
      <trkpt lat="37.421014001592994" lon="-2.917687017470598">
        <ele>1250.8099999999999</ele>
        <time>2025-05-12T16:21:03Z</time>
      </trkpt>
      <trkpt lat="37.421121038496494" lon="-2.917657010257244">
        <ele>1250.3299999999999</ele>
        <time>2025-05-12T16:21:04Z</time>
      </trkpt>
      <trkpt lat="37.421233020722866" lon="-2.917662039399147">
        <ele>1249.8499999999999</ele>
        <time>2025-05-12T16:21:05Z</time>
      </trkpt>
      <trkpt lat="37.421368975192308" lon="-2.917705960571766">
        <ele>1248.8900000000001</ele>
        <time>2025-05-12T16:21:06Z</time>
      </trkpt>
      <trkpt lat="37.421513982117176" lon="-2.917751977220178">
        <ele>1247.9300000000001</ele>
        <time>2025-05-12T16:21:07Z</time>
      </trkpt>
      <trkpt lat="37.421665024012327" lon="-2.917800005525351">
        <ele>1246.97</ele>
        <time>2025-05-12T16:21:08Z</time>
      </trkpt>
      <trkpt lat="37.421825034543872" lon="-2.917852979153395">
        <ele>1245.53</ele>
        <time>2025-05-12T16:21:09Z</time>
      </trkpt>
      <trkpt lat="37.423511976376176" lon="-2.918555969372392">
        <ele>1231.5899999999999</ele>
        <time>2025-05-12T16:21:18Z</time>
      </trkpt>
      <trkpt lat="37.425792021676898" lon="-2.919514020904899">
        <ele>1213.8</ele>
        <time>2025-05-12T16:21:29Z</time>
      </trkpt>
      <trkpt lat="37.428056979551911" lon="-2.920487998053432">
        <ele>1198.9000000000001</ele>
        <time>2025-05-12T16:21:40Z</time>
      </trkpt>
      <trkpt lat="37.430161004886031" lon="-2.921356027945876">
        <ele>1187.8499999999999</ele>
        <time>2025-05-12T16:21:50Z</time>
      </trkpt>
      <trkpt lat="37.432778002694249" lon="-2.922163959592581">
        <ele>1178.71</ele>
        <time>2025-05-12T16:22:02Z</time>
      </trkpt>
      <trkpt lat="37.434994010254741" lon="-2.922753961756825">
        <ele>1165.26</ele>
        <time>2025-05-12T16:22:12Z</time>
      </trkpt>
      <trkpt lat="37.437645038589835" lon="-2.923415964469314">
        <ele>1156.1199999999999</ele>
        <time>2025-05-12T16:22:23Z</time>
      </trkpt>
      <trkpt lat="37.440303023904562" lon="-2.924078973010182">
        <ele>1147.95</ele>
        <time>2025-05-12T16:22:34Z</time>
      </trkpt>
      <trkpt lat="37.443396029993892" lon="-2.924876008182764">
        <ele>1140.26</ele>
        <time>2025-05-12T16:22:47Z</time>
      </trkpt>
      <trkpt lat="37.445828961208463" lon="-2.925522001460195">
        <ele>1134.01</ele>
        <time>2025-05-12T16:22:57Z</time>
      </trkpt>
      <trkpt lat="37.448472026735544" lon="-2.926220968365669">
        <ele>1127.28</ele>
        <time>2025-05-12T16:23:08Z</time>
      </trkpt>
      <trkpt lat="37.451253980398178" lon="-2.926946002990007">
        <ele>1118.6300000000001</ele>
        <time>2025-05-12T16:23:20Z</time>
      </trkpt>
      <trkpt lat="37.454148000106215" lon="-2.927700961008668">
        <ele>1110.9400000000001</ele>
        <time>2025-05-12T16:23:32Z</time>
      </trkpt>
      <trkpt lat="37.456623008474708" lon="-2.928333962336183">
        <ele>1106.1300000000001</ele>
        <time>2025-05-12T16:23:42Z</time>
      </trkpt>
      <trkpt lat="37.459322987124324" lon="-2.929009962826967">
        <ele>1096.04</ele>
        <time>2025-05-12T16:23:53Z</time>
      </trkpt>
      <trkpt lat="37.461938979104161" lon="-2.929662996903062">
        <ele>1086.9100000000001</ele>
        <time>2025-05-12T16:24:04Z</time>
      </trkpt>
      <trkpt lat="37.464693021029234" lon="-2.930351989343762">
        <ele>1078.26</ele>
        <time>2025-05-12T16:24:16Z</time>
      </trkpt>
      <trkpt lat="37.467338014394045" lon="-2.93101298622787">
        <ele>1069.5999999999999</ele>
        <time>2025-05-12T16:24:28Z</time>
      </trkpt>
      <trkpt lat="37.468470996245742" lon="-2.931295959278941">
        <ele>1065.76</ele>
        <time>2025-05-12T16:24:36Z</time>
      </trkpt>
      <trkpt lat="37.46883200481534" lon="-2.931386986747384">
        <ele>1062.8699999999999</ele>
        <time>2025-05-12T16:24:41Z</time>
      </trkpt>
      <trkpt lat="37.468902999535203" lon="-2.931322026997805">
        <ele>1062.8699999999999</ele>
        <time>2025-05-12T16:24:42Z</time>
      </trkpt>
      <trkpt lat="37.468927977606654" lon="-2.931257989257574">
        <ele>1062.3900000000001</ele>
        <time>2025-05-12T16:24:43Z</time>
      </trkpt>
      <trkpt lat="37.468955973163247" lon="-2.931188000366092">
        <ele>1061.9100000000001</ele>
        <time>2025-05-12T16:24:44Z</time>
      </trkpt>
      <trkpt lat="37.468991009518504" lon="-2.931118011474609">
        <ele>1061.4300000000001</ele>
        <time>2025-05-12T16:24:45Z</time>
      </trkpt>
      <trkpt lat="37.469029985368252" lon="-2.931037964299321">
        <ele>1060.95</ele>
        <time>2025-05-12T16:24:46Z</time>
      </trkpt>
      <trkpt lat="37.469313964247704" lon="-2.930472018197179">
        <ele>1059.99</ele>
        <time>2025-05-12T16:24:52Z</time>
      </trkpt>
      <trkpt lat="37.469366015866399" lon="-2.93036699295044">
        <ele>1059.99</ele>
        <time>2025-05-12T16:24:53Z</time>
      </trkpt>
      <trkpt lat="37.469385964795947" lon="-2.930289041250944">
        <ele>1059.99</ele>
        <time>2025-05-12T16:24:54Z</time>
      </trkpt>
      <trkpt lat="37.469484033063054" lon="-2.92991403490305">
        <ele>1059.99</ele>
        <time>2025-05-12T16:24:59Z</time>
      </trkpt>
      <trkpt lat="37.469785027205944" lon="-2.929329983890057">
        <ele>1059.51</ele>
        <time>2025-05-12T16:25:07Z</time>
      </trkpt>
      <trkpt lat="37.470021983608603" lon="-2.928896974772215">
        <ele>1059.99</ele>
        <time>2025-05-12T16:25:14Z</time>
      </trkpt>
      <trkpt lat="37.470094989985228" lon="-2.928764037787914">
        <ele>1059.99</ele>
        <time>2025-05-12T16:25:16Z</time>
      </trkpt>
      <trkpt lat="37.470309985801578" lon="-2.928278977051377">
        <ele>1059.99</ele>
        <time>2025-05-12T16:25:22Z</time>
      </trkpt>
      <trkpt lat="37.47050897218287" lon="-2.928046965971589">
        <ele>1059.51</ele>
        <time>2025-05-12T16:25:29Z</time>
      </trkpt>
      <trkpt lat="37.470555994659662" lon="-2.928022993728519">
        <ele>1059.51</ele>
        <time>2025-05-12T16:25:30Z</time>
      </trkpt>
      <trkpt lat="37.470605028793216" lon="-2.927999021485448">
        <ele>1059.51</ele>
        <time>2025-05-12T16:25:31Z</time>
      </trkpt>
      <trkpt lat="37.470756992697716" lon="-2.927922997623682">
        <ele>1059.51</ele>
        <time>2025-05-12T16:25:34Z</time>
      </trkpt>
      <trkpt lat="37.470861012116075" lon="-2.927871029824019">
        <ele>1059.99</ele>
        <time>2025-05-12T16:25:36Z</time>
      </trkpt>
      <trkpt lat="37.47091700322926" lon="-2.927843034267426">
        <ele>1059.99</ele>
        <time>2025-05-12T16:25:37Z</time>
      </trkpt>
      <trkpt lat="37.470977017655969" lon="-2.927813027054071">
        <ele>1059.99</ele>
        <time>2025-05-12T16:25:38Z</time>
      </trkpt>
      <trkpt lat="37.471061004325747" lon="-2.927771033719182">
        <ele>1059.99</ele>
        <time>2025-05-12T16:25:39Z</time>
      </trkpt>
      <trkpt lat="37.471106015145779" lon="-2.927762987092137">
        <ele>1059.99</ele>
        <time>2025-05-12T16:25:40Z</time>
      </trkpt>
      <trkpt lat="37.471470963209867" lon="-2.927696015685797">
        <ele>1058.55</ele>
        <time>2025-05-12T16:25:46Z</time>
      </trkpt>
      <trkpt lat="37.47160498984158" lon="-2.927685035392642">
        <ele>1058.0699999999999</ele>
        <time>2025-05-12T16:25:48Z</time>
      </trkpt>
      <trkpt lat="37.471673972904682" lon="-2.927685035392642">
        <ele>1058.0699999999999</ele>
        <time>2025-05-12T16:25:49Z</time>
      </trkpt>
      <trkpt lat="37.471743961796165" lon="-2.927685035392642">
        <ele>1058.0699999999999</ele>
        <time>2025-05-12T16:25:50Z</time>
      </trkpt>
      <trkpt lat="37.471874970942736" lon="-2.927685035392642">
        <ele>1058.0699999999999</ele>
        <time>2025-05-12T16:25:52Z</time>
      </trkpt>
      <trkpt lat="37.472004974260926" lon="-2.927673971280456">
        <ele>1058.0699999999999</ele>
        <time>2025-05-12T16:25:54Z</time>
      </trkpt>
      <trkpt lat="37.472072029486299" lon="-2.927656034007669">
        <ele>1058.55</ele>
        <time>2025-05-12T16:25:55Z</time>
      </trkpt>
      <trkpt lat="37.47220303863287" lon="-2.927622003480792">
        <ele>1058.55</ele>
        <time>2025-05-12T16:25:57Z</time>
      </trkpt>
      <trkpt lat="37.472266992554069" lon="-2.927605994045734">
        <ele>1058.55</ele>
        <time>2025-05-12T16:25:58Z</time>
      </trkpt>
      <trkpt lat="37.472385009750724" lon="-2.927574981004">
        <ele>1059.03</ele>
        <time>2025-05-12T16:26:00Z</time>
      </trkpt>
      <trkpt lat="37.472438989207149" lon="-2.927560983225703">
        <ele>1059.03</ele>
        <time>2025-05-12T16:26:01Z</time>
      </trkpt>
      <trkpt lat="37.472481988370419" lon="-2.927517984062433">
        <ele>1059.03</ele>
        <time>2025-05-12T16:26:02Z</time>
      </trkpt>
      <trkpt lat="37.472514007240534" lon="-2.927469033747912">
        <ele>1059.03</ele>
        <time>2025-05-12T16:26:03Z</time>
      </trkpt>
      <trkpt lat="37.47254703193903" lon="-2.927418993785977">
        <ele>1059.03</ele>
        <time>2025-05-12T16:26:04Z</time>
      </trkpt>
      <trkpt lat="37.472580978646874" lon="-2.927368031814694">
        <ele>1059.03</ele>
        <time>2025-05-12T16:26:05Z</time>
      </trkpt>
      <trkpt lat="37.472615009173751" lon="-2.92731799185276">
        <ele>1059.03</ele>
        <time>2025-05-12T16:26:06Z</time>
      </trkpt>
      <trkpt lat="37.472628001123667" lon="-2.927298964932561">
        <ele>1059.03</ele>
        <time>2025-05-12T16:26:07Z</time>
      </trkpt>
      <trkpt lat="37.472692960873246" lon="-2.92725495994091">
        <ele>1059.03</ele>
        <time>2025-05-12T16:26:08Z</time>
      </trkpt>
      <trkpt lat="37.472739983350039" lon="-2.927224030718207">
        <ele>1059.03</ele>
        <time>2025-05-12T16:26:09Z</time>
      </trkpt>
      <trkpt lat="37.472789017483592" lon="-2.927191006019712">
        <ele>1058.55</ele>
        <time>2025-05-12T16:26:10Z</time>
      </trkpt>
      <trkpt lat="37.472836961969733" lon="-2.927158987149596">
        <ele>1058.0699999999999</ele>
        <time>2025-05-12T16:26:11Z</time>
      </trkpt>
      <trkpt lat="37.472995966672897" lon="-2.927073994651437">
        <ele>1057.5899999999999</ele>
        <time>2025-05-12T16:26:14Z</time>
      </trkpt>
      <trkpt lat="37.473333002999425" lon="-2.927006017416716">
        <ele>1055.6700000000001</ele>
        <time>2025-05-12T16:26:23Z</time>
      </trkpt>
      <trkpt lat="37.473385976627469" lon="-2.926995037123561">
        <ele>1054.22</ele>
        <time>2025-05-12T16:26:35Z</time>
      </trkpt>
      <trkpt lat="37.473420007154346" lon="-2.926987996324897">
        <ele>1053.74</ele>
        <time>2025-05-12T16:27:14Z</time>
      </trkpt>
      <trkpt lat="37.473452026024461" lon="-2.926981039345264">
        <ele>1053.26</ele>
        <time>2025-05-12T16:27:15Z</time>
      </trkpt>
      <trkpt lat="37.473951000720263" lon="-2.926889006048441">
        <ele>1050.8599999999999</ele>
        <time>2025-05-12T16:27:23Z</time>
      </trkpt>
      <trkpt lat="37.474230034276843" lon="-2.926878025755286">
        <ele>1048.9400000000001</ele>
        <time>2025-05-12T16:27:28Z</time>
      </trkpt>
      <trkpt lat="37.474514013156295" lon="-2.926860004663467">
        <ele>1047.01</ele>
        <time>2025-05-12T16:27:37Z</time>
      </trkpt>
      <trkpt lat="37.474821964278817" lon="-2.926813988015056">
        <ele>1047.01</ele>
        <time>2025-05-12T16:27:49Z</time>
      </trkpt>
      <trkpt lat="37.474865969270468" lon="-2.926850030198693">
        <ele>1046.53</ele>
        <time>2025-05-12T16:27:50Z</time>
      </trkpt>
      <trkpt lat="37.474865969270468" lon="-2.926850030198693">
        <ele>1045.0899999999999</ele>
        <time>2025-05-12T16:28:03Z</time>
      </trkpt>
    </trkseg>
  </trk>

</gpx>